﻿<?xml version="1.0" encoding="utf-8"?><gpx creator="Garmin Desktop App" version="1.1" xsi:schemaLocation="http://www.topografix.com/GPX/1/1 http://www.topografix.com/GPX/1/1/gpx.xsd http://www.garmin.com/xmlschemas/WaypointExtension/v1 http://www8.garmin.com/xmlschemas/WaypointExtensionv1.xsd http://www.garmin.com/xmlschemas/TrackPointExtension/v1 http://www.garmin.com/xmlschemas/TrackPointExtensionv1.xsd http://www.garmin.com/xmlschemas/GpxExtensions/v3 http://www8.garmin.com/xmlschemas/GpxExtensionsv3.xsd http://www.garmin.com/xmlschemas/ActivityExtension/v1 http://www8.garmin.com/xmlschemas/ActivityExtensionv1.xsd http://www.garmin.com/xmlschemas/AdventuresExtensions/v1 http://www8.garmin.com/xmlschemas/AdventuresExtensionv1.xsd http://www.garmin.com/xmlschemas/PressureExtension/v1 http://www.garmin.com/xmlschemas/PressureExtensionv1.xsd http://www.garmin.com/xmlschemas/TripExtensions/v1 http://www.garmin.com/xmlschemas/TripExtensionsv1.xsd http://www.garmin.com/xmlschemas/TripMetaDataExtensions/v1 http://www.garmin.com/xmlschemas/TripMetaDataExtensionsv1.xsd http://www.garmin.com/xmlschemas/ViaPointTransportationModeExtensions/v1 http://www.garmin.com/xmlschemas/ViaPointTransportationModeExtensionsv1.xsd http://www.garmin.com/xmlschemas/CreationTimeExtension/v1 http://www.garmin.com/xmlschemas/CreationTimeExtensionsv1.xsd http://www.garmin.com/xmlschemas/AccelerationExtension/v1 http://www.garmin.com/xmlschemas/AccelerationExtensionv1.xsd http://www.garmin.com/xmlschemas/PowerExtension/v1 http://www.garmin.com/xmlschemas/PowerExtensionv1.xsd http://www.garmin.com/xmlschemas/VideoExtension/v1 http://www.garmin.com/xmlschemas/VideoExtensionv1.xsd" xmlns="http://www.topografix.com/GPX/1/1" xmlns:xsi="http://www.w3.org/2001/XMLSchema-instance" xmlns:wptx1="http://www.garmin.com/xmlschemas/WaypointExtension/v1" xmlns:gpxtrx="http://www.garmin.com/xmlschemas/GpxExtensions/v3" xmlns:gpxtpx="http://www.garmin.com/xmlschemas/TrackPointExtension/v1" xmlns:gpxx="http://www.garmin.com/xmlschemas/GpxExtensions/v3" xmlns:trp="http://www.garmin.com/xmlschemas/TripExtensions/v1" xmlns:adv="http://www.garmin.com/xmlschemas/AdventuresExtensions/v1" xmlns:prs="http://www.garmin.com/xmlschemas/PressureExtension/v1" xmlns:tmd="http://www.garmin.com/xmlschemas/TripMetaDataExtensions/v1" xmlns:vptm="http://www.garmin.com/xmlschemas/ViaPointTransportationModeExtensions/v1" xmlns:ctx="http://www.garmin.com/xmlschemas/CreationTimeExtension/v1" xmlns:gpxacc="http://www.garmin.com/xmlschemas/AccelerationExtension/v1" xmlns:gpxpx="http://www.garmin.com/xmlschemas/PowerExtension/v1" xmlns:vidx1="http://www.garmin.com/xmlschemas/VideoExtension/v1">

  <metadata>
    <link href="http://www.garmin.com">
      <text>Garmin International</text>
    </link>
    <time>2025-04-29T17:21:23Z</time>
    <bounds maxlat="43.548317989334464" maxlon="-4.244478000327945" minlat="42.788589997217059" minlon="-7.046864982694387" />
  </metadata>

  <trk>
    <name>250429_G_Track</name>
    <extensions>
      <gpxx:TrackExtension>
        <gpxx:DisplayColor>DarkGray</gpxx:DisplayColor>
      </gpxx:TrackExtension>
    </extensions>
    <trkseg>
      <trkpt lat="42.792885974049568" lon="-4.258661018684506">
        <ele>943.19000000000005</ele>
        <time>2025-04-29T07:07:53Z</time>
      </trkpt>
      <trkpt lat="42.792885974049568" lon="-4.258661018684506">
        <ele>949.91999999999996</ele>
        <time>2025-04-29T07:08:23Z</time>
      </trkpt>
      <trkpt lat="42.792885974049568" lon="-4.258661018684506">
        <ele>927.80999999999995</ele>
        <time>2025-04-29T07:09:07Z</time>
      </trkpt>
      <trkpt lat="42.792584979906678" lon="-4.258533027023077">
        <ele>926.85000000000002</ele>
        <time>2025-04-29T07:09:24Z</time>
      </trkpt>
      <trkpt lat="42.792578022927046" lon="-4.258524980396032">
        <ele>926.85000000000002</ele>
        <time>2025-04-29T07:09:25Z</time>
      </trkpt>
      <trkpt lat="42.792521025985479" lon="-4.258467983454466">
        <ele>926.37</ele>
        <time>2025-04-29T07:09:26Z</time>
      </trkpt>
      <trkpt lat="42.792384987697005" lon="-4.258026005700231">
        <ele>924.92999999999995</ele>
        <time>2025-04-29T07:09:32Z</time>
      </trkpt>
      <trkpt lat="42.792357997968793" lon="-4.257936989888549">
        <ele>923.48000000000002</ele>
        <time>2025-04-29T07:09:33Z</time>
      </trkpt>
      <trkpt lat="42.792353974655271" lon="-4.257813021540642">
        <ele>922.51999999999998</ele>
        <time>2025-04-29T07:09:34Z</time>
      </trkpt>
      <trkpt lat="42.792357997968793" lon="-4.25772400572896">
        <ele>921.55999999999995</ele>
        <time>2025-04-29T07:09:35Z</time>
      </trkpt>
      <trkpt lat="42.792361015453935" lon="-4.257649993523955">
        <ele>920.60000000000002</ele>
        <time>2025-04-29T07:09:36Z</time>
      </trkpt>
      <trkpt lat="42.792364032939076" lon="-4.257598025724292">
        <ele>920.60000000000002</ele>
        <time>2025-04-29T07:09:37Z</time>
      </trkpt>
      <trkpt lat="42.792365038767457" lon="-4.257561983540654">
        <ele>920.60000000000002</ele>
        <time>2025-04-29T07:09:38Z</time>
      </trkpt>
      <trkpt lat="42.792365960776806" lon="-4.257535999640822">
        <ele>920.12</ele>
        <time>2025-04-29T07:09:39Z</time>
      </trkpt>
      <trkpt lat="42.792365960776806" lon="-4.257535999640822">
        <ele>920.12</ele>
        <time>2025-04-29T07:09:54Z</time>
      </trkpt>
      <trkpt lat="42.792367972433567" lon="-4.257499035447836">
        <ele>920.12</ele>
        <time>2025-04-29T07:10:00Z</time>
      </trkpt>
      <trkpt lat="42.792435027658939" lon="-4.257470034062862">
        <ele>919.63999999999999</ele>
        <time>2025-04-29T07:10:01Z</time>
      </trkpt>
      <trkpt lat="42.79250199906528" lon="-4.257503980770707">
        <ele>919.63999999999999</ele>
        <time>2025-04-29T07:10:03Z</time>
      </trkpt>
      <trkpt lat="42.792547009885311" lon="-4.257526025176048">
        <ele>919.15999999999997</ele>
        <time>2025-04-29T07:10:04Z</time>
      </trkpt>
      <trkpt lat="42.792719006538391" lon="-4.257612023502588">
        <ele>918.67999999999995</ele>
        <time>2025-04-29T07:10:07Z</time>
      </trkpt>
      <trkpt lat="42.792779020965099" lon="-4.257645970210433">
        <ele>918.20000000000005</ele>
        <time>2025-04-29T07:10:08Z</time>
      </trkpt>
      <trkpt lat="42.792834006249905" lon="-4.257677989080548">
        <ele>917.72000000000003</ele>
        <time>2025-04-29T07:10:09Z</time>
      </trkpt>
      <trkpt lat="42.79308202676475" lon="-4.257817966863513">
        <ele>914.83000000000004</ele>
        <time>2025-04-29T07:10:13Z</time>
      </trkpt>
      <trkpt lat="42.793162995949388" lon="-4.257863983511925">
        <ele>913.87</ele>
        <time>2025-04-29T07:10:15Z</time>
      </trkpt>
      <trkpt lat="42.793194008991122" lon="-4.257880998775363">
        <ele>913.38999999999999</ele>
        <time>2025-04-29T07:10:16Z</time>
      </trkpt>
      <trkpt lat="42.793194008991122" lon="-4.257880998775363">
        <ele>910.50999999999999</ele>
        <time>2025-04-29T07:10:26Z</time>
      </trkpt>
      <trkpt lat="42.793208006769419" lon="-4.257888961583376">
        <ele>909.05999999999995</ele>
        <time>2025-04-29T07:10:28Z</time>
      </trkpt>
      <trkpt lat="42.793208006769419" lon="-4.257888961583376">
        <ele>908.10000000000002</ele>
        <time>2025-04-29T07:10:29Z</time>
      </trkpt>
      <trkpt lat="42.793099964037538" lon="-4.258124995976687">
        <ele>904.25999999999999</ele>
        <time>2025-04-29T07:10:39Z</time>
      </trkpt>
      <trkpt lat="42.793145980685949" lon="-4.258166989311576">
        <ele>903.77999999999997</ele>
        <time>2025-04-29T07:10:40Z</time>
      </trkpt>
      <trkpt lat="42.793170036748052" lon="-4.258189033716917">
        <ele>903.29999999999995</ele>
        <time>2025-04-29T07:10:41Z</time>
      </trkpt>
      <trkpt lat="42.793199960142374" lon="-4.25821702927351">
        <ele>902.82000000000005</ele>
        <time>2025-04-29T07:10:42Z</time>
      </trkpt>
      <trkpt lat="42.793230973184109" lon="-4.258245024830103">
        <ele>902.33000000000004</ele>
        <time>2025-04-29T07:10:43Z</time>
      </trkpt>
      <trkpt lat="42.793266009539366" lon="-4.258276959881187">
        <ele>901.85000000000002</ele>
        <time>2025-04-29T07:10:44Z</time>
      </trkpt>
      <trkpt lat="42.793378997594118" lon="-4.258381985127926">
        <ele>900.88999999999999</ele>
        <time>2025-04-29T07:10:46Z</time>
      </trkpt>
      <trkpt lat="42.793541019782424" lon="-4.258624976500869">
        <ele>898.97000000000003</ele>
        <time>2025-04-29T07:10:51Z</time>
      </trkpt>
      <trkpt lat="42.793567003682256" lon="-4.258634028956294">
        <ele>898.49000000000001</ele>
        <time>2025-04-29T07:10:52Z</time>
      </trkpt>
      <trkpt lat="42.793603967875242" lon="-4.258620031177998">
        <ele>898.49000000000001</ele>
        <time>2025-04-29T07:10:53Z</time>
      </trkpt>
      <trkpt lat="42.793660964816809" lon="-4.258598992601037">
        <ele>898.00999999999999</ele>
        <time>2025-04-29T07:10:54Z</time>
      </trkpt>
      <trkpt lat="42.793719973415136" lon="-4.258576026186347">
        <ele>897.52999999999997</ele>
        <time>2025-04-29T07:10:55Z</time>
      </trkpt>
      <trkpt lat="42.793779987841845" lon="-4.258553981781006">
        <ele>897.04999999999995</ele>
        <time>2025-04-29T07:10:56Z</time>
      </trkpt>
      <trkpt lat="42.79383597895503" lon="-4.258533027023077">
        <ele>896.57000000000005</ele>
        <time>2025-04-29T07:10:57Z</time>
      </trkpt>
      <trkpt lat="42.793917031958699" lon="-4.25845499150455">
        <ele>896.09000000000003</ele>
        <time>2025-04-29T07:10:58Z</time>
      </trkpt>
      <trkpt lat="42.793946033343673" lon="-4.258394977077842">
        <ele>895.61000000000001</ele>
        <time>2025-04-29T07:10:59Z</time>
      </trkpt>
      <trkpt lat="42.794008981436491" lon="-4.258332028985024">
        <ele>895.61000000000001</ele>
        <time>2025-04-29T07:11:00Z</time>
      </trkpt>
      <trkpt lat="42.794062960892916" lon="-4.258277965709567">
        <ele>896.09000000000003</ele>
        <time>2025-04-29T07:11:01Z</time>
      </trkpt>
      <trkpt lat="42.794110989198089" lon="-4.258231027051806">
        <ele>896.09000000000003</ele>
        <time>2025-04-29T07:11:02Z</time>
      </trkpt>
      <trkpt lat="42.794158011674881" lon="-4.258190039545298">
        <ele>896.09000000000003</ele>
        <time>2025-04-29T07:11:03Z</time>
      </trkpt>
      <trkpt lat="42.79419899918139" lon="-4.258152991533279">
        <ele>896.57000000000005</ele>
        <time>2025-04-29T07:11:04Z</time>
      </trkpt>
      <trkpt lat="42.794235963374376" lon="-4.258120972663164">
        <ele>897.04999999999995</ele>
        <time>2025-04-29T07:11:10Z</time>
      </trkpt>
      <trkpt lat="42.794274017214775" lon="-4.2580880317837">
        <ele>897.04999999999995</ele>
        <time>2025-04-29T07:11:29Z</time>
      </trkpt>
      <trkpt lat="42.79426303692162" lon="-4.25804796628654">
        <ele>897.04999999999995</ele>
        <time>2025-04-29T07:11:30Z</time>
      </trkpt>
      <trkpt lat="42.794233029708266" lon="-4.257989963516593">
        <ele>897.52999999999997</ele>
        <time>2025-04-29T07:11:31Z</time>
      </trkpt>
      <trkpt lat="42.793967993929982" lon="-4.257472967728972">
        <ele>904.25999999999999</ele>
        <time>2025-04-29T07:11:40Z</time>
      </trkpt>
      <trkpt lat="42.793946033343673" lon="-4.257429968565702">
        <ele>905.22000000000003</ele>
        <time>2025-04-29T07:11:49Z</time>
      </trkpt>
      <trkpt lat="42.793820975348353" lon="-4.257169039919972">
        <ele>906.17999999999995</ele>
        <time>2025-04-29T07:11:59Z</time>
      </trkpt>
      <trkpt lat="42.793679991737008" lon="-4.256858993321657">
        <ele>906.65999999999997</ele>
        <time>2025-04-29T07:12:07Z</time>
      </trkpt>
      <trkpt lat="42.793572032824159" lon="-4.256665958091617">
        <ele>906.65999999999997</ele>
        <time>2025-04-29T07:12:08Z</time>
      </trkpt>
      <trkpt lat="42.793572032824159" lon="-4.256665958091617">
        <ele>906.65999999999997</ele>
        <time>2025-04-29T07:12:09Z</time>
      </trkpt>
      <trkpt lat="42.793564992025495" lon="-4.25656596198678">
        <ele>906.65999999999997</ele>
        <time>2025-04-29T07:12:10Z</time>
      </trkpt>
      <trkpt lat="42.793559040874243" lon="-4.256470995023847">
        <ele>906.65999999999997</ele>
        <time>2025-04-29T07:12:11Z</time>
      </trkpt>
      <trkpt lat="42.793507995083928" lon="-4.255678988993168">
        <ele>906.65999999999997</ele>
        <time>2025-04-29T07:12:20Z</time>
      </trkpt>
      <trkpt lat="42.793507995083928" lon="-4.255678988993168">
        <ele>906.65999999999997</ele>
        <time>2025-04-29T07:12:21Z</time>
      </trkpt>
      <trkpt lat="42.793507995083928" lon="-4.255678988993168">
        <ele>906.65999999999997</ele>
        <time>2025-04-29T07:12:22Z</time>
      </trkpt>
      <trkpt lat="42.793507995083928" lon="-4.255678988993168">
        <ele>907.13999999999999</ele>
        <time>2025-04-29T07:12:23Z</time>
      </trkpt>
      <trkpt lat="42.793507995083928" lon="-4.255678988993168">
        <ele>907.13999999999999</ele>
        <time>2025-04-29T07:12:24Z</time>
      </trkpt>
      <trkpt lat="42.793507995083928" lon="-4.255678988993168">
        <ele>906.65999999999997</ele>
        <time>2025-04-29T07:12:32Z</time>
      </trkpt>
      <trkpt lat="42.793263997882605" lon="-4.255574969574809">
        <ele>971.54999999999995</ele>
        <time>2025-04-29T07:15:57Z</time>
      </trkpt>
      <trkpt lat="42.79340598732233" lon="-4.255602965131402">
        <ele>957.61000000000001</ele>
        <time>2025-04-29T07:16:19Z</time>
      </trkpt>
      <trkpt lat="42.793418979272246" lon="-4.255456030368805">
        <ele>929.25</ele>
        <time>2025-04-29T07:17:08Z</time>
      </trkpt>
      <trkpt lat="42.793429959565401" lon="-4.255342958495021">
        <ele>923.48000000000002</ele>
        <time>2025-04-29T07:17:14Z</time>
      </trkpt>
      <trkpt lat="42.793357959017158" lon="-4.255303982645273">
        <ele>923.48000000000002</ele>
        <time>2025-04-29T07:17:16Z</time>
      </trkpt>
      <trkpt lat="42.793341027572751" lon="-4.255261989310384">
        <ele>923.48000000000002</ele>
        <time>2025-04-29T07:17:17Z</time>
      </trkpt>
      <trkpt lat="42.793330969288945" lon="-4.255234999582171">
        <ele>923.96000000000004</ele>
        <time>2025-04-29T07:17:18Z</time>
      </trkpt>
      <trkpt lat="42.793330969288945" lon="-4.255234999582171">
        <ele>924.45000000000005</ele>
        <time>2025-04-29T07:17:19Z</time>
      </trkpt>
      <trkpt lat="42.793299034237862" lon="-4.255155958235264">
        <ele>923.96000000000004</ele>
        <time>2025-04-29T07:17:21Z</time>
      </trkpt>
      <trkpt lat="42.793273972347379" lon="-4.255087981000543">
        <ele>923.96000000000004</ele>
        <time>2025-04-29T07:17:22Z</time>
      </trkpt>
      <trkpt lat="42.793244970962405" lon="-4.255009023472667">
        <ele>923.96000000000004</ele>
        <time>2025-04-29T07:17:23Z</time>
      </trkpt>
      <trkpt lat="42.793502965942025" lon="-4.254798972979188">
        <ele>922.51999999999998</ele>
        <time>2025-04-29T07:17:24Z</time>
      </trkpt>
      <trkpt lat="42.793497014790773" lon="-4.25467299297452">
        <ele>921.55999999999995</ele>
        <time>2025-04-29T07:17:25Z</time>
      </trkpt>
      <trkpt lat="42.793449992313981" lon="-4.253310011699796">
        <ele>916.26999999999998</ele>
        <time>2025-04-29T07:17:34Z</time>
      </trkpt>
      <trkpt lat="42.793574966490269" lon="-4.251993969082832">
        <ele>916.26999999999998</ele>
        <time>2025-04-29T07:17:43Z</time>
      </trkpt>
      <trkpt lat="42.794042006134987" lon="-4.250026987865567">
        <ele>915.30999999999995</ele>
        <time>2025-04-29T07:17:55Z</time>
      </trkpt>
      <trkpt lat="42.7950360160321" lon="-4.247642001137137">
        <ele>912.42999999999995</ele>
        <time>2025-04-29T07:18:09Z</time>
      </trkpt>
      <trkpt lat="42.795803966000676" lon="-4.245827989652753">
        <ele>910.99000000000001</ele>
        <time>2025-04-29T07:18:21Z</time>
      </trkpt>
      <trkpt lat="42.795825004577637" lon="-4.245726987719536">
        <ele>910.99000000000001</ele>
        <time>2025-04-29T07:18:22Z</time>
      </trkpt>
      <trkpt lat="42.795786028727889" lon="-4.245651969686151">
        <ele>911.47000000000003</ele>
        <time>2025-04-29T07:18:23Z</time>
      </trkpt>
      <trkpt lat="42.795763984322548" lon="-4.245600001886487">
        <ele>911.47000000000003</ele>
        <time>2025-04-29T07:18:24Z</time>
      </trkpt>
      <trkpt lat="42.795711010694504" lon="-4.245579969137907">
        <ele>911.95000000000005</ele>
        <time>2025-04-29T07:18:25Z</time>
      </trkpt>
      <trkpt lat="42.795672034844756" lon="-4.245567983016372">
        <ele>911.95000000000005</ele>
        <time>2025-04-29T07:18:26Z</time>
      </trkpt>
      <trkpt lat="42.795607997104526" lon="-4.245552979409695">
        <ele>911.95000000000005</ele>
        <time>2025-04-29T07:18:27Z</time>
      </trkpt>
      <trkpt lat="42.795547982677817" lon="-4.245608970522881">
        <ele>911.95000000000005</ele>
        <time>2025-04-29T07:18:28Z</time>
      </trkpt>
      <trkpt lat="42.795444969087839" lon="-4.245704021304846">
        <ele>911.47000000000003</ele>
        <time>2025-04-29T07:18:29Z</time>
      </trkpt>
      <trkpt lat="42.795297028496861" lon="-4.245841987431049">
        <ele>910.99000000000001</ele>
        <time>2025-04-29T07:18:30Z</time>
      </trkpt>
      <trkpt lat="42.793927006423473" lon="-4.246948985382915">
        <ele>908.58000000000004</ele>
        <time>2025-04-29T07:18:38Z</time>
      </trkpt>
      <trkpt lat="42.79207200743258" lon="-4.248352032154799">
        <ele>910.50999999999999</ele>
        <time>2025-04-29T07:18:49Z</time>
      </trkpt>
      <trkpt lat="42.791574960574508" lon="-4.248770959675312">
        <ele>913.87</ele>
        <time>2025-04-29T07:18:53Z</time>
      </trkpt>
      <trkpt lat="42.791526010259986" lon="-4.248844971880317">
        <ele>914.35000000000002</ele>
        <time>2025-04-29T07:18:54Z</time>
      </trkpt>
      <trkpt lat="42.79149298556149" lon="-4.248905992135406">
        <ele>914.83000000000004</ele>
        <time>2025-04-29T07:18:55Z</time>
      </trkpt>
      <trkpt lat="42.791408998891711" lon="-4.249113025143743">
        <ele>916.26999999999998</ele>
        <time>2025-04-29T07:18:58Z</time>
      </trkpt>
      <trkpt lat="42.791383014991879" lon="-4.249161975458264">
        <ele>916.75</ele>
        <time>2025-04-29T07:18:59Z</time>
      </trkpt>
      <trkpt lat="42.791344039142132" lon="-4.249210003763437">
        <ele>917.24000000000001</ele>
        <time>2025-04-29T07:19:00Z</time>
      </trkpt>
      <trkpt lat="42.791311014443636" lon="-4.249240010976791">
        <ele>917.72000000000003</ele>
        <time>2025-04-29T07:19:01Z</time>
      </trkpt>
      <trkpt lat="42.79125502333045" lon="-4.249230958521366">
        <ele>918.20000000000005</ele>
        <time>2025-04-29T07:19:02Z</time>
      </trkpt>
      <trkpt lat="42.791190985590219" lon="-4.249219978228211">
        <ele>918.20000000000005</ele>
        <time>2025-04-29T07:19:03Z</time>
      </trkpt>
      <trkpt lat="42.791166007518768" lon="-4.249164992943406">
        <ele>918.67999999999995</ele>
        <time>2025-04-29T07:19:04Z</time>
      </trkpt>
      <trkpt lat="42.791136000305414" lon="-4.249098021537066">
        <ele>918.67999999999995</ele>
        <time>2025-04-29T07:19:05Z</time>
      </trkpt>
      <trkpt lat="42.79110599309206" lon="-4.249029038473964">
        <ele>918.67999999999995</ele>
        <time>2025-04-29T07:19:06Z</time>
      </trkpt>
      <trkpt lat="42.791128037497401" lon="-4.248973969370127">
        <ele>919.15999999999997</ele>
        <time>2025-04-29T07:19:07Z</time>
      </trkpt>
      <trkpt lat="42.791158966720104" lon="-4.248903980478644">
        <ele>919.15999999999997</ele>
        <time>2025-04-29T07:19:08Z</time>
      </trkpt>
      <trkpt lat="42.791123008355498" lon="-4.248713962733746">
        <ele>919.15999999999997</ele>
        <time>2025-04-29T07:19:09Z</time>
      </trkpt>
      <trkpt lat="42.791073974221945" lon="-4.248626958578825">
        <ele>919.15999999999997</ele>
        <time>2025-04-29T07:19:10Z</time>
      </trkpt>
      <trkpt lat="42.79101898893714" lon="-4.24852897413075">
        <ele>919.15999999999997</ele>
        <time>2025-04-29T07:19:11Z</time>
      </trkpt>
      <trkpt lat="42.79046100564301" lon="-4.247460030019283">
        <ele>917.72000000000003</ele>
        <time>2025-04-29T07:19:19Z</time>
      </trkpt>
      <trkpt lat="42.789698000997305" lon="-4.245954975485802">
        <ele>910.02999999999997</ele>
        <time>2025-04-29T07:19:28Z</time>
      </trkpt>
      <trkpt lat="42.789678974077106" lon="-4.245771998539567">
        <ele>909.53999999999996</ele>
        <time>2025-04-29T07:19:29Z</time>
      </trkpt>
      <trkpt lat="42.789659025147557" lon="-4.245587009936571">
        <ele>909.53999999999996</ele>
        <time>2025-04-29T07:19:30Z</time>
      </trkpt>
      <trkpt lat="42.789634969085455" lon="-4.245396992191672">
        <ele>909.05999999999995</ele>
        <time>2025-04-29T07:19:31Z</time>
      </trkpt>
      <trkpt lat="42.789605967700481" lon="-4.245214015245438">
        <ele>908.58000000000004</ele>
        <time>2025-04-29T07:19:33Z</time>
      </trkpt>
      <trkpt lat="42.789501026272774" lon="-4.244945039972663">
        <ele>908.58000000000004</ele>
        <time>2025-04-29T07:19:34Z</time>
      </trkpt>
      <trkpt lat="42.789431037381291" lon="-4.244879996404052">
        <ele>908.10000000000002</ele>
        <time>2025-04-29T07:19:35Z</time>
      </trkpt>
      <trkpt lat="42.789359036833048" lon="-4.244834985584021">
        <ele>908.10000000000002</ele>
        <time>2025-04-29T07:19:36Z</time>
      </trkpt>
      <trkpt lat="42.789291981607676" lon="-4.244798021391034">
        <ele>908.10000000000002</ele>
        <time>2025-04-29T07:19:37Z</time>
      </trkpt>
      <trkpt lat="42.789230039343238" lon="-4.244787963107228">
        <ele>908.10000000000002</ele>
        <time>2025-04-29T07:19:38Z</time>
      </trkpt>
      <trkpt lat="42.789124008268118" lon="-4.244886031374335">
        <ele>908.10000000000002</ele>
        <time>2025-04-29T07:19:39Z</time>
      </trkpt>
      <trkpt lat="42.789076985791326" lon="-4.244991978630424">
        <ele>908.10000000000002</ele>
        <time>2025-04-29T07:19:40Z</time>
      </trkpt>
      <trkpt lat="42.789066005498171" lon="-4.245014023035765">
        <ele>908.58000000000004</ele>
        <time>2025-04-29T07:19:41Z</time>
      </trkpt>
      <trkpt lat="42.788947988301516" lon="-4.245230024680495">
        <ele>908.58000000000004</ele>
        <time>2025-04-29T07:19:42Z</time>
      </trkpt>
      <trkpt lat="42.788940025493503" lon="-4.245356004685164">
        <ele>909.05999999999995</ele>
        <time>2025-04-29T07:19:43Z</time>
      </trkpt>
      <trkpt lat="42.788939019665122" lon="-4.245485002174974">
        <ele>909.53999999999996</ele>
        <time>2025-04-29T07:19:44Z</time>
      </trkpt>
      <trkpt lat="42.788941031321883" lon="-4.2456079646945">
        <ele>910.02999999999997</ele>
        <time>2025-04-29T07:19:45Z</time>
      </trkpt>
      <trkpt lat="42.788942959159613" lon="-4.245731011033058">
        <ele>910.50999999999999</ele>
        <time>2025-04-29T07:19:46Z</time>
      </trkpt>
      <trkpt lat="42.788944970816374" lon="-4.245854979380965">
        <ele>910.50999999999999</ele>
        <time>2025-04-29T07:19:47Z</time>
      </trkpt>
      <trkpt lat="42.788957040756941" lon="-4.246610021218658">
        <ele>912.42999999999995</ele>
        <time>2025-04-29T07:19:54Z</time>
      </trkpt>
      <trkpt lat="42.788930973038077" lon="-4.246754022315145">
        <ele>912.90999999999997</ele>
        <time>2025-04-29T07:19:55Z</time>
      </trkpt>
      <trkpt lat="42.788861989974976" lon="-4.246757039800286">
        <ele>912.90999999999997</ele>
        <time>2025-04-29T07:19:56Z</time>
      </trkpt>
      <trkpt lat="42.788788983598351" lon="-4.246760979294777">
        <ele>912.90999999999997</ele>
        <time>2025-04-29T07:19:57Z</time>
      </trkpt>
      <trkpt lat="42.788716983050108" lon="-4.246763996779919">
        <ele>912.90999999999997</ele>
        <time>2025-04-29T07:19:58Z</time>
      </trkpt>
      <trkpt lat="42.7886120416224" lon="-4.246769025921822">
        <ele>913.38999999999999</ele>
        <time>2025-04-29T07:20:00Z</time>
      </trkpt>
      <trkpt lat="42.788589997217059" lon="-4.246770031750202">
        <ele>913.38999999999999</ele>
        <time>2025-04-29T07:20:01Z</time>
      </trkpt>
      <trkpt lat="42.788683036342263" lon="-4.247081000357866">
        <ele>912.42999999999995</ele>
        <time>2025-04-29T07:20:08Z</time>
      </trkpt>
      <trkpt lat="42.788816979154944" lon="-4.247044958174229">
        <ele>882.14999999999998</ele>
        <time>2025-04-29T07:22:42Z</time>
      </trkpt>
      <trkpt lat="42.788790995255113" lon="-4.247019980102778">
        <ele>889.36000000000001</ele>
        <time>2025-04-29T07:23:07Z</time>
      </trkpt>
      <trkpt lat="42.788750007748604" lon="-4.247041018679738">
        <ele>896.57000000000005</ele>
        <time>2025-04-29T07:23:47Z</time>
      </trkpt>
      <trkpt lat="42.788744978606701" lon="-4.24704696983099">
        <ele>900.88999999999999</ele>
        <time>2025-04-29T07:24:54Z</time>
      </trkpt>
      <trkpt lat="42.788739027455449" lon="-4.247048981487751">
        <ele>900.40999999999997</ele>
        <time>2025-04-29T07:25:07Z</time>
      </trkpt>
      <trkpt lat="42.788802981376648" lon="-4.246959965676069">
        <ele>899.45000000000005</ele>
        <time>2025-04-29T07:25:36Z</time>
      </trkpt>
      <trkpt lat="42.788793006911874" lon="-4.246999025344849">
        <ele>899.45000000000005</ele>
        <time>2025-04-29T07:26:13Z</time>
      </trkpt>
      <trkpt lat="42.788793006911874" lon="-4.246999025344849">
        <ele>899.45000000000005</ele>
        <time>2025-04-29T07:26:28Z</time>
      </trkpt>
      <trkpt lat="42.788799041882157" lon="-4.247137997299433">
        <ele>902.33000000000004</ele>
        <time>2025-04-29T07:26:45Z</time>
      </trkpt>
      <trkpt lat="42.788799041882157" lon="-4.247137997299433">
        <ele>902.33000000000004</ele>
        <time>2025-04-29T07:26:46Z</time>
      </trkpt>
      <trkpt lat="42.788914041593671" lon="-4.247168004512787">
        <ele>904.74000000000001</ele>
        <time>2025-04-29T07:26:51Z</time>
      </trkpt>
      <trkpt lat="42.788968021050096" lon="-4.24711100757122">
        <ele>906.65999999999997</ele>
        <time>2025-04-29T07:26:54Z</time>
      </trkpt>
      <trkpt lat="42.788967015221715" lon="-4.247061973437667">
        <ele>906.17999999999995</ele>
        <time>2025-04-29T07:26:55Z</time>
      </trkpt>
      <trkpt lat="42.788965003564954" lon="-4.246984021738172">
        <ele>906.17999999999995</ele>
        <time>2025-04-29T07:26:56Z</time>
      </trkpt>
      <trkpt lat="42.78895896859467" lon="-4.246752010658383">
        <ele>905.70000000000005</ele>
        <time>2025-04-29T07:26:57Z</time>
      </trkpt>
      <trkpt lat="42.78895896859467" lon="-4.246741030365229">
        <ele>905.70000000000005</ele>
        <time>2025-04-29T07:26:58Z</time>
      </trkpt>
      <trkpt lat="42.788938013836741" lon="-4.245414007455111">
        <ele>905.70000000000005</ele>
        <time>2025-04-29T07:27:07Z</time>
      </trkpt>
      <trkpt lat="42.788943964987993" lon="-4.245300013571978">
        <ele>905.70000000000005</ele>
        <time>2025-04-29T07:27:08Z</time>
      </trkpt>
      <trkpt lat="42.788852015510201" lon="-4.245014023035765">
        <ele>905.22000000000003</ele>
        <time>2025-04-29T07:27:09Z</time>
      </trkpt>
      <trkpt lat="42.788852015510201" lon="-4.245014023035765">
        <ele>904.74000000000001</ele>
        <time>2025-04-29T07:27:10Z</time>
      </trkpt>
      <trkpt lat="42.788800969719887" lon="-4.244902040809393">
        <ele>904.25999999999999</ele>
        <time>2025-04-29T07:27:11Z</time>
      </trkpt>
      <trkpt lat="42.788754031062126" lon="-4.244799027219415">
        <ele>904.25999999999999</ele>
        <time>2025-04-29T07:27:12Z</time>
      </trkpt>
      <trkpt lat="42.788770040497184" lon="-4.244691990315914">
        <ele>904.25999999999999</ele>
        <time>2025-04-29T07:27:13Z</time>
      </trkpt>
      <trkpt lat="42.788799963891506" lon="-4.244593000039458">
        <ele>904.25999999999999</ele>
        <time>2025-04-29T07:27:14Z</time>
      </trkpt>
      <trkpt lat="42.788854027166963" lon="-4.244537008926272">
        <ele>904.25999999999999</ele>
        <time>2025-04-29T07:27:15Z</time>
      </trkpt>
      <trkpt lat="42.788923010230064" lon="-4.244498033076525">
        <ele>904.74000000000001</ele>
        <time>2025-04-29T07:27:16Z</time>
      </trkpt>
      <trkpt lat="42.78900196775794" lon="-4.244478000327945">
        <ele>904.74000000000001</ele>
        <time>2025-04-29T07:27:17Z</time>
      </trkpt>
      <trkpt lat="42.789049996063113" lon="-4.244533991441131">
        <ele>905.22000000000003</ele>
        <time>2025-04-29T07:27:18Z</time>
      </trkpt>
      <trkpt lat="42.789115961641073" lon="-4.244610015302897">
        <ele>905.22000000000003</ele>
        <time>2025-04-29T07:27:19Z</time>
      </trkpt>
      <trkpt lat="42.78913096524775" lon="-4.244628036394715">
        <ele>905.70000000000005</ele>
        <time>2025-04-29T07:27:20Z</time>
      </trkpt>
      <trkpt lat="42.789302039891481" lon="-4.244800033047795">
        <ele>905.70000000000005</ele>
        <time>2025-04-29T07:27:21Z</time>
      </trkpt>
      <trkpt lat="42.789474036544561" lon="-4.244906986132264">
        <ele>905.70000000000005</ele>
        <time>2025-04-29T07:27:23Z</time>
      </trkpt>
      <trkpt lat="42.789553999900818" lon="-4.245018968358636">
        <ele>905.70000000000005</ele>
        <time>2025-04-29T07:27:24Z</time>
      </trkpt>
      <trkpt lat="42.789595993235707" lon="-4.245147965848446">
        <ele>905.70000000000005</ele>
        <time>2025-04-29T07:27:25Z</time>
      </trkpt>
      <trkpt lat="42.789621977135539" lon="-4.245314011350274">
        <ele>905.70000000000005</ele>
        <time>2025-04-29T07:27:26Z</time>
      </trkpt>
      <trkpt lat="42.789647039026022" lon="-4.245481984689832">
        <ele>906.17999999999995</ele>
        <time>2025-04-29T07:27:27Z</time>
      </trkpt>
      <trkpt lat="42.78966598212719" lon="-4.245659010484815">
        <ele>906.17999999999995</ele>
        <time>2025-04-29T07:27:28Z</time>
      </trkpt>
      <trkpt lat="42.78968702070415" lon="-4.245846010744572">
        <ele>906.65999999999997</ele>
        <time>2025-04-29T07:27:29Z</time>
      </trkpt>
      <trkpt lat="42.78970998711884" lon="-4.246066035702825">
        <ele>906.65999999999997</ele>
        <time>2025-04-29T07:27:30Z</time>
      </trkpt>
      <trkpt lat="42.789764972403646" lon="-4.246217999607325">
        <ele>907.13999999999999</ele>
        <time>2025-04-29T07:27:31Z</time>
      </trkpt>
      <trkpt lat="42.789836972951889" lon="-4.246397037059069">
        <ele>907.13999999999999</ele>
        <time>2025-04-29T07:27:32Z</time>
      </trkpt>
      <trkpt lat="42.789931017905474" lon="-4.246550006791949">
        <ele>907.13999999999999</ele>
        <time>2025-04-29T07:27:33Z</time>
      </trkpt>
      <trkpt lat="42.790994010865688" lon="-4.24848304130137">
        <ele>917.24000000000001</ele>
        <time>2025-04-29T07:27:46Z</time>
      </trkpt>
      <trkpt lat="42.791128037497401" lon="-4.24872200936079">
        <ele>917.24000000000001</ele>
        <time>2025-04-29T07:27:48Z</time>
      </trkpt>
      <trkpt lat="42.791188973933458" lon="-4.24882996827364">
        <ele>917.72000000000003</ele>
        <time>2025-04-29T07:27:49Z</time>
      </trkpt>
      <trkpt lat="42.791387960314751" lon="-4.248940022662282">
        <ele>917.24000000000001</ele>
        <time>2025-04-29T07:27:51Z</time>
      </trkpt>
      <trkpt lat="42.79142701998353" lon="-4.249027026817203">
        <ele>916.75</ele>
        <time>2025-04-29T07:27:52Z</time>
      </trkpt>
      <trkpt lat="42.79140698723495" lon="-4.249122999608517">
        <ele>916.75</ele>
        <time>2025-04-29T07:27:53Z</time>
      </trkpt>
      <trkpt lat="42.791371028870344" lon="-4.24938996322453">
        <ele>916.26999999999998</ele>
        <time>2025-04-29T07:27:55Z</time>
      </trkpt>
      <trkpt lat="42.791410004720092" lon="-4.249503035098314">
        <ele>916.26999999999998</ele>
        <time>2025-04-29T07:27:56Z</time>
      </trkpt>
      <trkpt lat="42.791845025494695" lon="-4.250774988904595">
        <ele>912.90999999999997</ele>
        <time>2025-04-29T07:28:05Z</time>
      </trkpt>
      <trkpt lat="42.792176026850939" lon="-4.251905959099531">
        <ele>913.38999999999999</ele>
        <time>2025-04-29T07:28:16Z</time>
      </trkpt>
      <trkpt lat="42.792594032362103" lon="-4.253184031695128">
        <ele>911.95000000000005</ele>
        <time>2025-04-29T07:28:28Z</time>
      </trkpt>
      <trkpt lat="42.792626973241568" lon="-4.253278998658061">
        <ele>911.95000000000005</ele>
        <time>2025-04-29T07:28:29Z</time>
      </trkpt>
      <trkpt lat="42.792662009596825" lon="-4.253380000591278">
        <ele>911.47000000000003</ele>
        <time>2025-04-29T07:28:30Z</time>
      </trkpt>
      <trkpt lat="42.793078003451228" lon="-4.254515999928117">
        <ele>909.53999999999996</ele>
        <time>2025-04-29T07:28:42Z</time>
      </trkpt>
      <trkpt lat="42.793493997305632" lon="-4.255643030628562">
        <ele>907.62</ele>
        <time>2025-04-29T07:28:54Z</time>
      </trkpt>
      <trkpt lat="42.793514030054212" lon="-4.255744032561779">
        <ele>907.62</ele>
        <time>2025-04-29T07:28:55Z</time>
      </trkpt>
      <trkpt lat="42.793522998690605" lon="-4.255846962332726">
        <ele>907.62</ele>
        <time>2025-04-29T07:28:56Z</time>
      </trkpt>
      <trkpt lat="42.793592987582088" lon="-4.256168995052576">
        <ele>907.62</ele>
        <time>2025-04-29T07:28:59Z</time>
      </trkpt>
      <trkpt lat="42.7936199773103" lon="-4.256277037784457">
        <ele>907.62</ele>
        <time>2025-04-29T07:29:00Z</time>
      </trkpt>
      <trkpt lat="42.793666999787092" lon="-4.256490021944046">
        <ele>907.62</ele>
        <time>2025-04-29T07:29:02Z</time>
      </trkpt>
      <trkpt lat="42.793689966201782" lon="-4.256594963371754">
        <ele>907.62</ele>
        <time>2025-04-29T07:29:03Z</time>
      </trkpt>
      <trkpt lat="42.793719973415136" lon="-4.256796967238188">
        <ele>907.62</ele>
        <time>2025-04-29T07:29:05Z</time>
      </trkpt>
      <trkpt lat="42.793729025870562" lon="-4.256956977769733">
        <ele>907.62</ele>
        <time>2025-04-29T07:29:06Z</time>
      </trkpt>
      <trkpt lat="42.79376900754869" lon="-4.257039036601782">
        <ele>908.10000000000002</ele>
        <time>2025-04-29T07:29:07Z</time>
      </trkpt>
      <trkpt lat="42.793936980888247" lon="-4.257158981636167">
        <ele>909.05999999999995</ele>
        <time>2025-04-29T07:29:08Z</time>
      </trkpt>
      <trkpt lat="42.793945027515292" lon="-4.257174991071224">
        <ele>909.53999999999996</ele>
        <time>2025-04-29T07:29:09Z</time>
      </trkpt>
      <trkpt lat="42.794440984725952" lon="-4.258149974048138">
        <ele>914.35000000000002</ele>
        <time>2025-04-29T07:29:20Z</time>
      </trkpt>
      <trkpt lat="42.79456595890224" lon="-4.258408974856138">
        <ele>915.30999999999995</ele>
        <time>2025-04-29T07:29:23Z</time>
      </trkpt>
      <trkpt lat="42.794678024947643" lon="-4.258681973442435">
        <ele>916.26999999999998</ele>
        <time>2025-04-29T07:29:26Z</time>
      </trkpt>
      <trkpt lat="42.794751031324267" lon="-4.258863022550941">
        <ele>917.24000000000001</ele>
        <time>2025-04-29T07:29:28Z</time>
      </trkpt>
      <trkpt lat="42.794773997738957" lon="-4.258919013664126">
        <ele>918.20000000000005</ele>
        <time>2025-04-29T07:29:29Z</time>
      </trkpt>
      <trkpt lat="42.79497398994863" lon="-4.259531982243061">
        <ele>922.03999999999996</ele>
        <time>2025-04-29T07:29:38Z</time>
      </trkpt>
      <trkpt lat="42.795182028785348" lon="-4.259927021339536">
        <ele>923.96000000000004</ele>
        <time>2025-04-29T07:29:45Z</time>
      </trkpt>
      <trkpt lat="42.795212035998702" lon="-4.259987035766244">
        <ele>923.96000000000004</ele>
        <time>2025-04-29T07:29:46Z</time>
      </trkpt>
      <trkpt lat="42.795241037383676" lon="-4.26004596054554">
        <ele>924.45000000000005</ele>
        <time>2025-04-29T07:29:47Z</time>
      </trkpt>
      <trkpt lat="42.795271966606379" lon="-4.260106980800629">
        <ele>924.45000000000005</ele>
        <time>2025-04-29T07:29:48Z</time>
      </trkpt>
      <trkpt lat="42.795302979648113" lon="-4.260170012712479">
        <ele>924.92999999999995</ele>
        <time>2025-04-29T07:29:49Z</time>
      </trkpt>
      <trkpt lat="42.795336004346609" lon="-4.260235978290439">
        <ele>924.92999999999995</ele>
        <time>2025-04-29T07:29:50Z</time>
      </trkpt>
      <trkpt lat="42.795406999066472" lon="-4.260377967730165">
        <ele>924.92999999999995</ele>
        <time>2025-04-29T07:29:52Z</time>
      </trkpt>
      <trkpt lat="42.79544304125011" lon="-4.260449968278408">
        <ele>924.92999999999995</ele>
        <time>2025-04-29T07:29:53Z</time>
      </trkpt>
      <trkpt lat="42.795533984899521" lon="-4.260684996843338">
        <ele>925.40999999999997</ele>
        <time>2025-04-29T07:29:56Z</time>
      </trkpt>
      <trkpt lat="42.795559968799353" lon="-4.260760014876723">
        <ele>924.92999999999995</ele>
        <time>2025-04-29T07:29:57Z</time>
      </trkpt>
      <trkpt lat="42.79559500515461" lon="-4.260905021801591">
        <ele>925.40999999999997</ele>
        <time>2025-04-29T07:29:59Z</time>
      </trkpt>
      <trkpt lat="42.795603973791003" lon="-4.260993031784892">
        <ele>925.40999999999997</ele>
        <time>2025-04-29T07:30:00Z</time>
      </trkpt>
      <trkpt lat="42.795611014589667" lon="-4.261065032333136">
        <ele>925.88999999999999</ele>
        <time>2025-04-29T07:30:01Z</time>
      </trkpt>
      <trkpt lat="42.795593999326229" lon="-4.261136027052999">
        <ele>925.88999999999999</ele>
        <time>2025-04-29T07:30:02Z</time>
      </trkpt>
      <trkpt lat="42.79557203873992" lon="-4.261231999844313">
        <ele>926.37</ele>
        <time>2025-04-29T07:30:03Z</time>
      </trkpt>
      <trkpt lat="42.795549994334579" lon="-4.261329984292388">
        <ele>925.88999999999999</ele>
        <time>2025-04-29T07:30:04Z</time>
      </trkpt>
      <trkpt lat="42.795514035969973" lon="-4.261401984840632">
        <ele>925.40999999999997</ele>
        <time>2025-04-29T07:30:05Z</time>
      </trkpt>
      <trkpt lat="42.795468019321561" lon="-4.261487983167172">
        <ele>925.40999999999997</ele>
        <time>2025-04-29T07:30:06Z</time>
      </trkpt>
      <trkpt lat="42.794980024918914" lon="-4.262313013896346">
        <ele>921.08000000000004</ele>
        <time>2025-04-29T07:30:16Z</time>
      </trkpt>
      <trkpt lat="42.794920010492206" lon="-4.262503031641245">
        <ele>920.12</ele>
        <time>2025-04-29T07:30:18Z</time>
      </trkpt>
      <trkpt lat="42.794890003278852" lon="-4.262597998604178">
        <ele>920.12</ele>
        <time>2025-04-29T07:30:19Z</time>
      </trkpt>
      <trkpt lat="42.794858990237117" lon="-4.262694977223873">
        <ele>919.63999999999999</ele>
        <time>2025-04-29T07:30:20Z</time>
      </trkpt>
      <trkpt lat="42.794794030487537" lon="-4.263105019927025">
        <ele>918.67999999999995</ele>
        <time>2025-04-29T07:30:24Z</time>
      </trkpt>
      <trkpt lat="42.794784978032112" lon="-4.263209039345384">
        <ele>918.67999999999995</ele>
        <time>2025-04-29T07:30:25Z</time>
      </trkpt>
      <trkpt lat="42.794777015224099" lon="-4.26331096328795">
        <ele>918.67999999999995</ele>
        <time>2025-04-29T07:30:26Z</time>
      </trkpt>
      <trkpt lat="42.794859996065497" lon="-4.263425040990114">
        <ele>918.67999999999995</ele>
        <time>2025-04-29T07:30:27Z</time>
      </trkpt>
      <trkpt lat="42.794859996065497" lon="-4.263511039316654">
        <ele>918.67999999999995</ele>
        <time>2025-04-29T07:30:28Z</time>
      </trkpt>
      <trkpt lat="42.794936019927263" lon="-4.263813961297274">
        <ele>918.20000000000005</ele>
        <time>2025-04-29T07:30:31Z</time>
      </trkpt>
      <trkpt lat="42.794977007433772" lon="-4.263981012627482">
        <ele>917.24000000000001</ele>
        <time>2025-04-29T07:30:33Z</time>
      </trkpt>
      <trkpt lat="42.795046996325254" lon="-4.26438401453197">
        <ele>915.30999999999995</ele>
        <time>2025-04-29T07:30:41Z</time>
      </trkpt>
      <trkpt lat="42.795087983831763" lon="-4.264588030055165">
        <ele>914.83000000000004</ele>
        <time>2025-04-29T07:30:45Z</time>
      </trkpt>
      <trkpt lat="42.795099969953299" lon="-4.264645026996732">
        <ele>914.83000000000004</ele>
        <time>2025-04-29T07:30:46Z</time>
      </trkpt>
      <trkpt lat="42.795110028237104" lon="-4.264696994796395">
        <ele>914.83000000000004</ele>
        <time>2025-04-29T07:30:47Z</time>
      </trkpt>
      <trkpt lat="42.795121008530259" lon="-4.264749968424439">
        <ele>914.83000000000004</ele>
        <time>2025-04-29T07:30:48Z</time>
      </trkpt>
      <trkpt lat="42.795134000480175" lon="-4.264802020043135">
        <ele>914.35000000000002</ele>
        <time>2025-04-29T07:30:49Z</time>
      </trkpt>
      <trkpt lat="42.795147998258471" lon="-4.264855999499559">
        <ele>914.35000000000002</ele>
        <time>2025-04-29T07:30:50Z</time>
      </trkpt>
      <trkpt lat="42.795190997421741" lon="-4.265126986429095">
        <ele>913.87</ele>
        <time>2025-04-29T07:30:59Z</time>
      </trkpt>
      <trkpt lat="42.79525101184845" lon="-4.265482965856791">
        <ele>912.90999999999997</ele>
        <time>2025-04-29T07:31:07Z</time>
      </trkpt>
      <trkpt lat="42.795262997969985" lon="-4.265545997768641">
        <ele>912.90999999999997</ele>
        <time>2025-04-29T07:31:08Z</time>
      </trkpt>
      <trkpt lat="42.79527397826314" lon="-4.265610035508871">
        <ele>912.90999999999997</ele>
        <time>2025-04-29T07:31:09Z</time>
      </trkpt>
      <trkpt lat="42.795284958556294" lon="-4.265683963894844">
        <ele>912.90999999999997</ele>
        <time>2025-04-29T07:31:10Z</time>
      </trkpt>
      <trkpt lat="42.795328041538596" lon="-4.265942964702845">
        <ele>912.42999999999995</ele>
        <time>2025-04-29T07:31:13Z</time>
      </trkpt>
      <trkpt lat="42.795344972983003" lon="-4.266030974686146">
        <ele>912.42999999999995</ele>
        <time>2025-04-29T07:31:14Z</time>
      </trkpt>
      <trkpt lat="42.795497020706534" lon="-4.266845025122166">
        <ele>910.99000000000001</ele>
        <time>2025-04-29T07:31:22Z</time>
      </trkpt>
      <trkpt lat="42.795516969636083" lon="-4.266951978206635">
        <ele>910.50999999999999</ele>
        <time>2025-04-29T07:31:23Z</time>
      </trkpt>
      <trkpt lat="42.795769013464451" lon="-4.268355024978519">
        <ele>909.05999999999995</ele>
        <time>2025-04-29T07:31:36Z</time>
      </trkpt>
      <trkpt lat="42.795805977657437" lon="-4.268558034673333">
        <ele>909.05999999999995</ele>
        <time>2025-04-29T07:31:38Z</time>
      </trkpt>
      <trkpt lat="42.795825004577637" lon="-4.26866096444428">
        <ele>909.05999999999995</ele>
        <time>2025-04-29T07:31:39Z</time>
      </trkpt>
      <trkpt lat="42.795899016782641" lon="-4.269063966348767">
        <ele>908.58000000000004</ele>
        <time>2025-04-29T07:31:43Z</time>
      </trkpt>
      <trkpt lat="42.79591703787446" lon="-4.269163040444255">
        <ele>908.58000000000004</ele>
        <time>2025-04-29T07:31:44Z</time>
      </trkpt>
      <trkpt lat="42.796115018427372" lon="-4.270295016467571">
        <ele>910.02999999999997</ele>
        <time>2025-04-29T07:31:54Z</time>
      </trkpt>
      <trkpt lat="42.79613496735692" lon="-4.270411022007465">
        <ele>910.02999999999997</ele>
        <time>2025-04-29T07:31:55Z</time>
      </trkpt>
      <trkpt lat="42.796156005933881" lon="-4.270529039204121">
        <ele>910.50999999999999</ele>
        <time>2025-04-29T07:31:56Z</time>
      </trkpt>
      <trkpt lat="42.796382987871766" lon="-4.271749025210738">
        <ele>913.87</ele>
        <time>2025-04-29T07:32:07Z</time>
      </trkpt>
      <trkpt lat="42.796400003135204" lon="-4.271856984123588">
        <ele>913.38999999999999</ele>
        <time>2025-04-29T07:32:08Z</time>
      </trkpt>
      <trkpt lat="42.796417018398643" lon="-4.271966032683849">
        <ele>913.38999999999999</ele>
        <time>2025-04-29T07:32:09Z</time>
      </trkpt>
      <trkpt lat="42.796435039490461" lon="-4.272079020738602">
        <ele>913.87</ele>
        <time>2025-04-29T07:32:10Z</time>
      </trkpt>
      <trkpt lat="42.796450965106487" lon="-4.272200977429748">
        <ele>913.87</ele>
        <time>2025-04-29T07:32:11Z</time>
      </trkpt>
      <trkpt lat="42.796460017561913" lon="-4.272328969091177">
        <ele>913.87</ele>
        <time>2025-04-29T07:32:12Z</time>
      </trkpt>
      <trkpt lat="42.796469992026687" lon="-4.272468024864793">
        <ele>913.87</ele>
        <time>2025-04-29T07:32:13Z</time>
      </trkpt>
      <trkpt lat="42.796480972319841" lon="-4.272617977112532">
        <ele>913.87</ele>
        <time>2025-04-29T07:32:14Z</time>
      </trkpt>
      <trkpt lat="42.796445013955235" lon="-4.274112973362207">
        <ele>913.38999999999999</ele>
        <time>2025-04-29T07:32:22Z</time>
      </trkpt>
      <trkpt lat="42.796329008415341" lon="-4.275865964591503">
        <ele>912.90999999999997</ele>
        <time>2025-04-29T07:32:30Z</time>
      </trkpt>
      <trkpt lat="42.796363038942218" lon="-4.276075009256601">
        <ele>912.90999999999997</ele>
        <time>2025-04-29T07:32:31Z</time>
      </trkpt>
      <trkpt lat="42.796395979821682" lon="-4.276283970102668">
        <ele>912.90999999999997</ele>
        <time>2025-04-29T07:32:32Z</time>
      </trkpt>
      <trkpt lat="42.796430010348558" lon="-4.276489997282624">
        <ele>912.90999999999997</ele>
        <time>2025-04-29T07:32:33Z</time>
      </trkpt>
      <trkpt lat="42.796492036432028" lon="-4.276688983663917">
        <ele>912.90999999999997</ele>
        <time>2025-04-29T07:32:34Z</time>
      </trkpt>
      <trkpt lat="42.796580968424678" lon="-4.27686701528728">
        <ele>912.90999999999997</ele>
        <time>2025-04-29T07:32:35Z</time>
      </trkpt>
      <trkpt lat="42.796685993671417" lon="-4.277033982798457">
        <ele>912.90999999999997</ele>
        <time>2025-04-29T07:32:36Z</time>
      </trkpt>
      <trkpt lat="42.796797975897789" lon="-4.27718703635037">
        <ele>912.42999999999995</ele>
        <time>2025-04-29T07:32:37Z</time>
      </trkpt>
      <trkpt lat="42.79692797921598" lon="-4.277320979163051">
        <ele>912.42999999999995</ele>
        <time>2025-04-29T07:32:38Z</time>
      </trkpt>
      <trkpt lat="42.797068962827325" lon="-4.277431033551693">
        <ele>912.42999999999995</ele>
        <time>2025-04-29T07:32:39Z</time>
      </trkpt>
      <trkpt lat="42.797241965308785" lon="-4.277565982192755">
        <ele>912.90999999999997</ele>
        <time>2025-04-29T07:32:40Z</time>
      </trkpt>
      <trkpt lat="42.797381021082401" lon="-4.27762096747756">
        <ele>912.90999999999997</ele>
        <time>2025-04-29T07:32:41Z</time>
      </trkpt>
      <trkpt lat="42.797552011907101" lon="-4.277662038803101">
        <ele>913.38999999999999</ele>
        <time>2025-04-29T07:32:42Z</time>
      </trkpt>
      <trkpt lat="42.797728031873703" lon="-4.277703026309609">
        <ele>914.35000000000002</ele>
        <time>2025-04-29T07:32:43Z</time>
      </trkpt>
      <trkpt lat="42.799418997019529" lon="-4.278104016557336">
        <ele>920.12</ele>
        <time>2025-04-29T07:32:52Z</time>
      </trkpt>
      <trkpt lat="42.80017102137208" lon="-4.278137963265181">
        <ele>921.55999999999995</ele>
        <time>2025-04-29T07:32:56Z</time>
      </trkpt>
      <trkpt lat="42.800362966954708" lon="-4.27811399102211">
        <ele>922.03999999999996</ele>
        <time>2025-04-29T07:32:57Z</time>
      </trkpt>
      <trkpt lat="42.800552984699607" lon="-4.278060011565685">
        <ele>922.51999999999998</ele>
        <time>2025-04-29T07:32:58Z</time>
      </trkpt>
      <trkpt lat="42.801598040387034" lon="-4.277587020769715">
        <ele>923</ele>
        <time>2025-04-29T07:33:04Z</time>
      </trkpt>
      <trkpt lat="42.801775988191366" lon="-4.277553996071219">
        <ele>923</ele>
        <time>2025-04-29T07:33:05Z</time>
      </trkpt>
      <trkpt lat="42.80195401981473" lon="-4.277524994686246">
        <ele>923.48000000000002</ele>
        <time>2025-04-29T07:33:06Z</time>
      </trkpt>
      <trkpt lat="42.802134985104203" lon="-4.277561036869884">
        <ele>923</ele>
        <time>2025-04-29T07:33:07Z</time>
      </trkpt>
      <trkpt lat="42.802316034212708" lon="-4.27759800106287">
        <ele>923.48000000000002</ele>
        <time>2025-04-29T07:33:08Z</time>
      </trkpt>
      <trkpt lat="42.802495993673801" lon="-4.277633959427476">
        <ele>923.96000000000004</ele>
        <time>2025-04-29T07:33:09Z</time>
      </trkpt>
      <trkpt lat="42.804065002128482" lon="-4.2777069658041">
        <ele>925.88999999999999</ele>
        <time>2025-04-29T07:33:17Z</time>
      </trkpt>
      <trkpt lat="42.805893011391163" lon="-4.277681987732649">
        <ele>924.92999999999995</ele>
        <time>2025-04-29T07:33:26Z</time>
      </trkpt>
      <trkpt lat="42.807897962629795" lon="-4.277908969670534">
        <ele>923.96000000000004</ele>
        <time>2025-04-29T07:33:36Z</time>
      </trkpt>
      <trkpt lat="42.810260988771915" lon="-4.277734961360693">
        <ele>925.40999999999997</ele>
        <time>2025-04-29T07:33:48Z</time>
      </trkpt>
      <trkpt lat="42.812706995755434" lon="-4.277631025761366">
        <ele>927.33000000000004</ele>
        <time>2025-04-29T07:34:00Z</time>
      </trkpt>
      <trkpt lat="42.814034018665552" lon="-4.278137041255832">
        <ele>929.25</ele>
        <time>2025-04-29T07:34:07Z</time>
      </trkpt>
      <trkpt lat="42.815289963036776" lon="-4.279384016990662">
        <ele>927.80999999999995</ele>
        <time>2025-04-29T07:34:15Z</time>
      </trkpt>
      <trkpt lat="42.816934995353222" lon="-4.28097196854651">
        <ele>927.80999999999995</ele>
        <time>2025-04-29T07:34:25Z</time>
      </trkpt>
      <trkpt lat="42.818605005741119" lon="-4.282077038660646">
        <ele>932.13999999999999</ele>
        <time>2025-04-29T07:34:34Z</time>
      </trkpt>
      <trkpt lat="42.821061993017793" lon="-4.283424010500312">
        <ele>937.89999999999998</ele>
        <time>2025-04-29T07:34:46Z</time>
      </trkpt>
      <trkpt lat="42.824581973254681" lon="-4.285022020339966">
        <ele>943.66999999999996</ele>
        <time>2025-04-29T07:35:03Z</time>
      </trkpt>
      <trkpt lat="42.827656958252192" lon="-4.286463959142566">
        <ele>951.84000000000003</ele>
        <time>2025-04-29T07:35:18Z</time>
      </trkpt>
      <trkpt lat="42.829139968380332" lon="-4.287714036181569">
        <ele>954.25</ele>
        <time>2025-04-29T07:35:26Z</time>
      </trkpt>
      <trkpt lat="42.832167008891702" lon="-4.291053973138332">
        <ele>948.96000000000004</ele>
        <time>2025-04-29T07:35:43Z</time>
      </trkpt>
      <trkpt lat="42.833985965698957" lon="-4.293362013995647">
        <ele>952.32000000000005</ele>
        <time>2025-04-29T07:35:54Z</time>
      </trkpt>
      <trkpt lat="42.835733005777001" lon="-4.296226026490331">
        <ele>953.76999999999998</ele>
        <time>2025-04-29T07:36:06Z</time>
      </trkpt>
      <trkpt lat="42.837167987599969" lon="-4.29916899651289">
        <ele>954.25</ele>
        <time>2025-04-29T07:36:18Z</time>
      </trkpt>
      <trkpt lat="42.838729033246636" lon="-4.302345989271998">
        <ele>960.49000000000001</ele>
        <time>2025-04-29T07:36:31Z</time>
      </trkpt>
      <trkpt lat="42.839620029553771" lon="-4.304201994091272">
        <ele>962.41999999999996</ele>
        <time>2025-04-29T07:36:37Z</time>
      </trkpt>
      <trkpt lat="42.840772038325667" lon="-4.30662302300334">
        <ele>961.46000000000004</ele>
        <time>2025-04-29T07:36:46Z</time>
      </trkpt>
      <trkpt lat="42.841492965817451" lon="-4.308196976780891">
        <ele>961.94000000000005</ele>
        <time>2025-04-29T07:36:54Z</time>
      </trkpt>
      <trkpt lat="42.842130996286869" lon="-4.309000968933106">
        <ele>962.41999999999996</ele>
        <time>2025-04-29T07:37:01Z</time>
      </trkpt>
      <trkpt lat="42.843062980100513" lon="-4.309671018272638">
        <ele>965.29999999999995</ele>
        <time>2025-04-29T07:37:10Z</time>
      </trkpt>
      <trkpt lat="42.844016002491117" lon="-4.310687994584441">
        <ele>968.66999999999996</ele>
        <time>2025-04-29T07:37:20Z</time>
      </trkpt>
      <trkpt lat="42.844526963308454" lon="-4.31214602664113">
        <ele>972.50999999999999</ele>
        <time>2025-04-29T07:37:30Z</time>
      </trkpt>
      <trkpt lat="42.844614973291755" lon="-4.312627986073494">
        <ele>973.47000000000003</ele>
        <time>2025-04-29T07:37:33Z</time>
      </trkpt>
      <trkpt lat="42.844539033249021" lon="-4.314176961779594">
        <ele>974.42999999999995</ele>
        <time>2025-04-29T07:37:41Z</time>
      </trkpt>
      <trkpt lat="42.844199985265732" lon="-4.317018007859588">
        <ele>973.95000000000005</ele>
        <time>2025-04-29T07:37:52Z</time>
      </trkpt>
      <trkpt lat="42.843654993921518" lon="-4.3215970415622">
        <ele>979.72000000000003</ele>
        <time>2025-04-29T07:38:07Z</time>
      </trkpt>
      <trkpt lat="42.8436369728297" lon="-4.323181975632906">
        <ele>978.27999999999997</ele>
        <time>2025-04-29T07:38:12Z</time>
      </trkpt>
      <trkpt lat="42.843700004741549" lon="-4.323495961725712">
        <ele>977.79999999999995</ele>
        <time>2025-04-29T07:38:13Z</time>
      </trkpt>
      <trkpt lat="42.843777034431696" lon="-4.323803996667266">
        <ele>976.84000000000003</ele>
        <time>2025-04-29T07:38:14Z</time>
      </trkpt>
      <trkpt lat="42.843879964202642" lon="-4.324098033830524">
        <ele>976.36000000000001</ele>
        <time>2025-04-29T07:38:15Z</time>
      </trkpt>
      <trkpt lat="42.843983983621001" lon="-4.32439299300313">
        <ele>975.38999999999999</ele>
        <time>2025-04-29T07:38:16Z</time>
      </trkpt>
      <trkpt lat="42.844124967232347" lon="-4.324661968275905">
        <ele>974.42999999999995</ele>
        <time>2025-04-29T07:38:17Z</time>
      </trkpt>
      <trkpt lat="42.844281038269401" lon="-4.324909988790751">
        <ele>973.95000000000005</ele>
        <time>2025-04-29T07:38:18Z</time>
      </trkpt>
      <trkpt lat="42.844438031315804" lon="-4.325160020962358">
        <ele>973.47000000000003</ele>
        <time>2025-04-29T07:38:19Z</time>
      </trkpt>
      <trkpt lat="42.844594018533826" lon="-4.325408963486552">
        <ele>973.47000000000003</ele>
        <time>2025-04-29T07:38:20Z</time>
      </trkpt>
      <trkpt lat="42.845467999577522" lon="-4.326893985271454">
        <ele>975.38999999999999</ele>
        <time>2025-04-29T07:38:26Z</time>
      </trkpt>
      <trkpt lat="42.845555003732443" lon="-4.327177964150906">
        <ele>975.88</ele>
        <time>2025-04-29T07:38:27Z</time>
      </trkpt>
      <trkpt lat="42.845628010109067" lon="-4.327468983829022">
        <ele>976.84000000000003</ele>
        <time>2025-04-29T07:38:28Z</time>
      </trkpt>
      <trkpt lat="42.845677966251969" lon="-4.327771989628673">
        <ele>977.79999999999995</ele>
        <time>2025-04-29T07:38:29Z</time>
      </trkpt>
      <trkpt lat="42.845729012042284" lon="-4.328077007085085">
        <ele>978.27999999999997</ele>
        <time>2025-04-29T07:38:30Z</time>
      </trkpt>
      <trkpt lat="42.846275009214878" lon="-4.332033013924956">
        <ele>981.15999999999997</ele>
        <time>2025-04-29T07:38:43Z</time>
      </trkpt>
      <trkpt lat="42.846926031634212" lon="-4.33614500798285">
        <ele>988.85000000000002</ele>
        <time>2025-04-29T07:38:56Z</time>
      </trkpt>
      <trkpt lat="42.848020037636161" lon="-4.339145980775356">
        <ele>989.33000000000004</ele>
        <time>2025-04-29T07:39:06Z</time>
      </trkpt>
      <trkpt lat="42.849231977015734" lon="-4.342733016237617">
        <ele>983.09000000000003</ele>
        <time>2025-04-29T07:39:18Z</time>
      </trkpt>
      <trkpt lat="42.849942008033395" lon="-4.34667200781405">
        <ele>983.09000000000003</ele>
        <time>2025-04-29T07:39:31Z</time>
      </trkpt>
      <trkpt lat="42.850202014669776" lon="-4.349771970883012">
        <ele>985.00999999999999</ele>
        <time>2025-04-29T07:39:41Z</time>
      </trkpt>
      <trkpt lat="42.85006295889616" lon="-4.354990040883422">
        <ele>977.79999999999995</ele>
        <time>2025-04-29T07:39:57Z</time>
      </trkpt>
      <trkpt lat="42.849774034693837" lon="-4.359362041577697">
        <ele>966.25999999999999</ele>
        <time>2025-04-29T07:40:10Z</time>
      </trkpt>
      <trkpt lat="42.84913600422442" lon="-4.361515017226338">
        <ele>963.38</ele>
        <time>2025-04-29T07:40:17Z</time>
      </trkpt>
      <trkpt lat="42.847555009648204" lon="-4.365180004388094">
        <ele>959.04999999999995</ele>
        <time>2025-04-29T07:40:30Z</time>
      </trkpt>
      <trkpt lat="42.847062991932034" lon="-4.36695696786046">
        <ele>958.57000000000005</ele>
        <time>2025-04-29T07:40:36Z</time>
      </trkpt>
      <trkpt lat="42.847044970840216" lon="-4.367266008630395">
        <ele>958.57000000000005</ele>
        <time>2025-04-29T07:40:37Z</time>
      </trkpt>
      <trkpt lat="42.847057962790132" lon="-4.367573959752917">
        <ele>958.09000000000003</ele>
        <time>2025-04-29T07:40:38Z</time>
      </trkpt>
      <trkpt lat="42.847090987488627" lon="-4.367881994694471">
        <ele>958.09000000000003</ele>
        <time>2025-04-29T07:40:39Z</time>
      </trkpt>
      <trkpt lat="42.847125018015504" lon="-4.368189023807645">
        <ele>957.61000000000001</ele>
        <time>2025-04-29T07:40:40Z</time>
      </trkpt>
      <trkpt lat="42.847211016342044" lon="-4.368473002687097">
        <ele>957.61000000000001</ele>
        <time>2025-04-29T07:40:41Z</time>
      </trkpt>
      <trkpt lat="42.8473100066185" lon="-4.368753964081407">
        <ele>957.13</ele>
        <time>2025-04-29T07:40:42Z</time>
      </trkpt>
      <trkpt lat="42.847417965531349" lon="-4.369024029001594">
        <ele>956.16999999999996</ele>
        <time>2025-04-29T07:40:43Z</time>
      </trkpt>
      <trkpt lat="42.847562972456217" lon="-4.369266014546156">
        <ele>955.69000000000005</ele>
        <time>2025-04-29T07:40:44Z</time>
      </trkpt>
      <trkpt lat="42.847730023786426" lon="-4.369476987048984">
        <ele>954.73000000000002</ele>
        <time>2025-04-29T07:40:45Z</time>
      </trkpt>
      <trkpt lat="42.847901014611125" lon="-4.36968301422894">
        <ele>953.76999999999998</ele>
        <time>2025-04-29T07:40:46Z</time>
      </trkpt>
      <trkpt lat="42.848070999607444" lon="-4.369889041408896">
        <ele>952.79999999999995</ele>
        <time>2025-04-29T07:40:47Z</time>
      </trkpt>
      <trkpt lat="42.848267974331975" lon="-4.370046034455299">
        <ele>951.36000000000001</ele>
        <time>2025-04-29T07:40:48Z</time>
      </trkpt>
      <trkpt lat="42.848467966541648" lon="-4.370192969217897">
        <ele>950.39999999999998</ele>
        <time>2025-04-29T07:40:49Z</time>
      </trkpt>
      <trkpt lat="42.848671982064843" lon="-4.370320038869977">
        <ele>949.91999999999996</ele>
        <time>2025-04-29T07:40:50Z</time>
      </trkpt>
      <trkpt lat="42.850949009880424" lon="-4.371656030416489">
        <ele>948.96000000000004</ele>
        <time>2025-04-29T07:41:01Z</time>
      </trkpt>
      <trkpt lat="42.852416010573506" lon="-4.372968971729279">
        <ele>950.39999999999998</ele>
        <time>2025-04-29T07:41:09Z</time>
      </trkpt>
      <trkpt lat="42.853331984952092" lon="-4.374510990455747">
        <ele>952.79999999999995</ele>
        <time>2025-04-29T07:41:16Z</time>
      </trkpt>
      <trkpt lat="42.853826014325023" lon="-4.376564975827932">
        <ele>953.76999999999998</ele>
        <time>2025-04-29T07:41:24Z</time>
      </trkpt>
      <trkpt lat="42.853803969919682" lon="-4.378609992563725">
        <ele>955.69000000000005</ele>
        <time>2025-04-29T07:41:31Z</time>
      </trkpt>
      <trkpt lat="42.853163005784154" lon="-4.38143502920866">
        <ele>961.46000000000004</ele>
        <time>2025-04-29T07:41:41Z</time>
      </trkpt>
      <trkpt lat="42.851871019229293" lon="-4.386293012648821">
        <ele>965.29999999999995</ele>
        <time>2025-04-29T07:41:58Z</time>
      </trkpt>
      <trkpt lat="42.851130980998278" lon="-4.389976020902395">
        <ele>961.94000000000005</ele>
        <time>2025-04-29T07:42:10Z</time>
      </trkpt>
      <trkpt lat="42.850971976295114" lon="-4.393248986452818">
        <ele>958.09000000000003</ele>
        <time>2025-04-29T07:42:21Z</time>
      </trkpt>
      <trkpt lat="42.850971976295114" lon="-4.397069960832596">
        <ele>956.16999999999996</ele>
        <time>2025-04-29T07:42:33Z</time>
      </trkpt>
      <trkpt lat="42.851086976006627" lon="-4.401651006191969">
        <ele>959.04999999999995</ele>
        <time>2025-04-29T07:42:47Z</time>
      </trkpt>
      <trkpt lat="42.851722994819283" lon="-4.403296960517764">
        <ele>960.00999999999999</ele>
        <time>2025-04-29T07:42:53Z</time>
      </trkpt>
      <trkpt lat="42.853761976584792" lon="-4.407897032797337">
        <ele>963.86000000000001</ele>
        <time>2025-04-29T07:43:10Z</time>
      </trkpt>
      <trkpt lat="42.855815961956978" lon="-4.412506995722652">
        <ele>970.11000000000001</ele>
        <time>2025-04-29T07:43:27Z</time>
      </trkpt>
      <trkpt lat="42.856536973267794" lon="-4.414106011390686">
        <ele>967.70000000000005</ele>
        <time>2025-04-29T07:43:34Z</time>
      </trkpt>
      <trkpt lat="42.857025973498821" lon="-4.41521099768579">
        <ele>966.74000000000001</ele>
        <time>2025-04-29T07:43:41Z</time>
      </trkpt>
      <trkpt lat="42.857576999813318" lon="-4.416671041399241">
        <ele>966.74000000000001</ele>
        <time>2025-04-29T07:43:51Z</time>
      </trkpt>
      <trkpt lat="42.85764598287642" lon="-4.417962022125721">
        <ele>966.74000000000001</ele>
        <time>2025-04-29T07:43:59Z</time>
      </trkpt>
      <trkpt lat="42.857338031753898" lon="-4.420062024146318">
        <ele>966.74000000000001</ele>
        <time>2025-04-29T07:44:12Z</time>
      </trkpt>
      <trkpt lat="42.856998983770609" lon="-4.422179963439703">
        <ele>971.07000000000005</ele>
        <time>2025-04-29T07:44:25Z</time>
      </trkpt>
      <trkpt lat="42.85665700212121" lon="-4.424114003777504">
        <ele>973.47000000000003</ele>
        <time>2025-04-29T07:44:37Z</time>
      </trkpt>
      <trkpt lat="42.856385009363294" lon="-4.425894990563393">
        <ele>973.47000000000003</ele>
        <time>2025-04-29T07:44:46Z</time>
      </trkpt>
      <trkpt lat="42.856201026588678" lon="-4.427917962893844">
        <ele>973.95000000000005</ele>
        <time>2025-04-29T07:44:53Z</time>
      </trkpt>
      <trkpt lat="42.855963986366987" lon="-4.4305519759655">
        <ele>969.63</ele>
        <time>2025-04-29T07:45:01Z</time>
      </trkpt>
      <trkpt lat="42.855972032994032" lon="-4.433823013678193">
        <ele>965.29999999999995</ele>
        <time>2025-04-29T07:45:11Z</time>
      </trkpt>
      <trkpt lat="42.856597993522882" lon="-4.438849976286292">
        <ele>964.34000000000003</ele>
        <time>2025-04-29T07:45:27Z</time>
      </trkpt>
      <trkpt lat="42.857106020674109" lon="-4.44279701448977">
        <ele>968.17999999999995</ele>
        <time>2025-04-29T07:45:40Z</time>
      </trkpt>
      <trkpt lat="42.857787972316146" lon="-4.448184985667467">
        <ele>969.63</ele>
        <time>2025-04-29T07:45:57Z</time>
      </trkpt>
      <trkpt lat="42.858409993350506" lon="-4.453170038759708">
        <ele>971.07000000000005</ele>
        <time>2025-04-29T07:46:13Z</time>
      </trkpt>
      <trkpt lat="42.859157994389534" lon="-4.458663035184145">
        <ele>975.38999999999999</ele>
        <time>2025-04-29T07:46:31Z</time>
      </trkpt>
      <trkpt lat="42.859916975721717" lon="-4.462660029530525">
        <ele>980.20000000000005</ele>
        <time>2025-04-29T07:46:44Z</time>
      </trkpt>
      <trkpt lat="42.860780982300639" lon="-4.465710036456585">
        <ele>985.97000000000003</ele>
        <time>2025-04-29T07:46:54Z</time>
      </trkpt>
      <trkpt lat="42.861670972779393" lon="-4.467259012162685">
        <ele>987.40999999999997</ele>
        <time>2025-04-29T07:47:00Z</time>
      </trkpt>
      <trkpt lat="42.861789995804429" lon="-4.467545002698898">
        <ele>987.40999999999997</ele>
        <time>2025-04-29T07:47:01Z</time>
      </trkpt>
      <trkpt lat="42.861870964989066" lon="-4.467853037640452">
        <ele>987.40999999999997</ele>
        <time>2025-04-29T07:47:02Z</time>
      </trkpt>
      <trkpt lat="42.861932991072536" lon="-4.46817297488451">
        <ele>987.40999999999997</ele>
        <time>2025-04-29T07:47:03Z</time>
      </trkpt>
      <trkpt lat="42.861980013549328" lon="-4.468496013432741">
        <ele>986.92999999999995</ele>
        <time>2025-04-29T07:47:04Z</time>
      </trkpt>
      <trkpt lat="42.861980013549328" lon="-4.468825003132224">
        <ele>986.45000000000005</ele>
        <time>2025-04-29T07:47:05Z</time>
      </trkpt>
      <trkpt lat="42.861980013549328" lon="-4.46915902197361">
        <ele>985.97000000000003</ele>
        <time>2025-04-29T07:47:06Z</time>
      </trkpt>
      <trkpt lat="42.861931985244155" lon="-4.469484994187951">
        <ele>985.49000000000001</ele>
        <time>2025-04-29T07:47:07Z</time>
      </trkpt>
      <trkpt lat="42.861858978867531" lon="-4.469795962795615">
        <ele>985.00999999999999</ele>
        <time>2025-04-29T07:47:08Z</time>
      </trkpt>
      <trkpt lat="42.861752025783062" lon="-4.470093017444015">
        <ele>984.52999999999997</ele>
        <time>2025-04-29T07:47:09Z</time>
      </trkpt>
      <trkpt lat="42.861645994707942" lon="-4.470389988273382">
        <ele>983.57000000000005</ele>
        <time>2025-04-29T07:47:10Z</time>
      </trkpt>
      <trkpt lat="42.861521020531654" lon="-4.470667010173202">
        <ele>983.09000000000003</ele>
        <time>2025-04-29T07:47:11Z</time>
      </trkpt>
      <trkpt lat="42.861346006393433" lon="-4.470903966575861">
        <ele>982.60000000000002</ele>
        <time>2025-04-29T07:47:12Z</time>
      </trkpt>
      <trkpt lat="42.86116898059845" lon="-4.471143018454313">
        <ele>981.63999999999999</ele>
        <time>2025-04-29T07:47:13Z</time>
      </trkpt>
      <trkpt lat="42.860964965075254" lon="-4.471331024542451">
        <ele>981.15999999999997</ele>
        <time>2025-04-29T07:47:14Z</time>
      </trkpt>
      <trkpt lat="42.860753992572427" lon="-4.471510984003544">
        <ele>981.15999999999997</ele>
        <time>2025-04-29T07:47:15Z</time>
      </trkpt>
      <trkpt lat="42.860527010634542" lon="-4.471640987321734">
        <ele>980.67999999999995</ele>
        <time>2025-04-29T07:47:16Z</time>
      </trkpt>
      <trkpt lat="42.860290976241231" lon="-4.471750035881996">
        <ele>980.67999999999995</ele>
        <time>2025-04-29T07:47:17Z</time>
      </trkpt>
      <trkpt lat="42.860058965161443" lon="-4.471855983138084">
        <ele>980.67999999999995</ele>
        <time>2025-04-29T07:47:18Z</time>
      </trkpt>
      <trkpt lat="42.85820497199893" lon="-4.472716972231865">
        <ele>982.12</ele>
        <time>2025-04-29T07:47:26Z</time>
      </trkpt>
      <trkpt lat="42.858003973960876" lon="-4.47289802134037">
        <ele>982.12</ele>
        <time>2025-04-29T07:47:27Z</time>
      </trkpt>
      <trkpt lat="42.857816973701119" lon="-4.473065994679928">
        <ele>982.12</ele>
        <time>2025-04-29T07:47:28Z</time>
      </trkpt>
      <trkpt lat="42.857652017846704" lon="-4.473322983831167">
        <ele>982.12</ele>
        <time>2025-04-29T07:47:29Z</time>
      </trkpt>
      <trkpt lat="42.857495024800301" lon="-4.473566981032491">
        <ele>982.12</ele>
        <time>2025-04-29T07:47:30Z</time>
      </trkpt>
      <trkpt lat="42.857367033138871" lon="-4.473830005154014">
        <ele>982.12</ele>
        <time>2025-04-29T07:47:31Z</time>
      </trkpt>
      <trkpt lat="42.857259996235371" lon="-4.474109038710594">
        <ele>982.60000000000002</ele>
        <time>2025-04-29T07:47:32Z</time>
      </trkpt>
      <trkpt lat="42.857163017615676" lon="-4.474386982619762">
        <ele>982.60000000000002</ele>
        <time>2025-04-29T07:47:33Z</time>
      </trkpt>
      <trkpt lat="42.857106020674109" lon="-4.474695017561317">
        <ele>983.09000000000003</ele>
        <time>2025-04-29T07:47:34Z</time>
      </trkpt>
      <trkpt lat="42.857058998197317" lon="-4.475009003654122">
        <ele>983.57000000000005</ele>
        <time>2025-04-29T07:47:35Z</time>
      </trkpt>
      <trkpt lat="42.857026979327202" lon="-4.475319972261787">
        <ele>983.57000000000005</ele>
        <time>2025-04-29T07:47:36Z</time>
      </trkpt>
      <trkpt lat="42.857045000419021" lon="-4.475638987496495">
        <ele>984.04999999999995</ele>
        <time>2025-04-29T07:47:37Z</time>
      </trkpt>
      <trkpt lat="42.85706402733922" lon="-4.475959008559585">
        <ele>984.04999999999995</ele>
        <time>2025-04-29T07:47:38Z</time>
      </trkpt>
      <trkpt lat="42.857082970440388" lon="-4.476281041279435">
        <ele>984.52999999999997</ele>
        <time>2025-04-29T07:47:39Z</time>
      </trkpt>
      <trkpt lat="42.857262007892132" lon="-4.479555012658238">
        <ele>985.49000000000001</ele>
        <time>2025-04-29T07:47:50Z</time>
      </trkpt>
      <trkpt lat="42.857432998716831" lon="-4.482286004349589">
        <ele>987.40999999999997</ele>
        <time>2025-04-29T07:48:01Z</time>
      </trkpt>
      <trkpt lat="42.857708008959889" lon="-4.484591027721763">
        <ele>988.85000000000002</ele>
        <time>2025-04-29T07:48:11Z</time>
      </trkpt>
      <trkpt lat="42.858357019722462" lon="-4.486146038398147">
        <ele>990.77999999999997</ele>
        <time>2025-04-29T07:48:18Z</time>
      </trkpt>
      <trkpt lat="42.859694017097354" lon="-4.487854018807411">
        <ele>994.62</ele>
        <time>2025-04-29T07:48:27Z</time>
      </trkpt>
      <trkpt lat="42.861214997246861" lon="-4.48976400308311">
        <ele>997.01999999999998</ele>
        <time>2025-04-29T07:48:39Z</time>
      </trkpt>
      <trkpt lat="42.861904995515943" lon="-4.490629015490413">
        <ele>997.99000000000001</ele>
        <time>2025-04-29T07:48:46Z</time>
      </trkpt>
      <trkpt lat="42.862947033718228" lon="-4.492231970652938">
        <ele>1002.3099999999999</ele>
        <time>2025-04-29T07:48:59Z</time>
      </trkpt>
      <trkpt lat="42.863857978954911" lon="-4.493987979367375">
        <ele>1004.72</ele>
        <time>2025-04-29T07:49:12Z</time>
      </trkpt>
      <trkpt lat="42.864001980051398" lon="-4.494259972125292">
        <ele>1005.2</ele>
        <time>2025-04-29T07:49:14Z</time>
      </trkpt>
      <trkpt lat="42.864066017791629" lon="-4.494398022070527">
        <ele>1005.2</ele>
        <time>2025-04-29T07:49:15Z</time>
      </trkpt>
      <trkpt lat="42.864182023331523" lon="-4.494649982079864">
        <ele>1005.6799999999999</ele>
        <time>2025-04-29T07:49:17Z</time>
      </trkpt>
      <trkpt lat="42.864232985302806" lon="-4.494760036468506">
        <ele>1005.6799999999999</ele>
        <time>2025-04-29T07:49:18Z</time>
      </trkpt>
      <trkpt lat="42.864259975031018" lon="-4.494870007038117">
        <ele>1005.6799999999999</ele>
        <time>2025-04-29T07:49:19Z</time>
      </trkpt>
      <trkpt lat="42.864269027486444" lon="-4.494995987042785">
        <ele>1005.2</ele>
        <time>2025-04-29T07:49:20Z</time>
      </trkpt>
      <trkpt lat="42.864257963374257" lon="-4.495106963440776">
        <ele>1005.2</ele>
        <time>2025-04-29T07:49:21Z</time>
      </trkpt>
      <trkpt lat="42.864241031929851" lon="-4.495216012001038">
        <ele>1004.72</ele>
        <time>2025-04-29T07:49:22Z</time>
      </trkpt>
      <trkpt lat="42.864146986976266" lon="-4.495837027207017">
        <ele>1001.83</ele>
        <time>2025-04-29T07:49:28Z</time>
      </trkpt>
      <trkpt lat="42.864166013896465" lon="-4.495938029140234">
        <ele>1001.35</ele>
        <time>2025-04-29T07:49:29Z</time>
      </trkpt>
      <trkpt lat="42.864195015281439" lon="-4.496036013588309">
        <ele>1000.87</ele>
        <time>2025-04-29T07:49:30Z</time>
      </trkpt>
      <trkpt lat="42.86424295976758" lon="-4.496116982772946">
        <ele>999.90999999999997</ele>
        <time>2025-04-29T07:49:31Z</time>
      </trkpt>
      <trkpt lat="42.864312026649714" lon="-4.496176997199655">
        <ele>999.42999999999995</ele>
        <time>2025-04-29T07:49:32Z</time>
      </trkpt>
      <trkpt lat="42.864387966692448" lon="-4.496236005797982">
        <ele>998.95000000000005</ele>
        <time>2025-04-29T07:49:33Z</time>
      </trkpt>
      <trkpt lat="42.864472037181258" lon="-4.496287973597646">
        <ele>998.47000000000003</ele>
        <time>2025-04-29T07:49:34Z</time>
      </trkpt>
      <trkpt lat="42.864554012194276" lon="-4.496340025216341">
        <ele>998.47000000000003</ele>
        <time>2025-04-29T07:49:35Z</time>
      </trkpt>
      <trkpt lat="42.864798009395599" lon="-4.496492994949222">
        <ele>998.47000000000003</ele>
        <time>2025-04-29T07:49:38Z</time>
      </trkpt>
      <trkpt lat="42.864876966923475" lon="-4.496543034911156">
        <ele>998.47000000000003</ele>
        <time>2025-04-29T07:49:39Z</time>
      </trkpt>
      <trkpt lat="42.865420030429959" lon="-4.496903959661722">
        <ele>998.95000000000005</ele>
        <time>2025-04-29T07:49:46Z</time>
      </trkpt>
      <trkpt lat="42.865465963259339" lon="-4.496990963816643">
        <ele>998.95000000000005</ele>
        <time>2025-04-29T07:49:47Z</time>
      </trkpt>
      <trkpt lat="42.865483984351158" lon="-4.497098000720143">
        <ele>999.42999999999995</ele>
        <time>2025-04-29T07:49:48Z</time>
      </trkpt>
      <trkpt lat="42.865498987957835" lon="-4.497195985168219">
        <ele>999.42999999999995</ele>
        <time>2025-04-29T07:49:49Z</time>
      </trkpt>
      <trkpt lat="42.865497982129455" lon="-4.497293969616294">
        <ele>999.90999999999997</ele>
        <time>2025-04-29T07:49:50Z</time>
      </trkpt>
      <trkpt lat="42.865485996007919" lon="-4.497402012348175">
        <ele>999.90999999999997</ele>
        <time>2025-04-29T07:49:51Z</time>
      </trkpt>
      <trkpt lat="42.865473004058003" lon="-4.497511982917786">
        <ele>999.90999999999997</ele>
        <time>2025-04-29T07:49:52Z</time>
      </trkpt>
      <trkpt lat="42.865460012108088" lon="-4.497622037306428">
        <ele>1000.39</ele>
        <time>2025-04-29T07:49:53Z</time>
      </trkpt>
      <trkpt lat="42.865412989631295" lon="-4.498022021725774">
        <ele>1000.39</ele>
        <time>2025-04-29T07:49:56Z</time>
      </trkpt>
      <trkpt lat="42.865410977974534" lon="-4.498041970655322">
        <ele>1000.87</ele>
        <time>2025-04-29T07:49:57Z</time>
      </trkpt>
      <trkpt lat="42.865404020994902" lon="-4.498132998123765">
        <ele>1000.87</ele>
        <time>2025-04-29T07:49:58Z</time>
      </trkpt>
      <trkpt lat="42.865391029044986" lon="-4.49835604056716">
        <ele>1000.39</ele>
        <time>2025-04-29T07:50:02Z</time>
      </trkpt>
      <trkpt lat="42.865410977974534" lon="-4.498475985601544">
        <ele>1000.39</ele>
        <time>2025-04-29T07:50:03Z</time>
      </trkpt>
      <trkpt lat="42.865498987957835" lon="-4.498494006693363">
        <ele>999.42999999999995</ele>
        <time>2025-04-29T07:50:05Z</time>
      </trkpt>
      <trkpt lat="42.865533018484712" lon="-4.498510016128421">
        <ele>999.42999999999995</ele>
        <time>2025-04-29T07:50:06Z</time>
      </trkpt>
      <trkpt lat="42.865926967933774" lon="-4.498690981417894">
        <ele>998.95000000000005</ele>
        <time>2025-04-29T07:50:12Z</time>
      </trkpt>
      <trkpt lat="42.866529040038586" lon="-4.498816039413214">
        <ele>1000.87</ele>
        <time>2025-04-29T07:50:21Z</time>
      </trkpt>
      <trkpt lat="42.866616966202855" lon="-4.498869013041258">
        <ele>1000.87</ele>
        <time>2025-04-29T07:50:22Z</time>
      </trkpt>
      <trkpt lat="42.866619983687997" lon="-4.498944031074643">
        <ele>1001.35</ele>
        <time>2025-04-29T07:50:23Z</time>
      </trkpt>
      <trkpt lat="42.866624007001519" lon="-4.499020976945758">
        <ele>1001.35</ele>
        <time>2025-04-29T07:50:24Z</time>
      </trkpt>
      <trkpt lat="42.866628030315042" lon="-4.499107981100678">
        <ele>1001.35</ele>
        <time>2025-04-29T07:50:25Z</time>
      </trkpt>
      <trkpt lat="42.866683015599847" lon="-4.499356001615524">
        <ele>1002.3099999999999</ele>
        <time>2025-04-29T07:50:28Z</time>
      </trkpt>
      <trkpt lat="42.866735989227891" lon="-4.49943101964891">
        <ele>1002.79</ele>
        <time>2025-04-29T07:50:29Z</time>
      </trkpt>
      <trkpt lat="42.867423975840211" lon="-4.500418994575739">
        <ele>1011.4400000000001</ele>
        <time>2025-04-29T07:50:39Z</time>
      </trkpt>
      <trkpt lat="42.86750796250999" lon="-4.500502981245518">
        <ele>1012.41</ele>
        <time>2025-04-29T07:50:40Z</time>
      </trkpt>
      <trkpt lat="42.867593038827181" lon="-4.500588979572058">
        <ele>1012.89</ele>
        <time>2025-04-29T07:50:41Z</time>
      </trkpt>
      <trkpt lat="42.867923034355044" lon="-4.500917969271541">
        <ele>1015.77</ele>
        <time>2025-04-29T07:50:45Z</time>
      </trkpt>
      <trkpt lat="42.868002997711301" lon="-4.500998016446829">
        <ele>1016.73</ele>
        <time>2025-04-29T07:50:46Z</time>
      </trkpt>
      <trkpt lat="42.868049014359713" lon="-4.501100024208427">
        <ele>1017.21</ele>
        <time>2025-04-29T07:50:47Z</time>
      </trkpt>
      <trkpt lat="42.868063012138009" lon="-4.501228015869856">
        <ele>1018.17</ele>
        <time>2025-04-29T07:50:48Z</time>
      </trkpt>
      <trkpt lat="42.86802101880312" lon="-4.501356007531285">
        <ele>1018.65</ele>
        <time>2025-04-29T07:50:49Z</time>
      </trkpt>
      <trkpt lat="42.867966033518314" lon="-4.501519035547972">
        <ele>1019.62</ele>
        <time>2025-04-29T07:50:50Z</time>
      </trkpt>
      <trkpt lat="42.867914987728" lon="-4.501609979197383">
        <ele>1020.58</ele>
        <time>2025-04-29T07:50:51Z</time>
      </trkpt>
      <trkpt lat="42.867344012483954" lon="-4.502549003809691">
        <ele>1026.8299999999999</ele>
        <time>2025-04-29T07:50:59Z</time>
      </trkpt>
      <trkpt lat="42.867236975580454" lon="-4.502592002972961">
        <ele>1027.3099999999999</ele>
        <time>2025-04-29T07:51:00Z</time>
      </trkpt>
      <trkpt lat="42.867135973647237" lon="-4.502581022679806">
        <ele>1028.27</ele>
        <time>2025-04-29T07:51:01Z</time>
      </trkpt>
      <trkpt lat="42.867044024169445" lon="-4.502570964396">
        <ele>1028.75</ele>
        <time>2025-04-29T07:51:02Z</time>
      </trkpt>
      <trkpt lat="42.86696900613606" lon="-4.50248496606946">
        <ele>1029.23</ele>
        <time>2025-04-29T07:51:03Z</time>
      </trkpt>
      <trkpt lat="42.866892982274294" lon="-4.50239896774292">
        <ele>1030.1900000000001</ele>
        <time>2025-04-29T07:51:04Z</time>
      </trkpt>
      <trkpt lat="42.866832967847586" lon="-4.502268964424729">
        <ele>1030.6700000000001</ele>
        <time>2025-04-29T07:51:05Z</time>
      </trkpt>
      <trkpt lat="42.866771025583148" lon="-4.502136027440429">
        <ele>1031.1500000000001</ele>
        <time>2025-04-29T07:51:06Z</time>
      </trkpt>
      <trkpt lat="42.866706987842917" lon="-4.502004012465477">
        <ele>1032.1099999999999</ele>
        <time>2025-04-29T07:51:07Z</time>
      </trkpt>
      <trkpt lat="42.866580002009869" lon="-4.501750962808728">
        <ele>1033.55</ele>
        <time>2025-04-29T07:51:09Z</time>
      </trkpt>
      <trkpt lat="42.866549994796515" lon="-4.501691032201052">
        <ele>1034.04</ele>
        <time>2025-04-29T07:51:10Z</time>
      </trkpt>
      <trkpt lat="42.866408005356789" lon="-4.501664964482188">
        <ele>1035</ele>
        <time>2025-04-29T07:51:11Z</time>
      </trkpt>
      <trkpt lat="42.866313960403204" lon="-4.501648033037782">
        <ele>1035.48</ele>
        <time>2025-04-29T07:51:12Z</time>
      </trkpt>
      <trkpt lat="42.866235002875328" lon="-4.501707041636109">
        <ele>1035.96</ele>
        <time>2025-04-29T07:51:13Z</time>
      </trkpt>
      <trkpt lat="42.866141041740775" lon="-4.501782981678844">
        <ele>1036.4400000000001</ele>
        <time>2025-04-29T07:51:14Z</time>
      </trkpt>
      <trkpt lat="42.86610902287066" lon="-4.501910973340273">
        <ele>1036.9200000000001</ele>
        <time>2025-04-29T07:51:15Z</time>
      </trkpt>
      <trkpt lat="42.866086978465319" lon="-4.502070983871818">
        <ele>1037.4000000000001</ele>
        <time>2025-04-29T07:51:16Z</time>
      </trkpt>
      <trkpt lat="42.866122014820576" lon="-4.502210961654782">
        <ele>1038.3599999999999</ele>
        <time>2025-04-29T07:51:17Z</time>
      </trkpt>
      <trkpt lat="42.866183035075665" lon="-4.502368038520217">
        <ele>1038.8399999999999</ele>
        <time>2025-04-29T07:51:18Z</time>
      </trkpt>
      <trkpt lat="42.866255035623908" lon="-4.50250499881804">
        <ele>1039.8</ele>
        <time>2025-04-29T07:51:19Z</time>
      </trkpt>
      <trkpt lat="42.866327036172152" lon="-4.502641959115863">
        <ele>1041.25</ele>
        <time>2025-04-29T07:51:20Z</time>
      </trkpt>
      <trkpt lat="42.866373974829912" lon="-4.50278403237462">
        <ele>1042.21</ele>
        <time>2025-04-29T07:51:21Z</time>
      </trkpt>
      <trkpt lat="42.866406999528408" lon="-4.502949994057417">
        <ele>1043.6500000000001</ele>
        <time>2025-04-29T07:51:22Z</time>
      </trkpt>
      <trkpt lat="42.866413034498692" lon="-4.503115033730865">
        <ele>1044.6099999999999</ele>
        <time>2025-04-29T07:51:23Z</time>
      </trkpt>
      <trkpt lat="42.866396019235253" lon="-4.503298010677099">
        <ele>1046.05</ele>
        <time>2025-04-29T07:51:24Z</time>
      </trkpt>
      <trkpt lat="42.866377998143435" lon="-4.503492973744869">
        <ele>1047.01</ele>
        <time>2025-04-29T07:51:25Z</time>
      </trkpt>
      <trkpt lat="42.866334998980165" lon="-4.503664970397949">
        <ele>1048.45</ele>
        <time>2025-04-29T07:51:26Z</time>
      </trkpt>
      <trkpt lat="42.866286970674992" lon="-4.50385901145637">
        <ele>1049.4200000000001</ele>
        <time>2025-04-29T07:51:27Z</time>
      </trkpt>
      <trkpt lat="42.865879023447633" lon="-4.50551200658083">
        <ele>1058.55</ele>
        <time>2025-04-29T07:51:35Z</time>
      </trkpt>
      <trkpt lat="42.865869970992208" lon="-4.505739994347096">
        <ele>1059.99</ele>
        <time>2025-04-29T07:51:36Z</time>
      </trkpt>
      <trkpt lat="42.865881035104394" lon="-4.5059659704566">
        <ele>1061.4300000000001</ele>
        <time>2025-04-29T07:51:37Z</time>
      </trkpt>
      <trkpt lat="42.865933002904058" lon="-4.50617702677846">
        <ele>1062.3900000000001</ele>
        <time>2025-04-29T07:51:38Z</time>
      </trkpt>
      <trkpt lat="42.866009026765823" lon="-4.506385987624526">
        <ele>1063.3599999999999</ele>
        <time>2025-04-29T07:51:39Z</time>
      </trkpt>
      <trkpt lat="42.866121008992195" lon="-4.506558990105987">
        <ele>1064.3199999999999</ele>
        <time>2025-04-29T07:51:40Z</time>
      </trkpt>
      <trkpt lat="42.866269033402205" lon="-4.506684970110655">
        <ele>1065.76</ele>
        <time>2025-04-29T07:51:41Z</time>
      </trkpt>
      <trkpt lat="42.866424014791846" lon="-4.506770968437195">
        <ele>1066.72</ele>
        <time>2025-04-29T07:51:42Z</time>
      </trkpt>
      <trkpt lat="42.866587964817882" lon="-4.506841041147709">
        <ele>1067.6800000000001</ele>
        <time>2025-04-29T07:51:43Z</time>
      </trkpt>
      <trkpt lat="42.866759039461613" lon="-4.506824025884271">
        <ele>1069.1199999999999</ele>
        <time>2025-04-29T07:51:44Z</time>
      </trkpt>
      <trkpt lat="42.866919972002506" lon="-4.506751019507647">
        <ele>1070.5699999999999</ele>
        <time>2025-04-29T07:51:45Z</time>
      </trkpt>
      <trkpt lat="42.867090962827206" lon="-4.50667298398912">
        <ele>1072.01</ele>
        <time>2025-04-29T07:51:46Z</time>
      </trkpt>
      <trkpt lat="42.867725975811481" lon="-4.506440972909331">
        <ele>1077.29</ele>
        <time>2025-04-29T07:51:50Z</time>
      </trkpt>
      <trkpt lat="42.867837036028504" lon="-4.506411971524358">
        <ele>1078.74</ele>
        <time>2025-04-29T07:51:51Z</time>
      </trkpt>
      <trkpt lat="42.867963016033173" lon="-4.506462011486292">
        <ele>1080.1800000000001</ele>
        <time>2025-04-29T07:51:52Z</time>
      </trkpt>
      <trkpt lat="42.868073992431164" lon="-4.506525965407491">
        <ele>1081.1400000000001</ele>
        <time>2025-04-29T07:51:53Z</time>
      </trkpt>
      <trkpt lat="42.868174994364381" lon="-4.506654040887952">
        <ele>1082.0999999999999</ele>
        <time>2025-04-29T07:51:54Z</time>
      </trkpt>
      <trkpt lat="42.868287982419133" lon="-4.506797958165407">
        <ele>1083.0599999999999</ele>
        <time>2025-04-29T07:51:55Z</time>
      </trkpt>
      <trkpt lat="42.8683449793607" lon="-4.506969032809138">
        <ele>1084.02</ele>
        <time>2025-04-29T07:51:56Z</time>
      </trkpt>
      <trkpt lat="42.868412034586072" lon="-4.507169025018811">
        <ele>1084.99</ele>
        <time>2025-04-29T07:51:57Z</time>
      </trkpt>
      <trkpt lat="42.868587970733643" lon="-4.507838990539312">
        <ele>1087.8699999999999</ele>
        <time>2025-04-29T07:52:00Z</time>
      </trkpt>
      <trkpt lat="42.868629964068532" lon="-4.508075024932623">
        <ele>1088.8299999999999</ele>
        <time>2025-04-29T07:52:01Z</time>
      </trkpt>
      <trkpt lat="42.868618983775377" lon="-4.508323967456818">
        <ele>1090.27</ele>
        <time>2025-04-29T07:52:02Z</time>
      </trkpt>
      <trkpt lat="42.868601968511939" lon="-4.508575005456805">
        <ele>1091.23</ele>
        <time>2025-04-29T07:52:03Z</time>
      </trkpt>
      <trkpt lat="42.868554024025798" lon="-4.508834006264806">
        <ele>1092.2</ele>
        <time>2025-04-29T07:52:04Z</time>
      </trkpt>
      <trkpt lat="42.868400970473886" lon="-4.509641015902162">
        <ele>1095.5599999999999</ele>
        <time>2025-04-29T07:52:07Z</time>
      </trkpt>
      <trkpt lat="42.868428966030478" lon="-4.509920971468091">
        <ele>1097</ele>
        <time>2025-04-29T07:52:08Z</time>
      </trkpt>
      <trkpt lat="42.868466014042497" lon="-4.510192964226008">
        <ele>1098.4400000000001</ele>
        <time>2025-04-29T07:52:09Z</time>
      </trkpt>
      <trkpt lat="42.868502978235483" lon="-4.510466968640685">
        <ele>1099.8900000000001</ele>
        <time>2025-04-29T07:52:10Z</time>
      </trkpt>
      <trkpt lat="42.868590988218784" lon="-4.510710965842009">
        <ele>1100.8499999999999</ele>
        <time>2025-04-29T07:52:11Z</time>
      </trkpt>
      <trkpt lat="42.868682015687227" lon="-4.510962003841996">
        <ele>1102.29</ele>
        <time>2025-04-29T07:52:12Z</time>
      </trkpt>
      <trkpt lat="42.8687749709934" lon="-4.511218992993236">
        <ele>1103.73</ele>
        <time>2025-04-29T07:52:13Z</time>
      </trkpt>
      <trkpt lat="42.86982798948884" lon="-4.51344296336174">
        <ele>1117.1900000000001</ele>
        <time>2025-04-29T07:52:22Z</time>
      </trkpt>
      <trkpt lat="42.870871033519506" lon="-4.515833985060453">
        <ele>1132.5699999999999</ele>
        <time>2025-04-29T07:52:31Z</time>
      </trkpt>
      <trkpt lat="42.870955020189285" lon="-4.516119975596666">
        <ele>1134.49</ele>
        <time>2025-04-29T07:52:32Z</time>
      </trkpt>
      <trkpt lat="42.8715880215168" lon="-4.518763041123748">
        <ele>1143.1400000000001</ele>
        <time>2025-04-29T07:52:41Z</time>
      </trkpt>
      <trkpt lat="42.872411962598562" lon="-4.5204889588058">
        <ele>1148.9100000000001</ele>
        <time>2025-04-29T07:52:48Z</time>
      </trkpt>
      <trkpt lat="42.873239004984498" lon="-4.522003987804055">
        <ele>1153.24</ele>
        <time>2025-04-29T07:52:55Z</time>
      </trkpt>
      <trkpt lat="42.874625958502293" lon="-4.52360400930047">
        <ele>1149.3900000000001</ele>
        <time>2025-04-29T07:53:04Z</time>
      </trkpt>
      <trkpt lat="42.875575963407755" lon="-4.524746965616942">
        <ele>1144.5899999999999</ele>
        <time>2025-04-29T07:53:11Z</time>
      </trkpt>
      <trkpt lat="42.875631032511592" lon="-4.524927008897066">
        <ele>1143.6300000000001</ele>
        <time>2025-04-29T07:53:12Z</time>
      </trkpt>
      <trkpt lat="42.875641006976366" lon="-4.52510898001492">
        <ele>1143.1400000000001</ele>
        <time>2025-04-29T07:53:13Z</time>
      </trkpt>
      <trkpt lat="42.875589039176702" lon="-4.525278965011239">
        <ele>1142.6600000000001</ele>
        <time>2025-04-29T07:53:14Z</time>
      </trkpt>
      <trkpt lat="42.875496000051498" lon="-4.525438975542784">
        <ele>1142.1800000000001</ele>
        <time>2025-04-29T07:53:15Z</time>
      </trkpt>
      <trkpt lat="42.875402038916945" lon="-4.52560200355947">
        <ele>1141.7</ele>
        <time>2025-04-29T07:53:16Z</time>
      </trkpt>
      <trkpt lat="42.875307993963361" lon="-4.525763019919395">
        <ele>1141.22</ele>
        <time>2025-04-29T07:53:17Z</time>
      </trkpt>
      <trkpt lat="42.875218978151679" lon="-4.525916995480657">
        <ele>1140.26</ele>
        <time>2025-04-29T07:53:18Z</time>
      </trkpt>
      <trkpt lat="42.87519701756537" lon="-4.526096032932401">
        <ele>1139.78</ele>
        <time>2025-04-29T07:53:19Z</time>
      </trkpt>
      <trkpt lat="42.875173967331648" lon="-4.526294013485313">
        <ele>1139.78</ele>
        <time>2025-04-29T07:53:20Z</time>
      </trkpt>
      <trkpt lat="42.87515502423048" lon="-4.528016997501254">
        <ele>1135.9400000000001</ele>
        <time>2025-04-29T07:53:27Z</time>
      </trkpt>
      <trkpt lat="42.875160975381732" lon="-4.528268035501242">
        <ele>1134.97</ele>
        <time>2025-04-29T07:53:28Z</time>
      </trkpt>
      <trkpt lat="42.875186959281564" lon="-4.528503986075521">
        <ele>1134.97</ele>
        <time>2025-04-29T07:53:29Z</time>
      </trkpt>
      <trkpt lat="42.875246973708272" lon="-4.528699032962322">
        <ele>1134.49</ele>
        <time>2025-04-29T07:53:30Z</time>
      </trkpt>
      <trkpt lat="42.875329032540321" lon="-4.528860971331596">
        <ele>1134.01</ele>
        <time>2025-04-29T07:53:31Z</time>
      </trkpt>
      <trkpt lat="42.875416958704591" lon="-4.528998015448451">
        <ele>1133.05</ele>
        <time>2025-04-29T07:53:32Z</time>
      </trkpt>
      <trkpt lat="42.875562971457839" lon="-4.529065992683172">
        <ele>1132.5699999999999</ele>
        <time>2025-04-29T07:53:33Z</time>
      </trkpt>
      <trkpt lat="42.875722981989384" lon="-4.529140004888177">
        <ele>1131.6099999999999</ele>
        <time>2025-04-29T07:53:34Z</time>
      </trkpt>
      <trkpt lat="42.875891039147973" lon="-4.529218962416053">
        <ele>1131.1300000000001</ele>
        <time>2025-04-29T07:53:35Z</time>
      </trkpt>
      <trkpt lat="42.876711962744594" lon="-4.529605032876134">
        <ele>1126.3199999999999</ele>
        <time>2025-04-29T07:53:40Z</time>
      </trkpt>
      <trkpt lat="42.876842971891165" lon="-4.529707040637732">
        <ele>1125.3599999999999</ele>
        <time>2025-04-29T07:53:41Z</time>
      </trkpt>
      <trkpt lat="42.876952020451427" lon="-4.529819022864103">
        <ele>1124.8800000000001</ele>
        <time>2025-04-29T07:53:42Z</time>
      </trkpt>
      <trkpt lat="42.877015974372625" lon="-4.529979033395648">
        <ele>1123.9200000000001</ele>
        <time>2025-04-29T07:53:43Z</time>
      </trkpt>
      <trkpt lat="42.87702402099967" lon="-4.530151030048728">
        <ele>1123.4400000000001</ele>
        <time>2025-04-29T07:53:44Z</time>
      </trkpt>
      <trkpt lat="42.877027038484812" lon="-4.530343981459737">
        <ele>1122.48</ele>
        <time>2025-04-29T07:53:45Z</time>
      </trkpt>
      <trkpt lat="42.877030977979302" lon="-4.530554031953216">
        <ele>1122</ele>
        <time>2025-04-29T07:53:46Z</time>
      </trkpt>
      <trkpt lat="42.877033995464444" lon="-4.530772967264056">
        <ele>1121.52</ele>
        <time>2025-04-29T07:53:47Z</time>
      </trkpt>
      <trkpt lat="42.877038018777966" lon="-4.530992992222309">
        <ele>1120.55</ele>
        <time>2025-04-29T07:53:48Z</time>
      </trkpt>
      <trkpt lat="42.877041958272457" lon="-4.531203964725137">
        <ele>1119.5899999999999</ele>
        <time>2025-04-29T07:53:49Z</time>
      </trkpt>
      <trkpt lat="42.877086969092488" lon="-4.531400017440319">
        <ele>1118.6300000000001</ele>
        <time>2025-04-29T07:53:50Z</time>
      </trkpt>
      <trkpt lat="42.877142038196325" lon="-4.531576037406921">
        <ele>1117.6700000000001</ele>
        <time>2025-04-29T07:53:51Z</time>
      </trkpt>
      <trkpt lat="42.877233987674117" lon="-4.531722972169519">
        <ele>1117.1900000000001</ele>
        <time>2025-04-29T07:53:52Z</time>
      </trkpt>
      <trkpt lat="42.877358039841056" lon="-4.531859010457993">
        <ele>1117.1900000000001</ele>
        <time>2025-04-29T07:53:53Z</time>
      </trkpt>
      <trkpt lat="42.877515032887459" lon="-4.531971998512745">
        <ele>1116.71</ele>
        <time>2025-04-29T07:53:54Z</time>
      </trkpt>
      <trkpt lat="42.877819966524839" lon="-4.532191017642617">
        <ele>1115.75</ele>
        <time>2025-04-29T07:53:56Z</time>
      </trkpt>
      <trkpt lat="42.877902025356889" lon="-4.532324960455298">
        <ele>1115.27</ele>
        <time>2025-04-29T07:53:57Z</time>
      </trkpt>
      <trkpt lat="42.877972014248371" lon="-4.53245404176414">
        <ele>1115.27</ele>
        <time>2025-04-29T07:53:58Z</time>
      </trkpt>
      <trkpt lat="42.877981988713145" lon="-4.53258496709168">
        <ele>1114.3099999999999</ele>
        <time>2025-04-29T07:53:59Z</time>
      </trkpt>
      <trkpt lat="42.877974025905132" lon="-4.532749000936747">
        <ele>1113.8199999999999</ele>
        <time>2025-04-29T07:54:00Z</time>
      </trkpt>
      <trkpt lat="42.877961033955216" lon="-4.53292703256011">
        <ele>1113.3399999999999</ele>
        <time>2025-04-29T07:54:01Z</time>
      </trkpt>
      <trkpt lat="42.877901019528508" lon="-4.533112021163106">
        <ele>1112.8599999999999</ele>
        <time>2025-04-29T07:54:02Z</time>
      </trkpt>
      <trkpt lat="42.877836981788278" lon="-4.53331301920116">
        <ele>1112.3800000000001</ele>
        <time>2025-04-29T07:54:03Z</time>
      </trkpt>
      <trkpt lat="42.877623997628689" lon="-4.533975021913648">
        <ele>1110.46</ele>
        <time>2025-04-29T07:54:06Z</time>
      </trkpt>
      <trkpt lat="42.877585021778941" lon="-4.534211978316307">
        <ele>1109.02</ele>
        <time>2025-04-29T07:54:07Z</time>
      </trkpt>
      <trkpt lat="42.877560965716839" lon="-4.534455975517631">
        <ele>1108.0599999999999</ele>
        <time>2025-04-29T07:54:08Z</time>
      </trkpt>
      <trkpt lat="42.877537999302149" lon="-4.534697039052844">
        <ele>1107.0999999999999</ele>
        <time>2025-04-29T07:54:09Z</time>
      </trkpt>
      <trkpt lat="42.877573035657406" lon="-4.534936007112265">
        <ele>1105.6500000000001</ele>
        <time>2025-04-29T07:54:10Z</time>
      </trkpt>
      <trkpt lat="42.877612011507154" lon="-4.535166006535292">
        <ele>1104.21</ele>
        <time>2025-04-29T07:54:11Z</time>
      </trkpt>
      <trkpt lat="42.877657022327185" lon="-4.535387037321925">
        <ele>1102.77</ele>
        <time>2025-04-29T07:54:12Z</time>
      </trkpt>
      <trkpt lat="42.877747965976596" lon="-4.535577977076173">
        <ele>1101.3299999999999</ele>
        <time>2025-04-29T07:54:13Z</time>
      </trkpt>
      <trkpt lat="42.877839999273419" lon="-4.535772018134594">
        <ele>1099.8900000000001</ele>
        <time>2025-04-29T07:54:14Z</time>
      </trkpt>
      <trkpt lat="42.877934966236353" lon="-4.535971004515886">
        <ele>1098.4400000000001</ele>
        <time>2025-04-29T07:54:15Z</time>
      </trkpt>
      <trkpt lat="42.878032028675079" lon="-4.536175020039082">
        <ele>1096.52</ele>
        <time>2025-04-29T07:54:16Z</time>
      </trkpt>
      <trkpt lat="42.878116015344858" lon="-4.536393033340573">
        <ele>1094.5999999999999</ele>
        <time>2025-04-29T07:54:17Z</time>
      </trkpt>
      <trkpt lat="42.878202013671398" lon="-4.536624038591981">
        <ele>1093.1600000000001</ele>
        <time>2025-04-29T07:54:18Z</time>
      </trkpt>
      <trkpt lat="42.878355989232659" lon="-4.537631962448359">
        <ele>1086.4300000000001</ele>
        <time>2025-04-29T07:54:23Z</time>
      </trkpt>
      <trkpt lat="42.878369987010956" lon="-4.537717960774899">
        <ele>1084.99</ele>
        <time>2025-04-29T07:54:24Z</time>
      </trkpt>
      <trkpt lat="42.878379039466381" lon="-4.537779986858368">
        <ele>1084.5</ele>
        <time>2025-04-29T07:54:25Z</time>
      </trkpt>
      <trkpt lat="42.878385996446013" lon="-4.53782600350678">
        <ele>1083.54</ele>
        <time>2025-04-29T07:54:26Z</time>
      </trkpt>
      <trkpt lat="42.878393037244678" lon="-4.537867996841669">
        <ele>1083.0599999999999</ele>
        <time>2025-04-29T07:54:27Z</time>
      </trkpt>
      <trkpt lat="42.878398988395929" lon="-4.537905966863036">
        <ele>1082.0999999999999</ele>
        <time>2025-04-29T07:54:28Z</time>
      </trkpt>
      <trkpt lat="42.878434024751186" lon="-4.538135966286063">
        <ele>1077.29</ele>
        <time>2025-04-29T07:54:39Z</time>
      </trkpt>
      <trkpt lat="42.878381973132491" lon="-4.538294970989227">
        <ele>1068.1600000000001</ele>
        <time>2025-04-29T07:57:23Z</time>
      </trkpt>
      <trkpt lat="42.878407035022974" lon="-4.538195980712771">
        <ele>1082.0999999999999</ele>
        <time>2025-04-29T07:57:52Z</time>
      </trkpt>
      <trkpt lat="42.878368981182575" lon="-4.538208972662687">
        <ele>1082.5799999999999</ele>
        <time>2025-04-29T07:58:41Z</time>
      </trkpt>
      <trkpt lat="42.878467971459031" lon="-4.538360014557838">
        <ele>1081.1400000000001</ele>
        <time>2025-04-29T07:59:09Z</time>
      </trkpt>
      <trkpt lat="42.878478029742837" lon="-4.538418017327786">
        <ele>1081.1400000000001</ele>
        <time>2025-04-29T07:59:10Z</time>
      </trkpt>
      <trkpt lat="42.878502001985908" lon="-4.53857702203095">
        <ele>1080.1800000000001</ele>
        <time>2025-04-29T07:59:13Z</time>
      </trkpt>
      <trkpt lat="42.878494039177895" lon="-4.538743989542127">
        <ele>1079.7</ele>
        <time>2025-04-29T07:59:14Z</time>
      </trkpt>
      <trkpt lat="42.878488004207611" lon="-4.538861000910401">
        <ele>1079.22</ele>
        <time>2025-04-29T07:59:15Z</time>
      </trkpt>
      <trkpt lat="42.878480963408947" lon="-4.538992010056973">
        <ele>1078.74</ele>
        <time>2025-04-29T07:59:16Z</time>
      </trkpt>
      <trkpt lat="42.878474006429315" lon="-4.53913601115346">
        <ele>1078.26</ele>
        <time>2025-04-29T07:59:17Z</time>
      </trkpt>
      <trkpt lat="42.87846595980227" lon="-4.539295015856624">
        <ele>1077.29</ele>
        <time>2025-04-29T07:59:18Z</time>
      </trkpt>
      <trkpt lat="42.878467971459031" lon="-4.539487967267633">
        <ele>1076.8099999999999</ele>
        <time>2025-04-29T07:59:19Z</time>
      </trkpt>
      <trkpt lat="42.878497978672385" lon="-4.539667004719377">
        <ele>1076.3299999999999</ele>
        <time>2025-04-29T07:59:20Z</time>
      </trkpt>
      <trkpt lat="42.87852899171412" lon="-4.539857022464275">
        <ele>1075.3699999999999</ele>
        <time>2025-04-29T07:59:21Z</time>
      </trkpt>
      <trkpt lat="42.878608033061028" lon="-4.540058020502329">
        <ele>1074.8900000000001</ele>
        <time>2025-04-29T07:59:22Z</time>
      </trkpt>
      <trkpt lat="42.878703000023961" lon="-4.540222976356745">
        <ele>1073.45</ele>
        <time>2025-04-29T07:59:23Z</time>
      </trkpt>
      <trkpt lat="42.87882998585701" lon="-4.540393967181444">
        <ele>1072.01</ele>
        <time>2025-04-29T07:59:24Z</time>
      </trkpt>
      <trkpt lat="42.878975998610258" lon="-4.540501004084945">
        <ele>1071.05</ele>
        <time>2025-04-29T07:59:25Z</time>
      </trkpt>
      <trkpt lat="42.879143971949816" lon="-4.540597982704639">
        <ele>1069.5999999999999</ele>
        <time>2025-04-29T07:59:26Z</time>
      </trkpt>
      <trkpt lat="42.879311023280025" lon="-4.540617009624839">
        <ele>1068.6400000000001</ele>
        <time>2025-04-29T07:59:27Z</time>
      </trkpt>
      <trkpt lat="42.879490982741117" lon="-4.540636036545038">
        <ele>1067.2</ele>
        <time>2025-04-29T07:59:28Z</time>
      </trkpt>
      <trkpt lat="42.879658034071326" lon="-4.540567975491285">
        <ele>1065.76</ele>
        <time>2025-04-29T07:59:29Z</time>
      </trkpt>
      <trkpt lat="42.879823995754123" lon="-4.540499998256564">
        <ele>1064.3199999999999</ele>
        <time>2025-04-29T07:59:30Z</time>
      </trkpt>
      <trkpt lat="42.879961039870977" lon="-4.540443001314998">
        <ele>1062.8699999999999</ele>
        <time>2025-04-29T07:59:31Z</time>
      </trkpt>
      <trkpt lat="42.880134964361787" lon="-4.540443001314998">
        <ele>1061.4300000000001</ele>
        <time>2025-04-29T07:59:32Z</time>
      </trkpt>
      <trkpt lat="42.880279971286654" lon="-4.540443001314998">
        <ele>1059.99</ele>
        <time>2025-04-29T07:59:33Z</time>
      </trkpt>
      <trkpt lat="42.88039899431169" lon="-4.540499998256564">
        <ele>1059.03</ele>
        <time>2025-04-29T07:59:34Z</time>
      </trkpt>
      <trkpt lat="42.880519023165107" lon="-4.540571998804808">
        <ele>1057.5899999999999</ele>
        <time>2025-04-29T07:59:35Z</time>
      </trkpt>
      <trkpt lat="42.880584988743067" lon="-4.540720023214817">
        <ele>1055.6700000000001</ele>
        <time>2025-04-29T07:59:36Z</time>
      </trkpt>
      <trkpt lat="42.880653971806169" lon="-4.540876010432839">
        <ele>1054.22</ele>
        <time>2025-04-29T07:59:37Z</time>
      </trkpt>
      <trkpt lat="42.880681967362761" lon="-4.541039038449526">
        <ele>1053.26</ele>
        <time>2025-04-29T07:59:38Z</time>
      </trkpt>
      <trkpt lat="42.880662018433213" lon="-4.541218997910619">
        <ele>1051.8199999999999</ele>
        <time>2025-04-29T07:59:39Z</time>
      </trkpt>
      <trkpt lat="42.880622958764434" lon="-4.541384959593415">
        <ele>1050.8599999999999</ele>
        <time>2025-04-29T07:59:40Z</time>
      </trkpt>
      <trkpt lat="42.880535032600164" lon="-4.541527032852173">
        <ele>1050.3800000000001</ele>
        <time>2025-04-29T07:59:41Z</time>
      </trkpt>
      <trkpt lat="42.880435958504677" lon="-4.541655024513602">
        <ele>1049.9000000000001</ele>
        <time>2025-04-29T07:59:42Z</time>
      </trkpt>
      <trkpt lat="42.880305033177137" lon="-4.541756026446819">
        <ele>1049.4200000000001</ele>
        <time>2025-04-29T07:59:43Z</time>
      </trkpt>
      <trkpt lat="42.880168994888663" lon="-4.541860967874527">
        <ele>1048.9400000000001</ele>
        <time>2025-04-29T07:59:44Z</time>
      </trkpt>
      <trkpt lat="42.879080018028617" lon="-4.542839974164963">
        <ele>1045.0899999999999</ele>
        <time>2025-04-29T07:59:52Z</time>
      </trkpt>
      <trkpt lat="42.879014974460006" lon="-4.542997973039746">
        <ele>1044.6099999999999</ele>
        <time>2025-04-29T07:59:53Z</time>
      </trkpt>
      <trkpt lat="42.878968035802245" lon="-4.543172987177968">
        <ele>1044.6099999999999</ele>
        <time>2025-04-29T07:59:54Z</time>
      </trkpt>
      <trkpt lat="42.878941968083382" lon="-4.543361999094486">
        <ele>1044.6099999999999</ele>
        <time>2025-04-29T07:59:55Z</time>
      </trkpt>
      <trkpt lat="42.878939034417272" lon="-4.543569032102823">
        <ele>1044.6099999999999</ele>
        <time>2025-04-29T07:59:56Z</time>
      </trkpt>
      <trkpt lat="42.878963006660342" lon="-4.543785033747554">
        <ele>1044.6099999999999</ele>
        <time>2025-04-29T07:59:57Z</time>
      </trkpt>
      <trkpt lat="42.878986978903413" lon="-4.54401302151382">
        <ele>1044.6099999999999</ele>
        <time>2025-04-29T07:59:58Z</time>
      </trkpt>
      <trkpt lat="42.879208009690046" lon="-4.544903011992574">
        <ele>1044.1300000000001</ele>
        <time>2025-04-29T08:00:02Z</time>
      </trkpt>
      <trkpt lat="42.879311023280025" lon="-4.54506503418088">
        <ele>1043.6500000000001</ele>
        <time>2025-04-29T08:00:03Z</time>
      </trkpt>
      <trkpt lat="42.879448989406228" lon="-4.54517500475049">
        <ele>1043.6500000000001</ele>
        <time>2025-04-29T08:00:04Z</time>
      </trkpt>
      <trkpt lat="42.879723999649286" lon="-4.545402992516756">
        <ele>1043.6500000000001</ele>
        <time>2025-04-29T08:00:06Z</time>
      </trkpt>
      <trkpt lat="42.879827013239264" lon="-4.545555962249637">
        <ele>1043.6500000000001</ele>
        <time>2025-04-29T08:00:07Z</time>
      </trkpt>
      <trkpt lat="42.879889039322734" lon="-4.545742962509394">
        <ele>1043.6500000000001</ele>
        <time>2025-04-29T08:00:08Z</time>
      </trkpt>
      <trkpt lat="42.880089031532407" lon="-4.546342017129064">
        <ele>1044.6099999999999</ele>
        <time>2025-04-29T08:00:11Z</time>
      </trkpt>
      <trkpt lat="42.880195984616876" lon="-4.546521976590157">
        <ele>1044.6099999999999</ele>
        <time>2025-04-29T08:00:12Z</time>
      </trkpt>
      <trkpt lat="42.880589012056589" lon="-4.547024974599481">
        <ele>1044.1300000000001</ele>
        <time>2025-04-29T08:00:15Z</time>
      </trkpt>
      <trkpt lat="42.880758997052908" lon="-4.547119019553065">
        <ele>1044.1300000000001</ele>
        <time>2025-04-29T08:00:16Z</time>
      </trkpt>
      <trkpt lat="42.880930993705988" lon="-4.547213986515999">
        <ele>1044.1300000000001</ele>
        <time>2025-04-29T08:00:17Z</time>
      </trkpt>
      <trkpt lat="42.881102990359068" lon="-4.547309959307313">
        <ele>1044.1300000000001</ele>
        <time>2025-04-29T08:00:18Z</time>
      </trkpt>
      <trkpt lat="42.88127901032567" lon="-4.547341978177428">
        <ele>1044.6099999999999</ele>
        <time>2025-04-29T08:00:19Z</time>
      </trkpt>
      <trkpt lat="42.88145100697875" lon="-4.547353964298964">
        <ele>1044.6099999999999</ele>
        <time>2025-04-29T08:00:20Z</time>
      </trkpt>
      <trkpt lat="42.881605988368392" lon="-4.547366034239531">
        <ele>1045.0899999999999</ele>
        <time>2025-04-29T08:00:21Z</time>
      </trkpt>
      <trkpt lat="42.881739009171724" lon="-4.547392018139362">
        <ele>1045.0899999999999</ele>
        <time>2025-04-29T08:00:22Z</time>
      </trkpt>
      <trkpt lat="42.881832970306277" lon="-4.547486985102296">
        <ele>1045.5699999999999</ele>
        <time>2025-04-29T08:00:23Z</time>
      </trkpt>
      <trkpt lat="42.881891978904605" lon="-4.547545993700624">
        <ele>1045.5699999999999</ele>
        <time>2025-04-29T08:00:24Z</time>
      </trkpt>
      <trkpt lat="42.881927015259862" lon="-4.547740034759045">
        <ele>1046.05</ele>
        <time>2025-04-29T08:00:25Z</time>
      </trkpt>
      <trkpt lat="42.881955010816455" lon="-4.547899039462209">
        <ele>1046.53</ele>
        <time>2025-04-29T08:00:26Z</time>
      </trkpt>
      <trkpt lat="42.881915029138327" lon="-4.548019990324974">
        <ele>1046.53</ele>
        <time>2025-04-29T08:00:27Z</time>
      </trkpt>
      <trkpt lat="42.881862977519631" lon="-4.548155022785068">
        <ele>1047.01</ele>
        <time>2025-04-29T08:00:28Z</time>
      </trkpt>
      <trkpt lat="42.881789971143007" lon="-4.548235991969705">
        <ele>1047.01</ele>
        <time>2025-04-29T08:00:29Z</time>
      </trkpt>
      <trkpt lat="42.881676983088255" lon="-4.548322996124625">
        <ele>1047.01</ele>
        <time>2025-04-29T08:00:30Z</time>
      </trkpt>
      <trkpt lat="42.881545973941684" lon="-4.548344034701586">
        <ele>1047.49</ele>
        <time>2025-04-29T08:00:31Z</time>
      </trkpt>
      <trkpt lat="42.881390992552042" lon="-4.548349985852838">
        <ele>1047.49</ele>
        <time>2025-04-29T08:00:32Z</time>
      </trkpt>
      <trkpt lat="42.881227964535356" lon="-4.548357026651502">
        <ele>1047.49</ele>
        <time>2025-04-29T08:00:33Z</time>
      </trkpt>
      <trkpt lat="42.881070971488953" lon="-4.548373036086559">
        <ele>1047.49</ele>
        <time>2025-04-29T08:00:34Z</time>
      </trkpt>
      <trkpt lat="42.880924958735704" lon="-4.548405976966023">
        <ele>1047.97</ele>
        <time>2025-04-29T08:00:35Z</time>
      </trkpt>
      <trkpt lat="42.880790010094643" lon="-4.548476971685886">
        <ele>1047.97</ele>
        <time>2025-04-29T08:00:36Z</time>
      </trkpt>
      <trkpt lat="42.880675010383129" lon="-4.5485919713974">
        <ele>1048.45</ele>
        <time>2025-04-29T08:00:37Z</time>
      </trkpt>
      <trkpt lat="42.880595969036222" lon="-4.548730021342635">
        <ele>1048.45</ele>
        <time>2025-04-29T08:00:38Z</time>
      </trkpt>
      <trkpt lat="42.880539977923036" lon="-4.548897994682193">
        <ele>1048.45</ele>
        <time>2025-04-29T08:00:39Z</time>
      </trkpt>
      <trkpt lat="42.88050795905292" lon="-4.549116007983685">
        <ele>1048.9400000000001</ele>
        <time>2025-04-29T08:00:40Z</time>
      </trkpt>
      <trkpt lat="42.880475018173456" lon="-4.549339972436428">
        <ele>1048.9400000000001</ele>
        <time>2025-04-29T08:00:41Z</time>
      </trkpt>
      <trkpt lat="42.88044098764658" lon="-4.549575001001358">
        <ele>1049.4200000000001</ele>
        <time>2025-04-29T08:00:42Z</time>
      </trkpt>
      <trkpt lat="42.880446016788483" lon="-4.549813969060779">
        <ele>1049.4200000000001</ele>
        <time>2025-04-29T08:00:43Z</time>
      </trkpt>
      <trkpt lat="42.880463032051921" lon="-4.550065007060766">
        <ele>1049.4200000000001</ele>
        <time>2025-04-29T08:00:44Z</time>
      </trkpt>
      <trkpt lat="42.880480969324708" lon="-4.550318978726864">
        <ele>1048.9400000000001</ele>
        <time>2025-04-29T08:00:45Z</time>
      </trkpt>
      <trkpt lat="42.880514999851584" lon="-4.550817031413317">
        <ele>1048.45</ele>
        <time>2025-04-29T08:00:47Z</time>
      </trkpt>
      <trkpt lat="42.880481975153089" lon="-4.55106396228075">
        <ele>1047.97</ele>
        <time>2025-04-29T08:00:48Z</time>
      </trkpt>
      <trkpt lat="42.880433024838567" lon="-4.551322963088751">
        <ele>1047.97</ele>
        <time>2025-04-29T08:00:49Z</time>
      </trkpt>
      <trkpt lat="42.880288017913699" lon="-4.551757983863354">
        <ele>1047.49</ele>
        <time>2025-04-29T08:00:51Z</time>
      </trkpt>
      <trkpt lat="42.880234960466623" lon="-4.551986977458">
        <ele>1047.97</ele>
        <time>2025-04-29T08:00:52Z</time>
      </trkpt>
      <trkpt lat="42.880220962688327" lon="-4.552234997972846">
        <ele>1048.45</ele>
        <time>2025-04-29T08:00:53Z</time>
      </trkpt>
      <trkpt lat="42.880230015143752" lon="-4.552487963810563">
        <ele>1048.9400000000001</ele>
        <time>2025-04-29T08:00:54Z</time>
      </trkpt>
      <trkpt lat="42.880245018750429" lon="-4.552739001810551">
        <ele>1049.4200000000001</ele>
        <time>2025-04-29T08:00:55Z</time>
      </trkpt>
      <trkpt lat="42.880259016528726" lon="-4.552984004840255">
        <ele>1050.3800000000001</ele>
        <time>2025-04-29T08:00:56Z</time>
      </trkpt>
      <trkpt lat="42.880274020135403" lon="-4.55323001369834">
        <ele>1051.3399999999999</ele>
        <time>2025-04-29T08:00:57Z</time>
      </trkpt>
      <trkpt lat="42.880263039842248" lon="-4.553476022556424">
        <ele>1052.3</ele>
        <time>2025-04-29T08:00:58Z</time>
      </trkpt>
      <trkpt lat="42.880210988223553" lon="-4.553712978959084">
        <ele>1053.26</ele>
        <time>2025-04-29T08:00:59Z</time>
      </trkpt>
      <trkpt lat="42.88016002625227" lon="-4.553951025009155">
        <ele>1054.22</ele>
        <time>2025-04-29T08:01:00Z</time>
      </trkpt>
      <trkpt lat="42.880106968805194" lon="-4.554189993068576">
        <ele>1054.7</ele>
        <time>2025-04-29T08:01:01Z</time>
      </trkpt>
      <trkpt lat="42.879507998004556" lon="-4.556495016440749">
        <ele>1056.1500000000001</ele>
        <time>2025-04-29T08:01:11Z</time>
      </trkpt>
      <trkpt lat="42.879399033263326" lon="-4.55778700299561">
        <ele>1056.6300000000001</ele>
        <time>2025-04-29T08:01:19Z</time>
      </trkpt>
      <trkpt lat="42.879411019384861" lon="-4.558177012950182">
        <ele>1056.1500000000001</ele>
        <time>2025-04-29T08:01:22Z</time>
      </trkpt>
      <trkpt lat="42.87943197414279" lon="-4.558295030146837">
        <ele>1056.1500000000001</ele>
        <time>2025-04-29T08:01:23Z</time>
      </trkpt>
      <trkpt lat="42.879454018548131" lon="-4.558412963524461">
        <ele>1056.6300000000001</ele>
        <time>2025-04-29T08:01:24Z</time>
      </trkpt>
      <trkpt lat="42.879569018259645" lon="-4.558773972094059">
        <ele>1057.1099999999999</ele>
        <time>2025-04-29T08:01:27Z</time>
      </trkpt>
      <trkpt lat="42.879639007151127" lon="-4.558886038139463">
        <ele>1057.5899999999999</ele>
        <time>2025-04-29T08:01:28Z</time>
      </trkpt>
      <trkpt lat="42.879763981327415" lon="-4.559074966236949">
        <ele>1058.55</ele>
        <time>2025-04-29T08:01:30Z</time>
      </trkpt>
      <trkpt lat="42.879805974662304" lon="-4.559190971776843">
        <ele>1059.03</ele>
        <time>2025-04-29T08:01:31Z</time>
      </trkpt>
      <trkpt lat="42.879835981875658" lon="-4.559293985366821">
        <ele>1059.51</ele>
        <time>2025-04-29T08:01:32Z</time>
      </trkpt>
      <trkpt lat="42.879850985482335" lon="-4.55941996537149">
        <ele>1060.47</ele>
        <time>2025-04-29T08:01:33Z</time>
      </trkpt>
      <trkpt lat="42.879865989089012" lon="-4.55954703502357">
        <ele>1061.4300000000001</ele>
        <time>2025-04-29T08:01:34Z</time>
      </trkpt>
      <trkpt lat="42.87988199852407" lon="-4.55967796035111">
        <ele>1061.9100000000001</ele>
        <time>2025-04-29T08:01:35Z</time>
      </trkpt>
      <trkpt lat="42.879906976595521" lon="-4.559822967275977">
        <ele>1062.3900000000001</ele>
        <time>2025-04-29T08:01:36Z</time>
      </trkpt>
      <trkpt lat="42.879959028214216" lon="-4.559944001957774">
        <ele>1062.3900000000001</ele>
        <time>2025-04-29T08:01:37Z</time>
      </trkpt>
      <trkpt lat="42.880024993792176" lon="-4.560051038861275">
        <ele>1062.8699999999999</ele>
        <time>2025-04-29T08:01:38Z</time>
      </trkpt>
      <trkpt lat="42.880092971026897" lon="-4.560140976682305">
        <ele>1063.3599999999999</ele>
        <time>2025-04-29T08:01:39Z</time>
      </trkpt>
      <trkpt lat="42.880176035687327" lon="-4.560209037736058">
        <ele>1063.8399999999999</ele>
        <time>2025-04-29T08:01:40Z</time>
      </trkpt>
      <trkpt lat="42.880266979336739" lon="-4.560285983607173">
        <ele>1063.8399999999999</ele>
        <time>2025-04-29T08:01:41Z</time>
      </trkpt>
      <trkpt lat="42.880369992926717" lon="-4.560347003862262">
        <ele>1063.8399999999999</ele>
        <time>2025-04-29T08:01:42Z</time>
      </trkpt>
      <trkpt lat="42.880478035658598" lon="-4.560377011075616">
        <ele>1063.8399999999999</ele>
        <time>2025-04-29T08:01:43Z</time>
      </trkpt>
      <trkpt lat="42.880588006228209" lon="-4.560408024117351">
        <ele>1063.8399999999999</ele>
        <time>2025-04-29T08:01:44Z</time>
      </trkpt>
      <trkpt lat="42.880704011768103" lon="-4.560440964996815">
        <ele>1063.3599999999999</ele>
        <time>2025-04-29T08:01:45Z</time>
      </trkpt>
      <trkpt lat="42.880822028964758" lon="-4.560473989695311">
        <ele>1063.3599999999999</ele>
        <time>2025-04-29T08:01:46Z</time>
      </trkpt>
      <trkpt lat="42.880922025069594" lon="-4.560570968315005">
        <ele>1063.3599999999999</ele>
        <time>2025-04-29T08:01:47Z</time>
      </trkpt>
      <trkpt lat="42.881012968719006" lon="-4.560702983289957">
        <ele>1062.8699999999999</ele>
        <time>2025-04-29T08:01:48Z</time>
      </trkpt>
      <trkpt lat="42.881110031157732" lon="-4.560842961072922">
        <ele>1061.9100000000001</ele>
        <time>2025-04-29T08:01:49Z</time>
      </trkpt>
      <trkpt lat="42.88121203891933" lon="-4.560990985482931">
        <ele>1060.95</ele>
        <time>2025-04-29T08:01:50Z</time>
      </trkpt>
      <trkpt lat="42.881313040852547" lon="-4.561147978529334">
        <ele>1059.99</ele>
        <time>2025-04-29T08:01:51Z</time>
      </trkpt>
      <trkpt lat="42.881770022213459" lon="-4.562021959573031">
        <ele>1054.22</ele>
        <time>2025-04-29T08:01:56Z</time>
      </trkpt>
      <trkpt lat="42.881808998063207" lon="-4.562236033380032">
        <ele>1054.22</ele>
        <time>2025-04-29T08:01:57Z</time>
      </trkpt>
      <trkpt lat="42.882110998034477" lon="-4.564164038747549">
        <ele>1052.78</ele>
        <time>2025-04-29T08:02:05Z</time>
      </trkpt>
      <trkpt lat="42.882190039381385" lon="-4.564405018463731">
        <ele>1052.78</ele>
        <time>2025-04-29T08:02:06Z</time>
      </trkpt>
      <trkpt lat="42.882297998294234" lon="-4.564615990966559">
        <ele>1052.78</ele>
        <time>2025-04-29T08:02:07Z</time>
      </trkpt>
      <trkpt lat="42.88360096514225" lon="-4.567285040393472">
        <ele>1056.1500000000001</ele>
        <time>2025-04-29T08:02:19Z</time>
      </trkpt>
      <trkpt lat="42.884706035256386" lon="-4.570823041722179">
        <ele>1059.51</ele>
        <time>2025-04-29T08:02:32Z</time>
      </trkpt>
      <trkpt lat="42.885810015723109" lon="-4.573658974841237">
        <ele>1060.95</ele>
        <time>2025-04-29T08:02:43Z</time>
      </trkpt>
      <trkpt lat="42.887109965085983" lon="-4.575560996308923">
        <ele>1062.8699999999999</ele>
        <time>2025-04-29T08:02:52Z</time>
      </trkpt>
      <trkpt lat="42.888834960758686" lon="-4.578167013823986">
        <ele>1066.24</ele>
        <time>2025-04-29T08:03:04Z</time>
      </trkpt>
      <trkpt lat="42.89073396474123" lon="-4.581263037398458">
        <ele>1067.2</ele>
        <time>2025-04-29T08:03:18Z</time>
      </trkpt>
      <trkpt lat="42.892503971233964" lon="-4.58421397022903">
        <ele>1071.05</ele>
        <time>2025-04-29T08:03:32Z</time>
      </trkpt>
      <trkpt lat="42.892659036442637" lon="-4.584365012124181">
        <ele>1071.53</ele>
        <time>2025-04-29T08:03:33Z</time>
      </trkpt>
      <trkpt lat="42.893778020516038" lon="-4.585323985666037">
        <ele>1074.8900000000001</ele>
        <time>2025-04-29T08:03:40Z</time>
      </trkpt>
      <trkpt lat="42.893915986642241" lon="-4.585483996197581">
        <ele>1075.3699999999999</ele>
        <time>2025-04-29T08:03:41Z</time>
      </trkpt>
      <trkpt lat="42.894030986353755" lon="-4.585679965093732">
        <ele>1076.3299999999999</ele>
        <time>2025-04-29T08:03:42Z</time>
      </trkpt>
      <trkpt lat="42.895295983180404" lon="-4.588119015097618">
        <ele>1086.9100000000001</ele>
        <time>2025-04-29T08:03:53Z</time>
      </trkpt>
      <trkpt lat="42.895735027268529" lon="-4.588966006413102">
        <ele>1090.27</ele>
        <time>2025-04-29T08:03:57Z</time>
      </trkpt>
      <trkpt lat="42.895875005051494" lon="-4.589122999459505">
        <ele>1090.75</ele>
        <time>2025-04-29T08:03:58Z</time>
      </trkpt>
      <trkpt lat="42.896026968955994" lon="-4.589275969192386">
        <ele>1091.23</ele>
        <time>2025-04-29T08:03:59Z</time>
      </trkpt>
      <trkpt lat="42.896732976660132" lon="-4.589820960536599">
        <ele>1095.5599999999999</ele>
        <time>2025-04-29T08:04:03Z</time>
      </trkpt>
      <trkpt lat="42.896929029375315" lon="-4.589918022975326">
        <ele>1096.52</ele>
        <time>2025-04-29T08:04:04Z</time>
      </trkpt>
      <trkpt lat="42.897131033241749" lon="-4.589998992159963">
        <ele>1097.96</ele>
        <time>2025-04-29T08:04:05Z</time>
      </trkpt>
      <trkpt lat="42.897693039849401" lon="-4.590223962441087">
        <ele>1101.8099999999999</ele>
        <time>2025-04-29T08:04:08Z</time>
      </trkpt>
      <trkpt lat="42.897834023460746" lon="-4.590307027101517">
        <ele>1103.25</ele>
        <time>2025-04-29T08:04:09Z</time>
      </trkpt>
      <trkpt lat="42.897939970716834" lon="-4.590453039854765">
        <ele>1104.6900000000001</ele>
        <time>2025-04-29T08:04:10Z</time>
      </trkpt>
      <trkpt lat="42.898017000406981" lon="-4.590638028457761">
        <ele>1105.6500000000001</ele>
        <time>2025-04-29T08:04:11Z</time>
      </trkpt>
      <trkpt lat="42.898098975419998" lon="-4.590837014839053">
        <ele>1106.6099999999999</ele>
        <time>2025-04-29T08:04:12Z</time>
      </trkpt>
      <trkpt lat="42.898182040080428" lon="-4.591039018705487">
        <ele>1108.0599999999999</ele>
        <time>2025-04-29T08:04:13Z</time>
      </trkpt>
      <trkpt lat="42.898297961801291" lon="-4.591214032843709">
        <ele>1109.02</ele>
        <time>2025-04-29T08:04:14Z</time>
      </trkpt>
      <trkpt lat="42.898436011746526" lon="-4.591365996748209">
        <ele>1110.46</ele>
        <time>2025-04-29T08:04:15Z</time>
      </trkpt>
      <trkpt lat="42.898603985086083" lon="-4.591465992853046">
        <ele>1111.4200000000001</ele>
        <time>2025-04-29T08:04:16Z</time>
      </trkpt>
      <trkpt lat="42.898778999224305" lon="-4.591569006443024">
        <ele>1112.3800000000001</ele>
        <time>2025-04-29T08:04:17Z</time>
      </trkpt>
      <trkpt lat="42.898977985605597" lon="-4.591621980071068">
        <ele>1113.3399999999999</ele>
        <time>2025-04-29T08:04:18Z</time>
      </trkpt>
      <trkpt lat="42.899182001128793" lon="-4.59162600338459">
        <ele>1113.8199999999999</ele>
        <time>2025-04-29T08:04:19Z</time>
      </trkpt>
      <trkpt lat="42.89939196780324" lon="-4.591630026698113">
        <ele>1114.79</ele>
        <time>2025-04-29T08:04:20Z</time>
      </trkpt>
      <trkpt lat="42.899823971092701" lon="-4.591638995334506">
        <ele>1116.23</ele>
        <time>2025-04-29T08:04:22Z</time>
      </trkpt>
      <trkpt lat="42.900039972737432" lon="-4.591670008376241">
        <ele>1116.71</ele>
        <time>2025-04-29T08:04:23Z</time>
      </trkpt>
      <trkpt lat="42.901498004794121" lon="-4.592083990573883">
        <ele>1123.4400000000001</ele>
        <time>2025-04-29T08:04:31Z</time>
      </trkpt>
      <trkpt lat="42.901639994233847" lon="-4.592124978080392">
        <ele>1123.9200000000001</ele>
        <time>2025-04-29T08:04:32Z</time>
      </trkpt>
      <trkpt lat="42.901766980066895" lon="-4.592225980013609">
        <ele>1124.4000000000001</ele>
        <time>2025-04-29T08:04:33Z</time>
      </trkpt>
      <trkpt lat="42.901865970343351" lon="-4.592378027737141">
        <ele>1125.3599999999999</ele>
        <time>2025-04-29T08:04:34Z</time>
      </trkpt>
      <trkpt lat="42.901908969506621" lon="-4.592552036046982">
        <ele>1125.8399999999999</ele>
        <time>2025-04-29T08:04:35Z</time>
      </trkpt>
      <trkpt lat="42.901911986991763" lon="-4.592739036306739">
        <ele>1126.8</ele>
        <time>2025-04-29T08:04:36Z</time>
      </trkpt>
      <trkpt lat="42.901877034455538" lon="-4.592910027131438">
        <ele>1127.76</ele>
        <time>2025-04-29T08:04:37Z</time>
      </trkpt>
      <trkpt lat="42.901803022250533" lon="-4.593064002692699">
        <ele>1128.24</ele>
        <time>2025-04-29T08:04:38Z</time>
      </trkpt>
      <trkpt lat="42.90169196203351" lon="-4.593196017667651">
        <ele>1129.21</ele>
        <time>2025-04-29T08:04:39Z</time>
      </trkpt>
      <trkpt lat="42.901579979807138" lon="-4.593329038470984">
        <ele>1129.6900000000001</ele>
        <time>2025-04-29T08:04:40Z</time>
      </trkpt>
      <trkpt lat="42.901483001187444" lon="-4.593444038182497">
        <ele>1130.6500000000001</ele>
        <time>2025-04-29T08:04:41Z</time>
      </trkpt>
      <trkpt lat="42.901349980384111" lon="-4.593449989333749">
        <ele>1131.1300000000001</ele>
        <time>2025-04-29T08:04:42Z</time>
      </trkpt>
      <trkpt lat="42.901208996772766" lon="-4.593456024304032">
        <ele>1132.0899999999999</ele>
        <time>2025-04-29T08:04:43Z</time>
      </trkpt>
      <trkpt lat="42.901064995676279" lon="-4.593461975455284">
        <ele>1132.5699999999999</ele>
        <time>2025-04-29T08:04:44Z</time>
      </trkpt>
      <trkpt lat="42.900934992358088" lon="-4.593484019860625">
        <ele>1133.05</ele>
        <time>2025-04-29T08:04:45Z</time>
      </trkpt>
      <trkpt lat="42.900822004303336" lon="-4.593562977388501">
        <ele>1133.53</ele>
        <time>2025-04-29T08:04:46Z</time>
      </trkpt>
      <trkpt lat="42.900726031512022" lon="-4.593697004020214">
        <ele>1134.01</ele>
        <time>2025-04-29T08:04:47Z</time>
      </trkpt>
      <trkpt lat="42.900641039013863" lon="-4.593841005116701">
        <ele>1134.49</ele>
        <time>2025-04-29T08:04:48Z</time>
      </trkpt>
      <trkpt lat="42.900609020143747" lon="-4.594034040346742">
        <ele>1134.97</ele>
        <time>2025-04-29T08:04:49Z</time>
      </trkpt>
      <trkpt lat="42.900622012093663" lon="-4.594215005636215">
        <ele>1135.9400000000001</ele>
        <time>2025-04-29T08:04:50Z</time>
      </trkpt>
      <trkpt lat="42.900645984336734" lon="-4.594409968703985">
        <ele>1136.9000000000001</ele>
        <time>2025-04-29T08:04:51Z</time>
      </trkpt>
      <trkpt lat="42.90072301402688" lon="-4.594578025862575">
        <ele>1137.8599999999999</ele>
        <time>2025-04-29T08:04:52Z</time>
      </trkpt>
      <trkpt lat="42.900820998474956" lon="-4.594749016687274">
        <ele>1138.8199999999999</ele>
        <time>2025-04-29T08:04:53Z</time>
      </trkpt>
      <trkpt lat="42.90093700401485" lon="-4.594927970319986">
        <ele>1139.78</ele>
        <time>2025-04-29T08:04:54Z</time>
      </trkpt>
      <trkpt lat="42.901197010651231" lon="-4.595239022746682">
        <ele>1141.7</ele>
        <time>2025-04-29T08:04:56Z</time>
      </trkpt>
      <trkpt lat="42.901340005919337" lon="-4.595382018014789">
        <ele>1142.6600000000001</ele>
        <time>2025-04-29T08:04:57Z</time>
      </trkpt>
      <trkpt lat="42.901503033936024" lon="-4.59549400024116">
        <ele>1143.6300000000001</ele>
        <time>2025-04-29T08:04:58Z</time>
      </trkpt>
      <trkpt lat="42.901679975911975" lon="-4.595586033537984">
        <ele>1144.5899999999999</ele>
        <time>2025-04-29T08:04:59Z</time>
      </trkpt>
      <trkpt lat="42.90186395868659" lon="-4.595681000500917">
        <ele>1145.55</ele>
        <time>2025-04-29T08:05:00Z</time>
      </trkpt>
      <trkpt lat="42.903686016798019" lon="-4.596692025661469">
        <ele>1149.8699999999999</ele>
        <time>2025-04-29T08:05:09Z</time>
      </trkpt>
      <trkpt lat="42.904832996428013" lon="-4.59747196175158">
        <ele>1155.6400000000001</ele>
        <time>2025-04-29T08:05:15Z</time>
      </trkpt>
      <trkpt lat="42.905013961717486" lon="-4.597524013370276">
        <ele>1156.5999999999999</ele>
        <time>2025-04-29T08:05:16Z</time>
      </trkpt>
      <trkpt lat="42.905202973634005" lon="-4.59755796007812">
        <ele>1158.05</ele>
        <time>2025-04-29T08:05:17Z</time>
      </trkpt>
      <trkpt lat="42.905401960015297" lon="-4.59753499366343">
        <ele>1159.01</ele>
        <time>2025-04-29T08:05:18Z</time>
      </trkpt>
      <trkpt lat="42.905594995245337" lon="-4.597501968964934">
        <ele>1159.97</ele>
        <time>2025-04-29T08:05:19Z</time>
      </trkpt>
      <trkpt lat="42.905779983848333" lon="-4.597452012822032">
        <ele>1161.4100000000001</ele>
        <time>2025-04-29T08:05:20Z</time>
      </trkpt>
      <trkpt lat="42.905951980501413" lon="-4.597359979525209">
        <ele>1162.3699999999999</ele>
        <time>2025-04-29T08:05:21Z</time>
      </trkpt>
      <trkpt lat="42.906122971326113" lon="-4.59725403226912">
        <ele>1163.8099999999999</ele>
        <time>2025-04-29T08:05:22Z</time>
      </trkpt>
      <trkpt lat="42.906280970200896" lon="-4.597132997587323">
        <ele>1164.77</ele>
        <time>2025-04-29T08:05:23Z</time>
      </trkpt>
      <trkpt lat="42.906562015414238" lon="-4.596920013427734">
        <ele>1166.7</ele>
        <time>2025-04-29T08:05:25Z</time>
      </trkpt>
      <trkpt lat="42.906692018732429" lon="-4.59691003896296">
        <ele>1167.6600000000001</ele>
        <time>2025-04-29T08:05:26Z</time>
      </trkpt>
      <trkpt lat="42.906820010393858" lon="-4.596939040347934">
        <ele>1168.6199999999999</ele>
        <time>2025-04-29T08:05:27Z</time>
      </trkpt>
      <trkpt lat="42.907074987888336" lon="-4.597072983160615">
        <ele>1171.02</ele>
        <time>2025-04-29T08:05:29Z</time>
      </trkpt>
      <trkpt lat="42.907197028398514" lon="-4.597137020900846">
        <ele>1171.98</ele>
        <time>2025-04-29T08:05:30Z</time>
      </trkpt>
      <trkpt lat="42.907342035323381" lon="-4.597117993980646">
        <ele>1173.4300000000001</ele>
        <time>2025-04-29T08:05:31Z</time>
      </trkpt>
      <trkpt lat="42.907492993399501" lon="-4.597066026180983">
        <ele>1174.3900000000001</ele>
        <time>2025-04-29T08:05:32Z</time>
      </trkpt>
      <trkpt lat="42.907646968960762" lon="-4.597011962905526">
        <ele>1174.8699999999999</ele>
        <time>2025-04-29T08:05:33Z</time>
      </trkpt>
      <trkpt lat="42.907799016684294" lon="-4.597016992047429">
        <ele>1175.8299999999999</ele>
        <time>2025-04-29T08:05:34Z</time>
      </trkpt>
      <trkpt lat="42.90794100612402" lon="-4.59703903645277">
        <ele>1176.3099999999999</ele>
        <time>2025-04-29T08:05:35Z</time>
      </trkpt>
      <trkpt lat="42.90807100944221" lon="-4.597112964838743">
        <ele>1176.79</ele>
        <time>2025-04-29T08:05:36Z</time>
      </trkpt>
      <trkpt lat="42.908148039132357" lon="-4.597252020612359">
        <ele>1177.27</ele>
        <time>2025-04-29T08:05:37Z</time>
      </trkpt>
      <trkpt lat="42.908201012760401" lon="-4.597427034750581">
        <ele>1177.75</ele>
        <time>2025-04-29T08:05:38Z</time>
      </trkpt>
      <trkpt lat="42.908235965296626" lon="-4.597617974504829">
        <ele>1178.23</ele>
        <time>2025-04-29T08:05:39Z</time>
      </trkpt>
      <trkpt lat="42.90843503549695" lon="-4.598679961636663">
        <ele>1179.6700000000001</ele>
        <time>2025-04-29T08:05:44Z</time>
      </trkpt>
      <trkpt lat="42.908404022455215" lon="-4.59891096688807">
        <ele>1180.1600000000001</ele>
        <time>2025-04-29T08:05:45Z</time>
      </trkpt>
      <trkpt lat="42.908378038555384" lon="-4.59910299628973">
        <ele>1180.6400000000001</ele>
        <time>2025-04-29T08:05:46Z</time>
      </trkpt>
      <trkpt lat="42.908306960016489" lon="-4.599257977679372">
        <ele>1181.5999999999999</ele>
        <time>2025-04-29T08:05:47Z</time>
      </trkpt>
      <trkpt lat="42.908215010538697" lon="-4.59938102401793">
        <ele>1182.5599999999999</ele>
        <time>2025-04-29T08:05:48Z</time>
      </trkpt>
      <trkpt lat="42.908082995563745" lon="-4.599452018737793">
        <ele>1184</ele>
        <time>2025-04-29T08:05:49Z</time>
      </trkpt>
      <trkpt lat="42.907940000295639" lon="-4.599528964608908">
        <ele>1184.48</ele>
        <time>2025-04-29T08:05:50Z</time>
      </trkpt>
      <trkpt lat="42.907070964574814" lon="-4.600056018680334">
        <ele>1188.8099999999999</ele>
        <time>2025-04-29T08:05:56Z</time>
      </trkpt>
      <trkpt lat="42.906981026753783" lon="-4.600191973149777">
        <ele>1189.77</ele>
        <time>2025-04-29T08:05:57Z</time>
      </trkpt>
      <trkpt lat="42.906926963478327" lon="-4.600366987287998">
        <ele>1190.73</ele>
        <time>2025-04-29T08:05:58Z</time>
      </trkpt>
      <trkpt lat="42.90691195987165" lon="-4.600548036396503">
        <ele>1191.21</ele>
        <time>2025-04-29T08:05:59Z</time>
      </trkpt>
      <trkpt lat="42.90691195987165" lon="-4.600739981979132">
        <ele>1192.1700000000001</ele>
        <time>2025-04-29T08:06:00Z</time>
      </trkpt>
      <trkpt lat="42.90695202536881" lon="-4.600966041907668">
        <ele>1192.6500000000001</ele>
        <time>2025-04-29T08:06:01Z</time>
      </trkpt>
      <trkpt lat="42.906993012875319" lon="-4.601196041330695">
        <ele>1192.6500000000001</ele>
        <time>2025-04-29T08:06:02Z</time>
      </trkpt>
      <trkpt lat="42.907123016193509" lon="-4.601923003792763">
        <ele>1192.6500000000001</ele>
        <time>2025-04-29T08:06:05Z</time>
      </trkpt>
      <trkpt lat="42.907109018415213" lon="-4.602172030135989">
        <ele>1193.1300000000001</ele>
        <time>2025-04-29T08:06:06Z</time>
      </trkpt>
      <trkpt lat="42.907050009816885" lon="-4.602400017902255">
        <ele>1193.6099999999999</ele>
        <time>2025-04-29T08:06:07Z</time>
      </trkpt>
      <trkpt lat="42.906982032582164" lon="-4.602622976526618">
        <ele>1194.0899999999999</ele>
        <time>2025-04-29T08:06:08Z</time>
      </trkpt>
      <trkpt lat="42.906885975971818" lon="-4.602835038676858">
        <ele>1194.5799999999999</ele>
        <time>2025-04-29T08:06:09Z</time>
      </trkpt>
      <trkpt lat="42.906773993745446" lon="-4.60303301922977">
        <ele>1195.54</ele>
        <time>2025-04-29T08:06:10Z</time>
      </trkpt>
      <trkpt lat="42.906590010970831" lon="-4.60335697978735">
        <ele>1196.98</ele>
        <time>2025-04-29T08:06:12Z</time>
      </trkpt>
      <trkpt lat="42.906542988494039" lon="-4.60361204110086">
        <ele>1197.46</ele>
        <time>2025-04-29T08:06:13Z</time>
      </trkpt>
      <trkpt lat="42.90650300681591" lon="-4.603825025260449">
        <ele>1197.9400000000001</ele>
        <time>2025-04-29T08:06:14Z</time>
      </trkpt>
      <trkpt lat="42.906499989330769" lon="-4.604035997763276">
        <ele>1198.4200000000001</ele>
        <time>2025-04-29T08:06:15Z</time>
      </trkpt>
      <trkpt lat="42.906540976837277" lon="-4.604264991357923">
        <ele>1198.9000000000001</ele>
        <time>2025-04-29T08:06:16Z</time>
      </trkpt>
      <trkpt lat="42.906590010970831" lon="-4.60453798994422">
        <ele>1198.9000000000001</ele>
        <time>2025-04-29T08:06:17Z</time>
      </trkpt>
      <trkpt lat="42.906669974327087" lon="-4.604727001860738">
        <ele>1199.3800000000001</ele>
        <time>2025-04-29T08:06:18Z</time>
      </trkpt>
      <trkpt lat="42.907199962064624" lon="-4.605736015364528">
        <ele>1202.75</ele>
        <time>2025-04-29T08:06:23Z</time>
      </trkpt>
      <trkpt lat="42.907334994524717" lon="-4.605894014239311">
        <ele>1203.71</ele>
        <time>2025-04-29T08:06:24Z</time>
      </trkpt>
      <trkpt lat="42.907489975914359" lon="-4.60602100007236">
        <ele>1204.6700000000001</ele>
        <time>2025-04-29T08:06:25Z</time>
      </trkpt>
      <trkpt lat="42.908172011375427" lon="-4.606646960601211">
        <ele>1209.48</ele>
        <time>2025-04-29T08:06:31Z</time>
      </trkpt>
      <trkpt lat="42.908464036881924" lon="-4.607023978605866">
        <ele>1212.3599999999999</ele>
        <time>2025-04-29T08:06:36Z</time>
      </trkpt>
      <trkpt lat="42.90852103382349" lon="-4.607111988589168">
        <ele>1212.8399999999999</ele>
        <time>2025-04-29T08:06:37Z</time>
      </trkpt>
      <trkpt lat="42.9085239674896" lon="-4.607192035764456">
        <ele>1212.8399999999999</ele>
        <time>2025-04-29T08:06:38Z</time>
      </trkpt>
      <trkpt lat="42.908526984974742" lon="-4.607285996899009">
        <ele>1213.3199999999999</ele>
        <time>2025-04-29T08:06:39Z</time>
      </trkpt>
      <trkpt lat="42.908530002459884" lon="-4.607379036024213">
        <ele>1213.3199999999999</ele>
        <time>2025-04-29T08:06:40Z</time>
      </trkpt>
      <trkpt lat="42.908533019945025" lon="-4.607470985502005">
        <ele>1213.3199999999999</ele>
        <time>2025-04-29T08:06:41Z</time>
      </trkpt>
      <trkpt lat="42.908536037430167" lon="-4.607557989656925">
        <ele>1213.3199999999999</ele>
        <time>2025-04-29T08:06:42Z</time>
      </trkpt>
      <trkpt lat="42.908538971096277" lon="-4.607639964669943">
        <ele>1212.8399999999999</ele>
        <time>2025-04-29T08:06:43Z</time>
      </trkpt>
      <trkpt lat="42.908540982753038" lon="-4.607721017673612">
        <ele>1212.8399999999999</ele>
        <time>2025-04-29T08:06:44Z</time>
      </trkpt>
      <trkpt lat="42.9085429944098" lon="-4.607755970209837">
        <ele>1212.8399999999999</ele>
        <time>2025-04-29T08:06:45Z</time>
      </trkpt>
      <trkpt lat="42.908503012731671" lon="-4.607854960486293">
        <ele>1212.8399999999999</ele>
        <time>2025-04-29T08:06:46Z</time>
      </trkpt>
      <trkpt lat="42.908470993861556" lon="-4.607935007661581">
        <ele>1212.8399999999999</ele>
        <time>2025-04-29T08:06:47Z</time>
      </trkpt>
      <trkpt lat="42.90843402966857" lon="-4.607981024309993">
        <ele>1212.8399999999999</ele>
        <time>2025-04-29T08:06:48Z</time>
      </trkpt>
      <trkpt lat="42.908361023291945" lon="-4.608013965189457">
        <ele>1212.8399999999999</ele>
        <time>2025-04-29T08:06:49Z</time>
      </trkpt>
      <trkpt lat="42.90828499943018" lon="-4.608047995716333">
        <ele>1212.8399999999999</ele>
        <time>2025-04-29T08:06:50Z</time>
      </trkpt>
      <trkpt lat="42.908215010538697" lon="-4.608079008758068">
        <ele>1212.8399999999999</ele>
        <time>2025-04-29T08:06:51Z</time>
      </trkpt>
      <trkpt lat="42.908001020550728" lon="-4.608177999034524">
        <ele>1212.3599999999999</ele>
        <time>2025-04-29T08:06:54Z</time>
      </trkpt>
      <trkpt lat="42.907851990312338" lon="-4.608260979875922">
        <ele>1211.8800000000001</ele>
        <time>2025-04-29T08:06:56Z</time>
      </trkpt>
      <trkpt lat="42.907774960622191" lon="-4.608303979039192">
        <ele>1211.8800000000001</ele>
        <time>2025-04-29T08:06:57Z</time>
      </trkpt>
      <trkpt lat="42.907696003094316" lon="-4.608347984030843">
        <ele>1211.8800000000001</ele>
        <time>2025-04-29T08:06:58Z</time>
      </trkpt>
      <trkpt lat="42.90764101780951" lon="-4.608377991244197">
        <ele>1211.8800000000001</ele>
        <time>2025-04-29T08:06:59Z</time>
      </trkpt>
      <trkpt lat="42.907545967027545" lon="-4.608395006507635">
        <ele>1211.8800000000001</ele>
        <time>2025-04-29T08:07:00Z</time>
      </trkpt>
      <trkpt lat="42.907467009499669" lon="-4.608409004285932">
        <ele>1212.3599999999999</ele>
        <time>2025-04-29T08:07:01Z</time>
      </trkpt>
      <trkpt lat="42.907390985637903" lon="-4.608423002064228">
        <ele>1212.8399999999999</ele>
        <time>2025-04-29T08:07:02Z</time>
      </trkpt>
      <trkpt lat="42.907315967604518" lon="-4.608435994014144">
        <ele>1212.8399999999999</ele>
        <time>2025-04-29T08:07:03Z</time>
      </trkpt>
      <trkpt lat="42.907238015905023" lon="-4.60844999179244">
        <ele>1213.3199999999999</ele>
        <time>2025-04-29T08:07:04Z</time>
      </trkpt>
      <trkpt lat="42.90648297406733" lon="-4.608657024800777">
        <ele>1216.21</ele>
        <time>2025-04-29T08:07:14Z</time>
      </trkpt>
      <trkpt lat="42.906409967690706" lon="-4.608693988993764">
        <ele>1217.1700000000001</ele>
        <time>2025-04-29T08:07:15Z</time>
      </trkpt>
      <trkpt lat="42.906338972970843" lon="-4.608729025349021">
        <ele>1217.6500000000001</ele>
        <time>2025-04-29T08:07:16Z</time>
      </trkpt>
      <trkpt lat="42.906297985464334" lon="-4.608816029503942">
        <ele>1218.1300000000001</ele>
        <time>2025-04-29T08:07:17Z</time>
      </trkpt>
      <trkpt lat="42.906280970200896" lon="-4.608907978981733">
        <ele>1218.6099999999999</ele>
        <time>2025-04-29T08:07:18Z</time>
      </trkpt>
      <trkpt lat="42.906276024878025" lon="-4.608998000621796">
        <ele>1219.0899999999999</ele>
        <time>2025-04-29T08:07:19Z</time>
      </trkpt>
      <trkpt lat="42.906322041526437" lon="-4.609105959534645">
        <ele>1220.05</ele>
        <time>2025-04-29T08:07:20Z</time>
      </trkpt>
      <trkpt lat="42.906399993225932" lon="-4.609212996438146">
        <ele>1221.01</ele>
        <time>2025-04-29T08:07:21Z</time>
      </trkpt>
      <trkpt lat="42.906496971845627" lon="-4.609333025291562">
        <ele>1221.97</ele>
        <time>2025-04-29T08:07:22Z</time>
      </trkpt>
      <trkpt lat="42.907386040315032" lon="-4.610442034900188">
        <ele>1229.6600000000001</ele>
        <time>2025-04-29T08:07:29Z</time>
      </trkpt>
      <trkpt lat="42.907513026148081" lon="-4.610673962160945">
        <ele>1231.1099999999999</ele>
        <time>2025-04-29T08:07:30Z</time>
      </trkpt>
      <trkpt lat="42.908032033592463" lon="-4.611833011731505">
        <ele>1238.3199999999999</ele>
        <time>2025-04-29T08:07:35Z</time>
      </trkpt>
      <trkpt lat="42.908103028312325" lon="-4.612083965912461">
        <ele>1239.76</ele>
        <time>2025-04-29T08:07:36Z</time>
      </trkpt>
      <trkpt lat="42.908310983330011" lon="-4.612970016896725">
        <ele>1245.53</ele>
        <time>2025-04-29T08:07:40Z</time>
      </trkpt>
      <trkpt lat="42.908395975828171" lon="-4.613146036863327">
        <ele>1246.49</ele>
        <time>2025-04-29T08:07:41Z</time>
      </trkpt>
      <trkpt lat="42.908513993024826" lon="-4.613263970240951">
        <ele>1247.9300000000001</ele>
        <time>2025-04-29T08:07:42Z</time>
      </trkpt>
      <trkpt lat="42.908646007999778" lon="-4.613371007144451">
        <ele>1248.8900000000001</ele>
        <time>2025-04-29T08:07:43Z</time>
      </trkpt>
      <trkpt lat="42.908786991611123" lon="-4.61345499381423">
        <ele>1250.3299999999999</ele>
        <time>2025-04-29T08:07:44Z</time>
      </trkpt>
      <trkpt lat="42.909046998247504" lon="-4.613608969375491">
        <ele>1252.25</ele>
        <time>2025-04-29T08:07:46Z</time>
      </trkpt>
      <trkpt lat="42.90916501544416" lon="-4.613678958266974">
        <ele>1253.22</ele>
        <time>2025-04-29T08:07:47Z</time>
      </trkpt>
      <trkpt lat="42.909241961315274" lon="-4.613794041797519">
        <ele>1254.6600000000001</ele>
        <time>2025-04-29T08:07:48Z</time>
      </trkpt>
      <trkpt lat="42.909285966306925" lon="-4.613947011530399">
        <ele>1255.6199999999999</ele>
        <time>2025-04-29T08:07:49Z</time>
      </trkpt>
      <trkpt lat="42.909284960478544" lon="-4.614102998748422">
        <ele>1257.0599999999999</ele>
        <time>2025-04-29T08:07:50Z</time>
      </trkpt>
      <trkpt lat="42.909272974357009" lon="-4.614266026765108">
        <ele>1258.02</ele>
        <time>2025-04-29T08:07:51Z</time>
      </trkpt>
      <trkpt lat="42.909212959930301" lon="-4.614407010376453">
        <ele>1258.98</ele>
        <time>2025-04-29T08:07:52Z</time>
      </trkpt>
      <trkpt lat="42.909143976867199" lon="-4.614556040614843">
        <ele>1259.9400000000001</ele>
        <time>2025-04-29T08:07:53Z</time>
      </trkpt>
      <trkpt lat="42.909040041267872" lon="-4.614674979820848">
        <ele>1260.4300000000001</ele>
        <time>2025-04-29T08:07:54Z</time>
      </trkpt>
      <trkpt lat="42.908925041556358" lon="-4.614803977310658">
        <ele>1261.3900000000001</ele>
        <time>2025-04-29T08:07:55Z</time>
      </trkpt>
      <trkpt lat="42.908167988061905" lon="-4.615659015253186">
        <ele>1265.23</ele>
        <time>2025-04-29T08:08:01Z</time>
      </trkpt>
      <trkpt lat="42.908089030534029" lon="-4.615834029391408">
        <ele>1265.71</ele>
        <time>2025-04-29T08:08:02Z</time>
      </trkpt>
      <trkpt lat="42.90802801027894" lon="-4.616017006337643">
        <ele>1266.6700000000001</ele>
        <time>2025-04-29T08:08:03Z</time>
      </trkpt>
      <trkpt lat="42.908018035814166" lon="-4.61622797884047">
        <ele>1267.6400000000001</ele>
        <time>2025-04-29T08:08:04Z</time>
      </trkpt>
      <trkpt lat="42.908036978915334" lon="-4.616454038769007">
        <ele>1268.5999999999999</ele>
        <time>2025-04-29T08:08:05Z</time>
      </trkpt>
      <trkpt lat="42.908056005835533" lon="-4.616684960201383">
        <ele>1269.0799999999999</ele>
        <time>2025-04-29T08:08:06Z</time>
      </trkpt>
      <trkpt lat="42.908062962815166" lon="-4.616922000423074">
        <ele>1270.04</ele>
        <time>2025-04-29T08:08:07Z</time>
      </trkpt>
      <trkpt lat="42.908034967258573" lon="-4.617159040644765">
        <ele>1271</ele>
        <time>2025-04-29T08:08:08Z</time>
      </trkpt>
      <trkpt lat="42.907970007508993" lon="-4.617390967905521">
        <ele>1271.96</ele>
        <time>2025-04-29T08:08:09Z</time>
      </trkpt>
      <trkpt lat="42.907860036939383" lon="-4.617590038105846">
        <ele>1272.9200000000001</ele>
        <time>2025-04-29T08:08:10Z</time>
      </trkpt>
      <trkpt lat="42.907742019742727" lon="-4.617793969810009">
        <ele>1274.3599999999999</ele>
        <time>2025-04-29T08:08:11Z</time>
      </trkpt>
      <trkpt lat="42.907622996717691" lon="-4.617998991161585">
        <ele>1275.8099999999999</ele>
        <time>2025-04-29T08:08:12Z</time>
      </trkpt>
      <trkpt lat="42.907504979521036" lon="-4.6182020008564">
        <ele>1276.77</ele>
        <time>2025-04-29T08:08:13Z</time>
      </trkpt>
      <trkpt lat="42.90738201700151" lon="-4.618414985015988">
        <ele>1277.73</ele>
        <time>2025-04-29T08:08:14Z</time>
      </trkpt>
      <trkpt lat="42.906708028167486" lon="-4.62037299759686">
        <ele>1286.3800000000001</ele>
        <time>2025-04-29T08:08:22Z</time>
      </trkpt>
      <trkpt lat="42.9066969640553" lon="-4.620634010061622">
        <ele>1287.8199999999999</ele>
        <time>2025-04-29T08:08:23Z</time>
      </trkpt>
      <trkpt lat="42.9066969640553" lon="-4.620898040011525">
        <ele>1288.78</ele>
        <time>2025-04-29T08:08:24Z</time>
      </trkpt>
      <trkpt lat="42.906719008460641" lon="-4.621152011677623">
        <ele>1290.23</ele>
        <time>2025-04-29T08:08:25Z</time>
      </trkpt>
      <trkpt lat="42.906779022887349" lon="-4.621406989172101">
        <ele>1291.6700000000001</ele>
        <time>2025-04-29T08:08:26Z</time>
      </trkpt>
      <trkpt lat="42.906839037314057" lon="-4.621661966666579">
        <ele>1293.1099999999999</ele>
        <time>2025-04-29T08:08:27Z</time>
      </trkpt>
      <trkpt lat="42.906922018155456" lon="-4.62189900688827">
        <ele>1294.55</ele>
        <time>2025-04-29T08:08:28Z</time>
      </trkpt>
      <trkpt lat="42.907027965411544" lon="-4.622118026018143">
        <ele>1295.99</ele>
        <time>2025-04-29T08:08:29Z</time>
      </trkpt>
      <trkpt lat="42.907128967344761" lon="-4.622326986864209">
        <ele>1297.4400000000001</ele>
        <time>2025-04-29T08:08:30Z</time>
      </trkpt>
      <trkpt lat="42.907219994813204" lon="-4.622525973245502">
        <ele>1298.8800000000001</ele>
        <time>2025-04-29T08:08:31Z</time>
      </trkpt>
      <trkpt lat="42.90727699175477" lon="-4.622734012082219">
        <ele>1300.3199999999999</ele>
        <time>2025-04-29T08:08:32Z</time>
      </trkpt>
      <trkpt lat="42.907289983704686" lon="-4.622943978756666">
        <ele>1301.76</ele>
        <time>2025-04-29T08:08:33Z</time>
      </trkpt>
      <trkpt lat="42.907282020896673" lon="-4.623137013986707">
        <ele>1303.2</ele>
        <time>2025-04-29T08:08:34Z</time>
      </trkpt>
      <trkpt lat="42.907231980934739" lon="-4.623323008418083">
        <ele>1304.6500000000001</ele>
        <time>2025-04-29T08:08:35Z</time>
      </trkpt>
      <trkpt lat="42.907156040892005" lon="-4.623484024778009">
        <ele>1305.6099999999999</ele>
        <time>2025-04-29T08:08:36Z</time>
      </trkpt>
      <trkpt lat="42.907056966796517" lon="-4.623630959540606">
        <ele>1306.5699999999999</ele>
        <time>2025-04-29T08:08:37Z</time>
      </trkpt>
      <trkpt lat="42.906942972913384" lon="-4.623736990615726">
        <ele>1307.53</ele>
        <time>2025-04-29T08:08:38Z</time>
      </trkpt>
      <trkpt lat="42.906827973201871" lon="-4.62383296340704">
        <ele>1308.49</ele>
        <time>2025-04-29T08:08:39Z</time>
      </trkpt>
      <trkpt lat="42.906728982925415" lon="-4.62391602806747">
        <ele>1309.45</ele>
        <time>2025-04-29T08:08:40Z</time>
      </trkpt>
      <trkpt lat="42.906639967113733" lon="-4.623990040272474">
        <ele>1309.9300000000001</ele>
        <time>2025-04-29T08:08:41Z</time>
      </trkpt>
      <trkpt lat="42.906555980443954" lon="-4.624060029163957">
        <ele>1310.9000000000001</ele>
        <time>2025-04-29T08:08:42Z</time>
      </trkpt>
      <trkpt lat="42.906498983502388" lon="-4.624193971976638">
        <ele>1311.3800000000001</ele>
        <time>2025-04-29T08:08:43Z</time>
      </trkpt>
      <trkpt lat="42.906457995995879" lon="-4.624355994164944">
        <ele>1311.8599999999999</ele>
        <time>2025-04-29T08:08:44Z</time>
      </trkpt>
      <trkpt lat="42.906422959640622" lon="-4.624537965282798">
        <ele>1312.8199999999999</ele>
        <time>2025-04-29T08:08:45Z</time>
      </trkpt>
      <trkpt lat="42.906207041814923" lon="-4.625725010409951">
        <ele>1318.0999999999999</ele>
        <time>2025-04-29T08:08:51Z</time>
      </trkpt>
      <trkpt lat="42.906146021559834" lon="-4.625886026769877">
        <ele>1319.0699999999999</ele>
        <time>2025-04-29T08:08:52Z</time>
      </trkpt>
      <trkpt lat="42.906074021011591" lon="-4.626033967360854">
        <ele>1320.03</ele>
        <time>2025-04-29T08:08:53Z</time>
      </trkpt>
      <trkpt lat="42.905953992158175" lon="-4.626123989000917">
        <ele>1320.99</ele>
        <time>2025-04-29T08:08:54Z</time>
      </trkpt>
      <trkpt lat="42.905830023810267" lon="-4.626217028126121">
        <ele>1321.95</ele>
        <time>2025-04-29T08:08:55Z</time>
      </trkpt>
      <trkpt lat="42.905701026320457" lon="-4.626274025067687">
        <ele>1322.9100000000001</ele>
        <time>2025-04-29T08:08:56Z</time>
      </trkpt>
      <trkpt lat="42.905568005517125" lon="-4.626274025067687">
        <ele>1324.3499999999999</ele>
        <time>2025-04-29T08:08:57Z</time>
      </trkpt>
      <trkpt lat="42.905444959178567" lon="-4.626274025067687">
        <ele>1325.3099999999999</ele>
        <time>2025-04-29T08:08:58Z</time>
      </trkpt>
      <trkpt lat="42.90534496307373" lon="-4.626274025067687">
        <ele>1325.8</ele>
        <time>2025-04-29T08:08:59Z</time>
      </trkpt>
      <trkpt lat="42.905224012210965" lon="-4.626320041716099">
        <ele>1326.76</ele>
        <time>2025-04-29T08:09:00Z</time>
      </trkpt>
      <trkpt lat="42.905116975307465" lon="-4.626394975930452">
        <ele>1327.72</ele>
        <time>2025-04-29T08:09:01Z</time>
      </trkpt>
      <trkpt lat="42.905037011951208" lon="-4.626522967591882">
        <ele>1328.6800000000001</ele>
        <time>2025-04-29T08:09:02Z</time>
      </trkpt>
      <trkpt lat="42.90497800335288" lon="-4.626675015315414">
        <ele>1329.6400000000001</ele>
        <time>2025-04-29T08:09:03Z</time>
      </trkpt>
      <trkpt lat="42.904953025281429" lon="-4.626850029453635">
        <ele>1330.5999999999999</ele>
        <time>2025-04-29T08:09:04Z</time>
      </trkpt>
      <trkpt lat="42.904941961169243" lon="-4.627044992521405">
        <ele>1331.5599999999999</ele>
        <time>2025-04-29T08:09:05Z</time>
      </trkpt>
      <trkpt lat="42.904970962554216" lon="-4.627238027751446">
        <ele>1332.52</ele>
        <time>2025-04-29T08:09:06Z</time>
      </trkpt>
      <trkpt lat="42.905027959495783" lon="-4.627416981384158">
        <ele>1333.97</ele>
        <time>2025-04-29T08:09:07Z</time>
      </trkpt>
      <trkpt lat="42.905098032206297" lon="-4.627584032714367">
        <ele>1335.4100000000001</ele>
        <time>2025-04-29T08:09:08Z</time>
      </trkpt>
      <trkpt lat="42.905208002775908" lon="-4.627709006890655">
        <ele>1336.3699999999999</ele>
        <time>2025-04-29T08:09:09Z</time>
      </trkpt>
      <trkpt lat="42.905330965295434" lon="-4.627773966640234">
        <ele>1337.3299999999999</ele>
        <time>2025-04-29T08:09:10Z</time>
      </trkpt>
      <trkpt lat="42.905458034947515" lon="-4.627841021865606">
        <ele>1338.29</ele>
        <time>2025-04-29T08:09:11Z</time>
      </trkpt>
      <trkpt lat="42.905596001073718" lon="-4.627915034070611">
        <ele>1338.77</ele>
        <time>2025-04-29T08:09:12Z</time>
      </trkpt>
      <trkpt lat="42.906036972999573" lon="-4.628180991858244">
        <ele>1340.7</ele>
        <time>2025-04-29T08:09:15Z</time>
      </trkpt>
      <trkpt lat="42.906184997409582" lon="-4.628304960206151">
        <ele>1341.6600000000001</ele>
        <time>2025-04-29T08:09:16Z</time>
      </trkpt>
      <trkpt lat="42.906303014606237" lon="-4.628478968515992">
        <ele>1342.6199999999999</ele>
        <time>2025-04-29T08:09:17Z</time>
      </trkpt>
      <trkpt lat="42.906422037631273" lon="-4.628655994310975">
        <ele>1344.0599999999999</ele>
        <time>2025-04-29T08:09:18Z</time>
      </trkpt>
      <trkpt lat="42.906547011807561" lon="-4.62883897125721">
        <ele>1345.02</ele>
        <time>2025-04-29T08:09:19Z</time>
      </trkpt>
      <trkpt lat="42.906655976548791" lon="-4.629049021750689">
        <ele>1346.46</ele>
        <time>2025-04-29T08:09:20Z</time>
      </trkpt>
      <trkpt lat="42.906745998188853" lon="-4.629281032830477">
        <ele>1347.4300000000001</ele>
        <time>2025-04-29T08:09:21Z</time>
      </trkpt>
      <trkpt lat="42.906822022050619" lon="-4.629535004496574">
        <ele>1349.3499999999999</ele>
        <time>2025-04-29T08:09:22Z</time>
      </trkpt>
      <trkpt lat="42.907453011721373" lon="-4.631680017337203">
        <ele>1360.4000000000001</ele>
        <time>2025-04-29T08:09:30Z</time>
      </trkpt>
      <trkpt lat="42.907573962584138" lon="-4.631893001496792">
        <ele>1361.8399999999999</ele>
        <time>2025-04-29T08:09:31Z</time>
      </trkpt>
      <trkpt lat="42.907691979780793" lon="-4.632101040333509">
        <ele>1363.29</ele>
        <time>2025-04-29T08:09:32Z</time>
      </trkpt>
      <trkpt lat="42.907804967835546" lon="-4.632299020886421">
        <ele>1364.73</ele>
        <time>2025-04-29T08:09:33Z</time>
      </trkpt>
      <trkpt lat="42.907884009182453" lon="-4.632520973682404">
        <ele>1366.1700000000001</ele>
        <time>2025-04-29T08:09:34Z</time>
      </trkpt>
      <trkpt lat="42.907933965325356" lon="-4.632754996418953">
        <ele>1367.6099999999999</ele>
        <time>2025-04-29T08:09:35Z</time>
      </trkpt>
      <trkpt lat="42.90798501111567" lon="-4.632990024983883">
        <ele>1368.5699999999999</ele>
        <time>2025-04-29T08:09:36Z</time>
      </trkpt>
      <trkpt lat="42.908064974471927" lon="-4.633151963353157">
        <ele>1369.54</ele>
        <time>2025-04-29T08:09:37Z</time>
      </trkpt>
      <trkpt lat="42.908196989446878" lon="-4.633280038833618">
        <ele>1370.5</ele>
        <time>2025-04-29T08:09:38Z</time>
      </trkpt>
      <trkpt lat="42.90835096500814" lon="-4.633390009403229">
        <ele>1371.46</ele>
        <time>2025-04-29T08:09:39Z</time>
      </trkpt>
      <trkpt lat="42.908513993024826" lon="-4.633506014943123">
        <ele>1372.9000000000001</ele>
        <time>2025-04-29T08:09:40Z</time>
      </trkpt>
      <trkpt lat="42.910050982609391" lon="-4.634431963786483">
        <ele>1383.47</ele>
        <time>2025-04-29T08:09:48Z</time>
      </trkpt>
      <trkpt lat="42.910717008635402" lon="-4.634646959602833">
        <ele>1389.24</ele>
        <time>2025-04-29T08:09:52Z</time>
      </trkpt>
      <trkpt lat="42.910843994468451" lon="-4.634718038141727">
        <ele>1390.6800000000001</ele>
        <time>2025-04-29T08:09:53Z</time>
      </trkpt>
      <trkpt lat="42.910967040807009" lon="-4.634814010933042">
        <ele>1392.1300000000001</ele>
        <time>2025-04-29T08:09:54Z</time>
      </trkpt>
      <trkpt lat="42.911038035526872" lon="-4.634966980665922">
        <ele>1393.5699999999999</ele>
        <time>2025-04-29T08:09:55Z</time>
      </trkpt>
      <trkpt lat="42.911101989448071" lon="-4.635139983147383">
        <ele>1395.01</ele>
        <time>2025-04-29T08:09:56Z</time>
      </trkpt>
      <trkpt lat="42.911127973347902" lon="-4.635335030034185">
        <ele>1396.45</ele>
        <time>2025-04-29T08:09:57Z</time>
      </trkpt>
      <trkpt lat="42.911154041066766" lon="-4.635526975616813">
        <ele>1397.4100000000001</ele>
        <time>2025-04-29T08:09:58Z</time>
      </trkpt>
      <trkpt lat="42.911178013309836" lon="-4.635709030553699">
        <ele>1398.8599999999999</ele>
        <time>2025-04-29T08:09:59Z</time>
      </trkpt>
      <trkpt lat="42.911140965297818" lon="-4.635882033035159">
        <ele>1399.8199999999999</ele>
        <time>2025-04-29T08:10:00Z</time>
      </trkpt>
      <trkpt lat="42.911087991669774" lon="-4.636049000546336">
        <ele>1400.78</ele>
        <time>2025-04-29T08:10:01Z</time>
      </trkpt>
      <trkpt lat="42.910994030535221" lon="-4.63618503883481">
        <ele>1402.22</ele>
        <time>2025-04-29T08:10:02Z</time>
      </trkpt>
      <trkpt lat="42.910903003066778" lon="-4.63631596416235">
        <ele>1403.1800000000001</ele>
        <time>2025-04-29T08:10:03Z</time>
      </trkpt>
      <trkpt lat="42.910840976983309" lon="-4.63646499440074">
        <ele>1404.1400000000001</ele>
        <time>2025-04-29T08:10:04Z</time>
      </trkpt>
      <trkpt lat="42.910796971991658" lon="-4.636610001325607">
        <ele>1405.0999999999999</ele>
        <time>2025-04-29T08:10:05Z</time>
      </trkpt>
      <trkpt lat="42.910800995305181" lon="-4.636793984100223">
        <ele>1406.0699999999999</ele>
        <time>2025-04-29T08:10:06Z</time>
      </trkpt>
      <trkpt lat="42.910807030275464" lon="-4.636990036815405">
        <ele>1407.03</ele>
        <time>2025-04-29T08:10:07Z</time>
      </trkpt>
      <trkpt lat="42.910811975598335" lon="-4.637181982398033">
        <ele>1407.99</ele>
        <time>2025-04-29T08:10:08Z</time>
      </trkpt>
      <trkpt lat="42.910815998911858" lon="-4.637355990707874">
        <ele>1408.95</ele>
        <time>2025-04-29T08:10:09Z</time>
      </trkpt>
      <trkpt lat="42.910771993920207" lon="-4.637507032603025">
        <ele>1409.9100000000001</ele>
        <time>2025-04-29T08:10:10Z</time>
      </trkpt>
      <trkpt lat="42.910709967836738" lon="-4.637667965143919">
        <ele>1410.8699999999999</ele>
        <time>2025-04-29T08:10:11Z</time>
      </trkpt>
      <trkpt lat="42.910622041672468" lon="-4.637758992612362">
        <ele>1412.3099999999999</ele>
        <time>2025-04-29T08:10:12Z</time>
      </trkpt>
      <trkpt lat="42.9105219617486" lon="-4.637865023687482">
        <ele>1413.28</ele>
        <time>2025-04-29T08:10:13Z</time>
      </trkpt>
      <trkpt lat="42.910415008664131" lon="-4.637974994257093">
        <ele>1414.24</ele>
        <time>2025-04-29T08:10:14Z</time>
      </trkpt>
      <trkpt lat="42.910307971760631" lon="-4.638086976483464">
        <ele>1415.2</ele>
        <time>2025-04-29T08:10:15Z</time>
      </trkpt>
      <trkpt lat="42.910216022282839" lon="-4.63818303309381">
        <ele>1416.1600000000001</ele>
        <time>2025-04-29T08:10:16Z</time>
      </trkpt>
      <trkpt lat="42.91015500202775" lon="-4.638383025303483">
        <ele>1416.6400000000001</ele>
        <time>2025-04-29T08:10:17Z</time>
      </trkpt>
      <trkpt lat="42.910103034228086" lon="-4.638557033613324">
        <ele>1417.1199999999999</ele>
        <time>2025-04-29T08:10:18Z</time>
      </trkpt>
      <trkpt lat="42.910065986216068" lon="-4.638733975589275">
        <ele>1417.5999999999999</ele>
        <time>2025-04-29T08:10:19Z</time>
      </trkpt>
      <trkpt lat="42.910065986216068" lon="-4.638930028304458">
        <ele>1418.0799999999999</ele>
        <time>2025-04-29T08:10:20Z</time>
      </trkpt>
      <trkpt lat="42.910104040056467" lon="-4.63912901468575">
        <ele>1418.5599999999999</ele>
        <time>2025-04-29T08:10:21Z</time>
      </trkpt>
      <trkpt lat="42.91017503477633" lon="-4.639330012723804">
        <ele>1419.52</ele>
        <time>2025-04-29T08:10:22Z</time>
      </trkpt>
      <trkpt lat="42.910249968990684" lon="-4.639542996883392">
        <ele>1420</ele>
        <time>2025-04-29T08:10:23Z</time>
      </trkpt>
      <trkpt lat="42.910512993112206" lon="-4.640340032055974">
        <ele>1422.8900000000001</ele>
        <time>2025-04-29T08:10:27Z</time>
      </trkpt>
      <trkpt lat="42.910535037517548" lon="-4.640498030930758">
        <ele>1423.3699999999999</ele>
        <time>2025-04-29T08:10:28Z</time>
      </trkpt>
      <trkpt lat="42.910506036132574" lon="-4.640653012320399">
        <ele>1423.3699999999999</ele>
        <time>2025-04-29T08:10:29Z</time>
      </trkpt>
      <trkpt lat="42.910474017262459" lon="-4.640821991488338">
        <ele>1423.3699999999999</ele>
        <time>2025-04-29T08:10:30Z</time>
      </trkpt>
      <trkpt lat="42.910397993400693" lon="-4.640953000634909">
        <ele>1423.8499999999999</ele>
        <time>2025-04-29T08:10:31Z</time>
      </trkpt>
      <trkpt lat="42.910318030044436" lon="-4.641090966761112">
        <ele>1423.8499999999999</ele>
        <time>2025-04-29T08:10:32Z</time>
      </trkpt>
      <trkpt lat="42.910234965384007" lon="-4.64123304001987">
        <ele>1423.8499999999999</ele>
        <time>2025-04-29T08:10:33Z</time>
      </trkpt>
      <trkpt lat="42.910119965672493" lon="-4.641339993104339">
        <ele>1424.3299999999999</ele>
        <time>2025-04-29T08:10:34Z</time>
      </trkpt>
      <trkpt lat="42.910002032294869" lon="-4.64145096950233">
        <ele>1424.3299999999999</ele>
        <time>2025-04-29T08:10:35Z</time>
      </trkpt>
      <trkpt lat="42.909879991784692" lon="-4.641564963385463">
        <ele>1424.3299999999999</ele>
        <time>2025-04-29T08:10:36Z</time>
      </trkpt>
      <trkpt lat="42.9092510137707" lon="-4.642153037711978">
        <ele>1424.8099999999999</ele>
        <time>2025-04-29T08:10:42Z</time>
      </trkpt>
      <trkpt lat="42.909207008779049" lon="-4.642276000231504">
        <ele>1425.29</ele>
        <time>2025-04-29T08:10:43Z</time>
      </trkpt>
      <trkpt lat="42.909159986302257" lon="-4.642406003549695">
        <ele>1425.77</ele>
        <time>2025-04-29T08:10:44Z</time>
      </trkpt>
      <trkpt lat="42.909150011837482" lon="-4.642558973282576">
        <ele>1426.25</ele>
        <time>2025-04-29T08:10:45Z</time>
      </trkpt>
      <trkpt lat="42.909160992130637" lon="-4.642730969935656">
        <ele>1426.73</ele>
        <time>2025-04-29T08:10:46Z</time>
      </trkpt>
      <trkpt lat="42.909212959930301" lon="-4.642897015437484">
        <ele>1426.73</ele>
        <time>2025-04-29T08:10:47Z</time>
      </trkpt>
      <trkpt lat="42.909297030419111" lon="-4.643071023747325">
        <ele>1427.21</ele>
        <time>2025-04-29T08:10:48Z</time>
      </trkpt>
      <trkpt lat="42.909388979896903" lon="-4.643262969329953">
        <ele>1427.7</ele>
        <time>2025-04-29T08:10:49Z</time>
      </trkpt>
      <trkpt lat="42.909571034833789" lon="-4.64364099316299">
        <ele>1428.6600000000001</ele>
        <time>2025-04-29T08:10:51Z</time>
      </trkpt>
      <trkpt lat="42.909647980704904" lon="-4.643799997866154">
        <ele>1429.1400000000001</ele>
        <time>2025-04-29T08:10:52Z</time>
      </trkpt>
      <trkpt lat="42.909701038151979" lon="-4.643951039761305">
        <ele>1429.6199999999999</ele>
        <time>2025-04-29T08:10:53Z</time>
      </trkpt>
      <trkpt lat="42.909701038151979" lon="-4.644117001444101">
        <ele>1430.5799999999999</ele>
        <time>2025-04-29T08:10:54Z</time>
      </trkpt>
      <trkpt lat="42.909681005403399" lon="-4.644275000318885">
        <ele>1431.0599999999999</ele>
        <time>2025-04-29T08:10:55Z</time>
      </trkpt>
      <trkpt lat="42.909611016511917" lon="-4.644413972273469">
        <ele>1431.54</ele>
        <time>2025-04-29T08:10:56Z</time>
      </trkpt>
      <trkpt lat="42.909541027620435" lon="-4.644555039703846">
        <ele>1432.02</ele>
        <time>2025-04-29T08:10:57Z</time>
      </trkpt>
      <trkpt lat="42.909199967980385" lon="-4.645121991634369">
        <ele>1433.9400000000001</ele>
        <time>2025-04-29T08:11:02Z</time>
      </trkpt>
      <trkpt lat="42.909163003787398" lon="-4.645179994404316">
        <ele>1434.4200000000001</ele>
        <time>2025-04-29T08:11:03Z</time>
      </trkpt>
      <trkpt lat="42.909038029611111" lon="-4.645375041291118">
        <ele>1433.9400000000001</ele>
        <time>2025-04-29T08:11:11Z</time>
      </trkpt>
      <trkpt lat="42.908968962728977" lon="-4.645486017689109">
        <ele>1434.9100000000001</ele>
        <time>2025-04-29T08:11:19Z</time>
      </trkpt>
      <trkpt lat="42.908884976059198" lon="-4.645271021872759">
        <ele>1431.0599999999999</ele>
        <time>2025-04-29T08:15:43Z</time>
      </trkpt>
      <trkpt lat="42.908881036564708" lon="-4.645369006320834">
        <ele>1432.5</ele>
        <time>2025-04-29T08:16:31Z</time>
      </trkpt>
      <trkpt lat="42.908897968009114" lon="-4.645357020199299">
        <ele>1432.5</ele>
        <time>2025-04-29T08:17:30Z</time>
      </trkpt>
      <trkpt lat="42.908971980214119" lon="-4.645477971062064">
        <ele>1432.98</ele>
        <time>2025-04-29T08:17:49Z</time>
      </trkpt>
      <trkpt lat="42.908971980214119" lon="-4.645478976890445">
        <ele>1432.98</ele>
        <time>2025-04-29T08:17:50Z</time>
      </trkpt>
      <trkpt lat="42.90895001962781" lon="-4.645541002973914">
        <ele>1432.98</ele>
        <time>2025-04-29T08:17:51Z</time>
      </trkpt>
      <trkpt lat="42.90882202796638" lon="-4.645921960473061">
        <ele>1432.02</ele>
        <time>2025-04-29T08:17:59Z</time>
      </trkpt>
      <trkpt lat="42.90882202796638" lon="-4.646005025133491">
        <ele>1432.02</ele>
        <time>2025-04-29T08:18:00Z</time>
      </trkpt>
      <trkpt lat="42.90892998687923" lon="-4.647033987566829">
        <ele>1428.6600000000001</ele>
        <time>2025-04-29T08:18:07Z</time>
      </trkpt>
      <trkpt lat="42.909020008519292" lon="-4.647587025538087">
        <ele>1427.21</ele>
        <time>2025-04-29T08:18:10Z</time>
      </trkpt>
      <trkpt lat="42.909068036824465" lon="-4.64776698499918">
        <ele>1426.73</ele>
        <time>2025-04-29T08:18:11Z</time>
      </trkpt>
      <trkpt lat="42.909127967432141" lon="-4.647920038551092">
        <ele>1425.77</ele>
        <time>2025-04-29T08:18:12Z</time>
      </trkpt>
      <trkpt lat="42.909225029870868" lon="-4.648077031597495">
        <ele>1424.8099999999999</ele>
        <time>2025-04-29T08:18:13Z</time>
      </trkpt>
      <trkpt lat="42.909333994612098" lon="-4.64819798246026">
        <ele>1423.8499999999999</ele>
        <time>2025-04-29T08:18:14Z</time>
      </trkpt>
      <trkpt lat="42.909444971010089" lon="-4.648320022970438">
        <ele>1423.3699999999999</ele>
        <time>2025-04-29T08:18:15Z</time>
      </trkpt>
      <trkpt lat="42.909552007913589" lon="-4.648438962176442">
        <ele>1422.8900000000001</ele>
        <time>2025-04-29T08:18:16Z</time>
      </trkpt>
      <trkpt lat="42.909623002633452" lon="-4.648580029606819">
        <ele>1421.9300000000001</ele>
        <time>2025-04-29T08:18:17Z</time>
      </trkpt>
      <trkpt lat="42.909650998190045" lon="-4.6487329993397">
        <ele>1421.45</ele>
        <time>2025-04-29T08:18:18Z</time>
      </trkpt>
      <trkpt lat="42.909672958776355" lon="-4.648908013477922">
        <ele>1420.49</ele>
        <time>2025-04-29T08:18:19Z</time>
      </trkpt>
      <trkpt lat="42.909693997353315" lon="-4.649085039272904">
        <ele>1419.52</ele>
        <time>2025-04-29T08:18:20Z</time>
      </trkpt>
      <trkpt lat="42.909733979031444" lon="-4.649263992905617">
        <ele>1418.5599999999999</ele>
        <time>2025-04-29T08:18:21Z</time>
      </trkpt>
      <trkpt lat="42.909778989851475" lon="-4.649426015093923">
        <ele>1417.1199999999999</ele>
        <time>2025-04-29T08:18:22Z</time>
      </trkpt>
      <trkpt lat="42.909985017031431" lon="-4.649862041696906">
        <ele>1413.28</ele>
        <time>2025-04-29T08:18:25Z</time>
      </trkpt>
      <trkpt lat="42.910089958459139" lon="-4.649981986731291">
        <ele>1411.8299999999999</ele>
        <time>2025-04-29T08:18:26Z</time>
      </trkpt>
      <trkpt lat="42.910208981484175" lon="-4.65008600614965">
        <ele>1410.8699999999999</ele>
        <time>2025-04-29T08:18:27Z</time>
      </trkpt>
      <trkpt lat="42.910330016165972" lon="-4.650192959234119">
        <ele>1409.9100000000001</ele>
        <time>2025-04-29T08:18:28Z</time>
      </trkpt>
      <trkpt lat="42.910450967028737" lon="-4.650299996137619">
        <ele>1408.95</ele>
        <time>2025-04-29T08:18:29Z</time>
      </trkpt>
      <trkpt lat="42.910570995882154" lon="-4.650405021384358">
        <ele>1408.47</ele>
        <time>2025-04-29T08:18:30Z</time>
      </trkpt>
      <trkpt lat="42.910646013915539" lon="-4.650542987510562">
        <ele>1407.51</ele>
        <time>2025-04-29T08:18:31Z</time>
      </trkpt>
      <trkpt lat="42.910695970058441" lon="-4.65070802718401">
        <ele>1407.03</ele>
        <time>2025-04-29T08:18:32Z</time>
      </trkpt>
      <trkpt lat="42.910731006413698" lon="-4.650822021067143">
        <ele>1406.55</ele>
        <time>2025-04-29T08:18:33Z</time>
      </trkpt>
      <trkpt lat="42.910698987543583" lon="-4.650970967486501">
        <ele>1406.0699999999999</ele>
        <time>2025-04-29T08:18:34Z</time>
      </trkpt>
      <trkpt lat="42.910666968673468" lon="-4.651122009381652">
        <ele>1405.0999999999999</ele>
        <time>2025-04-29T08:18:35Z</time>
      </trkpt>
      <trkpt lat="42.910598991438746" lon="-4.651228962466121">
        <ele>1404.6199999999999</ele>
        <time>2025-04-29T08:18:36Z</time>
      </trkpt>
      <trkpt lat="42.910517016425729" lon="-4.651357959955931">
        <ele>1403.6600000000001</ele>
        <time>2025-04-29T08:18:37Z</time>
      </trkpt>
      <trkpt lat="42.910395981743932" lon="-4.651390984654427">
        <ele>1403.1800000000001</ele>
        <time>2025-04-29T08:18:38Z</time>
      </trkpt>
      <trkpt lat="42.910259021446109" lon="-4.651428032666445">
        <ele>1402.7</ele>
        <time>2025-04-29T08:18:39Z</time>
      </trkpt>
      <trkpt lat="42.910119965672493" lon="-4.651466002687812">
        <ele>1402.22</ele>
        <time>2025-04-29T08:18:40Z</time>
      </trkpt>
      <trkpt lat="42.909692991524935" lon="-4.651583014056087">
        <ele>1400.78</ele>
        <time>2025-04-29T08:18:43Z</time>
      </trkpt>
      <trkpt lat="42.909543039277196" lon="-4.65163498185575">
        <ele>1400.3</ele>
        <time>2025-04-29T08:18:44Z</time>
      </trkpt>
      <trkpt lat="42.909443965181708" lon="-4.651702037081122">
        <ele>1399.8199999999999</ele>
        <time>2025-04-29T08:18:45Z</time>
      </trkpt>
      <trkpt lat="42.909308010712266" lon="-4.651881996542215">
        <ele>1399.3399999999999</ele>
        <time>2025-04-29T08:18:46Z</time>
      </trkpt>
      <trkpt lat="42.909227041527629" lon="-4.652038989588618">
        <ele>1398.3699999999999</ele>
        <time>2025-04-29T08:18:47Z</time>
      </trkpt>
      <trkpt lat="42.909172978252172" lon="-4.652221966534853">
        <ele>1397.8900000000001</ele>
        <time>2025-04-29T08:18:48Z</time>
      </trkpt>
      <trkpt lat="42.909135008230805" lon="-4.652404021471739">
        <ele>1397.4100000000001</ele>
        <time>2025-04-29T08:18:49Z</time>
      </trkpt>
      <trkpt lat="42.909112041816115" lon="-4.652608036994934">
        <ele>1396.9300000000001</ele>
        <time>2025-04-29T08:18:50Z</time>
      </trkpt>
      <trkpt lat="42.909115981310606" lon="-4.652797970920801">
        <ele>1396.9300000000001</ele>
        <time>2025-04-29T08:18:51Z</time>
      </trkpt>
      <trkpt lat="42.909152023494244" lon="-4.652998968958855">
        <ele>1396.9300000000001</ele>
        <time>2025-04-29T08:18:52Z</time>
      </trkpt>
      <trkpt lat="42.909220000728965" lon="-4.653179012238979">
        <ele>1396.9300000000001</ele>
        <time>2025-04-29T08:18:53Z</time>
      </trkpt>
      <trkpt lat="42.909313039854169" lon="-4.653354026377201">
        <ele>1396.9300000000001</ele>
        <time>2025-04-29T08:18:54Z</time>
      </trkpt>
      <trkpt lat="42.909418987110257" lon="-4.653520993888378">
        <ele>1396.9300000000001</ele>
        <time>2025-04-29T08:18:55Z</time>
      </trkpt>
      <trkpt lat="42.909539015963674" lon="-4.653682010248303">
        <ele>1396.45</ele>
        <time>2025-04-29T08:18:56Z</time>
      </trkpt>
      <trkpt lat="42.910245023667812" lon="-4.654649030417204">
        <ele>1395.01</ele>
        <time>2025-04-29T08:19:02Z</time>
      </trkpt>
      <trkpt lat="42.910378966480494" lon="-4.654775010421872">
        <ele>1395.01</ele>
        <time>2025-04-29T08:19:03Z</time>
      </trkpt>
      <trkpt lat="42.910534031689167" lon="-4.654846005141735">
        <ele>1395.01</ele>
        <time>2025-04-29T08:19:04Z</time>
      </trkpt>
      <trkpt lat="42.910688007250428" lon="-4.65487701818347">
        <ele>1395.49</ele>
        <time>2025-04-29T08:19:05Z</time>
      </trkpt>
      <trkpt lat="42.910841982811689" lon="-4.654820021241903">
        <ele>1395.49</ele>
        <time>2025-04-29T08:19:06Z</time>
      </trkpt>
      <trkpt lat="42.910980032756925" lon="-4.654767969623208">
        <ele>1395.97</ele>
        <time>2025-04-29T08:19:07Z</time>
      </trkpt>
      <trkpt lat="42.911095032468438" lon="-4.654674008488655">
        <ele>1395.97</ele>
        <time>2025-04-29T08:19:08Z</time>
      </trkpt>
      <trkpt lat="42.911192011088133" lon="-4.654529001563788">
        <ele>1396.45</ele>
        <time>2025-04-29T08:19:09Z</time>
      </trkpt>
      <trkpt lat="42.911266023293138" lon="-4.654368991032243">
        <ele>1396.45</ele>
        <time>2025-04-29T08:19:10Z</time>
      </trkpt>
      <trkpt lat="42.911341041326523" lon="-4.654207974672318">
        <ele>1397.4100000000001</ele>
        <time>2025-04-29T08:19:11Z</time>
      </trkpt>
      <trkpt lat="42.911418993026018" lon="-4.65404000133276">
        <ele>1397.4100000000001</ele>
        <time>2025-04-29T08:19:12Z</time>
      </trkpt>
      <trkpt lat="42.911544973030686" lon="-4.653960959985852">
        <ele>1397.8900000000001</ele>
        <time>2025-04-29T08:19:13Z</time>
      </trkpt>
      <trkpt lat="42.911682017147541" lon="-4.653908992186189">
        <ele>1398.3699999999999</ele>
        <time>2025-04-29T08:19:14Z</time>
      </trkpt>
      <trkpt lat="42.911820989102125" lon="-4.653857024386525">
        <ele>1398.8599999999999</ele>
        <time>2025-04-29T08:19:15Z</time>
      </trkpt>
      <trkpt lat="42.91226196102798" lon="-4.65371897444129">
        <ele>1399.8199999999999</ele>
        <time>2025-04-29T08:19:18Z</time>
      </trkpt>
      <trkpt lat="42.912416020408273" lon="-4.65371897444129">
        <ele>1400.3</ele>
        <time>2025-04-29T08:19:19Z</time>
      </trkpt>
      <trkpt lat="42.912566978484392" lon="-4.65371897444129">
        <ele>1400.3</ele>
        <time>2025-04-29T08:19:20Z</time>
      </trkpt>
      <trkpt lat="42.912707040086389" lon="-4.653822993859649">
        <ele>1400.78</ele>
        <time>2025-04-29T08:19:21Z</time>
      </trkpt>
      <trkpt lat="42.912834025919437" lon="-4.653923995792866">
        <ele>1400.78</ele>
        <time>2025-04-29T08:19:22Z</time>
      </trkpt>
      <trkpt lat="42.912937039509416" lon="-4.654057016596198">
        <ele>1401.26</ele>
        <time>2025-04-29T08:19:23Z</time>
      </trkpt>
      <trkpt lat="42.913017002865672" lon="-4.654224989935756">
        <ele>1402.22</ele>
        <time>2025-04-29T08:19:24Z</time>
      </trkpt>
      <trkpt lat="42.91309897787869" lon="-4.654395980760455">
        <ele>1403.1800000000001</ele>
        <time>2025-04-29T08:19:25Z</time>
      </trkpt>
      <trkpt lat="42.91316200979054" lon="-4.654587004333735">
        <ele>1403.6600000000001</ele>
        <time>2025-04-29T08:19:26Z</time>
      </trkpt>
      <trkpt lat="42.913450011983514" lon="-4.655411029234529">
        <ele>1405.5799999999999</ele>
        <time>2025-04-29T08:19:30Z</time>
      </trkpt>
      <trkpt lat="42.913564005866647" lon="-4.655593000352383">
        <ele>1406.0699999999999</ele>
        <time>2025-04-29T08:19:31Z</time>
      </trkpt>
      <trkpt lat="42.913691997528076" lon="-4.655740018934012">
        <ele>1405.5799999999999</ele>
        <time>2025-04-29T08:19:32Z</time>
      </trkpt>
      <trkpt lat="42.913819989189506" lon="-4.655873039737344">
        <ele>1405.5799999999999</ele>
        <time>2025-04-29T08:19:33Z</time>
      </trkpt>
      <trkpt lat="42.913970025256276" lon="-4.655940011143684">
        <ele>1406.0699999999999</ele>
        <time>2025-04-29T08:19:34Z</time>
      </trkpt>
      <trkpt lat="42.914116038009524" lon="-4.655943028628826">
        <ele>1406.0699999999999</ele>
        <time>2025-04-29T08:19:35Z</time>
      </trkpt>
      <trkpt lat="42.914273031055927" lon="-4.655934982001782">
        <ele>1406.55</ele>
        <time>2025-04-29T08:19:36Z</time>
      </trkpt>
      <trkpt lat="42.914432035759091" lon="-4.655899023637176">
        <ele>1406.55</ele>
        <time>2025-04-29T08:19:37Z</time>
      </trkpt>
      <trkpt lat="42.914572013542056" lon="-4.655797015875578">
        <ele>1407.03</ele>
        <time>2025-04-29T08:19:38Z</time>
      </trkpt>
      <trkpt lat="42.914700005203485" lon="-4.655656032264233">
        <ele>1407.03</ele>
        <time>2025-04-29T08:19:39Z</time>
      </trkpt>
      <trkpt lat="42.914825985208154" lon="-4.655517982318997">
        <ele>1407.03</ele>
        <time>2025-04-29T08:19:40Z</time>
      </trkpt>
      <trkpt lat="42.914942996576428" lon="-4.655389990657568">
        <ele>1407.03</ele>
        <time>2025-04-29T08:19:41Z</time>
      </trkpt>
      <trkpt lat="42.91507501155138" lon="-4.65530700981617">
        <ele>1406.55</ele>
        <time>2025-04-29T08:19:42Z</time>
      </trkpt>
      <trkpt lat="42.915213983505964" lon="-4.655283959582448">
        <ele>1406.55</ele>
        <time>2025-04-29T08:19:43Z</time>
      </trkpt>
      <trkpt lat="42.915335018187761" lon="-4.655343974009156">
        <ele>1406.55</ele>
        <time>2025-04-29T08:19:44Z</time>
      </trkpt>
      <trkpt lat="42.915451023727655" lon="-4.655423015356064">
        <ele>1406.0699999999999</ele>
        <time>2025-04-29T08:19:45Z</time>
      </trkpt>
      <trkpt lat="42.915544984862208" lon="-4.655563998967409">
        <ele>1406.0699999999999</ele>
        <time>2025-04-29T08:19:46Z</time>
      </trkpt>
      <trkpt lat="42.915612040087581" lon="-4.655720992013812">
        <ele>1406.0699999999999</ele>
        <time>2025-04-29T08:19:47Z</time>
      </trkpt>
      <trkpt lat="42.915638023987412" lon="-4.655915033072233">
        <ele>1405.5799999999999</ele>
        <time>2025-04-29T08:19:48Z</time>
      </trkpt>
      <trkpt lat="42.915667025372386" lon="-4.656122988089919">
        <ele>1405.5799999999999</ele>
        <time>2025-04-29T08:19:49Z</time>
      </trkpt>
      <trkpt lat="42.91565403342247" lon="-4.656352987512946">
        <ele>1405.0999999999999</ele>
        <time>2025-04-29T08:19:50Z</time>
      </trkpt>
      <trkpt lat="42.915636012330651" lon="-4.656595978885889">
        <ele>1404.6199999999999</ele>
        <time>2025-04-29T08:19:51Z</time>
      </trkpt>
      <trkpt lat="42.915387991815805" lon="-4.658925980329514">
        <ele>1396.9300000000001</ele>
        <time>2025-04-29T08:19:59Z</time>
      </trkpt>
      <trkpt lat="42.91498901322484" lon="-4.66293596662581">
        <ele>1389.24</ele>
        <time>2025-04-29T08:20:12Z</time>
      </trkpt>
      <trkpt lat="42.914996976032853" lon="-4.663188010454178">
        <ele>1389.72</ele>
        <time>2025-04-29T08:20:13Z</time>
      </trkpt>
      <trkpt lat="42.915040981024504" lon="-4.663431001827121">
        <ele>1390.2</ele>
        <time>2025-04-29T08:20:14Z</time>
      </trkpt>
      <trkpt lat="42.915104012936354" lon="-4.663677010685206">
        <ele>1390.6800000000001</ele>
        <time>2025-04-29T08:20:15Z</time>
      </trkpt>
      <trkpt lat="42.915189005434513" lon="-4.663924025371671">
        <ele>1390.6800000000001</ele>
        <time>2025-04-29T08:20:16Z</time>
      </trkpt>
      <trkpt lat="42.915273997932673" lon="-4.664171040058136">
        <ele>1390.6800000000001</ele>
        <time>2025-04-29T08:20:17Z</time>
      </trkpt>
      <trkpt lat="42.915941029787064" lon="-4.666055962443352">
        <ele>1384.9200000000001</ele>
        <time>2025-04-29T08:20:26Z</time>
      </trkpt>
      <trkpt lat="42.916503958404064" lon="-4.667611978948116">
        <ele>1380.5899999999999</ele>
        <time>2025-04-29T08:20:35Z</time>
      </trkpt>
      <trkpt lat="42.916575036942959" lon="-4.667734019458294">
        <ele>1380.1099999999999</ele>
        <time>2025-04-29T08:20:36Z</time>
      </trkpt>
      <trkpt lat="42.916649971157312" lon="-4.667823035269976">
        <ele>1379.6300000000001</ele>
        <time>2025-04-29T08:20:37Z</time>
      </trkpt>
      <trkpt lat="42.916744016110897" lon="-4.667890006676316">
        <ele>1379.1500000000001</ele>
        <time>2025-04-29T08:20:38Z</time>
      </trkpt>
      <trkpt lat="42.916855998337269" lon="-4.667878020554781">
        <ele>1378.6700000000001</ele>
        <time>2025-04-29T08:20:39Z</time>
      </trkpt>
      <trkpt lat="42.916969992220402" lon="-4.667837033048272">
        <ele>1377.71</ele>
        <time>2025-04-29T08:20:40Z</time>
      </trkpt>
      <trkpt lat="42.917092032730579" lon="-4.667765032500029">
        <ele>1377.23</ele>
        <time>2025-04-29T08:20:41Z</time>
      </trkpt>
      <trkpt lat="42.917213989421725" lon="-4.667692026123405">
        <ele>1376.26</ele>
        <time>2025-04-29T08:20:42Z</time>
      </trkpt>
      <trkpt lat="42.917347010225058" lon="-4.667612984776497">
        <ele>1375.3</ele>
        <time>2025-04-29T08:20:43Z</time>
      </trkpt>
      <trkpt lat="42.917757974937558" lon="-4.667367981746793">
        <ele>1372.9000000000001</ele>
        <time>2025-04-29T08:20:46Z</time>
      </trkpt>
      <trkpt lat="42.917892001569271" lon="-4.667322970926762">
        <ele>1372.4200000000001</ele>
        <time>2025-04-29T08:20:47Z</time>
      </trkpt>
      <trkpt lat="42.918014964088798" lon="-4.667366975918412">
        <ele>1371.46</ele>
        <time>2025-04-29T08:20:48Z</time>
      </trkpt>
      <trkpt lat="42.918127030134201" lon="-4.667434031143785">
        <ele>1370.98</ele>
        <time>2025-04-29T08:20:49Z</time>
      </trkpt>
      <trkpt lat="42.918207999318838" lon="-4.667540984228253">
        <ele>1370.02</ele>
        <time>2025-04-29T08:20:50Z</time>
      </trkpt>
      <trkpt lat="42.918284023180604" lon="-4.667671993374825">
        <ele>1369.54</ele>
        <time>2025-04-29T08:20:51Z</time>
      </trkpt>
      <trkpt lat="42.918324004858732" lon="-4.667838038876653">
        <ele>1369.05</ele>
        <time>2025-04-29T08:20:52Z</time>
      </trkpt>
      <trkpt lat="42.918339008465409" lon="-4.668024033308029">
        <ele>1368.5699999999999</ele>
        <time>2025-04-29T08:20:53Z</time>
      </trkpt>
      <trkpt lat="42.918353006243706" lon="-4.668216984719038">
        <ele>1367.6099999999999</ele>
        <time>2025-04-29T08:20:54Z</time>
      </trkpt>
      <trkpt lat="42.918468005955219" lon="-4.669065987691283">
        <ele>1364.25</ele>
        <time>2025-04-29T08:20:58Z</time>
      </trkpt>
      <trkpt lat="42.918527014553547" lon="-4.669291041791439">
        <ele>1362.8099999999999</ele>
        <time>2025-04-29T08:20:59Z</time>
      </trkpt>
      <trkpt lat="42.918611001223326" lon="-4.669500002637506">
        <ele>1361.8399999999999</ele>
        <time>2025-04-29T08:21:00Z</time>
      </trkpt>
      <trkpt lat="42.919191028922796" lon="-4.671027017757297">
        <ele>1352.71</ele>
        <time>2025-04-29T08:21:07Z</time>
      </trkpt>
      <trkpt lat="42.919193962588906" lon="-4.671232961118221">
        <ele>1352.23</ele>
        <time>2025-04-29T08:21:08Z</time>
      </trkpt>
      <trkpt lat="42.919173007830977" lon="-4.671456003561616">
        <ele>1351.27</ele>
        <time>2025-04-29T08:21:09Z</time>
      </trkpt>
      <trkpt lat="42.919080974534154" lon="-4.672399973496795">
        <ele>1348.3900000000001</ele>
        <time>2025-04-29T08:21:13Z</time>
      </trkpt>
      <trkpt lat="42.919058008119464" lon="-4.672635002061725">
        <ele>1346.9400000000001</ele>
        <time>2025-04-29T08:21:14Z</time>
      </trkpt>
      <trkpt lat="42.919106036424637" lon="-4.672872964292765">
        <ele>1345.98</ele>
        <time>2025-04-29T08:21:15Z</time>
      </trkpt>
      <trkpt lat="42.9191580042243" lon="-4.673114027827978">
        <ele>1345.02</ele>
        <time>2025-04-29T08:21:16Z</time>
      </trkpt>
      <trkpt lat="42.919210977852345" lon="-4.673359030857682">
        <ele>1343.5799999999999</ele>
        <time>2025-04-29T08:21:17Z</time>
      </trkpt>
      <trkpt lat="42.91939596645534" lon="-4.674350023269653">
        <ele>1338.77</ele>
        <time>2025-04-29T08:21:21Z</time>
      </trkpt>
      <trkpt lat="42.919417005032301" lon="-4.674592008814216">
        <ele>1337.8099999999999</ele>
        <time>2025-04-29T08:21:22Z</time>
      </trkpt>
      <trkpt lat="42.919384986162186" lon="-4.674835000187159">
        <ele>1336.8499999999999</ele>
        <time>2025-04-29T08:21:23Z</time>
      </trkpt>
      <trkpt lat="42.919255988672376" lon="-4.676097985357046">
        <ele>1331.0799999999999</ele>
        <time>2025-04-29T08:21:28Z</time>
      </trkpt>
      <trkpt lat="42.919262023642659" lon="-4.676356986165047">
        <ele>1329.6400000000001</ele>
        <time>2025-04-29T08:21:29Z</time>
      </trkpt>
      <trkpt lat="42.919268980622292" lon="-4.676617998629808">
        <ele>1328.2</ele>
        <time>2025-04-29T08:21:30Z</time>
      </trkpt>
      <trkpt lat="42.919311979785562" lon="-4.676870964467526">
        <ele>1326.76</ele>
        <time>2025-04-29T08:21:31Z</time>
      </trkpt>
      <trkpt lat="42.919369982555509" lon="-4.67711697332561">
        <ele>1325.3099999999999</ele>
        <time>2025-04-29T08:21:32Z</time>
      </trkpt>
      <trkpt lat="42.91969696059823" lon="-4.678497975692153">
        <ele>1318.0999999999999</ele>
        <time>2025-04-29T08:21:38Z</time>
      </trkpt>
      <trkpt lat="42.919743983075023" lon="-4.678695034235716">
        <ele>1316.6600000000001</ele>
        <time>2025-04-29T08:21:39Z</time>
      </trkpt>
      <trkpt lat="42.919832998886704" lon="-4.678810033947229">
        <ele>1315.22</ele>
        <time>2025-04-29T08:21:40Z</time>
      </trkpt>
      <trkpt lat="42.919935006648302" lon="-4.678894020617008">
        <ele>1314.74</ele>
        <time>2025-04-29T08:21:41Z</time>
      </trkpt>
      <trkpt lat="42.920040031895041" lon="-4.678909024223685">
        <ele>1313.78</ele>
        <time>2025-04-29T08:21:42Z</time>
      </trkpt>
      <trkpt lat="42.920137010514736" lon="-4.678868036717176">
        <ele>1312.8199999999999</ele>
        <time>2025-04-29T08:21:43Z</time>
      </trkpt>
      <trkpt lat="42.920244969427586" lon="-4.678816990926862">
        <ele>1311.8599999999999</ele>
        <time>2025-04-29T08:21:44Z</time>
      </trkpt>
      <trkpt lat="42.920355023816228" lon="-4.678723029792309">
        <ele>1311.3800000000001</ele>
        <time>2025-04-29T08:21:45Z</time>
      </trkpt>
      <trkpt lat="42.921143006533384" lon="-4.678100002929568">
        <ele>1306.0899999999999</ele>
        <time>2025-04-29T08:21:51Z</time>
      </trkpt>
      <trkpt lat="42.921288013458252" lon="-4.678051974624395">
        <ele>1305.1300000000001</ele>
        <time>2025-04-29T08:21:52Z</time>
      </trkpt>
      <trkpt lat="42.921427991241217" lon="-4.678008975461125">
        <ele>1304.1700000000001</ele>
        <time>2025-04-29T08:21:53Z</time>
      </trkpt>
      <trkpt lat="42.921567969024181" lon="-4.678019033744931">
        <ele>1303.2</ele>
        <time>2025-04-29T08:21:54Z</time>
      </trkpt>
      <trkpt lat="42.921705013141036" lon="-4.678028002381325">
        <ele>1302.24</ele>
        <time>2025-04-29T08:21:55Z</time>
      </trkpt>
      <trkpt lat="42.921836022287607" lon="-4.678089022636414">
        <ele>1301.28</ele>
        <time>2025-04-29T08:21:56Z</time>
      </trkpt>
      <trkpt lat="42.921956973150373" lon="-4.678163034841418">
        <ele>1300.3199999999999</ele>
        <time>2025-04-29T08:21:57Z</time>
      </trkpt>
      <trkpt lat="42.922070967033505" lon="-4.678233023732901">
        <ele>1299.3599999999999</ele>
        <time>2025-04-29T08:21:58Z</time>
      </trkpt>
      <trkpt lat="42.922173980623484" lon="-4.678322039544582">
        <ele>1298.4000000000001</ele>
        <time>2025-04-29T08:21:59Z</time>
      </trkpt>
      <trkpt lat="42.922264002263546" lon="-4.67842597514391">
        <ele>1297.9200000000001</ele>
        <time>2025-04-29T08:22:00Z</time>
      </trkpt>
      <trkpt lat="42.922354023903608" lon="-4.678528988733888">
        <ele>1297.4400000000001</ele>
        <time>2025-04-29T08:22:01Z</time>
      </trkpt>
      <trkpt lat="42.922442033886909" lon="-4.678635019809008">
        <ele>1296.96</ele>
        <time>2025-04-29T08:22:02Z</time>
      </trkpt>
      <trkpt lat="42.923265974968672" lon="-4.679765990003943">
        <ele>1295.99</ele>
        <time>2025-04-29T08:22:13Z</time>
      </trkpt>
      <trkpt lat="42.923316014930606" lon="-4.679862968623638">
        <ele>1295.99</ele>
        <time>2025-04-29T08:22:14Z</time>
      </trkpt>
      <trkpt lat="42.923360019922256" lon="-4.679966988041997">
        <ele>1295.99</ele>
        <time>2025-04-29T08:22:15Z</time>
      </trkpt>
      <trkpt lat="42.923406958580017" lon="-4.680076036602259">
        <ele>1295.99</ele>
        <time>2025-04-29T08:22:16Z</time>
      </trkpt>
      <trkpt lat="42.923417016863823" lon="-4.680204028263688">
        <ele>1295.99</ele>
        <time>2025-04-29T08:22:17Z</time>
      </trkpt>
      <trkpt lat="42.923422968015075" lon="-4.680337971076369">
        <ele>1295.99</ele>
        <time>2025-04-29T08:22:18Z</time>
      </trkpt>
      <trkpt lat="42.923427997156978" lon="-4.680479038506746">
        <ele>1295.99</ele>
        <time>2025-04-29T08:22:19Z</time>
      </trkpt>
      <trkpt lat="42.923433026298881" lon="-4.680627984926105">
        <ele>1295.99</ele>
        <time>2025-04-29T08:22:20Z</time>
      </trkpt>
      <trkpt lat="42.923378963023424" lon="-4.680752959102392">
        <ele>1295.99</ele>
        <time>2025-04-29T08:22:21Z</time>
      </trkpt>
      <trkpt lat="42.923326995223761" lon="-4.680872987955809">
        <ele>1295.99</ele>
        <time>2025-04-29T08:22:22Z</time>
      </trkpt>
      <trkpt lat="42.923275027424097" lon="-4.680994022637606">
        <ele>1295.99</ele>
        <time>2025-04-29T08:22:23Z</time>
      </trkpt>
      <trkpt lat="42.922919970005751" lon="-4.681718973442912">
        <ele>1295.99</ele>
        <time>2025-04-29T08:22:29Z</time>
      </trkpt>
      <trkpt lat="42.922716960310936" lon="-4.682438978925347">
        <ele>1295.99</ele>
        <time>2025-04-29T08:22:34Z</time>
      </trkpt>
      <trkpt lat="42.922664992511272" lon="-4.682579040527344">
        <ele>1295.51</ele>
        <time>2025-04-29T08:22:35Z</time>
      </trkpt>
      <trkpt lat="42.921996032819152" lon="-4.683911008760333">
        <ele>1293.1099999999999</ele>
        <time>2025-04-29T08:22:45Z</time>
      </trkpt>
      <trkpt lat="42.921518012881279" lon="-4.684688011184335">
        <ele>1293.1099999999999</ele>
        <time>2025-04-29T08:22:51Z</time>
      </trkpt>
      <trkpt lat="42.921411981806159" lon="-4.684794964268804">
        <ele>1292.6300000000001</ele>
        <time>2025-04-29T08:22:52Z</time>
      </trkpt>
      <trkpt lat="42.919987980276346" lon="-4.686119975522161">
        <ele>1293.1099999999999</ele>
        <time>2025-04-29T08:23:04Z</time>
      </trkpt>
      <trkpt lat="42.91847001761198" lon="-4.687518998980522">
        <ele>1293.1099999999999</ele>
        <time>2025-04-29T08:23:15Z</time>
      </trkpt>
      <trkpt lat="42.917375005781651" lon="-4.688462968915701">
        <ele>1295.03</ele>
        <time>2025-04-29T08:23:22Z</time>
      </trkpt>
      <trkpt lat="42.917218012735248" lon="-4.688552990555763">
        <ele>1295.03</ele>
        <time>2025-04-29T08:23:23Z</time>
      </trkpt>
      <trkpt lat="42.917071999981999" lon="-4.688632031902671">
        <ele>1295.51</ele>
        <time>2025-04-29T08:23:24Z</time>
      </trkpt>
      <trkpt lat="42.916903020814061" lon="-4.688662961125374">
        <ele>1295.99</ele>
        <time>2025-04-29T08:23:25Z</time>
      </trkpt>
      <trkpt lat="42.916734041646123" lon="-4.688662039116025">
        <ele>1295.99</ele>
        <time>2025-04-29T08:23:26Z</time>
      </trkpt>
      <trkpt lat="42.916566990315914" lon="-4.688646029680967">
        <ele>1296.48</ele>
        <time>2025-04-29T08:23:27Z</time>
      </trkpt>
      <trkpt lat="42.91640798561275" lon="-4.68863102607429">
        <ele>1296.48</ele>
        <time>2025-04-29T08:23:28Z</time>
      </trkpt>
      <trkpt lat="42.916249986737967" lon="-4.688615016639233">
        <ele>1296.96</ele>
        <time>2025-04-29T08:23:29Z</time>
      </trkpt>
      <trkpt lat="42.916091987863183" lon="-4.688658015802503">
        <ele>1297.4400000000001</ele>
        <time>2025-04-29T08:23:30Z</time>
      </trkpt>
      <trkpt lat="42.915939018130302" lon="-4.688742002472282">
        <ele>1297.4400000000001</ele>
        <time>2025-04-29T08:23:31Z</time>
      </trkpt>
      <trkpt lat="42.914524991065264" lon="-4.68955596908927">
        <ele>1298.4000000000001</ele>
        <time>2025-04-29T08:23:39Z</time>
      </trkpt>
      <trkpt lat="42.912830002605915" lon="-4.690699009224773">
        <ele>1298.4000000000001</ele>
        <time>2025-04-29T08:23:48Z</time>
      </trkpt>
      <trkpt lat="42.912683989852667" lon="-4.69086698256433">
        <ele>1297.9200000000001</ele>
        <time>2025-04-29T08:23:49Z</time>
      </trkpt>
      <trkpt lat="42.912547029554844" lon="-4.691049959510565">
        <ele>1297.9200000000001</ele>
        <time>2025-04-29T08:23:50Z</time>
      </trkpt>
      <trkpt lat="42.912440998479724" lon="-4.691262021660805">
        <ele>1297.4400000000001</ele>
        <time>2025-04-29T08:23:51Z</time>
      </trkpt>
      <trkpt lat="42.912373021245003" lon="-4.691495038568974">
        <ele>1297.4400000000001</ele>
        <time>2025-04-29T08:23:52Z</time>
      </trkpt>
      <trkpt lat="42.912312000989914" lon="-4.691729983314872">
        <ele>1296.96</ele>
        <time>2025-04-29T08:23:53Z</time>
      </trkpt>
      <trkpt lat="42.912280987948179" lon="-4.691959982737899">
        <ele>1296.96</ele>
        <time>2025-04-29T08:23:54Z</time>
      </trkpt>
      <trkpt lat="42.91226003319025" lon="-4.692183025181294">
        <ele>1296.48</ele>
        <time>2025-04-29T08:23:55Z</time>
      </trkpt>
      <trkpt lat="42.912241006270051" lon="-4.692387962713838">
        <ele>1296.48</ele>
        <time>2025-04-29T08:23:56Z</time>
      </trkpt>
      <trkpt lat="42.912191972136497" lon="-4.692569011822343">
        <ele>1296.48</ele>
        <time>2025-04-29T08:23:57Z</time>
      </trkpt>
      <trkpt lat="42.91208703070879" lon="-4.692687029018998">
        <ele>1296.48</ele>
        <time>2025-04-29T08:23:58Z</time>
      </trkpt>
      <trkpt lat="42.911970019340515" lon="-4.692779984325171">
        <ele>1295.99</ele>
        <time>2025-04-29T08:23:59Z</time>
      </trkpt>
      <trkpt lat="42.911846973001957" lon="-4.692784007638693">
        <ele>1295.99</ele>
        <time>2025-04-29T08:24:00Z</time>
      </trkpt>
      <trkpt lat="42.911713030189276" lon="-4.692773027345538">
        <ele>1295.99</ele>
        <time>2025-04-29T08:24:01Z</time>
      </trkpt>
      <trkpt lat="42.91159501299262" lon="-4.692704966291785">
        <ele>1295.99</ele>
        <time>2025-04-29T08:24:02Z</time>
      </trkpt>
      <trkpt lat="42.911459980532527" lon="-4.692616034299135">
        <ele>1295.51</ele>
        <time>2025-04-29T08:24:03Z</time>
      </trkpt>
      <trkpt lat="42.911316985264421" lon="-4.692522995173931">
        <ele>1295.51</ele>
        <time>2025-04-29T08:24:04Z</time>
      </trkpt>
      <trkpt lat="42.911170972511172" lon="-4.692427022382617">
        <ele>1295.51</ele>
        <time>2025-04-29T08:24:05Z</time>
      </trkpt>
      <trkpt lat="42.911010961979628" lon="-4.692353010177612">
        <ele>1295.03</ele>
        <time>2025-04-29T08:24:06Z</time>
      </trkpt>
      <trkpt lat="42.910841982811689" lon="-4.692282015457749">
        <ele>1295.03</ele>
        <time>2025-04-29T08:24:07Z</time>
      </trkpt>
      <trkpt lat="42.910667974501848" lon="-4.692233987152576">
        <ele>1295.03</ele>
        <time>2025-04-29T08:24:08Z</time>
      </trkpt>
      <trkpt lat="42.910487009212375" lon="-4.692229041829705">
        <ele>1294.55</ele>
        <time>2025-04-29T08:24:09Z</time>
      </trkpt>
      <trkpt lat="42.910301014780998" lon="-4.692225018516183">
        <ele>1294.55</ele>
        <time>2025-04-29T08:24:10Z</time>
      </trkpt>
      <trkpt lat="42.910118959844112" lon="-4.692220995202661">
        <ele>1294.0699999999999</ele>
        <time>2025-04-29T08:24:11Z</time>
      </trkpt>
      <trkpt lat="42.909787036478519" lon="-4.692233987152576">
        <ele>1294.0699999999999</ele>
        <time>2025-04-29T08:24:13Z</time>
      </trkpt>
      <trkpt lat="42.909643035382032" lon="-4.692300036549568">
        <ele>1293.5899999999999</ele>
        <time>2025-04-29T08:24:14Z</time>
      </trkpt>
      <trkpt lat="42.909518983215094" lon="-4.692397015169263">
        <ele>1293.5899999999999</ele>
        <time>2025-04-29T08:24:15Z</time>
      </trkpt>
      <trkpt lat="42.909428039565682" lon="-4.692554008215666">
        <ele>1293.5899999999999</ele>
        <time>2025-04-29T08:24:16Z</time>
      </trkpt>
      <trkpt lat="42.90936098434031" lon="-4.692719969898462">
        <ele>1293.1099999999999</ele>
        <time>2025-04-29T08:24:17Z</time>
      </trkpt>
      <trkpt lat="42.909294012933969" lon="-4.692921973764896">
        <ele>1293.5899999999999</ele>
        <time>2025-04-29T08:24:18Z</time>
      </trkpt>
      <trkpt lat="42.909281020984054" lon="-4.693107968196273">
        <ele>1294.0699999999999</ele>
        <time>2025-04-29T08:24:19Z</time>
      </trkpt>
      <trkpt lat="42.909267023205757" lon="-4.693317012861371">
        <ele>1295.03</ele>
        <time>2025-04-29T08:24:20Z</time>
      </trkpt>
      <trkpt lat="42.90912201628089" lon="-4.695605020970106">
        <ele>1299.8399999999999</ele>
        <time>2025-04-29T08:24:29Z</time>
      </trkpt>
      <trkpt lat="42.90901699103415" lon="-4.698096038773656">
        <ele>1304.1700000000001</ele>
        <time>2025-04-29T08:24:38Z</time>
      </trkpt>
      <trkpt lat="42.909041969105601" lon="-4.698349004611373">
        <ele>1304.1700000000001</ele>
        <time>2025-04-29T08:24:39Z</time>
      </trkpt>
      <trkpt lat="42.909114975482225" lon="-4.698586966842413">
        <ele>1303.6900000000001</ele>
        <time>2025-04-29T08:24:40Z</time>
      </trkpt>
      <trkpt lat="42.909189993515611" lon="-4.698829036206007">
        <ele>1303.2</ele>
        <time>2025-04-29T08:24:41Z</time>
      </trkpt>
      <trkpt lat="42.909305999055505" lon="-4.699049983173609">
        <ele>1302.72</ele>
        <time>2025-04-29T08:24:42Z</time>
      </trkpt>
      <trkpt lat="42.909433990716934" lon="-4.699261961504817">
        <ele>1302.24</ele>
        <time>2025-04-29T08:24:43Z</time>
      </trkpt>
      <trkpt lat="42.91051902808249" lon="-4.701090976595879">
        <ele>1295.99</ele>
        <time>2025-04-29T08:24:52Z</time>
      </trkpt>
      <trkpt lat="42.910565966740251" lon="-4.701271019876003">
        <ele>1295.99</ele>
        <time>2025-04-29T08:24:53Z</time>
      </trkpt>
      <trkpt lat="42.910578036680818" lon="-4.701447039842606">
        <ele>1295.99</ele>
        <time>2025-04-29T08:24:54Z</time>
      </trkpt>
      <trkpt lat="42.910544006153941" lon="-4.701603027060628">
        <ele>1295.99</ele>
        <time>2025-04-29T08:24:55Z</time>
      </trkpt>
      <trkpt lat="42.910493966192007" lon="-4.701762031763792">
        <ele>1296.48</ele>
        <time>2025-04-29T08:24:56Z</time>
      </trkpt>
      <trkpt lat="42.910405034199357" lon="-4.701882982626557">
        <ele>1296.48</ele>
        <time>2025-04-29T08:24:57Z</time>
      </trkpt>
      <trkpt lat="42.910293973982334" lon="-4.701974010095">
        <ele>1296.96</ele>
        <time>2025-04-29T08:24:58Z</time>
      </trkpt>
      <trkpt lat="42.910164976492524" lon="-4.702010974287987">
        <ele>1296.96</ele>
        <time>2025-04-29T08:24:59Z</time>
      </trkpt>
      <trkpt lat="42.910023992881179" lon="-4.701993959024549">
        <ele>1297.4400000000001</ele>
        <time>2025-04-29T08:25:00Z</time>
      </trkpt>
      <trkpt lat="42.90987404063344" lon="-4.701975015923381">
        <ele>1297.9200000000001</ele>
        <time>2025-04-29T08:25:01Z</time>
      </trkpt>
      <trkpt lat="42.908540982753038" lon="-4.701992031186819">
        <ele>1301.76</ele>
        <time>2025-04-29T08:25:09Z</time>
      </trkpt>
      <trkpt lat="42.908388013020158" lon="-4.702064031735063">
        <ele>1301.76</ele>
        <time>2025-04-29T08:25:10Z</time>
      </trkpt>
      <trkpt lat="42.908273013308644" lon="-4.702170984819531">
        <ele>1301.76</ele>
        <time>2025-04-29T08:25:11Z</time>
      </trkpt>
      <trkpt lat="42.908168993890285" lon="-4.702267041429877">
        <ele>1301.76</ele>
        <time>2025-04-29T08:25:12Z</time>
      </trkpt>
      <trkpt lat="42.908103028312325" lon="-4.702386986464262">
        <ele>1301.28</ele>
        <time>2025-04-29T08:25:13Z</time>
      </trkpt>
      <trkpt lat="42.908053994178772" lon="-4.702522018924356">
        <ele>1301.28</ele>
        <time>2025-04-29T08:25:14Z</time>
      </trkpt>
      <trkpt lat="42.908036978915334" lon="-4.702673982828856">
        <ele>1301.28</ele>
        <time>2025-04-29T08:25:15Z</time>
      </trkpt>
      <trkpt lat="42.908045025542378" lon="-4.702831981703639">
        <ele>1300.8</ele>
        <time>2025-04-29T08:25:16Z</time>
      </trkpt>
      <trkpt lat="42.908102022483945" lon="-4.702974976971746">
        <ele>1300.8</ele>
        <time>2025-04-29T08:25:17Z</time>
      </trkpt>
      <trkpt lat="42.908181985840201" lon="-4.7031120210886">
        <ele>1300.3199999999999</ele>
        <time>2025-04-29T08:25:18Z</time>
      </trkpt>
      <trkpt lat="42.908278964459896" lon="-4.703227020800114">
        <ele>1299.8399999999999</ele>
        <time>2025-04-29T08:25:19Z</time>
      </trkpt>
      <trkpt lat="42.908398993313313" lon="-4.70332701690495">
        <ele>1299.3599999999999</ele>
        <time>2025-04-29T08:25:20Z</time>
      </trkpt>
      <trkpt lat="42.9092510137707" lon="-4.70403696410358">
        <ele>1297.4400000000001</ele>
        <time>2025-04-29T08:25:26Z</time>
      </trkpt>
      <trkpt lat="42.909366013482213" lon="-4.704214995726943">
        <ele>1297.4400000000001</ele>
        <time>2025-04-29T08:25:27Z</time>
      </trkpt>
      <trkpt lat="42.909483024850488" lon="-4.704395039007068">
        <ele>1296.96</ele>
        <time>2025-04-29T08:25:28Z</time>
      </trkpt>
      <trkpt lat="42.909701960161328" lon="-4.704731991514564">
        <ele>1295.99</ele>
        <time>2025-04-29T08:25:30Z</time>
      </trkpt>
      <trkpt lat="42.909825006499887" lon="-4.704878004267812">
        <ele>1295.99</ele>
        <time>2025-04-29T08:25:31Z</time>
      </trkpt>
      <trkpt lat="42.909964984282851" lon="-4.704987974837422">
        <ele>1295.99</ele>
        <time>2025-04-29T08:25:32Z</time>
      </trkpt>
      <trkpt lat="42.910099010914564" lon="-4.705093000084162">
        <ele>1295.51</ele>
        <time>2025-04-29T08:25:33Z</time>
      </trkpt>
      <trkpt lat="42.910204958170652" lon="-4.705203976482153">
        <ele>1295.51</ele>
        <time>2025-04-29T08:25:34Z</time>
      </trkpt>
      <trkpt lat="42.910285005345941" lon="-4.705338003113866">
        <ele>1295.51</ele>
        <time>2025-04-29T08:25:35Z</time>
      </trkpt>
      <trkpt lat="42.910310989245772" lon="-4.705491978675127">
        <ele>1295.03</ele>
        <time>2025-04-29T08:25:36Z</time>
      </trkpt>
      <trkpt lat="42.910323981195688" lon="-4.705667998641729">
        <ele>1295.03</ele>
        <time>2025-04-29T08:25:37Z</time>
      </trkpt>
      <trkpt lat="42.910294979810715" lon="-4.705823985859752">
        <ele>1295.51</ele>
        <time>2025-04-29T08:25:38Z</time>
      </trkpt>
      <trkpt lat="42.910233959555626" lon="-4.705977961421013">
        <ele>1295.99</ele>
        <time>2025-04-29T08:25:39Z</time>
      </trkpt>
      <trkpt lat="42.910136980935931" lon="-4.706103019416332">
        <ele>1296.96</ele>
        <time>2025-04-29T08:25:40Z</time>
      </trkpt>
      <trkpt lat="42.910024998709559" lon="-4.706187006086111">
        <ele>1297.4400000000001</ele>
        <time>2025-04-29T08:25:41Z</time>
      </trkpt>
      <trkpt lat="42.909891977906227" lon="-4.706238973885775">
        <ele>1297.9200000000001</ele>
        <time>2025-04-29T08:25:42Z</time>
      </trkpt>
      <trkpt lat="42.909752000123262" lon="-4.706283984705806">
        <ele>1298.8800000000001</ele>
        <time>2025-04-29T08:25:43Z</time>
      </trkpt>
      <trkpt lat="42.909348998218775" lon="-4.706449024379253">
        <ele>1300.8</ele>
        <time>2025-04-29T08:25:46Z</time>
      </trkpt>
      <trkpt lat="42.909244978800416" lon="-4.706556983292103">
        <ele>1301.28</ele>
        <time>2025-04-29T08:25:47Z</time>
      </trkpt>
      <trkpt lat="42.909154035151005" lon="-4.706698972731829">
        <ele>1301.76</ele>
        <time>2025-04-29T08:25:48Z</time>
      </trkpt>
      <trkpt lat="42.909088991582394" lon="-4.706885972991586">
        <ele>1301.76</ele>
        <time>2025-04-29T08:25:49Z</time>
      </trkpt>
      <trkpt lat="42.909065019339323" lon="-4.7070889826864">
        <ele>1302.24</ele>
        <time>2025-04-29T08:25:50Z</time>
      </trkpt>
      <trkpt lat="42.909057978540659" lon="-4.707299033179879">
        <ele>1302.72</ele>
        <time>2025-04-29T08:25:51Z</time>
      </trkpt>
      <trkpt lat="42.909083962440491" lon="-4.707506988197565">
        <ele>1302.72</ele>
        <time>2025-04-29T08:25:52Z</time>
      </trkpt>
      <trkpt lat="42.90914598852396" lon="-4.707691976800561">
        <ele>1302.72</ele>
        <time>2025-04-29T08:25:53Z</time>
      </trkpt>
      <trkpt lat="42.90920902043581" lon="-4.707880988717079">
        <ele>1302.72</ele>
        <time>2025-04-29T08:25:54Z</time>
      </trkpt>
      <trkpt lat="42.909461986273527" lon="-4.708639970049262">
        <ele>1302.72</ele>
        <time>2025-04-29T08:25:58Z</time>
      </trkpt>
      <trkpt lat="42.909465003758669" lon="-4.708815990015864">
        <ele>1303.2</ele>
        <time>2025-04-29T08:25:59Z</time>
      </trkpt>
      <trkpt lat="42.909434996545315" lon="-4.708980023860931">
        <ele>1303.2</ele>
        <time>2025-04-29T08:26:00Z</time>
      </trkpt>
      <trkpt lat="42.909370958805084" lon="-4.709132993593812">
        <ele>1303.2</ele>
        <time>2025-04-29T08:26:01Z</time>
      </trkpt>
      <trkpt lat="42.909285966306925" lon="-4.70925503410399">
        <ele>1303.2</ele>
        <time>2025-04-29T08:26:02Z</time>
      </trkpt>
      <trkpt lat="42.909167027100921" lon="-4.709318988025188">
        <ele>1303.6900000000001</ele>
        <time>2025-04-29T08:26:03Z</time>
      </trkpt>
      <trkpt lat="42.909038029611111" lon="-4.709352012723684">
        <ele>1304.1700000000001</ele>
        <time>2025-04-29T08:26:04Z</time>
      </trkpt>
      <trkpt lat="42.908896040171385" lon="-4.709331979975104">
        <ele>1304.6500000000001</ele>
        <time>2025-04-29T08:26:05Z</time>
      </trkpt>
      <trkpt lat="42.908747009932995" lon="-4.709311025217176">
        <ele>1305.1300000000001</ele>
        <time>2025-04-29T08:26:06Z</time>
      </trkpt>
      <trkpt lat="42.908143009990454" lon="-4.709225026890636">
        <ele>1306.0899999999999</ele>
        <time>2025-04-29T08:26:10Z</time>
      </trkpt>
      <trkpt lat="42.90802801027894" lon="-4.709208011627197">
        <ele>1306.0899999999999</ele>
        <time>2025-04-29T08:26:11Z</time>
      </trkpt>
      <trkpt lat="42.907892977818847" lon="-4.709302978590131">
        <ele>1306.0899999999999</ele>
        <time>2025-04-29T08:26:12Z</time>
      </trkpt>
      <trkpt lat="42.907768003642559" lon="-4.709390988573432">
        <ele>1306.0899999999999</ele>
        <time>2025-04-29T08:26:13Z</time>
      </trkpt>
      <trkpt lat="42.907649986445904" lon="-4.709491990506649">
        <ele>1306.0899999999999</ele>
        <time>2025-04-29T08:26:14Z</time>
      </trkpt>
      <trkpt lat="42.907568011432886" lon="-4.709655018523336">
        <ele>1306.0899999999999</ele>
        <time>2025-04-29T08:26:15Z</time>
      </trkpt>
      <trkpt lat="42.907514031976461" lon="-4.709830032661557">
        <ele>1305.6099999999999</ele>
        <time>2025-04-29T08:26:16Z</time>
      </trkpt>
      <trkpt lat="42.907476983964443" lon="-4.710024995729327">
        <ele>1305.6099999999999</ele>
        <time>2025-04-29T08:26:17Z</time>
      </trkpt>
      <trkpt lat="42.907483018934727" lon="-4.710242003202438">
        <ele>1305.1300000000001</ele>
        <time>2025-04-29T08:26:18Z</time>
      </trkpt>
      <trkpt lat="42.907501040026546" lon="-4.710466973483563">
        <ele>1305.1300000000001</ele>
        <time>2025-04-29T08:26:19Z</time>
      </trkpt>
      <trkpt lat="42.907519983127713" lon="-4.710703007876873">
        <ele>1304.6500000000001</ele>
        <time>2025-04-29T08:26:20Z</time>
      </trkpt>
      <trkpt lat="42.907618973404169" lon="-4.712436972185969">
        <ele>1302.24</ele>
        <time>2025-04-29T08:26:27Z</time>
      </trkpt>
      <trkpt lat="42.907591983675957" lon="-4.712681975215673">
        <ele>1301.76</ele>
        <time>2025-04-29T08:26:28Z</time>
      </trkpt>
      <trkpt lat="42.907470026984811" lon="-4.714416023343802">
        <ele>1298.4000000000001</ele>
        <time>2025-04-29T08:26:35Z</time>
      </trkpt>
      <trkpt lat="42.907518977299333" lon="-4.714926984161139">
        <ele>1297.9200000000001</ele>
        <time>2025-04-29T08:26:37Z</time>
      </trkpt>
      <trkpt lat="42.907558036968112" lon="-4.715181039646268">
        <ele>1297.9200000000001</ele>
        <time>2025-04-29T08:26:38Z</time>
      </trkpt>
      <trkpt lat="42.907948968932033" lon="-4.716820036992431">
        <ele>1297.9200000000001</ele>
        <time>2025-04-29T08:26:45Z</time>
      </trkpt>
      <trkpt lat="42.907962966710329" lon="-4.717019023373723">
        <ele>1297.9200000000001</ele>
        <time>2025-04-29T08:26:46Z</time>
      </trkpt>
      <trkpt lat="42.907924996688962" lon="-4.717232007533312">
        <ele>1297.9200000000001</ele>
        <time>2025-04-29T08:26:47Z</time>
      </trkpt>
      <trkpt lat="42.907888032495975" lon="-4.717440968379378">
        <ele>1297.9200000000001</ele>
        <time>2025-04-29T08:26:48Z</time>
      </trkpt>
      <trkpt lat="42.90785601362586" lon="-4.717619000002742">
        <ele>1298.4000000000001</ele>
        <time>2025-04-29T08:26:49Z</time>
      </trkpt>
      <trkpt lat="42.907643029466271" lon="-4.718666989356279">
        <ele>1301.28</ele>
        <time>2025-04-29T08:26:55Z</time>
      </trkpt>
      <trkpt lat="42.907659038901329" lon="-4.718810990452766">
        <ele>1301.76</ele>
        <time>2025-04-29T08:26:56Z</time>
      </trkpt>
      <trkpt lat="42.907685022801161" lon="-4.718958009034395">
        <ele>1302.24</ele>
        <time>2025-04-29T08:26:57Z</time>
      </trkpt>
      <trkpt lat="42.90785601362586" lon="-4.719851016998291">
        <ele>1302.72</ele>
        <time>2025-04-29T08:27:03Z</time>
      </trkpt>
      <trkpt lat="42.907960033044219" lon="-4.72000096924603">
        <ele>1301.76</ele>
        <time>2025-04-29T08:27:04Z</time>
      </trkpt>
      <trkpt lat="42.908031027764082" lon="-4.720103982836008">
        <ele>1300.8</ele>
        <time>2025-04-29T08:27:05Z</time>
      </trkpt>
      <trkpt lat="42.908108979463577" lon="-4.720146981999278">
        <ele>1300.8</ele>
        <time>2025-04-29T08:27:06Z</time>
      </trkpt>
      <trkpt lat="42.908197995275259" lon="-4.72017296589911">
        <ele>1300.8</ele>
        <time>2025-04-29T08:27:07Z</time>
      </trkpt>
      <trkpt lat="42.908287011086941" lon="-4.720198027789593">
        <ele>1301.28</ele>
        <time>2025-04-29T08:27:08Z</time>
      </trkpt>
      <trkpt lat="42.908382983878255" lon="-4.72021596506238">
        <ele>1301.28</ele>
        <time>2025-04-29T08:27:09Z</time>
      </trkpt>
      <trkpt lat="42.908799983561039" lon="-4.72021596506238">
        <ele>1301.76</ele>
        <time>2025-04-29T08:27:13Z</time>
      </trkpt>
      <trkpt lat="42.908928981050849" lon="-4.720144970342517">
        <ele>1301.76</ele>
        <time>2025-04-29T08:27:14Z</time>
      </trkpt>
      <trkpt lat="42.909025037661195" lon="-4.720067018643022">
        <ele>1301.28</ele>
        <time>2025-04-29T08:27:15Z</time>
      </trkpt>
      <trkpt lat="42.909107012674212" lon="-4.719956964254379">
        <ele>1301.28</ele>
        <time>2025-04-29T08:27:16Z</time>
      </trkpt>
      <trkpt lat="42.909185970202088" lon="-4.719851016998291">
        <ele>1300.8</ele>
        <time>2025-04-29T08:27:17Z</time>
      </trkpt>
      <trkpt lat="42.909283032640815" lon="-4.719754038378596">
        <ele>1300.8</ele>
        <time>2025-04-29T08:27:18Z</time>
      </trkpt>
      <trkpt lat="42.909390991553664" lon="-4.719722019508481">
        <ele>1300.3199999999999</ele>
        <time>2025-04-29T08:27:19Z</time>
      </trkpt>
      <trkpt lat="42.909508002921939" lon="-4.719722019508481">
        <ele>1299.8399999999999</ele>
        <time>2025-04-29T08:27:20Z</time>
      </trkpt>
      <trkpt lat="42.909594001248479" lon="-4.719786979258061">
        <ele>1298.8800000000001</ele>
        <time>2025-04-29T08:27:21Z</time>
      </trkpt>
      <trkpt lat="42.909696009010077" lon="-4.719870965927839">
        <ele>1297.9200000000001</ele>
        <time>2025-04-29T08:27:22Z</time>
      </trkpt>
      <trkpt lat="42.909801034256816" lon="-4.71997800283134">
        <ele>1296.96</ele>
        <time>2025-04-29T08:27:23Z</time>
      </trkpt>
      <trkpt lat="42.910013012588024" lon="-4.720202973112464">
        <ele>1295.99</ele>
        <time>2025-04-29T08:27:25Z</time>
      </trkpt>
      <trkpt lat="42.910136980935931" lon="-4.720290983095765">
        <ele>1295.51</ele>
        <time>2025-04-29T08:27:26Z</time>
      </trkpt>
      <trkpt lat="42.910267990082502" lon="-4.720367006957531">
        <ele>1295.51</ele>
        <time>2025-04-29T08:27:27Z</time>
      </trkpt>
      <trkpt lat="42.910415008664131" lon="-4.720403971150518">
        <ele>1295.03</ele>
        <time>2025-04-29T08:27:28Z</time>
      </trkpt>
      <trkpt lat="42.91056202724576" lon="-4.720425009727478">
        <ele>1295.03</ele>
        <time>2025-04-29T08:27:29Z</time>
      </trkpt>
      <trkpt lat="42.910711979493499" lon="-4.720389973372221">
        <ele>1295.03</ele>
        <time>2025-04-29T08:27:30Z</time>
      </trkpt>
      <trkpt lat="42.910856986418366" lon="-4.720334988087416">
        <ele>1295.03</ele>
        <time>2025-04-29T08:27:31Z</time>
      </trkpt>
      <trkpt lat="42.911006016656756" lon="-4.72027899697423">
        <ele>1294.55</ele>
        <time>2025-04-29T08:27:32Z</time>
      </trkpt>
      <trkpt lat="42.911760974675417" lon="-4.719829978421331">
        <ele>1294.55</ele>
        <time>2025-04-29T08:27:37Z</time>
      </trkpt>
      <trkpt lat="42.911878991872072" lon="-4.719708021730185">
        <ele>1294.55</ele>
        <time>2025-04-29T08:27:38Z</time>
      </trkpt>
      <trkpt lat="42.912384001538157" lon="-4.719185996800661">
        <ele>1295.51</ele>
        <time>2025-04-29T08:27:42Z</time>
      </trkpt>
      <trkpt lat="42.912512999027967" lon="-4.719127994030714">
        <ele>1295.51</ele>
        <time>2025-04-29T08:27:43Z</time>
      </trkpt>
      <trkpt lat="42.912635039538145" lon="-4.719110978767276">
        <ele>1295.99</ele>
        <time>2025-04-29T08:27:44Z</time>
      </trkpt>
      <trkpt lat="42.912756996229291" lon="-4.719133023172617">
        <ele>1295.99</ele>
        <time>2025-04-29T08:27:45Z</time>
      </trkpt>
      <trkpt lat="42.912857998162508" lon="-4.719201000407338">
        <ele>1295.99</ele>
        <time>2025-04-29T08:27:46Z</time>
      </trkpt>
      <trkpt lat="42.91294701397419" lon="-4.719317005947232">
        <ele>1296.48</ele>
        <time>2025-04-29T08:27:47Z</time>
      </trkpt>
      <trkpt lat="42.913029994815588" lon="-4.719438040629029">
        <ele>1296.48</ele>
        <time>2025-04-29T08:27:48Z</time>
      </trkpt>
      <trkpt lat="42.913054972887039" lon="-4.7196139767766">
        <ele>1296.96</ele>
        <time>2025-04-29T08:27:49Z</time>
      </trkpt>
      <trkpt lat="42.913081962615252" lon="-4.719797959551215">
        <ele>1296.96</ele>
        <time>2025-04-29T08:27:50Z</time>
      </trkpt>
      <trkpt lat="42.913109958171844" lon="-4.719986971467733">
        <ele>1296.96</ele>
        <time>2025-04-29T08:27:51Z</time>
      </trkpt>
      <trkpt lat="42.913138959556818" lon="-4.720183024182916">
        <ele>1296.96</ele>
        <time>2025-04-29T08:27:52Z</time>
      </trkpt>
      <trkpt lat="42.913190005347133" lon="-4.720372958108783">
        <ele>1296.96</ele>
        <time>2025-04-29T08:27:53Z</time>
      </trkpt>
      <trkpt lat="42.913276003673673" lon="-4.720556018874049">
        <ele>1296.96</ele>
        <time>2025-04-29T08:27:54Z</time>
      </trkpt>
      <trkpt lat="42.91337801143527" lon="-4.720721980556846">
        <ele>1296.48</ele>
        <time>2025-04-29T08:27:55Z</time>
      </trkpt>
      <trkpt lat="42.913502985611558" lon="-4.720861036330462">
        <ele>1296.48</ele>
        <time>2025-04-29T08:27:56Z</time>
      </trkpt>
      <trkpt lat="42.913642041385174" lon="-4.720964971929789">
        <ele>1296.48</ele>
        <time>2025-04-29T08:27:57Z</time>
      </trkpt>
      <trkpt lat="42.913800040259957" lon="-4.72107402049005">
        <ele>1296.48</ele>
        <time>2025-04-29T08:27:58Z</time>
      </trkpt>
      <trkpt lat="42.913941023871303" lon="-4.721118025481701">
        <ele>1296.48</ele>
        <time>2025-04-29T08:27:59Z</time>
      </trkpt>
      <trkpt lat="42.914093993604183" lon="-4.721164964139462">
        <ele>1296.96</ele>
        <time>2025-04-29T08:28:00Z</time>
      </trkpt>
      <trkpt lat="42.91423698887229" lon="-4.721208969131112">
        <ele>1297.4400000000001</ele>
        <time>2025-04-29T08:28:01Z</time>
      </trkpt>
      <trkpt lat="42.914364980533719" lon="-4.721256997436285">
        <ele>1297.4400000000001</ele>
        <time>2025-04-29T08:28:02Z</time>
      </trkpt>
      <trkpt lat="42.914444021880627" lon="-4.721385994926095">
        <ele>1297.9200000000001</ele>
        <time>2025-04-29T08:28:03Z</time>
      </trkpt>
      <trkpt lat="42.914521973580122" lon="-4.721512980759144">
        <ele>1297.9200000000001</ele>
        <time>2025-04-29T08:28:04Z</time>
      </trkpt>
      <trkpt lat="42.91453798301518" lon="-4.721679026260972">
        <ele>1298.4000000000001</ele>
        <time>2025-04-29T08:28:05Z</time>
      </trkpt>
      <trkpt lat="42.914548963308334" lon="-4.721854040399194">
        <ele>1298.4000000000001</ele>
        <time>2025-04-29T08:28:06Z</time>
      </trkpt>
      <trkpt lat="42.914514010772109" lon="-4.722013967111707">
        <ele>1298.4000000000001</ele>
        <time>2025-04-29T08:28:07Z</time>
      </trkpt>
      <trkpt lat="42.914446033537388" lon="-4.722146987915039">
        <ele>1298.8800000000001</ele>
        <time>2025-04-29T08:28:08Z</time>
      </trkpt>
      <trkpt lat="42.91434402577579" lon="-4.722256036475301">
        <ele>1299.3599999999999</ele>
        <time>2025-04-29T08:28:09Z</time>
      </trkpt>
      <trkpt lat="42.914243023842573" lon="-4.72236298955977">
        <ele>1299.3599999999999</ele>
        <time>2025-04-29T08:28:10Z</time>
      </trkpt>
      <trkpt lat="42.914143027737737" lon="-4.72246902063489">
        <ele>1299.8399999999999</ele>
        <time>2025-04-29T08:28:11Z</time>
      </trkpt>
      <trkpt lat="42.914061974734068" lon="-4.722603969275951">
        <ele>1299.8399999999999</ele>
        <time>2025-04-29T08:28:12Z</time>
      </trkpt>
      <trkpt lat="42.914014030247927" lon="-4.722761968150735">
        <ele>1299.8399999999999</ele>
        <time>2025-04-29T08:28:13Z</time>
      </trkpt>
      <trkpt lat="42.914014030247927" lon="-4.722938993945718">
        <ele>1299.8399999999999</ele>
        <time>2025-04-29T08:28:14Z</time>
      </trkpt>
      <trkpt lat="42.914014030247927" lon="-4.723124988377094">
        <ele>1299.8399999999999</ele>
        <time>2025-04-29T08:28:15Z</time>
      </trkpt>
      <trkpt lat="42.914027022197843" lon="-4.72330997698009">
        <ele>1300.3199999999999</ele>
        <time>2025-04-29T08:28:16Z</time>
      </trkpt>
      <trkpt lat="42.914062980562449" lon="-4.723494965583086">
        <ele>1300.3199999999999</ele>
        <time>2025-04-29T08:28:17Z</time>
      </trkpt>
      <trkpt lat="42.914100028574467" lon="-4.723692024126649">
        <ele>1300.8</ele>
        <time>2025-04-29T08:28:18Z</time>
      </trkpt>
      <trkpt lat="42.91415199637413" lon="-4.723876006901264">
        <ele>1300.8</ele>
        <time>2025-04-29T08:28:19Z</time>
      </trkpt>
      <trkpt lat="42.914374032989144" lon="-4.724669018760324">
        <ele>1301.76</ele>
        <time>2025-04-29T08:28:23Z</time>
      </trkpt>
      <trkpt lat="42.91438702493906" lon="-4.724876973778009">
        <ele>1301.76</ele>
        <time>2025-04-29T08:28:24Z</time>
      </trkpt>
      <trkpt lat="42.914359029382467" lon="-4.725099010393024">
        <ele>1301.76</ele>
        <time>2025-04-29T08:28:25Z</time>
      </trkpt>
      <trkpt lat="42.91406499221921" lon="-4.726990973576903">
        <ele>1306.5699999999999</ele>
        <time>2025-04-29T08:28:34Z</time>
      </trkpt>
      <trkpt lat="42.913988968357444" lon="-4.727130029350519">
        <ele>1307.53</ele>
        <time>2025-04-29T08:28:35Z</time>
      </trkpt>
      <trkpt lat="42.913897018879652" lon="-4.727228013798595">
        <ele>1308.49</ele>
        <time>2025-04-29T08:28:36Z</time>
      </trkpt>
      <trkpt lat="42.913788976147771" lon="-4.727287022396922">
        <ele>1308.97</ele>
        <time>2025-04-29T08:28:37Z</time>
      </trkpt>
      <trkpt lat="42.913691997528076" lon="-4.727339996024966">
        <ele>1309.9300000000001</ele>
        <time>2025-04-29T08:28:38Z</time>
      </trkpt>
      <trkpt lat="42.913565011695027" lon="-4.727287022396922">
        <ele>1310.4100000000001</ele>
        <time>2025-04-29T08:28:39Z</time>
      </trkpt>
      <trkpt lat="42.913448000326753" lon="-4.727237988263369">
        <ele>1311.3800000000001</ele>
        <time>2025-04-29T08:28:40Z</time>
      </trkpt>
      <trkpt lat="42.913360996171832" lon="-4.727146960794926">
        <ele>1312.3399999999999</ele>
        <time>2025-04-29T08:28:41Z</time>
      </trkpt>
      <trkpt lat="42.913293018937111" lon="-4.727033972740173">
        <ele>1313.78</ele>
        <time>2025-04-29T08:28:42Z</time>
      </trkpt>
      <trkpt lat="42.91324800811708" lon="-4.726863987743855">
        <ele>1314.74</ele>
        <time>2025-04-29T08:28:43Z</time>
      </trkpt>
      <trkpt lat="42.913209032267332" lon="-4.726686039939523">
        <ele>1316.1800000000001</ele>
        <time>2025-04-29T08:28:44Z</time>
      </trkpt>
      <trkpt lat="42.913178019225597" lon="-4.726490993052721">
        <ele>1317.1400000000001</ele>
        <time>2025-04-29T08:28:45Z</time>
      </trkpt>
      <trkpt lat="42.912992024794221" lon="-4.725516010075808">
        <ele>1321.95</ele>
        <time>2025-04-29T08:28:50Z</time>
      </trkpt>
      <trkpt lat="42.912908960133791" lon="-4.725376032292843">
        <ele>1322.4300000000001</ele>
        <time>2025-04-29T08:28:51Z</time>
      </trkpt>
      <trkpt lat="42.91281902231276" lon="-4.725251980125904">
        <ele>1322.9100000000001</ele>
        <time>2025-04-29T08:28:52Z</time>
      </trkpt>
      <trkpt lat="42.912703016772866" lon="-4.725200012326241">
        <ele>1323.3900000000001</ele>
        <time>2025-04-29T08:28:53Z</time>
      </trkpt>
      <trkpt lat="42.912579970434308" lon="-4.725173022598028">
        <ele>1324.3499999999999</ele>
        <time>2025-04-29T08:28:54Z</time>
      </trkpt>
      <trkpt lat="42.912459019571543" lon="-4.725233959034085">
        <ele>1324.8299999999999</ele>
        <time>2025-04-29T08:28:55Z</time>
      </trkpt>
      <trkpt lat="42.91234603151679" lon="-4.725325992330909">
        <ele>1325.8</ele>
        <time>2025-04-29T08:28:56Z</time>
      </trkpt>
      <trkpt lat="42.912229020148516" lon="-4.725421965122223">
        <ele>1326.28</ele>
        <time>2025-04-29T08:28:57Z</time>
      </trkpt>
      <trkpt lat="42.912107985466719" lon="-4.725521039217711">
        <ele>1327.24</ele>
        <time>2025-04-29T08:28:58Z</time>
      </trkpt>
      <trkpt lat="42.911970019340515" lon="-4.725604020059109">
        <ele>1327.72</ele>
        <time>2025-04-29T08:28:59Z</time>
      </trkpt>
      <trkpt lat="42.911827024072409" lon="-4.725676020607352">
        <ele>1328.2</ele>
        <time>2025-04-29T08:29:00Z</time>
      </trkpt>
      <trkpt lat="42.91168101131916" lon="-4.725749026983976">
        <ele>1329.1600000000001</ele>
        <time>2025-04-29T08:29:01Z</time>
      </trkpt>
      <trkpt lat="42.91152804158628" lon="-4.725804012268782">
        <ele>1330.1199999999999</ele>
        <time>2025-04-29T08:29:02Z</time>
      </trkpt>
      <trkpt lat="42.911365013569593" lon="-4.725826978683472">
        <ele>1330.5999999999999</ele>
        <time>2025-04-29T08:29:03Z</time>
      </trkpt>
      <trkpt lat="42.911198968067765" lon="-4.725827984511852">
        <ele>1332.04</ele>
        <time>2025-04-29T08:29:04Z</time>
      </trkpt>
      <trkpt lat="42.911033006384969" lon="-4.725809963420034">
        <ele>1333.01</ele>
        <time>2025-04-29T08:29:05Z</time>
      </trkpt>
      <trkpt lat="42.910099010914564" lon="-4.725709967315197">
        <ele>1339.73</ele>
        <time>2025-04-29T08:29:12Z</time>
      </trkpt>
      <trkpt lat="42.909213965758681" lon="-4.72562899813056">
        <ele>1346.9400000000001</ele>
        <time>2025-04-29T08:29:22Z</time>
      </trkpt>
      <trkpt lat="42.909129979088902" lon="-4.725642995908856">
        <ele>1347.4300000000001</ele>
        <time>2025-04-29T08:29:23Z</time>
      </trkpt>
      <trkpt lat="42.909055966883898" lon="-4.725710973143578">
        <ele>1348.3900000000001</ele>
        <time>2025-04-29T08:29:24Z</time>
      </trkpt>
      <trkpt lat="42.908979021012783" lon="-4.725788002833724">
        <ele>1348.8699999999999</ele>
        <time>2025-04-29T08:29:25Z</time>
      </trkpt>
      <trkpt lat="42.908906014636159" lon="-4.725895961746573">
        <ele>1349.8299999999999</ele>
        <time>2025-04-29T08:29:26Z</time>
      </trkpt>
      <trkpt lat="42.908853963017464" lon="-4.726033005863428">
        <ele>1350.79</ele>
        <time>2025-04-29T08:29:27Z</time>
      </trkpt>
      <trkpt lat="42.90882202796638" lon="-4.726188993081451">
        <ele>1351.27</ele>
        <time>2025-04-29T08:29:28Z</time>
      </trkpt>
      <trkpt lat="42.90882202796638" lon="-4.726353026926518">
        <ele>1351.27</ele>
        <time>2025-04-29T08:29:29Z</time>
      </trkpt>
      <trkpt lat="42.90886502712965" lon="-4.726513959467411">
        <ele>1351.75</ele>
        <time>2025-04-29T08:29:30Z</time>
      </trkpt>
      <trkpt lat="42.908913977444172" lon="-4.726695008575916">
        <ele>1351.27</ele>
        <time>2025-04-29T08:29:31Z</time>
      </trkpt>
      <trkpt lat="42.908971980214119" lon="-4.726911010220647">
        <ele>1350.79</ele>
        <time>2025-04-29T08:29:32Z</time>
      </trkpt>
      <trkpt lat="42.909586960449815" lon="-4.728813031688333">
        <ele>1344.0599999999999</ele>
        <time>2025-04-29T08:29:40Z</time>
      </trkpt>
      <trkpt lat="42.909922990947962" lon="-4.729997981339693">
        <ele>1340.7</ele>
        <time>2025-04-29T08:29:45Z</time>
      </trkpt>
      <trkpt lat="42.909921985119581" lon="-4.730209959670901">
        <ele>1340.7</ele>
        <time>2025-04-29T08:29:46Z</time>
      </trkpt>
      <trkpt lat="42.909893989562988" lon="-4.730429984629154">
        <ele>1340.7</ele>
        <time>2025-04-29T08:29:47Z</time>
      </trkpt>
      <trkpt lat="42.909814026206732" lon="-4.730631988495588">
        <ele>1340.7</ele>
        <time>2025-04-29T08:29:48Z</time>
      </trkpt>
      <trkpt lat="42.909728027880192" lon="-4.730844972655177">
        <ele>1340.7</ele>
        <time>2025-04-29T08:29:49Z</time>
      </trkpt>
      <trkpt lat="42.909312034025788" lon="-4.731884999200702">
        <ele>1340.22</ele>
        <time>2025-04-29T08:29:54Z</time>
      </trkpt>
      <trkpt lat="42.90927398018539" lon="-4.732087003067136">
        <ele>1340.22</ele>
        <time>2025-04-29T08:29:55Z</time>
      </trkpt>
      <trkpt lat="42.9092510137707" lon="-4.732272997498512">
        <ele>1339.73</ele>
        <time>2025-04-29T08:29:56Z</time>
      </trkpt>
      <trkpt lat="42.909313961863518" lon="-4.732448011636734">
        <ele>1339.73</ele>
        <time>2025-04-29T08:29:57Z</time>
      </trkpt>
      <trkpt lat="42.909383028745651" lon="-4.732599975541234">
        <ele>1339.25</ele>
        <time>2025-04-29T08:29:58Z</time>
      </trkpt>
      <trkpt lat="42.909465003758669" lon="-4.732755962759256">
        <ele>1338.77</ele>
        <time>2025-04-29T08:29:59Z</time>
      </trkpt>
      <trkpt lat="42.910211998969316" lon="-4.73417803645134">
        <ele>1333.97</ele>
        <time>2025-04-29T08:30:06Z</time>
      </trkpt>
      <trkpt lat="42.910645008087158" lon="-4.735001977533102">
        <ele>1331.5599999999999</ele>
        <time>2025-04-29T08:30:10Z</time>
      </trkpt>
      <trkpt lat="42.910689013078809" lon="-4.735196018591523">
        <ele>1331.5599999999999</ele>
        <time>2025-04-29T08:30:11Z</time>
      </trkpt>
      <trkpt lat="42.910705022513866" lon="-4.735386036336422">
        <ele>1331.0799999999999</ele>
        <time>2025-04-29T08:30:12Z</time>
      </trkpt>
      <trkpt lat="42.910682978108525" lon="-4.735578987747431">
        <ele>1331.0799999999999</ele>
        <time>2025-04-29T08:30:13Z</time>
      </trkpt>
      <trkpt lat="42.910660011693835" lon="-4.735780991613865">
        <ele>1330.5999999999999</ele>
        <time>2025-04-29T08:30:14Z</time>
      </trkpt>
      <trkpt lat="42.910636039450765" lon="-4.735990036278963">
        <ele>1329.6400000000001</ele>
        <time>2025-04-29T08:30:15Z</time>
      </trkpt>
      <trkpt lat="42.910645008087158" lon="-4.736197991296649">
        <ele>1328.6800000000001</ele>
        <time>2025-04-29T08:30:16Z</time>
      </trkpt>
      <trkpt lat="42.910688007250428" lon="-4.73641499876976">
        <ele>1328.2</ele>
        <time>2025-04-29T08:30:17Z</time>
      </trkpt>
      <trkpt lat="42.910751039162278" lon="-4.736626977100968">
        <ele>1327.24</ele>
        <time>2025-04-29T08:30:18Z</time>
      </trkpt>
      <trkpt lat="42.910835025832057" lon="-4.736838033422828">
        <ele>1326.28</ele>
        <time>2025-04-29T08:30:19Z</time>
      </trkpt>
      <trkpt lat="42.910919012501836" lon="-4.737046994268894">
        <ele>1325.3099999999999</ele>
        <time>2025-04-29T08:30:20Z</time>
      </trkpt>
      <trkpt lat="42.911010039970279" lon="-4.73727498203516">
        <ele>1324.3499999999999</ele>
        <time>2025-04-29T08:30:21Z</time>
      </trkpt>
      <trkpt lat="42.91112101636827" lon="-4.737395010888577">
        <ele>1323.3900000000001</ele>
        <time>2025-04-29T08:30:22Z</time>
      </trkpt>
      <trkpt lat="42.911253031343222" lon="-4.737539011985064">
        <ele>1322.4300000000001</ele>
        <time>2025-04-29T08:30:23Z</time>
      </trkpt>
      <trkpt lat="42.911382028833032" lon="-4.737679995596409">
        <ele>1321.47</ele>
        <time>2025-04-29T08:30:24Z</time>
      </trkpt>
      <trkpt lat="42.911503985524178" lon="-4.737832965329289">
        <ele>1320.51</ele>
        <time>2025-04-29T08:30:25Z</time>
      </trkpt>
      <trkpt lat="42.911597024649382" lon="-4.738018959760666">
        <ele>1319.55</ele>
        <time>2025-04-29T08:30:26Z</time>
      </trkpt>
      <trkpt lat="42.911647986620665" lon="-4.738246025517583">
        <ele>1318.5899999999999</ele>
        <time>2025-04-29T08:30:27Z</time>
      </trkpt>
      <trkpt lat="42.911692997440696" lon="-4.738488011062145">
        <ele>1317.1400000000001</ele>
        <time>2025-04-29T08:30:28Z</time>
      </trkpt>
      <trkpt lat="42.911740019917488" lon="-4.738741982728243">
        <ele>1316.1800000000001</ele>
        <time>2025-04-29T08:30:29Z</time>
      </trkpt>
      <trkpt lat="42.912243017926812" lon="-4.741458976641297">
        <ele>1302.24</ele>
        <time>2025-04-29T08:30:39Z</time>
      </trkpt>
      <trkpt lat="42.912446027621627" lon="-4.742376962676644">
        <ele>1298.4000000000001</ele>
        <time>2025-04-29T08:30:43Z</time>
      </trkpt>
      <trkpt lat="42.91249698959291" lon="-4.742545019835234">
        <ele>1296.96</ele>
        <time>2025-04-29T08:30:44Z</time>
      </trkpt>
      <trkpt lat="42.912592040374875" lon="-4.74264401011169">
        <ele>1295.99</ele>
        <time>2025-04-29T08:30:45Z</time>
      </trkpt>
      <trkpt lat="42.912706034258008" lon="-4.742711987346411">
        <ele>1295.03</ele>
        <time>2025-04-29T08:30:46Z</time>
      </trkpt>
      <trkpt lat="42.912834025919437" lon="-4.742789017036557">
        <ele>1294.0699999999999</ele>
        <time>2025-04-29T08:30:47Z</time>
      </trkpt>
      <trkpt lat="42.912972997874022" lon="-4.742818018421531">
        <ele>1293.1099999999999</ele>
        <time>2025-04-29T08:30:48Z</time>
      </trkpt>
      <trkpt lat="42.913754023611546" lon="-4.742951039224863">
        <ele>1288.3</ele>
        <time>2025-04-29T08:30:53Z</time>
      </trkpt>
      <trkpt lat="42.913903975859284" lon="-4.742906028404832">
        <ele>1287.3399999999999</ele>
        <time>2025-04-29T08:30:54Z</time>
      </trkpt>
      <trkpt lat="42.91404596529901" lon="-4.742827992886305">
        <ele>1286.8599999999999</ele>
        <time>2025-04-29T08:30:55Z</time>
      </trkpt>
      <trkpt lat="42.91434301994741" lon="-4.742678040638566">
        <ele>1285.4200000000001</ele>
        <time>2025-04-29T08:30:57Z</time>
      </trkpt>
      <trkpt lat="42.914500012993813" lon="-4.742621965706348">
        <ele>1285.4200000000001</ele>
        <time>2025-04-29T08:30:58Z</time>
      </trkpt>
      <trkpt lat="42.91548203676939" lon="-4.742492968216538">
        <ele>1288.78</ele>
        <time>2025-04-29T08:31:04Z</time>
      </trkpt>
      <trkpt lat="42.915596030652523" lon="-4.742534961551428">
        <ele>1289.27</ele>
        <time>2025-04-29T08:31:05Z</time>
      </trkpt>
      <trkpt lat="42.915703989565372" lon="-4.742597993463278">
        <ele>1289.75</ele>
        <time>2025-04-29T08:31:06Z</time>
      </trkpt>
      <trkpt lat="42.91578596457839" lon="-4.742672005668283">
        <ele>1290.71</ele>
        <time>2025-04-29T08:31:07Z</time>
      </trkpt>
      <trkpt lat="42.915839022025466" lon="-4.74281600676477">
        <ele>1291.1900000000001</ele>
        <time>2025-04-29T08:31:08Z</time>
      </trkpt>
      <trkpt lat="42.915894007310271" lon="-4.74296503700316">
        <ele>1291.1900000000001</ele>
        <time>2025-04-29T08:31:09Z</time>
      </trkpt>
      <trkpt lat="42.915917979553342" lon="-4.74311700090766">
        <ele>1291.1900000000001</ele>
        <time>2025-04-29T08:31:10Z</time>
      </trkpt>
      <trkpt lat="42.915902975946665" lon="-4.743282962590456">
        <ele>1291.6700000000001</ele>
        <time>2025-04-29T08:31:11Z</time>
      </trkpt>
      <trkpt lat="42.915830975398421" lon="-4.743426041677594">
        <ele>1292.1500000000001</ele>
        <time>2025-04-29T08:31:12Z</time>
      </trkpt>
      <trkpt lat="42.915751012042165" lon="-4.743528971448541">
        <ele>1292.1500000000001</ele>
        <time>2025-04-29T08:31:13Z</time>
      </trkpt>
      <trkpt lat="42.915641963481903" lon="-4.743607006967068">
        <ele>1291.6700000000001</ele>
        <time>2025-04-29T08:31:14Z</time>
      </trkpt>
      <trkpt lat="42.915530987083912" lon="-4.743685964494944">
        <ele>1291.6700000000001</ele>
        <time>2025-04-29T08:31:15Z</time>
      </trkpt>
      <trkpt lat="42.915409030392766" lon="-4.743705997243524">
        <ele>1291.6700000000001</ele>
        <time>2025-04-29T08:31:16Z</time>
      </trkpt>
      <trkpt lat="42.915270980447531" lon="-4.74369602277875">
        <ele>1291.1900000000001</ele>
        <time>2025-04-29T08:31:17Z</time>
      </trkpt>
      <trkpt lat="42.915134020149708" lon="-4.743685964494944">
        <ele>1291.1900000000001</ele>
        <time>2025-04-29T08:31:18Z</time>
      </trkpt>
      <trkpt lat="42.915002005174756" lon="-4.74367699585855">
        <ele>1290.71</ele>
        <time>2025-04-29T08:31:19Z</time>
      </trkpt>
      <trkpt lat="42.914873007684946" lon="-4.743684958666563">
        <ele>1290.23</ele>
        <time>2025-04-29T08:31:20Z</time>
      </trkpt>
      <trkpt lat="42.914778040722013" lon="-4.743756037205458">
        <ele>1289.75</ele>
        <time>2025-04-29T08:31:21Z</time>
      </trkpt>
      <trkpt lat="42.914695981889963" lon="-4.743855027481914">
        <ele>1289.75</ele>
        <time>2025-04-29T08:31:22Z</time>
      </trkpt>
      <trkpt lat="42.914633033797145" lon="-4.743993999436498">
        <ele>1289.27</ele>
        <time>2025-04-29T08:31:23Z</time>
      </trkpt>
      <trkpt lat="42.914593974128366" lon="-4.744176976382732">
        <ele>1289.27</ele>
        <time>2025-04-29T08:31:24Z</time>
      </trkpt>
      <trkpt lat="42.914565978571773" lon="-4.744373029097915">
        <ele>1288.78</ele>
        <time>2025-04-29T08:31:25Z</time>
      </trkpt>
      <trkpt lat="42.914445027709007" lon="-4.745227983221412">
        <ele>1288.3</ele>
        <time>2025-04-29T08:31:29Z</time>
      </trkpt>
      <trkpt lat="42.914461959153414" lon="-4.745436022058129">
        <ele>1288.3</ele>
        <time>2025-04-29T08:31:30Z</time>
      </trkpt>
      <trkpt lat="42.914513004943728" lon="-4.745644982904196">
        <ele>1288.3</ele>
        <time>2025-04-29T08:31:31Z</time>
      </trkpt>
      <trkpt lat="42.914567990228534" lon="-4.745843969285488">
        <ele>1288.3</ele>
        <time>2025-04-29T08:31:32Z</time>
      </trkpt>
      <trkpt lat="42.914669997990131" lon="-4.746026024222374">
        <ele>1288.78</ele>
        <time>2025-04-29T08:31:33Z</time>
      </trkpt>
      <trkpt lat="42.914769994094968" lon="-4.746199026703835">
        <ele>1289.27</ele>
        <time>2025-04-29T08:31:34Z</time>
      </trkpt>
      <trkpt lat="42.914892034605145" lon="-4.746365994215012">
        <ele>1289.75</ele>
        <time>2025-04-29T08:31:35Z</time>
      </trkpt>
      <trkpt lat="42.915022037923336" lon="-4.746520975604653">
        <ele>1289.75</ele>
        <time>2025-04-29T08:31:36Z</time>
      </trkpt>
      <trkpt lat="42.916126018390059" lon="-4.747945982962847">
        <ele>1292.1500000000001</ele>
        <time>2025-04-29T08:31:44Z</time>
      </trkpt>
      <trkpt lat="42.917876997962594" lon="-4.749806011095643">
        <ele>1295.03</ele>
        <time>2025-04-29T08:31:55Z</time>
      </trkpt>
      <trkpt lat="42.918761959299445" lon="-4.751226995140314">
        <ele>1296.96</ele>
        <time>2025-04-29T08:32:02Z</time>
      </trkpt>
      <trkpt lat="42.918925993144512" lon="-4.751370996236801">
        <ele>1297.4400000000001</ele>
        <time>2025-04-29T08:32:03Z</time>
      </trkpt>
      <trkpt lat="42.91909103281796" lon="-4.751517008990049">
        <ele>1297.4400000000001</ele>
        <time>2025-04-29T08:32:04Z</time>
      </trkpt>
      <trkpt lat="42.919728979468346" lon="-4.752078009769321">
        <ele>1298.4000000000001</ele>
        <time>2025-04-29T08:32:08Z</time>
      </trkpt>
      <trkpt lat="42.919853031635284" lon="-4.752217987552285">
        <ele>1298.8800000000001</ele>
        <time>2025-04-29T08:32:09Z</time>
      </trkpt>
      <trkpt lat="42.91993098333478" lon="-4.752390990033746">
        <ele>1299.8399999999999</ele>
        <time>2025-04-29T08:32:10Z</time>
      </trkpt>
      <trkpt lat="42.919969959184527" lon="-4.752588970586658">
        <ele>1300.3199999999999</ele>
        <time>2025-04-29T08:32:11Z</time>
      </trkpt>
      <trkpt lat="42.920008013024926" lon="-4.752803966403008">
        <ele>1300.8</ele>
        <time>2025-04-29T08:32:12Z</time>
      </trkpt>
      <trkpt lat="42.920045983046293" lon="-4.753017034381628">
        <ele>1300.8</ele>
        <time>2025-04-29T08:32:13Z</time>
      </trkpt>
      <trkpt lat="42.920082025229931" lon="-4.753217026591301">
        <ele>1300.8</ele>
        <time>2025-04-29T08:32:14Z</time>
      </trkpt>
      <trkpt lat="42.920132987201214" lon="-4.753401009365916">
        <ele>1301.28</ele>
        <time>2025-04-29T08:32:15Z</time>
      </trkpt>
      <trkpt lat="42.920241029933095" lon="-4.753545010462403">
        <ele>1301.28</ele>
        <time>2025-04-29T08:32:16Z</time>
      </trkpt>
      <trkpt lat="42.920355023816228" lon="-4.753695968538523">
        <ele>1301.28</ele>
        <time>2025-04-29T08:32:17Z</time>
      </trkpt>
      <trkpt lat="42.920474968850613" lon="-4.753855979070067">
        <ele>1301.28</ele>
        <time>2025-04-29T08:32:18Z</time>
      </trkpt>
      <trkpt lat="42.920590974390507" lon="-4.754038034006953">
        <ele>1301.28</ele>
        <time>2025-04-29T08:32:19Z</time>
      </trkpt>
      <trkpt lat="42.920688036829233" lon="-4.754242971539497">
        <ele>1300.8</ele>
        <time>2025-04-29T08:32:20Z</time>
      </trkpt>
      <trkpt lat="42.920783003792167" lon="-4.754446987062693">
        <ele>1300.3199999999999</ele>
        <time>2025-04-29T08:32:21Z</time>
      </trkpt>
      <trkpt lat="42.920880988240242" lon="-4.75465502589941">
        <ele>1299.3599999999999</ele>
        <time>2025-04-29T08:32:22Z</time>
      </trkpt>
      <trkpt lat="42.920987019315362" lon="-4.754797015339136">
        <ele>1298.8800000000001</ele>
        <time>2025-04-29T08:32:23Z</time>
      </trkpt>
      <trkpt lat="42.921117022633553" lon="-4.754945961758494">
        <ele>1298.4000000000001</ele>
        <time>2025-04-29T08:32:24Z</time>
      </trkpt>
      <trkpt lat="42.922071972861886" lon="-4.755636965855956">
        <ele>1294.55</ele>
        <time>2025-04-29T08:32:30Z</time>
      </trkpt>
      <trkpt lat="42.922246987000108" lon="-4.755650963634253">
        <ele>1294.55</ele>
        <time>2025-04-29T08:32:31Z</time>
      </trkpt>
      <trkpt lat="42.922419989481568" lon="-4.755659010261297">
        <ele>1294.0699999999999</ele>
        <time>2025-04-29T08:32:32Z</time>
      </trkpt>
      <trkpt lat="42.924084970727563" lon="-4.755466980859637">
        <ele>1295.51</ele>
        <time>2025-04-29T08:32:41Z</time>
      </trkpt>
      <trkpt lat="42.924624010920525" lon="-4.755415013059974">
        <ele>1297.4400000000001</ele>
        <time>2025-04-29T08:32:44Z</time>
      </trkpt>
      <trkpt lat="42.924795001745224" lon="-4.755444014444947">
        <ele>1297.9200000000001</ele>
        <time>2025-04-29T08:32:45Z</time>
      </trkpt>
      <trkpt lat="42.926238030195236" lon="-4.756138036027551">
        <ele>1301.76</ele>
        <time>2025-04-29T08:32:53Z</time>
      </trkpt>
      <trkpt lat="42.92779304087162" lon="-4.756698030978441">
        <ele>1303.6900000000001</ele>
        <time>2025-04-29T08:33:02Z</time>
      </trkpt>
      <trkpt lat="42.928299978375435" lon="-4.756936999037862">
        <ele>1303.6900000000001</ele>
        <time>2025-04-29T08:33:05Z</time>
      </trkpt>
      <trkpt lat="42.928454959765077" lon="-4.757070019841194">
        <ele>1303.6900000000001</ele>
        <time>2025-04-29T08:33:06Z</time>
      </trkpt>
      <trkpt lat="42.928606001660228" lon="-4.757216032594442">
        <ele>1303.6900000000001</ele>
        <time>2025-04-29T08:33:07Z</time>
      </trkpt>
      <trkpt lat="42.929568998515606" lon="-4.758299980312586">
        <ele>1303.2</ele>
        <time>2025-04-29T08:33:15Z</time>
      </trkpt>
      <trkpt lat="42.929647034034133" lon="-4.758416991680861">
        <ele>1303.2</ele>
        <time>2025-04-29T08:33:16Z</time>
      </trkpt>
      <trkpt lat="42.929705958813429" lon="-4.75854498334229">
        <ele>1303.2</ele>
        <time>2025-04-29T08:33:17Z</time>
      </trkpt>
      <trkpt lat="42.929724985733628" lon="-4.758705999702215">
        <ele>1303.2</ele>
        <time>2025-04-29T08:33:18Z</time>
      </trkpt>
      <trkpt lat="42.929743006825447" lon="-4.758860981091857">
        <ele>1303.2</ele>
        <time>2025-04-29T08:33:19Z</time>
      </trkpt>
      <trkpt lat="42.929711993783712" lon="-4.759016968309879">
        <ele>1303.2</ele>
        <time>2025-04-29T08:33:20Z</time>
      </trkpt>
      <trkpt lat="42.929677963256836" lon="-4.759183013811708">
        <ele>1303.2</ele>
        <time>2025-04-29T08:33:21Z</time>
      </trkpt>
      <trkpt lat="42.929615015164018" lon="-4.759337995201349">
        <ele>1303.2</ele>
        <time>2025-04-29T08:33:22Z</time>
      </trkpt>
      <trkpt lat="42.929494986310601" lon="-4.759633038192987">
        <ele>1303.2</ele>
        <time>2025-04-29T08:33:24Z</time>
      </trkpt>
      <trkpt lat="42.929442012682557" lon="-4.759762035682797">
        <ele>1303.2</ele>
        <time>2025-04-29T08:33:25Z</time>
      </trkpt>
      <trkpt lat="42.929340004920959" lon="-4.759841999039054">
        <ele>1303.6900000000001</ele>
        <time>2025-04-29T08:33:26Z</time>
      </trkpt>
      <trkpt lat="42.929229028522968" lon="-4.759910982102156">
        <ele>1303.6900000000001</ele>
        <time>2025-04-29T08:33:27Z</time>
      </trkpt>
      <trkpt lat="42.929085027426481" lon="-4.759902013465762">
        <ele>1304.1700000000001</ele>
        <time>2025-04-29T08:33:28Z</time>
      </trkpt>
      <trkpt lat="42.928930968046188" lon="-4.759892961010337">
        <ele>1304.1700000000001</ele>
        <time>2025-04-29T08:33:29Z</time>
      </trkpt>
      <trkpt lat="42.928771963343024" lon="-4.759879969060421">
        <ele>1304.6500000000001</ele>
        <time>2025-04-29T08:33:30Z</time>
      </trkpt>
      <trkpt lat="42.927070017904043" lon="-4.759719958528876">
        <ele>1304.1700000000001</ele>
        <time>2025-04-29T08:33:39Z</time>
      </trkpt>
      <trkpt lat="42.925166990607977" lon="-4.759633960202336">
        <ele>1304.1700000000001</ele>
        <time>2025-04-29T08:33:48Z</time>
      </trkpt>
      <trkpt lat="42.922731041908264" lon="-4.759643012657762">
        <ele>1299.3599999999999</ele>
        <time>2025-04-29T08:34:00Z</time>
      </trkpt>
      <trkpt lat="42.922549992799759" lon="-4.75970596075058">
        <ele>1299.3599999999999</ele>
        <time>2025-04-29T08:34:01Z</time>
      </trkpt>
      <trkpt lat="42.921672994270921" lon="-4.76011399179697">
        <ele>1300.8</ele>
        <time>2025-04-29T08:34:06Z</time>
      </trkpt>
      <trkpt lat="42.921554977074265" lon="-4.760206025093794">
        <ele>1300.8</ele>
        <time>2025-04-29T08:34:07Z</time>
      </trkpt>
      <trkpt lat="42.921502003446221" lon="-4.760351032018662">
        <ele>1301.28</ele>
        <time>2025-04-29T08:34:08Z</time>
      </trkpt>
      <trkpt lat="42.921451963484287" lon="-4.760511964559555">
        <ele>1301.76</ele>
        <time>2025-04-29T08:34:09Z</time>
      </trkpt>
      <trkpt lat="42.921408964321017" lon="-4.760683961212635">
        <ele>1302.72</ele>
        <time>2025-04-29T08:34:10Z</time>
      </trkpt>
      <trkpt lat="42.921382980421185" lon="-4.760881019756198">
        <ele>1303.2</ele>
        <time>2025-04-29T08:34:11Z</time>
      </trkpt>
      <trkpt lat="42.921326989308" lon="-4.761299025267363">
        <ele>1304.6500000000001</ele>
        <time>2025-04-29T08:34:13Z</time>
      </trkpt>
      <trkpt lat="42.921302011236548" lon="-4.76148602552712">
        <ele>1305.6099999999999</ele>
        <time>2025-04-29T08:34:14Z</time>
      </trkpt>
      <trkpt lat="42.920849975198507" lon="-4.762659994885325">
        <ele>1310.4100000000001</ele>
        <time>2025-04-29T08:34:21Z</time>
      </trkpt>
      <trkpt lat="42.920764982700348" lon="-4.762749010697007">
        <ele>1310.9000000000001</ele>
        <time>2025-04-29T08:34:22Z</time>
      </trkpt>
      <trkpt lat="42.920663980767131" lon="-4.76279997266829">
        <ele>1311.3800000000001</ele>
        <time>2025-04-29T08:34:23Z</time>
      </trkpt>
      <trkpt lat="42.920559039339423" lon="-4.762852024286985">
        <ele>1312.3399999999999</ele>
        <time>2025-04-29T08:34:24Z</time>
      </trkpt>
      <trkpt lat="42.9204479791224" lon="-4.762908015400171">
        <ele>1312.3399999999999</ele>
        <time>2025-04-29T08:34:25Z</time>
      </trkpt>
      <trkpt lat="42.92021001689136" lon="-4.763041958212853">
        <ele>1313.3</ele>
        <time>2025-04-29T08:34:27Z</time>
      </trkpt>
      <trkpt lat="42.920084036886692" lon="-4.763114964589477">
        <ele>1313.78</ele>
        <time>2025-04-29T08:34:28Z</time>
      </trkpt>
      <trkpt lat="42.919740965589881" lon="-4.763315040618181">
        <ele>1315.22</ele>
        <time>2025-04-29T08:34:31Z</time>
      </trkpt>
      <trkpt lat="42.919641975313425" lon="-4.763372959569097">
        <ele>1315.22</ele>
        <time>2025-04-29T08:34:32Z</time>
      </trkpt>
      <trkpt lat="42.919553965330124" lon="-4.763388969004154">
        <ele>1315.22</ele>
        <time>2025-04-29T08:34:33Z</time>
      </trkpt>
      <trkpt lat="42.919454975053668" lon="-4.763388969004154">
        <ele>1315.7</ele>
        <time>2025-04-29T08:34:34Z</time>
      </trkpt>
      <trkpt lat="42.919353973120451" lon="-4.763367008417845">
        <ele>1315.7</ele>
        <time>2025-04-29T08:34:35Z</time>
      </trkpt>
      <trkpt lat="42.919262023642659" lon="-4.763288972899318">
        <ele>1315.7</ele>
        <time>2025-04-29T08:34:36Z</time>
      </trkpt>
      <trkpt lat="42.919193962588906" lon="-4.763167016208172">
        <ele>1315.7</ele>
        <time>2025-04-29T08:34:37Z</time>
      </trkpt>
      <trkpt lat="42.919139983132482" lon="-4.763023015111685">
        <ele>1315.7</ele>
        <time>2025-04-29T08:34:38Z</time>
      </trkpt>
      <trkpt lat="42.919082986190915" lon="-4.762871973216534">
        <ele>1316.1800000000001</ele>
        <time>2025-04-29T08:34:39Z</time>
      </trkpt>
      <trkpt lat="42.919026995077729" lon="-4.762711962684989">
        <ele>1316.1800000000001</ele>
        <time>2025-04-29T08:34:40Z</time>
      </trkpt>
      <trkpt lat="42.9188799764961" lon="-4.762254981324077">
        <ele>1315.22</ele>
        <time>2025-04-29T08:34:43Z</time>
      </trkpt>
      <trkpt lat="42.918129041790962" lon="-4.7609309758991">
        <ele>1311.8599999999999</ele>
        <time>2025-04-29T08:34:52Z</time>
      </trkpt>
      <trkpt lat="42.918030973523855" lon="-4.760772977024317">
        <ele>1311.3800000000001</ele>
        <time>2025-04-29T08:34:53Z</time>
      </trkpt>
      <trkpt lat="42.917913962155581" lon="-4.760642973706126">
        <ele>1311.3800000000001</ele>
        <time>2025-04-29T08:34:54Z</time>
      </trkpt>
      <trkpt lat="42.917780019342899" lon="-4.760555969551206">
        <ele>1310.9000000000001</ele>
        <time>2025-04-29T08:34:55Z</time>
      </trkpt>
      <trkpt lat="42.917626965790987" lon="-4.760510958731175">
        <ele>1310.9000000000001</ele>
        <time>2025-04-29T08:34:56Z</time>
      </trkpt>
      <trkpt lat="42.917472990229726" lon="-4.760476006194949">
        <ele>1310.9000000000001</ele>
        <time>2025-04-29T08:34:57Z</time>
      </trkpt>
      <trkpt lat="42.917320020496845" lon="-4.760526968166232">
        <ele>1310.4100000000001</ele>
        <time>2025-04-29T08:34:58Z</time>
      </trkpt>
      <trkpt lat="42.917165039107203" lon="-4.760579019784927">
        <ele>1310.4100000000001</ele>
        <time>2025-04-29T08:34:59Z</time>
      </trkpt>
      <trkpt lat="42.91700997389853" lon="-4.76062998175621">
        <ele>1309.9300000000001</ele>
        <time>2025-04-29T08:35:00Z</time>
      </trkpt>
      <trkpt lat="42.916848035529256" lon="-4.760684967041016">
        <ele>1309.45</ele>
        <time>2025-04-29T08:35:01Z</time>
      </trkpt>
      <trkpt lat="42.916689030826092" lon="-4.760724026709795">
        <ele>1308.97</ele>
        <time>2025-04-29T08:35:02Z</time>
      </trkpt>
      <trkpt lat="42.916523991152644" lon="-4.760703993961215">
        <ele>1308.97</ele>
        <time>2025-04-29T08:35:03Z</time>
      </trkpt>
      <trkpt lat="42.915510032325983" lon="-4.760539960116148">
        <ele>1307.05</ele>
        <time>2025-04-29T08:35:09Z</time>
      </trkpt>
      <trkpt lat="42.915366031229496" lon="-4.760492015630007">
        <ele>1306.5699999999999</ele>
        <time>2025-04-29T08:35:10Z</time>
      </trkpt>
      <trkpt lat="42.915214989334345" lon="-4.760355977341533">
        <ele>1305.6099999999999</ele>
        <time>2025-04-29T08:35:11Z</time>
      </trkpt>
      <trkpt lat="42.915071994066238" lon="-4.760227985680103">
        <ele>1305.6099999999999</ele>
        <time>2025-04-29T08:35:12Z</time>
      </trkpt>
      <trkpt lat="42.914927992969751" lon="-4.760098988190293">
        <ele>1305.1300000000001</ele>
        <time>2025-04-29T08:35:13Z</time>
      </trkpt>
      <trkpt lat="42.914636973291636" lon="-4.759837975725532">
        <ele>1304.1700000000001</ele>
        <time>2025-04-29T08:35:15Z</time>
      </trkpt>
      <trkpt lat="42.914477968588471" lon="-4.759721970185638">
        <ele>1304.1700000000001</ele>
        <time>2025-04-29T08:35:16Z</time>
      </trkpt>
      <trkpt lat="42.914309995248914" lon="-4.75966103374958">
        <ele>1304.1700000000001</ele>
        <time>2025-04-29T08:35:17Z</time>
      </trkpt>
      <trkpt lat="42.914142021909356" lon="-4.759600013494492">
        <ele>1303.6900000000001</ele>
        <time>2025-04-29T08:35:18Z</time>
      </trkpt>
      <trkpt lat="42.913971031084657" lon="-4.759537987411022">
        <ele>1303.6900000000001</ele>
        <time>2025-04-29T08:35:19Z</time>
      </trkpt>
      <trkpt lat="42.913820995017886" lon="-4.759483002126217">
        <ele>1303.2</ele>
        <time>2025-04-29T08:35:20Z</time>
      </trkpt>
      <trkpt lat="42.913681017234921" lon="-4.759323997423053">
        <ele>1303.2</ele>
        <time>2025-04-29T08:35:21Z</time>
      </trkpt>
      <trkpt lat="42.913547996431589" lon="-4.759172033518553">
        <ele>1302.72</ele>
        <time>2025-04-29T08:35:22Z</time>
      </trkpt>
      <trkpt lat="42.912005977705121" lon="-4.757356010377407">
        <ele>1301.76</ele>
        <time>2025-04-29T08:35:33Z</time>
      </trkpt>
      <trkpt lat="42.911877986043692" lon="-4.757160041481257">
        <ele>1301.76</ele>
        <time>2025-04-29T08:35:34Z</time>
      </trkpt>
      <trkpt lat="42.911777989938855" lon="-4.756930964067578">
        <ele>1302.24</ele>
        <time>2025-04-29T08:35:35Z</time>
      </trkpt>
      <trkpt lat="42.911697020754218" lon="-4.756677998229861">
        <ele>1302.72</ele>
        <time>2025-04-29T08:35:36Z</time>
      </trkpt>
      <trkpt lat="42.911614961922169" lon="-4.756422014907002">
        <ele>1302.72</ele>
        <time>2025-04-29T08:35:37Z</time>
      </trkpt>
      <trkpt lat="42.911288989707828" lon="-4.755403026938438">
        <ele>1304.1700000000001</ele>
        <time>2025-04-29T08:35:41Z</time>
      </trkpt>
      <trkpt lat="42.91125001385808" lon="-4.755132040008903">
        <ele>1304.1700000000001</ele>
        <time>2025-04-29T08:35:42Z</time>
      </trkpt>
      <trkpt lat="42.911211038008332" lon="-4.754859963431954">
        <ele>1304.6500000000001</ele>
        <time>2025-04-29T08:35:43Z</time>
      </trkpt>
      <trkpt lat="42.911171978339553" lon="-4.754587970674038">
        <ele>1304.6500000000001</ele>
        <time>2025-04-29T08:35:44Z</time>
      </trkpt>
      <trkpt lat="42.911124033853412" lon="-4.754326958209276">
        <ele>1305.1300000000001</ele>
        <time>2025-04-29T08:35:45Z</time>
      </trkpt>
      <trkpt lat="42.911069970577955" lon="-4.754066029563546">
        <ele>1304.6500000000001</ele>
        <time>2025-04-29T08:35:46Z</time>
      </trkpt>
      <trkpt lat="42.910983972251415" lon="-4.753530006855726">
        <ele>1305.6099999999999</ele>
        <time>2025-04-29T08:35:48Z</time>
      </trkpt>
      <trkpt lat="42.910972991958261" lon="-4.75325801409781">
        <ele>1305.6099999999999</ele>
        <time>2025-04-29T08:35:49Z</time>
      </trkpt>
      <trkpt lat="42.910963017493486" lon="-4.752990966662765">
        <ele>1305.6099999999999</ele>
        <time>2025-04-29T08:35:50Z</time>
      </trkpt>
      <trkpt lat="42.910946002230048" lon="-4.752530967816711">
        <ele>1305.6099999999999</ele>
        <time>2025-04-29T08:35:52Z</time>
      </trkpt>
      <trkpt lat="42.910900991410017" lon="-4.752279007807374">
        <ele>1305.6099999999999</ele>
        <time>2025-04-29T08:35:53Z</time>
      </trkpt>
      <trkpt lat="42.910837959498167" lon="-4.752087984234095">
        <ele>1305.1300000000001</ele>
        <time>2025-04-29T08:35:54Z</time>
      </trkpt>
      <trkpt lat="42.910730000585318" lon="-4.751893021166325">
        <ele>1305.1300000000001</ele>
        <time>2025-04-29T08:35:55Z</time>
      </trkpt>
      <trkpt lat="42.910612989217043" lon="-4.751683976501226">
        <ele>1305.1300000000001</ele>
        <time>2025-04-29T08:35:56Z</time>
      </trkpt>
      <trkpt lat="42.910492960363626" lon="-4.751467974856496">
        <ele>1304.6500000000001</ele>
        <time>2025-04-29T08:35:57Z</time>
      </trkpt>
      <trkpt lat="42.910377038642764" lon="-4.751258008182049">
        <ele>1304.1700000000001</ele>
        <time>2025-04-29T08:35:58Z</time>
      </trkpt>
      <trkpt lat="42.910264972597361" lon="-4.751056004315615">
        <ele>1304.1700000000001</ele>
        <time>2025-04-29T08:35:59Z</time>
      </trkpt>
      <trkpt lat="42.910194983705878" lon="-4.750814018771052">
        <ele>1304.6500000000001</ele>
        <time>2025-04-29T08:36:00Z</time>
      </trkpt>
      <trkpt lat="42.910147039219737" lon="-4.750549988821149">
        <ele>1304.6500000000001</ele>
        <time>2025-04-29T08:36:01Z</time>
      </trkpt>
      <trkpt lat="42.910130023956299" lon="-4.750280007719994">
        <ele>1304.6500000000001</ele>
        <time>2025-04-29T08:36:02Z</time>
      </trkpt>
      <trkpt lat="42.910113008692861" lon="-4.750012960284948">
        <ele>1304.6500000000001</ele>
        <time>2025-04-29T08:36:03Z</time>
      </trkpt>
      <trkpt lat="42.910095993429422" lon="-4.749747002497315">
        <ele>1304.6500000000001</ele>
        <time>2025-04-29T08:36:04Z</time>
      </trkpt>
      <trkpt lat="42.910049976781011" lon="-4.749480960890651">
        <ele>1304.1700000000001</ele>
        <time>2025-04-29T08:36:05Z</time>
      </trkpt>
      <trkpt lat="42.909977976232767" lon="-4.749227995052934">
        <ele>1304.1700000000001</ele>
        <time>2025-04-29T08:36:06Z</time>
      </trkpt>
      <trkpt lat="42.909877980127931" lon="-4.749009981751442">
        <ele>1304.1700000000001</ele>
        <time>2025-04-29T08:36:07Z</time>
      </trkpt>
      <trkpt lat="42.909787036478519" lon="-4.748839996755123">
        <ele>1303.6900000000001</ele>
        <time>2025-04-29T08:36:08Z</time>
      </trkpt>
      <trkpt lat="42.909614033997059" lon="-4.748694989830256">
        <ele>1303.6900000000001</ele>
        <time>2025-04-29T08:36:09Z</time>
      </trkpt>
      <trkpt lat="42.909469027072191" lon="-4.74857303313911">
        <ele>1303.6900000000001</ele>
        <time>2025-04-29T08:36:10Z</time>
      </trkpt>
      <trkpt lat="42.909327959641814" lon="-4.748455015942454">
        <ele>1303.2</ele>
        <time>2025-04-29T08:36:11Z</time>
      </trkpt>
      <trkpt lat="42.909206002950668" lon="-4.748299028724432">
        <ele>1303.2</ele>
        <time>2025-04-29T08:36:12Z</time>
      </trkpt>
      <trkpt lat="42.909112963825464" lon="-4.748114040121436">
        <ele>1303.2</ele>
        <time>2025-04-29T08:36:13Z</time>
      </trkpt>
      <trkpt lat="42.909054039046168" lon="-4.747901977971196">
        <ele>1303.2</ele>
        <time>2025-04-29T08:36:14Z</time>
      </trkpt>
      <trkpt lat="42.909011961892247" lon="-4.747681031003594">
        <ele>1303.2</ele>
        <time>2025-04-29T08:36:15Z</time>
      </trkpt>
      <trkpt lat="42.908999975770712" lon="-4.747446002438664">
        <ele>1303.2</ele>
        <time>2025-04-29T08:36:16Z</time>
      </trkpt>
      <trkpt lat="42.909006010740995" lon="-4.747211979702115">
        <ele>1303.2</ele>
        <time>2025-04-29T08:36:17Z</time>
      </trkpt>
      <trkpt lat="42.909035012125969" lon="-4.74696303717792">
        <ele>1303.2</ele>
        <time>2025-04-29T08:36:18Z</time>
      </trkpt>
      <trkpt lat="42.909094020724297" lon="-4.746222998946905">
        <ele>1303.6900000000001</ele>
        <time>2025-04-29T08:36:21Z</time>
      </trkpt>
      <trkpt lat="42.909085974097252" lon="-4.745983025059104">
        <ele>1304.1700000000001</ele>
        <time>2025-04-29T08:36:22Z</time>
      </trkpt>
      <trkpt lat="42.90907901711762" lon="-4.745793007314205">
        <ele>1304.6500000000001</ele>
        <time>2025-04-29T08:36:23Z</time>
      </trkpt>
      <trkpt lat="42.90912302210927" lon="-4.745524032041431">
        <ele>1304.6500000000001</ele>
        <time>2025-04-29T08:36:24Z</time>
      </trkpt>
      <trkpt lat="42.909159986302257" lon="-4.745295960456133">
        <ele>1304.6500000000001</ele>
        <time>2025-04-29T08:36:25Z</time>
      </trkpt>
      <trkpt lat="42.909197034314275" lon="-4.745067972689867">
        <ele>1305.1300000000001</ele>
        <time>2025-04-29T08:36:26Z</time>
      </trkpt>
      <trkpt lat="42.909225029870868" lon="-4.744840990751982">
        <ele>1305.6099999999999</ele>
        <time>2025-04-29T08:36:27Z</time>
      </trkpt>
      <trkpt lat="42.90927398018539" lon="-4.744389960542321">
        <ele>1306.0899999999999</ele>
        <time>2025-04-29T08:36:29Z</time>
      </trkpt>
      <trkpt lat="42.909322008490562" lon="-4.74395502358675">
        <ele>1306.5699999999999</ele>
        <time>2025-04-29T08:36:31Z</time>
      </trkpt>
      <trkpt lat="42.909327037632465" lon="-4.743746984750032">
        <ele>1306.5699999999999</ele>
        <time>2025-04-29T08:36:32Z</time>
      </trkpt>
      <trkpt lat="42.909298958256841" lon="-4.743536012247205">
        <ele>1307.05</ele>
        <time>2025-04-29T08:36:33Z</time>
      </trkpt>
      <trkpt lat="42.909270040690899" lon="-4.743323028087616">
        <ele>1307.05</ele>
        <time>2025-04-29T08:36:34Z</time>
      </trkpt>
      <trkpt lat="42.909226035699248" lon="-4.743114989250898">
        <ele>1307.05</ele>
        <time>2025-04-29T08:36:35Z</time>
      </trkpt>
      <trkpt lat="42.909149006009102" lon="-4.742928994819522">
        <ele>1306.5699999999999</ele>
        <time>2025-04-29T08:36:36Z</time>
      </trkpt>
      <trkpt lat="42.909064013510942" lon="-4.74275297485292">
        <ele>1306.5699999999999</ele>
        <time>2025-04-29T08:36:37Z</time>
      </trkpt>
      <trkpt lat="42.908959994092584" lon="-4.742591036483645">
        <ele>1306.5699999999999</ele>
        <time>2025-04-29T08:36:38Z</time>
      </trkpt>
      <trkpt lat="42.908834014087915" lon="-4.742446029558778">
        <ele>1306.5699999999999</ele>
        <time>2025-04-29T08:36:39Z</time>
      </trkpt>
      <trkpt lat="42.908689007163048" lon="-4.742318959906697">
        <ele>1306.0899999999999</ele>
        <time>2025-04-29T08:36:40Z</time>
      </trkpt>
      <trkpt lat="42.907919967547059" lon="-4.74161303602159">
        <ele>1306.0899999999999</ele>
        <time>2025-04-29T08:36:45Z</time>
      </trkpt>
      <trkpt lat="42.907778983935714" lon="-4.741451013833284">
        <ele>1306.0899999999999</ele>
        <time>2025-04-29T08:36:46Z</time>
      </trkpt>
      <trkpt lat="42.907668007537723" lon="-4.741250015795231">
        <ele>1306.0899999999999</ele>
        <time>2025-04-29T08:36:47Z</time>
      </trkpt>
      <trkpt lat="42.906967028975487" lon="-4.739510016515851">
        <ele>1307.05</ele>
        <time>2025-04-29T08:36:55Z</time>
      </trkpt>
      <trkpt lat="42.906488003209233" lon="-4.738469989970326">
        <ele>1308.49</ele>
        <time>2025-04-29T08:37:00Z</time>
      </trkpt>
      <trkpt lat="42.906368980184197" lon="-4.738294975832105">
        <ele>1308.49</ele>
        <time>2025-04-29T08:37:01Z</time>
      </trkpt>
      <trkpt lat="42.905305987223983" lon="-4.736823029816151">
        <ele>1310.4100000000001</ele>
        <time>2025-04-29T08:37:09Z</time>
      </trkpt>
      <trkpt lat="42.904915977269411" lon="-4.736331012099981">
        <ele>1311.8599999999999</ele>
        <time>2025-04-29T08:37:12Z</time>
      </trkpt>
      <trkpt lat="42.904770970344543" lon="-4.736244007945061">
        <ele>1311.8599999999999</ele>
        <time>2025-04-29T08:37:13Z</time>
      </trkpt>
      <trkpt lat="42.90461297146976" lon="-4.73617603071034">
        <ele>1312.3399999999999</ele>
        <time>2025-04-29T08:37:14Z</time>
      </trkpt>
      <trkpt lat="42.904452960938215" lon="-4.736154992133379">
        <ele>1312.8199999999999</ele>
        <time>2025-04-29T08:37:15Z</time>
      </trkpt>
      <trkpt lat="42.904277024790645" lon="-4.736149040982127">
        <ele>1312.8199999999999</ele>
        <time>2025-04-29T08:37:16Z</time>
      </trkpt>
      <trkpt lat="42.904089018702507" lon="-4.736142000183463">
        <ele>1312.8199999999999</ele>
        <time>2025-04-29T08:37:17Z</time>
      </trkpt>
      <trkpt lat="42.903905035927892" lon="-4.73613596521318">
        <ele>1312.8199999999999</ele>
        <time>2025-04-29T08:37:18Z</time>
      </trkpt>
      <trkpt lat="42.903718035668135" lon="-4.736130014061928">
        <ele>1313.3</ele>
        <time>2025-04-29T08:37:19Z</time>
      </trkpt>
      <trkpt lat="42.903358032926917" lon="-4.736117022112012">
        <ele>1313.3</ele>
        <time>2025-04-29T08:37:21Z</time>
      </trkpt>
      <trkpt lat="42.903177989646792" lon="-4.736142000183463">
        <ele>1313.78</ele>
        <time>2025-04-29T08:37:22Z</time>
      </trkpt>
      <trkpt lat="42.90257097221911" lon="-4.736259011551738">
        <ele>1313.78</ele>
        <time>2025-04-29T08:37:26Z</time>
      </trkpt>
      <trkpt lat="42.902471981942654" lon="-4.73630796186626">
        <ele>1313.78</ele>
        <time>2025-04-29T08:37:27Z</time>
      </trkpt>
      <trkpt lat="42.902394030243158" lon="-4.736369987949729">
        <ele>1313.78</ele>
        <time>2025-04-29T08:37:28Z</time>
      </trkpt>
      <trkpt lat="42.902328986674547" lon="-4.736445005983114">
        <ele>1313.3</ele>
        <time>2025-04-29T08:37:29Z</time>
      </trkpt>
      <trkpt lat="42.902289004996419" lon="-4.736532010138035">
        <ele>1313.3</ele>
        <time>2025-04-29T08:37:30Z</time>
      </trkpt>
      <trkpt lat="42.902267966419458" lon="-4.736643992364407">
        <ele>1313.3</ele>
        <time>2025-04-29T08:37:31Z</time>
      </trkpt>
      <trkpt lat="42.902243994176388" lon="-4.736773995682597">
        <ele>1313.3</ele>
        <time>2025-04-29T08:37:32Z</time>
      </trkpt>
      <trkpt lat="42.902218010276556" lon="-4.736915985122323">
        <ele>1312.8199999999999</ele>
        <time>2025-04-29T08:37:33Z</time>
      </trkpt>
      <trkpt lat="42.902189008891582" lon="-4.737065015360713">
        <ele>1312.3399999999999</ele>
        <time>2025-04-29T08:37:34Z</time>
      </trkpt>
      <trkpt lat="42.902138968929648" lon="-4.737203987315297">
        <ele>1311.8599999999999</ele>
        <time>2025-04-29T08:37:35Z</time>
      </trkpt>
      <trkpt lat="42.902060011401772" lon="-4.737328039482236">
        <ele>1311.3800000000001</ele>
        <time>2025-04-29T08:37:36Z</time>
      </trkpt>
      <trkpt lat="42.901961021125317" lon="-4.737399034202099">
        <ele>1311.3800000000001</ele>
        <time>2025-04-29T08:37:37Z</time>
      </trkpt>
      <trkpt lat="42.901851972565055" lon="-4.737414037808776">
        <ele>1310.9000000000001</ele>
        <time>2025-04-29T08:37:38Z</time>
      </trkpt>
      <trkpt lat="42.901742001995444" lon="-4.737425018101931">
        <ele>1310.9000000000001</ele>
        <time>2025-04-29T08:37:39Z</time>
      </trkpt>
      <trkpt lat="42.901633959263563" lon="-4.737435998395085">
        <ele>1310.4100000000001</ele>
        <time>2025-04-29T08:37:40Z</time>
      </trkpt>
      <trkpt lat="42.900711027905345" lon="-4.7373609803617">
        <ele>1308.97</ele>
        <time>2025-04-29T08:37:50Z</time>
      </trkpt>
      <trkpt lat="42.900612037628889" lon="-4.737392999231815">
        <ele>1309.45</ele>
        <time>2025-04-29T08:37:51Z</time>
      </trkpt>
      <trkpt lat="42.900517992675304" lon="-4.737425018101931">
        <ele>1309.45</ele>
        <time>2025-04-29T08:37:52Z</time>
      </trkpt>
      <trkpt lat="42.90022898465395" lon="-4.737771023064852">
        <ele>1309.9300000000001</ele>
        <time>2025-04-29T08:37:59Z</time>
      </trkpt>
      <trkpt lat="42.900158995762467" lon="-4.737883005291224">
        <ele>1308.01</ele>
        <time>2025-04-29T08:38:01Z</time>
      </trkpt>
      <trkpt lat="42.899810979142785" lon="-4.738438976928592">
        <ele>1305.1300000000001</ele>
        <time>2025-04-29T08:38:08Z</time>
      </trkpt>
      <trkpt lat="42.899763034656644" lon="-4.738517012447119">
        <ele>1305.1300000000001</ele>
        <time>2025-04-29T08:38:09Z</time>
      </trkpt>
      <trkpt lat="42.899663960561156" lon="-4.738661013543606">
        <ele>1304.6500000000001</ele>
        <time>2025-04-29T08:38:11Z</time>
      </trkpt>
      <trkpt lat="42.899615010246634" lon="-4.738700995221734">
        <ele>1304.6500000000001</ele>
        <time>2025-04-29T08:38:12Z</time>
      </trkpt>
      <trkpt lat="42.899247966706753" lon="-4.738997966051102">
        <ele>1303.2</ele>
        <time>2025-04-29T08:38:20Z</time>
      </trkpt>
      <trkpt lat="42.898986032232642" lon="-4.739255039021373">
        <ele>1303.6900000000001</ele>
        <time>2025-04-29T08:38:24Z</time>
      </trkpt>
      <trkpt lat="42.898903973400593" lon="-4.739329973235726">
        <ele>1303.6900000000001</ele>
        <time>2025-04-29T08:38:25Z</time>
      </trkpt>
      <trkpt lat="42.898815963417292" lon="-4.739407002925873">
        <ele>1304.1700000000001</ele>
        <time>2025-04-29T08:38:26Z</time>
      </trkpt>
      <trkpt lat="42.89872501976788" lon="-4.739486966282129">
        <ele>1304.6500000000001</ele>
        <time>2025-04-29T08:38:27Z</time>
      </trkpt>
      <trkpt lat="42.898633992299438" lon="-4.739567013457418">
        <ele>1305.1300000000001</ele>
        <time>2025-04-29T08:38:28Z</time>
      </trkpt>
      <trkpt lat="42.898379014804959" lon="-4.73978997208178">
        <ele>1305.6099999999999</ele>
        <time>2025-04-29T08:38:31Z</time>
      </trkpt>
      <trkpt lat="42.898325035348535" lon="-4.739835988730192">
        <ele>1305.6099999999999</ele>
        <time>2025-04-29T08:38:32Z</time>
      </trkpt>
      <trkpt lat="42.898287987336516" lon="-4.739869013428688">
        <ele>1306.0899999999999</ele>
        <time>2025-04-29T08:38:33Z</time>
      </trkpt>
      <trkpt lat="42.898258985951543" lon="-4.739893991500139">
        <ele>1306.0899999999999</ele>
        <time>2025-04-29T08:38:34Z</time>
      </trkpt>
      <trkpt lat="42.898236019536853" lon="-4.7399150300771">
        <ele>1306.5699999999999</ele>
        <time>2025-04-29T08:38:35Z</time>
      </trkpt>
      <trkpt lat="42.898214980959892" lon="-4.739932967349887">
        <ele>1307.05</ele>
        <time>2025-04-29T08:38:45Z</time>
      </trkpt>
      <trkpt lat="42.898214980959892" lon="-4.739932967349887">
        <ele>1307.53</ele>
        <time>2025-04-29T08:39:19Z</time>
      </trkpt>
      <trkpt lat="42.898214980959892" lon="-4.739932967349887">
        <ele>1307.05</ele>
        <time>2025-04-29T08:39:43Z</time>
      </trkpt>
      <trkpt lat="42.898214980959892" lon="-4.739932967349887">
        <ele>1306.5699999999999</ele>
        <time>2025-04-29T08:39:44Z</time>
      </trkpt>
      <trkpt lat="42.898214980959892" lon="-4.739932967349887">
        <ele>1305.6099999999999</ele>
        <time>2025-04-29T08:39:45Z</time>
      </trkpt>
      <trkpt lat="42.898069974035025" lon="-4.74008803255856">
        <ele>1301.76</ele>
        <time>2025-04-29T08:39:52Z</time>
      </trkpt>
      <trkpt lat="42.89803602732718" lon="-4.740138994529843">
        <ele>1300.8</ele>
        <time>2025-04-29T08:39:53Z</time>
      </trkpt>
      <trkpt lat="42.89799302816391" lon="-4.740203032270074">
        <ele>1299.3599999999999</ele>
        <time>2025-04-29T08:39:54Z</time>
      </trkpt>
      <trkpt lat="42.8977379668504" lon="-4.740720028057694">
        <ele>1296.96</ele>
        <time>2025-04-29T08:39:59Z</time>
      </trkpt>
      <trkpt lat="42.897682981565595" lon="-4.740868974477053">
        <ele>1295.99</ele>
        <time>2025-04-29T08:40:00Z</time>
      </trkpt>
      <trkpt lat="42.897486006841063" lon="-4.741559978574514">
        <ele>1292.6300000000001</ele>
        <time>2025-04-29T08:40:04Z</time>
      </trkpt>
      <trkpt lat="42.897449964657426" lon="-4.741748990491033">
        <ele>1292.1500000000001</ele>
        <time>2025-04-29T08:40:05Z</time>
      </trkpt>
      <trkpt lat="42.897247038781643" lon="-4.743593009188771">
        <ele>1284.9400000000001</ele>
        <time>2025-04-29T08:40:13Z</time>
      </trkpt>
      <trkpt lat="42.897195992991328" lon="-4.744073962792754">
        <ele>1282.54</ele>
        <time>2025-04-29T08:40:15Z</time>
      </trkpt>
      <trkpt lat="42.897210996598005" lon="-4.745061015710235">
        <ele>1277.25</ele>
        <time>2025-04-29T08:40:19Z</time>
      </trkpt>
      <trkpt lat="42.897190963849425" lon="-4.745304007083178">
        <ele>1275.8099999999999</ele>
        <time>2025-04-29T08:40:20Z</time>
      </trkpt>
      <trkpt lat="42.897149976342916" lon="-4.745552027598023">
        <ele>1274.8499999999999</ele>
        <time>2025-04-29T08:40:21Z</time>
      </trkpt>
      <trkpt lat="42.897021984681487" lon="-4.746315032243729">
        <ele>1270.04</ele>
        <time>2025-04-29T08:40:24Z</time>
      </trkpt>
      <trkpt lat="42.897007986903191" lon="-4.74657503888011">
        <ele>1268.5999999999999</ele>
        <time>2025-04-29T08:40:25Z</time>
      </trkpt>
      <trkpt lat="42.896982003003359" lon="-4.747084993869066">
        <ele>1265.71</ele>
        <time>2025-04-29T08:40:27Z</time>
      </trkpt>
      <trkpt lat="42.896943027153611" lon="-4.74734902381897">
        <ele>1264.75</ele>
        <time>2025-04-29T08:40:28Z</time>
      </trkpt>
      <trkpt lat="42.896682014688849" lon="-4.748313026502729">
        <ele>1258.5</ele>
        <time>2025-04-29T08:40:32Z</time>
      </trkpt>
      <trkpt lat="42.896590987220407" lon="-4.748540008440614">
        <ele>1257.0599999999999</ele>
        <time>2025-04-29T08:40:33Z</time>
      </trkpt>
      <trkpt lat="42.896498031914234" lon="-4.748714016750455">
        <ele>1255.6199999999999</ele>
        <time>2025-04-29T08:40:34Z</time>
      </trkpt>
      <trkpt lat="42.89616703055799" lon="-4.749213997274637">
        <ele>1251.29</ele>
        <time>2025-04-29T08:40:37Z</time>
      </trkpt>
      <trkpt lat="42.896056976169348" lon="-4.749306030571461">
        <ele>1249.8499999999999</ele>
        <time>2025-04-29T08:40:38Z</time>
      </trkpt>
      <trkpt lat="42.89593200199306" lon="-4.749351041391492">
        <ele>1248.4100000000001</ele>
        <time>2025-04-29T08:40:39Z</time>
      </trkpt>
      <trkpt lat="42.895852038636804" lon="-4.74936998449266">
        <ele>1247.9300000000001</ele>
        <time>2025-04-29T08:40:40Z</time>
      </trkpt>
      <trkpt lat="42.895763022825122" lon="-4.74930502474308">
        <ele>1246.49</ele>
        <time>2025-04-29T08:40:41Z</time>
      </trkpt>
      <trkpt lat="42.895624972879887" lon="-4.749205028638244">
        <ele>1246.01</ele>
        <time>2025-04-29T08:40:42Z</time>
      </trkpt>
      <trkpt lat="42.895581973716617" lon="-4.749118024483323">
        <ele>1245.04</ele>
        <time>2025-04-29T08:40:43Z</time>
      </trkpt>
      <trkpt lat="42.895504022017121" lon="-4.74896295927465">
        <ele>1244.0799999999999</ele>
        <time>2025-04-29T08:40:44Z</time>
      </trkpt>
      <trkpt lat="42.895423974841833" lon="-4.748802026733756">
        <ele>1243.1199999999999</ele>
        <time>2025-04-29T08:40:45Z</time>
      </trkpt>
      <trkpt lat="42.894772030413151" lon="-4.747519008815289">
        <ele>1240.24</ele>
        <time>2025-04-29T08:40:53Z</time>
      </trkpt>
      <trkpt lat="42.893992010504007" lon="-4.74632098339498">
        <ele>1240.24</ele>
        <time>2025-04-29T08:41:04Z</time>
      </trkpt>
      <trkpt lat="42.893951022997499" lon="-4.746287036687136">
        <ele>1240.24</ele>
        <time>2025-04-29T08:41:05Z</time>
      </trkpt>
      <trkpt lat="42.893843986093998" lon="-4.746287036687136">
        <ele>1239.76</ele>
        <time>2025-04-29T08:41:06Z</time>
      </trkpt>
      <trkpt lat="42.893773997202516" lon="-4.746314026415348">
        <ele>1239.76</ele>
        <time>2025-04-29T08:41:07Z</time>
      </trkpt>
      <trkpt lat="42.893699984997511" lon="-4.746388960629702">
        <ele>1239.28</ele>
        <time>2025-04-29T08:41:08Z</time>
      </trkpt>
      <trkpt lat="42.893608035519719" lon="-4.746479988098145">
        <ele>1239.28</ele>
        <time>2025-04-29T08:41:09Z</time>
      </trkpt>
      <trkpt lat="42.893553972244263" lon="-4.746579984202981">
        <ele>1238.8</ele>
        <time>2025-04-29T08:41:10Z</time>
      </trkpt>
      <trkpt lat="42.893485995009542" lon="-4.74670403636992">
        <ele>1238.3199999999999</ele>
        <time>2025-04-29T08:41:11Z</time>
      </trkpt>
      <trkpt lat="42.893416006118059" lon="-4.74683303385973">
        <ele>1237.8299999999999</ele>
        <time>2025-04-29T08:41:12Z</time>
      </trkpt>
      <trkpt lat="42.892572032287717" lon="-4.748374968767166">
        <ele>1233.51</ele>
        <time>2025-04-29T08:41:22Z</time>
      </trkpt>
      <trkpt lat="42.891607023775578" lon="-4.750245977193117">
        <ele>1228.22</ele>
        <time>2025-04-29T08:41:32Z</time>
      </trkpt>
      <trkpt lat="42.891532005742192" lon="-4.75044303573668">
        <ele>1227.74</ele>
        <time>2025-04-29T08:41:33Z</time>
      </trkpt>
      <trkpt lat="42.891496969386935" lon="-4.750659037381411">
        <ele>1227.26</ele>
        <time>2025-04-29T08:41:34Z</time>
      </trkpt>
      <trkpt lat="42.891483977437019" lon="-4.750885013490915">
        <ele>1226.78</ele>
        <time>2025-04-29T08:41:35Z</time>
      </trkpt>
      <trkpt lat="42.891471991315484" lon="-4.751114007085562">
        <ele>1226.3</ele>
        <time>2025-04-29T08:41:36Z</time>
      </trkpt>
      <trkpt lat="42.891221959143877" lon="-4.753844998776913">
        <ele>1223.4200000000001</ele>
        <time>2025-04-29T08:41:47Z</time>
      </trkpt>
      <trkpt lat="42.8909030277282" lon="-4.755640989169478">
        <ele>1221.97</ele>
        <time>2025-04-29T08:41:54Z</time>
      </trkpt>
      <trkpt lat="42.890814011916518" lon="-4.755875011906028">
        <ele>1221.97</ele>
        <time>2025-04-29T08:41:55Z</time>
      </trkpt>
      <trkpt lat="42.890697000548244" lon="-4.756087996065617">
        <ele>1221.97</ele>
        <time>2025-04-29T08:41:56Z</time>
      </trkpt>
      <trkpt lat="42.889555972069502" lon="-4.758299980312586">
        <ele>1221.01</ele>
        <time>2025-04-29T08:42:06Z</time>
      </trkpt>
      <trkpt lat="42.889467040076852" lon="-4.758538026362658">
        <ele>1221.01</ele>
        <time>2025-04-29T08:42:07Z</time>
      </trkpt>
      <trkpt lat="42.889391016215086" lon="-4.75878001190722">
        <ele>1221.01</ele>
        <time>2025-04-29T08:42:08Z</time>
      </trkpt>
      <trkpt lat="42.889350028708577" lon="-4.759037001058459">
        <ele>1221.01</ele>
        <time>2025-04-29T08:42:09Z</time>
      </trkpt>
      <trkpt lat="42.889082981273532" lon="-4.761161981150508">
        <ele>1221.01</ele>
        <time>2025-04-29T08:42:17Z</time>
      </trkpt>
      <trkpt lat="42.888427013531327" lon="-4.764396976679564">
        <ele>1229.6600000000001</ele>
        <time>2025-04-29T08:42:29Z</time>
      </trkpt>
      <trkpt lat="42.88843497633934" lon="-4.764665029942989">
        <ele>1230.6199999999999</ele>
        <time>2025-04-29T08:42:30Z</time>
      </trkpt>
      <trkpt lat="42.888470012694597" lon="-4.764940962195396">
        <ele>1231.5899999999999</ele>
        <time>2025-04-29T08:42:31Z</time>
      </trkpt>
      <trkpt lat="42.888688025996089" lon="-4.76759098470211">
        <ele>1238.8</ele>
        <time>2025-04-29T08:42:40Z</time>
      </trkpt>
      <trkpt lat="42.888770001009107" lon="-4.76836496964097">
        <ele>1241.2</ele>
        <time>2025-04-29T08:42:43Z</time>
      </trkpt>
      <trkpt lat="42.888832027092576" lon="-4.768624976277351">
        <ele>1242.1600000000001</ele>
        <time>2025-04-29T08:42:44Z</time>
      </trkpt>
      <trkpt lat="42.888892041519284" lon="-4.768909960985184">
        <ele>1242.1600000000001</ele>
        <time>2025-04-29T08:42:45Z</time>
      </trkpt>
      <trkpt lat="42.888918025419116" lon="-4.769208021461964">
        <ele>1242.6400000000001</ele>
        <time>2025-04-29T08:42:46Z</time>
      </trkpt>
      <trkpt lat="42.888945015147328" lon="-4.769515972584486">
        <ele>1243.1199999999999</ele>
        <time>2025-04-29T08:42:47Z</time>
      </trkpt>
      <trkpt lat="42.888951972126961" lon="-4.76982300169766">
        <ele>1243.5999999999999</ele>
        <time>2025-04-29T08:42:48Z</time>
      </trkpt>
      <trkpt lat="42.888951972126961" lon="-4.770120978355408">
        <ele>1243.5999999999999</ele>
        <time>2025-04-29T08:42:49Z</time>
      </trkpt>
      <trkpt lat="42.888922970741987" lon="-4.770410992205143">
        <ele>1243.5999999999999</ele>
        <time>2025-04-29T08:42:50Z</time>
      </trkpt>
      <trkpt lat="42.888869997113943" lon="-4.770943997427821">
        <ele>1243.1199999999999</ele>
        <time>2025-04-29T08:42:52Z</time>
      </trkpt>
      <trkpt lat="42.888886006549001" lon="-4.771195035427809">
        <ele>1242.6400000000001</ele>
        <time>2025-04-29T08:42:53Z</time>
      </trkpt>
      <trkpt lat="42.888953983783722" lon="-4.771423023194075">
        <ele>1242.1600000000001</ele>
        <time>2025-04-29T08:42:54Z</time>
      </trkpt>
      <trkpt lat="42.889467040076852" lon="-4.772979961708188">
        <ele>1238.3199999999999</ele>
        <time>2025-04-29T08:43:00Z</time>
      </trkpt>
      <trkpt lat="42.889513978734612" lon="-4.773247009143233">
        <ele>1237.8299999999999</ele>
        <time>2025-04-29T08:43:01Z</time>
      </trkpt>
      <trkpt lat="42.889557983726263" lon="-4.773497963324189">
        <ele>1237.8299999999999</ele>
        <time>2025-04-29T08:43:02Z</time>
      </trkpt>
      <trkpt lat="42.889587990939617" lon="-4.773746989667416">
        <ele>1237.3499999999999</ele>
        <time>2025-04-29T08:43:03Z</time>
      </trkpt>
      <trkpt lat="42.889539040625095" lon="-4.774002972990274">
        <ele>1236.3900000000001</ele>
        <time>2025-04-29T08:43:04Z</time>
      </trkpt>
      <trkpt lat="42.889487994834781" lon="-4.774265997111797">
        <ele>1235.4300000000001</ele>
        <time>2025-04-29T08:43:05Z</time>
      </trkpt>
      <trkpt lat="42.889436027035117" lon="-4.774532960727811">
        <ele>1234.95</ele>
        <time>2025-04-29T08:43:06Z</time>
      </trkpt>
      <trkpt lat="42.888998994603753" lon="-4.777072006836534">
        <ele>1234.95</ele>
        <time>2025-04-29T08:43:15Z</time>
      </trkpt>
      <trkpt lat="42.888951972126961" lon="-4.779441989958286">
        <ele>1234.95</ele>
        <time>2025-04-29T08:43:23Z</time>
      </trkpt>
      <trkpt lat="42.888987008482218" lon="-4.779704008251429">
        <ele>1234.95</ele>
        <time>2025-04-29T08:43:24Z</time>
      </trkpt>
      <trkpt lat="42.88903302513063" lon="-4.779953034594655">
        <ele>1235.4300000000001</ele>
        <time>2025-04-29T08:43:25Z</time>
      </trkpt>
      <trkpt lat="42.88909899070859" lon="-4.780197031795979">
        <ele>1235.9100000000001</ele>
        <time>2025-04-29T08:43:26Z</time>
      </trkpt>
      <trkpt lat="42.889381041750312" lon="-4.781240997835994">
        <ele>1236.3900000000001</ele>
        <time>2025-04-29T08:43:30Z</time>
      </trkpt>
      <trkpt lat="42.889394033700228" lon="-4.781506033614278">
        <ele>1236.3900000000001</ele>
        <time>2025-04-29T08:43:31Z</time>
      </trkpt>
      <trkpt lat="42.889407025650144" lon="-4.781794035807252">
        <ele>1236.3900000000001</ele>
        <time>2025-04-29T08:43:32Z</time>
      </trkpt>
      <trkpt lat="42.889396967366338" lon="-4.782365011051297">
        <ele>1235.9100000000001</ele>
        <time>2025-04-29T08:43:34Z</time>
      </trkpt>
      <trkpt lat="42.889363020658493" lon="-4.782646978273988">
        <ele>1235.4300000000001</ele>
        <time>2025-04-29T08:43:35Z</time>
      </trkpt>
      <trkpt lat="42.889308035373688" lon="-4.78292802348733">
        <ele>1234.95</ele>
        <time>2025-04-29T08:43:36Z</time>
      </trkpt>
      <trkpt lat="42.888823980465531" lon="-4.785480983555317">
        <ele>1235.9100000000001</ele>
        <time>2025-04-29T08:43:45Z</time>
      </trkpt>
      <trkpt lat="42.888802019879222" lon="-4.786627041175962">
        <ele>1237.3499999999999</ele>
        <time>2025-04-29T08:43:49Z</time>
      </trkpt>
      <trkpt lat="42.888874020427465" lon="-4.786885036155582">
        <ele>1237.8299999999999</ele>
        <time>2025-04-29T08:43:50Z</time>
      </trkpt>
      <trkpt lat="42.888941997662187" lon="-4.787130039185286">
        <ele>1238.3199999999999</ele>
        <time>2025-04-29T08:43:51Z</time>
      </trkpt>
      <trkpt lat="42.889041993767023" lon="-4.787351991981268">
        <ele>1238.3199999999999</ele>
        <time>2025-04-29T08:43:52Z</time>
      </trkpt>
      <trkpt lat="42.88914299570024" lon="-4.787561958655715">
        <ele>1239.28</ele>
        <time>2025-04-29T08:43:53Z</time>
      </trkpt>
      <trkpt lat="42.889250032603741" lon="-4.787754993885756">
        <ele>1239.76</ele>
        <time>2025-04-29T08:43:54Z</time>
      </trkpt>
      <trkpt lat="42.88937802426517" lon="-4.787926990538836">
        <ele>1240.72</ele>
        <time>2025-04-29T08:43:55Z</time>
      </trkpt>
      <trkpt lat="42.890617037191987" lon="-4.789595995098352">
        <ele>1240.24</ele>
        <time>2025-04-29T08:44:04Z</time>
      </trkpt>
      <trkpt lat="42.891474002972245" lon="-4.790769964456558">
        <ele>1238.3199999999999</ele>
        <time>2025-04-29T08:44:11Z</time>
      </trkpt>
      <trkpt lat="42.891577016562223" lon="-4.790939027443528">
        <ele>1237.8299999999999</ele>
        <time>2025-04-29T08:44:12Z</time>
      </trkpt>
      <trkpt lat="42.891823025420308" lon="-4.791505979374051">
        <ele>1236.8699999999999</ele>
        <time>2025-04-29T08:44:15Z</time>
      </trkpt>
      <trkpt lat="42.891916986554861" lon="-4.791661966592073">
        <ele>1236.3900000000001</ele>
        <time>2025-04-29T08:44:16Z</time>
      </trkpt>
      <trkpt lat="42.892026035115123" lon="-4.791775960475206">
        <ele>1235.9100000000001</ele>
        <time>2025-04-29T08:44:17Z</time>
      </trkpt>
      <trkpt lat="42.8923000395298" lon="-4.792071003466845">
        <ele>1233.99</ele>
        <time>2025-04-29T08:44:20Z</time>
      </trkpt>
      <trkpt lat="42.89236499927938" lon="-4.792173011228442">
        <ele>1233.51</ele>
        <time>2025-04-29T08:44:21Z</time>
      </trkpt>
      <trkpt lat="42.89242803119123" lon="-4.792270995676518">
        <ele>1233.51</ele>
        <time>2025-04-29T08:44:22Z</time>
      </trkpt>
      <trkpt lat="42.89245099760592" lon="-4.79238498955965">
        <ele>1233.03</ele>
        <time>2025-04-29T08:44:23Z</time>
      </trkpt>
      <trkpt lat="42.8924710303545" lon="-4.792484985664487">
        <ele>1232.55</ele>
        <time>2025-04-29T08:44:24Z</time>
      </trkpt>
      <trkpt lat="42.892448985949159" lon="-4.792656982317567">
        <ele>1232.0699999999999</ele>
        <time>2025-04-29T08:44:25Z</time>
      </trkpt>
      <trkpt lat="42.892423002049327" lon="-4.792764019221067">
        <ele>1231.5899999999999</ele>
        <time>2025-04-29T08:44:26Z</time>
      </trkpt>
      <trkpt lat="42.892326023429632" lon="-4.793152017518878">
        <ele>1231.1099999999999</ele>
        <time>2025-04-29T08:44:29Z</time>
      </trkpt>
      <trkpt lat="42.892240025103092" lon="-4.79324203915894">
        <ele>1230.6199999999999</ele>
        <time>2025-04-29T08:44:30Z</time>
      </trkpt>
      <trkpt lat="42.892153020948172" lon="-4.793318985030055">
        <ele>1230.6199999999999</ele>
        <time>2025-04-29T08:44:31Z</time>
      </trkpt>
      <trkpt lat="42.892047995701432" lon="-4.793353015556932">
        <ele>1231.1099999999999</ele>
        <time>2025-04-29T08:44:32Z</time>
      </trkpt>
      <trkpt lat="42.891940958797932" lon="-4.793386040255427">
        <ele>1231.1099999999999</ele>
        <time>2025-04-29T08:44:33Z</time>
      </trkpt>
      <trkpt lat="42.891836017370224" lon="-4.793402971699834">
        <ele>1231.5899999999999</ele>
        <time>2025-04-29T08:44:34Z</time>
      </trkpt>
      <trkpt lat="42.891726968809962" lon="-4.793386040255427">
        <ele>1231.5899999999999</ele>
        <time>2025-04-29T08:44:35Z</time>
      </trkpt>
      <trkpt lat="42.891615992411971" lon="-4.793369024991989">
        <ele>1232.0699999999999</ele>
        <time>2025-04-29T08:44:36Z</time>
      </trkpt>
      <trkpt lat="42.891511972993612" lon="-4.793315967544913">
        <ele>1232.0699999999999</ele>
        <time>2025-04-29T08:44:37Z</time>
      </trkpt>
      <trkpt lat="42.891404014080763" lon="-4.793246984481812">
        <ele>1232.55</ele>
        <time>2025-04-29T08:44:38Z</time>
      </trkpt>
      <trkpt lat="42.89129002019763" lon="-4.793175989761949">
        <ele>1233.03</ele>
        <time>2025-04-29T08:44:39Z</time>
      </trkpt>
      <trkpt lat="42.891173008829355" lon="-4.793101977556944">
        <ele>1233.51</ele>
        <time>2025-04-29T08:44:40Z</time>
      </trkpt>
      <trkpt lat="42.890926999971271" lon="-4.792969962581992">
        <ele>1233.99</ele>
        <time>2025-04-29T08:44:42Z</time>
      </trkpt>
      <trkpt lat="42.89079699665308" lon="-4.792924029752612">
        <ele>1234.47</ele>
        <time>2025-04-29T08:44:43Z</time>
      </trkpt>
      <trkpt lat="42.890536990016699" lon="-4.792831996455789">
        <ele>1235.9100000000001</ele>
        <time>2025-04-29T08:44:45Z</time>
      </trkpt>
      <trkpt lat="42.890406986698508" lon="-4.792785979807377">
        <ele>1236.8699999999999</ele>
        <time>2025-04-29T08:44:46Z</time>
      </trkpt>
      <trkpt lat="42.89030397310853" lon="-4.792693024501205">
        <ele>1237.8299999999999</ele>
        <time>2025-04-29T08:44:47Z</time>
      </trkpt>
      <trkpt lat="42.89021797478199" lon="-4.792549023404717">
        <ele>1238.8</ele>
        <time>2025-04-29T08:44:48Z</time>
      </trkpt>
      <trkpt lat="42.89013197645545" lon="-4.792406028136611">
        <ele>1239.28</ele>
        <time>2025-04-29T08:44:49Z</time>
      </trkpt>
      <trkpt lat="42.890044972300529" lon="-4.792262027040124">
        <ele>1239.76</ele>
        <time>2025-04-29T08:44:50Z</time>
      </trkpt>
      <trkpt lat="42.889956040307879" lon="-4.792114002630115">
        <ele>1240.24</ele>
        <time>2025-04-29T08:44:51Z</time>
      </trkpt>
      <trkpt lat="42.889842968434095" lon="-4.791980981826782">
        <ele>1240.72</ele>
        <time>2025-04-29T08:44:52Z</time>
      </trkpt>
      <trkpt lat="42.889707013964653" lon="-4.791894983500242">
        <ele>1240.72</ele>
        <time>2025-04-29T08:44:53Z</time>
      </trkpt>
      <trkpt lat="42.889565024524927" lon="-4.791806973516941">
        <ele>1241.2</ele>
        <time>2025-04-29T08:44:54Z</time>
      </trkpt>
      <trkpt lat="42.888379991054535" lon="-4.791214037686586">
        <ele>1242.6400000000001</ele>
        <time>2025-04-29T08:45:02Z</time>
      </trkpt>
      <trkpt lat="42.888155020773411" lon="-4.791171038523316">
        <ele>1243.1199999999999</ele>
        <time>2025-04-29T08:45:04Z</time>
      </trkpt>
      <trkpt lat="42.887775991111994" lon="-4.791098032146692">
        <ele>1243.1199999999999</ele>
        <time>2025-04-29T08:45:07Z</time>
      </trkpt>
      <trkpt lat="42.887629978358746" lon="-4.791069030761719">
        <ele>1243.1199999999999</ele>
        <time>2025-04-29T08:45:08Z</time>
      </trkpt>
      <trkpt lat="42.886832021176815" lon="-4.791111024096608">
        <ele>1243.5999999999999</ele>
        <time>2025-04-29T08:45:13Z</time>
      </trkpt>
      <trkpt lat="42.886703023687005" lon="-4.791204985231161">
        <ele>1243.5999999999999</ele>
        <time>2025-04-29T08:45:14Z</time>
      </trkpt>
      <trkpt lat="42.886573020368814" lon="-4.791302969679236">
        <ele>1243.5999999999999</ele>
        <time>2025-04-29T08:45:15Z</time>
      </trkpt>
      <trkpt lat="42.886484004557133" lon="-4.791369019076228">
        <ele>1244.0799999999999</ele>
        <time>2025-04-29T08:45:16Z</time>
      </trkpt>
      <trkpt lat="42.886372022330761" lon="-4.79158996604383">
        <ele>1244.0799999999999</ele>
        <time>2025-04-29T08:45:17Z</time>
      </trkpt>
      <trkpt lat="42.886276971548796" lon="-4.791777972131968">
        <ele>1244.0799999999999</ele>
        <time>2025-04-29T08:45:18Z</time>
      </trkpt>
      <trkpt lat="42.886174963787198" lon="-4.791978970170021">
        <ele>1244.5599999999999</ele>
        <time>2025-04-29T08:45:19Z</time>
      </trkpt>
      <trkpt lat="42.885388992726803" lon="-4.793665995821357">
        <ele>1245.53</ele>
        <time>2025-04-29T08:45:26Z</time>
      </trkpt>
      <trkpt lat="42.884961012750864" lon="-4.794674003496766">
        <ele>1246.01</ele>
        <time>2025-04-29T08:45:30Z</time>
      </trkpt>
      <trkpt lat="42.884832015261054" lon="-4.794857986271381">
        <ele>1246.01</ele>
        <time>2025-04-29T08:45:31Z</time>
      </trkpt>
      <trkpt lat="42.884678039699793" lon="-4.795006010681391">
        <ele>1246.01</ele>
        <time>2025-04-29T08:45:32Z</time>
      </trkpt>
      <trkpt lat="42.884388025850058" lon="-4.79526299983263">
        <ele>1246.01</ele>
        <time>2025-04-29T08:45:34Z</time>
      </trkpt>
      <trkpt lat="42.884249975904822" lon="-4.795389985665679">
        <ele>1246.49</ele>
        <time>2025-04-29T08:45:35Z</time>
      </trkpt>
      <trkpt lat="42.884178981184959" lon="-4.795595007017255">
        <ele>1246.49</ele>
        <time>2025-04-29T08:45:36Z</time>
      </trkpt>
      <trkpt lat="42.88390195928514" lon="-4.796536965295672">
        <ele>1247.9300000000001</ele>
        <time>2025-04-29T08:45:40Z</time>
      </trkpt>
      <trkpt lat="42.88379299454391" lon="-4.796967040747404">
        <ele>1248.8900000000001</ele>
        <time>2025-04-29T08:45:42Z</time>
      </trkpt>
      <trkpt lat="42.883714037016034" lon="-4.79713199660182">
        <ele>1249.3699999999999</ele>
        <time>2025-04-29T08:45:43Z</time>
      </trkpt>
      <trkpt lat="42.883586967363954" lon="-4.797226041555405">
        <ele>1249.8499999999999</ele>
        <time>2025-04-29T08:45:44Z</time>
      </trkpt>
      <trkpt lat="42.883325032889843" lon="-4.797435002401471">
        <ele>1250.8099999999999</ele>
        <time>2025-04-29T08:45:46Z</time>
      </trkpt>
      <trkpt lat="42.883223025128245" lon="-4.797571040689945">
        <ele>1251.29</ele>
        <time>2025-04-29T08:45:47Z</time>
      </trkpt>
      <trkpt lat="42.883171979337931" lon="-4.797761980444193">
        <ele>1251.77</ele>
        <time>2025-04-29T08:45:48Z</time>
      </trkpt>
      <trkpt lat="42.883120011538267" lon="-4.797973036766052">
        <ele>1252.25</ele>
        <time>2025-04-29T08:45:49Z</time>
      </trkpt>
      <trkpt lat="42.883069971576333" lon="-4.798210998997092">
        <ele>1252.25</ele>
        <time>2025-04-29T08:45:50Z</time>
      </trkpt>
      <trkpt lat="42.882661018520594" lon="-4.800175968557596">
        <ele>1254.1800000000001</ele>
        <time>2025-04-29T08:45:57Z</time>
      </trkpt>
      <trkpt lat="42.882386008277535" lon="-4.801497962325811">
        <ele>1254.1800000000001</ele>
        <time>2025-04-29T08:46:02Z</time>
      </trkpt>
      <trkpt lat="42.882268996909261" lon="-4.801675993949175">
        <ele>1254.6600000000001</ele>
        <time>2025-04-29T08:46:03Z</time>
      </trkpt>
      <trkpt lat="42.882151985540986" lon="-4.801855031400919">
        <ele>1254.6600000000001</ele>
        <time>2025-04-29T08:46:04Z</time>
      </trkpt>
      <trkpt lat="42.88203002884984" lon="-4.802042031660676">
        <ele>1255.1400000000001</ele>
        <time>2025-04-29T08:46:05Z</time>
      </trkpt>
      <trkpt lat="42.881874041631818" lon="-4.802185026928783">
        <ele>1255.1400000000001</ele>
        <time>2025-04-29T08:46:06Z</time>
      </trkpt>
      <trkpt lat="42.881714031100273" lon="-4.802327016368508">
        <ele>1255.1400000000001</ele>
        <time>2025-04-29T08:46:07Z</time>
      </trkpt>
      <trkpt lat="42.881557960063219" lon="-4.802463976666331">
        <ele>1255.6199999999999</ele>
        <time>2025-04-29T08:46:08Z</time>
      </trkpt>
      <trkpt lat="42.881410019472241" lon="-4.802593979984522">
        <ele>1255.6199999999999</ele>
        <time>2025-04-29T08:46:09Z</time>
      </trkpt>
      <trkpt lat="42.881290996447206" lon="-4.802699005231261">
        <ele>1256.0999999999999</ele>
        <time>2025-04-29T08:46:10Z</time>
      </trkpt>
      <trkpt lat="42.881198963150382" lon="-4.802873013541102">
        <ele>1256.5799999999999</ele>
        <time>2025-04-29T08:46:11Z</time>
      </trkpt>
      <trkpt lat="42.881120005622506" lon="-4.803021037951112">
        <ele>1256.5799999999999</ele>
        <time>2025-04-29T08:46:12Z</time>
      </trkpt>
      <trkpt lat="42.881041970103979" lon="-4.803247014060617">
        <ele>1257.0599999999999</ele>
        <time>2025-04-29T08:46:13Z</time>
      </trkpt>
      <trkpt lat="42.880962006747723" lon="-4.803479025140405">
        <ele>1257.54</ele>
        <time>2025-04-29T08:46:14Z</time>
      </trkpt>
      <trkpt lat="42.880675010383129" lon="-4.804440010339022">
        <ele>1256.0999999999999</ele>
        <time>2025-04-29T08:46:18Z</time>
      </trkpt>
      <trkpt lat="42.880680961534381" lon="-4.804652994498611">
        <ele>1255.6199999999999</ele>
        <time>2025-04-29T08:46:19Z</time>
      </trkpt>
      <trkpt lat="42.880708035081625" lon="-4.80486698448658">
        <ele>1255.1400000000001</ele>
        <time>2025-04-29T08:46:20Z</time>
      </trkpt>
      <trkpt lat="42.88097801618278" lon="-4.80643498711288">
        <ele>1253.22</ele>
        <time>2025-04-29T08:46:27Z</time>
      </trkpt>
      <trkpt lat="42.880942979827523" lon="-4.806582005694509">
        <ele>1253.22</ele>
        <time>2025-04-29T08:46:28Z</time>
      </trkpt>
      <trkpt lat="42.880864022299647" lon="-4.806708991527557">
        <ele>1252.25</ele>
        <time>2025-04-29T08:46:29Z</time>
      </trkpt>
      <trkpt lat="42.880766959860921" lon="-4.806795995682478">
        <ele>1250.8099999999999</ele>
        <time>2025-04-29T08:46:30Z</time>
      </trkpt>
      <trkpt lat="42.880668975412846" lon="-4.806882999837399">
        <ele>1249.3699999999999</ele>
        <time>2025-04-29T08:46:31Z</time>
      </trkpt>
      <trkpt lat="42.880544001236558" lon="-4.806895991787314">
        <ele>1247.9300000000001</ele>
        <time>2025-04-29T08:46:32Z</time>
      </trkpt>
      <trkpt lat="42.880411986261606" lon="-4.806893980130553">
        <ele>1246.49</ele>
        <time>2025-04-29T08:46:33Z</time>
      </trkpt>
      <trkpt lat="42.880277037620544" lon="-4.806859027594328">
        <ele>1245.04</ele>
        <time>2025-04-29T08:46:34Z</time>
      </trkpt>
      <trkpt lat="42.879626015201211" lon="-4.806691976264119">
        <ele>1240.24</ele>
        <time>2025-04-29T08:46:40Z</time>
      </trkpt>
      <trkpt lat="42.879532976076007" lon="-4.806644031777978">
        <ele>1239.76</ele>
        <time>2025-04-29T08:46:41Z</time>
      </trkpt>
      <trkpt lat="42.87943197414279" lon="-4.806588962674141">
        <ele>1239.28</ele>
        <time>2025-04-29T08:46:42Z</time>
      </trkpt>
      <trkpt lat="42.879338013008237" lon="-4.806519979611039">
        <ele>1239.28</ele>
        <time>2025-04-29T08:46:43Z</time>
      </trkpt>
      <trkpt lat="42.879242040216923" lon="-4.806428030133247">
        <ele>1238.8</ele>
        <time>2025-04-29T08:46:44Z</time>
      </trkpt>
      <trkpt lat="42.879142966121435" lon="-4.806333985179663">
        <ele>1238.8</ele>
        <time>2025-04-29T08:46:45Z</time>
      </trkpt>
      <trkpt lat="42.878727978095412" lon="-4.806010024622083">
        <ele>1238.8</ele>
        <time>2025-04-29T08:46:49Z</time>
      </trkpt>
      <trkpt lat="42.878613984212279" lon="-4.805957973003388">
        <ele>1238.8</ele>
        <time>2025-04-29T08:46:50Z</time>
      </trkpt>
      <trkpt lat="42.878493033349514" lon="-4.805913968011737">
        <ele>1239.28</ele>
        <time>2025-04-29T08:46:51Z</time>
      </trkpt>
      <trkpt lat="42.878268985077739" lon="-4.805883960798383">
        <ele>1240.72</ele>
        <time>2025-04-29T08:46:53Z</time>
      </trkpt>
      <trkpt lat="42.87816203199327" lon="-4.805904999375343">
        <ele>1241.2</ele>
        <time>2025-04-29T08:46:54Z</time>
      </trkpt>
      <trkpt lat="42.878069998696446" lon="-4.805975994095206">
        <ele>1241.2</ele>
        <time>2025-04-29T08:46:55Z</time>
      </trkpt>
      <trkpt lat="42.877976959571242" lon="-4.80604799464345">
        <ele>1241.2</ele>
        <time>2025-04-29T08:46:56Z</time>
      </trkpt>
      <trkpt lat="42.877887021750212" lon="-4.806171962991357">
        <ele>1241.2</ele>
        <time>2025-04-29T08:46:57Z</time>
      </trkpt>
      <trkpt lat="42.877793982625008" lon="-4.806389976292849">
        <ele>1241.6800000000001</ele>
        <time>2025-04-29T08:46:58Z</time>
      </trkpt>
      <trkpt lat="42.877774033695459" lon="-4.806524002924562">
        <ele>1241.6800000000001</ele>
        <time>2025-04-29T08:46:59Z</time>
      </trkpt>
      <trkpt lat="42.877639001235366" lon="-4.807307962328196">
        <ele>1241.2</ele>
        <time>2025-04-29T08:47:03Z</time>
      </trkpt>
      <trkpt lat="42.87734798155725" lon="-4.808843024075031">
        <ele>1240.72</ele>
        <time>2025-04-29T08:47:10Z</time>
      </trkpt>
      <trkpt lat="42.877355022355914" lon="-4.809057014063001">
        <ele>1240.72</ele>
        <time>2025-04-29T08:47:11Z</time>
      </trkpt>
      <trkpt lat="42.877381006255746" lon="-4.80926999822259">
        <ele>1240.72</ele>
        <time>2025-04-29T08:47:12Z</time>
      </trkpt>
      <trkpt lat="42.877521989867091" lon="-4.810368027538061">
        <ele>1240.24</ele>
        <time>2025-04-29T08:47:17Z</time>
      </trkpt>
      <trkpt lat="42.877526013180614" lon="-4.810558967292309">
        <ele>1240.24</ele>
        <time>2025-04-29T08:47:18Z</time>
      </trkpt>
      <trkpt lat="42.877486031502485" lon="-4.810744039714336">
        <ele>1240.24</ele>
        <time>2025-04-29T08:47:19Z</time>
      </trkpt>
      <trkpt lat="42.877421993762255" lon="-4.810900026932359">
        <ele>1240.24</ele>
        <time>2025-04-29T08:47:20Z</time>
      </trkpt>
      <trkpt lat="42.877326020970941" lon="-4.811042016372085">
        <ele>1240.24</ele>
        <time>2025-04-29T08:47:21Z</time>
      </trkpt>
      <trkpt lat="42.877214038744569" lon="-4.811132038012147">
        <ele>1239.76</ele>
        <time>2025-04-29T08:47:22Z</time>
      </trkpt>
      <trkpt lat="42.877061991021037" lon="-4.811177970841527">
        <ele>1239.76</ele>
        <time>2025-04-29T08:47:23Z</time>
      </trkpt>
      <trkpt lat="42.876926036551595" lon="-4.811163973063231">
        <ele>1239.28</ele>
        <time>2025-04-29T08:47:24Z</time>
      </trkpt>
      <trkpt lat="42.876792009919882" lon="-4.811100019142032">
        <ele>1239.28</ele>
        <time>2025-04-29T08:47:25Z</time>
      </trkpt>
      <trkpt lat="42.876657983288169" lon="-4.811003962531686">
        <ele>1238.8</ele>
        <time>2025-04-29T08:47:26Z</time>
      </trkpt>
      <trkpt lat="42.876514988020062" lon="-4.81090203858912">
        <ele>1238.3199999999999</ele>
        <time>2025-04-29T08:47:27Z</time>
      </trkpt>
      <trkpt lat="42.876367969438434" lon="-4.810797013342381">
        <ele>1238.3199999999999</ele>
        <time>2025-04-29T08:47:28Z</time>
      </trkpt>
      <trkpt lat="42.876219023019075" lon="-4.810743033885956">
        <ele>1237.8299999999999</ele>
        <time>2025-04-29T08:47:29Z</time>
      </trkpt>
      <trkpt lat="42.876064963638783" lon="-4.810691988095641">
        <ele>1237.8299999999999</ele>
        <time>2025-04-29T08:47:30Z</time>
      </trkpt>
      <trkpt lat="42.875904031097889" lon="-4.810652006417513">
        <ele>1237.8299999999999</ele>
        <time>2025-04-29T08:47:31Z</time>
      </trkpt>
      <trkpt lat="42.87573304027319" lon="-4.810629962012172">
        <ele>1237.8299999999999</ele>
        <time>2025-04-29T08:47:32Z</time>
      </trkpt>
      <trkpt lat="42.875566994771361" lon="-4.810629040002823">
        <ele>1237.8299999999999</ele>
        <time>2025-04-29T08:47:33Z</time>
      </trkpt>
      <trkpt lat="42.875400027260184" lon="-4.810663992539048">
        <ele>1237.3499999999999</ele>
        <time>2025-04-29T08:47:34Z</time>
      </trkpt>
      <trkpt lat="42.87524001672864" lon="-4.810697017237544">
        <ele>1237.3499999999999</ele>
        <time>2025-04-29T08:47:35Z</time>
      </trkpt>
      <trkpt lat="42.875088974833488" lon="-4.810740016400814">
        <ele>1236.8699999999999</ele>
        <time>2025-04-29T08:47:36Z</time>
      </trkpt>
      <trkpt lat="42.874943967908621" lon="-4.81083900667727">
        <ele>1236.3900000000001</ele>
        <time>2025-04-29T08:47:37Z</time>
      </trkpt>
      <trkpt lat="42.874311972409487" lon="-4.81131199747324">
        <ele>1234.95</ele>
        <time>2025-04-29T08:47:41Z</time>
      </trkpt>
      <trkpt lat="42.873537987470627" lon="-4.812104003503919">
        <ele>1232.55</ele>
        <time>2025-04-29T08:47:46Z</time>
      </trkpt>
      <trkpt lat="42.873352998867631" lon="-4.81223601847887">
        <ele>1232.55</ele>
        <time>2025-04-29T08:47:47Z</time>
      </trkpt>
      <trkpt lat="42.87315702997148" lon="-4.812350012362003">
        <ele>1232.0699999999999</ele>
        <time>2025-04-29T08:47:48Z</time>
      </trkpt>
      <trkpt lat="42.872025975957513" lon="-4.81303196400404">
        <ele>1230.1400000000001</ele>
        <time>2025-04-29T08:47:54Z</time>
      </trkpt>
      <trkpt lat="42.871842999011278" lon="-4.81315802782774">
        <ele>1230.1400000000001</ele>
        <time>2025-04-29T08:47:55Z</time>
      </trkpt>
      <trkpt lat="42.871542004868388" lon="-4.813530016690493">
        <ele>1229.1800000000001</ele>
        <time>2025-04-29T08:47:57Z</time>
      </trkpt>
      <trkpt lat="42.871404038742185" lon="-4.813702013343573">
        <ele>1228.7</ele>
        <time>2025-04-29T08:47:58Z</time>
      </trkpt>
      <trkpt lat="42.871324997395277" lon="-4.813914997503161">
        <ele>1228.22</ele>
        <time>2025-04-29T08:47:59Z</time>
      </trkpt>
      <trkpt lat="42.871264982968569" lon="-4.814151031896472">
        <ele>1227.74</ele>
        <time>2025-04-29T08:48:00Z</time>
      </trkpt>
      <trkpt lat="42.871218966320157" lon="-4.814398968592286">
        <ele>1227.26</ele>
        <time>2025-04-29T08:48:01Z</time>
      </trkpt>
      <trkpt lat="42.871172027662396" lon="-4.814647994935513">
        <ele>1226.3</ele>
        <time>2025-04-29T08:48:02Z</time>
      </trkpt>
      <trkpt lat="42.871082006022334" lon="-4.814876988530159">
        <ele>1225.8199999999999</ele>
        <time>2025-04-29T08:48:03Z</time>
      </trkpt>
      <trkpt lat="42.870983015745878" lon="-4.815099025145173">
        <ele>1225.3399999999999</ele>
        <time>2025-04-29T08:48:04Z</time>
      </trkpt>
      <trkpt lat="42.870889976620674" lon="-4.815309997648001">
        <ele>1225.3399999999999</ele>
        <time>2025-04-29T08:48:05Z</time>
      </trkpt>
      <trkpt lat="42.87081697024405" lon="-4.815494986250997">
        <ele>1224.8599999999999</ele>
        <time>2025-04-29T08:48:06Z</time>
      </trkpt>
      <trkpt lat="42.870804984122515" lon="-4.815693972632289">
        <ele>1224.8599999999999</ele>
        <time>2025-04-29T08:48:07Z</time>
      </trkpt>
      <trkpt lat="42.870839014649391" lon="-4.815890025347471">
        <ele>1224.8599999999999</ele>
        <time>2025-04-29T08:48:08Z</time>
      </trkpt>
      <trkpt lat="42.870887964963913" lon="-4.816097980365157">
        <ele>1224.8599999999999</ele>
        <time>2025-04-29T08:48:09Z</time>
      </trkpt>
      <trkpt lat="42.871520966291428" lon="-4.817615021020174">
        <ele>1227.74</ele>
        <time>2025-04-29T08:48:17Z</time>
      </trkpt>
      <trkpt lat="42.871605036780238" lon="-4.817799003794789">
        <ele>1228.22</ele>
        <time>2025-04-29T08:48:18Z</time>
      </trkpt>
      <trkpt lat="42.871669996529818" lon="-4.818005030974746">
        <ele>1228.22</ele>
        <time>2025-04-29T08:48:19Z</time>
      </trkpt>
      <trkpt lat="42.871703021228313" lon="-4.818233018741012">
        <ele>1228.7</ele>
        <time>2025-04-29T08:48:20Z</time>
      </trkpt>
      <trkpt lat="42.871704027056694" lon="-4.819137006998062">
        <ele>1232.55</ele>
        <time>2025-04-29T08:48:24Z</time>
      </trkpt>
      <trkpt lat="42.871681982651353" lon="-4.819340016692877">
        <ele>1233.51</ele>
        <time>2025-04-29T08:48:25Z</time>
      </trkpt>
      <trkpt lat="42.871591039001942" lon="-4.819511007517576">
        <ele>1234.47</ele>
        <time>2025-04-29T08:48:26Z</time>
      </trkpt>
      <trkpt lat="42.871490959078074" lon="-4.819684009999037">
        <ele>1235.4300000000001</ele>
        <time>2025-04-29T08:48:27Z</time>
      </trkpt>
      <trkpt lat="42.871381994336843" lon="-4.819845026358962">
        <ele>1235.9100000000001</ele>
        <time>2025-04-29T08:48:28Z</time>
      </trkpt>
      <trkpt lat="42.871073037385941" lon="-4.820225983858109">
        <ele>1238.3199999999999</ele>
        <time>2025-04-29T08:48:31Z</time>
      </trkpt>
      <trkpt lat="42.870958959683776" lon="-4.820302007719874">
        <ele>1239.28</ele>
        <time>2025-04-29T08:48:32Z</time>
      </trkpt>
      <trkpt lat="42.870844965800643" lon="-4.820323968306184">
        <ele>1239.76</ele>
        <time>2025-04-29T08:48:33Z</time>
      </trkpt>
      <trkpt lat="42.870718985795975" lon="-4.820295972749591">
        <ele>1240.24</ele>
        <time>2025-04-29T08:48:34Z</time>
      </trkpt>
      <trkpt lat="42.870599962770939" lon="-4.820221038535237">
        <ele>1240.72</ele>
        <time>2025-04-29T08:48:35Z</time>
      </trkpt>
      <trkpt lat="42.87047297693789" lon="-4.820137973874807">
        <ele>1241.2</ele>
        <time>2025-04-29T08:48:36Z</time>
      </trkpt>
      <trkpt lat="42.869962016120553" lon="-4.819865981116891">
        <ele>1242.6400000000001</ele>
        <time>2025-04-29T08:48:40Z</time>
      </trkpt>
      <trkpt lat="42.869830001145601" lon="-4.819878973066807">
        <ele>1243.1199999999999</ele>
        <time>2025-04-29T08:48:41Z</time>
      </trkpt>
      <trkpt lat="42.869707960635424" lon="-4.819944016635418">
        <ele>1243.5999999999999</ele>
        <time>2025-04-29T08:48:42Z</time>
      </trkpt>
      <trkpt lat="42.869582986459136" lon="-4.820009982213378">
        <ele>1244.0799999999999</ele>
        <time>2025-04-29T08:48:43Z</time>
      </trkpt>
      <trkpt lat="42.869453988969326" lon="-4.820077959448099">
        <ele>1244.5599999999999</ele>
        <time>2025-04-29T08:48:44Z</time>
      </trkpt>
      <trkpt lat="42.869099015370011" lon="-4.82029102742672">
        <ele>1245.53</ele>
        <time>2025-04-29T08:48:47Z</time>
      </trkpt>
      <trkpt lat="42.869014022871852" lon="-4.82042396441102">
        <ele>1246.01</ele>
        <time>2025-04-29T08:48:48Z</time>
      </trkpt>
      <trkpt lat="42.868930958211422" lon="-4.820557991042733">
        <ele>1246.49</ele>
        <time>2025-04-29T08:48:49Z</time>
      </trkpt>
      <trkpt lat="42.868892988190055" lon="-4.820736022666097">
        <ele>1246.97</ele>
        <time>2025-04-29T08:48:50Z</time>
      </trkpt>
      <trkpt lat="42.868854012340307" lon="-4.820925034582615">
        <ele>1246.97</ele>
        <time>2025-04-29T08:48:51Z</time>
      </trkpt>
      <trkpt lat="42.868814030662179" lon="-4.821118991822004">
        <ele>1247.9300000000001</ele>
        <time>2025-04-29T08:48:52Z</time>
      </trkpt>
      <trkpt lat="42.868737000972033" lon="-4.821486035361886">
        <ele>1249.3699999999999</ele>
        <time>2025-04-29T08:48:54Z</time>
      </trkpt>
      <trkpt lat="42.868674974888563" lon="-4.821642022579908">
        <ele>1249.8499999999999</ele>
        <time>2025-04-29T08:48:55Z</time>
      </trkpt>
      <trkpt lat="42.86858000792563" lon="-4.821777977049351">
        <ele>1250.3299999999999</ele>
        <time>2025-04-29T08:48:56Z</time>
      </trkpt>
      <trkpt lat="42.868483029305935" lon="-4.821916026994586">
        <ele>1250.8099999999999</ele>
        <time>2025-04-29T08:48:57Z</time>
      </trkpt>
      <trkpt lat="42.868384039029479" lon="-4.822056004777551">
        <ele>1250.8099999999999</ele>
        <time>2025-04-29T08:48:58Z</time>
      </trkpt>
      <trkpt lat="42.868119003251195" lon="-4.822448026388884">
        <ele>1252.25</ele>
        <time>2025-04-29T08:49:01Z</time>
      </trkpt>
      <trkpt lat="42.868053037673235" lon="-4.822565959766507">
        <ele>1253.22</ele>
        <time>2025-04-29T08:49:02Z</time>
      </trkpt>
      <trkpt lat="42.868052031844854" lon="-4.822733011096716">
        <ele>1253.7</ele>
        <time>2025-04-29T08:49:03Z</time>
      </trkpt>
      <trkpt lat="42.868052031844854" lon="-4.822888998314738">
        <ele>1254.1800000000001</ele>
        <time>2025-04-29T08:49:04Z</time>
      </trkpt>
      <trkpt lat="42.868096036836505" lon="-4.82304397970438">
        <ele>1255.1400000000001</ele>
        <time>2025-04-29T08:49:05Z</time>
      </trkpt>
      <trkpt lat="42.868169965222478" lon="-4.823190998286009">
        <ele>1255.1400000000001</ele>
        <time>2025-04-29T08:49:06Z</time>
      </trkpt>
      <trkpt lat="42.868257975205779" lon="-4.823338016867638">
        <ele>1255.1400000000001</ele>
        <time>2025-04-29T08:49:07Z</time>
      </trkpt>
      <trkpt lat="42.868355959653854" lon="-4.823482017964125">
        <ele>1255.1400000000001</ele>
        <time>2025-04-29T08:49:08Z</time>
      </trkpt>
      <trkpt lat="42.868850994855165" lon="-4.824087023735046">
        <ele>1255.1400000000001</ele>
        <time>2025-04-29T08:49:13Z</time>
      </trkpt>
      <trkpt lat="42.868959037587047" lon="-4.824190037325025">
        <ele>1255.1400000000001</ele>
        <time>2025-04-29T08:49:14Z</time>
      </trkpt>
      <trkpt lat="42.869070013985038" lon="-4.824295984581113">
        <ele>1255.1400000000001</ele>
        <time>2025-04-29T08:49:15Z</time>
      </trkpt>
      <trkpt lat="42.86916296929121" lon="-4.824431017041206">
        <ele>1254.6600000000001</ele>
        <time>2025-04-29T08:49:16Z</time>
      </trkpt>
      <trkpt lat="42.869253996759653" lon="-4.824585998430848">
        <ele>1254.1800000000001</ele>
        <time>2025-04-29T08:49:17Z</time>
      </trkpt>
      <trkpt lat="42.869300013408065" lon="-4.824791019782424">
        <ele>1254.1800000000001</ele>
        <time>2025-04-29T08:49:18Z</time>
      </trkpt>
      <trkpt lat="42.869357010349631" lon="-4.82503904029727">
        <ele>1253.22</ele>
        <time>2025-04-29T08:49:19Z</time>
      </trkpt>
      <trkpt lat="42.86971902474761" lon="-4.82673997990787">
        <ele>1248.4100000000001</ele>
        <time>2025-04-29T08:49:25Z</time>
      </trkpt>
      <trkpt lat="42.869706032797694" lon="-4.826967967674136">
        <ele>1247.9300000000001</ele>
        <time>2025-04-29T08:49:26Z</time>
      </trkpt>
      <trkpt lat="42.869682982563972" lon="-4.827138958498836">
        <ele>1246.97</ele>
        <time>2025-04-29T08:49:27Z</time>
      </trkpt>
      <trkpt lat="42.869605030864477" lon="-4.827311038970947">
        <ele>1246.49</ele>
        <time>2025-04-29T08:49:28Z</time>
      </trkpt>
      <trkpt lat="42.869511991739273" lon="-4.827429978176951">
        <ele>1246.01</ele>
        <time>2025-04-29T08:49:29Z</time>
      </trkpt>
      <trkpt lat="42.869391962885857" lon="-4.827508013695478">
        <ele>1245.53</ele>
        <time>2025-04-29T08:49:30Z</time>
      </trkpt>
      <trkpt lat="42.869259025901556" lon="-4.827523017302156">
        <ele>1244.5599999999999</ele>
        <time>2025-04-29T08:49:31Z</time>
      </trkpt>
      <trkpt lat="42.869142014533281" lon="-4.827481023967266">
        <ele>1244.0799999999999</ele>
        <time>2025-04-29T08:49:32Z</time>
      </trkpt>
      <trkpt lat="42.869034977629781" lon="-4.827402988448739">
        <ele>1243.5999999999999</ele>
        <time>2025-04-29T08:49:33Z</time>
      </trkpt>
      <trkpt lat="42.868936993181705" lon="-4.827264016494155">
        <ele>1243.1199999999999</ele>
        <time>2025-04-29T08:49:34Z</time>
      </trkpt>
      <trkpt lat="42.868834985420108" lon="-4.827116997912526">
        <ele>1242.1600000000001</ele>
        <time>2025-04-29T08:49:35Z</time>
      </trkpt>
      <trkpt lat="42.868726020678878" lon="-4.826966039836407">
        <ele>1241.6800000000001</ele>
        <time>2025-04-29T08:49:36Z</time>
      </trkpt>
      <trkpt lat="42.868438018485904" lon="-4.826581981033087">
        <ele>1239.76</ele>
        <time>2025-04-29T08:49:39Z</time>
      </trkpt>
      <trkpt lat="42.868272978812456" lon="-4.826457006856799">
        <ele>1239.28</ele>
        <time>2025-04-29T08:49:40Z</time>
      </trkpt>
      <trkpt lat="42.868141969665885" lon="-4.826359022408724">
        <ele>1238.3199999999999</ele>
        <time>2025-04-29T08:49:41Z</time>
      </trkpt>
      <trkpt lat="42.868016995489597" lon="-4.826314011588693">
        <ele>1237.8299999999999</ele>
        <time>2025-04-29T08:49:42Z</time>
      </trkpt>
      <trkpt lat="42.867880035191774" lon="-4.826296996325254">
        <ele>1236.8699999999999</ele>
        <time>2025-04-29T08:49:43Z</time>
      </trkpt>
      <trkpt lat="42.867757994681597" lon="-4.826281992718577">
        <ele>1236.3900000000001</ele>
        <time>2025-04-29T08:49:44Z</time>
      </trkpt>
      <trkpt lat="42.867751959711313" lon="-4.826280986890197">
        <ele>1236.3900000000001</ele>
        <time>2025-04-29T08:49:45Z</time>
      </trkpt>
      <trkpt lat="42.867597984150052" lon="-4.826391041278839">
        <ele>1235.9100000000001</ele>
        <time>2025-04-29T08:49:46Z</time>
      </trkpt>
      <trkpt lat="42.867457000538707" lon="-4.826491959393024">
        <ele>1235.4300000000001</ele>
        <time>2025-04-29T08:49:47Z</time>
      </trkpt>
      <trkpt lat="42.86731299944222" lon="-4.826593967154622">
        <ele>1235.4300000000001</ele>
        <time>2025-04-29T08:49:48Z</time>
      </trkpt>
      <trkpt lat="42.867107978090644" lon="-4.8267160076648">
        <ele>1234.95</ele>
        <time>2025-04-29T08:49:49Z</time>
      </trkpt>
      <trkpt lat="42.866874961182475" lon="-4.826664961874485">
        <ele>1234.47</ele>
        <time>2025-04-29T08:49:50Z</time>
      </trkpt>
      <trkpt lat="42.866743030026555" lon="-4.826593967154622">
        <ele>1233.03</ele>
        <time>2025-04-29T08:49:51Z</time>
      </trkpt>
      <trkpt lat="42.86658201366663" lon="-4.826478967443109">
        <ele>1231.5899999999999</ele>
        <time>2025-04-29T08:49:52Z</time>
      </trkpt>
      <trkpt lat="42.866436000913382" lon="-4.826356004923582">
        <ele>1230.1400000000001</ele>
        <time>2025-04-29T08:49:53Z</time>
      </trkpt>
      <trkpt lat="42.866288982331753" lon="-4.826232036575675">
        <ele>1229.1800000000001</ele>
        <time>2025-04-29T08:49:54Z</time>
      </trkpt>
      <trkpt lat="42.865695040673018" lon="-4.825745970010757">
        <ele>1227.26</ele>
        <time>2025-04-29T08:49:58Z</time>
      </trkpt>
      <trkpt lat="42.865560008212924" lon="-4.825701965019107">
        <ele>1226.78</ele>
        <time>2025-04-29T08:49:59Z</time>
      </trkpt>
      <trkpt lat="42.865412989631295" lon="-4.825701965019107">
        <ele>1226.78</ele>
        <time>2025-04-29T08:50:00Z</time>
      </trkpt>
      <trkpt lat="42.865297989919782" lon="-4.825787963345647">
        <ele>1226.78</ele>
        <time>2025-04-29T08:50:01Z</time>
      </trkpt>
      <trkpt lat="42.865192964673042" lon="-4.825927019119263">
        <ele>1226.3</ele>
        <time>2025-04-29T08:50:02Z</time>
      </trkpt>
      <trkpt lat="42.865109983831644" lon="-4.826099015772343">
        <ele>1226.3</ele>
        <time>2025-04-29T08:50:03Z</time>
      </trkpt>
      <trkpt lat="42.865068996325135" lon="-4.826313005760312">
        <ele>1225.8199999999999</ele>
        <time>2025-04-29T08:50:04Z</time>
      </trkpt>
      <trkpt lat="42.865022979676723" lon="-4.826549962162972">
        <ele>1225.8199999999999</ele>
        <time>2025-04-29T08:50:05Z</time>
      </trkpt>
      <trkpt lat="42.864800021052361" lon="-4.827535003423691">
        <ele>1222.9300000000001</ele>
        <time>2025-04-29T08:50:09Z</time>
      </trkpt>
      <trkpt lat="42.864722991362214" lon="-4.827759973704815">
        <ele>1221.97</ele>
        <time>2025-04-29T08:50:10Z</time>
      </trkpt>
      <trkpt lat="42.864368017762899" lon="-4.828620962798595">
        <ele>1218.1300000000001</ele>
        <time>2025-04-29T08:50:14Z</time>
      </trkpt>
      <trkpt lat="42.864246983081102" lon="-4.828819027170539">
        <ele>1217.1700000000001</ele>
        <time>2025-04-29T08:50:15Z</time>
      </trkpt>
      <trkpt lat="42.863279962912202" lon="-4.830531030893326">
        <ele>1210.4400000000001</ele>
        <time>2025-04-29T08:50:23Z</time>
      </trkpt>
      <trkpt lat="42.863180972635746" lon="-4.830658016726375">
        <ele>1209.48</ele>
        <time>2025-04-29T08:50:24Z</time>
      </trkpt>
      <trkpt lat="42.863073013722897" lon="-4.830711996182799">
        <ele>1208.51</ele>
        <time>2025-04-29T08:50:25Z</time>
      </trkpt>
      <trkpt lat="42.863008975982666" lon="-4.830744015052915">
        <ele>1208.51</ele>
        <time>2025-04-29T08:50:26Z</time>
      </trkpt>
      <trkpt lat="42.862897999584675" lon="-4.830710990354419">
        <ele>1208.03</ele>
        <time>2025-04-29T08:50:27Z</time>
      </trkpt>
      <trkpt lat="42.862794985994697" lon="-4.830679977312684">
        <ele>1207.55</ele>
        <time>2025-04-29T08:50:28Z</time>
      </trkpt>
      <trkpt lat="42.86271502263844" lon="-4.830620968714356">
        <ele>1207.0699999999999</ele>
        <time>2025-04-29T08:50:29Z</time>
      </trkpt>
      <trkpt lat="42.862613014876842" lon="-4.830545028671622">
        <ele>1207.55</ele>
        <time>2025-04-29T08:50:30Z</time>
      </trkpt>
      <trkpt lat="42.86179200746119" lon="-4.829933987930417">
        <ele>1204.1900000000001</ele>
        <time>2025-04-29T08:50:36Z</time>
      </trkpt>
      <trkpt lat="42.861020034179091" lon="-4.829450016841292">
        <ele>1202.75</ele>
        <time>2025-04-29T08:50:41Z</time>
      </trkpt>
      <trkpt lat="42.860885001718998" lon="-4.82946895994246">
        <ele>1203.23</ele>
        <time>2025-04-29T08:50:42Z</time>
      </trkpt>
      <trkpt lat="42.860745023936033" lon="-4.82951195910573">
        <ele>1203.71</ele>
        <time>2025-04-29T08:50:43Z</time>
      </trkpt>
      <trkpt lat="42.859908007085323" lon="-4.829885959625244">
        <ele>1207.55</ele>
        <time>2025-04-29T08:50:49Z</time>
      </trkpt>
      <trkpt lat="42.859177021309733" lon="-4.830489959567785">
        <ele>1208.03</ele>
        <time>2025-04-29T08:50:54Z</time>
      </trkpt>
      <trkpt lat="42.859073001891375" lon="-4.830678971484304">
        <ele>1208.03</ele>
        <time>2025-04-29T08:50:55Z</time>
      </trkpt>
      <trkpt lat="42.858672011643648" lon="-4.831354971975088">
        <ele>1208.03</ele>
        <time>2025-04-29T08:50:59Z</time>
      </trkpt>
      <trkpt lat="42.858578972518444" lon="-4.831423033028841">
        <ele>1208.03</ele>
        <time>2025-04-29T08:51:00Z</time>
      </trkpt>
      <trkpt lat="42.858473025262356" lon="-4.831449016928673">
        <ele>1207.55</ele>
        <time>2025-04-29T08:51:01Z</time>
      </trkpt>
      <trkpt lat="42.858375040814281" lon="-4.831473995000124">
        <ele>1207.55</ele>
        <time>2025-04-29T08:51:02Z</time>
      </trkpt>
      <trkpt lat="42.858276972547174" lon="-4.831393025815487">
        <ele>1207.0699999999999</ele>
        <time>2025-04-29T08:51:03Z</time>
      </trkpt>
      <trkpt lat="42.858173958957195" lon="-4.831307027488947">
        <ele>1206.5899999999999</ele>
        <time>2025-04-29T08:51:04Z</time>
      </trkpt>
      <trkpt lat="42.858078991994262" lon="-4.831227986142039">
        <ele>1206.5899999999999</ele>
        <time>2025-04-29T08:51:05Z</time>
      </trkpt>
      <trkpt lat="42.857991987839341" lon="-4.831154979765415">
        <ele>1206.5899999999999</ele>
        <time>2025-04-29T08:51:06Z</time>
      </trkpt>
      <trkpt lat="42.857914958149195" lon="-4.831090020015836">
        <ele>1206.1099999999999</ele>
        <time>2025-04-29T08:51:07Z</time>
      </trkpt>
      <trkpt lat="42.857820997014642" lon="-4.831050960347056">
        <ele>1206.1099999999999</ele>
        <time>2025-04-29T08:51:08Z</time>
      </trkpt>
      <trkpt lat="42.857718989253044" lon="-4.831065963953733">
        <ele>1206.1099999999999</ele>
        <time>2025-04-29T08:51:09Z</time>
      </trkpt>
      <trkpt lat="42.857483038678765" lon="-4.83116596005857">
        <ele>1205.6300000000001</ele>
        <time>2025-04-29T08:51:11Z</time>
      </trkpt>
      <trkpt lat="42.857355969026685" lon="-4.831268973648548">
        <ele>1205.6300000000001</ele>
        <time>2025-04-29T08:51:12Z</time>
      </trkpt>
      <trkpt lat="42.856932012364268" lon="-4.831611039116979">
        <ele>1205.1500000000001</ele>
        <time>2025-04-29T08:51:16Z</time>
      </trkpt>
      <trkpt lat="42.85680796019733" lon="-4.831844978034496">
        <ele>1205.1500000000001</ele>
        <time>2025-04-29T08:51:18Z</time>
      </trkpt>
      <trkpt lat="42.856744006276131" lon="-4.831975987181068">
        <ele>1204.6700000000001</ele>
        <time>2025-04-29T08:51:19Z</time>
      </trkpt>
      <trkpt lat="42.856620037928224" lon="-4.832231970503926">
        <ele>1203.71</ele>
        <time>2025-04-29T08:51:21Z</time>
      </trkpt>
      <trkpt lat="42.856566980481148" lon="-4.832339007407427">
        <ele>1203.23</ele>
        <time>2025-04-29T08:51:22Z</time>
      </trkpt>
      <trkpt lat="42.856493974104524" lon="-4.832431962713599">
        <ele>1202.75</ele>
        <time>2025-04-29T08:51:23Z</time>
      </trkpt>
      <trkpt lat="42.856401018798351" lon="-4.832469010725617">
        <ele>1202.27</ele>
        <time>2025-04-29T08:51:24Z</time>
      </trkpt>
      <trkpt lat="42.856290964409709" lon="-4.832503041252494">
        <ele>1201.79</ele>
        <time>2025-04-29T08:51:25Z</time>
      </trkpt>
      <trkpt lat="42.856178982183337" lon="-4.83249700628221">
        <ele>1201.3</ele>
        <time>2025-04-29T08:51:26Z</time>
      </trkpt>
      <trkpt lat="42.856065994128585" lon="-4.832491977140307">
        <ele>1201.3</ele>
        <time>2025-04-29T08:51:27Z</time>
      </trkpt>
      <trkpt lat="42.855953006073833" lon="-4.832487031817436">
        <ele>1200.8199999999999</ele>
        <time>2025-04-29T08:51:28Z</time>
      </trkpt>
      <trkpt lat="42.855838006362319" lon="-4.832493988797069">
        <ele>1200.3399999999999</ele>
        <time>2025-04-29T08:51:29Z</time>
      </trkpt>
      <trkpt lat="42.855725018307567" lon="-4.832544028759003">
        <ele>1199.3800000000001</ele>
        <time>2025-04-29T08:51:30Z</time>
      </trkpt>
      <trkpt lat="42.855619993060827" lon="-4.832618962973356">
        <ele>1198.9000000000001</ele>
        <time>2025-04-29T08:51:31Z</time>
      </trkpt>
      <trkpt lat="42.855188995599747" lon="-4.833049960434437">
        <ele>1195.54</ele>
        <time>2025-04-29T08:51:34Z</time>
      </trkpt>
      <trkpt lat="42.855011969804764" lon="-4.83322698622942">
        <ele>1194.5799999999999</ele>
        <time>2025-04-29T08:51:35Z</time>
      </trkpt>
      <trkpt lat="42.854608967900276" lon="-4.833728978410363">
        <ele>1191.6900000000001</ele>
        <time>2025-04-29T08:51:38Z</time>
      </trkpt>
      <trkpt lat="42.854539984837174" lon="-4.833909021690488">
        <ele>1190.25</ele>
        <time>2025-04-29T08:51:39Z</time>
      </trkpt>
      <trkpt lat="42.854511989280581" lon="-4.834296014159918">
        <ele>1187.8499999999999</ele>
        <time>2025-04-29T08:51:41Z</time>
      </trkpt>
      <trkpt lat="42.854511989280581" lon="-4.834498018026352">
        <ele>1186.4000000000001</ele>
        <time>2025-04-29T08:51:42Z</time>
      </trkpt>
      <trkpt lat="42.854511989280581" lon="-4.834705973044038">
        <ele>1184.96</ele>
        <time>2025-04-29T08:51:43Z</time>
      </trkpt>
      <trkpt lat="42.854481982067227" lon="-4.835552964359522">
        <ele>1179.1900000000001</ele>
        <time>2025-04-29T08:51:47Z</time>
      </trkpt>
      <trkpt lat="42.854411993175745" lon="-4.835749017074704">
        <ele>1177.27</ele>
        <time>2025-04-29T08:51:48Z</time>
      </trkpt>
      <trkpt lat="42.854319959878922" lon="-4.835930988192558">
        <ele>1175.8299999999999</ele>
        <time>2025-04-29T08:51:49Z</time>
      </trkpt>
      <trkpt lat="42.854006979614496" lon="-4.836546974256635">
        <ele>1171.02</ele>
        <time>2025-04-29T08:51:52Z</time>
      </trkpt>
      <trkpt lat="42.853894997388124" lon="-4.836766999214888">
        <ele>1169.0999999999999</ele>
        <time>2025-04-29T08:51:53Z</time>
      </trkpt>
      <trkpt lat="42.853789972141385" lon="-4.837001021951437">
        <ele>1167.1800000000001</ele>
        <time>2025-04-29T08:51:54Z</time>
      </trkpt>
      <trkpt lat="42.853723000735044" lon="-4.837263962253928">
        <ele>1165.26</ele>
        <time>2025-04-29T08:51:55Z</time>
      </trkpt>
      <trkpt lat="42.853657035157084" lon="-4.837519023567438">
        <ele>1163.8099999999999</ele>
        <time>2025-04-29T08:51:56Z</time>
      </trkpt>
      <trkpt lat="42.853595009073615" lon="-4.837762014940381">
        <ele>1162.3699999999999</ele>
        <time>2025-04-29T08:51:57Z</time>
      </trkpt>
      <trkpt lat="42.853508004918694" lon="-4.837967958301306">
        <ele>1160.45</ele>
        <time>2025-04-29T08:51:58Z</time>
      </trkpt>
      <trkpt lat="42.853439021855593" lon="-4.838083041831851">
        <ele>1158.53</ele>
        <time>2025-04-29T08:51:59Z</time>
      </trkpt>
      <trkpt lat="42.853313963860273" lon="-4.838166022673249">
        <ele>1156.5999999999999</ele>
        <time>2025-04-29T08:52:00Z</time>
      </trkpt>
      <trkpt lat="42.853210028260946" lon="-4.838215978816152">
        <ele>1155.1600000000001</ele>
        <time>2025-04-29T08:52:01Z</time>
      </trkpt>
      <trkpt lat="42.85306703299284" lon="-4.83823399990797">
        <ele>1153.72</ele>
        <time>2025-04-29T08:52:02Z</time>
      </trkpt>
      <trkpt lat="42.852906016632915" lon="-4.83825403265655">
        <ele>1151.8</ele>
        <time>2025-04-29T08:52:03Z</time>
      </trkpt>
      <trkpt lat="42.851686030626297" lon="-4.838368026539683">
        <ele>1141.7</ele>
        <time>2025-04-29T08:52:09Z</time>
      </trkpt>
      <trkpt lat="42.850607028231025" lon="-4.838409014046192">
        <ele>1134.97</ele>
        <time>2025-04-29T08:52:14Z</time>
      </trkpt>
      <trkpt lat="42.850422961637378" lon="-4.838364003226161">
        <ele>1134.01</ele>
        <time>2025-04-29T08:52:15Z</time>
      </trkpt>
      <trkpt lat="42.850245013833046" lon="-4.838283034041524">
        <ele>1133.05</ele>
        <time>2025-04-29T08:52:16Z</time>
      </trkpt>
      <trkpt lat="42.850077962502837" lon="-4.838153030723333">
        <ele>1132.5699999999999</ele>
        <time>2025-04-29T08:52:17Z</time>
      </trkpt>
      <trkpt lat="42.84990998916328" lon="-4.838022021576762">
        <ele>1131.6099999999999</ele>
        <time>2025-04-29T08:52:18Z</time>
      </trkpt>
      <trkpt lat="42.848480958491564" lon="-4.836891973391175">
        <ele>1127.76</ele>
        <time>2025-04-29T08:52:27Z</time>
      </trkpt>
      <trkpt lat="42.84832295961678" lon="-4.836806980893016">
        <ele>1128.24</ele>
        <time>2025-04-29T08:52:28Z</time>
      </trkpt>
      <trkpt lat="42.848154986277223" lon="-4.836776973679662">
        <ele>1128.24</ele>
        <time>2025-04-29T08:52:29Z</time>
      </trkpt>
      <trkpt lat="42.847991958260536" lon="-4.836838999763131">
        <ele>1128.73</ele>
        <time>2025-04-29T08:52:30Z</time>
      </trkpt>
      <trkpt lat="42.847808981314301" lon="-4.836920974776149">
        <ele>1129.21</ele>
        <time>2025-04-29T08:52:31Z</time>
      </trkpt>
      <trkpt lat="42.847617035731673" lon="-4.837005967274308">
        <ele>1130.1700000000001</ele>
        <time>2025-04-29T08:52:32Z</time>
      </trkpt>
      <trkpt lat="42.845903020352125" lon="-4.837786993011832">
        <ele>1139.78</ele>
        <time>2025-04-29T08:52:40Z</time>
      </trkpt>
      <trkpt lat="42.843634961172938" lon="-4.838729035109282">
        <ele>1144.5899999999999</ele>
        <time>2025-04-29T08:52:49Z</time>
      </trkpt>
      <trkpt lat="42.842611027881503" lon="-4.839011002331972">
        <ele>1144.5899999999999</ele>
        <time>2025-04-29T08:52:53Z</time>
      </trkpt>
      <trkpt lat="42.842364013195038" lon="-4.839127007871866">
        <ele>1144.1099999999999</ele>
        <time>2025-04-29T08:52:54Z</time>
      </trkpt>
      <trkpt lat="42.84213200211525" lon="-4.839293975383043">
        <ele>1143.6300000000001</ele>
        <time>2025-04-29T08:52:55Z</time>
      </trkpt>
      <trkpt lat="42.840059995651245" lon="-4.840777991339564">
        <ele>1141.22</ele>
        <time>2025-04-29T08:53:04Z</time>
      </trkpt>
      <trkpt lat="42.839851034805179" lon="-4.840904977172613">
        <ele>1140.74</ele>
        <time>2025-04-29T08:53:05Z</time>
      </trkpt>
      <trkpt lat="42.839611982926726" lon="-4.840959962457418">
        <ele>1139.78</ele>
        <time>2025-04-29T08:53:06Z</time>
      </trkpt>
      <trkpt lat="42.837481973692775" lon="-4.841452986001968">
        <ele>1135.9400000000001</ele>
        <time>2025-04-29T08:53:15Z</time>
      </trkpt>
      <trkpt lat="42.837292961776257" lon="-4.841491039842367">
        <ele>1135.45</ele>
        <time>2025-04-29T08:53:16Z</time>
      </trkpt>
      <trkpt lat="42.83712700009346" lon="-4.841429013758898">
        <ele>1134.97</ele>
        <time>2025-04-29T08:53:17Z</time>
      </trkpt>
      <trkpt lat="42.836960032582283" lon="-4.841365981847048">
        <ele>1134.01</ele>
        <time>2025-04-29T08:53:18Z</time>
      </trkpt>
      <trkpt lat="42.836812008172274" lon="-4.841236984357238">
        <ele>1133.53</ele>
        <time>2025-04-29T08:53:19Z</time>
      </trkpt>
      <trkpt lat="42.836663983762264" lon="-4.841106981039047">
        <ele>1133.53</ele>
        <time>2025-04-29T08:53:20Z</time>
      </trkpt>
      <trkpt lat="42.836616961285472" lon="-4.841064987704158">
        <ele>1133.05</ele>
        <time>2025-04-29T08:53:21Z</time>
      </trkpt>
      <trkpt lat="42.836401965469122" lon="-4.841022994369268">
        <ele>1132.5699999999999</ele>
        <time>2025-04-29T08:53:22Z</time>
      </trkpt>
      <trkpt lat="42.836268022656441" lon="-4.841050989925861">
        <ele>1132.0899999999999</ele>
        <time>2025-04-29T08:53:23Z</time>
      </trkpt>
      <trkpt lat="42.836084039881825" lon="-4.84109097160399">
        <ele>1131.6099999999999</ele>
        <time>2025-04-29T08:53:24Z</time>
      </trkpt>
      <trkpt lat="42.835888992995024" lon="-4.841131959110498">
        <ele>1131.1300000000001</ele>
        <time>2025-04-29T08:53:25Z</time>
      </trkpt>
      <trkpt lat="42.835748009383678" lon="-4.841187028214335">
        <ele>1130.6500000000001</ele>
        <time>2025-04-29T08:53:26Z</time>
      </trkpt>
      <trkpt lat="42.835577018558979" lon="-4.84130303375423">
        <ele>1130.1700000000001</ele>
        <time>2025-04-29T08:53:27Z</time>
      </trkpt>
      <trkpt lat="42.835405021905899" lon="-4.841419961303473">
        <ele>1129.21</ele>
        <time>2025-04-29T08:53:28Z</time>
      </trkpt>
      <trkpt lat="42.835200000554323" lon="-4.841559017077088">
        <ele>1128.73</ele>
        <time>2025-04-29T08:53:29Z</time>
      </trkpt>
      <trkpt lat="42.835053987801075" lon="-4.84160402789712">
        <ele>1127.76</ele>
        <time>2025-04-29T08:53:30Z</time>
      </trkpt>
      <trkpt lat="42.834831029176712" lon="-4.841615008190274">
        <ele>1127.28</ele>
        <time>2025-04-29T08:53:31Z</time>
      </trkpt>
      <trkpt lat="42.834668001160026" lon="-4.841560022905469">
        <ele>1126.8</ele>
        <time>2025-04-29T08:53:32Z</time>
      </trkpt>
      <trkpt lat="42.834479995071888" lon="-4.841424990445375">
        <ele>1126.3199999999999</ele>
        <time>2025-04-29T08:53:33Z</time>
      </trkpt>
      <trkpt lat="42.834338005632162" lon="-4.841291969642043">
        <ele>1126.3199999999999</ele>
        <time>2025-04-29T08:53:34Z</time>
      </trkpt>
      <trkpt lat="42.83420498482883" lon="-4.841187028214335">
        <ele>1126.3199999999999</ele>
        <time>2025-04-29T08:53:35Z</time>
      </trkpt>
      <trkpt lat="42.834024019539356" lon="-4.841146040707827">
        <ele>1126.3199999999999</ele>
        <time>2025-04-29T08:53:36Z</time>
      </trkpt>
      <trkpt lat="42.833846993744373" lon="-4.841130031272769">
        <ele>1125.8399999999999</ele>
        <time>2025-04-29T08:53:37Z</time>
      </trkpt>
      <trkpt lat="42.833649013191462" lon="-4.841145034879446">
        <ele>1125.8399999999999</ele>
        <time>2025-04-29T08:53:38Z</time>
      </trkpt>
      <trkpt lat="42.833457989618182" lon="-4.841249976307154">
        <ele>1125.8399999999999</ele>
        <time>2025-04-29T08:53:39Z</time>
      </trkpt>
      <trkpt lat="42.833265960216522" lon="-4.841355001553893">
        <ele>1125.8399999999999</ele>
        <time>2025-04-29T08:53:40Z</time>
      </trkpt>
      <trkpt lat="42.832488035783172" lon="-4.841644009575248">
        <ele>1125.8399999999999</ele>
        <time>2025-04-29T08:53:44Z</time>
      </trkpt>
      <trkpt lat="42.832322996109724" lon="-4.841665970161557">
        <ele>1125.8399999999999</ele>
        <time>2025-04-29T08:53:45Z</time>
      </trkpt>
      <trkpt lat="42.831827960908413" lon="-4.841702012345195">
        <ele>1124.8800000000001</ele>
        <time>2025-04-29T08:53:49Z</time>
      </trkpt>
      <trkpt lat="42.831735005602241" lon="-4.841707041487098">
        <ele>1124.4000000000001</ele>
        <time>2025-04-29T08:53:50Z</time>
      </trkpt>
      <trkpt lat="42.831620005890727" lon="-4.841763032600284">
        <ele>1123.9200000000001</ele>
        <time>2025-04-29T08:53:51Z</time>
      </trkpt>
      <trkpt lat="42.831536019220948" lon="-4.841836038976908">
        <ele>1123.4400000000001</ele>
        <time>2025-04-29T08:53:52Z</time>
      </trkpt>
      <trkpt lat="42.831452032551169" lon="-4.841922037303448">
        <ele>1122.96</ele>
        <time>2025-04-29T08:53:53Z</time>
      </trkpt>
      <trkpt lat="42.831370979547501" lon="-4.842008035629988">
        <ele>1122.96</ele>
        <time>2025-04-29T08:53:54Z</time>
      </trkpt>
      <trkpt lat="42.830624990165234" lon="-4.842640031129122">
        <ele>1122</ele>
        <time>2025-04-29T08:54:03Z</time>
      </trkpt>
      <trkpt lat="42.829645983874798" lon="-4.842941025272012">
        <ele>1123.9200000000001</ele>
        <time>2025-04-29T08:54:13Z</time>
      </trkpt>
      <trkpt lat="42.829451020807028" lon="-4.842984024435282">
        <ele>1123.9200000000001</ele>
        <time>2025-04-29T08:54:15Z</time>
      </trkpt>
      <trkpt lat="42.829355970025063" lon="-4.843004979193211">
        <ele>1123.9200000000001</ele>
        <time>2025-04-29T08:54:16Z</time>
      </trkpt>
      <trkpt lat="42.829257985576987" lon="-4.843058036640286">
        <ele>1123.9200000000001</ele>
        <time>2025-04-29T08:54:17Z</time>
      </trkpt>
      <trkpt lat="42.829175004735589" lon="-4.843136994168162">
        <ele>1124.4000000000001</ele>
        <time>2025-04-29T08:54:18Z</time>
      </trkpt>
      <trkpt lat="42.829093029722571" lon="-4.843215029686689">
        <ele>1123.9200000000001</ele>
        <time>2025-04-29T08:54:19Z</time>
      </trkpt>
      <trkpt lat="42.828936958685517" lon="-4.843363976106048">
        <ele>1123.9200000000001</ele>
        <time>2025-04-29T08:54:21Z</time>
      </trkpt>
      <trkpt lat="42.828858001157641" lon="-4.843439999967814">
        <ele>1123.9200000000001</ele>
        <time>2025-04-29T08:54:22Z</time>
      </trkpt>
      <trkpt lat="42.828775020316243" lon="-4.843473024666309">
        <ele>1123.9200000000001</ele>
        <time>2025-04-29T08:54:23Z</time>
      </trkpt>
      <trkpt lat="42.828678963705897" lon="-4.843479981645942">
        <ele>1123.9200000000001</ele>
        <time>2025-04-29T08:54:24Z</time>
      </trkpt>
      <trkpt lat="42.828580979257822" lon="-4.843487022444606">
        <ele>1123.9200000000001</ele>
        <time>2025-04-29T08:54:25Z</time>
      </trkpt>
      <trkpt lat="42.828184012323618" lon="-4.843553993850946">
        <ele>1123.4400000000001</ele>
        <time>2025-04-29T08:54:29Z</time>
      </trkpt>
      <trkpt lat="42.82799600623548" lon="-4.843615014106035">
        <ele>1123.4400000000001</ele>
        <time>2025-04-29T08:54:31Z</time>
      </trkpt>
      <trkpt lat="42.827945966273546" lon="-4.843704029917717">
        <ele>1123.4400000000001</ele>
        <time>2025-04-29T08:54:32Z</time>
      </trkpt>
      <trkpt lat="42.827901961281896" lon="-4.843789022415876">
        <ele>1123.4400000000001</ele>
        <time>2025-04-29T08:54:33Z</time>
      </trkpt>
      <trkpt lat="42.827855022624135" lon="-4.843878960236907">
        <ele>1123.4400000000001</ele>
        <time>2025-04-29T08:54:34Z</time>
      </trkpt>
      <trkpt lat="42.827806994318962" lon="-4.843970993533731">
        <ele>1123.4400000000001</ele>
        <time>2025-04-29T08:54:35Z</time>
      </trkpt>
      <trkpt lat="42.827640026807785" lon="-4.844352034851909">
        <ele>1122.96</ele>
        <time>2025-04-29T08:54:39Z</time>
      </trkpt>
      <trkpt lat="42.827500971034169" lon="-4.844713965430856">
        <ele>1122.96</ele>
        <time>2025-04-29T08:54:43Z</time>
      </trkpt>
      <trkpt lat="42.827460989356041" lon="-4.844801975414157">
        <ele>1122.96</ele>
        <time>2025-04-29T08:54:44Z</time>
      </trkpt>
      <trkpt lat="42.82722202129662" lon="-4.845305979251862">
        <ele>1122</ele>
        <time>2025-04-29T08:54:50Z</time>
      </trkpt>
      <trkpt lat="42.827187990769744" lon="-4.845384014770389">
        <ele>1121.52</ele>
        <time>2025-04-29T08:54:51Z</time>
      </trkpt>
      <trkpt lat="42.827119007706642" lon="-4.845546036958695">
        <ele>1121.03</ele>
        <time>2025-04-29T08:54:53Z</time>
      </trkpt>
      <trkpt lat="42.827040972188115" lon="-4.845704035833478">
        <ele>1120.55</ele>
        <time>2025-04-29T08:54:55Z</time>
      </trkpt>
      <trkpt lat="42.826998978853226" lon="-4.845780981704593">
        <ele>1120.0699999999999</ele>
        <time>2025-04-29T08:54:56Z</time>
      </trkpt>
      <trkpt lat="42.826952040195465" lon="-4.845869997516275">
        <ele>1119.5899999999999</ele>
        <time>2025-04-29T08:55:01Z</time>
      </trkpt>
      <trkpt lat="42.826944999396801" lon="-4.84588298946619">
        <ele>1119.5899999999999</ele>
        <time>2025-04-29T08:55:12Z</time>
      </trkpt>
      <trkpt lat="42.826929995790124" lon="-4.845910985022783">
        <ele>1118.6300000000001</ele>
        <time>2025-04-29T08:55:13Z</time>
      </trkpt>
      <trkpt lat="42.826690021902323" lon="-4.846369978040457">
        <ele>1117.6700000000001</ele>
        <time>2025-04-29T08:55:20Z</time>
      </trkpt>
      <trkpt lat="42.826650962233543" lon="-4.846448013558984">
        <ele>1117.6700000000001</ele>
        <time>2025-04-29T08:55:21Z</time>
      </trkpt>
      <trkpt lat="42.826611986383796" lon="-4.84652697108686">
        <ele>1117.1900000000001</ele>
        <time>2025-04-29T08:55:22Z</time>
      </trkpt>
      <trkpt lat="42.826241003349423" lon="-4.847237002104521">
        <ele>1116.71</ele>
        <time>2025-04-29T08:55:31Z</time>
      </trkpt>
      <trkpt lat="42.826204961165786" lon="-4.847304979339242">
        <ele>1117.1900000000001</ele>
        <time>2025-04-29T08:55:32Z</time>
      </trkpt>
      <trkpt lat="42.82616900280118" lon="-4.847373040392995">
        <ele>1118.1500000000001</ele>
        <time>2025-04-29T08:55:33Z</time>
      </trkpt>
      <trkpt lat="42.826049979776144" lon="-4.847512012347579">
        <ele>1118.6300000000001</ele>
        <time>2025-04-29T08:55:36Z</time>
      </trkpt>
      <trkpt lat="42.826004968956113" lon="-4.847607985138893">
        <ele>1118.1500000000001</ele>
        <time>2025-04-29T08:55:37Z</time>
      </trkpt>
      <trkpt lat="42.826021984219551" lon="-4.847674034535885">
        <ele>1118.6300000000001</ele>
        <time>2025-04-29T08:55:38Z</time>
      </trkpt>
      <trkpt lat="42.82604000531137" lon="-4.847747040912509">
        <ele>1118.6300000000001</ele>
        <time>2025-04-29T08:55:39Z</time>
      </trkpt>
      <trkpt lat="42.826060960069299" lon="-4.847821975126863">
        <ele>1119.1099999999999</ele>
        <time>2025-04-29T08:55:40Z</time>
      </trkpt>
      <trkpt lat="42.826242009177804" lon="-4.848490012809634">
        <ele>1120.0699999999999</ele>
        <time>2025-04-29T08:55:48Z</time>
      </trkpt>
      <trkpt lat="42.826280985027552" lon="-4.848576011136174">
        <ele>1120.0699999999999</ele>
        <time>2025-04-29T08:55:49Z</time>
      </trkpt>
      <trkpt lat="42.826352985575795" lon="-4.848633008077741">
        <ele>1119.5899999999999</ele>
        <time>2025-04-29T08:55:50Z</time>
      </trkpt>
      <trkpt lat="42.826434960588813" lon="-4.848682964220643">
        <ele>1119.5899999999999</ele>
        <time>2025-04-29T08:55:51Z</time>
      </trkpt>
      <trkpt lat="42.826520958915353" lon="-4.848736021667719">
        <ele>1119.5899999999999</ele>
        <time>2025-04-29T08:55:52Z</time>
      </trkpt>
      <trkpt lat="42.826615003868937" lon="-4.848785977810621">
        <ele>1119.5899999999999</ele>
        <time>2025-04-29T08:55:53Z</time>
      </trkpt>
      <trkpt lat="42.827829038724303" lon="-4.849185040220618">
        <ele>1118.6300000000001</ele>
        <time>2025-04-29T08:56:04Z</time>
      </trkpt>
      <trkpt lat="42.828766973689198" lon="-4.849437000229955">
        <ele>1118.6300000000001</ele>
        <time>2025-04-29T08:56:12Z</time>
      </trkpt>
      <trkpt lat="42.82887602224946" lon="-4.849509000778198">
        <ele>1118.6300000000001</ele>
        <time>2025-04-29T08:56:13Z</time>
      </trkpt>
      <trkpt lat="42.828981969505548" lon="-4.849579995498061">
        <ele>1118.6300000000001</ele>
        <time>2025-04-29T08:56:14Z</time>
      </trkpt>
      <trkpt lat="42.829074002802372" lon="-4.849676974117756">
        <ele>1119.1099999999999</ele>
        <time>2025-04-29T08:56:15Z</time>
      </trkpt>
      <trkpt lat="42.829161006957293" lon="-4.84979297965765">
        <ele>1119.5899999999999</ele>
        <time>2025-04-29T08:56:16Z</time>
      </trkpt>
      <trkpt lat="42.829237030819058" lon="-4.849917031824589">
        <ele>1120.0699999999999</ele>
        <time>2025-04-29T08:56:17Z</time>
      </trkpt>
      <trkpt lat="42.829298973083496" lon="-4.850057009607554">
        <ele>1120.55</ele>
        <time>2025-04-29T08:56:18Z</time>
      </trkpt>
      <trkpt lat="42.829363010823727" lon="-4.850203022360802">
        <ele>1121.52</ele>
        <time>2025-04-29T08:56:19Z</time>
      </trkpt>
      <trkpt lat="42.829708009958267" lon="-4.850968960672617">
        <ele>1123.4400000000001</ele>
        <time>2025-04-29T08:56:24Z</time>
      </trkpt>
      <trkpt lat="42.829789984971285" lon="-4.851086977869272">
        <ele>1123.4400000000001</ele>
        <time>2025-04-29T08:56:25Z</time>
      </trkpt>
      <trkpt lat="42.829862991347909" lon="-4.851192003116012">
        <ele>1123.9200000000001</ele>
        <time>2025-04-29T08:56:26Z</time>
      </trkpt>
      <trkpt lat="42.829946978017688" lon="-4.851271966472268">
        <ele>1123.9200000000001</ele>
        <time>2025-04-29T08:56:27Z</time>
      </trkpt>
      <trkpt lat="42.830043034628034" lon="-4.851353019475937">
        <ele>1123.9200000000001</ele>
        <time>2025-04-29T08:56:28Z</time>
      </trkpt>
      <trkpt lat="42.83014596439898" lon="-4.851441029459238">
        <ele>1123.9200000000001</ele>
        <time>2025-04-29T08:56:29Z</time>
      </trkpt>
      <trkpt lat="42.831104015931487" lon="-4.852516008540988">
        <ele>1125.8399999999999</ele>
        <time>2025-04-29T08:56:37Z</time>
      </trkpt>
      <trkpt lat="42.831228990107775" lon="-4.85269202850759">
        <ele>1125.8399999999999</ele>
        <time>2025-04-29T08:56:38Z</time>
      </trkpt>
      <trkpt lat="42.831853022798896" lon="-4.85357497818768">
        <ele>1128.24</ele>
        <time>2025-04-29T08:56:43Z</time>
      </trkpt>
      <trkpt lat="42.832018984481692" lon="-4.853701964020729">
        <ele>1128.73</ele>
        <time>2025-04-29T08:56:44Z</time>
      </trkpt>
      <trkpt lat="42.832176983356476" lon="-4.853821992874146">
        <ele>1129.21</ele>
        <time>2025-04-29T08:56:45Z</time>
      </trkpt>
      <trkpt lat="42.832340011373162" lon="-4.853931963443756">
        <ele>1130.1700000000001</ele>
        <time>2025-04-29T08:56:46Z</time>
      </trkpt>
      <trkpt lat="42.832520976662636" lon="-4.85400103032589">
        <ele>1130.6500000000001</ele>
        <time>2025-04-29T08:56:47Z</time>
      </trkpt>
      <trkpt lat="42.833901979029179" lon="-4.854512996971607">
        <ele>1132.5699999999999</ele>
        <time>2025-04-29T08:56:53Z</time>
      </trkpt>
      <trkpt lat="42.837551962584257" lon="-4.855852006003261">
        <ele>1137.3800000000001</ele>
        <time>2025-04-29T08:57:07Z</time>
      </trkpt>
      <trkpt lat="42.840227968990803" lon="-4.856816008687019">
        <ele>1140.74</ele>
        <time>2025-04-29T08:57:18Z</time>
      </trkpt>
      <trkpt lat="42.841132963076234" lon="-4.857062017545104">
        <ele>1142.1800000000001</ele>
        <time>2025-04-29T08:57:22Z</time>
      </trkpt>
      <trkpt lat="42.841366985812783" lon="-4.857048019766808">
        <ele>1142.6600000000001</ele>
        <time>2025-04-29T08:57:23Z</time>
      </trkpt>
      <trkpt lat="42.842225041240454" lon="-4.856850039213896">
        <ele>1143.6300000000001</ele>
        <time>2025-04-29T08:57:27Z</time>
      </trkpt>
      <trkpt lat="42.842403994873166" lon="-4.856735039502382">
        <ele>1143.6300000000001</ele>
        <time>2025-04-29T08:57:28Z</time>
      </trkpt>
      <trkpt lat="42.84258202649653" lon="-4.856558013707399">
        <ele>1144.1099999999999</ele>
        <time>2025-04-29T08:57:29Z</time>
      </trkpt>
      <trkpt lat="42.842714041471481" lon="-4.856356009840965">
        <ele>1145.0699999999999</ele>
        <time>2025-04-29T08:57:30Z</time>
      </trkpt>
      <trkpt lat="42.842817977070808" lon="-4.856096003204584">
        <ele>1146.51</ele>
        <time>2025-04-29T08:57:31Z</time>
      </trkpt>
      <trkpt lat="42.842918979004025" lon="-4.855843037366867">
        <ele>1147.47</ele>
        <time>2025-04-29T08:57:32Z</time>
      </trkpt>
      <trkpt lat="42.843159958720207" lon="-4.855388989672065">
        <ele>1148.9100000000001</ele>
        <time>2025-04-29T08:57:34Z</time>
      </trkpt>
      <trkpt lat="42.843309994786978" lon="-4.855192014947534">
        <ele>1149.3900000000001</ele>
        <time>2025-04-29T08:57:35Z</time>
      </trkpt>
      <trkpt lat="42.8434850089252" lon="-4.855038961395621">
        <ele>1149.8699999999999</ele>
        <time>2025-04-29T08:57:36Z</time>
      </trkpt>
      <trkpt lat="42.843667985871434" lon="-4.854900995269418">
        <ele>1149.8699999999999</ele>
        <time>2025-04-29T08:57:37Z</time>
      </trkpt>
      <trkpt lat="42.84387300722301" lon="-4.854833018034697">
        <ele>1149.8699999999999</ele>
        <time>2025-04-29T08:57:38Z</time>
      </trkpt>
      <trkpt lat="42.844081968069077" lon="-4.854770991951227">
        <ele>1149.8699999999999</ele>
        <time>2025-04-29T08:57:39Z</time>
      </trkpt>
      <trkpt lat="42.844297969713807" lon="-4.854736961424351">
        <ele>1150.3499999999999</ele>
        <time>2025-04-29T08:57:40Z</time>
      </trkpt>
      <trkpt lat="42.845156025141478" lon="-4.854664960876107">
        <ele>1151.3199999999999</ele>
        <time>2025-04-29T08:57:44Z</time>
      </trkpt>
      <trkpt lat="42.846672981977463" lon="-4.854447031393647">
        <ele>1153.24</ele>
        <time>2025-04-29T08:57:51Z</time>
      </trkpt>
      <trkpt lat="42.84834198653698" lon="-4.853662988170981">
        <ele>1159.97</ele>
        <time>2025-04-29T08:57:59Z</time>
      </trkpt>
      <trkpt lat="42.84930900670588" lon="-4.853227967396379">
        <ele>1163.3299999999999</ele>
        <time>2025-04-29T08:58:04Z</time>
      </trkpt>
      <trkpt lat="42.849513022229075" lon="-4.853188991546631">
        <ele>1163.8099999999999</ele>
        <time>2025-04-29T08:58:05Z</time>
      </trkpt>
      <trkpt lat="42.849721983075142" lon="-4.853188991546631">
        <ele>1163.8099999999999</ele>
        <time>2025-04-29T08:58:06Z</time>
      </trkpt>
      <trkpt lat="42.851289985701442" lon="-4.853141969069839">
        <ele>1161.4100000000001</ele>
        <time>2025-04-29T08:58:13Z</time>
      </trkpt>
      <trkpt lat="42.85150196403265" lon="-4.853063011541963">
        <ele>1161.8900000000001</ele>
        <time>2025-04-29T08:58:14Z</time>
      </trkpt>
      <trkpt lat="42.851705979555845" lon="-4.852953962981701">
        <ele>1162.3699999999999</ele>
        <time>2025-04-29T08:58:15Z</time>
      </trkpt>
      <trkpt lat="42.852902999147773" lon="-4.852308975532651">
        <ele>1168.1400000000001</ele>
        <time>2025-04-29T08:58:21Z</time>
      </trkpt>
      <trkpt lat="42.853096034377813" lon="-4.852282991632819">
        <ele>1169.0999999999999</ele>
        <time>2025-04-29T08:58:22Z</time>
      </trkpt>
      <trkpt lat="42.853302983567119" lon="-4.852253990247846">
        <ele>1170.0599999999999</ele>
        <time>2025-04-29T08:58:23Z</time>
      </trkpt>
      <trkpt lat="42.854137988761067" lon="-4.852174026891589">
        <ele>1174.8699999999999</ele>
        <time>2025-04-29T08:58:27Z</time>
      </trkpt>
      <trkpt lat="42.855815039947629" lon="-4.85258499160409">
        <ele>1184</ele>
        <time>2025-04-29T08:58:35Z</time>
      </trkpt>
      <trkpt lat="42.857261002063751" lon="-4.853369034826756">
        <ele>1192.1700000000001</ele>
        <time>2025-04-29T08:58:42Z</time>
      </trkpt>
      <trkpt lat="42.857483038678765" lon="-4.853424020111561">
        <ele>1192.6500000000001</ele>
        <time>2025-04-29T08:58:43Z</time>
      </trkpt>
      <trkpt lat="42.859297972172499" lon="-4.853526027873159">
        <ele>1202.75</ele>
        <time>2025-04-29T08:58:51Z</time>
      </trkpt>
      <trkpt lat="42.860578978434205" lon="-4.85363700427115">
        <ele>1206.5899999999999</ele>
        <time>2025-04-29T08:58:57Z</time>
      </trkpt>
      <trkpt lat="42.86078198812902" lon="-4.853717973455787">
        <ele>1207.55</ele>
        <time>2025-04-29T08:58:58Z</time>
      </trkpt>
      <trkpt lat="42.862747041508555" lon="-4.854522971436381">
        <ele>1217.6500000000001</ele>
        <time>2025-04-29T08:59:07Z</time>
      </trkpt>
      <trkpt lat="42.864871015772223" lon="-4.855542965233326">
        <ele>1232.55</ele>
        <time>2025-04-29T08:59:17Z</time>
      </trkpt>
      <trkpt lat="42.865793025121093" lon="-4.856080999597907">
        <ele>1239.28</ele>
        <time>2025-04-29T08:59:22Z</time>
      </trkpt>
      <trkpt lat="42.865945994853973" lon="-4.856251990422607">
        <ele>1240.72</ele>
        <time>2025-04-29T08:59:23Z</time>
      </trkpt>
      <trkpt lat="42.866075998172164" lon="-4.856471009552479">
        <ele>1242.1600000000001</ele>
        <time>2025-04-29T08:59:24Z</time>
      </trkpt>
      <trkpt lat="42.866201978176832" lon="-4.856700003147125">
        <ele>1243.1199999999999</ele>
        <time>2025-04-29T08:59:25Z</time>
      </trkpt>
      <trkpt lat="42.866328964009881" lon="-4.856932014226914">
        <ele>1245.04</ele>
        <time>2025-04-29T08:59:26Z</time>
      </trkpt>
      <trkpt lat="42.867085011675954" lon="-4.858672013506293">
        <ele>1253.7</ele>
        <time>2025-04-29T08:59:33Z</time>
      </trkpt>
      <trkpt lat="42.867225995287299" lon="-4.858889020979404">
        <ele>1255.1400000000001</ele>
        <time>2025-04-29T08:59:34Z</time>
      </trkpt>
      <trkpt lat="42.86737703718245" lon="-4.859097981825471">
        <ele>1256.0999999999999</ele>
        <time>2025-04-29T08:59:35Z</time>
      </trkpt>
      <trkpt lat="42.867535036057234" lon="-4.859296968206763">
        <ele>1257.54</ele>
        <time>2025-04-29T08:59:36Z</time>
      </trkpt>
      <trkpt lat="42.867717007175088" lon="-4.859453039243817">
        <ele>1258.5</ele>
        <time>2025-04-29T08:59:37Z</time>
      </trkpt>
      <trkpt lat="42.868459979072213" lon="-4.860025020316243">
        <ele>1263.79</ele>
        <time>2025-04-29T08:59:41Z</time>
      </trkpt>
      <trkpt lat="42.868660977110267" lon="-4.86010598950088">
        <ele>1264.75</ele>
        <time>2025-04-29T08:59:42Z</time>
      </trkpt>
      <trkpt lat="42.868871027603745" lon="-4.860145971179009">
        <ele>1266.1900000000001</ele>
        <time>2025-04-29T08:59:43Z</time>
      </trkpt>
      <trkpt lat="42.869430016726255" lon="-4.860283015295863">
        <ele>1270.04</ele>
        <time>2025-04-29T08:59:46Z</time>
      </trkpt>
      <trkpt lat="42.869561025872827" lon="-4.860368007794023">
        <ele>1271.48</ele>
        <time>2025-04-29T08:59:47Z</time>
      </trkpt>
      <trkpt lat="42.869666973128915" lon="-4.860493987798691">
        <ele>1272.4400000000001</ele>
        <time>2025-04-29T08:59:48Z</time>
      </trkpt>
      <trkpt lat="42.869768980890512" lon="-4.860613010823727">
        <ele>1273.8800000000001</ele>
        <time>2025-04-29T08:59:49Z</time>
      </trkpt>
      <trkpt lat="42.869814997538924" lon="-4.86077100969851">
        <ele>1274.3599999999999</ele>
        <time>2025-04-29T08:59:50Z</time>
      </trkpt>
      <trkpt lat="42.869865037500858" lon="-4.860939988866448">
        <ele>1275.3299999999999</ele>
        <time>2025-04-29T08:59:51Z</time>
      </trkpt>
      <trkpt lat="42.869876017794013" lon="-4.861107962206006">
        <ele>1276.29</ele>
        <time>2025-04-29T08:59:52Z</time>
      </trkpt>
      <trkpt lat="42.869866965338588" lon="-4.86126596108079">
        <ele>1276.29</ele>
        <time>2025-04-29T08:59:53Z</time>
      </trkpt>
      <trkpt lat="42.869817009195685" lon="-4.861431000754237">
        <ele>1276.77</ele>
        <time>2025-04-29T08:59:54Z</time>
      </trkpt>
      <trkpt lat="42.869765963405371" lon="-4.861604003235698">
        <ele>1276.77</ele>
        <time>2025-04-29T08:59:55Z</time>
      </trkpt>
      <trkpt lat="42.86969899199903" lon="-4.861771976575255">
        <ele>1276.77</ele>
        <time>2025-04-29T08:59:56Z</time>
      </trkpt>
      <trkpt lat="42.869619028642774" lon="-4.861949002370238">
        <ele>1276.77</ele>
        <time>2025-04-29T08:59:57Z</time>
      </trkpt>
      <trkpt lat="42.869275035336614" lon="-4.863017024472356">
        <ele>1274.3599999999999</ele>
        <time>2025-04-29T09:00:02Z</time>
      </trkpt>
      <trkpt lat="42.869275035336614" lon="-4.863278958946466">
        <ele>1273.8800000000001</ele>
        <time>2025-04-29T09:00:03Z</time>
      </trkpt>
      <trkpt lat="42.869287021458149" lon="-4.863524967804551">
        <ele>1273.4000000000001</ele>
        <time>2025-04-29T09:00:04Z</time>
      </trkpt>
      <trkpt lat="42.869323985651135" lon="-4.863777011632919">
        <ele>1272.9200000000001</ele>
        <time>2025-04-29T09:00:05Z</time>
      </trkpt>
      <trkpt lat="42.869362961500883" lon="-4.864037018269301">
        <ele>1272.4400000000001</ele>
        <time>2025-04-29T09:00:06Z</time>
      </trkpt>
      <trkpt lat="42.869985988363624" lon="-4.866187982261181">
        <ele>1268.1199999999999</ele>
        <time>2025-04-29T09:00:14Z</time>
      </trkpt>
      <trkpt lat="42.870964994654059" lon="-4.869442004710436">
        <ele>1262.8299999999999</ele>
        <time>2025-04-29T09:00:25Z</time>
      </trkpt>
      <trkpt lat="42.871657004579902" lon="-4.87247901968658">
        <ele>1261.8699999999999</ele>
        <time>2025-04-29T09:00:35Z</time>
      </trkpt>
      <trkpt lat="42.871787007898092" lon="-4.87278001382947">
        <ele>1261.8699999999999</ele>
        <time>2025-04-29T09:00:36Z</time>
      </trkpt>
      <trkpt lat="42.871903013437986" lon="-4.873047983273864">
        <ele>1261.8699999999999</ele>
        <time>2025-04-29T09:00:37Z</time>
      </trkpt>
      <trkpt lat="42.872028993442655" lon="-4.873317964375019">
        <ele>1261.8699999999999</ele>
        <time>2025-04-29T09:00:38Z</time>
      </trkpt>
      <trkpt lat="42.872637016698718" lon="-4.874277021735907">
        <ele>1261.3900000000001</ele>
        <time>2025-04-29T09:00:42Z</time>
      </trkpt>
      <trkpt lat="42.872746987268329" lon="-4.874524036422372">
        <ele>1260.9100000000001</ele>
        <time>2025-04-29T09:00:43Z</time>
      </trkpt>
      <trkpt lat="42.872832985594869" lon="-4.874771973118186">
        <ele>1260.9100000000001</ele>
        <time>2025-04-29T09:00:44Z</time>
      </trkpt>
      <trkpt lat="42.872904986143112" lon="-4.875029968097806">
        <ele>1260.4300000000001</ele>
        <time>2025-04-29T09:00:45Z</time>
      </trkpt>
      <trkpt lat="42.872933987528086" lon="-4.875318976119161">
        <ele>1260.4300000000001</ele>
        <time>2025-04-29T09:00:46Z</time>
      </trkpt>
      <trkpt lat="42.872962988913059" lon="-4.87561896443367">
        <ele>1259.9400000000001</ele>
        <time>2025-04-29T09:00:47Z</time>
      </trkpt>
      <trkpt lat="42.873032977804542" lon="-4.876238973811269">
        <ele>1259.46</ele>
        <time>2025-04-29T09:00:49Z</time>
      </trkpt>
      <trkpt lat="42.873096009716392" lon="-4.876554971560836">
        <ele>1258.98</ele>
        <time>2025-04-29T09:00:50Z</time>
      </trkpt>
      <trkpt lat="42.873202040791512" lon="-4.876844985410571">
        <ele>1258.5</ele>
        <time>2025-04-29T09:00:51Z</time>
      </trkpt>
      <trkpt lat="42.87330899387598" lon="-4.877136005088687">
        <ele>1258.02</ele>
        <time>2025-04-29T09:00:52Z</time>
      </trkpt>
      <trkpt lat="42.873447965830564" lon="-4.8774219956249">
        <ele>1257.54</ele>
        <time>2025-04-29T09:00:53Z</time>
      </trkpt>
      <trkpt lat="42.874281965196133" lon="-4.879095023497939">
        <ele>1255.1400000000001</ele>
        <time>2025-04-29T09:01:00Z</time>
      </trkpt>
      <trkpt lat="42.875399021431804" lon="-4.881314970552921">
        <ele>1258.5</ele>
        <time>2025-04-29T09:01:12Z</time>
      </trkpt>
      <trkpt lat="42.876126989722252" lon="-4.882655991241336">
        <ele>1259.46</ele>
        <time>2025-04-29T09:01:20Z</time>
      </trkpt>
      <trkpt lat="42.876255987212062" lon="-4.882777025923133">
        <ele>1259.46</ele>
        <time>2025-04-29T09:01:21Z</time>
      </trkpt>
      <trkpt lat="42.876385990530252" lon="-4.882899988442659">
        <ele>1259.9400000000001</ele>
        <time>2025-04-29T09:01:22Z</time>
      </trkpt>
      <trkpt lat="42.876522028818727" lon="-4.883010964840651">
        <ele>1259.9400000000001</ele>
        <time>2025-04-29T09:01:23Z</time>
      </trkpt>
      <trkpt lat="42.876671981066465" lon="-4.883083971217275">
        <ele>1259.46</ele>
        <time>2025-04-29T09:01:24Z</time>
      </trkpt>
      <trkpt lat="42.878037979826331" lon="-4.883820991963148">
        <ele>1258.02</ele>
        <time>2025-04-29T09:01:32Z</time>
      </trkpt>
      <trkpt lat="42.879463993012905" lon="-4.884414011612535">
        <ele>1255.6199999999999</ele>
        <time>2025-04-29T09:01:40Z</time>
      </trkpt>
      <trkpt lat="42.881505992263556" lon="-4.884666977450252">
        <ele>1251.77</ele>
        <time>2025-04-29T09:01:51Z</time>
      </trkpt>
      <trkpt lat="42.88168896920979" lon="-4.884743001312017">
        <ele>1251.77</ele>
        <time>2025-04-29T09:01:52Z</time>
      </trkpt>
      <trkpt lat="42.883334001526237" lon="-4.885422019287944">
        <ele>1250.8099999999999</ele>
        <time>2025-04-29T09:02:01Z</time>
      </trkpt>
      <trkpt lat="42.884922036901116" lon="-4.885804988443852">
        <ele>1248.8900000000001</ele>
        <time>2025-04-29T09:02:09Z</time>
      </trkpt>
      <trkpt lat="42.885496029630303" lon="-4.88592904061079">
        <ele>1247.9300000000001</ele>
        <time>2025-04-29T09:02:12Z</time>
      </trkpt>
      <trkpt lat="42.885689986869693" lon="-4.885998023673892">
        <ele>1247.9300000000001</ele>
        <time>2025-04-29T09:02:13Z</time>
      </trkpt>
      <trkpt lat="42.886759014800191" lon="-4.886686010286212">
        <ele>1246.97</ele>
        <time>2025-04-29T09:02:19Z</time>
      </trkpt>
      <trkpt lat="42.886893963441253" lon="-4.886829005554318">
        <ele>1246.49</ele>
        <time>2025-04-29T09:02:20Z</time>
      </trkpt>
      <trkpt lat="42.887276010587811" lon="-4.887231001630426">
        <ele>1246.97</ele>
        <time>2025-04-29T09:02:23Z</time>
      </trkpt>
      <trkpt lat="42.887399978935719" lon="-4.887361004948616">
        <ele>1246.97</ele>
        <time>2025-04-29T09:02:24Z</time>
      </trkpt>
      <trkpt lat="42.887537023052573" lon="-4.887453960254788">
        <ele>1247.45</ele>
        <time>2025-04-29T09:02:25Z</time>
      </trkpt>
      <trkpt lat="42.887694016098976" lon="-4.887526966631413">
        <ele>1247.45</ele>
        <time>2025-04-29T09:02:26Z</time>
      </trkpt>
      <trkpt lat="42.887855032458901" lon="-4.887600978836417">
        <ele>1247.9300000000001</ele>
        <time>2025-04-29T09:02:27Z</time>
      </trkpt>
      <trkpt lat="42.889425968751311" lon="-4.888317966833711">
        <ele>1250.8099999999999</ele>
        <time>2025-04-29T09:02:36Z</time>
      </trkpt>
      <trkpt lat="42.889621015638113" lon="-4.888337999582291">
        <ele>1250.3299999999999</ele>
        <time>2025-04-29T09:02:37Z</time>
      </trkpt>
      <trkpt lat="42.889820002019405" lon="-4.88835602067411">
        <ele>1250.3299999999999</ele>
        <time>2025-04-29T09:02:38Z</time>
      </trkpt>
      <trkpt lat="42.890016976743937" lon="-4.888318972662091">
        <ele>1249.8499999999999</ele>
        <time>2025-04-29T09:02:39Z</time>
      </trkpt>
      <trkpt lat="42.890209006145597" lon="-4.88827102817595">
        <ele>1250.3299999999999</ele>
        <time>2025-04-29T09:02:40Z</time>
      </trkpt>
      <trkpt lat="42.890401035547256" lon="-4.888189975172281">
        <ele>1250.3299999999999</ele>
        <time>2025-04-29T09:02:41Z</time>
      </trkpt>
      <trkpt lat="42.890592981129885" lon="-4.888110011816025">
        <ele>1250.3299999999999</ele>
        <time>2025-04-29T09:02:42Z</time>
      </trkpt>
      <trkpt lat="42.89146302267909" lon="-4.887770963832736">
        <ele>1249.8499999999999</ele>
        <time>2025-04-29T09:02:47Z</time>
      </trkpt>
      <trkpt lat="42.891636025160551" lon="-4.887731987982988">
        <ele>1250.3299999999999</ele>
        <time>2025-04-29T09:02:48Z</time>
      </trkpt>
      <trkpt lat="42.893080981448293" lon="-4.887601984664798">
        <ele>1252.74</ele>
        <time>2025-04-29T09:02:57Z</time>
      </trkpt>
      <trkpt lat="42.894969005137682" lon="-4.887803988531232">
        <ele>1260.4300000000001</ele>
        <time>2025-04-29T09:03:09Z</time>
      </trkpt>
      <trkpt lat="42.896174993366003" lon="-4.887941032648087">
        <ele>1264.75</ele>
        <time>2025-04-29T09:03:19Z</time>
      </trkpt>
      <trkpt lat="42.897009998559952" lon="-4.887931980192661">
        <ele>1265.71</ele>
        <time>2025-04-29T09:03:27Z</time>
      </trkpt>
      <trkpt lat="42.897019973024726" lon="-4.88792896270752">
        <ele>1266.1900000000001</ele>
        <time>2025-04-29T09:03:28Z</time>
      </trkpt>
      <trkpt lat="42.897127009928226" lon="-4.887974979355931">
        <ele>1266.6700000000001</ele>
        <time>2025-04-29T09:03:29Z</time>
      </trkpt>
      <trkpt lat="42.897147964686155" lon="-4.888065000995994">
        <ele>1267.1600000000001</ele>
        <time>2025-04-29T09:03:30Z</time>
      </trkpt>
      <trkpt lat="42.897172020748258" lon="-4.888169020414352">
        <ele>1267.6400000000001</ele>
        <time>2025-04-29T09:03:31Z</time>
      </trkpt>
      <trkpt lat="42.897191969677806" lon="-4.888298017904162">
        <ele>1267.6400000000001</ele>
        <time>2025-04-29T09:03:32Z</time>
      </trkpt>
      <trkpt lat="42.897191969677806" lon="-4.888437995687127">
        <ele>1268.1199999999999</ele>
        <time>2025-04-29T09:03:33Z</time>
      </trkpt>
      <trkpt lat="42.897210996598005" lon="-4.888717029243708">
        <ele>1268.5999999999999</ele>
        <time>2025-04-29T09:03:35Z</time>
      </trkpt>
      <trkpt lat="42.897247038781643" lon="-4.888858012855053">
        <ele>1269.5599999999999</ele>
        <time>2025-04-29T09:03:36Z</time>
      </trkpt>
      <trkpt lat="42.897301018238068" lon="-4.88898198120296">
        <ele>1270.04</ele>
        <time>2025-04-29T09:03:37Z</time>
      </trkpt>
      <trkpt lat="42.897374024614692" lon="-4.889120031148195">
        <ele>1270.52</ele>
        <time>2025-04-29T09:03:38Z</time>
      </trkpt>
      <trkpt lat="42.897447030991316" lon="-4.889261014759541">
        <ele>1271</ele>
        <time>2025-04-29T09:03:39Z</time>
      </trkpt>
      <trkpt lat="42.897759005427361" lon="-4.889858979731798">
        <ele>1273.4000000000001</ele>
        <time>2025-04-29T09:03:43Z</time>
      </trkpt>
      <trkpt lat="42.897798987105489" lon="-4.890043968334794">
        <ele>1273.8800000000001</ele>
        <time>2025-04-29T09:03:44Z</time>
      </trkpt>
      <trkpt lat="42.897830000147223" lon="-4.890229040756822">
        <ele>1274.3599999999999</ele>
        <time>2025-04-29T09:03:45Z</time>
      </trkpt>
      <trkpt lat="42.898025969043374" lon="-4.891445003449917">
        <ele>1279.1700000000001</ele>
        <time>2025-04-29T09:03:52Z</time>
      </trkpt>
      <trkpt lat="42.898070979863405" lon="-4.891608031466603">
        <ele>1280.1300000000001</ele>
        <time>2025-04-29T09:03:53Z</time>
      </trkpt>
      <trkpt lat="42.898136023432016" lon="-4.891769969835877">
        <ele>1281.0899999999999</ele>
        <time>2025-04-29T09:03:54Z</time>
      </trkpt>
      <trkpt lat="42.898536007851362" lon="-4.892829023301601">
        <ele>1286.3800000000001</ele>
        <time>2025-04-29T09:04:00Z</time>
      </trkpt>
      <trkpt lat="42.898566015064716" lon="-4.893034966662526">
        <ele>1286.8599999999999</ele>
        <time>2025-04-29T09:04:01Z</time>
      </trkpt>
      <trkpt lat="42.898585963994265" lon="-4.894326031208038">
        <ele>1291.6700000000001</ele>
        <time>2025-04-29T09:04:07Z</time>
      </trkpt>
      <trkpt lat="42.898556962609291" lon="-4.894525017589331">
        <ele>1292.6300000000001</ele>
        <time>2025-04-29T09:04:08Z</time>
      </trkpt>
      <trkpt lat="42.898415978997946" lon="-4.89527503028512">
        <ele>1295.99</ele>
        <time>2025-04-29T09:04:12Z</time>
      </trkpt>
      <trkpt lat="42.898399969562888" lon="-4.895468987524509">
        <ele>1296.48</ele>
        <time>2025-04-29T09:04:13Z</time>
      </trkpt>
      <trkpt lat="42.898578001186252" lon="-4.897464970126748">
        <ele>1304.6500000000001</ele>
        <time>2025-04-29T09:04:23Z</time>
      </trkpt>
      <trkpt lat="42.898762989789248" lon="-4.89953001961112">
        <ele>1314.26</ele>
        <time>2025-04-29T09:04:34Z</time>
      </trkpt>
      <trkpt lat="42.898800959810615" lon="-4.901233976706862">
        <ele>1322.9100000000001</ele>
        <time>2025-04-29T09:04:43Z</time>
      </trkpt>
      <trkpt lat="42.898770030587912" lon="-4.901964962482452">
        <ele>1327.24</ele>
        <time>2025-04-29T09:04:47Z</time>
      </trkpt>
      <trkpt lat="42.898670034483075" lon="-4.902922008186579">
        <ele>1331.5599999999999</ele>
        <time>2025-04-29T09:04:52Z</time>
      </trkpt>
      <trkpt lat="42.898688977584243" lon="-4.903115965425968">
        <ele>1332.52</ele>
        <time>2025-04-29T09:04:53Z</time>
      </trkpt>
      <trkpt lat="42.898736000061035" lon="-4.903310006484389">
        <ele>1333.01</ele>
        <time>2025-04-29T09:04:54Z</time>
      </trkpt>
      <trkpt lat="42.899165991693735" lon="-4.904623031616211">
        <ele>1337.3299999999999</ele>
        <time>2025-04-29T09:05:01Z</time>
      </trkpt>
      <trkpt lat="42.899270011112094" lon="-4.904693020507693">
        <ele>1337.8099999999999</ele>
        <time>2025-04-29T09:05:02Z</time>
      </trkpt>
      <trkpt lat="42.899501016363502" lon="-4.904846996068955">
        <ele>1339.25</ele>
        <time>2025-04-29T09:05:04Z</time>
      </trkpt>
      <trkpt lat="42.899577040225267" lon="-4.904936011880636">
        <ele>1339.25</ele>
        <time>2025-04-29T09:05:05Z</time>
      </trkpt>
      <trkpt lat="42.899637976661325" lon="-4.90507397800684">
        <ele>1339.73</ele>
        <time>2025-04-29T09:05:06Z</time>
      </trkpt>
      <trkpt lat="42.899620039388537" lon="-4.905216973274946">
        <ele>1340.22</ele>
        <time>2025-04-29T09:05:07Z</time>
      </trkpt>
      <trkpt lat="42.899556001648307" lon="-4.905367009341717">
        <ele>1341.1800000000001</ele>
        <time>2025-04-29T09:05:08Z</time>
      </trkpt>
      <trkpt lat="42.89947897195816" lon="-4.905519979074597">
        <ele>1341.6600000000001</ele>
        <time>2025-04-29T09:05:09Z</time>
      </trkpt>
      <trkpt lat="42.899408983066678" lon="-4.905688036233187">
        <ele>1341.6600000000001</ele>
        <time>2025-04-29T09:05:10Z</time>
      </trkpt>
      <trkpt lat="42.899364978075027" lon="-4.905864978209138">
        <ele>1342.6199999999999</ele>
        <time>2025-04-29T09:05:11Z</time>
      </trkpt>
      <trkpt lat="42.899338994175196" lon="-4.906044015660882">
        <ele>1343.5799999999999</ele>
        <time>2025-04-29T09:05:12Z</time>
      </trkpt>
      <trkpt lat="42.899343017488718" lon="-4.906240990385413">
        <ele>1344.54</ele>
        <time>2025-04-29T09:05:13Z</time>
      </trkpt>
      <trkpt lat="42.89934704080224" lon="-4.906451040878892">
        <ele>1345.5</ele>
        <time>2025-04-29T09:05:14Z</time>
      </trkpt>
      <trkpt lat="42.899351986125112" lon="-4.906669976189733">
        <ele>1347.4300000000001</ele>
        <time>2025-04-29T09:05:15Z</time>
      </trkpt>
      <trkpt lat="42.899447958916426" lon="-4.908852037042379">
        <ele>1365.6900000000001</ele>
        <time>2025-04-29T09:05:24Z</time>
      </trkpt>
      <trkpt lat="42.899548960849643" lon="-4.909567013382912">
        <ele>1370.02</ele>
        <time>2025-04-29T09:05:27Z</time>
      </trkpt>
      <trkpt lat="42.899524988606572" lon="-4.909806987270713">
        <ele>1371.46</ele>
        <time>2025-04-29T09:05:28Z</time>
      </trkpt>
      <trkpt lat="42.899390961974859" lon="-4.911441961303353">
        <ele>1379.6300000000001</ele>
        <time>2025-04-29T09:05:35Z</time>
      </trkpt>
      <trkpt lat="42.899405965581536" lon="-4.91167196072638">
        <ele>1380.5899999999999</ele>
        <time>2025-04-29T09:05:36Z</time>
      </trkpt>
      <trkpt lat="42.899793041869998" lon="-4.914212012663484">
        <ele>1390.6800000000001</ele>
        <time>2025-04-29T09:05:47Z</time>
      </trkpt>
      <trkpt lat="42.899854984134436" lon="-4.914428014308214">
        <ele>1392.1300000000001</ele>
        <time>2025-04-29T09:05:48Z</time>
      </trkpt>
      <trkpt lat="42.900234013795853" lon="-4.915399979799986">
        <ele>1397.8900000000001</ele>
        <time>2025-04-29T09:05:53Z</time>
      </trkpt>
      <trkpt lat="42.900321017950773" lon="-4.915566025301814">
        <ele>1398.8599999999999</ele>
        <time>2025-04-29T09:05:54Z</time>
      </trkpt>
      <trkpt lat="42.900441968813539" lon="-4.915695022791624">
        <ele>1400.3</ele>
        <time>2025-04-29T09:05:55Z</time>
      </trkpt>
      <trkpt lat="42.900564009323716" lon="-4.915825026109815">
        <ele>1401.26</ele>
        <time>2025-04-29T09:05:56Z</time>
      </trkpt>
      <trkpt lat="42.900704992935061" lon="-4.915931979194284">
        <ele>1402.7</ele>
        <time>2025-04-29T09:05:57Z</time>
      </trkpt>
      <trkpt lat="42.902499977499247" lon="-4.91708499379456">
        <ele>1414.72</ele>
        <time>2025-04-29T09:06:09Z</time>
      </trkpt>
      <trkpt lat="42.904286999255419" lon="-4.91828503087163">
        <ele>1425.77</ele>
        <time>2025-04-29T09:06:22Z</time>
      </trkpt>
      <trkpt lat="42.904353970661759" lon="-4.918390978127718">
        <ele>1426.73</ele>
        <time>2025-04-29T09:06:23Z</time>
      </trkpt>
      <trkpt lat="42.904406022280455" lon="-4.918504972010851">
        <ele>1427.21</ele>
        <time>2025-04-29T09:06:24Z</time>
      </trkpt>
      <trkpt lat="42.904443992301822" lon="-4.918656013906002">
        <ele>1428.1800000000001</ele>
        <time>2025-04-29T09:06:25Z</time>
      </trkpt>
      <trkpt lat="42.904427982866764" lon="-4.918799009174109">
        <ele>1428.6600000000001</ele>
        <time>2025-04-29T09:06:26Z</time>
      </trkpt>
      <trkpt lat="42.904409961774945" lon="-4.918966982513666">
        <ele>1429.1400000000001</ele>
        <time>2025-04-29T09:06:27Z</time>
      </trkpt>
      <trkpt lat="42.904380960389972" lon="-4.919138979166746">
        <ele>1429.6199999999999</ele>
        <time>2025-04-29T09:06:28Z</time>
      </trkpt>
      <trkpt lat="42.904313988983631" lon="-4.9194660410285">
        <ele>1430.5799999999999</ele>
        <time>2025-04-29T09:06:30Z</time>
      </trkpt>
      <trkpt lat="42.904273001477122" lon="-4.919665027409792">
        <ele>1431.0599999999999</ele>
        <time>2025-04-29T09:06:31Z</time>
      </trkpt>
      <trkpt lat="42.90420301258564" lon="-4.919734010472894">
        <ele>1432.02</ele>
        <time>2025-04-29T09:06:32Z</time>
      </trkpt>
      <trkpt lat="42.904092958196998" lon="-4.919822020456195">
        <ele>1432.98</ele>
        <time>2025-04-29T09:06:33Z</time>
      </trkpt>
      <trkpt lat="42.903965972363949" lon="-4.919893015176058">
        <ele>1433.9400000000001</ele>
        <time>2025-04-29T09:06:34Z</time>
      </trkpt>
      <trkpt lat="42.903837980702519" lon="-4.919965015724301">
        <ele>1434.9100000000001</ele>
        <time>2025-04-29T09:06:35Z</time>
      </trkpt>
      <trkpt lat="42.903495999053121" lon="-4.920253017917275">
        <ele>1438.27</ele>
        <time>2025-04-29T09:06:39Z</time>
      </trkpt>
      <trkpt lat="42.903457023203373" lon="-4.920309009030461">
        <ele>1438.75</ele>
        <time>2025-04-29T09:06:40Z</time>
      </trkpt>
      <trkpt lat="42.903437996283174" lon="-4.920385032892227">
        <ele>1439.71</ele>
        <time>2025-04-29T09:06:41Z</time>
      </trkpt>
      <trkpt lat="42.903418969362974" lon="-4.920461978763342">
        <ele>1440.1900000000001</ele>
        <time>2025-04-29T09:06:42Z</time>
      </trkpt>
      <trkpt lat="42.903428021818399" lon="-4.920528028160334">
        <ele>1440.6700000000001</ele>
        <time>2025-04-29T09:06:43Z</time>
      </trkpt>
      <trkpt lat="42.90345199406147" lon="-4.920613020658493">
        <ele>1441.1500000000001</ele>
        <time>2025-04-29T09:06:44Z</time>
      </trkpt>
      <trkpt lat="42.903488036245108" lon="-4.920685021206737">
        <ele>1441.6300000000001</ele>
        <time>2025-04-29T09:06:45Z</time>
      </trkpt>
      <trkpt lat="42.903541009873152" lon="-4.92077898234129">
        <ele>1441.6300000000001</ele>
        <time>2025-04-29T09:06:46Z</time>
      </trkpt>
      <trkpt lat="42.904155990108848" lon="-4.921732004731894">
        <ele>1438.27</ele>
        <time>2025-04-29T09:06:54Z</time>
      </trkpt>
      <trkpt lat="42.904313988983631" lon="-4.921952029690146">
        <ele>1436.3499999999999</ele>
        <time>2025-04-29T09:06:56Z</time>
      </trkpt>
      <trkpt lat="42.904413985088468" lon="-4.922014977782965">
        <ele>1435.8699999999999</ele>
        <time>2025-04-29T09:06:57Z</time>
      </trkpt>
      <trkpt lat="42.904523033648729" lon="-4.922057976946235">
        <ele>1434.9100000000001</ele>
        <time>2025-04-29T09:06:58Z</time>
      </trkpt>
      <trkpt lat="42.904637027531862" lon="-4.922081027179956">
        <ele>1433.9400000000001</ele>
        <time>2025-04-29T09:06:59Z</time>
      </trkpt>
      <trkpt lat="42.90476200170815" lon="-4.922054959461093">
        <ele>1433.46</ele>
        <time>2025-04-29T09:07:00Z</time>
      </trkpt>
      <trkpt lat="42.904879013076425" lon="-4.921989999711514">
        <ele>1432.5</ele>
        <time>2025-04-29T09:07:01Z</time>
      </trkpt>
      <trkpt lat="42.904995018616319" lon="-4.921905007213354">
        <ele>1432.02</ele>
        <time>2025-04-29T09:07:02Z</time>
      </trkpt>
      <trkpt lat="42.905114041641355" lon="-4.921802999451757">
        <ele>1431.0599999999999</ele>
        <time>2025-04-29T09:07:03Z</time>
      </trkpt>
      <trkpt lat="42.905903030186892" lon="-4.92095198482275">
        <ele>1425.77</ele>
        <time>2025-04-29T09:07:10Z</time>
      </trkpt>
      <trkpt lat="42.906034961342812" lon="-4.920894987881184">
        <ele>1424.8099999999999</ele>
        <time>2025-04-29T09:07:11Z</time>
      </trkpt>
      <trkpt lat="42.906164964661002" lon="-4.920838996767998">
        <ele>1424.3299999999999</ele>
        <time>2025-04-29T09:07:12Z</time>
      </trkpt>
      <trkpt lat="42.906298991292715" lon="-4.920780993998051">
        <ele>1423.8499999999999</ele>
        <time>2025-04-29T09:07:13Z</time>
      </trkpt>
      <trkpt lat="42.906431006267667" lon="-4.920711005106568">
        <ele>1423.3699999999999</ele>
        <time>2025-04-29T09:07:14Z</time>
      </trkpt>
      <trkpt lat="42.906552962958813" lon="-4.920616038143635">
        <ele>1422.8900000000001</ele>
        <time>2025-04-29T09:07:15Z</time>
      </trkpt>
      <trkpt lat="42.907022014260292" lon="-4.920228039845824">
        <ele>1421.9300000000001</ele>
        <time>2025-04-29T09:07:19Z</time>
      </trkpt>
      <trkpt lat="42.907111030071974" lon="-4.92011203430593">
        <ele>1421.45</ele>
        <time>2025-04-29T09:07:20Z</time>
      </trkpt>
      <trkpt lat="42.90719099342823" lon="-4.920008014887571">
        <ele>1421.45</ele>
        <time>2025-04-29T09:07:21Z</time>
      </trkpt>
      <trkpt lat="42.907247990369797" lon="-4.919841969385743">
        <ele>1421.45</ele>
        <time>2025-04-29T09:07:22Z</time>
      </trkpt>
      <trkpt lat="42.907302975654602" lon="-4.91968397051096">
        <ele>1421.45</ele>
        <time>2025-04-29T09:07:23Z</time>
      </trkpt>
      <trkpt lat="42.907960033044219" lon="-4.918118985369802">
        <ele>1420.97</ele>
        <time>2025-04-29T09:07:33Z</time>
      </trkpt>
      <trkpt lat="42.908044019713998" lon="-4.917813967913389">
        <ele>1420.97</ele>
        <time>2025-04-29T09:07:35Z</time>
      </trkpt>
      <trkpt lat="42.908089030534029" lon="-4.917649012058973">
        <ele>1420.97</ele>
        <time>2025-04-29T09:07:36Z</time>
      </trkpt>
      <trkpt lat="42.908175028860569" lon="-4.917336031794548">
        <ele>1420.97</ele>
        <time>2025-04-29T09:07:38Z</time>
      </trkpt>
      <trkpt lat="42.90824300609529" lon="-4.91725598461926">
        <ele>1420.49</ele>
        <time>2025-04-29T09:07:39Z</time>
      </trkpt>
      <trkpt lat="42.908316012471914" lon="-4.917176021263003">
        <ele>1420</ele>
        <time>2025-04-29T09:07:40Z</time>
      </trkpt>
      <trkpt lat="42.908654976636171" lon="-4.916808977723122">
        <ele>1419.52</ele>
        <time>2025-04-29T09:07:44Z</time>
      </trkpt>
      <trkpt lat="42.908739969134331" lon="-4.916701018810272">
        <ele>1419.04</ele>
        <time>2025-04-29T09:07:45Z</time>
      </trkpt>
      <trkpt lat="42.908958988264203" lon="-4.916371023282409">
        <ele>1419.04</ele>
        <time>2025-04-29T09:07:48Z</time>
      </trkpt>
      <trkpt lat="42.908990001305938" lon="-4.916259041056037">
        <ele>1418.5599999999999</ele>
        <time>2025-04-29T09:07:49Z</time>
      </trkpt>
      <trkpt lat="42.90901699103415" lon="-4.916127026081085">
        <ele>1418.5599999999999</ele>
        <time>2025-04-29T09:07:50Z</time>
      </trkpt>
      <trkpt lat="42.909033000469208" lon="-4.915835000574589">
        <ele>1418.5599999999999</ele>
        <time>2025-04-29T09:07:52Z</time>
      </trkpt>
      <trkpt lat="42.909063007682562" lon="-4.915711032226682">
        <ele>1419.04</ele>
        <time>2025-04-29T09:07:53Z</time>
      </trkpt>
      <trkpt lat="42.909112041816115" lon="-4.915583962574601">
        <ele>1419.04</ele>
        <time>2025-04-29T09:07:54Z</time>
      </trkpt>
      <trkpt lat="42.909174989908934" lon="-4.915469968691468">
        <ele>1419.04</ele>
        <time>2025-04-29T09:07:55Z</time>
      </trkpt>
      <trkpt lat="42.909268029034138" lon="-4.915378019213677">
        <ele>1419.04</ele>
        <time>2025-04-29T09:07:56Z</time>
      </trkpt>
      <trkpt lat="42.909376993775368" lon="-4.915306018665433">
        <ele>1419.52</ele>
        <time>2025-04-29T09:07:57Z</time>
      </trkpt>
      <trkpt lat="42.909487970173359" lon="-4.915234018117189">
        <ele>1420</ele>
        <time>2025-04-29T09:07:58Z</time>
      </trkpt>
      <trkpt lat="42.910000020638108" lon="-4.914965964853764">
        <ele>1421.45</ele>
        <time>2025-04-29T09:08:03Z</time>
      </trkpt>
      <trkpt lat="42.910085013136268" lon="-4.914953978732228">
        <ele>1421.45</ele>
        <time>2025-04-29T09:08:04Z</time>
      </trkpt>
      <trkpt lat="42.910172017291188" lon="-4.914976023137569">
        <ele>1421.9300000000001</ele>
        <time>2025-04-29T09:08:05Z</time>
      </trkpt>
      <trkpt lat="42.910262960940599" lon="-4.914998989552259">
        <ele>1421.9300000000001</ele>
        <time>2025-04-29T09:08:06Z</time>
      </trkpt>
      <trkpt lat="42.910348037257791" lon="-4.91502002812922">
        <ele>1422.4100000000001</ele>
        <time>2025-04-29T09:08:07Z</time>
      </trkpt>
      <trkpt lat="42.910422971472144" lon="-4.915038971230388">
        <ele>1422.4100000000001</ele>
        <time>2025-04-29T09:08:08Z</time>
      </trkpt>
      <trkpt lat="42.910491032525897" lon="-4.915041988715529">
        <ele>1422.4100000000001</ele>
        <time>2025-04-29T09:08:09Z</time>
      </trkpt>
      <trkpt lat="42.910556998103857" lon="-4.915003012865782">
        <ele>1422.4100000000001</ele>
        <time>2025-04-29T09:08:10Z</time>
      </trkpt>
      <trkpt lat="42.910631010308862" lon="-4.914960013702512">
        <ele>1422.4100000000001</ele>
        <time>2025-04-29T09:08:11Z</time>
      </trkpt>
      <trkpt lat="42.910716002807021" lon="-4.914909973740578">
        <ele>1422.4100000000001</ele>
        <time>2025-04-29T09:08:12Z</time>
      </trkpt>
      <trkpt lat="42.910808958113194" lon="-4.914876027032733">
        <ele>1422.4100000000001</ele>
        <time>2025-04-29T09:08:13Z</time>
      </trkpt>
      <trkpt lat="42.910908032208681" lon="-4.914843002334237">
        <ele>1422.4100000000001</ele>
        <time>2025-04-29T09:08:14Z</time>
      </trkpt>
      <trkpt lat="42.911179019138217" lon="-4.914751974865794">
        <ele>1422.8900000000001</ele>
        <time>2025-04-29T09:08:17Z</time>
      </trkpt>
      <trkpt lat="42.911265017464757" lon="-4.914734959602356">
        <ele>1422.8900000000001</ele>
        <time>2025-04-29T09:08:18Z</time>
      </trkpt>
      <trkpt lat="42.911361996084452" lon="-4.914763038977981">
        <ele>1422.8900000000001</ele>
        <time>2025-04-29T09:08:19Z</time>
      </trkpt>
      <trkpt lat="42.911470038816333" lon="-4.914794974029064">
        <ele>1422.4100000000001</ele>
        <time>2025-04-29T09:08:20Z</time>
      </trkpt>
      <trkpt lat="42.911589983850718" lon="-4.914829004555941">
        <ele>1421.9300000000001</ele>
        <time>2025-04-29T09:08:21Z</time>
      </trkpt>
      <trkpt lat="42.911963984370232" lon="-4.914927994832397">
        <ele>1420.49</ele>
        <time>2025-04-29T09:08:24Z</time>
      </trkpt>
      <trkpt lat="42.912612995132804" lon="-4.914950961247087">
        <ele>1417.1199999999999</ele>
        <time>2025-04-29T09:08:29Z</time>
      </trkpt>
      <trkpt lat="42.913193022832274" lon="-4.914801008999348">
        <ele>1413.28</ele>
        <time>2025-04-29T09:08:34Z</time>
      </trkpt>
      <trkpt lat="42.913276003673673" lon="-4.914724985137582">
        <ele>1412.79</ele>
        <time>2025-04-29T09:08:35Z</time>
      </trkpt>
      <trkpt lat="42.913355967029929" lon="-4.914651978760958">
        <ele>1411.8299999999999</ele>
        <time>2025-04-29T09:08:36Z</time>
      </trkpt>
      <trkpt lat="42.913435008376837" lon="-4.914578972384334">
        <ele>1411.3499999999999</ele>
        <time>2025-04-29T09:08:37Z</time>
      </trkpt>
      <trkpt lat="42.913524024188519" lon="-4.91454703733325">
        <ele>1410.8699999999999</ele>
        <time>2025-04-29T09:08:38Z</time>
      </trkpt>
      <trkpt lat="42.913607005029917" lon="-4.914517030119896">
        <ele>1409.9100000000001</ele>
        <time>2025-04-29T09:08:39Z</time>
      </trkpt>
      <trkpt lat="42.913695015013218" lon="-4.9145030323416">
        <ele>1409.4300000000001</ele>
        <time>2025-04-29T09:08:40Z</time>
      </trkpt>
      <trkpt lat="42.913781013339758" lon="-4.914534967392683">
        <ele>1408.95</ele>
        <time>2025-04-29T09:08:41Z</time>
      </trkpt>
      <trkpt lat="42.913859970867634" lon="-4.914572015404701">
        <ele>1408.47</ele>
        <time>2025-04-29T09:08:42Z</time>
      </trkpt>
      <trkpt lat="42.913932977244258" lon="-4.914634041488171">
        <ele>1408.47</ele>
        <time>2025-04-29T09:08:43Z</time>
      </trkpt>
      <trkpt lat="42.914004977792501" lon="-4.914694977924228">
        <ele>1407.51</ele>
        <time>2025-04-29T09:08:44Z</time>
      </trkpt>
      <trkpt lat="42.914153002202511" lon="-4.914809977635741">
        <ele>1406.55</ele>
        <time>2025-04-29T09:08:46Z</time>
      </trkpt>
      <trkpt lat="42.914231959730387" lon="-4.914849037304521">
        <ele>1405.5799999999999</ele>
        <time>2025-04-29T09:08:47Z</time>
      </trkpt>
      <trkpt lat="42.914314018562436" lon="-4.914833027869463">
        <ele>1405.0999999999999</ele>
        <time>2025-04-29T09:08:48Z</time>
      </trkpt>
      <trkpt lat="42.914402028545737" lon="-4.914778964594007">
        <ele>1404.6199999999999</ele>
        <time>2025-04-29T09:08:49Z</time>
      </trkpt>
      <trkpt lat="42.914490960538387" lon="-4.914705958217382">
        <ele>1404.1400000000001</ele>
        <time>2025-04-29T09:08:50Z</time>
      </trkpt>
      <trkpt lat="42.914578970521688" lon="-4.91463303565979">
        <ele>1403.6600000000001</ele>
        <time>2025-04-29T09:08:51Z</time>
      </trkpt>
      <trkpt lat="42.91466698050499" lon="-4.914561035111547">
        <ele>1403.1800000000001</ele>
        <time>2025-04-29T09:08:52Z</time>
      </trkpt>
      <trkpt lat="42.914755996316671" lon="-4.914502026513219">
        <ele>1402.7</ele>
        <time>2025-04-29T09:08:53Z</time>
      </trkpt>
      <trkpt lat="42.914836965501308" lon="-4.914471013471484">
        <ele>1402.22</ele>
        <time>2025-04-29T09:08:54Z</time>
      </trkpt>
      <trkpt lat="42.91490200906992" lon="-4.914446035400033">
        <ele>1401.74</ele>
        <time>2025-04-29T09:08:55Z</time>
      </trkpt>
      <trkpt lat="42.914962023496628" lon="-4.914422985166311">
        <ele>1400.78</ele>
        <time>2025-04-29T09:08:56Z</time>
      </trkpt>
      <trkpt lat="42.915037963539362" lon="-4.914422985166311">
        <ele>1400.3</ele>
        <time>2025-04-29T09:08:57Z</time>
      </trkpt>
      <trkpt lat="42.915128991007805" lon="-4.91446103900671">
        <ele>1399.8199999999999</ele>
        <time>2025-04-29T09:08:58Z</time>
      </trkpt>
      <trkpt lat="42.915234016254544" lon="-4.914504960179329">
        <ele>1398.8599999999999</ele>
        <time>2025-04-29T09:08:59Z</time>
      </trkpt>
      <trkpt lat="42.915343986824155" lon="-4.914550976827741">
        <ele>1397.8900000000001</ele>
        <time>2025-04-29T09:09:00Z</time>
      </trkpt>
      <trkpt lat="42.915453035384417" lon="-4.914595987647772">
        <ele>1397.4100000000001</ele>
        <time>2025-04-29T09:09:01Z</time>
      </trkpt>
      <trkpt lat="42.915559988468885" lon="-4.914621971547604">
        <ele>1396.45</ele>
        <time>2025-04-29T09:09:02Z</time>
      </trkpt>
      <trkpt lat="42.915657972916961" lon="-4.914621971547604">
        <ele>1395.49</ele>
        <time>2025-04-29T09:09:03Z</time>
      </trkpt>
      <trkpt lat="42.915738020092249" lon="-4.91456899791956">
        <ele>1395.01</ele>
        <time>2025-04-29T09:09:04Z</time>
      </trkpt>
      <trkpt lat="42.915838016197085" lon="-4.914493979886174">
        <ele>1394.05</ele>
        <time>2025-04-29T09:09:05Z</time>
      </trkpt>
      <trkpt lat="42.915920997038484" lon="-4.914406975731254">
        <ele>1393.5699999999999</ele>
        <time>2025-04-29T09:09:06Z</time>
      </trkpt>
      <trkpt lat="42.916019987314939" lon="-4.914304967969656">
        <ele>1393.0899999999999</ele>
        <time>2025-04-29T09:09:07Z</time>
      </trkpt>
      <trkpt lat="42.916200030595064" lon="-4.914116961881518">
        <ele>1391.6500000000001</ele>
        <time>2025-04-29T09:09:09Z</time>
      </trkpt>
      <trkpt lat="42.916288040578365" lon="-4.914026018232107">
        <ele>1391.1700000000001</ele>
        <time>2025-04-29T09:09:10Z</time>
      </trkpt>
      <trkpt lat="42.916392982006073" lon="-4.913927027955651">
        <ele>1390.6800000000001</ele>
        <time>2025-04-29T09:09:11Z</time>
      </trkpt>
      <trkpt lat="42.917163027450442" lon="-4.913614969700575">
        <ele>1385.8800000000001</ele>
        <time>2025-04-29T09:09:18Z</time>
      </trkpt>
      <trkpt lat="42.91726503521204" lon="-4.913635002449155">
        <ele>1384.9200000000001</ele>
        <time>2025-04-29T09:09:19Z</time>
      </trkpt>
      <trkpt lat="42.918009012937546" lon="-4.913721000775695">
        <ele>1379.1500000000001</ele>
        <time>2025-04-29T09:09:25Z</time>
      </trkpt>
      <trkpt lat="42.918102974072099" lon="-4.913649000227451">
        <ele>1378.6700000000001</ele>
        <time>2025-04-29T09:09:26Z</time>
      </trkpt>
      <trkpt lat="42.918189978227019" lon="-4.913567025214434">
        <ele>1377.71</ele>
        <time>2025-04-29T09:09:27Z</time>
      </trkpt>
      <trkpt lat="42.918359041213989" lon="-4.913407014682889">
        <ele>1375.78</ele>
        <time>2025-04-29T09:09:29Z</time>
      </trkpt>
      <trkpt lat="42.918444033712149" lon="-4.913351023569703">
        <ele>1374.8199999999999</ele>
        <time>2025-04-29T09:09:30Z</time>
      </trkpt>
      <trkpt lat="42.918542018160224" lon="-4.913334008306265">
        <ele>1373.8599999999999</ele>
        <time>2025-04-29T09:09:31Z</time>
      </trkpt>
      <trkpt lat="42.918649977073073" lon="-4.913314981386066">
        <ele>1372.9000000000001</ele>
        <time>2025-04-29T09:09:32Z</time>
      </trkpt>
      <trkpt lat="42.918756008148193" lon="-4.913296960294247">
        <ele>1372.4200000000001</ele>
        <time>2025-04-29T09:09:33Z</time>
      </trkpt>
      <trkpt lat="42.918858015909791" lon="-4.91327902302146">
        <ele>1371.46</ele>
        <time>2025-04-29T09:09:34Z</time>
      </trkpt>
      <trkpt lat="42.918925993144512" lon="-4.913243986666203">
        <ele>1370.5</ele>
        <time>2025-04-29T09:09:35Z</time>
      </trkpt>
      <trkpt lat="42.918994976207614" lon="-4.913148013874888">
        <ele>1370.02</ele>
        <time>2025-04-29T09:09:36Z</time>
      </trkpt>
      <trkpt lat="42.919073011726141" lon="-4.913038965314627">
        <ele>1369.54</ele>
        <time>2025-04-29T09:09:37Z</time>
      </trkpt>
      <trkpt lat="42.919162027537823" lon="-4.91291499696672">
        <ele>1369.05</ele>
        <time>2025-04-29T09:09:38Z</time>
      </trkpt>
      <trkpt lat="42.919541979208589" lon="-4.912368999794126">
        <ele>1367.6099999999999</ele>
        <time>2025-04-29T09:09:42Z</time>
      </trkpt>
      <trkpt lat="42.919707018882036" lon="-4.912118967622519">
        <ele>1366.6500000000001</ele>
        <time>2025-04-29T09:09:44Z</time>
      </trkpt>
      <trkpt lat="42.920073978602886" lon="-4.911570036783814">
        <ele>1364.25</ele>
        <time>2025-04-29T09:09:49Z</time>
      </trkpt>
      <trkpt lat="42.920158971101046" lon="-4.911516979336739">
        <ele>1363.29</ele>
        <time>2025-04-29T09:09:50Z</time>
      </trkpt>
      <trkpt lat="42.920248992741108" lon="-4.911459982395172">
        <ele>1362.8099999999999</ele>
        <time>2025-04-29T09:09:51Z</time>
      </trkpt>
      <trkpt lat="42.920348988845944" lon="-4.911398040130734">
        <ele>1361.8399999999999</ele>
        <time>2025-04-29T09:09:52Z</time>
      </trkpt>
      <trkpt lat="42.920445967465639" lon="-4.911312963813543">
        <ele>1361.3599999999999</ele>
        <time>2025-04-29T09:09:53Z</time>
      </trkpt>
      <trkpt lat="42.920529032126069" lon="-4.911209028214216">
        <ele>1360.8800000000001</ele>
        <time>2025-04-29T09:09:54Z</time>
      </trkpt>
      <trkpt lat="42.920606983825564" lon="-4.91111003793776">
        <ele>1359.9200000000001</ele>
        <time>2025-04-29T09:09:55Z</time>
      </trkpt>
      <trkpt lat="42.920676972717047" lon="-4.911022027954459">
        <ele>1359.4400000000001</ele>
        <time>2025-04-29T09:09:56Z</time>
      </trkpt>
      <trkpt lat="42.92074796743691" lon="-4.910948015749455">
        <ele>1358.96</ele>
        <time>2025-04-29T09:09:57Z</time>
      </trkpt>
      <trkpt lat="42.920841006562114" lon="-4.910923037678003">
        <ele>1358.48</ele>
        <time>2025-04-29T09:09:58Z</time>
      </trkpt>
      <trkpt lat="42.920935973525047" lon="-4.91089696995914">
        <ele>1357.52</ele>
        <time>2025-04-29T09:09:59Z</time>
      </trkpt>
      <trkpt lat="42.921035969629884" lon="-4.910912979394198">
        <ele>1357.04</ele>
        <time>2025-04-29T09:10:00Z</time>
      </trkpt>
      <trkpt lat="42.921136971563101" lon="-4.910949021577835">
        <ele>1356.5599999999999</ele>
        <time>2025-04-29T09:10:01Z</time>
      </trkpt>
      <trkpt lat="42.921244008466601" lon="-4.910986991599202">
        <ele>1356.0799999999999</ele>
        <time>2025-04-29T09:10:02Z</time>
      </trkpt>
      <trkpt lat="42.921356996521354" lon="-4.911041976884008">
        <ele>1355.1199999999999</ele>
        <time>2025-04-29T09:10:03Z</time>
      </trkpt>
      <trkpt lat="42.921451963484287" lon="-4.91113300435245">
        <ele>1354.6300000000001</ele>
        <time>2025-04-29T09:10:04Z</time>
      </trkpt>
      <trkpt lat="42.921736026182771" lon="-4.911403991281986">
        <ele>1352.23</ele>
        <time>2025-04-29T09:10:07Z</time>
      </trkpt>
      <trkpt lat="42.922141961753368" lon="-4.91199298761785">
        <ele>1349.3499999999999</ele>
        <time>2025-04-29T09:10:12Z</time>
      </trkpt>
      <trkpt lat="42.922260984778404" lon="-4.912278978154063">
        <ele>1348.3900000000001</ele>
        <time>2025-04-29T09:10:14Z</time>
      </trkpt>
      <trkpt lat="42.92229300364852" lon="-4.91244301199913">
        <ele>1347.9100000000001</ele>
        <time>2025-04-29T09:10:15Z</time>
      </trkpt>
      <trkpt lat="42.922653006389737" lon="-4.913412965834141">
        <ele>1344.54</ele>
        <time>2025-04-29T09:10:22Z</time>
      </trkpt>
      <trkpt lat="42.922704974189401" lon="-4.913507010787725">
        <ele>1344.0599999999999</ele>
        <time>2025-04-29T09:10:23Z</time>
      </trkpt>
      <trkpt lat="42.922764988616109" lon="-4.913530983030796">
        <ele>1343.5799999999999</ele>
        <time>2025-04-29T09:10:24Z</time>
      </trkpt>
      <trkpt lat="42.922849981114268" lon="-4.913567025214434">
        <ele>1343.0999999999999</ele>
        <time>2025-04-29T09:10:25Z</time>
      </trkpt>
      <trkpt lat="42.922944026067853" lon="-4.913606001064181">
        <ele>1342.6199999999999</ele>
        <time>2025-04-29T09:10:26Z</time>
      </trkpt>
      <trkpt lat="42.923043016344309" lon="-4.913694011047483">
        <ele>1341.6600000000001</ele>
        <time>2025-04-29T09:10:27Z</time>
      </trkpt>
      <trkpt lat="42.923125997185707" lon="-4.913777997717261">
        <ele>1340.22</ele>
        <time>2025-04-29T09:10:28Z</time>
      </trkpt>
      <trkpt lat="42.923220964148641" lon="-4.913902971893549">
        <ele>1339.25</ele>
        <time>2025-04-29T09:10:29Z</time>
      </trkpt>
      <trkpt lat="42.923277961090207" lon="-4.914036998525262">
        <ele>1338.29</ele>
        <time>2025-04-29T09:10:30Z</time>
      </trkpt>
      <trkpt lat="42.923333030194044" lon="-4.914164990186691">
        <ele>1337.3299999999999</ele>
        <time>2025-04-29T09:10:31Z</time>
      </trkpt>
      <trkpt lat="42.923382986336946" lon="-4.914282001554966">
        <ele>1336.8499999999999</ele>
        <time>2025-04-29T09:10:32Z</time>
      </trkpt>
      <trkpt lat="42.923427997156978" lon="-4.914386020973325">
        <ele>1335.8900000000001</ele>
        <time>2025-04-29T09:10:33Z</time>
      </trkpt>
      <trkpt lat="42.923455992713571" lon="-4.914450980722904">
        <ele>1334.9300000000001</ele>
        <time>2025-04-29T09:10:34Z</time>
      </trkpt>
      <trkpt lat="42.923541991040111" lon="-4.914473025128245">
        <ele>1334.45</ele>
        <time>2025-04-29T09:10:35Z</time>
      </trkpt>
      <trkpt lat="42.923621032387018" lon="-4.914493979886174">
        <ele>1333.97</ele>
        <time>2025-04-29T09:10:36Z</time>
      </trkpt>
      <trkpt lat="42.923717005178332" lon="-4.914519041776657">
        <ele>1333.97</ele>
        <time>2025-04-29T09:10:37Z</time>
      </trkpt>
      <trkpt lat="42.92381901293993" lon="-4.914545025676489">
        <ele>1333.49</ele>
        <time>2025-04-29T09:10:38Z</time>
      </trkpt>
      <trkpt lat="42.923919009044766" lon="-4.914572015404701">
        <ele>1333.01</ele>
        <time>2025-04-29T09:10:39Z</time>
      </trkpt>
      <trkpt lat="42.923996960744262" lon="-4.914643010124564">
        <ele>1332.04</ele>
        <time>2025-04-29T09:10:40Z</time>
      </trkpt>
      <trkpt lat="42.92407700791955" lon="-4.914749963209033">
        <ele>1331.0799999999999</ele>
        <time>2025-04-29T09:10:41Z</time>
      </trkpt>
      <trkpt lat="42.92416300624609" lon="-4.914864040911198">
        <ele>1329.6400000000001</ele>
        <time>2025-04-29T09:10:42Z</time>
      </trkpt>
      <trkpt lat="42.924251016229391" lon="-4.914981974288821">
        <ele>1328.2</ele>
        <time>2025-04-29T09:10:43Z</time>
      </trkpt>
      <trkpt lat="42.924316981807351" lon="-4.915137039497495">
        <ele>1327.24</ele>
        <time>2025-04-29T09:10:44Z</time>
      </trkpt>
      <trkpt lat="42.924376996234059" lon="-4.915306018665433">
        <ele>1325.8</ele>
        <time>2025-04-29T09:10:45Z</time>
      </trkpt>
      <trkpt lat="42.924438016489148" lon="-4.915474997833371">
        <ele>1324.3499999999999</ele>
        <time>2025-04-29T09:10:46Z</time>
      </trkpt>
      <trkpt lat="42.924603978171945" lon="-4.91598897613585">
        <ele>1321.47</ele>
        <time>2025-04-29T09:10:49Z</time>
      </trkpt>
      <trkpt lat="42.924629040062428" lon="-4.916168013587594">
        <ele>1320.51</ele>
        <time>2025-04-29T09:10:50Z</time>
      </trkpt>
      <trkpt lat="42.924672039225698" lon="-4.91667503491044">
        <ele>1317.1400000000001</ele>
        <time>2025-04-29T09:10:53Z</time>
      </trkpt>
      <trkpt lat="42.924664998427033" lon="-4.916828004643321">
        <ele>1315.7</ele>
        <time>2025-04-29T09:10:54Z</time>
      </trkpt>
      <trkpt lat="42.924658041447401" lon="-4.91697602905333">
        <ele>1314.74</ele>
        <time>2025-04-29T09:10:55Z</time>
      </trkpt>
      <trkpt lat="42.924624010920525" lon="-4.917118018493056">
        <ele>1313.78</ele>
        <time>2025-04-29T09:10:56Z</time>
      </trkpt>
      <trkpt lat="42.924587968736887" lon="-4.917251039296389">
        <ele>1312.3399999999999</ele>
        <time>2025-04-29T09:10:57Z</time>
      </trkpt>
      <trkpt lat="42.924538012593985" lon="-4.917350029572845">
        <ele>1311.3800000000001</ele>
        <time>2025-04-29T09:10:58Z</time>
      </trkpt>
      <trkpt lat="42.924494007602334" lon="-4.917438039556146">
        <ele>1310.4100000000001</ele>
        <time>2025-04-29T09:10:59Z</time>
      </trkpt>
      <trkpt lat="42.924415972083807" lon="-4.917525965720415">
        <ele>1309.45</ele>
        <time>2025-04-29T09:11:00Z</time>
      </trkpt>
      <trkpt lat="42.924328967928886" lon="-4.91757701151073">
        <ele>1308.49</ele>
        <time>2025-04-29T09:11:01Z</time>
      </trkpt>
      <trkpt lat="42.924229977652431" lon="-4.917636020109057">
        <ele>1307.53</ele>
        <time>2025-04-29T09:11:02Z</time>
      </trkpt>
      <trkpt lat="42.923613991588354" lon="-4.918012032285333">
        <ele>1303.6900000000001</ele>
        <time>2025-04-29T09:11:08Z</time>
      </trkpt>
      <trkpt lat="42.923547020182014" lon="-4.918120997026563">
        <ele>1303.2</ele>
        <time>2025-04-29T09:11:09Z</time>
      </trkpt>
      <trkpt lat="42.923476025462151" lon="-4.918234990909696">
        <ele>1302.72</ele>
        <time>2025-04-29T09:11:10Z</time>
      </trkpt>
      <trkpt lat="42.923397989943624" lon="-4.918359965085983">
        <ele>1301.76</ele>
        <time>2025-04-29T09:11:11Z</time>
      </trkpt>
      <trkpt lat="42.923316014930606" lon="-4.918491980060935">
        <ele>1301.28</ele>
        <time>2025-04-29T09:11:12Z</time>
      </trkpt>
      <trkpt lat="42.922743028029799" lon="-4.91912498138845">
        <ele>1297.9200000000001</ele>
        <time>2025-04-29T09:11:18Z</time>
      </trkpt>
      <trkpt lat="42.922640014439821" lon="-4.919213997200131">
        <ele>1297.4400000000001</ele>
        <time>2025-04-29T09:11:19Z</time>
      </trkpt>
      <trkpt lat="42.922539012506604" lon="-4.919246016070247">
        <ele>1296.48</ele>
        <time>2025-04-29T09:11:20Z</time>
      </trkpt>
      <trkpt lat="42.922433987259865" lon="-4.919279040768743">
        <ele>1295.99</ele>
        <time>2025-04-29T09:11:21Z</time>
      </trkpt>
      <trkpt lat="42.922319993376732" lon="-4.919314999133349">
        <ele>1295.51</ele>
        <time>2025-04-29T09:11:22Z</time>
      </trkpt>
      <trkpt lat="42.922200970351696" lon="-4.919346012175083">
        <ele>1295.03</ele>
        <time>2025-04-29T09:11:23Z</time>
      </trkpt>
      <trkpt lat="42.921857982873917" lon="-4.919374007731676">
        <ele>1293.1099999999999</ele>
        <time>2025-04-29T09:11:26Z</time>
      </trkpt>
      <trkpt lat="42.921718005090952" lon="-4.919385993853211">
        <ele>1292.6300000000001</ele>
        <time>2025-04-29T09:11:27Z</time>
      </trkpt>
      <trkpt lat="42.921658996492624" lon="-4.919443996623159">
        <ele>1292.6300000000001</ele>
        <time>2025-04-29T09:11:28Z</time>
      </trkpt>
      <trkpt lat="42.921588001772761" lon="-4.91955203935504">
        <ele>1292.1500000000001</ele>
        <time>2025-04-29T09:11:29Z</time>
      </trkpt>
      <trkpt lat="42.921552965417504" lon="-4.919700985774398">
        <ele>1291.6700000000001</ele>
        <time>2025-04-29T09:11:30Z</time>
      </trkpt>
      <trkpt lat="42.921575009822845" lon="-4.91981003433466">
        <ele>1291.1900000000001</ele>
        <time>2025-04-29T09:11:31Z</time>
      </trkpt>
      <trkpt lat="42.921644998714328" lon="-4.919955963268876">
        <ele>1291.1900000000001</ele>
        <time>2025-04-29T09:11:32Z</time>
      </trkpt>
      <trkpt lat="42.921728985384107" lon="-4.920070040971041">
        <ele>1290.71</ele>
        <time>2025-04-29T09:11:33Z</time>
      </trkpt>
      <trkpt lat="42.921816995367408" lon="-4.920188980177045">
        <ele>1290.71</ele>
        <time>2025-04-29T09:11:34Z</time>
      </trkpt>
      <trkpt lat="42.921888995915651" lon="-4.92028696462512">
        <ele>1290.71</ele>
        <time>2025-04-29T09:11:35Z</time>
      </trkpt>
      <trkpt lat="42.921897964552045" lon="-4.920381009578705">
        <ele>1290.71</ele>
        <time>2025-04-29T09:11:36Z</time>
      </trkpt>
      <trkpt lat="42.92190701700747" lon="-4.920472037047148">
        <ele>1290.71</ele>
        <time>2025-04-29T09:11:37Z</time>
      </trkpt>
      <trkpt lat="42.921915985643864" lon="-4.920562980696559">
        <ele>1290.71</ele>
        <time>2025-04-29T09:11:38Z</time>
      </trkpt>
      <trkpt lat="42.921925038099289" lon="-4.920659959316254">
        <ele>1290.23</ele>
        <time>2025-04-29T09:11:39Z</time>
      </trkpt>
      <trkpt lat="42.921931995078921" lon="-4.920737994834781">
        <ele>1290.23</ele>
        <time>2025-04-29T09:11:40Z</time>
      </trkpt>
      <trkpt lat="42.921988992020488" lon="-4.920814018696547">
        <ele>1290.23</ele>
        <time>2025-04-29T09:11:41Z</time>
      </trkpt>
      <trkpt lat="42.922041965648532" lon="-4.920817958191037">
        <ele>1290.71</ele>
        <time>2025-04-29T09:11:42Z</time>
      </trkpt>
      <trkpt lat="42.92212100699544" lon="-4.920808989554644">
        <ele>1290.71</ele>
        <time>2025-04-29T09:11:43Z</time>
      </trkpt>
      <trkpt lat="42.922203987836838" lon="-4.92079901508987">
        <ele>1290.71</ele>
        <time>2025-04-29T09:11:44Z</time>
      </trkpt>
      <trkpt lat="42.922289986163378" lon="-4.920789040625095">
        <ele>1291.6700000000001</ele>
        <time>2025-04-29T09:11:45Z</time>
      </trkpt>
      <trkpt lat="42.922388976439834" lon="-4.920792980119586">
        <ele>1292.1500000000001</ele>
        <time>2025-04-29T09:11:46Z</time>
      </trkpt>
      <trkpt lat="42.922489978373051" lon="-4.920836985111237">
        <ele>1292.6300000000001</ele>
        <time>2025-04-29T09:11:47Z</time>
      </trkpt>
      <trkpt lat="42.922599026933312" lon="-4.920884007588029">
        <ele>1293.1099999999999</ele>
        <time>2025-04-29T09:11:48Z</time>
      </trkpt>
      <trkpt lat="42.922817040234804" lon="-4.920978974550962">
        <ele>1293.5899999999999</ele>
        <time>2025-04-29T09:11:50Z</time>
      </trkpt>
      <trkpt lat="42.92291603051126" lon="-4.92097201757133">
        <ele>1293.5899999999999</ele>
        <time>2025-04-29T09:11:51Z</time>
      </trkpt>
      <trkpt lat="42.923022983595729" lon="-4.920930024236441">
        <ele>1293.5899999999999</ele>
        <time>2025-04-29T09:11:52Z</time>
      </trkpt>
      <trkpt lat="42.923127003014088" lon="-4.920889958739281">
        <ele>1293.5899999999999</ele>
        <time>2025-04-29T09:11:53Z</time>
      </trkpt>
      <trkpt lat="42.923231022432446" lon="-4.920848971232772">
        <ele>1293.5899999999999</ele>
        <time>2025-04-29T09:11:54Z</time>
      </trkpt>
      <trkpt lat="42.923355996608734" lon="-4.920845031738281">
        <ele>1294.0699999999999</ele>
        <time>2025-04-29T09:11:55Z</time>
      </trkpt>
      <trkpt lat="42.923476025462151" lon="-4.920845031738281">
        <ele>1294.0699999999999</ele>
        <time>2025-04-29T09:11:56Z</time>
      </trkpt>
      <trkpt lat="42.923603011295199" lon="-4.920845031738281">
        <ele>1293.5899999999999</ele>
        <time>2025-04-29T09:11:57Z</time>
      </trkpt>
      <trkpt lat="42.923737037926912" lon="-4.920863974839449">
        <ele>1293.5899999999999</ele>
        <time>2025-04-29T09:11:58Z</time>
      </trkpt>
      <trkpt lat="42.923858994618058" lon="-4.920916026458144">
        <ele>1293.1099999999999</ele>
        <time>2025-04-29T09:11:59Z</time>
      </trkpt>
      <trkpt lat="42.923973994329572" lon="-4.920964976772666">
        <ele>1293.1099999999999</ele>
        <time>2025-04-29T09:12:00Z</time>
      </trkpt>
      <trkpt lat="42.924082037061453" lon="-4.921009987592697">
        <ele>1292.6300000000001</ele>
        <time>2025-04-29T09:12:01Z</time>
      </trkpt>
      <trkpt lat="42.924250010401011" lon="-4.92108098231256">
        <ele>1292.1500000000001</ele>
        <time>2025-04-29T09:12:03Z</time>
      </trkpt>
      <trkpt lat="42.924315975978971" lon="-4.921190030872822">
        <ele>1292.1500000000001</ele>
        <time>2025-04-29T09:12:04Z</time>
      </trkpt>
      <trkpt lat="42.924373978748918" lon="-4.921283992007375">
        <ele>1291.6700000000001</ele>
        <time>2025-04-29T09:12:05Z</time>
      </trkpt>
      <trkpt lat="42.924423012882471" lon="-4.92138097062707">
        <ele>1290.71</ele>
        <time>2025-04-29T09:12:06Z</time>
      </trkpt>
      <trkpt lat="42.924432987347245" lon="-4.921511979773641">
        <ele>1289.75</ele>
        <time>2025-04-29T09:12:07Z</time>
      </trkpt>
      <trkpt lat="42.924442961812019" lon="-4.92163896560669">
        <ele>1288.3</ele>
        <time>2025-04-29T09:12:08Z</time>
      </trkpt>
      <trkpt lat="42.924429969862103" lon="-4.921808028593659">
        <ele>1287.3399999999999</ele>
        <time>2025-04-29T09:12:09Z</time>
      </trkpt>
      <trkpt lat="42.924409015104175" lon="-4.921964015811682">
        <ele>1286.8599999999999</ele>
        <time>2025-04-29T09:12:10Z</time>
      </trkpt>
      <trkpt lat="42.924366015940905" lon="-4.922130983322859">
        <ele>1285.9000000000001</ele>
        <time>2025-04-29T09:12:11Z</time>
      </trkpt>
      <trkpt lat="42.924317987635732" lon="-4.922311026602984">
        <ele>1284.9400000000001</ele>
        <time>2025-04-29T09:12:12Z</time>
      </trkpt>
      <trkpt lat="42.924130987375975" lon="-4.923022985458374">
        <ele>1281.0899999999999</ele>
        <time>2025-04-29T09:12:16Z</time>
      </trkpt>
      <trkpt lat="42.923906017094851" lon="-4.924074998125434">
        <ele>1276.77</ele>
        <time>2025-04-29T09:12:22Z</time>
      </trkpt>
      <trkpt lat="42.923892019316554" lon="-4.92475301027298">
        <ele>1273.4000000000001</ele>
        <time>2025-04-29T09:12:26Z</time>
      </trkpt>
      <trkpt lat="42.923890007659793" lon="-4.924885025247932">
        <ele>1272.9200000000001</ele>
        <time>2025-04-29T09:12:27Z</time>
      </trkpt>
      <trkpt lat="42.923886990174651" lon="-4.924994995817542">
        <ele>1271.96</ele>
        <time>2025-04-29T09:12:28Z</time>
      </trkpt>
      <trkpt lat="42.923885984346271" lon="-4.925085017457604">
        <ele>1271</ele>
        <time>2025-04-29T09:12:29Z</time>
      </trkpt>
      <trkpt lat="42.923894030973315" lon="-4.925131034106016">
        <ele>1270.04</ele>
        <time>2025-04-29T09:12:30Z</time>
      </trkpt>
      <trkpt lat="42.923923032358289" lon="-4.925178978592157">
        <ele>1269.0799999999999</ele>
        <time>2025-04-29T09:12:31Z</time>
      </trkpt>
      <trkpt lat="42.923949016258121" lon="-4.925221977755427">
        <ele>1268.1199999999999</ele>
        <time>2025-04-29T09:12:32Z</time>
      </trkpt>
      <trkpt lat="42.923996038734913" lon="-4.92520697414875">
        <ele>1267.6400000000001</ele>
        <time>2025-04-29T09:12:33Z</time>
      </trkpt>
      <trkpt lat="42.924078013747931" lon="-4.925179984420538">
        <ele>1267.6400000000001</ele>
        <time>2025-04-29T09:12:34Z</time>
      </trkpt>
      <trkpt lat="42.924114977940917" lon="-4.925107983872294">
        <ele>1266.6700000000001</ele>
        <time>2025-04-29T09:12:35Z</time>
      </trkpt>
      <trkpt lat="42.924171974882483" lon="-4.925000024959445">
        <ele>1265.71</ele>
        <time>2025-04-29T09:12:36Z</time>
      </trkpt>
      <trkpt lat="42.924300972372293" lon="-4.924750998616219">
        <ele>1264.75</ele>
        <time>2025-04-29T09:12:38Z</time>
      </trkpt>
      <trkpt lat="42.924525020644069" lon="-4.92445201613009">
        <ele>1263.79</ele>
        <time>2025-04-29T09:12:41Z</time>
      </trkpt>
      <trkpt lat="42.924590986222029" lon="-4.924371968954802">
        <ele>1263.3099999999999</ele>
        <time>2025-04-29T09:12:42Z</time>
      </trkpt>
      <trkpt lat="42.924687964841723" lon="-4.924313966184855">
        <ele>1263.3099999999999</ele>
        <time>2025-04-29T09:12:43Z</time>
      </trkpt>
      <trkpt lat="42.924768012017012" lon="-4.924282031133771">
        <ele>1262.8299999999999</ele>
        <time>2025-04-29T09:12:44Z</time>
      </trkpt>
      <trkpt lat="42.924882005900145" lon="-4.924270967021585">
        <ele>1262.3499999999999</ele>
        <time>2025-04-29T09:12:45Z</time>
      </trkpt>
      <trkpt lat="42.924985019490123" lon="-4.924298962578178">
        <ele>1261.3900000000001</ele>
        <time>2025-04-29T09:12:46Z</time>
      </trkpt>
      <trkpt lat="42.925068000331521" lon="-4.924321006983519">
        <ele>1260.4300000000001</ele>
        <time>2025-04-29T09:12:47Z</time>
      </trkpt>
      <trkpt lat="42.9251519870013" lon="-4.92430399172008">
        <ele>1259.46</ele>
        <time>2025-04-29T09:12:48Z</time>
      </trkpt>
      <trkpt lat="42.925189035013318" lon="-4.924267027527094">
        <ele>1258.5</ele>
        <time>2025-04-29T09:12:49Z</time>
      </trkpt>
      <trkpt lat="42.925245026126504" lon="-4.924160996451974">
        <ele>1258.02</ele>
        <time>2025-04-29T09:12:50Z</time>
      </trkpt>
      <trkpt lat="42.925305040553212" lon="-4.92404499091208">
        <ele>1257.54</ele>
        <time>2025-04-29T09:12:51Z</time>
      </trkpt>
      <trkpt lat="42.925373017787933" lon="-4.923912975937128">
        <ele>1257.0599999999999</ele>
        <time>2025-04-29T09:12:52Z</time>
      </trkpt>
      <trkpt lat="42.925450969487429" lon="-4.923763023689389">
        <ele>1256.5799999999999</ele>
        <time>2025-04-29T09:12:53Z</time>
      </trkpt>
      <trkpt lat="42.925541996955872" lon="-4.92368096485734">
        <ele>1256.0999999999999</ele>
        <time>2025-04-29T09:12:54Z</time>
      </trkpt>
      <trkpt lat="42.925638975575566" lon="-4.9235949665308">
        <ele>1255.6199999999999</ele>
        <time>2025-04-29T09:12:55Z</time>
      </trkpt>
      <trkpt lat="42.925811978057027" lon="-4.923438979312778">
        <ele>1255.1400000000001</ele>
        <time>2025-04-29T09:12:57Z</time>
      </trkpt>
      <trkpt lat="42.925892025232315" lon="-4.923352980986238">
        <ele>1255.1400000000001</ele>
        <time>2025-04-29T09:12:58Z</time>
      </trkpt>
      <trkpt lat="42.926093023270369" lon="-4.922951990738511">
        <ele>1253.22</ele>
        <time>2025-04-29T09:13:01Z</time>
      </trkpt>
      <trkpt lat="42.926158988848329" lon="-4.922818969935179">
        <ele>1253.22</ele>
        <time>2025-04-29T09:13:02Z</time>
      </trkpt>
      <trkpt lat="42.926211040467024" lon="-4.922792986035347">
        <ele>1252.74</ele>
        <time>2025-04-29T09:13:03Z</time>
      </trkpt>
      <trkpt lat="42.926311958581209" lon="-4.922763984650374">
        <ele>1252.74</ele>
        <time>2025-04-29T09:13:04Z</time>
      </trkpt>
      <trkpt lat="42.92639602907002" lon="-4.922794997692108">
        <ele>1251.77</ele>
        <time>2025-04-29T09:13:05Z</time>
      </trkpt>
      <trkpt lat="42.926492001861334" lon="-4.922850988805294">
        <ele>1250.8099999999999</ele>
        <time>2025-04-29T09:13:06Z</time>
      </trkpt>
      <trkpt lat="42.926574982702732" lon="-4.922933969646692">
        <ele>1249.8499999999999</ele>
        <time>2025-04-29T09:13:07Z</time>
      </trkpt>
      <trkpt lat="42.926659975200891" lon="-4.923018962144852">
        <ele>1249.3699999999999</ele>
        <time>2025-04-29T09:13:08Z</time>
      </trkpt>
      <trkpt lat="42.92674102820456" lon="-4.923129016533494">
        <ele>1248.8900000000001</ele>
        <time>2025-04-29T09:13:09Z</time>
      </trkpt>
      <trkpt lat="42.926809005439281" lon="-4.923238987103105">
        <ele>1248.8900000000001</ele>
        <time>2025-04-29T09:13:10Z</time>
      </trkpt>
      <trkpt lat="42.927016038447618" lon="-4.923576023429632">
        <ele>1249.3699999999999</ele>
        <time>2025-04-29T09:13:13Z</time>
      </trkpt>
      <trkpt lat="42.927069012075663" lon="-4.923725975677371">
        <ele>1249.8499999999999</ele>
        <time>2025-04-29T09:13:14Z</time>
      </trkpt>
      <trkpt lat="42.927291970700026" lon="-4.924556035548449">
        <ele>1249.3699999999999</ele>
        <time>2025-04-29T09:13:19Z</time>
      </trkpt>
      <trkpt lat="42.927453992888331" lon="-4.925149977207184">
        <ele>1247.9300000000001</ele>
        <time>2025-04-29T09:13:23Z</time>
      </trkpt>
      <trkpt lat="42.92751400731504" lon="-4.925260031595826">
        <ele>1247.45</ele>
        <time>2025-04-29T09:13:24Z</time>
      </trkpt>
      <trkpt lat="42.927576033398509" lon="-4.925373019650579">
        <ele>1247.45</ele>
        <time>2025-04-29T09:13:25Z</time>
      </trkpt>
      <trkpt lat="42.927811983972788" lon="-4.925630008801818">
        <ele>1247.45</ele>
        <time>2025-04-29T09:13:28Z</time>
      </trkpt>
      <trkpt lat="42.927926983684301" lon="-4.925852967426181">
        <ele>1246.97</ele>
        <time>2025-04-29T09:13:30Z</time>
      </trkpt>
      <trkpt lat="42.927969982847571" lon="-4.92599998600781">
        <ele>1246.97</ele>
        <time>2025-04-29T09:13:31Z</time>
      </trkpt>
      <trkpt lat="42.928013987839222" lon="-4.926152033731341">
        <ele>1246.49</ele>
        <time>2025-04-29T09:13:32Z</time>
      </trkpt>
      <trkpt lat="42.928107026964426" lon="-4.926471970975399">
        <ele>1245.53</ele>
        <time>2025-04-29T09:13:34Z</time>
      </trkpt>
      <trkpt lat="42.928154971450567" lon="-4.926637010648847">
        <ele>1245.04</ele>
        <time>2025-04-29T09:13:35Z</time>
      </trkpt>
      <trkpt lat="42.928455965593457" lon="-4.927845010533929">
        <ele>1241.2</ele>
        <time>2025-04-29T09:13:43Z</time>
      </trkpt>
      <trkpt lat="42.92848002165556" lon="-4.927963027730584">
        <ele>1241.2</ele>
        <time>2025-04-29T09:13:44Z</time>
      </trkpt>
      <trkpt lat="42.928513968363404" lon="-4.928072998300195">
        <ele>1240.72</ele>
        <time>2025-04-29T09:13:45Z</time>
      </trkpt>
      <trkpt lat="42.928570965304971" lon="-4.928139969706535">
        <ele>1240.72</ele>
        <time>2025-04-29T09:13:46Z</time>
      </trkpt>
      <trkpt lat="42.928666016086936" lon="-4.928200989961624">
        <ele>1240.72</ele>
        <time>2025-04-29T09:13:47Z</time>
      </trkpt>
      <trkpt lat="42.928746985271573" lon="-4.928193027153611">
        <ele>1240.72</ele>
        <time>2025-04-29T09:13:48Z</time>
      </trkpt>
      <trkpt lat="42.928849998861551" lon="-4.928178023546934">
        <ele>1240.72</ele>
        <time>2025-04-29T09:13:49Z</time>
      </trkpt>
      <trkpt lat="42.928930968046188" lon="-4.928122032433748">
        <ele>1240.24</ele>
        <time>2025-04-29T09:13:50Z</time>
      </trkpt>
      <trkpt lat="42.92901897802949" lon="-4.928061012178659">
        <ele>1240.24</ele>
        <time>2025-04-29T09:13:51Z</time>
      </trkpt>
      <trkpt lat="42.929179994389415" lon="-4.927983982488513">
        <ele>1240.24</ele>
        <time>2025-04-29T09:13:53Z</time>
      </trkpt>
      <trkpt lat="42.929265992715955" lon="-4.927974008023739">
        <ele>1239.76</ele>
        <time>2025-04-29T09:13:54Z</time>
      </trkpt>
      <trkpt lat="42.929329024627805" lon="-4.927985994145274">
        <ele>1240.24</ele>
        <time>2025-04-29T09:13:55Z</time>
      </trkpt>
      <trkpt lat="42.929394990205765" lon="-4.928064029663801">
        <ele>1240.24</ele>
        <time>2025-04-29T09:13:56Z</time>
      </trkpt>
      <trkpt lat="42.929453998804092" lon="-4.928152961656451">
        <ele>1240.24</ele>
        <time>2025-04-29T09:13:57Z</time>
      </trkpt>
      <trkpt lat="42.929494986310601" lon="-4.928278019651771">
        <ele>1240.24</ele>
        <time>2025-04-29T09:13:58Z</time>
      </trkpt>
      <trkpt lat="42.929538991302252" lon="-4.928409028798342">
        <ele>1240.24</ele>
        <time>2025-04-29T09:13:59Z</time>
      </trkpt>
      <trkpt lat="42.92957897298038" lon="-4.928528973832727">
        <ele>1240.24</ele>
        <time>2025-04-29T09:14:00Z</time>
      </trkpt>
      <trkpt lat="42.929674023762345" lon="-4.928604997694492">
        <ele>1239.76</ele>
        <time>2025-04-29T09:14:01Z</time>
      </trkpt>
      <trkpt lat="42.929768990725279" lon="-4.928626036271453">
        <ele>1239.76</ele>
        <time>2025-04-29T09:14:02Z</time>
      </trkpt>
      <trkpt lat="42.929855994880199" lon="-4.928597034886479">
        <ele>1239.76</ele>
        <time>2025-04-29T09:14:03Z</time>
      </trkpt>
      <trkpt lat="42.929946016520262" lon="-4.9285579752177">
        <ele>1239.76</ele>
        <time>2025-04-29T09:14:04Z</time>
      </trkpt>
      <trkpt lat="42.930036960169673" lon="-4.928517993539572">
        <ele>1239.76</ele>
        <time>2025-04-29T09:14:05Z</time>
      </trkpt>
      <trkpt lat="42.930179033428431" lon="-4.928437024354935">
        <ele>1239.28</ele>
        <time>2025-04-29T09:14:07Z</time>
      </trkpt>
      <trkpt lat="42.930222032591701" lon="-4.928411040455103">
        <ele>1238.8</ele>
        <time>2025-04-29T09:14:08Z</time>
      </trkpt>
      <trkpt lat="42.930248016491532" lon="-4.928288999944925">
        <ele>1238.3199999999999</ele>
        <time>2025-04-29T09:14:09Z</time>
      </trkpt>
      <trkpt lat="42.930227983742952" lon="-4.928235020488501">
        <ele>1237.8299999999999</ele>
        <time>2025-04-29T09:14:10Z</time>
      </trkpt>
      <trkpt lat="42.930198982357979" lon="-4.928151033818722">
        <ele>1236.8699999999999</ele>
        <time>2025-04-29T09:14:11Z</time>
      </trkpt>
      <trkpt lat="42.930164029821754" lon="-4.928035028278828">
        <ele>1236.3900000000001</ele>
        <time>2025-04-29T09:14:12Z</time>
      </trkpt>
      <trkpt lat="42.930026985704899" lon="-4.927098015323281">
        <ele>1233.51</ele>
        <time>2025-04-29T09:14:17Z</time>
      </trkpt>
      <trkpt lat="42.93004903011024" lon="-4.926840020343661">
        <ele>1232.55</ele>
        <time>2025-04-29T09:14:18Z</time>
      </trkpt>
      <trkpt lat="42.930094040930271" lon="-4.926571967080236">
        <ele>1231.5899999999999</ele>
        <time>2025-04-29T09:14:19Z</time>
      </trkpt>
      <trkpt lat="42.930300990119576" lon="-4.925074959173799">
        <ele>1226.78</ele>
        <time>2025-04-29T09:14:24Z</time>
      </trkpt>
      <trkpt lat="42.930300990119576" lon="-4.92477698251605">
        <ele>1225.3399999999999</ele>
        <time>2025-04-29T09:14:25Z</time>
      </trkpt>
      <trkpt lat="42.930258996784687" lon="-4.924494009464979">
        <ele>1223.9000000000001</ele>
        <time>2025-04-29T09:14:26Z</time>
      </trkpt>
      <trkpt lat="42.930192025378346" lon="-4.924224028363824">
        <ele>1222.45</ele>
        <time>2025-04-29T09:14:27Z</time>
      </trkpt>
      <trkpt lat="42.930104015395045" lon="-4.923949018120766">
        <ele>1221.01</ele>
        <time>2025-04-29T09:14:28Z</time>
      </trkpt>
      <trkpt lat="42.930018017068505" lon="-4.92367803119123">
        <ele>1219.5699999999999</ele>
        <time>2025-04-29T09:14:29Z</time>
      </trkpt>
      <trkpt lat="42.929778965190053" lon="-4.922837996855378">
        <ele>1215.24</ele>
        <time>2025-04-29T09:14:32Z</time>
      </trkpt>
      <trkpt lat="42.929762033745646" lon="-4.922544965520501">
        <ele>1213.8</ele>
        <time>2025-04-29T09:14:33Z</time>
      </trkpt>
      <trkpt lat="42.929744012653828" lon="-4.922251012176275">
        <ele>1212.3599999999999</ele>
        <time>2025-04-29T09:14:34Z</time>
      </trkpt>
      <trkpt lat="42.929725991562009" lon="-4.921954963356257">
        <ele>1210.4400000000001</ele>
        <time>2025-04-29T09:14:35Z</time>
      </trkpt>
      <trkpt lat="42.929681986570358" lon="-4.921663021668792">
        <ele>1209</ele>
        <time>2025-04-29T09:14:36Z</time>
      </trkpt>
      <trkpt lat="42.929610991850495" lon="-4.921370996162295">
        <ele>1208.03</ele>
        <time>2025-04-29T09:14:37Z</time>
      </trkpt>
      <trkpt lat="42.929529016837478" lon="-4.921085005626082">
        <ele>1207.0699999999999</ele>
        <time>2025-04-29T09:14:38Z</time>
      </trkpt>
      <trkpt lat="42.928913030773401" lon="-4.918836979195476">
        <ele>1199.3800000000001</ele>
        <time>2025-04-29T09:14:46Z</time>
      </trkpt>
      <trkpt lat="42.92888998053968" lon="-4.918603962287307">
        <ele>1198.4200000000001</ele>
        <time>2025-04-29T09:14:47Z</time>
      </trkpt>
      <trkpt lat="42.928918981924653" lon="-4.918369017541409">
        <ele>1197.46</ele>
        <time>2025-04-29T09:14:48Z</time>
      </trkpt>
      <trkpt lat="42.928967010229826" lon="-4.918120997026563">
        <ele>1196.02</ele>
        <time>2025-04-29T09:14:49Z</time>
      </trkpt>
      <trkpt lat="42.92901897802949" lon="-4.917860990390182">
        <ele>1195.0599999999999</ele>
        <time>2025-04-29T09:14:50Z</time>
      </trkpt>
      <trkpt lat="42.929091984406114" lon="-4.917593020945787">
        <ele>1194.0899999999999</ele>
        <time>2025-04-29T09:14:51Z</time>
      </trkpt>
      <trkpt lat="42.929572016000748" lon="-4.915961986407638">
        <ele>1187.8499999999999</ele>
        <time>2025-04-29T09:14:57Z</time>
      </trkpt>
      <trkpt lat="42.929661031812429" lon="-4.915723018348217">
        <ele>1186.4000000000001</ele>
        <time>2025-04-29T09:14:58Z</time>
      </trkpt>
      <trkpt lat="42.929809978231788" lon="-4.915508022531867">
        <ele>1184.96</ele>
        <time>2025-04-29T09:14:59Z</time>
      </trkpt>
      <trkpt lat="42.930848998948932" lon="-4.914079997688532">
        <ele>1177.27</ele>
        <time>2025-04-29T09:15:06Z</time>
      </trkpt>
      <trkpt lat="42.931018983945251" lon="-4.913958963006735">
        <ele>1176.3099999999999</ele>
        <time>2025-04-29T09:15:07Z</time>
      </trkpt>
      <trkpt lat="42.931213025003672" lon="-4.913886040449143">
        <ele>1174.8699999999999</ele>
        <time>2025-04-29T09:15:08Z</time>
      </trkpt>
      <trkpt lat="42.93142600916326" lon="-4.913844969123602">
        <ele>1173.9100000000001</ele>
        <time>2025-04-29T09:15:09Z</time>
      </trkpt>
      <trkpt lat="42.931652991101146" lon="-4.913832983002067">
        <ele>1172.95</ele>
        <time>2025-04-29T09:15:10Z</time>
      </trkpt>
      <trkpt lat="42.931885002180934" lon="-4.913819991052151">
        <ele>1171.98</ele>
        <time>2025-04-29T09:15:11Z</time>
      </trkpt>
      <trkpt lat="42.932116007432342" lon="-4.913808004930615">
        <ele>1171.02</ele>
        <time>2025-04-29T09:15:12Z</time>
      </trkpt>
      <trkpt lat="42.932342989370227" lon="-4.913870031014085">
        <ele>1170.0599999999999</ele>
        <time>2025-04-29T09:15:13Z</time>
      </trkpt>
      <trkpt lat="42.932577012106776" lon="-4.913938008248806">
        <ele>1169.0999999999999</ele>
        <time>2025-04-29T09:15:14Z</time>
      </trkpt>
      <trkpt lat="42.933060983195901" lon="-4.91403398104012">
        <ele>1166.7</ele>
        <time>2025-04-29T09:15:16Z</time>
      </trkpt>
      <trkpt lat="42.93329400010407" lon="-4.913995005190373">
        <ele>1165.26</ele>
        <time>2025-04-29T09:15:17Z</time>
      </trkpt>
      <trkpt lat="42.933522993698716" lon="-4.913926022127271">
        <ele>1163.8099999999999</ele>
        <time>2025-04-29T09:15:18Z</time>
      </trkpt>
      <trkpt lat="42.93396002613008" lon="-4.9137950129807">
        <ele>1161.4100000000001</ele>
        <time>2025-04-29T09:15:20Z</time>
      </trkpt>
      <trkpt lat="42.934192959219217" lon="-4.9137759860605">
        <ele>1159.97</ele>
        <time>2025-04-29T09:15:21Z</time>
      </trkpt>
      <trkpt lat="42.934435028582811" lon="-4.913765005767345">
        <ele>1159.01</ele>
        <time>2025-04-29T09:15:22Z</time>
      </trkpt>
      <trkpt lat="42.934679025784135" lon="-4.913754025474191">
        <ele>1157.5599999999999</ele>
        <time>2025-04-29T09:15:23Z</time>
      </trkpt>
      <trkpt lat="42.9349260404706" lon="-4.913742039352655">
        <ele>1156.5999999999999</ele>
        <time>2025-04-29T09:15:24Z</time>
      </trkpt>
      <trkpt lat="42.935175988823175" lon="-4.913737010210753">
        <ele>1156.1199999999999</ele>
        <time>2025-04-29T09:15:25Z</time>
      </trkpt>
      <trkpt lat="42.935433983802795" lon="-4.913730975240469">
        <ele>1155.1600000000001</ele>
        <time>2025-04-29T09:15:26Z</time>
      </trkpt>
      <trkpt lat="42.935694996267557" lon="-4.913725024089217">
        <ele>1154.2</ele>
        <time>2025-04-29T09:15:27Z</time>
      </trkpt>
      <trkpt lat="42.93595802038908" lon="-4.913701973855496">
        <ele>1152.76</ele>
        <time>2025-04-29T09:15:28Z</time>
      </trkpt>
      <trkpt lat="42.936224984005094" lon="-4.913638019934297">
        <ele>1152.28</ele>
        <time>2025-04-29T09:15:29Z</time>
      </trkpt>
      <trkpt lat="42.937629958614707" lon="-4.91341196000576">
        <ele>1147.47</ele>
        <time>2025-04-29T09:15:35Z</time>
      </trkpt>
      <trkpt lat="42.938340995460749" lon="-4.913373989984393">
        <ele>1146.51</ele>
        <time>2025-04-29T09:15:40Z</time>
      </trkpt>
      <trkpt lat="42.938422970473766" lon="-4.913365021348">
        <ele>1146.03</ele>
        <time>2025-04-29T09:15:41Z</time>
      </trkpt>
      <trkpt lat="42.938562026247382" lon="-4.913549004122615">
        <ele>1146.03</ele>
        <time>2025-04-29T09:15:42Z</time>
      </trkpt>
      <trkpt lat="42.938577029854059" lon="-4.913568031042814">
        <ele>1145.55</ele>
        <time>2025-04-29T09:15:43Z</time>
      </trkpt>
      <trkpt lat="42.938677025958896" lon="-4.913696022704244">
        <ele>1145.0699999999999</ele>
        <time>2025-04-29T09:15:44Z</time>
      </trkpt>
      <trkpt lat="42.938785990700126" lon="-4.913833988830447">
        <ele>1145.0699999999999</ele>
        <time>2025-04-29T09:15:45Z</time>
      </trkpt>
      <trkpt lat="42.938939966261387" lon="-4.913940019905567">
        <ele>1145.0699999999999</ele>
        <time>2025-04-29T09:15:46Z</time>
      </trkpt>
      <trkpt lat="42.939100982621312" lon="-4.914043033495545">
        <ele>1144.5899999999999</ele>
        <time>2025-04-29T09:15:47Z</time>
      </trkpt>
      <trkpt lat="42.939263004809618" lon="-4.914145963266492">
        <ele>1144.5899999999999</ele>
        <time>2025-04-29T09:15:48Z</time>
      </trkpt>
      <trkpt lat="42.939445981755853" lon="-4.914174964651465">
        <ele>1144.1099999999999</ele>
        <time>2025-04-29T09:15:49Z</time>
      </trkpt>
      <trkpt lat="42.939634993672371" lon="-4.91420203819871">
        <ele>1144.1099999999999</ele>
        <time>2025-04-29T09:15:50Z</time>
      </trkpt>
      <trkpt lat="42.939827023074031" lon="-4.91420203819871">
        <ele>1144.1099999999999</ele>
        <time>2025-04-29T09:15:51Z</time>
      </trkpt>
      <trkpt lat="42.940026009455323" lon="-4.914176976308227">
        <ele>1143.6300000000001</ele>
        <time>2025-04-29T09:15:52Z</time>
      </trkpt>
      <trkpt lat="42.942014029249549" lon="-4.914031969383359">
        <ele>1144.5899999999999</ele>
        <time>2025-04-29T09:16:01Z</time>
      </trkpt>
      <trkpt lat="42.943411041051149" lon="-4.914215030148625">
        <ele>1143.1400000000001</ele>
        <time>2025-04-29T09:16:07Z</time>
      </trkpt>
      <trkpt lat="42.943622013553977" lon="-4.914326006546617">
        <ele>1143.1400000000001</ele>
        <time>2025-04-29T09:16:08Z</time>
      </trkpt>
      <trkpt lat="42.943829968571663" lon="-4.914447041228414">
        <ele>1142.6600000000001</ele>
        <time>2025-04-29T09:16:09Z</time>
      </trkpt>
      <trkpt lat="42.944030966609716" lon="-4.914595987647772">
        <ele>1142.6600000000001</ele>
        <time>2025-04-29T09:16:10Z</time>
      </trkpt>
      <trkpt lat="42.944232970476151" lon="-4.914746023714542">
        <ele>1142.1800000000001</ele>
        <time>2025-04-29T09:16:11Z</time>
      </trkpt>
      <trkpt lat="42.945673987269402" lon="-4.91575101390481">
        <ele>1138.3399999999999</ele>
        <time>2025-04-29T09:16:18Z</time>
      </trkpt>
      <trkpt lat="42.945854030549526" lon="-4.915934996679425">
        <ele>1138.3399999999999</ele>
        <time>2025-04-29T09:16:19Z</time>
      </trkpt>
      <trkpt lat="42.94640002772212" lon="-4.916492979973555">
        <ele>1137.8599999999999</ele>
        <time>2025-04-29T09:16:22Z</time>
      </trkpt>
      <trkpt lat="42.946602031588554" lon="-4.916645027697086">
        <ele>1137.8599999999999</ele>
        <time>2025-04-29T09:16:23Z</time>
      </trkpt>
      <trkpt lat="42.947778012603521" lon="-4.917493024840951">
        <ele>1136.4200000000001</ele>
        <time>2025-04-29T09:16:29Z</time>
      </trkpt>
      <trkpt lat="42.94797096401453" lon="-4.917570976540446">
        <ele>1135.9400000000001</ele>
        <time>2025-04-29T09:16:30Z</time>
      </trkpt>
      <trkpt lat="42.948184031993151" lon="-4.917594026774168">
        <ele>1135.45</ele>
        <time>2025-04-29T09:16:31Z</time>
      </trkpt>
      <trkpt lat="42.948847962543368" lon="-4.917665021494031">
        <ele>1135.45</ele>
        <time>2025-04-29T09:16:34Z</time>
      </trkpt>
      <trkpt lat="42.949062958359718" lon="-4.917741967365146">
        <ele>1135.45</ele>
        <time>2025-04-29T09:16:35Z</time>
      </trkpt>
      <trkpt lat="42.949264040216804" lon="-4.917861996218562">
        <ele>1135.45</ele>
        <time>2025-04-29T09:16:36Z</time>
      </trkpt>
      <trkpt lat="42.949470989406109" lon="-4.917984958738089">
        <ele>1135.45</ele>
        <time>2025-04-29T09:16:37Z</time>
      </trkpt>
      <trkpt lat="42.949682967737317" lon="-4.918111022561789">
        <ele>1135.45</ele>
        <time>2025-04-29T09:16:38Z</time>
      </trkpt>
      <trkpt lat="42.951444005593657" lon="-4.919205028563738">
        <ele>1133.05</ele>
        <time>2025-04-29T09:16:46Z</time>
      </trkpt>
      <trkpt lat="42.952630966901779" lon="-4.919653963297606">
        <ele>1132.5699999999999</ele>
        <time>2025-04-29T09:16:51Z</time>
      </trkpt>
      <trkpt lat="42.952849986031651" lon="-4.91979000158608">
        <ele>1132.5699999999999</ele>
        <time>2025-04-29T09:16:52Z</time>
      </trkpt>
      <trkpt lat="42.953460020944476" lon="-4.920146986842156">
        <ele>1131.6099999999999</ele>
        <time>2025-04-29T09:16:55Z</time>
      </trkpt>
      <trkpt lat="42.953652972355485" lon="-4.920169031247497">
        <ele>1131.1300000000001</ele>
        <time>2025-04-29T09:16:56Z</time>
      </trkpt>
      <trkpt lat="42.953837960958481" lon="-4.920139024034143">
        <ele>1130.6500000000001</ele>
        <time>2025-04-29T09:16:57Z</time>
      </trkpt>
      <trkpt lat="42.95420098118484" lon="-4.920080015435815">
        <ele>1130.6500000000001</ele>
        <time>2025-04-29T09:16:59Z</time>
      </trkpt>
      <trkpt lat="42.954398039728403" lon="-4.920119997113943">
        <ele>1130.6500000000001</ele>
        <time>2025-04-29T09:17:00Z</time>
      </trkpt>
      <trkpt lat="42.955891024321318" lon="-4.920425014570355">
        <ele>1129.6900000000001</ele>
        <time>2025-04-29T09:17:07Z</time>
      </trkpt>
      <trkpt lat="42.956081964075565" lon="-4.920352008193731">
        <ele>1129.21</ele>
        <time>2025-04-29T09:17:08Z</time>
      </trkpt>
      <trkpt lat="42.956463005393744" lon="-4.920208007097244">
        <ele>1129.21</ele>
        <time>2025-04-29T09:17:10Z</time>
      </trkpt>
      <trkpt lat="42.956667020916939" lon="-4.92020096629858">
        <ele>1129.21</ele>
        <time>2025-04-29T09:17:11Z</time>
      </trkpt>
      <trkpt lat="42.956873970106244" lon="-4.920230973511934">
        <ele>1129.21</ele>
        <time>2025-04-29T09:17:12Z</time>
      </trkpt>
      <trkpt lat="42.958875987678766" lon="-4.920667000114918">
        <ele>1127.76</ele>
        <time>2025-04-29T09:17:21Z</time>
      </trkpt>
      <trkpt lat="42.959708981215954" lon="-4.921054998412728">
        <ele>1127.28</ele>
        <time>2025-04-29T09:17:25Z</time>
      </trkpt>
      <trkpt lat="42.960481038317084" lon="-4.921559002250433">
        <ele>1126.3199999999999</ele>
        <time>2025-04-29T09:17:29Z</time>
      </trkpt>
      <trkpt lat="42.960663009434938" lon="-4.92163896560669">
        <ele>1125.8399999999999</ele>
        <time>2025-04-29T09:17:30Z</time>
      </trkpt>
      <trkpt lat="42.960874987766147" lon="-4.921618010848761">
        <ele>1125.3599999999999</ele>
        <time>2025-04-29T09:17:31Z</time>
      </trkpt>
      <trkpt lat="42.962437961250544" lon="-4.92135800421238">
        <ele>1124.4000000000001</ele>
        <time>2025-04-29T09:17:38Z</time>
      </trkpt>
      <trkpt lat="42.964302012696862" lon="-4.921109983697534">
        <ele>1121.52</ele>
        <time>2025-04-29T09:17:46Z</time>
      </trkpt>
      <trkpt lat="42.965188985690475" lon="-4.921117024496198">
        <ele>1121.52</ele>
        <time>2025-04-29T09:17:50Z</time>
      </trkpt>
      <trkpt lat="42.965403981506824" lon="-4.921161029487848">
        <ele>1121.52</ele>
        <time>2025-04-29T09:17:51Z</time>
      </trkpt>
      <trkpt lat="42.965610008686781" lon="-4.921203022822738">
        <ele>1121.52</ele>
        <time>2025-04-29T09:17:52Z</time>
      </trkpt>
      <trkpt lat="42.965791979804635" lon="-4.921311987563968">
        <ele>1121.52</ele>
        <time>2025-04-29T09:17:53Z</time>
      </trkpt>
      <trkpt lat="42.965970011427999" lon="-4.921434028074145">
        <ele>1121.52</ele>
        <time>2025-04-29T09:17:54Z</time>
      </trkpt>
      <trkpt lat="42.966141002252698" lon="-4.921567970886827">
        <ele>1121.52</ele>
        <time>2025-04-29T09:17:55Z</time>
      </trkpt>
      <trkpt lat="42.966292966157198" lon="-4.921771986410022">
        <ele>1121.03</ele>
        <time>2025-04-29T09:17:56Z</time>
      </trkpt>
      <trkpt lat="42.966449037194252" lon="-4.921982036903501">
        <ele>1120.55</ele>
        <time>2025-04-29T09:17:57Z</time>
      </trkpt>
      <trkpt lat="42.966608041897416" lon="-4.922195021063089">
        <ele>1120.55</ele>
        <time>2025-04-29T09:17:58Z</time>
      </trkpt>
      <trkpt lat="42.967818975448608" lon="-4.923349963501096">
        <ele>1117.1900000000001</ele>
        <time>2025-04-29T09:18:05Z</time>
      </trkpt>
      <trkpt lat="42.968018967658281" lon="-4.923393968492746">
        <ele>1116.71</ele>
        <time>2025-04-29T09:18:06Z</time>
      </trkpt>
      <trkpt lat="42.968221977353096" lon="-4.923437973484397">
        <ele>1116.71</ele>
        <time>2025-04-29T09:18:07Z</time>
      </trkpt>
      <trkpt lat="42.968425992876291" lon="-4.923429004848003">
        <ele>1116.23</ele>
        <time>2025-04-29T09:18:08Z</time>
      </trkpt>
      <trkpt lat="42.969691995531321" lon="-4.923232030123472">
        <ele>1113.8199999999999</ele>
        <time>2025-04-29T09:18:15Z</time>
      </trkpt>
      <trkpt lat="42.970182001590729" lon="-4.923124993219972">
        <ele>1111.9000000000001</ele>
        <time>2025-04-29T09:18:19Z</time>
      </trkpt>
      <trkpt lat="42.970281997695565" lon="-4.923132034018636">
        <ele>1111.9000000000001</ele>
        <time>2025-04-29T09:18:20Z</time>
      </trkpt>
      <trkpt lat="42.970375036820769" lon="-4.923148965463042">
        <ele>1111.4200000000001</ele>
        <time>2025-04-29T09:18:21Z</time>
      </trkpt>
      <trkpt lat="42.9704649746418" lon="-4.923172015696764">
        <ele>1111.4200000000001</ele>
        <time>2025-04-29T09:18:22Z</time>
      </trkpt>
      <trkpt lat="42.970559019595385" lon="-4.923223983496428">
        <ele>1111.4200000000001</ele>
        <time>2025-04-29T09:18:23Z</time>
      </trkpt>
      <trkpt lat="42.970661027356982" lon="-4.923286009579897">
        <ele>1111.9000000000001</ele>
        <time>2025-04-29T09:18:24Z</time>
      </trkpt>
      <trkpt lat="42.971733994781971" lon="-4.924049014225602">
        <ele>1112.3800000000001</ele>
        <time>2025-04-29T09:18:34Z</time>
      </trkpt>
      <trkpt lat="42.971962988376617" lon="-4.92413098923862">
        <ele>1112.3800000000001</ele>
        <time>2025-04-29T09:18:36Z</time>
      </trkpt>
      <trkpt lat="42.972086034715176" lon="-4.924150016158819">
        <ele>1112.8599999999999</ele>
        <time>2025-04-29T09:18:37Z</time>
      </trkpt>
      <trkpt lat="42.972444025799632" lon="-4.924158984795213">
        <ele>1112.8599999999999</ele>
        <time>2025-04-29T09:18:40Z</time>
      </trkpt>
      <trkpt lat="42.972557013854384" lon="-4.924207013100386">
        <ele>1113.3399999999999</ele>
        <time>2025-04-29T09:18:41Z</time>
      </trkpt>
      <trkpt lat="42.972642006352544" lon="-4.924310026690364">
        <ele>1113.8199999999999</ele>
        <time>2025-04-29T09:18:42Z</time>
      </trkpt>
      <trkpt lat="42.972726998850703" lon="-4.924426032230258">
        <ele>1114.3099999999999</ele>
        <time>2025-04-29T09:18:43Z</time>
      </trkpt>
      <trkpt lat="42.972819032147527" lon="-4.924548994749785">
        <ele>1114.79</ele>
        <time>2025-04-29T09:18:44Z</time>
      </trkpt>
      <trkpt lat="42.973002009093761" lon="-4.924787962809205">
        <ele>1115.27</ele>
        <time>2025-04-29T09:18:46Z</time>
      </trkpt>
      <trkpt lat="42.973117008805275" lon="-4.924867004156113">
        <ele>1115.75</ele>
        <time>2025-04-29T09:18:47Z</time>
      </trkpt>
      <trkpt lat="42.973220022395253" lon="-4.924924001097679">
        <ele>1115.75</ele>
        <time>2025-04-29T09:18:48Z</time>
      </trkpt>
      <trkpt lat="42.973698964342475" lon="-4.925137991085649">
        <ele>1117.6700000000001</ele>
        <time>2025-04-29T09:18:55Z</time>
      </trkpt>
      <trkpt lat="42.973744980990887" lon="-4.925159029662609">
        <ele>1118.1500000000001</ele>
        <time>2025-04-29T09:18:56Z</time>
      </trkpt>
      <trkpt lat="42.973827961832285" lon="-4.925261037424207">
        <ele>1119.1099999999999</ele>
        <time>2025-04-29T09:19:00Z</time>
      </trkpt>
      <trkpt lat="42.97381597571075" lon="-4.925325997173786">
        <ele>1119.5899999999999</ele>
        <time>2025-04-29T09:19:01Z</time>
      </trkpt>
      <trkpt lat="42.973800972104073" lon="-4.925413001328707">
        <ele>1119.5899999999999</ele>
        <time>2025-04-29T09:19:02Z</time>
      </trkpt>
      <trkpt lat="42.973746992647648" lon="-4.925713995471597">
        <ele>1119.5899999999999</ele>
        <time>2025-04-29T09:19:05Z</time>
      </trkpt>
      <trkpt lat="42.973479023203254" lon="-4.927140008658171">
        <ele>1117.1900000000001</ele>
        <time>2025-04-29T09:19:15Z</time>
      </trkpt>
      <trkpt lat="42.973060011863708" lon="-4.929599007591605">
        <ele>1112.8599999999999</ele>
        <time>2025-04-29T09:19:30Z</time>
      </trkpt>
      <trkpt lat="42.972759017720819" lon="-4.931340012699366">
        <ele>1111.9000000000001</ele>
        <time>2025-04-29T09:19:37Z</time>
      </trkpt>
      <trkpt lat="42.972164992243052" lon="-4.934755973517895">
        <ele>1111.4200000000001</ele>
        <time>2025-04-29T09:19:48Z</time>
      </trkpt>
      <trkpt lat="42.971891993656754" lon="-4.93717297911644">
        <ele>1111.4200000000001</ele>
        <time>2025-04-29T09:19:56Z</time>
      </trkpt>
      <trkpt lat="42.971768025308847" lon="-4.940169006586075">
        <ele>1112.8599999999999</ele>
        <time>2025-04-29T09:20:06Z</time>
      </trkpt>
      <trkpt lat="42.97183902002871" lon="-4.940432030707598">
        <ele>1112.8599999999999</ele>
        <time>2025-04-29T09:20:07Z</time>
      </trkpt>
      <trkpt lat="42.971929963678122" lon="-4.940686002373695">
        <ele>1112.8599999999999</ele>
        <time>2025-04-29T09:20:08Z</time>
      </trkpt>
      <trkpt lat="42.973233014345169" lon="-4.943558983504772">
        <ele>1114.3099999999999</ele>
        <time>2025-04-29T09:20:19Z</time>
      </trkpt>
      <trkpt lat="42.973716985434294" lon="-4.945430997759104">
        <ele>1113.8199999999999</ele>
        <time>2025-04-29T09:20:25Z</time>
      </trkpt>
      <trkpt lat="42.974104983732104" lon="-4.948473963886499">
        <ele>1113.8199999999999</ele>
        <time>2025-04-29T09:20:34Z</time>
      </trkpt>
      <trkpt lat="42.97469599172473" lon="-4.951085010543466">
        <ele>1112.8599999999999</ele>
        <time>2025-04-29T09:20:42Z</time>
      </trkpt>
      <trkpt lat="42.974838986992836" lon="-4.954276001080871">
        <ele>1112.3800000000001</ele>
        <time>2025-04-29T09:20:52Z</time>
      </trkpt>
      <trkpt lat="42.974810991436243" lon="-4.956192020326853">
        <ele>1111.4200000000001</ele>
        <time>2025-04-29T09:20:58Z</time>
      </trkpt>
      <trkpt lat="42.97476002946496" lon="-4.956502988934517">
        <ele>1110.9400000000001</ele>
        <time>2025-04-29T09:20:59Z</time>
      </trkpt>
      <trkpt lat="42.974657015874982" lon="-4.957131966948509">
        <ele>1109.5</ele>
        <time>2025-04-29T09:21:01Z</time>
      </trkpt>
      <trkpt lat="42.974623991176486" lon="-4.957450982183218">
        <ele>1109.02</ele>
        <time>2025-04-29T09:21:02Z</time>
      </trkpt>
      <trkpt lat="42.974422993138433" lon="-4.959377981722355">
        <ele>1110.46</ele>
        <time>2025-04-29T09:21:08Z</time>
      </trkpt>
      <trkpt lat="42.973971962928772" lon="-4.96099996380508">
        <ele>1115.75</ele>
        <time>2025-04-29T09:21:14Z</time>
      </trkpt>
      <trkpt lat="42.973884036764503" lon="-4.961441019549966">
        <ele>1116.23</ele>
        <time>2025-04-29T09:21:16Z</time>
      </trkpt>
      <trkpt lat="42.973861992359161" lon="-4.961630031466484">
        <ele>1116.71</ele>
        <time>2025-04-29T09:21:17Z</time>
      </trkpt>
      <trkpt lat="42.973889987915754" lon="-4.961832035332918">
        <ele>1117.1900000000001</ele>
        <time>2025-04-29T09:21:18Z</time>
      </trkpt>
      <trkpt lat="42.973918989300728" lon="-4.962038984522224">
        <ele>1117.6700000000001</ele>
        <time>2025-04-29T09:21:19Z</time>
      </trkpt>
      <trkpt lat="42.973947990685701" lon="-4.962244005873799">
        <ele>1118.6300000000001</ele>
        <time>2025-04-29T09:21:20Z</time>
      </trkpt>
      <trkpt lat="42.97405201010406" lon="-4.963025031611323">
        <ele>1119.5899999999999</ele>
        <time>2025-04-29T09:21:24Z</time>
      </trkpt>
      <trkpt lat="42.974044969305396" lon="-4.963204991072416">
        <ele>1119.1099999999999</ele>
        <time>2025-04-29T09:21:25Z</time>
      </trkpt>
      <trkpt lat="42.973804995417595" lon="-4.964565960690379">
        <ele>1117.1900000000001</ele>
        <time>2025-04-29T09:21:33Z</time>
      </trkpt>
      <trkpt lat="42.973266961053014" lon="-4.965743031352758">
        <ele>1116.23</ele>
        <time>2025-04-29T09:21:41Z</time>
      </trkpt>
      <trkpt lat="42.973236031830311" lon="-4.965911004692316">
        <ele>1116.23</ele>
        <time>2025-04-29T09:21:42Z</time>
      </trkpt>
      <trkpt lat="42.973205018788576" lon="-4.966081995517016">
        <ele>1115.75</ele>
        <time>2025-04-29T09:21:43Z</time>
      </trkpt>
      <trkpt lat="42.973089013248682" lon="-4.966603014618158">
        <ele>1115.75</ele>
        <time>2025-04-29T09:21:46Z</time>
      </trkpt>
      <trkpt lat="42.973031010478735" lon="-4.966765958815813">
        <ele>1115.75</ele>
        <time>2025-04-29T09:21:47Z</time>
      </trkpt>
      <trkpt lat="42.972949035465717" lon="-4.96690702624619">
        <ele>1116.23</ele>
        <time>2025-04-29T09:21:48Z</time>
      </trkpt>
      <trkpt lat="42.9728480335325" lon="-4.96701599098742">
        <ele>1116.71</ele>
        <time>2025-04-29T09:21:49Z</time>
      </trkpt>
      <trkpt lat="42.972744014114141" lon="-4.967127973213792">
        <ele>1116.71</ele>
        <time>2025-04-29T09:21:50Z</time>
      </trkpt>
      <trkpt lat="42.972643012180924" lon="-4.967238027602434">
        <ele>1117.1900000000001</ele>
        <time>2025-04-29T09:21:51Z</time>
      </trkpt>
      <trkpt lat="42.972542010247707" lon="-4.967345986515284">
        <ele>1117.6700000000001</ele>
        <time>2025-04-29T09:21:52Z</time>
      </trkpt>
      <trkpt lat="42.972464980557561" lon="-4.967429973185062">
        <ele>1118.1500000000001</ele>
        <time>2025-04-29T09:21:53Z</time>
      </trkpt>
      <trkpt lat="42.972388034686446" lon="-4.967596018686891">
        <ele>1118.1500000000001</ele>
        <time>2025-04-29T09:21:54Z</time>
      </trkpt>
      <trkpt lat="42.972321985289454" lon="-4.967738008126617">
        <ele>1118.6300000000001</ele>
        <time>2025-04-29T09:21:55Z</time>
      </trkpt>
      <trkpt lat="42.972258031368256" lon="-4.967876980081201">
        <ele>1118.6300000000001</ele>
        <time>2025-04-29T09:21:56Z</time>
      </trkpt>
      <trkpt lat="42.972068013623357" lon="-4.968287022784352">
        <ele>1119.5899999999999</ele>
        <time>2025-04-29T09:21:59Z</time>
      </trkpt>
      <trkpt lat="42.971971035003662" lon="-4.968378972262144">
        <ele>1120.0699999999999</ele>
        <time>2025-04-29T09:22:00Z</time>
      </trkpt>
      <trkpt lat="42.971874978393316" lon="-4.968457007780671">
        <ele>1120.55</ele>
        <time>2025-04-29T09:22:01Z</time>
      </trkpt>
      <trkpt lat="42.971425037831068" lon="-4.968875013291836">
        <ele>1122.48</ele>
        <time>2025-04-29T09:22:06Z</time>
      </trkpt>
      <trkpt lat="42.971354965120554" lon="-4.968984983861446">
        <ele>1122.96</ele>
        <time>2025-04-29T09:22:07Z</time>
      </trkpt>
      <trkpt lat="42.971296962350607" lon="-4.969103001058102">
        <ele>1122.96</ele>
        <time>2025-04-29T09:22:08Z</time>
      </trkpt>
      <trkpt lat="42.971264021471143" lon="-4.969243984669447">
        <ele>1122.96</ele>
        <time>2025-04-29T09:22:09Z</time>
      </trkpt>
      <trkpt lat="42.97123895958066" lon="-4.969383962452412">
        <ele>1122.96</ele>
        <time>2025-04-29T09:22:10Z</time>
      </trkpt>
      <trkpt lat="42.971230996772647" lon="-4.969528969377279">
        <ele>1122.48</ele>
        <time>2025-04-29T09:22:11Z</time>
      </trkpt>
      <trkpt lat="42.971223033964634" lon="-4.969668025150895">
        <ele>1122.48</ele>
        <time>2025-04-29T09:22:12Z</time>
      </trkpt>
      <trkpt lat="42.971214987337589" lon="-4.969801967963576">
        <ele>1122.48</ele>
        <time>2025-04-29T09:22:13Z</time>
      </trkpt>
      <trkpt lat="42.971207024529576" lon="-4.969933982938528">
        <ele>1122.48</ele>
        <time>2025-04-29T09:22:14Z</time>
      </trkpt>
      <trkpt lat="42.971198977902532" lon="-4.970069015398622">
        <ele>1122.96</ele>
        <time>2025-04-29T09:22:15Z</time>
      </trkpt>
      <trkpt lat="42.971166037023067" lon="-4.970184015110135">
        <ele>1122.96</ele>
        <time>2025-04-29T09:22:16Z</time>
      </trkpt>
      <trkpt lat="42.971132006496191" lon="-4.9703049659729">
        <ele>1122.96</ele>
        <time>2025-04-29T09:22:17Z</time>
      </trkpt>
      <trkpt lat="42.971097975969315" lon="-4.970421977341175">
        <ele>1123.4400000000001</ele>
        <time>2025-04-29T09:22:18Z</time>
      </trkpt>
      <trkpt lat="42.970995968207717" lon="-4.970779968425632">
        <ele>1123.9200000000001</ele>
        <time>2025-04-29T09:22:21Z</time>
      </trkpt>
      <trkpt lat="42.970962021499872" lon="-4.970897985622287">
        <ele>1124.4000000000001</ele>
        <time>2025-04-29T09:22:22Z</time>
      </trkpt>
      <trkpt lat="42.970936959609389" lon="-4.971021031960845">
        <ele>1124.4000000000001</ele>
        <time>2025-04-29T09:22:23Z</time>
      </trkpt>
      <trkpt lat="42.970926985144615" lon="-4.971147011965513">
        <ele>1124.8800000000001</ele>
        <time>2025-04-29T09:22:24Z</time>
      </trkpt>
      <trkpt lat="42.97091600485146" lon="-4.971267962828279">
        <ele>1125.3599999999999</ele>
        <time>2025-04-29T09:22:25Z</time>
      </trkpt>
      <trkpt lat="42.970906030386686" lon="-4.971385980024934">
        <ele>1125.8399999999999</ele>
        <time>2025-04-29T09:22:26Z</time>
      </trkpt>
      <trkpt lat="42.970864959061146" lon="-4.9718729685992">
        <ele>1128.24</ele>
        <time>2025-04-29T09:22:30Z</time>
      </trkpt>
      <trkpt lat="42.97085297293961" lon="-4.971986040472984">
        <ele>1128.73</ele>
        <time>2025-04-29T09:22:31Z</time>
      </trkpt>
      <trkpt lat="42.97080997377634" lon="-4.972095005214214">
        <ele>1129.6900000000001</ele>
        <time>2025-04-29T09:22:32Z</time>
      </trkpt>
      <trkpt lat="42.97076697461307" lon="-4.972207993268967">
        <ele>1130.6500000000001</ele>
        <time>2025-04-29T09:22:33Z</time>
      </trkpt>
      <trkpt lat="42.970706038177013" lon="-4.97236498631537">
        <ele>1131.1300000000001</ele>
        <time>2025-04-29T09:22:34Z</time>
      </trkpt>
      <trkpt lat="42.97065800987184" lon="-4.972445033490658">
        <ele>1132.0899999999999</ele>
        <time>2025-04-29T09:22:35Z</time>
      </trkpt>
      <trkpt lat="42.970594977959991" lon="-4.972552992403507">
        <ele>1132.5699999999999</ele>
        <time>2025-04-29T09:22:36Z</time>
      </trkpt>
      <trkpt lat="42.970532029867172" lon="-4.972661035135388">
        <ele>1132.5699999999999</ele>
        <time>2025-04-29T09:22:37Z</time>
      </trkpt>
      <trkpt lat="42.970337988808751" lon="-4.972992036491633">
        <ele>1134.01</ele>
        <time>2025-04-29T09:22:40Z</time>
      </trkpt>
      <trkpt lat="42.970273029059172" lon="-4.973102007061243">
        <ele>1134.01</ele>
        <time>2025-04-29T09:22:41Z</time>
      </trkpt>
      <trkpt lat="42.969724014401436" lon="-4.974307995289564">
        <ele>1133.53</ele>
        <time>2025-04-29T09:22:51Z</time>
      </trkpt>
      <trkpt lat="42.969330986961722" lon="-4.97552496381104">
        <ele>1131.6099999999999</ele>
        <time>2025-04-29T09:23:00Z</time>
      </trkpt>
      <trkpt lat="42.968655992299318" lon="-4.97644898481667">
        <ele>1133.05</ele>
        <time>2025-04-29T09:23:09Z</time>
      </trkpt>
      <trkpt lat="42.968593966215849" lon="-4.976558033376932">
        <ele>1133.05</ele>
        <time>2025-04-29T09:23:10Z</time>
      </trkpt>
      <trkpt lat="42.968543004244566" lon="-4.976682001724839">
        <ele>1133.05</ele>
        <time>2025-04-29T09:23:11Z</time>
      </trkpt>
      <trkpt lat="42.968491036444902" lon="-4.976809993386269">
        <ele>1132.5699999999999</ele>
        <time>2025-04-29T09:23:12Z</time>
      </trkpt>
      <trkpt lat="42.968437978997827" lon="-4.97694100253284">
        <ele>1132.5699999999999</ele>
        <time>2025-04-29T09:23:13Z</time>
      </trkpt>
      <trkpt lat="42.968414006754756" lon="-4.977085003629327">
        <ele>1132.5699999999999</ele>
        <time>2025-04-29T09:23:14Z</time>
      </trkpt>
      <trkpt lat="42.968393974006176" lon="-4.977235961705446">
        <ele>1132.0899999999999</ele>
        <time>2025-04-29T09:23:15Z</time>
      </trkpt>
      <trkpt lat="42.968411995097995" lon="-4.977382980287075">
        <ele>1131.6099999999999</ele>
        <time>2025-04-29T09:23:16Z</time>
      </trkpt>
      <trkpt lat="42.968448959290981" lon="-4.977539973333478">
        <ele>1131.6099999999999</ele>
        <time>2025-04-29T09:23:17Z</time>
      </trkpt>
      <trkpt lat="42.968486007302999" lon="-4.977697972208262">
        <ele>1131.6099999999999</ele>
        <time>2025-04-29T09:23:18Z</time>
      </trkpt>
      <trkpt lat="42.968523977324367" lon="-4.977862006053329">
        <ele>1131.1300000000001</ele>
        <time>2025-04-29T09:23:19Z</time>
      </trkpt>
      <trkpt lat="42.968603018671274" lon="-4.978200970217586">
        <ele>1130.6500000000001</ele>
        <time>2025-04-29T09:23:21Z</time>
      </trkpt>
      <trkpt lat="42.96861601062119" lon="-4.97838101349771">
        <ele>1130.1700000000001</ele>
        <time>2025-04-29T09:23:22Z</time>
      </trkpt>
      <trkpt lat="42.968693962320685" lon="-4.979141000658274">
        <ele>1126.8</ele>
        <time>2025-04-29T09:23:26Z</time>
      </trkpt>
      <trkpt lat="42.968754982575774" lon="-4.979323977604508">
        <ele>1126.3199999999999</ele>
        <time>2025-04-29T09:23:27Z</time>
      </trkpt>
      <trkpt lat="42.968880040571094" lon="-4.979697978124023">
        <ele>1124.8800000000001</ele>
        <time>2025-04-29T09:23:29Z</time>
      </trkpt>
      <trkpt lat="42.968919016420841" lon="-4.97990501113236">
        <ele>1123.9200000000001</ele>
        <time>2025-04-29T09:23:30Z</time>
      </trkpt>
      <trkpt lat="42.968936031684279" lon="-4.980113971978426">
        <ele>1123.4400000000001</ele>
        <time>2025-04-29T09:23:31Z</time>
      </trkpt>
      <trkpt lat="42.968908036127687" lon="-4.980313964188099">
        <ele>1122.48</ele>
        <time>2025-04-29T09:23:32Z</time>
      </trkpt>
      <trkpt lat="42.968879034742713" lon="-4.980503981932998">
        <ele>1122</ele>
        <time>2025-04-29T09:23:33Z</time>
      </trkpt>
      <trkpt lat="42.968809967860579" lon="-4.980687964707613">
        <ele>1121.52</ele>
        <time>2025-04-29T09:23:34Z</time>
      </trkpt>
      <trkpt lat="42.968738973140717" lon="-4.980873959138989">
        <ele>1121.03</ele>
        <time>2025-04-29T09:23:35Z</time>
      </trkpt>
      <trkpt lat="42.968666972592473" lon="-4.981063976883888">
        <ele>1120.55</ele>
        <time>2025-04-29T09:23:36Z</time>
      </trkpt>
      <trkpt lat="42.96859497204423" lon="-4.981255000457168">
        <ele>1120.55</ele>
        <time>2025-04-29T09:23:37Z</time>
      </trkpt>
      <trkpt lat="42.968580974265933" lon="-4.981487011536956">
        <ele>1120.0699999999999</ele>
        <time>2025-04-29T09:23:38Z</time>
      </trkpt>
      <trkpt lat="42.96859597787261" lon="-4.981713993474841">
        <ele>1119.5899999999999</ele>
        <time>2025-04-29T09:23:39Z</time>
      </trkpt>
      <trkpt lat="42.968629002571106" lon="-4.981944998726249">
        <ele>1119.1099999999999</ele>
        <time>2025-04-29T09:23:40Z</time>
      </trkpt>
      <trkpt lat="42.968669990077615" lon="-4.982179021462798">
        <ele>1118.6300000000001</ele>
        <time>2025-04-29T09:23:41Z</time>
      </trkpt>
      <trkpt lat="42.968721035867929" lon="-4.982411032542586">
        <ele>1118.6300000000001</ele>
        <time>2025-04-29T09:23:42Z</time>
      </trkpt>
      <trkpt lat="42.968989005312324" lon="-4.983501015231013">
        <ele>1116.71</ele>
        <time>2025-04-29T09:23:47Z</time>
      </trkpt>
      <trkpt lat="42.969100987538695" lon="-4.983668988570571">
        <ele>1116.71</ele>
        <time>2025-04-29T09:23:48Z</time>
      </trkpt>
      <trkpt lat="42.969219004735351" lon="-4.983797986060381">
        <ele>1116.71</ele>
        <time>2025-04-29T09:23:49Z</time>
      </trkpt>
      <trkpt lat="42.969360994175076" lon="-4.98386001214385">
        <ele>1116.71</ele>
        <time>2025-04-29T09:23:50Z</time>
      </trkpt>
      <trkpt lat="42.969517987221479" lon="-4.983893958851695">
        <ele>1116.23</ele>
        <time>2025-04-29T09:23:51Z</time>
      </trkpt>
      <trkpt lat="42.969666011631489" lon="-4.98392597772181">
        <ele>1116.23</ele>
        <time>2025-04-29T09:23:52Z</time>
      </trkpt>
      <trkpt lat="42.969806995242834" lon="-4.983955984935165">
        <ele>1116.23</ele>
        <time>2025-04-29T09:23:53Z</time>
      </trkpt>
      <trkpt lat="42.970067001879215" lon="-4.984018011018634">
        <ele>1115.75</ele>
        <time>2025-04-29T09:23:55Z</time>
      </trkpt>
      <trkpt lat="42.970193987712264" lon="-4.98407400213182">
        <ele>1115.27</ele>
        <time>2025-04-29T09:23:56Z</time>
      </trkpt>
      <trkpt lat="42.970324996858835" lon="-4.984132004901767">
        <ele>1114.79</ele>
        <time>2025-04-29T09:23:57Z</time>
      </trkpt>
      <trkpt lat="42.97044301405549" lon="-4.984208028763533">
        <ele>1114.79</ele>
        <time>2025-04-29T09:23:58Z</time>
      </trkpt>
      <trkpt lat="42.970551978796721" lon="-4.984325962141156">
        <ele>1114.3099999999999</ele>
        <time>2025-04-29T09:23:59Z</time>
      </trkpt>
      <trkpt lat="42.970663039013743" lon="-4.984445990994573">
        <ele>1114.3099999999999</ele>
        <time>2025-04-29T09:24:00Z</time>
      </trkpt>
      <trkpt lat="42.970735961571336" lon="-4.984622010961175">
        <ele>1113.8199999999999</ele>
        <time>2025-04-29T09:24:01Z</time>
      </trkpt>
      <trkpt lat="42.970810979604721" lon="-4.984802976250649">
        <ele>1113.8199999999999</ele>
        <time>2025-04-29T09:24:02Z</time>
      </trkpt>
      <trkpt lat="42.970879962667823" lon="-4.984995005652309">
        <ele>1113.8199999999999</ele>
        <time>2025-04-29T09:24:03Z</time>
      </trkpt>
      <trkpt lat="42.970898989588022" lon="-4.985218970105052">
        <ele>1113.8199999999999</ele>
        <time>2025-04-29T09:24:04Z</time>
      </trkpt>
      <trkpt lat="42.970918016508222" lon="-4.985446035861969">
        <ele>1113.8199999999999</ele>
        <time>2025-04-29T09:24:05Z</time>
      </trkpt>
      <trkpt lat="42.970878034830093" lon="-4.985670000314713">
        <ele>1113.8199999999999</ele>
        <time>2025-04-29T09:24:06Z</time>
      </trkpt>
      <trkpt lat="42.970820032060146" lon="-4.985882984474301">
        <ele>1113.8199999999999</ele>
        <time>2025-04-29T09:24:07Z</time>
      </trkpt>
      <trkpt lat="42.970748031511903" lon="-4.986097980290651">
        <ele>1113.8199999999999</ele>
        <time>2025-04-29T09:24:08Z</time>
      </trkpt>
      <trkpt lat="42.970639988780022" lon="-4.986268971115351">
        <ele>1113.8199999999999</ele>
        <time>2025-04-29T09:24:09Z</time>
      </trkpt>
      <trkpt lat="42.970505962148309" lon="-4.986418001353741">
        <ele>1113.8199999999999</ele>
        <time>2025-04-29T09:24:10Z</time>
      </trkpt>
      <trkpt lat="42.970361961051822" lon="-4.986549010500312">
        <ele>1113.8199999999999</ele>
        <time>2025-04-29T09:24:11Z</time>
      </trkpt>
      <trkpt lat="42.970198011025786" lon="-4.986637020483613">
        <ele>1113.8199999999999</ele>
        <time>2025-04-29T09:24:12Z</time>
      </trkpt>
      <trkpt lat="42.9700349830091" lon="-4.986730981618166">
        <ele>1113.8199999999999</ele>
        <time>2025-04-29T09:24:13Z</time>
      </trkpt>
      <trkpt lat="42.969732983037829" lon="-4.98693197965622">
        <ele>1113.3399999999999</ele>
        <time>2025-04-29T09:24:15Z</time>
      </trkpt>
      <trkpt lat="42.969598034396768" lon="-4.987072041258216">
        <ele>1113.3399999999999</ele>
        <time>2025-04-29T09:24:16Z</time>
      </trkpt>
      <trkpt lat="42.969504995271564" lon="-4.987271027639508">
        <ele>1113.3399999999999</ele>
        <time>2025-04-29T09:24:17Z</time>
      </trkpt>
      <trkpt lat="42.969431988894939" lon="-4.987479988485575">
        <ele>1113.3399999999999</ele>
        <time>2025-04-29T09:24:18Z</time>
      </trkpt>
      <trkpt lat="42.969404999166727" lon="-4.987702025100589">
        <ele>1113.3399999999999</ele>
        <time>2025-04-29T09:24:19Z</time>
      </trkpt>
      <trkpt lat="42.969427965581417" lon="-4.987939987331629">
        <ele>1113.3399999999999</ele>
        <time>2025-04-29T09:24:20Z</time>
      </trkpt>
      <trkpt lat="42.969464007765055" lon="-4.988180967047811">
        <ele>1113.3399999999999</ele>
        <time>2025-04-29T09:24:21Z</time>
      </trkpt>
      <trkpt lat="42.969510024413466" lon="-4.988427981734276">
        <ele>1113.8199999999999</ele>
        <time>2025-04-29T09:24:22Z</time>
      </trkpt>
      <trkpt lat="42.969907997176051" lon="-4.990400997921825">
        <ele>1110.9400000000001</ele>
        <time>2025-04-29T09:24:31Z</time>
      </trkpt>
      <trkpt lat="42.970518032088876" lon="-4.993359977379441">
        <ele>1109.98</ele>
        <time>2025-04-29T09:24:47Z</time>
      </trkpt>
      <trkpt lat="42.971004014834762" lon="-4.9947539716959">
        <ele>1112.3800000000001</ele>
        <time>2025-04-29T09:24:55Z</time>
      </trkpt>
      <trkpt lat="42.9714319948107" lon="-4.995514964684844">
        <ele>1116.23</ele>
        <time>2025-04-29T09:25:01Z</time>
      </trkpt>
      <trkpt lat="42.971514975652099" lon="-4.99559098854661">
        <ele>1116.71</ele>
        <time>2025-04-29T09:25:02Z</time>
      </trkpt>
      <trkpt lat="42.971610026434064" lon="-4.995646979659796">
        <ele>1117.6700000000001</ele>
        <time>2025-04-29T09:25:03Z</time>
      </trkpt>
      <trkpt lat="42.971708010882139" lon="-4.995703976601362">
        <ele>1118.1500000000001</ele>
        <time>2025-04-29T09:25:04Z</time>
      </trkpt>
      <trkpt lat="42.971810018643737" lon="-4.995754016563296">
        <ele>1118.6300000000001</ele>
        <time>2025-04-29T09:25:05Z</time>
      </trkpt>
      <trkpt lat="42.971915965899825" lon="-4.995796009898186">
        <ele>1119.1099999999999</ele>
        <time>2025-04-29T09:25:06Z</time>
      </trkpt>
      <trkpt lat="42.972240010276437" lon="-4.995926013216376">
        <ele>1121.03</ele>
        <time>2025-04-29T09:25:09Z</time>
      </trkpt>
      <trkpt lat="42.972331959754229" lon="-4.995987033471465">
        <ele>1121.52</ele>
        <time>2025-04-29T09:25:10Z</time>
      </trkpt>
      <trkpt lat="42.97241703607142" lon="-4.996077977120876">
        <ele>1122</ele>
        <time>2025-04-29T09:25:11Z</time>
      </trkpt>
      <trkpt lat="42.97250303439796" lon="-4.996169004589319">
        <ele>1122.48</ele>
        <time>2025-04-29T09:25:12Z</time>
      </trkpt>
      <trkpt lat="42.972588026896119" lon="-4.996259026229382">
        <ele>1122.96</ele>
        <time>2025-04-29T09:25:13Z</time>
      </trkpt>
      <trkpt lat="42.972658015787601" lon="-4.996333038434386">
        <ele>1123.4400000000001</ele>
        <time>2025-04-29T09:25:14Z</time>
      </trkpt>
      <trkpt lat="42.972705038264394" lon="-4.996480979025364">
        <ele>1123.9200000000001</ele>
        <time>2025-04-29T09:25:15Z</time>
      </trkpt>
      <trkpt lat="42.972745019942522" lon="-4.996610982343555">
        <ele>1124.4000000000001</ele>
        <time>2025-04-29T09:25:16Z</time>
      </trkpt>
      <trkpt lat="42.972782989963889" lon="-4.996731011196971">
        <ele>1124.4000000000001</ele>
        <time>2025-04-29T09:25:17Z</time>
      </trkpt>
      <trkpt lat="42.972817020490766" lon="-4.996842993423343">
        <ele>1124.8800000000001</ele>
        <time>2025-04-29T09:25:18Z</time>
      </trkpt>
      <trkpt lat="42.97284996137023" lon="-4.996948018670082">
        <ele>1125.3599999999999</ele>
        <time>2025-04-29T09:25:19Z</time>
      </trkpt>
      <trkpt lat="42.972876029089093" lon="-4.997037034481764">
        <ele>1126.3199999999999</ele>
        <time>2025-04-29T09:25:20Z</time>
      </trkpt>
      <trkpt lat="42.97289002686739" lon="-4.997106017544866">
        <ele>1126.8</ele>
        <time>2025-04-29T09:25:21Z</time>
      </trkpt>
      <trkpt lat="42.972837975248694" lon="-4.997164020314813">
        <ele>1127.28</ele>
        <time>2025-04-29T09:25:22Z</time>
      </trkpt>
      <trkpt lat="42.972808973863721" lon="-4.997183969244361">
        <ele>1127.76</ele>
        <time>2025-04-29T09:25:23Z</time>
      </trkpt>
      <trkpt lat="42.97278399579227" lon="-4.997200984507799">
        <ele>1127.76</ele>
        <time>2025-04-29T09:25:24Z</time>
      </trkpt>
      <trkpt lat="42.972750971093774" lon="-4.99722202308476">
        <ele>1128.24</ele>
        <time>2025-04-29T09:25:25Z</time>
      </trkpt>
      <trkpt lat="42.97267897054553" lon="-4.997269967570901">
        <ele>1129.21</ele>
        <time>2025-04-29T09:25:27Z</time>
      </trkpt>
      <trkpt lat="42.972641000524163" lon="-4.997296035289764">
        <ele>1129.21</ele>
        <time>2025-04-29T09:25:28Z</time>
      </trkpt>
      <trkpt lat="42.972550978884101" lon="-4.997449005022645">
        <ele>1129.6900000000001</ele>
        <time>2025-04-29T09:25:37Z</time>
      </trkpt>
      <trkpt lat="42.972551984712481" lon="-4.997499966993928">
        <ele>1129.6900000000001</ele>
        <time>2025-04-29T09:25:54Z</time>
      </trkpt>
      <trkpt lat="42.972552990540862" lon="-4.99752402305603">
        <ele>1129.21</ele>
        <time>2025-04-29T09:25:55Z</time>
      </trkpt>
      <trkpt lat="42.972553996369243" lon="-4.997571967542172">
        <ele>1128.73</ele>
        <time>2025-04-29T09:25:56Z</time>
      </trkpt>
      <trkpt lat="42.972556008026004" lon="-4.997651008889079">
        <ele>1127.76</ele>
        <time>2025-04-29T09:25:57Z</time>
      </trkpt>
      <trkpt lat="42.972559025511146" lon="-4.997753016650677">
        <ele>1127.28</ele>
        <time>2025-04-29T09:25:58Z</time>
      </trkpt>
      <trkpt lat="42.9725890327245" lon="-4.99883403070271">
        <ele>1120.0699999999999</ele>
        <time>2025-04-29T09:26:06Z</time>
      </trkpt>
      <trkpt lat="42.972726998850703" lon="-4.999244995415211">
        <ele>1115.27</ele>
        <time>2025-04-29T09:26:13Z</time>
      </trkpt>
      <trkpt lat="42.972780978307128" lon="-4.999339040368795">
        <ele>1114.3099999999999</ele>
        <time>2025-04-29T09:26:15Z</time>
      </trkpt>
      <trkpt lat="42.972806040197611" lon="-4.999382039532065">
        <ele>1113.8199999999999</ele>
        <time>2025-04-29T09:26:16Z</time>
      </trkpt>
      <trkpt lat="42.972820037975907" lon="-4.999406011775136">
        <ele>1113.3399999999999</ele>
        <time>2025-04-29T09:26:17Z</time>
      </trkpt>
      <trkpt lat="42.972830012440681" lon="-4.999423027038574">
        <ele>1112.8599999999999</ele>
        <time>2025-04-29T09:26:18Z</time>
      </trkpt>
      <trkpt lat="42.972830012440681" lon="-4.999423027038574">
        <ele>1112.8599999999999</ele>
        <time>2025-04-29T09:26:19Z</time>
      </trkpt>
      <trkpt lat="42.972774021327496" lon="-4.999560993164778">
        <ele>1116.23</ele>
        <time>2025-04-29T09:49:43Z</time>
      </trkpt>
      <trkpt lat="42.97278399579227" lon="-4.999525034800172">
        <ele>1117.6700000000001</ele>
        <time>2025-04-29T09:50:14Z</time>
      </trkpt>
      <trkpt lat="42.97276102937758" lon="-4.99950097873807">
        <ele>1118.6300000000001</ele>
        <time>2025-04-29T09:51:04Z</time>
      </trkpt>
      <trkpt lat="42.972765974700451" lon="-4.999497961252928">
        <ele>1119.5899999999999</ele>
        <time>2025-04-29T09:51:48Z</time>
      </trkpt>
      <trkpt lat="42.972830012440681" lon="-4.999423027038574">
        <ele>1118.6300000000001</ele>
        <time>2025-04-29T09:51:51Z</time>
      </trkpt>
      <trkpt lat="42.972639994695783" lon="-4.999428978189826">
        <ele>1118.6300000000001</ele>
        <time>2025-04-29T09:51:52Z</time>
      </trkpt>
      <trkpt lat="42.97263203188777" lon="-4.999359995126724">
        <ele>1118.1500000000001</ele>
        <time>2025-04-29T09:51:53Z</time>
      </trkpt>
      <trkpt lat="42.972622979432344" lon="-4.999281959608197">
        <ele>1118.1500000000001</ele>
        <time>2025-04-29T09:51:54Z</time>
      </trkpt>
      <trkpt lat="42.972614010795951" lon="-4.999195039272308">
        <ele>1118.1500000000001</ele>
        <time>2025-04-29T09:51:55Z</time>
      </trkpt>
      <trkpt lat="42.972604036331177" lon="-4.999104011803865">
        <ele>1117.6700000000001</ele>
        <time>2025-04-29T09:51:56Z</time>
      </trkpt>
      <trkpt lat="42.972565982490778" lon="-4.997983016073704">
        <ele>1120.0699999999999</ele>
        <time>2025-04-29T09:52:05Z</time>
      </trkpt>
      <trkpt lat="42.972551984712481" lon="-4.997486975044012">
        <ele>1122.48</ele>
        <time>2025-04-29T09:52:09Z</time>
      </trkpt>
      <trkpt lat="42.972590960562229" lon="-4.997379016131163">
        <ele>1123.4400000000001</ele>
        <time>2025-04-29T09:52:10Z</time>
      </trkpt>
      <trkpt lat="42.972636977210641" lon="-4.997298968955874">
        <ele>1124.4000000000001</ele>
        <time>2025-04-29T09:52:11Z</time>
      </trkpt>
      <trkpt lat="42.972695985808969" lon="-4.997258987277746">
        <ele>1124.8800000000001</ele>
        <time>2025-04-29T09:52:12Z</time>
      </trkpt>
      <trkpt lat="42.972754994407296" lon="-4.997220011427999">
        <ele>1125.8399999999999</ele>
        <time>2025-04-29T09:52:13Z</time>
      </trkpt>
      <trkpt lat="42.972800005227327" lon="-4.997190004214644">
        <ele>1126.3199999999999</ele>
        <time>2025-04-29T09:52:14Z</time>
      </trkpt>
      <trkpt lat="42.972836969420314" lon="-4.997165026143193">
        <ele>1126.8</ele>
        <time>2025-04-29T09:52:15Z</time>
      </trkpt>
      <trkpt lat="42.972865970805287" lon="-4.997145999222994">
        <ele>1127.76</ele>
        <time>2025-04-29T09:52:16Z</time>
      </trkpt>
      <trkpt lat="42.972911987453699" lon="-4.997212970629334">
        <ele>1128.24</ele>
        <time>2025-04-29T09:52:17Z</time>
      </trkpt>
      <trkpt lat="42.97293302603066" lon="-4.997310033068061">
        <ele>1128.73</ele>
        <time>2025-04-29T09:52:18Z</time>
      </trkpt>
      <trkpt lat="42.972962027415633" lon="-4.997449005022645">
        <ele>1128.73</ele>
        <time>2025-04-29T09:52:19Z</time>
      </trkpt>
      <trkpt lat="42.972996979951859" lon="-4.997617984190583">
        <ele>1129.21</ele>
        <time>2025-04-29T09:52:20Z</time>
      </trkpt>
      <trkpt lat="42.973137963563204" lon="-4.998203963041306">
        <ele>1131.1300000000001</ele>
        <time>2025-04-29T09:52:23Z</time>
      </trkpt>
      <trkpt lat="42.973212981596589" lon="-4.998413007706404">
        <ele>1131.6099999999999</ele>
        <time>2025-04-29T09:52:24Z</time>
      </trkpt>
      <trkpt lat="42.97330099157989" lon="-4.998604031279683">
        <ele>1132.5699999999999</ele>
        <time>2025-04-29T09:52:25Z</time>
      </trkpt>
      <trkpt lat="42.973420014604926" lon="-4.998782984912396">
        <ele>1133.05</ele>
        <time>2025-04-29T09:52:26Z</time>
      </trkpt>
      <trkpt lat="42.973541971296072" lon="-4.998948024585843">
        <ele>1133.53</ele>
        <time>2025-04-29T09:52:27Z</time>
      </trkpt>
      <trkpt lat="42.973682032898068" lon="-4.999085990712047">
        <ele>1134.01</ele>
        <time>2025-04-29T09:52:28Z</time>
      </trkpt>
      <trkpt lat="42.973823016509414" lon="-4.999215994030237">
        <ele>1134.97</ele>
        <time>2025-04-29T09:52:29Z</time>
      </trkpt>
      <trkpt lat="42.97398797236383" lon="-4.999298974871635">
        <ele>1135.45</ele>
        <time>2025-04-29T09:52:30Z</time>
      </trkpt>
      <trkpt lat="42.974154017865658" lon="-4.999373992905021">
        <ele>1135.9400000000001</ele>
        <time>2025-04-29T09:52:31Z</time>
      </trkpt>
      <trkpt lat="42.974318973720074" lon="-4.999450016766787">
        <ele>1136.9000000000001</ele>
        <time>2025-04-29T09:52:32Z</time>
      </trkpt>
      <trkpt lat="42.974500022828579" lon="-4.999462002888322">
        <ele>1137.3800000000001</ele>
        <time>2025-04-29T09:52:33Z</time>
      </trkpt>
      <trkpt lat="42.974677970632911" lon="-4.9994579795748">
        <ele>1137.8599999999999</ele>
        <time>2025-04-29T09:52:34Z</time>
      </trkpt>
      <trkpt lat="42.974857008084655" lon="-4.999453034251928">
        <ele>1138.3399999999999</ele>
        <time>2025-04-29T09:52:35Z</time>
      </trkpt>
      <trkpt lat="42.975204018875957" lon="-4.999453034251928">
        <ele>1139.78</ele>
        <time>2025-04-29T09:52:37Z</time>
      </trkpt>
      <trkpt lat="42.975366041064262" lon="-4.999489998444915">
        <ele>1140.26</ele>
        <time>2025-04-29T09:52:38Z</time>
      </trkpt>
      <trkpt lat="42.975506018847227" lon="-4.999560993164778">
        <ele>1141.22</ele>
        <time>2025-04-29T09:52:39Z</time>
      </trkpt>
      <trkpt lat="42.975631998851895" lon="-4.999676998704672">
        <ele>1141.7</ele>
        <time>2025-04-29T09:52:40Z</time>
      </trkpt>
      <trkpt lat="42.975737024098635" lon="-4.999812031164765">
        <ele>1142.1800000000001</ele>
        <time>2025-04-29T09:52:41Z</time>
      </trkpt>
      <trkpt lat="42.975832996889949" lon="-4.99997204169631">
        <ele>1142.6600000000001</ele>
        <time>2025-04-29T09:52:42Z</time>
      </trkpt>
      <trkpt lat="42.975930981338024" lon="-5.000134985893965">
        <ele>1143.1400000000001</ele>
        <time>2025-04-29T09:52:43Z</time>
      </trkpt>
      <trkpt lat="42.976247984915972" lon="-5.000648964196444">
        <ele>1145.0699999999999</ele>
        <time>2025-04-29T09:52:46Z</time>
      </trkpt>
      <trkpt lat="42.977359006181359" lon="-5.002032984048128">
        <ele>1150.8399999999999</ele>
        <time>2025-04-29T09:52:55Z</time>
      </trkpt>
      <trkpt lat="42.977549023926258" lon="-5.002238005399704">
        <ele>1151.8</ele>
        <time>2025-04-29T09:52:57Z</time>
      </trkpt>
      <trkpt lat="42.977654971182346" lon="-5.002305982634425">
        <ele>1152.28</ele>
        <time>2025-04-29T09:52:58Z</time>
      </trkpt>
      <trkpt lat="42.977759996429086" lon="-5.002360967919231">
        <ele>1153.24</ele>
        <time>2025-04-29T09:52:59Z</time>
      </trkpt>
      <trkpt lat="42.977882958948612" lon="-5.002349987626076">
        <ele>1153.72</ele>
        <time>2025-04-29T09:53:00Z</time>
      </trkpt>
      <trkpt lat="42.978012040257454" lon="-5.00233699567616">
        <ele>1154.2</ele>
        <time>2025-04-29T09:53:01Z</time>
      </trkpt>
      <trkpt lat="42.978139026090503" lon="-5.002325009554625">
        <ele>1154.6800000000001</ele>
        <time>2025-04-29T09:53:02Z</time>
      </trkpt>
      <trkpt lat="42.978268023580313" lon="-5.002226019278169">
        <ele>1155.1600000000001</ele>
        <time>2025-04-29T09:53:03Z</time>
      </trkpt>
      <trkpt lat="42.978367013856769" lon="-5.0021000392735">
        <ele>1155.6400000000001</ele>
        <time>2025-04-29T09:53:04Z</time>
      </trkpt>
      <trkpt lat="42.978464998304844" lon="-5.001965006813407">
        <ele>1156.1199999999999</ele>
        <time>2025-04-29T09:53:05Z</time>
      </trkpt>
      <trkpt lat="42.978557031601667" lon="-5.00182100571692">
        <ele>1156.5999999999999</ele>
        <time>2025-04-29T09:53:06Z</time>
      </trkpt>
      <trkpt lat="42.978643029928207" lon="-5.001667030155659">
        <ele>1157.0799999999999</ele>
        <time>2025-04-29T09:53:07Z</time>
      </trkpt>
      <trkpt lat="42.978731961920857" lon="-5.001495033502579">
        <ele>1157.5599999999999</ele>
        <time>2025-04-29T09:53:08Z</time>
      </trkpt>
      <trkpt lat="42.978765992447734" lon="-5.001295041292906">
        <ele>1158.05</ele>
        <time>2025-04-29T09:53:09Z</time>
      </trkpt>
      <trkpt lat="42.978774039074779" lon="-5.001071998849511">
        <ele>1158.05</ele>
        <time>2025-04-29T09:53:10Z</time>
      </trkpt>
      <trkpt lat="42.978774039074779" lon="-5.000839987769723">
        <ele>1158.53</ele>
        <time>2025-04-29T09:53:11Z</time>
      </trkpt>
      <trkpt lat="42.978774039074779" lon="-5.000605965033174">
        <ele>1159.01</ele>
        <time>2025-04-29T09:53:12Z</time>
      </trkpt>
      <trkpt lat="42.978791976347566" lon="-5.000379988923669">
        <ele>1159.49</ele>
        <time>2025-04-29T09:53:13Z</time>
      </trkpt>
      <trkpt lat="42.978846961632371" lon="-5.000159963965416">
        <ele>1159.97</ele>
        <time>2025-04-29T09:53:14Z</time>
      </trkpt>
      <trkpt lat="42.978927008807659" lon="-4.999958965927362">
        <ele>1160.45</ele>
        <time>2025-04-29T09:53:15Z</time>
      </trkpt>
      <trkpt lat="42.97901401296258" lon="-4.999764002859592">
        <ele>1160.9300000000001</ele>
        <time>2025-04-29T09:53:16Z</time>
      </trkpt>
      <trkpt lat="42.97918701544404" lon="-4.999378016218543">
        <ele>1161.4100000000001</ele>
        <time>2025-04-29T09:53:18Z</time>
      </trkpt>
      <trkpt lat="42.979238983243704" lon="-4.999175006523728">
        <ele>1161.8900000000001</ele>
        <time>2025-04-29T09:53:19Z</time>
      </trkpt>
      <trkpt lat="42.979266978800297" lon="-4.998952969908714">
        <ele>1161.8900000000001</ele>
        <time>2025-04-29T09:53:20Z</time>
      </trkpt>
      <trkpt lat="42.979238983243704" lon="-4.998765969648957">
        <ele>1162.3699999999999</ele>
        <time>2025-04-29T09:53:21Z</time>
      </trkpt>
      <trkpt lat="42.979205958545208" lon="-4.998552985489368">
        <ele>1162.3699999999999</ele>
        <time>2025-04-29T09:53:22Z</time>
      </trkpt>
      <trkpt lat="42.979180980473757" lon="-4.998392974957824">
        <ele>1162.3699999999999</ele>
        <time>2025-04-29T09:53:23Z</time>
      </trkpt>
      <trkpt lat="42.979099005460739" lon="-4.998225001618266">
        <ele>1162.8499999999999</ele>
        <time>2025-04-29T09:53:24Z</time>
      </trkpt>
      <trkpt lat="42.979005966335535" lon="-4.998033978044987">
        <ele>1163.3299999999999</ele>
        <time>2025-04-29T09:53:25Z</time>
      </trkpt>
      <trkpt lat="42.978909993544221" lon="-4.997837003320456">
        <ele>1163.3299999999999</ele>
        <time>2025-04-29T09:53:26Z</time>
      </trkpt>
      <trkpt lat="42.978801028802991" lon="-4.997614966705442">
        <ele>1163.3299999999999</ele>
        <time>2025-04-29T09:53:27Z</time>
      </trkpt>
      <trkpt lat="42.978711007162929" lon="-4.99731196090579">
        <ele>1163.3299999999999</ele>
        <time>2025-04-29T09:53:28Z</time>
      </trkpt>
      <trkpt lat="42.978688040748239" lon="-4.997054971754551">
        <ele>1163.3299999999999</ele>
        <time>2025-04-29T09:53:29Z</time>
      </trkpt>
      <trkpt lat="42.978717964142561" lon="-4.996791025623679">
        <ele>1163.3299999999999</ele>
        <time>2025-04-29T09:53:30Z</time>
      </trkpt>
      <trkpt lat="42.978802034631371" lon="-4.996549040079117">
        <ele>1163.3299999999999</ele>
        <time>2025-04-29T09:53:31Z</time>
      </trkpt>
      <trkpt lat="42.978902030736208" lon="-4.996376037597656">
        <ele>1163.8099999999999</ele>
        <time>2025-04-29T09:53:32Z</time>
      </trkpt>
      <trkpt lat="42.979050977155566" lon="-4.996222984045744">
        <ele>1163.8099999999999</ele>
        <time>2025-04-29T09:53:33Z</time>
      </trkpt>
      <trkpt lat="42.97918701544404" lon="-4.996082000434399">
        <ele>1163.8099999999999</ele>
        <time>2025-04-29T09:53:34Z</time>
      </trkpt>
      <trkpt lat="42.979327999055386" lon="-4.99593598768115">
        <ele>1164.29</ele>
        <time>2025-04-29T09:53:35Z</time>
      </trkpt>
      <trkpt lat="42.979470994323492" lon="-4.995787041261792">
        <ele>1164.77</ele>
        <time>2025-04-29T09:53:36Z</time>
      </trkpt>
      <trkpt lat="42.979571996256709" lon="-4.995605992153287">
        <ele>1164.77</ele>
        <time>2025-04-29T09:53:37Z</time>
      </trkpt>
      <trkpt lat="42.97965900041163" lon="-4.995409017428756">
        <ele>1164.77</ele>
        <time>2025-04-29T09:53:38Z</time>
      </trkpt>
      <trkpt lat="42.979715997353196" lon="-4.99518102966249">
        <ele>1164.77</ele>
        <time>2025-04-29T09:53:39Z</time>
      </trkpt>
      <trkpt lat="42.979764025658369" lon="-4.994947006925941">
        <ele>1164.77</ele>
        <time>2025-04-29T09:53:40Z</time>
      </trkpt>
      <trkpt lat="42.979778023436666" lon="-4.994689011946321">
        <ele>1164.77</ele>
        <time>2025-04-29T09:53:41Z</time>
      </trkpt>
      <trkpt lat="42.979792021214962" lon="-4.994436968117952">
        <ele>1164.29</ele>
        <time>2025-04-29T09:53:42Z</time>
      </trkpt>
      <trkpt lat="42.979809958487749" lon="-4.994204035028815">
        <ele>1164.29</ele>
        <time>2025-04-29T09:53:43Z</time>
      </trkpt>
      <trkpt lat="42.979867039248347" lon="-4.993976969271898">
        <ele>1163.8099999999999</ele>
        <time>2025-04-29T09:53:44Z</time>
      </trkpt>
      <trkpt lat="42.979949014261365" lon="-4.993789969012141">
        <ele>1163.3299999999999</ele>
        <time>2025-04-29T09:53:45Z</time>
      </trkpt>
      <trkpt lat="42.980060996487737" lon="-4.993607997894287">
        <ele>1163.3299999999999</ele>
        <time>2025-04-29T09:53:46Z</time>
      </trkpt>
      <trkpt lat="42.98019502311945" lon="-4.993502972647548">
        <ele>1162.8499999999999</ele>
        <time>2025-04-29T09:53:47Z</time>
      </trkpt>
      <trkpt lat="42.980360984802246" lon="-4.993371963500977">
        <ele>1162.3699999999999</ele>
        <time>2025-04-29T09:53:48Z</time>
      </trkpt>
      <trkpt lat="42.980509009212255" lon="-4.993362994864583">
        <ele>1162.3699999999999</ele>
        <time>2025-04-29T09:53:49Z</time>
      </trkpt>
      <trkpt lat="42.980678994208574" lon="-4.993353020399809">
        <ele>1161.8900000000001</ele>
        <time>2025-04-29T09:53:50Z</time>
      </trkpt>
      <trkpt lat="42.980854008346796" lon="-4.993414962664247">
        <ele>1161.8900000000001</ele>
        <time>2025-04-29T09:53:51Z</time>
      </trkpt>
      <trkpt lat="42.981029022485018" lon="-4.993502972647548">
        <ele>1161.4100000000001</ele>
        <time>2025-04-29T09:53:52Z</time>
      </trkpt>
      <trkpt lat="42.981178974732757" lon="-4.993648985400796">
        <ele>1160.45</ele>
        <time>2025-04-29T09:53:53Z</time>
      </trkpt>
      <trkpt lat="42.98133303411305" lon="-4.993799021467567">
        <ele>1159.97</ele>
        <time>2025-04-29T09:53:54Z</time>
      </trkpt>
      <trkpt lat="42.981813987717032" lon="-4.994267988950014">
        <ele>1158.05</ele>
        <time>2025-04-29T09:53:57Z</time>
      </trkpt>
      <trkpt lat="42.981995958834887" lon="-4.994368990883231">
        <ele>1157.5599999999999</ele>
        <time>2025-04-29T09:53:58Z</time>
      </trkpt>
      <trkpt lat="42.982185976579785" lon="-4.994460018351674">
        <ele>1157.0799999999999</ele>
        <time>2025-04-29T09:53:59Z</time>
      </trkpt>
      <trkpt lat="42.982758963480592" lon="-4.994712984189391">
        <ele>1155.6400000000001</ele>
        <time>2025-04-29T09:54:02Z</time>
      </trkpt>
      <trkpt lat="42.982933977618814" lon="-4.994829995557666">
        <ele>1155.1600000000001</ele>
        <time>2025-04-29T09:54:03Z</time>
      </trkpt>
      <trkpt lat="42.983094993978739" lon="-4.995005009695888">
        <ele>1154.6800000000001</ele>
        <time>2025-04-29T09:54:04Z</time>
      </trkpt>
      <trkpt lat="42.983232038095593" lon="-4.995195027440786">
        <ele>1154.2</ele>
        <time>2025-04-29T09:54:05Z</time>
      </trkpt>
      <trkpt lat="42.983370004221797" lon="-4.995386973023415">
        <ele>1153.72</ele>
        <time>2025-04-29T09:54:06Z</time>
      </trkpt>
      <trkpt lat="42.983493972569704" lon="-4.995560981333256">
        <ele>1153.24</ele>
        <time>2025-04-29T09:54:07Z</time>
      </trkpt>
      <trkpt lat="42.98367602750659" lon="-4.995701964944601">
        <ele>1152.28</ele>
        <time>2025-04-29T09:54:08Z</time>
      </trkpt>
      <trkpt lat="42.983847018331289" lon="-4.995834985747933">
        <ele>1151.8</ele>
        <time>2025-04-29T09:54:09Z</time>
      </trkpt>
      <trkpt lat="42.984033012762666" lon="-4.995897011831403">
        <ele>1151.3199999999999</ele>
        <time>2025-04-29T09:54:10Z</time>
      </trkpt>
      <trkpt lat="42.98423602245748" lon="-4.995945040136576">
        <ele>1150.8399999999999</ele>
        <time>2025-04-29T09:54:11Z</time>
      </trkpt>
      <trkpt lat="42.984442971646786" lon="-4.995924001559615">
        <ele>1149.8699999999999</ele>
        <time>2025-04-29T09:54:12Z</time>
      </trkpt>
      <trkpt lat="42.984610022976995" lon="-4.995903968811035">
        <ele>1149.3900000000001</ele>
        <time>2025-04-29T09:54:13Z</time>
      </trkpt>
      <trkpt lat="42.984855026006699" lon="-4.99576399102807">
        <ele>1148.4300000000001</ele>
        <time>2025-04-29T09:54:14Z</time>
      </trkpt>
      <trkpt lat="42.985038002952933" lon="-4.995619989931583">
        <ele>1147.47</ele>
        <time>2025-04-29T09:54:15Z</time>
      </trkpt>
      <trkpt lat="42.985222991555929" lon="-4.995456961914897">
        <ele>1146.51</ele>
        <time>2025-04-29T09:54:16Z</time>
      </trkpt>
      <trkpt lat="42.985410997644067" lon="-4.995314972475171">
        <ele>1145.55</ele>
        <time>2025-04-29T09:54:17Z</time>
      </trkpt>
      <trkpt lat="42.985580982640386" lon="-4.995195027440786">
        <ele>1145.0699999999999</ele>
        <time>2025-04-29T09:54:18Z</time>
      </trkpt>
      <trkpt lat="42.9857839923352" lon="-4.995148004963994">
        <ele>1144.5899999999999</ele>
        <time>2025-04-29T09:54:19Z</time>
      </trkpt>
      <trkpt lat="42.985963029786944" lon="-4.99514096416533">
        <ele>1143.6300000000001</ele>
        <time>2025-04-29T09:54:20Z</time>
      </trkpt>
      <trkpt lat="42.986329989507794" lon="-4.995076004415751">
        <ele>1141.7</ele>
        <time>2025-04-29T09:54:22Z</time>
      </trkpt>
      <trkpt lat="42.986505003646016" lon="-4.99498900026083">
        <ele>1140.74</ele>
        <time>2025-04-29T09:54:23Z</time>
      </trkpt>
      <trkpt lat="42.986613968387246" lon="-4.994867965579033">
        <ele>1139.78</ele>
        <time>2025-04-29T09:54:24Z</time>
      </trkpt>
      <trkpt lat="42.986710024997592" lon="-4.994694963097572">
        <ele>1139.3</ele>
        <time>2025-04-29T09:54:25Z</time>
      </trkpt>
      <trkpt lat="42.986785965040326" lon="-4.994539981707931">
        <ele>1138.8199999999999</ele>
        <time>2025-04-29T09:54:26Z</time>
      </trkpt>
      <trkpt lat="42.986840028315783" lon="-4.994330015033484">
        <ele>1138.3399999999999</ele>
        <time>2025-04-29T09:54:27Z</time>
      </trkpt>
      <trkpt lat="42.986897025257349" lon="-4.994105966761708">
        <ele>1137.3800000000001</ele>
        <time>2025-04-29T09:54:28Z</time>
      </trkpt>
      <trkpt lat="42.98715703189373" lon="-4.993472965434194">
        <ele>1135.45</ele>
        <time>2025-04-29T09:54:31Z</time>
      </trkpt>
      <trkpt lat="42.987268008291721" lon="-4.993297029286623">
        <ele>1134.49</ele>
        <time>2025-04-29T09:54:32Z</time>
      </trkpt>
      <trkpt lat="42.987382002174854" lon="-4.993115980178118">
        <ele>1134.01</ele>
        <time>2025-04-29T09:54:33Z</time>
      </trkpt>
      <trkpt lat="42.987489961087704" lon="-4.992942977696657">
        <ele>1133.53</ele>
        <time>2025-04-29T09:54:34Z</time>
      </trkpt>
      <trkpt lat="42.987592974677682" lon="-4.992751032114029">
        <ele>1132.5699999999999</ele>
        <time>2025-04-29T09:54:35Z</time>
      </trkpt>
      <trkpt lat="42.987659024074674" lon="-4.992566965520382">
        <ele>1132.0899999999999</ele>
        <time>2025-04-29T09:54:36Z</time>
      </trkpt>
      <trkpt lat="42.987709986045957" lon="-4.992350041866303">
        <ele>1131.6099999999999</ele>
        <time>2025-04-29T09:54:37Z</time>
      </trkpt>
      <trkpt lat="42.987732030451298" lon="-4.992148960009217">
        <ele>1131.1300000000001</ele>
        <time>2025-04-29T09:54:38Z</time>
      </trkpt>
      <trkpt lat="42.987752985209227" lon="-4.991946034133434">
        <ele>1130.6500000000001</ele>
        <time>2025-04-29T09:54:39Z</time>
      </trkpt>
      <trkpt lat="42.987794978544116" lon="-4.991559041664004">
        <ele>1130.6500000000001</ele>
        <time>2025-04-29T09:54:41Z</time>
      </trkpt>
      <trkpt lat="42.987821968272328" lon="-4.991405988112092">
        <ele>1130.1700000000001</ele>
        <time>2025-04-29T09:54:42Z</time>
      </trkpt>
      <trkpt lat="42.987891035154462" lon="-4.991245977580547">
        <ele>1130.1700000000001</ele>
        <time>2025-04-29T09:54:43Z</time>
      </trkpt>
      <trkpt lat="42.987963035702705" lon="-4.991109017282724">
        <ele>1129.6900000000001</ele>
        <time>2025-04-29T09:54:44Z</time>
      </trkpt>
      <trkpt lat="42.98805900849402" lon="-4.990997035056353">
        <ele>1129.21</ele>
        <time>2025-04-29T09:54:45Z</time>
      </trkpt>
      <trkpt lat="42.988166967406869" lon="-4.990935008972883">
        <ele>1128.73</ele>
        <time>2025-04-29T09:54:46Z</time>
      </trkpt>
      <trkpt lat="42.988285990431905" lon="-4.990870971232653">
        <ele>1128.73</ele>
        <time>2025-04-29T09:54:47Z</time>
      </trkpt>
      <trkpt lat="42.988401995971799" lon="-4.990834007039666">
        <ele>1128.24</ele>
        <time>2025-04-29T09:54:48Z</time>
      </trkpt>
      <trkpt lat="42.988528981804848" lon="-4.99082000926137">
        <ele>1128.24</ele>
        <time>2025-04-29T09:54:49Z</time>
      </trkpt>
      <trkpt lat="42.988650016486645" lon="-4.990855967625976">
        <ele>1128.24</ele>
        <time>2025-04-29T09:54:50Z</time>
      </trkpt>
      <trkpt lat="42.9887680336833" lon="-4.990921011194587">
        <ele>1128.24</ele>
        <time>2025-04-29T09:54:51Z</time>
      </trkpt>
      <trkpt lat="42.988887978717685" lon="-4.991041040048003">
        <ele>1128.73</ele>
        <time>2025-04-29T09:54:52Z</time>
      </trkpt>
      <trkpt lat="42.989003984257579" lon="-4.991156961768866">
        <ele>1128.73</ele>
        <time>2025-04-29T09:54:53Z</time>
      </trkpt>
      <trkpt lat="42.989075984805822" lon="-4.991283025592566">
        <ele>1128.73</ele>
        <time>2025-04-29T09:54:54Z</time>
      </trkpt>
      <trkpt lat="42.989126024767756" lon="-4.991392996162176">
        <ele>1128.73</ele>
        <time>2025-04-29T09:54:55Z</time>
      </trkpt>
      <trkpt lat="42.989148991182446" lon="-4.99148796312511">
        <ele>1128.73</ele>
        <time>2025-04-29T09:54:56Z</time>
      </trkpt>
      <trkpt lat="42.989161983132362" lon="-4.991568010300398">
        <ele>1129.21</ele>
        <time>2025-04-29T09:54:57Z</time>
      </trkpt>
      <trkpt lat="42.989172963425517" lon="-4.991633975878358">
        <ele>1129.21</ele>
        <time>2025-04-29T09:54:58Z</time>
      </trkpt>
      <trkpt lat="42.989200036972761" lon="-4.991791974753141">
        <ele>1130.1700000000001</ele>
        <time>2025-04-29T09:55:02Z</time>
      </trkpt>
      <trkpt lat="42.989200036972761" lon="-4.991791974753141">
        <ele>1130.6500000000001</ele>
        <time>2025-04-29T09:55:17Z</time>
      </trkpt>
      <trkpt lat="42.989200036972761" lon="-4.991791974753141">
        <ele>1131.1300000000001</ele>
        <time>2025-04-29T09:56:12Z</time>
      </trkpt>
      <trkpt lat="42.989200036972761" lon="-4.991791974753141">
        <ele>1131.6099999999999</ele>
        <time>2025-04-29T09:57:04Z</time>
      </trkpt>
      <trkpt lat="42.989200036972761" lon="-4.991791974753141">
        <ele>1131.6099999999999</ele>
        <time>2025-04-29T09:57:55Z</time>
      </trkpt>
      <trkpt lat="42.989200036972761" lon="-4.991791974753141">
        <ele>1132.0899999999999</ele>
        <time>2025-04-29T09:58:50Z</time>
      </trkpt>
      <trkpt lat="42.989202970638871" lon="-4.991813013330102">
        <ele>1132.0899999999999</ele>
        <time>2025-04-29T09:59:13Z</time>
      </trkpt>
      <trkpt lat="42.989289974793792" lon="-4.99238901771605">
        <ele>1134.01</ele>
        <time>2025-04-29T09:59:19Z</time>
      </trkpt>
      <trkpt lat="42.989402962848544" lon="-4.993180017918348">
        <ele>1135.45</ele>
        <time>2025-04-29T09:59:24Z</time>
      </trkpt>
      <trkpt lat="42.989462977275252" lon="-4.993344973772764">
        <ele>1135.9400000000001</ele>
        <time>2025-04-29T09:59:25Z</time>
      </trkpt>
      <trkpt lat="42.989534977823496" lon="-4.993513030931354">
        <ele>1136.4200000000001</ele>
        <time>2025-04-29T09:59:26Z</time>
      </trkpt>
      <trkpt lat="42.989621981978416" lon="-4.993674969300628">
        <ele>1136.9000000000001</ele>
        <time>2025-04-29T09:59:27Z</time>
      </trkpt>
      <trkpt lat="42.989730024710298" lon="-4.993817964568734">
        <ele>1137.8599999999999</ele>
        <time>2025-04-29T09:59:28Z</time>
      </trkpt>
      <trkpt lat="42.989836977794766" lon="-4.993960959836841">
        <ele>1138.3399999999999</ele>
        <time>2025-04-29T09:59:29Z</time>
      </trkpt>
      <trkpt lat="42.989931022748351" lon="-4.994102027267218">
        <ele>1139.3</ele>
        <time>2025-04-29T09:59:30Z</time>
      </trkpt>
      <trkpt lat="42.990192035213113" lon="-4.994652969762683">
        <ele>1141.7</ele>
        <time>2025-04-29T09:59:34Z</time>
      </trkpt>
      <trkpt lat="42.990256994962692" lon="-4.994791019707918">
        <ele>1141.7</ele>
        <time>2025-04-29T09:59:35Z</time>
      </trkpt>
      <trkpt lat="42.99033997580409" lon="-4.99492303468287">
        <ele>1142.1800000000001</ele>
        <time>2025-04-29T09:59:36Z</time>
      </trkpt>
      <trkpt lat="42.990443995222449" lon="-4.995039962232113">
        <ele>1142.6600000000001</ele>
        <time>2025-04-29T09:59:37Z</time>
      </trkpt>
      <trkpt lat="42.990582967177033" lon="-4.99511799775064">
        <ele>1143.1400000000001</ele>
        <time>2025-04-29T09:59:38Z</time>
      </trkpt>
      <trkpt lat="42.990735014900565" lon="-4.995163008570671">
        <ele>1143.1400000000001</ele>
        <time>2025-04-29T09:59:39Z</time>
      </trkpt>
      <trkpt lat="42.99089502543211" lon="-4.995185974985361">
        <ele>1143.6300000000001</ele>
        <time>2025-04-29T09:59:40Z</time>
      </trkpt>
      <trkpt lat="42.991070039570332" lon="-4.995186980813742">
        <ele>1143.6300000000001</ele>
        <time>2025-04-29T09:59:41Z</time>
      </trkpt>
      <trkpt lat="42.9920369759202" lon="-4.995068041607738">
        <ele>1142.1800000000001</ele>
        <time>2025-04-29T09:59:47Z</time>
      </trkpt>
      <trkpt lat="42.992167985066772" lon="-4.994986988604069">
        <ele>1141.7</ele>
        <time>2025-04-29T09:59:48Z</time>
      </trkpt>
      <trkpt lat="42.992297988384962" lon="-4.994906019419432">
        <ele>1141.22</ele>
        <time>2025-04-29T09:59:49Z</time>
      </trkpt>
      <trkpt lat="42.992719011381269" lon="-4.99464500695467">
        <ele>1139.78</ele>
        <time>2025-04-29T09:59:52Z</time>
      </trkpt>
      <trkpt lat="42.992865024134517" lon="-4.994596978649497">
        <ele>1138.8199999999999</ele>
        <time>2025-04-29T09:59:53Z</time>
      </trkpt>
      <trkpt lat="42.993021011352539" lon="-4.994566971436143">
        <ele>1138.3399999999999</ele>
        <time>2025-04-29T09:59:54Z</time>
      </trkpt>
      <trkpt lat="42.993920976296067" lon="-4.994233958423138">
        <ele>1133.53</ele>
        <time>2025-04-29T10:00:00Z</time>
      </trkpt>
      <trkpt lat="42.9940539970994" lon="-4.994117030873895">
        <ele>1132.5699999999999</ele>
        <time>2025-04-29T10:00:01Z</time>
      </trkpt>
      <trkpt lat="42.994451969861984" lon="-4.99376499094069">
        <ele>1129.6900000000001</ele>
        <time>2025-04-29T10:00:04Z</time>
      </trkpt>
      <trkpt lat="42.994594965130091" lon="-4.993697013705969">
        <ele>1128.73</ele>
        <time>2025-04-29T10:00:05Z</time>
      </trkpt>
      <trkpt lat="42.994736032560468" lon="-4.993655020371079">
        <ele>1127.76</ele>
        <time>2025-04-29T10:00:06Z</time>
      </trkpt>
      <trkpt lat="42.994883973151445" lon="-4.993668012320995">
        <ele>1126.8</ele>
        <time>2025-04-29T10:00:07Z</time>
      </trkpt>
      <trkpt lat="42.995014982298017" lon="-4.993718974292278">
        <ele>1125.8399999999999</ele>
        <time>2025-04-29T10:00:08Z</time>
      </trkpt>
      <trkpt lat="42.995124030858278" lon="-4.993779994547367">
        <ele>1125.3599999999999</ele>
        <time>2025-04-29T10:00:09Z</time>
      </trkpt>
      <trkpt lat="42.995241964235902" lon="-4.993927013128996">
        <ele>1124.8800000000001</ele>
        <time>2025-04-29T10:00:10Z</time>
      </trkpt>
      <trkpt lat="42.995345983654261" lon="-4.994057016447187">
        <ele>1124.4000000000001</ele>
        <time>2025-04-29T10:00:11Z</time>
      </trkpt>
      <trkpt lat="42.995414966717362" lon="-4.994208980351687">
        <ele>1124.4000000000001</ele>
        <time>2025-04-29T10:00:12Z</time>
      </trkpt>
      <trkpt lat="42.995469029992819" lon="-4.994378965348005">
        <ele>1123.9200000000001</ele>
        <time>2025-04-29T10:00:13Z</time>
      </trkpt>
      <trkpt lat="42.995483027771115" lon="-4.994565965607762">
        <ele>1123.9200000000001</ele>
        <time>2025-04-29T10:00:14Z</time>
      </trkpt>
      <trkpt lat="42.99547397531569" lon="-4.994757995009422">
        <ele>1123.9200000000001</ele>
        <time>2025-04-29T10:00:15Z</time>
      </trkpt>
      <trkpt lat="42.995450003072619" lon="-4.994952036067843">
        <ele>1123.9200000000001</ele>
        <time>2025-04-29T10:00:16Z</time>
      </trkpt>
      <trkpt lat="42.995394011959434" lon="-4.995135013014078">
        <ele>1123.9200000000001</ele>
        <time>2025-04-29T10:00:17Z</time>
      </trkpt>
      <trkpt lat="42.995336009189487" lon="-4.995322013273835">
        <ele>1123.9200000000001</ele>
        <time>2025-04-29T10:00:18Z</time>
      </trkpt>
      <trkpt lat="42.995269037783146" lon="-4.995508007705212">
        <ele>1124.4000000000001</ele>
        <time>2025-04-29T10:00:19Z</time>
      </trkpt>
      <trkpt lat="42.994432020932436" lon="-4.996860008686781">
        <ele>1127.28</ele>
        <time>2025-04-29T10:00:27Z</time>
      </trkpt>
      <trkpt lat="42.994328001514077" lon="-4.997044997289777">
        <ele>1127.76</ele>
        <time>2025-04-29T10:00:28Z</time>
      </trkpt>
      <trkpt lat="42.994251977652311" lon="-4.997257981449366">
        <ele>1127.76</ele>
        <time>2025-04-29T10:00:29Z</time>
      </trkpt>
      <trkpt lat="42.994171008467674" lon="-4.997486975044012">
        <ele>1127.76</ele>
        <time>2025-04-29T10:00:30Z</time>
      </trkpt>
      <trkpt lat="42.994103031232953" lon="-4.997725021094084">
        <ele>1128.24</ele>
        <time>2025-04-29T10:00:31Z</time>
      </trkpt>
      <trkpt lat="42.994061037898064" lon="-4.997991984710097">
        <ele>1128.24</ele>
        <time>2025-04-29T10:00:32Z</time>
      </trkpt>
      <trkpt lat="42.994063971564174" lon="-4.998258026316762">
        <ele>1128.73</ele>
        <time>2025-04-29T10:00:33Z</time>
      </trkpt>
      <trkpt lat="42.994088027626276" lon="-4.998524989932776">
        <ele>1128.73</ele>
        <time>2025-04-29T10:00:34Z</time>
      </trkpt>
      <trkpt lat="42.994130020961165" lon="-4.998779967427254">
        <ele>1128.73</ele>
        <time>2025-04-29T10:00:35Z</time>
      </trkpt>
      <trkpt lat="42.994213001802564" lon="-4.999026982113719">
        <ele>1128.73</ele>
        <time>2025-04-29T10:00:36Z</time>
      </trkpt>
      <trkpt lat="42.994317021220922" lon="-4.999238038435578">
        <ele>1129.21</ele>
        <time>2025-04-29T10:00:37Z</time>
      </trkpt>
      <trkpt lat="42.994449036195874" lon="-4.999448005110025">
        <ele>1129.21</ele>
        <time>2025-04-29T10:00:38Z</time>
      </trkpt>
      <trkpt lat="42.994579961523414" lon="-4.999655038118362">
        <ele>1129.21</ele>
        <time>2025-04-29T10:00:39Z</time>
      </trkpt>
      <trkpt lat="42.994714993983507" lon="-4.999782023951411">
        <ele>1129.21</ele>
        <time>2025-04-29T10:00:40Z</time>
      </trkpt>
      <trkpt lat="42.994891013950109" lon="-4.999915966764092">
        <ele>1128.73</ele>
        <time>2025-04-29T10:00:41Z</time>
      </trkpt>
      <trkpt lat="42.995059993118048" lon="-5.000044964253902">
        <ele>1129.21</ele>
        <time>2025-04-29T10:00:42Z</time>
      </trkpt>
      <trkpt lat="42.995266020298004" lon="-5.000133980065584">
        <ele>1129.21</ele>
        <time>2025-04-29T10:00:43Z</time>
      </trkpt>
      <trkpt lat="42.995479004457593" lon="-5.000225007534027">
        <ele>1129.21</ele>
        <time>2025-04-29T10:00:44Z</time>
      </trkpt>
      <trkpt lat="42.995889969170094" lon="-5.000376971438527">
        <ele>1129.6900000000001</ele>
        <time>2025-04-29T10:00:46Z</time>
      </trkpt>
      <trkpt lat="42.996099013835192" lon="-5.000403039157391">
        <ele>1129.6900000000001</ele>
        <time>2025-04-29T10:00:47Z</time>
      </trkpt>
      <trkpt lat="42.996305041015148" lon="-5.000429023057222">
        <ele>1129.6900000000001</ele>
        <time>2025-04-29T10:00:48Z</time>
      </trkpt>
      <trkpt lat="42.996494974941015" lon="-5.000380994752049">
        <ele>1129.6900000000001</ele>
        <time>2025-04-29T10:00:49Z</time>
      </trkpt>
      <trkpt lat="42.996674012392759" lon="-5.000271024182439">
        <ele>1129.21</ele>
        <time>2025-04-29T10:00:50Z</time>
      </trkpt>
      <trkpt lat="42.99684701487422" lon="-5.000127023085952">
        <ele>1129.21</ele>
        <time>2025-04-29T10:00:51Z</time>
      </trkpt>
      <trkpt lat="42.997025968506932" lon="-4.999953014776111">
        <ele>1129.21</ele>
        <time>2025-04-29T10:00:52Z</time>
      </trkpt>
      <trkpt lat="42.997205005958676" lon="-4.99977900646627">
        <ele>1129.21</ele>
        <time>2025-04-29T10:00:53Z</time>
      </trkpt>
      <trkpt lat="42.997377002611756" lon="-4.999612960964441">
        <ele>1129.21</ele>
        <time>2025-04-29T10:00:54Z</time>
      </trkpt>
      <trkpt lat="42.997892992570996" lon="-4.999197972938418">
        <ele>1129.21</ele>
        <time>2025-04-29T10:00:57Z</time>
      </trkpt>
      <trkpt lat="42.998043028637767" lon="-4.999143993481994">
        <ele>1129.21</ele>
        <time>2025-04-29T10:00:58Z</time>
      </trkpt>
      <trkpt lat="42.99822399392724" lon="-4.999164026230574">
        <ele>1129.21</ele>
        <time>2025-04-29T10:00:59Z</time>
      </trkpt>
      <trkpt lat="42.998366989195347" lon="-4.999237032607198">
        <ele>1129.21</ele>
        <time>2025-04-29T10:01:00Z</time>
      </trkpt>
      <trkpt lat="42.998472014442086" lon="-4.999294029548764">
        <ele>1129.21</ele>
        <time>2025-04-29T10:01:01Z</time>
      </trkpt>
      <trkpt lat="42.998603023588657" lon="-4.9994579795748">
        <ele>1129.21</ele>
        <time>2025-04-29T10:01:02Z</time>
      </trkpt>
      <trkpt lat="42.998671000823379" lon="-4.999611033126712">
        <ele>1128.73</ele>
        <time>2025-04-29T10:01:03Z</time>
      </trkpt>
      <trkpt lat="42.998731015250087" lon="-4.999832985922694">
        <ele>1128.73</ele>
        <time>2025-04-29T10:01:04Z</time>
      </trkpt>
      <trkpt lat="42.998792035505176" lon="-5.000058962032199">
        <ele>1128.24</ele>
        <time>2025-04-29T10:01:05Z</time>
      </trkpt>
      <trkpt lat="42.998853977769613" lon="-5.000288039445877">
        <ele>1128.73</ele>
        <time>2025-04-29T10:01:06Z</time>
      </trkpt>
      <trkpt lat="42.998918015509844" lon="-5.000520972535014">
        <ele>1128.73</ele>
        <time>2025-04-29T10:01:07Z</time>
      </trkpt>
      <trkpt lat="42.999035026878119" lon="-5.000735968351364">
        <ele>1128.24</ele>
        <time>2025-04-29T10:01:08Z</time>
      </trkpt>
      <trkpt lat="42.99916603602469" lon="-5.000921040773392">
        <ele>1128.24</ele>
        <time>2025-04-29T10:01:09Z</time>
      </trkpt>
      <trkpt lat="42.999326968565583" lon="-5.001065963879228">
        <ele>1128.24</ele>
        <time>2025-04-29T10:01:10Z</time>
      </trkpt>
      <trkpt lat="42.999502988532186" lon="-5.001161014661193">
        <ele>1128.24</ele>
        <time>2025-04-29T10:01:11Z</time>
      </trkpt>
      <trkpt lat="42.999715972691774" lon="-5.001204013824463">
        <ele>1127.76</ele>
        <time>2025-04-29T10:01:12Z</time>
      </trkpt>
      <trkpt lat="42.999887969344854" lon="-5.001167971640825">
        <ele>1127.76</ele>
        <time>2025-04-29T10:01:13Z</time>
      </trkpt>
      <trkpt lat="43.000081004574895" lon="-5.001126984134316">
        <ele>1127.28</ele>
        <time>2025-04-29T10:01:14Z</time>
      </trkpt>
      <trkpt lat="43.000270016491413" lon="-5.001088008284569">
        <ele>1127.76</ele>
        <time>2025-04-29T10:01:15Z</time>
      </trkpt>
      <trkpt lat="43.000453999266028" lon="-5.001049032434821">
        <ele>1127.76</ele>
        <time>2025-04-29T10:01:16Z</time>
      </trkpt>
      <trkpt lat="43.00060898065567" lon="-5.001062024384737">
        <ele>1127.76</ele>
        <time>2025-04-29T10:01:17Z</time>
      </trkpt>
      <trkpt lat="43.000810984522104" lon="-5.001139976084232">
        <ele>1127.28</ele>
        <time>2025-04-29T10:01:18Z</time>
      </trkpt>
      <trkpt lat="43.00093000754714" lon="-5.00124198384583">
        <ele>1127.28</ele>
        <time>2025-04-29T10:01:19Z</time>
      </trkpt>
      <trkpt lat="43.001041989773512" lon="-5.001438958570361">
        <ele>1127.28</ele>
        <time>2025-04-29T10:01:20Z</time>
      </trkpt>
      <trkpt lat="43.00114500336349" lon="-5.001654038205743">
        <ele>1127.28</ele>
        <time>2025-04-29T10:01:21Z</time>
      </trkpt>
      <trkpt lat="43.001246005296707" lon="-5.001868028193712">
        <ele>1127.76</ele>
        <time>2025-04-29T10:01:22Z</time>
      </trkpt>
      <trkpt lat="43.001348013058305" lon="-5.002081012353301">
        <ele>1128.24</ele>
        <time>2025-04-29T10:01:23Z</time>
      </trkpt>
      <trkpt lat="43.001473993062973" lon="-5.002253009006381">
        <ele>1128.24</ele>
        <time>2025-04-29T10:01:24Z</time>
      </trkpt>
      <trkpt lat="43.001646995544434" lon="-5.002427017316222">
        <ele>1128.73</ele>
        <time>2025-04-29T10:01:25Z</time>
      </trkpt>
      <trkpt lat="43.001799965277314" lon="-5.002480996772647">
        <ele>1128.73</ele>
        <time>2025-04-29T10:01:26Z</time>
      </trkpt>
      <trkpt lat="43.001974979415536" lon="-5.002543022856116">
        <ele>1129.21</ele>
        <time>2025-04-29T10:01:27Z</time>
      </trkpt>
      <trkpt lat="43.002313021570444" lon="-5.002662967890501">
        <ele>1128.73</ele>
        <time>2025-04-29T10:01:29Z</time>
      </trkpt>
      <trkpt lat="43.002480994910002" lon="-5.002805041149259">
        <ele>1128.73</ele>
        <time>2025-04-29T10:01:30Z</time>
      </trkpt>
      <trkpt lat="43.002647962421179" lon="-5.002944013103843">
        <ele>1128.24</ele>
        <time>2025-04-29T10:01:31Z</time>
      </trkpt>
      <trkpt lat="43.003538036718965" lon="-5.003568967804313">
        <ele>1126.8</ele>
        <time>2025-04-29T10:01:36Z</time>
      </trkpt>
      <trkpt lat="43.003743980079889" lon="-5.003630993887782">
        <ele>1126.3199999999999</ele>
        <time>2025-04-29T10:01:37Z</time>
      </trkpt>
      <trkpt lat="43.003966016694903" lon="-5.003668963909149">
        <ele>1125.3599999999999</ele>
        <time>2025-04-29T10:01:38Z</time>
      </trkpt>
      <trkpt lat="43.004186041653156" lon="-5.003659995272756">
        <ele>1124.8800000000001</ele>
        <time>2025-04-29T10:01:39Z</time>
      </trkpt>
      <trkpt lat="43.0044100061059" lon="-5.003652032464743">
        <ele>1123.9200000000001</ele>
        <time>2025-04-29T10:01:40Z</time>
      </trkpt>
      <trkpt lat="43.004642017185688" lon="-5.003608027473092">
        <ele>1122.96</ele>
        <time>2025-04-29T10:01:41Z</time>
      </trkpt>
      <trkpt lat="43.004868999123573" lon="-5.003555975854397">
        <ele>1122</ele>
        <time>2025-04-29T10:01:42Z</time>
      </trkpt>
      <trkpt lat="43.005294967442751" lon="-5.003456985577941">
        <ele>1119.1099999999999</ele>
        <time>2025-04-29T10:01:44Z</time>
      </trkpt>
      <trkpt lat="43.00548498518765" lon="-5.003490010276437">
        <ele>1117.6700000000001</ele>
        <time>2025-04-29T10:01:45Z</time>
      </trkpt>
      <trkpt lat="43.005675002932549" lon="-5.003523034974933">
        <ele>1116.71</ele>
        <time>2025-04-29T10:01:46Z</time>
      </trkpt>
      <trkpt lat="43.005853034555912" lon="-5.003589000552893">
        <ele>1116.23</ele>
        <time>2025-04-29T10:01:47Z</time>
      </trkpt>
      <trkpt lat="43.00602201372385" lon="-5.003709029406309">
        <ele>1115.27</ele>
        <time>2025-04-29T10:01:48Z</time>
      </trkpt>
      <trkpt lat="43.006185963749886" lon="-5.003826040774584">
        <ele>1114.79</ele>
        <time>2025-04-29T10:01:49Z</time>
      </trkpt>
      <trkpt lat="43.006332982331514" lon="-5.003994014114142">
        <ele>1114.3099999999999</ele>
        <time>2025-04-29T10:01:50Z</time>
      </trkpt>
      <trkpt lat="43.006462985649705" lon="-5.004173973575234">
        <ele>1113.8199999999999</ele>
        <time>2025-04-29T10:01:51Z</time>
      </trkpt>
      <trkpt lat="43.006573962047696" lon="-5.004400033503771">
        <ele>1113.8199999999999</ele>
        <time>2025-04-29T10:01:52Z</time>
      </trkpt>
      <trkpt lat="43.006663983687758" lon="-5.004637995734811">
        <ele>1113.8199999999999</ele>
        <time>2025-04-29T10:01:53Z</time>
      </trkpt>
      <trkpt lat="43.006737995892763" lon="-5.004907976835966">
        <ele>1113.3399999999999</ele>
        <time>2025-04-29T10:01:54Z</time>
      </trkpt>
      <trkpt lat="43.006790969520807" lon="-5.005187010392547">
        <ele>1113.3399999999999</ele>
        <time>2025-04-29T10:01:55Z</time>
      </trkpt>
      <trkpt lat="43.006845032796264" lon="-5.005471995100379">
        <ele>1113.3399999999999</ele>
        <time>2025-04-29T10:01:56Z</time>
      </trkpt>
      <trkpt lat="43.007425982505083" lon="-5.007708035409451">
        <ele>1112.8599999999999</ele>
        <time>2025-04-29T10:02:04Z</time>
      </trkpt>
      <trkpt lat="43.008252019062638" lon="-5.009632017463446">
        <ele>1113.3399999999999</ele>
        <time>2025-04-29T10:02:12Z</time>
      </trkpt>
      <trkpt lat="43.009016029536724" lon="-5.011896975338459">
        <ele>1113.3399999999999</ele>
        <time>2025-04-29T10:02:21Z</time>
      </trkpt>
      <trkpt lat="43.009236976504326" lon="-5.014396039769054">
        <ele>1111.4200000000001</ele>
        <time>2025-04-29T10:02:30Z</time>
      </trkpt>
      <trkpt lat="43.009619023650885" lon="-5.01651800237596">
        <ele>1111.9000000000001</ele>
        <time>2025-04-29T10:02:38Z</time>
      </trkpt>
      <trkpt lat="43.010542038828135" lon="-5.019316971302033">
        <ele>1111.9000000000001</ele>
        <time>2025-04-29T10:02:48Z</time>
      </trkpt>
      <trkpt lat="43.010850995779037" lon="-5.020135967060924">
        <ele>1111.4200000000001</ele>
        <time>2025-04-29T10:02:51Z</time>
      </trkpt>
      <trkpt lat="43.010982004925609" lon="-5.020408965647221">
        <ele>1111.4200000000001</ele>
        <time>2025-04-29T10:02:52Z</time>
      </trkpt>
      <trkpt lat="43.011097004637122" lon="-5.020566964522004">
        <ele>1111.4200000000001</ele>
        <time>2025-04-29T10:02:53Z</time>
      </trkpt>
      <trkpt lat="43.011261038482189" lon="-5.020714988932014">
        <ele>1111.4200000000001</ele>
        <time>2025-04-29T10:02:54Z</time>
      </trkpt>
      <trkpt lat="43.011421971023083" lon="-5.020819008350372">
        <ele>1111.4200000000001</ele>
        <time>2025-04-29T10:02:55Z</time>
      </trkpt>
      <trkpt lat="43.011581981554627" lon="-5.020924033597112">
        <ele>1111.9000000000001</ele>
        <time>2025-04-29T10:02:56Z</time>
      </trkpt>
      <trkpt lat="43.011746015399694" lon="-5.020958986133337">
        <ele>1111.9000000000001</ele>
        <time>2025-04-29T10:02:57Z</time>
      </trkpt>
      <trkpt lat="43.011903008446097" lon="-5.020993016660214">
        <ele>1111.9000000000001</ele>
        <time>2025-04-29T10:02:58Z</time>
      </trkpt>
      <trkpt lat="43.012792998924851" lon="-5.021147998049855">
        <ele>1113.3399999999999</ele>
        <time>2025-04-29T10:03:05Z</time>
      </trkpt>
      <trkpt lat="43.012870028614998" lon="-5.021159984171391">
        <ele>1113.3399999999999</ele>
        <time>2025-04-29T10:03:06Z</time>
      </trkpt>
      <trkpt lat="43.01287698559463" lon="-5.021259980276227">
        <ele>1113.3399999999999</ele>
        <time>2025-04-29T10:03:07Z</time>
      </trkpt>
      <trkpt lat="43.012885032221675" lon="-5.021371962502599">
        <ele>1113.3399999999999</ele>
        <time>2025-04-29T10:03:08Z</time>
      </trkpt>
      <trkpt lat="43.012889977544546" lon="-5.021501965820789">
        <ele>1113.3399999999999</ele>
        <time>2025-04-29T10:03:09Z</time>
      </trkpt>
      <trkpt lat="43.012884026393294" lon="-5.021648984402418">
        <ele>1113.3399999999999</ele>
        <time>2025-04-29T10:03:10Z</time>
      </trkpt>
      <trkpt lat="43.01287698559463" lon="-5.021813018247485">
        <ele>1113.8199999999999</ele>
        <time>2025-04-29T10:03:11Z</time>
      </trkpt>
      <trkpt lat="43.012877991423011" lon="-5.022008987143636">
        <ele>1113.8199999999999</ele>
        <time>2025-04-29T10:03:12Z</time>
      </trkpt>
      <trkpt lat="43.012920990586281" lon="-5.022193975746632">
        <ele>1114.3099999999999</ele>
        <time>2025-04-29T10:03:13Z</time>
      </trkpt>
      <trkpt lat="43.012981005012989" lon="-5.022394973784685">
        <ele>1114.3099999999999</ele>
        <time>2025-04-29T10:03:14Z</time>
      </trkpt>
      <trkpt lat="43.013062980026007" lon="-5.02257602289319">
        <ele>1114.79</ele>
        <time>2025-04-29T10:03:15Z</time>
      </trkpt>
      <trkpt lat="43.013203041628003" lon="-5.02272798679769">
        <ele>1115.27</ele>
        <time>2025-04-29T10:03:16Z</time>
      </trkpt>
      <trkpt lat="43.013342013582587" lon="-5.022871987894177">
        <ele>1115.27</ele>
        <time>2025-04-29T10:03:17Z</time>
      </trkpt>
      <trkpt lat="43.013492971658707" lon="-5.022995034232736">
        <ele>1115.75</ele>
        <time>2025-04-29T10:03:18Z</time>
      </trkpt>
      <trkpt lat="43.013640996068716" lon="-5.02311497926712">
        <ele>1115.75</ele>
        <time>2025-04-29T10:03:19Z</time>
      </trkpt>
      <trkpt lat="43.013748032972217" lon="-5.023280018940568">
        <ele>1116.23</ele>
        <time>2025-04-29T10:03:20Z</time>
      </trkpt>
      <trkpt lat="43.013849034905434" lon="-5.023454027250409">
        <ele>1116.23</ele>
        <time>2025-04-29T10:03:21Z</time>
      </trkpt>
      <trkpt lat="43.013917012140155" lon="-5.023643961176276">
        <ele>1116.71</ele>
        <time>2025-04-29T10:03:22Z</time>
      </trkpt>
      <trkpt lat="43.013952970504761" lon="-5.023860968649387">
        <ele>1117.6700000000001</ele>
        <time>2025-04-29T10:03:23Z</time>
      </trkpt>
      <trkpt lat="43.013955987989902" lon="-5.024089040234685">
        <ele>1118.1500000000001</ele>
        <time>2025-04-29T10:03:24Z</time>
      </trkpt>
      <trkpt lat="43.013942996039987" lon="-5.024318033829331">
        <ele>1118.6300000000001</ele>
        <time>2025-04-29T10:03:25Z</time>
      </trkpt>
      <trkpt lat="43.013931009918451" lon="-5.024549961090088">
        <ele>1119.5899999999999</ele>
        <time>2025-04-29T10:03:26Z</time>
      </trkpt>
      <trkpt lat="43.013940984383225" lon="-5.02478800714016">
        <ele>1120.55</ele>
        <time>2025-04-29T10:03:27Z</time>
      </trkpt>
      <trkpt lat="43.014006027951837" lon="-5.025009037926793">
        <ele>1121.52</ele>
        <time>2025-04-29T10:03:28Z</time>
      </trkpt>
      <trkpt lat="43.014090014621615" lon="-5.025210035964847">
        <ele>1122</ele>
        <time>2025-04-29T10:03:29Z</time>
      </trkpt>
      <trkpt lat="43.014218006283045" lon="-5.025373985990882">
        <ele>1122.48</ele>
        <time>2025-04-29T10:03:30Z</time>
      </trkpt>
      <trkpt lat="43.014373993501067" lon="-5.025489991530776">
        <ele>1122.96</ele>
        <time>2025-04-29T10:03:31Z</time>
      </trkpt>
      <trkpt lat="43.014554036781192" lon="-5.025556962937117">
        <ele>1123.4400000000001</ele>
        <time>2025-04-29T10:03:32Z</time>
      </trkpt>
      <trkpt lat="43.014743970707059" lon="-5.025628041476011">
        <ele>1123.9200000000001</ele>
        <time>2025-04-29T10:03:33Z</time>
      </trkpt>
      <trkpt lat="43.014932982623577" lon="-5.025699036195874">
        <ele>1124.4000000000001</ele>
        <time>2025-04-29T10:03:34Z</time>
      </trkpt>
      <trkpt lat="43.015096010640264" lon="-5.025826022028923">
        <ele>1124.8800000000001</ele>
        <time>2025-04-29T10:03:35Z</time>
      </trkpt>
      <trkpt lat="43.015242023393512" lon="-5.025998018682003">
        <ele>1125.3599999999999</ele>
        <time>2025-04-29T10:03:36Z</time>
      </trkpt>
      <trkpt lat="43.015386024489999" lon="-5.026174038648605">
        <ele>1126.3199999999999</ele>
        <time>2025-04-29T10:03:37Z</time>
      </trkpt>
      <trkpt lat="43.015524996444583" lon="-5.026359027251601">
        <ele>1126.8</ele>
        <time>2025-04-29T10:03:38Z</time>
      </trkpt>
      <trkpt lat="43.015679977834225" lon="-5.026505962014198">
        <ele>1126.8</ele>
        <time>2025-04-29T10:03:39Z</time>
      </trkpt>
      <trkpt lat="43.01584099419415" lon="-5.026645017787814">
        <ele>1127.28</ele>
        <time>2025-04-29T10:03:40Z</time>
      </trkpt>
      <trkpt lat="43.016002010554075" lon="-5.026783989742398">
        <ele>1127.76</ele>
        <time>2025-04-29T10:03:41Z</time>
      </trkpt>
      <trkpt lat="43.016136959195137" lon="-5.026964033022523">
        <ele>1128.73</ele>
        <time>2025-04-29T10:03:42Z</time>
      </trkpt>
      <trkpt lat="43.016266962513328" lon="-5.027150027453899">
        <ele>1129.21</ele>
        <time>2025-04-29T10:03:43Z</time>
      </trkpt>
      <trkpt lat="43.016365030780435" lon="-5.027371980249882">
        <ele>1129.6900000000001</ele>
        <time>2025-04-29T10:03:44Z</time>
      </trkpt>
      <trkpt lat="43.016437031328678" lon="-5.027625029906631">
        <ele>1130.1700000000001</ele>
        <time>2025-04-29T10:03:45Z</time>
      </trkpt>
      <trkpt lat="43.016496039927006" lon="-5.027888976037502">
        <ele>1131.1300000000001</ele>
        <time>2025-04-29T10:03:46Z</time>
      </trkpt>
      <trkpt lat="43.01670198328793" lon="-5.028693974018097">
        <ele>1133.53</ele>
        <time>2025-04-29T10:03:49Z</time>
      </trkpt>
      <trkpt lat="43.016789993271232" lon="-5.028944006189704">
        <ele>1134.01</ele>
        <time>2025-04-29T10:03:50Z</time>
      </trkpt>
      <trkpt lat="43.01695897243917" lon="-5.029401993378997">
        <ele>1135.45</ele>
        <time>2025-04-29T10:03:52Z</time>
      </trkpt>
      <trkpt lat="43.017011024057865" lon="-5.029632998630405">
        <ele>1135.9400000000001</ele>
        <time>2025-04-29T10:03:53Z</time>
      </trkpt>
      <trkpt lat="43.017011024057865" lon="-5.02985998056829">
        <ele>1136.4200000000001</ele>
        <time>2025-04-29T10:03:54Z</time>
      </trkpt>
      <trkpt lat="43.01698001101613" lon="-5.030072964727879">
        <ele>1136.4200000000001</ele>
        <time>2025-04-29T10:03:55Z</time>
      </trkpt>
      <trkpt lat="43.016911027953029" lon="-5.030254013836384">
        <ele>1136.9000000000001</ele>
        <time>2025-04-29T10:03:56Z</time>
      </trkpt>
      <trkpt lat="43.016816982999444" lon="-5.030415030196309">
        <ele>1136.9000000000001</ele>
        <time>2025-04-29T10:03:57Z</time>
      </trkpt>
      <trkpt lat="43.016714975237846" lon="-5.030570011585951">
        <ele>1137.3800000000001</ele>
        <time>2025-04-29T10:03:58Z</time>
      </trkpt>
      <trkpt lat="43.016577009111643" lon="-5.030671013519168">
        <ele>1137.3800000000001</ele>
        <time>2025-04-29T10:03:59Z</time>
      </trkpt>
      <trkpt lat="43.016434013843536" lon="-5.030775032937527">
        <ele>1137.3800000000001</ele>
        <time>2025-04-29T10:04:00Z</time>
      </trkpt>
      <trkpt lat="43.016282971948385" lon="-5.030885003507137">
        <ele>1137.3800000000001</ele>
        <time>2025-04-29T10:04:01Z</time>
      </trkpt>
      <trkpt lat="43.016124973073602" lon="-5.03099899739027">
        <ele>1137.8599999999999</ele>
        <time>2025-04-29T10:04:02Z</time>
      </trkpt>
      <trkpt lat="43.015984995290637" lon="-5.031146015971899">
        <ele>1137.8599999999999</ele>
        <time>2025-04-29T10:04:03Z</time>
      </trkpt>
      <trkpt lat="43.01588399335742" lon="-5.031346008181572">
        <ele>1137.8599999999999</ele>
        <time>2025-04-29T10:04:04Z</time>
      </trkpt>
      <trkpt lat="43.015821967273951" lon="-5.031576007604599">
        <ele>1137.8599999999999</ele>
        <time>2025-04-29T10:04:05Z</time>
      </trkpt>
      <trkpt lat="43.015791960060596" lon="-5.031823022291064">
        <ele>1137.8599999999999</ele>
        <time>2025-04-29T10:04:06Z</time>
      </trkpt>
      <trkpt lat="43.015819033607841" lon="-5.032076993957162">
        <ele>1137.8599999999999</ele>
        <time>2025-04-29T10:04:07Z</time>
      </trkpt>
      <trkpt lat="43.015876030549407" lon="-5.032314034178853">
        <ele>1137.8599999999999</ele>
        <time>2025-04-29T10:04:08Z</time>
      </trkpt>
      <trkpt lat="43.015962028875947" lon="-5.032530035823584">
        <ele>1137.8599999999999</ele>
        <time>2025-04-29T10:04:09Z</time>
      </trkpt>
      <trkpt lat="43.016087003052235" lon="-5.032719969749451">
        <ele>1137.8599999999999</ele>
        <time>2025-04-29T10:04:10Z</time>
      </trkpt>
      <trkpt lat="43.016260005533695" lon="-5.032861959189177">
        <ele>1137.8599999999999</ele>
        <time>2025-04-29T10:04:11Z</time>
      </trkpt>
      <trkpt lat="43.016452034935355" lon="-5.032986011356115">
        <ele>1137.8599999999999</ele>
        <time>2025-04-29T10:04:12Z</time>
      </trkpt>
      <trkpt lat="43.016654960811138" lon="-5.033107968047261">
        <ele>1137.3800000000001</ele>
        <time>2025-04-29T10:04:13Z</time>
      </trkpt>
      <trkpt lat="43.017913000658154" lon="-5.034068031236529">
        <ele>1135.9400000000001</ele>
        <time>2025-04-29T10:04:19Z</time>
      </trkpt>
      <trkpt lat="43.01914899609983" lon="-5.035375021398068">
        <ele>1131.6099999999999</ele>
        <time>2025-04-29T10:04:26Z</time>
      </trkpt>
      <trkpt lat="43.020368982106447" lon="-5.035974998027086">
        <ele>1126.8</ele>
        <time>2025-04-29T10:04:32Z</time>
      </trkpt>
      <trkpt lat="43.02170698530972" lon="-5.035916995257139">
        <ele>1121.52</ele>
        <time>2025-04-29T10:04:38Z</time>
      </trkpt>
      <trkpt lat="43.021915024146438" lon="-5.035900985822082">
        <ele>1120.55</ele>
        <time>2025-04-29T10:04:39Z</time>
      </trkpt>
      <trkpt lat="43.022096995264292" lon="-5.035900985822082">
        <ele>1119.5899999999999</ele>
        <time>2025-04-29T10:04:40Z</time>
      </trkpt>
      <trkpt lat="43.022281983867288" lon="-5.036000981926918">
        <ele>1118.6300000000001</ele>
        <time>2025-04-29T10:04:41Z</time>
      </trkpt>
      <trkpt lat="43.022420033812523" lon="-5.036118999123573">
        <ele>1117.6700000000001</ele>
        <time>2025-04-29T10:04:42Z</time>
      </trkpt>
      <trkpt lat="43.022535033524036" lon="-5.036298036575317">
        <ele>1116.71</ele>
        <time>2025-04-29T10:04:43Z</time>
      </trkpt>
      <trkpt lat="43.022631006315351" lon="-5.03647799603641">
        <ele>1116.23</ele>
        <time>2025-04-29T10:04:44Z</time>
      </trkpt>
      <trkpt lat="43.022696971893311" lon="-5.036695003509522">
        <ele>1115.75</ele>
        <time>2025-04-29T10:04:45Z</time>
      </trkpt>
      <trkpt lat="43.022686997428536" lon="-5.036920979619026">
        <ele>1115.27</ele>
        <time>2025-04-29T10:04:46Z</time>
      </trkpt>
      <trkpt lat="43.022676017135382" lon="-5.037166988477111">
        <ele>1115.27</ele>
        <time>2025-04-29T10:04:47Z</time>
      </trkpt>
      <trkpt lat="43.022602004930377" lon="-5.037365974858403">
        <ele>1114.79</ele>
        <time>2025-04-29T10:04:48Z</time>
      </trkpt>
      <trkpt lat="43.022522963583469" lon="-5.037579964846373">
        <ele>1115.27</ele>
        <time>2025-04-29T10:04:49Z</time>
      </trkpt>
      <trkpt lat="43.022439982742071" lon="-5.037804013118148">
        <ele>1115.75</ele>
        <time>2025-04-29T10:04:50Z</time>
      </trkpt>
      <trkpt lat="43.022373011335731" lon="-5.038047004491091">
        <ele>1116.71</ele>
        <time>2025-04-29T10:04:51Z</time>
      </trkpt>
      <trkpt lat="43.022322971373796" lon="-5.038311034440994">
        <ele>1117.1900000000001</ele>
        <time>2025-04-29T10:04:52Z</time>
      </trkpt>
      <trkpt lat="43.022086014971137" lon="-5.039617018774152">
        <ele>1122.48</ele>
        <time>2025-04-29T10:04:57Z</time>
      </trkpt>
      <trkpt lat="43.02200797945261" lon="-5.039822962135077">
        <ele>1123.4400000000001</ele>
        <time>2025-04-29T10:04:58Z</time>
      </trkpt>
      <trkpt lat="43.021911000832915" lon="-5.040029995143414">
        <ele>1124.8800000000001</ele>
        <time>2025-04-29T10:04:59Z</time>
      </trkpt>
      <trkpt lat="43.021716037765145" lon="-5.040445988997817">
        <ele>1126.8</ele>
        <time>2025-04-29T10:05:01Z</time>
      </trkpt>
      <trkpt lat="43.021624004468322" lon="-5.040650004521012">
        <ele>1127.28</ele>
        <time>2025-04-29T10:05:02Z</time>
      </trkpt>
      <trkpt lat="43.021587962284684" lon="-5.040880003944039">
        <ele>1127.76</ele>
        <time>2025-04-29T10:05:03Z</time>
      </trkpt>
      <trkpt lat="43.021610006690025" lon="-5.041116960346699">
        <ele>1128.24</ele>
        <time>2025-04-29T10:05:04Z</time>
      </trkpt>
      <trkpt lat="43.021673038601875" lon="-5.041338996961713">
        <ele>1128.24</ele>
        <time>2025-04-29T10:05:05Z</time>
      </trkpt>
      <trkpt lat="43.021761970594525" lon="-5.041557010263205">
        <ele>1128.73</ele>
        <time>2025-04-29T10:05:06Z</time>
      </trkpt>
      <trkpt lat="43.021902032196522" lon="-5.0417419988662">
        <ele>1128.73</ele>
        <time>2025-04-29T10:05:07Z</time>
      </trkpt>
      <trkpt lat="43.022052990272641" lon="-5.041925981640816">
        <ele>1128.73</ele>
        <time>2025-04-29T10:05:08Z</time>
      </trkpt>
      <trkpt lat="43.022357001900673" lon="-5.042295958846808">
        <ele>1128.73</ele>
        <time>2025-04-29T10:05:10Z</time>
      </trkpt>
      <trkpt lat="43.02250100299716" lon="-5.042509026825428">
        <ele>1128.24</ele>
        <time>2025-04-29T10:05:11Z</time>
      </trkpt>
      <trkpt lat="43.022616002708673" lon="-5.042755035683513">
        <ele>1128.24</ele>
        <time>2025-04-29T10:05:12Z</time>
      </trkpt>
      <trkpt lat="43.022850025445223" lon="-5.043256022036076">
        <ele>1126.8</ele>
        <time>2025-04-29T10:05:14Z</time>
      </trkpt>
      <trkpt lat="43.022986985743046" lon="-5.043457020074129">
        <ele>1126.3199999999999</ele>
        <time>2025-04-29T10:05:15Z</time>
      </trkpt>
      <trkpt lat="43.023164011538029" lon="-5.043616024777293">
        <ele>1125.3599999999999</ele>
        <time>2025-04-29T10:05:16Z</time>
      </trkpt>
      <trkpt lat="43.023344976827502" lon="-5.043777963146567">
        <ele>1124.4000000000001</ele>
        <time>2025-04-29T10:05:17Z</time>
      </trkpt>
      <trkpt lat="43.023530971258879" lon="-5.043945014476776">
        <ele>1123.4400000000001</ele>
        <time>2025-04-29T10:05:18Z</time>
      </trkpt>
      <trkpt lat="43.023695005103946" lon="-5.044162021949887">
        <ele>1122.48</ele>
        <time>2025-04-29T10:05:19Z</time>
      </trkpt>
      <trkpt lat="43.023844035342336" lon="-5.044410964474082">
        <ele>1121.03</ele>
        <time>2025-04-29T10:05:20Z</time>
      </trkpt>
      <trkpt lat="43.023960962891579" lon="-5.044681029394269">
        <ele>1120.55</ele>
        <time>2025-04-29T10:05:21Z</time>
      </trkpt>
      <trkpt lat="43.024064982309937" lon="-5.044951010495424">
        <ele>1119.1099999999999</ele>
        <time>2025-04-29T10:05:22Z</time>
      </trkpt>
      <trkpt lat="43.024275032803416" lon="-5.045450991019607">
        <ele>1117.6700000000001</ele>
        <time>2025-04-29T10:05:24Z</time>
      </trkpt>
      <trkpt lat="43.024395983666182" lon="-5.045657018199563">
        <ele>1116.23</ele>
        <time>2025-04-29T10:05:25Z</time>
      </trkpt>
      <trkpt lat="43.025113977491856" lon="-5.046593025326729">
        <ele>1111.9000000000001</ele>
        <time>2025-04-29T10:05:31Z</time>
      </trkpt>
      <trkpt lat="43.025200981646776" lon="-5.046725962311029">
        <ele>1111.4200000000001</ele>
        <time>2025-04-29T10:05:32Z</time>
      </trkpt>
      <trkpt lat="43.025511028245091" lon="-5.047962963581085">
        <ele>1111.9000000000001</ele>
        <time>2025-04-29T10:05:40Z</time>
      </trkpt>
      <trkpt lat="43.025529971346259" lon="-5.048152981325984">
        <ele>1111.9000000000001</ele>
        <time>2025-04-29T10:05:41Z</time>
      </trkpt>
      <trkpt lat="43.025501975789666" lon="-5.050119962543249">
        <ele>1114.79</ele>
        <time>2025-04-29T10:05:53Z</time>
      </trkpt>
      <trkpt lat="43.025588979944587" lon="-5.051642032340169">
        <ele>1115.27</ele>
        <time>2025-04-29T10:06:00Z</time>
      </trkpt>
      <trkpt lat="43.025529971346259" lon="-5.052508972585201">
        <ele>1115.27</ele>
        <time>2025-04-29T10:06:04Z</time>
      </trkpt>
      <trkpt lat="43.025366021320224" lon="-5.053934985771775">
        <ele>1113.3399999999999</ele>
        <time>2025-04-29T10:06:11Z</time>
      </trkpt>
      <trkpt lat="43.025381024926901" lon="-5.054142018780112">
        <ele>1112.8599999999999</ele>
        <time>2025-04-29T10:06:12Z</time>
      </trkpt>
      <trkpt lat="43.025397034361959" lon="-5.054345028474927">
        <ele>1112.3800000000001</ele>
        <time>2025-04-29T10:06:13Z</time>
      </trkpt>
      <trkpt lat="43.025812022387981" lon="-5.056269010528922">
        <ele>1109.98</ele>
        <time>2025-04-29T10:06:23Z</time>
      </trkpt>
      <trkpt lat="43.025891985744238" lon="-5.056462967768312">
        <ele>1109.5</ele>
        <time>2025-04-29T10:06:24Z</time>
      </trkpt>
      <trkpt lat="43.026290964335203" lon="-5.057309037074447">
        <ele>1108.54</ele>
        <time>2025-04-29T10:06:28Z</time>
      </trkpt>
      <trkpt lat="43.026366988196969" lon="-5.057564014568925">
        <ele>1108.0599999999999</ele>
        <time>2025-04-29T10:06:29Z</time>
      </trkpt>
      <trkpt lat="43.026409987360239" lon="-5.057842964306474">
        <ele>1107.5799999999999</ele>
        <time>2025-04-29T10:06:30Z</time>
      </trkpt>
      <trkpt lat="43.026427002623677" lon="-5.058135995641351">
        <ele>1107.5799999999999</ele>
        <time>2025-04-29T10:06:31Z</time>
      </trkpt>
      <trkpt lat="43.026411999017" lon="-5.058436989784241">
        <ele>1107.0999999999999</ele>
        <time>2025-04-29T10:06:32Z</time>
      </trkpt>
      <trkpt lat="43.026409987360239" lon="-5.059017017483711">
        <ele>1106.1300000000001</ele>
        <time>2025-04-29T10:06:34Z</time>
      </trkpt>
      <trkpt lat="43.026437982916832" lon="-5.059253973886371">
        <ele>1106.1300000000001</ele>
        <time>2025-04-29T10:06:35Z</time>
      </trkpt>
      <trkpt lat="43.026505038142204" lon="-5.059476010501385">
        <ele>1105.1700000000001</ele>
        <time>2025-04-29T10:06:36Z</time>
      </trkpt>
      <trkpt lat="43.026628000661731" lon="-5.059916982427239">
        <ele>1104.21</ele>
        <time>2025-04-29T10:06:38Z</time>
      </trkpt>
      <trkpt lat="43.026641998440027" lon="-5.060155028477311">
        <ele>1103.73</ele>
        <time>2025-04-29T10:06:39Z</time>
      </trkpt>
      <trkpt lat="43.026610985398293" lon="-5.060406988486648">
        <ele>1103.73</ele>
        <time>2025-04-29T10:06:40Z</time>
      </trkpt>
      <trkpt lat="43.02647402510047" lon="-5.061499988660216">
        <ele>1101.8099999999999</ele>
        <time>2025-04-29T10:06:44Z</time>
      </trkpt>
      <trkpt lat="43.026493974030018" lon="-5.061777010560036">
        <ele>1101.8099999999999</ele>
        <time>2025-04-29T10:06:45Z</time>
      </trkpt>
      <trkpt lat="43.026514006778598" lon="-5.06206601858139">
        <ele>1101.3299999999999</ele>
        <time>2025-04-29T10:06:46Z</time>
      </trkpt>
      <trkpt lat="43.026581984013319" lon="-5.062352009117603">
        <ele>1101.3299999999999</ele>
        <time>2025-04-29T10:06:47Z</time>
      </trkpt>
      <trkpt lat="43.026654990389943" lon="-5.062636993825436">
        <ele>1100.8499999999999</ele>
        <time>2025-04-29T10:06:48Z</time>
      </trkpt>
      <trkpt lat="43.02675498649478" lon="-5.062909992411733">
        <ele>1100.8499999999999</ele>
        <time>2025-04-29T10:06:49Z</time>
      </trkpt>
      <trkpt lat="43.026877027004957" lon="-5.063177039846778">
        <ele>1101.3299999999999</ele>
        <time>2025-04-29T10:06:50Z</time>
      </trkpt>
      <trkpt lat="43.026995966210961" lon="-5.063437968492508">
        <ele>1101.3299999999999</ele>
        <time>2025-04-29T10:06:51Z</time>
      </trkpt>
      <trkpt lat="43.027359992265701" lon="-5.064102988690138">
        <ele>1100.8499999999999</ele>
        <time>2025-04-29T10:06:54Z</time>
      </trkpt>
      <trkpt lat="43.027516985312104" lon="-5.064259981736541">
        <ele>1100.8499999999999</ele>
        <time>2025-04-29T10:06:55Z</time>
      </trkpt>
      <trkpt lat="43.027671966701746" lon="-5.064414963126183">
        <ele>1100.8499999999999</ele>
        <time>2025-04-29T10:06:56Z</time>
      </trkpt>
      <trkpt lat="43.027826026082039" lon="-5.064569022506475">
        <ele>1100.8499999999999</ele>
        <time>2025-04-29T10:06:57Z</time>
      </trkpt>
      <trkpt lat="43.027941025793552" lon="-5.064787035807967">
        <ele>1101.3299999999999</ele>
        <time>2025-04-29T10:06:58Z</time>
      </trkpt>
      <trkpt lat="43.028039010241628" lon="-5.065013011917472">
        <ele>1101.3299999999999</ele>
        <time>2025-04-29T10:06:59Z</time>
      </trkpt>
      <trkpt lat="43.028101958334446" lon="-5.065263966098428">
        <ele>1101.8099999999999</ele>
        <time>2025-04-29T10:07:00Z</time>
      </trkpt>
      <trkpt lat="43.028167001903057" lon="-5.06552497856319">
        <ele>1101.8099999999999</ele>
        <time>2025-04-29T10:07:01Z</time>
      </trkpt>
      <trkpt lat="43.028490962460637" lon="-5.067903008311987">
        <ele>1104.21</ele>
        <time>2025-04-29T10:07:09Z</time>
      </trkpt>
      <trkpt lat="43.028514012694359" lon="-5.068841027095914">
        <ele>1106.1300000000001</ele>
        <time>2025-04-29T10:07:12Z</time>
      </trkpt>
      <trkpt lat="43.028565980494022" lon="-5.06973504088819">
        <ele>1109.5</ele>
        <time>2025-04-29T10:07:15Z</time>
      </trkpt>
      <trkpt lat="43.028545025736094" lon="-5.070039974525571">
        <ele>1110.9400000000001</ele>
        <time>2025-04-29T10:07:16Z</time>
      </trkpt>
      <trkpt lat="43.028506971895695" lon="-5.070610027760267">
        <ele>1113.3399999999999</ele>
        <time>2025-04-29T10:07:18Z</time>
      </trkpt>
      <trkpt lat="43.028496997430921" lon="-5.070885038003326">
        <ele>1114.79</ele>
        <time>2025-04-29T10:07:19Z</time>
      </trkpt>
      <trkpt lat="43.028550976887345" lon="-5.071136998012662">
        <ele>1115.75</ele>
        <time>2025-04-29T10:07:20Z</time>
      </trkpt>
      <trkpt lat="43.028640998527408" lon="-5.07136900909245">
        <ele>1116.71</ele>
        <time>2025-04-29T10:07:21Z</time>
      </trkpt>
      <trkpt lat="43.028743006289005" lon="-5.071593979373574">
        <ele>1118.1500000000001</ele>
        <time>2025-04-29T10:07:22Z</time>
      </trkpt>
      <trkpt lat="43.029611958190799" lon="-5.073312018066645">
        <ele>1124.8800000000001</ele>
        <time>2025-04-29T10:07:30Z</time>
      </trkpt>
      <trkpt lat="43.029714971780777" lon="-5.073487032204866">
        <ele>1125.3599999999999</ele>
        <time>2025-04-29T10:07:31Z</time>
      </trkpt>
      <trkpt lat="43.029831983149052" lon="-5.073632039129734">
        <ele>1125.3599999999999</ele>
        <time>2025-04-29T10:07:32Z</time>
      </trkpt>
      <trkpt lat="43.029969027265906" lon="-5.073742009699345">
        <ele>1125.8399999999999</ele>
        <time>2025-04-29T10:07:33Z</time>
      </trkpt>
      <trkpt lat="43.030118979513645" lon="-5.073843011632562">
        <ele>1126.3199999999999</ele>
        <time>2025-04-29T10:07:34Z</time>
      </trkpt>
      <trkpt lat="43.030281001701951" lon="-5.073937978595495">
        <ele>1126.3199999999999</ele>
        <time>2025-04-29T10:07:35Z</time>
      </trkpt>
      <trkpt lat="43.031516997143626" lon="-5.074897035956383">
        <ele>1125.3599999999999</ele>
        <time>2025-04-29T10:07:42Z</time>
      </trkpt>
      <trkpt lat="43.031666027382016" lon="-5.075133992359042">
        <ele>1124.8800000000001</ele>
        <time>2025-04-29T10:07:43Z</time>
      </trkpt>
      <trkpt lat="43.032439006492496" lon="-5.076255993917584">
        <ele>1126.3199999999999</ele>
        <time>2025-04-29T10:07:48Z</time>
      </trkpt>
      <trkpt lat="43.032794985920191" lon="-5.076577020809054">
        <ele>1127.76</ele>
        <time>2025-04-29T10:07:50Z</time>
      </trkpt>
      <trkpt lat="43.032938987016678" lon="-5.076786987483501">
        <ele>1128.24</ele>
        <time>2025-04-29T10:07:51Z</time>
      </trkpt>
      <trkpt lat="43.03412402048707" lon="-5.078183999285102">
        <ele>1130.6500000000001</ele>
        <time>2025-04-29T10:07:58Z</time>
      </trkpt>
      <trkpt lat="43.036484029144049" lon="-5.080420039594173">
        <ele>1134.97</ele>
        <time>2025-04-29T10:08:10Z</time>
      </trkpt>
      <trkpt lat="43.0377989821136" lon="-5.082015031948686">
        <ele>1139.3</ele>
        <time>2025-04-29T10:08:18Z</time>
      </trkpt>
      <trkpt lat="43.037895960733294" lon="-5.082275038585067">
        <ele>1139.78</ele>
        <time>2025-04-29T10:08:19Z</time>
      </trkpt>
      <trkpt lat="43.03799201734364" lon="-5.082550970837474">
        <ele>1140.26</ele>
        <time>2025-04-29T10:08:20Z</time>
      </trkpt>
      <trkpt lat="43.038756027817726" lon="-5.085631990805268">
        <ele>1140.74</ele>
        <time>2025-04-29T10:08:30Z</time>
      </trkpt>
      <trkpt lat="43.039519032463431" lon="-5.088660037145019">
        <ele>1140.74</ele>
        <time>2025-04-29T10:08:41Z</time>
      </trkpt>
      <trkpt lat="43.039755988866091" lon="-5.089615993201733">
        <ele>1142.6600000000001</ele>
        <time>2025-04-29T10:08:47Z</time>
      </trkpt>
      <trkpt lat="43.039999986067414" lon="-5.090629030019045">
        <ele>1145.0699999999999</ele>
        <time>2025-04-29T10:08:55Z</time>
      </trkpt>
      <trkpt lat="43.040272984653711" lon="-5.09173896163702">
        <ele>1145.55</ele>
        <time>2025-04-29T10:09:03Z</time>
      </trkpt>
      <trkpt lat="43.040255969390273" lon="-5.092756021767855">
        <ele>1145.55</ele>
        <time>2025-04-29T10:09:10Z</time>
      </trkpt>
      <trkpt lat="43.040231997147202" lon="-5.092909997329116">
        <ele>1145.0699999999999</ele>
        <time>2025-04-29T10:09:11Z</time>
      </trkpt>
      <trkpt lat="43.04018497467041" lon="-5.093215014785528">
        <ele>1145.0699999999999</ele>
        <time>2025-04-29T10:09:13Z</time>
      </trkpt>
      <trkpt lat="43.040145998820662" lon="-5.09384298697114">
        <ele>1145.0699999999999</ele>
        <time>2025-04-29T10:09:17Z</time>
      </trkpt>
      <trkpt lat="43.039981964975595" lon="-5.094777988269925">
        <ele>1147.95</ele>
        <time>2025-04-29T10:09:23Z</time>
      </trkpt>
      <trkpt lat="43.039920022711158" lon="-5.094911009073257">
        <ele>1148.4300000000001</ele>
        <time>2025-04-29T10:09:24Z</time>
      </trkpt>
      <trkpt lat="43.039838969707489" lon="-5.095032965764403">
        <ele>1148.4300000000001</ele>
        <time>2025-04-29T10:09:25Z</time>
      </trkpt>
      <trkpt lat="43.039740985259414" lon="-5.095103038474917">
        <ele>1148.9100000000001</ele>
        <time>2025-04-29T10:09:26Z</time>
      </trkpt>
      <trkpt lat="43.039636965841055" lon="-5.095159029588103">
        <ele>1149.3900000000001</ele>
        <time>2025-04-29T10:09:27Z</time>
      </trkpt>
      <trkpt lat="43.03953898139298" lon="-5.095210997387767">
        <ele>1149.8699999999999</ele>
        <time>2025-04-29T10:09:28Z</time>
      </trkpt>
      <trkpt lat="43.038746975362301" lon="-5.095572005957365">
        <ele>1152.28</ele>
        <time>2025-04-29T10:09:35Z</time>
      </trkpt>
      <trkpt lat="43.038630969822407" lon="-5.095677031204104">
        <ele>1152.28</ele>
        <time>2025-04-29T10:09:36Z</time>
      </trkpt>
      <trkpt lat="43.038524016737938" lon="-5.095808962360025">
        <ele>1152.28</ele>
        <time>2025-04-29T10:09:37Z</time>
      </trkpt>
      <trkpt lat="43.038438018411398" lon="-5.095980037003756">
        <ele>1152.28</ele>
        <time>2025-04-29T10:09:38Z</time>
      </trkpt>
      <trkpt lat="43.038370041176677" lon="-5.096175000071526">
        <ele>1152.28</ele>
        <time>2025-04-29T10:09:39Z</time>
      </trkpt>
      <trkpt lat="43.038318995386362" lon="-5.096392007544637">
        <ele>1151.8</ele>
        <time>2025-04-29T10:09:40Z</time>
      </trkpt>
      <trkpt lat="43.038318995386362" lon="-5.096629969775677">
        <ele>1151.8</ele>
        <time>2025-04-29T10:09:41Z</time>
      </trkpt>
      <trkpt lat="43.038349002599716" lon="-5.096869021654129">
        <ele>1151.8</ele>
        <time>2025-04-29T10:09:42Z</time>
      </trkpt>
      <trkpt lat="43.038384960964322" lon="-5.097122993320227">
        <ele>1151.3199999999999</ele>
        <time>2025-04-29T10:09:43Z</time>
      </trkpt>
      <trkpt lat="43.03842200897634" lon="-5.097390962764621">
        <ele>1151.3199999999999</ele>
        <time>2025-04-29T10:09:44Z</time>
      </trkpt>
      <trkpt lat="43.038993990048766" lon="-5.100079961121082">
        <ele>1145.0699999999999</ele>
        <time>2025-04-29T10:09:53Z</time>
      </trkpt>
      <trkpt lat="43.0391959939152" lon="-5.101202968508005">
        <ele>1142.6600000000001</ele>
        <time>2025-04-29T10:09:57Z</time>
      </trkpt>
      <trkpt lat="43.03917596116662" lon="-5.101485019549727">
        <ele>1142.6600000000001</ele>
        <time>2025-04-29T10:09:58Z</time>
      </trkpt>
      <trkpt lat="43.039156012237072" lon="-5.101776039227843">
        <ele>1142.1800000000001</ele>
        <time>2025-04-29T10:09:59Z</time>
      </trkpt>
      <trkpt lat="43.039012011140585" lon="-5.103442026302218">
        <ele>1143.1400000000001</ele>
        <time>2025-04-29T10:10:05Z</time>
      </trkpt>
      <trkpt lat="43.039017962291837" lon="-5.103722987696528">
        <ele>1143.1400000000001</ele>
        <time>2025-04-29T10:10:06Z</time>
      </trkpt>
      <trkpt lat="43.039079988375306" lon="-5.103995986282826">
        <ele>1143.1400000000001</ele>
        <time>2025-04-29T10:10:07Z</time>
      </trkpt>
      <trkpt lat="43.039363967254758" lon="-5.105112036690116">
        <ele>1143.1400000000001</ele>
        <time>2025-04-29T10:10:11Z</time>
      </trkpt>
      <trkpt lat="43.039478966966271" lon="-5.105342036113143">
        <ele>1143.1400000000001</ele>
        <time>2025-04-29T10:10:12Z</time>
      </trkpt>
      <trkpt lat="43.039622968062758" lon="-5.105538005009294">
        <ele>1143.1400000000001</ele>
        <time>2025-04-29T10:10:13Z</time>
      </trkpt>
      <trkpt lat="43.040509019047022" lon="-5.106790009886026">
        <ele>1143.6300000000001</ele>
        <time>2025-04-29T10:10:19Z</time>
      </trkpt>
      <trkpt lat="43.040589988231659" lon="-5.107042975723743">
        <ele>1143.6300000000001</ele>
        <time>2025-04-29T10:10:20Z</time>
      </trkpt>
      <trkpt lat="43.040641034021974" lon="-5.10731203481555">
        <ele>1144.1099999999999</ele>
        <time>2025-04-29T10:10:21Z</time>
      </trkpt>
      <trkpt lat="43.040661988779902" lon="-5.107596013695002">
        <ele>1144.1099999999999</ele>
        <time>2025-04-29T10:10:22Z</time>
      </trkpt>
      <trkpt lat="43.040685039013624" lon="-5.107889967039228">
        <ele>1144.5899999999999</ele>
        <time>2025-04-29T10:10:23Z</time>
      </trkpt>
      <trkpt lat="43.040815964341164" lon="-5.108705023303628">
        <ele>1144.1099999999999</ele>
        <time>2025-04-29T10:10:26Z</time>
      </trkpt>
      <trkpt lat="43.040927024558187" lon="-5.108877019956708">
        <ele>1143.6300000000001</ele>
        <time>2025-04-29T10:10:27Z</time>
      </trkpt>
      <trkpt lat="43.041045041754842" lon="-5.109030995517969">
        <ele>1143.6300000000001</ele>
        <time>2025-04-29T10:10:28Z</time>
      </trkpt>
      <trkpt lat="43.041304964572191" lon="-5.109369959682226">
        <ele>1142.6600000000001</ele>
        <time>2025-04-29T10:10:30Z</time>
      </trkpt>
      <trkpt lat="43.042187998071313" lon="-5.110637973994017">
        <ele>1142.6600000000001</ele>
        <time>2025-04-29T10:10:36Z</time>
      </trkpt>
      <trkpt lat="43.042357983067632" lon="-5.11079203337431">
        <ele>1142.6600000000001</ele>
        <time>2025-04-29T10:10:37Z</time>
      </trkpt>
      <trkpt lat="43.042508019134402" lon="-5.110927987843752">
        <ele>1142.6600000000001</ele>
        <time>2025-04-29T10:10:38Z</time>
      </trkpt>
      <trkpt lat="43.04261103272438" lon="-5.111109036952257">
        <ele>1142.6600000000001</ele>
        <time>2025-04-29T10:10:39Z</time>
      </trkpt>
      <trkpt lat="43.042681021615863" lon="-5.111315986141563">
        <ele>1142.6600000000001</ele>
        <time>2025-04-29T10:10:40Z</time>
      </trkpt>
      <trkpt lat="43.042759979143739" lon="-5.11154699139297">
        <ele>1142.6600000000001</ele>
        <time>2025-04-29T10:10:41Z</time>
      </trkpt>
      <trkpt lat="43.043254008516669" lon="-5.113149024546146">
        <ele>1142.1800000000001</ele>
        <time>2025-04-29T10:10:47Z</time>
      </trkpt>
      <trkpt lat="43.043786007910967" lon="-5.114850969985127">
        <ele>1143.6300000000001</ele>
        <time>2025-04-29T10:10:55Z</time>
      </trkpt>
      <trkpt lat="43.044422026723623" lon="-5.117466961964965">
        <ele>1147.47</ele>
        <time>2025-04-29T10:11:07Z</time>
      </trkpt>
      <trkpt lat="43.044387996196747" lon="-5.120069961994886">
        <ele>1154.2</ele>
        <time>2025-04-29T10:11:18Z</time>
      </trkpt>
      <trkpt lat="43.044395036995411" lon="-5.122284963726997">
        <ele>1157.5599999999999</ele>
        <time>2025-04-29T10:11:27Z</time>
      </trkpt>
      <trkpt lat="43.044419009238482" lon="-5.122548993676901">
        <ele>1157.5599999999999</ele>
        <time>2025-04-29T10:11:28Z</time>
      </trkpt>
      <trkpt lat="43.044492015615106" lon="-5.122802965342999">
        <ele>1157.5599999999999</ele>
        <time>2025-04-29T10:11:29Z</time>
      </trkpt>
      <trkpt lat="43.044847995042801" lon="-5.123895965516567">
        <ele>1155.6400000000001</ele>
        <time>2025-04-29T10:11:33Z</time>
      </trkpt>
      <trkpt lat="43.044985039159656" lon="-5.124147003516555">
        <ele>1155.6400000000001</ele>
        <time>2025-04-29T10:11:34Z</time>
      </trkpt>
      <trkpt lat="43.045119987800717" lon="-5.124395024031401">
        <ele>1155.1600000000001</ele>
        <time>2025-04-29T10:11:35Z</time>
      </trkpt>
      <trkpt lat="43.045694986358285" lon="-5.12536296620965">
        <ele>1153.72</ele>
        <time>2025-04-29T10:11:40Z</time>
      </trkpt>
      <trkpt lat="43.046728977933526" lon="-5.126942032948136">
        <ele>1154.6800000000001</ele>
        <time>2025-04-29T10:11:48Z</time>
      </trkpt>
      <trkpt lat="43.047711001709104" lon="-5.128319012001157">
        <ele>1158.05</ele>
        <time>2025-04-29T10:11:55Z</time>
      </trkpt>
      <trkpt lat="43.047886015847325" lon="-5.12845597229898">
        <ele>1158.53</ele>
        <time>2025-04-29T10:11:56Z</time>
      </trkpt>
      <trkpt lat="43.048077961429954" lon="-5.128568038344383">
        <ele>1158.53</ele>
        <time>2025-04-29T10:11:57Z</time>
      </trkpt>
      <trkpt lat="43.049267018213868" lon="-5.129157034680247">
        <ele>1159.01</ele>
        <time>2025-04-29T10:12:04Z</time>
      </trkpt>
      <trkpt lat="43.051230981945992" lon="-5.13006697408855">
        <ele>1161.4100000000001</ele>
        <time>2025-04-29T10:12:15Z</time>
      </trkpt>
      <trkpt lat="43.053494011983275" lon="-5.130849005654454">
        <ele>1168.1400000000001</ele>
        <time>2025-04-29T10:12:26Z</time>
      </trkpt>
      <trkpt lat="43.054845007136464" lon="-5.131868999451399">
        <ele>1171.02</ele>
        <time>2025-04-29T10:12:33Z</time>
      </trkpt>
      <trkpt lat="43.055253038182855" lon="-5.132119031623006">
        <ele>1171.98</ele>
        <time>2025-04-29T10:12:35Z</time>
      </trkpt>
      <trkpt lat="43.055467028170824" lon="-5.132225984707475">
        <ele>1172.47</ele>
        <time>2025-04-29T10:12:36Z</time>
      </trkpt>
      <trkpt lat="43.057362008839846" lon="-5.13298898935318">
        <ele>1175.3499999999999</ele>
        <time>2025-04-29T10:12:45Z</time>
      </trkpt>
      <trkpt lat="43.057523025199771" lon="-5.133162997663021">
        <ele>1176.3099999999999</ele>
        <time>2025-04-29T10:12:46Z</time>
      </trkpt>
      <trkpt lat="43.057679012417793" lon="-5.133373970165849">
        <ele>1176.79</ele>
        <time>2025-04-29T10:12:47Z</time>
      </trkpt>
      <trkpt lat="43.058936968445778" lon="-5.135140037164092">
        <ele>1184.96</ele>
        <time>2025-04-29T10:12:55Z</time>
      </trkpt>
      <trkpt lat="43.059199992567301" lon="-5.135562987998128">
        <ele>1186.4000000000001</ele>
        <time>2025-04-29T10:12:57Z</time>
      </trkpt>
      <trkpt lat="43.05934801697731" lon="-5.135722998529673">
        <ele>1186.8800000000001</ele>
        <time>2025-04-29T10:12:58Z</time>
      </trkpt>
      <trkpt lat="43.059510039165616" lon="-5.135885020717979">
        <ele>1187.3699999999999</ele>
        <time>2025-04-29T10:12:59Z</time>
      </trkpt>
      <trkpt lat="43.059838023036718" lon="-5.136213004589081">
        <ele>1188.3299999999999</ele>
        <time>2025-04-29T10:13:01Z</time>
      </trkpt>
      <trkpt lat="43.060000967234373" lon="-5.13638399541378">
        <ele>1189.29</ele>
        <time>2025-04-29T10:13:02Z</time>
      </trkpt>
      <trkpt lat="43.060119990259409" lon="-5.136589016765356">
        <ele>1189.77</ele>
        <time>2025-04-29T10:13:03Z</time>
      </trkpt>
      <trkpt lat="43.0602309666574" lon="-5.136781968176365">
        <ele>1190.25</ele>
        <time>2025-04-29T10:13:04Z</time>
      </trkpt>
      <trkpt lat="43.06033699773252" lon="-5.136965028941631">
        <ele>1191.21</ele>
        <time>2025-04-29T10:13:05Z</time>
      </trkpt>
      <trkpt lat="43.060598010197282" lon="-5.137465009465814">
        <ele>1192.6500000000001</ele>
        <time>2025-04-29T10:13:08Z</time>
      </trkpt>
      <trkpt lat="43.060778975486755" lon="-5.137934982776642">
        <ele>1194.5799999999999</ele>
        <time>2025-04-29T10:13:11Z</time>
      </trkpt>
      <trkpt lat="43.060854999348521" lon="-5.1380580291152">
        <ele>1195.0599999999999</ele>
        <time>2025-04-29T10:13:12Z</time>
      </trkpt>
      <trkpt lat="43.060951977968216" lon="-5.138146039098501">
        <ele>1195.54</ele>
        <time>2025-04-29T10:13:13Z</time>
      </trkpt>
      <trkpt lat="43.061055997386575" lon="-5.138227008283138">
        <ele>1196.02</ele>
        <time>2025-04-29T10:13:14Z</time>
      </trkpt>
      <trkpt lat="43.061168985441327" lon="-5.13827302493155">
        <ele>1196.02</ele>
        <time>2025-04-29T10:13:15Z</time>
      </trkpt>
      <trkpt lat="43.061279961839318" lon="-5.13831602409482">
        <ele>1196.02</ele>
        <time>2025-04-29T10:13:16Z</time>
      </trkpt>
      <trkpt lat="43.061386998742819" lon="-5.138339996337891">
        <ele>1196.02</ele>
        <time>2025-04-29T10:13:17Z</time>
      </trkpt>
      <trkpt lat="43.061490012332797" lon="-5.138339996337891">
        <ele>1195.54</ele>
        <time>2025-04-29T10:13:18Z</time>
      </trkpt>
      <trkpt lat="43.061592020094395" lon="-5.138324992731214">
        <ele>1195.54</ele>
        <time>2025-04-29T10:13:19Z</time>
      </trkpt>
      <trkpt lat="43.061687992885709" lon="-5.138306971639395">
        <ele>1195.54</ele>
        <time>2025-04-29T10:13:20Z</time>
      </trkpt>
      <trkpt lat="43.061973983421922" lon="-5.13825299218297">
        <ele>1195.0599999999999</ele>
        <time>2025-04-29T10:13:23Z</time>
      </trkpt>
      <trkpt lat="43.063165973871946" lon="-5.137975970283151">
        <ele>1193.1300000000001</ele>
        <time>2025-04-29T10:13:35Z</time>
      </trkpt>
      <trkpt lat="43.063365966081619" lon="-5.137869017198682">
        <ele>1193.1300000000001</ele>
        <time>2025-04-29T10:13:37Z</time>
      </trkpt>
      <trkpt lat="43.063465040177107" lon="-5.13782199472189">
        <ele>1192.6500000000001</ele>
        <time>2025-04-29T10:13:38Z</time>
      </trkpt>
      <trkpt lat="43.063566964119673" lon="-5.137781007215381">
        <ele>1192.6500000000001</ele>
        <time>2025-04-29T10:13:39Z</time>
      </trkpt>
      <trkpt lat="43.064174987375736" lon="-5.137568023055792">
        <ele>1194.0899999999999</ele>
        <time>2025-04-29T10:13:46Z</time>
      </trkpt>
      <trkpt lat="43.064371040090919" lon="-5.13745897449553">
        <ele>1194.0899999999999</ele>
        <time>2025-04-29T10:13:48Z</time>
      </trkpt>
      <trkpt lat="43.064564997330308" lon="-5.137398960068822">
        <ele>1194.0899999999999</ele>
        <time>2025-04-29T10:13:50Z</time>
      </trkpt>
      <trkpt lat="43.064787033945322" lon="-5.137353027239442">
        <ele>1194.0899999999999</ele>
        <time>2025-04-29T10:13:52Z</time>
      </trkpt>
      <trkpt lat="43.064908990636468" lon="-5.137365013360977">
        <ele>1193.6099999999999</ele>
        <time>2025-04-29T10:13:53Z</time>
      </trkpt>
      <trkpt lat="43.065316015854478" lon="-5.137406000867486">
        <ele>1192.6500000000001</ele>
        <time>2025-04-29T10:13:56Z</time>
      </trkpt>
      <trkpt lat="43.065438978374004" lon="-5.137351015582681">
        <ele>1191.6900000000001</ele>
        <time>2025-04-29T10:13:57Z</time>
      </trkpt>
      <trkpt lat="43.065561018884182" lon="-5.137288989499211">
        <ele>1191.21</ele>
        <time>2025-04-29T10:13:58Z</time>
      </trkpt>
      <trkpt lat="43.065679036080837" lon="-5.137225035578013">
        <ele>1190.25</ele>
        <time>2025-04-29T10:13:59Z</time>
      </trkpt>
      <trkpt lat="43.065788000822067" lon="-5.137185975909233">
        <ele>1189.77</ele>
        <time>2025-04-29T10:14:00Z</time>
      </trkpt>
      <trkpt lat="43.065884979441762" lon="-5.137162003666163">
        <ele>1188.8099999999999</ele>
        <time>2025-04-29T10:14:01Z</time>
      </trkpt>
      <trkpt lat="43.065958991646767" lon="-5.137213971465826">
        <ele>1188.8099999999999</ele>
        <time>2025-04-29T10:14:02Z</time>
      </trkpt>
      <trkpt lat="43.066023029386997" lon="-5.137298963963985">
        <ele>1188.8099999999999</ele>
        <time>2025-04-29T10:14:03Z</time>
      </trkpt>
      <trkpt lat="43.066082037985325" lon="-5.13743500225246">
        <ele>1188.8099999999999</ele>
        <time>2025-04-29T10:14:04Z</time>
      </trkpt>
      <trkpt lat="43.066144986078143" lon="-5.137579003348947">
        <ele>1189.29</ele>
        <time>2025-04-29T10:14:05Z</time>
      </trkpt>
      <trkpt lat="43.066182034090161" lon="-5.137751000002027">
        <ele>1189.29</ele>
        <time>2025-04-29T10:14:06Z</time>
      </trkpt>
      <trkpt lat="43.066221009939909" lon="-5.137947974726558">
        <ele>1189.29</ele>
        <time>2025-04-29T10:14:07Z</time>
      </trkpt>
      <trkpt lat="43.06626602075994" lon="-5.138150984421372">
        <ele>1189.77</ele>
        <time>2025-04-29T10:14:08Z</time>
      </trkpt>
      <trkpt lat="43.066313965246081" lon="-5.138356005772948">
        <ele>1190.25</ele>
        <time>2025-04-29T10:14:09Z</time>
      </trkpt>
      <trkpt lat="43.06637397967279" lon="-5.138557003811002">
        <ele>1190.73</ele>
        <time>2025-04-29T10:14:10Z</time>
      </trkpt>
      <trkpt lat="43.066442962735891" lon="-5.138769987970591">
        <ele>1191.6900000000001</ele>
        <time>2025-04-29T10:14:11Z</time>
      </trkpt>
      <trkpt lat="43.066515969112515" lon="-5.138989007100463">
        <ele>1192.6500000000001</ele>
        <time>2025-04-29T10:14:12Z</time>
      </trkpt>
      <trkpt lat="43.067264975979924" lon="-5.140563966706395">
        <ele>1198.9000000000001</ele>
        <time>2025-04-29T10:14:19Z</time>
      </trkpt>
      <trkpt lat="43.067894959822297" lon="-5.141428979113698">
        <ele>1204.1900000000001</ele>
        <time>2025-04-29T10:14:24Z</time>
      </trkpt>
      <trkpt lat="43.068039966747165" lon="-5.141568034887314">
        <ele>1205.1500000000001</ele>
        <time>2025-04-29T10:14:25Z</time>
      </trkpt>
      <trkpt lat="43.068187991157174" lon="-5.141709018498659">
        <ele>1206.1099999999999</ele>
        <time>2025-04-29T10:14:26Z</time>
      </trkpt>
      <trkpt lat="43.068354958668351" lon="-5.141775989905">
        <ele>1206.5899999999999</ele>
        <time>2025-04-29T10:14:27Z</time>
      </trkpt>
      <trkpt lat="43.068529972806573" lon="-5.14184002764523">
        <ele>1207.0699999999999</ele>
        <time>2025-04-29T10:14:28Z</time>
      </trkpt>
      <trkpt lat="43.068710016086698" lon="-5.141859976574779">
        <ele>1207.0699999999999</ele>
        <time>2025-04-29T10:14:29Z</time>
      </trkpt>
      <trkpt lat="43.068893998861313" lon="-5.141880009323359">
        <ele>1207.55</ele>
        <time>2025-04-29T10:14:30Z</time>
      </trkpt>
      <trkpt lat="43.069476960226893" lon="-5.141944969072938">
        <ele>1207.0699999999999</ele>
        <time>2025-04-29T10:14:33Z</time>
      </trkpt>
      <trkpt lat="43.069655997678638" lon="-5.142029961571097">
        <ele>1207.0699999999999</ele>
        <time>2025-04-29T10:14:34Z</time>
      </trkpt>
      <trkpt lat="43.069836040958762" lon="-5.142115037888289">
        <ele>1207.55</ele>
        <time>2025-04-29T10:14:35Z</time>
      </trkpt>
      <trkpt lat="43.069960009306669" lon="-5.142259038984776">
        <ele>1207.55</ele>
        <time>2025-04-29T10:14:36Z</time>
      </trkpt>
      <trkpt lat="43.070065034553409" lon="-5.142382001504302">
        <ele>1207.55</ele>
        <time>2025-04-29T10:14:37Z</time>
      </trkpt>
      <trkpt lat="43.070108033716679" lon="-5.142565984278917">
        <ele>1207.55</ele>
        <time>2025-04-29T10:14:38Z</time>
      </trkpt>
      <trkpt lat="43.070149021223187" lon="-5.142778968438506">
        <ele>1207.55</ele>
        <time>2025-04-29T10:14:39Z</time>
      </trkpt>
      <trkpt lat="43.070149021223187" lon="-5.143010979518294">
        <ele>1207.55</ele>
        <time>2025-04-29T10:14:40Z</time>
      </trkpt>
      <trkpt lat="43.070129994302988" lon="-5.143265035003424">
        <ele>1207.55</ele>
        <time>2025-04-29T10:14:41Z</time>
      </trkpt>
      <trkpt lat="43.070036033168435" lon="-5.145841967314482">
        <ele>1211.8800000000001</ele>
        <time>2025-04-29T10:14:50Z</time>
      </trkpt>
      <trkpt lat="43.070051958784461" lon="-5.146401040256023">
        <ele>1213.3199999999999</ele>
        <time>2025-04-29T10:14:52Z</time>
      </trkpt>
      <trkpt lat="43.070119014009833" lon="-5.146660963073373">
        <ele>1213.8</ele>
        <time>2025-04-29T10:14:53Z</time>
      </trkpt>
      <trkpt lat="43.070211969316006" lon="-5.146907977759838">
        <ele>1214.76</ele>
        <time>2025-04-29T10:14:54Z</time>
      </trkpt>
      <trkpt lat="43.070837007835507" lon="-5.148401968181133">
        <ele>1218.6099999999999</ele>
        <time>2025-04-29T10:15:00Z</time>
      </trkpt>
      <trkpt lat="43.070986960083246" lon="-5.148579999804497">
        <ele>1219.5699999999999</ele>
        <time>2025-04-29T10:15:01Z</time>
      </trkpt>
      <trkpt lat="43.071154011413455" lon="-5.148732969537377">
        <ele>1220.05</ele>
        <time>2025-04-29T10:15:02Z</time>
      </trkpt>
      <trkpt lat="43.071333970874548" lon="-5.148879988119006">
        <ele>1221.01</ele>
        <time>2025-04-29T10:15:03Z</time>
      </trkpt>
      <trkpt lat="43.071514014154673" lon="-5.149029018357396">
        <ele>1221.97</ele>
        <time>2025-04-29T10:15:04Z</time>
      </trkpt>
      <trkpt lat="43.072295039892197" lon="-5.14981197193265">
        <ele>1226.3</ele>
        <time>2025-04-29T10:15:09Z</time>
      </trkpt>
      <trkpt lat="43.072395035997033" lon="-5.149997966364026">
        <ele>1226.78</ele>
        <time>2025-04-29T10:15:10Z</time>
      </trkpt>
      <trkpt lat="43.072462007403374" lon="-5.150209022685885">
        <ele>1227.74</ele>
        <time>2025-04-29T10:15:11Z</time>
      </trkpt>
      <trkpt lat="43.072508024051785" lon="-5.150432987138629">
        <ele>1228.22</ele>
        <time>2025-04-29T10:15:12Z</time>
      </trkpt>
      <trkpt lat="43.072529984638095" lon="-5.150680001825094">
        <ele>1228.7</ele>
        <time>2025-04-29T10:15:13Z</time>
      </trkpt>
      <trkpt lat="43.072554962709546" lon="-5.150941014289856">
        <ele>1229.1800000000001</ele>
        <time>2025-04-29T10:15:14Z</time>
      </trkpt>
      <trkpt lat="43.07277599349618" lon="-5.153880966827273">
        <ele>1233.99</ele>
        <time>2025-04-29T10:15:24Z</time>
      </trkpt>
      <trkpt lat="43.072766019031405" lon="-5.154444985091686">
        <ele>1234.47</ele>
        <time>2025-04-29T10:15:26Z</time>
      </trkpt>
      <trkpt lat="43.072726037353277" lon="-5.154715972021222">
        <ele>1234.95</ele>
        <time>2025-04-29T10:15:27Z</time>
      </trkpt>
      <trkpt lat="43.072683038190007" lon="-5.156710026785731">
        <ele>1233.99</ele>
        <time>2025-04-29T10:15:34Z</time>
      </trkpt>
      <trkpt lat="43.072737017646432" lon="-5.157601023092866">
        <ele>1233.03</ele>
        <time>2025-04-29T10:15:37Z</time>
      </trkpt>
      <trkpt lat="43.072695024311543" lon="-5.157890031114221">
        <ele>1233.03</ele>
        <time>2025-04-29T10:15:38Z</time>
      </trkpt>
      <trkpt lat="43.072652025148273" lon="-5.158184990286827">
        <ele>1233.03</ele>
        <time>2025-04-29T10:15:39Z</time>
      </trkpt>
      <trkpt lat="43.072554040700197" lon="-5.158449020236731">
        <ele>1233.99</ele>
        <time>2025-04-29T10:15:40Z</time>
      </trkpt>
      <trkpt lat="43.0724520329386" lon="-5.158722018823028">
        <ele>1233.99</ele>
        <time>2025-04-29T10:15:41Z</time>
      </trkpt>
      <trkpt lat="43.072351031005383" lon="-5.158991999924183">
        <ele>1234.47</ele>
        <time>2025-04-29T10:15:42Z</time>
      </trkpt>
      <trkpt lat="43.0721549782902" lon="-5.159516958519816">
        <ele>1235.9100000000001</ele>
        <time>2025-04-29T10:15:44Z</time>
      </trkpt>
      <trkpt lat="43.072081971913576" lon="-5.159789035096765">
        <ele>1236.3900000000001</ele>
        <time>2025-04-29T10:15:45Z</time>
      </trkpt>
      <trkpt lat="43.07202598080039" lon="-5.160066979005933">
        <ele>1237.3499999999999</ele>
        <time>2025-04-29T10:15:46Z</time>
      </trkpt>
      <trkpt lat="43.071923973038793" lon="-5.16057601198554">
        <ele>1239.76</ele>
        <time>2025-04-29T10:15:48Z</time>
      </trkpt>
      <trkpt lat="43.071875022724271" lon="-5.160824032500386">
        <ele>1241.2</ele>
        <time>2025-04-29T10:15:49Z</time>
      </trkpt>
      <trkpt lat="43.071772009134293" lon="-5.161029975861311">
        <ele>1242.6400000000001</ele>
        <time>2025-04-29T10:15:50Z</time>
      </trkpt>
      <trkpt lat="43.071633959189057" lon="-5.161218987777829">
        <ele>1243.5999999999999</ele>
        <time>2025-04-29T10:15:51Z</time>
      </trkpt>
      <trkpt lat="43.071494987234473" lon="-5.161409005522728">
        <ele>1245.04</ele>
        <time>2025-04-29T10:15:52Z</time>
      </trkpt>
      <trkpt lat="43.07114596478641" lon="-5.161970006301999">
        <ele>1248.8900000000001</ele>
        <time>2025-04-29T10:15:55Z</time>
      </trkpt>
      <trkpt lat="43.071062983945012" lon="-5.162136973813176">
        <ele>1250.3299999999999</ele>
        <time>2025-04-29T10:15:56Z</time>
      </trkpt>
      <trkpt lat="43.071012021973729" lon="-5.162396980449557">
        <ele>1251.77</ele>
        <time>2025-04-29T10:15:57Z</time>
      </trkpt>
      <trkpt lat="43.070967011153698" lon="-5.162629997357726">
        <ele>1252.74</ele>
        <time>2025-04-29T10:15:58Z</time>
      </trkpt>
      <trkpt lat="43.070913031697273" lon="-5.162909030914307">
        <ele>1254.1800000000001</ele>
        <time>2025-04-29T10:15:59Z</time>
      </trkpt>
      <trkpt lat="43.07090800255537" lon="-5.163124026730657">
        <ele>1255.1400000000001</ele>
        <time>2025-04-29T10:16:00Z</time>
      </trkpt>
      <trkpt lat="43.07092803530395" lon="-5.164146032184362">
        <ele>1260.4300000000001</ele>
        <time>2025-04-29T10:16:04Z</time>
      </trkpt>
      <trkpt lat="43.070956030860543" lon="-5.164367984980345">
        <ele>1262.3499999999999</ele>
        <time>2025-04-29T10:16:05Z</time>
      </trkpt>
      <trkpt lat="43.071070024743676" lon="-5.164595972746611">
        <ele>1263.79</ele>
        <time>2025-04-29T10:16:06Z</time>
      </trkpt>
      <trkpt lat="43.071177983656526" lon="-5.164812980219722">
        <ele>1265.23</ele>
        <time>2025-04-29T10:16:07Z</time>
      </trkpt>
      <trkpt lat="43.071305975317955" lon="-5.16502202488482">
        <ele>1267.1600000000001</ele>
        <time>2025-04-29T10:16:08Z</time>
      </trkpt>
      <trkpt lat="43.071434972807765" lon="-5.165228974074125">
        <ele>1269.0799999999999</ele>
        <time>2025-04-29T10:16:09Z</time>
      </trkpt>
      <trkpt lat="43.071652986109257" lon="-5.165617978200316">
        <ele>1272.4400000000001</ele>
        <time>2025-04-29T10:16:11Z</time>
      </trkpt>
      <trkpt lat="43.071717023849487" lon="-5.165797015652061">
        <ele>1274.3599999999999</ele>
        <time>2025-04-29T10:16:12Z</time>
      </trkpt>
      <trkpt lat="43.071722975000739" lon="-5.165993990376592">
        <ele>1275.8099999999999</ele>
        <time>2025-04-29T10:16:13Z</time>
      </trkpt>
      <trkpt lat="43.071716018021107" lon="-5.1662059687078">
        <ele>1276.77</ele>
        <time>2025-04-29T10:16:14Z</time>
      </trkpt>
      <trkpt lat="43.071708977222443" lon="-5.166431022807956">
        <ele>1277.73</ele>
        <time>2025-04-29T10:16:15Z</time>
      </trkpt>
      <trkpt lat="43.071666983887553" lon="-5.166652975603938">
        <ele>1278.21</ele>
        <time>2025-04-29T10:16:16Z</time>
      </trkpt>
      <trkpt lat="43.071609986945987" lon="-5.166880963370204">
        <ele>1279.1700000000001</ele>
        <time>2025-04-29T10:16:17Z</time>
      </trkpt>
      <trkpt lat="43.071547960862517" lon="-5.167119009420276">
        <ele>1279.6500000000001</ele>
        <time>2025-04-29T10:16:18Z</time>
      </trkpt>
      <trkpt lat="43.071463974192739" lon="-5.167358983308077">
        <ele>1280.1300000000001</ele>
        <time>2025-04-29T10:16:19Z</time>
      </trkpt>
      <trkpt lat="43.070612037554383" lon="-5.169827034696937">
        <ele>1283.98</ele>
        <time>2025-04-29T10:16:28Z</time>
      </trkpt>
      <trkpt lat="43.069589026272297" lon="-5.172839993610978">
        <ele>1282.0599999999999</ele>
        <time>2025-04-29T10:16:38Z</time>
      </trkpt>
      <trkpt lat="43.069527000188828" lon="-5.173125984147191">
        <ele>1281.5699999999999</ele>
        <time>2025-04-29T10:16:39Z</time>
      </trkpt>
      <trkpt lat="43.069438990205526" lon="-5.173664018511772">
        <ele>1281.5699999999999</ele>
        <time>2025-04-29T10:16:41Z</time>
      </trkpt>
      <trkpt lat="43.069419041275978" lon="-5.17391799017787">
        <ele>1281.5699999999999</ele>
        <time>2025-04-29T10:16:42Z</time>
      </trkpt>
      <trkpt lat="43.069377969950438" lon="-5.175986979156733">
        <ele>1282.0599999999999</ele>
        <time>2025-04-29T10:16:49Z</time>
      </trkpt>
      <trkpt lat="43.06927596218884" lon="-5.179696977138519">
        <ele>1283.5</ele>
        <time>2025-04-29T10:17:01Z</time>
      </trkpt>
      <trkpt lat="43.06927696801722" lon="-5.180559977889061">
        <ele>1283.5</ele>
        <time>2025-04-29T10:17:04Z</time>
      </trkpt>
      <trkpt lat="43.069336982443929" lon="-5.180838005617261">
        <ele>1283.5</ele>
        <time>2025-04-29T10:17:05Z</time>
      </trkpt>
      <trkpt lat="43.069925978779793" lon="-5.183379985392094">
        <ele>1285.4200000000001</ele>
        <time>2025-04-29T10:17:13Z</time>
      </trkpt>
      <trkpt lat="43.070334009826183" lon="-5.185354007408023">
        <ele>1288.78</ele>
        <time>2025-04-29T10:17:20Z</time>
      </trkpt>
      <trkpt lat="43.070334009826183" lon="-5.185629017651081">
        <ele>1289.75</ele>
        <time>2025-04-29T10:17:21Z</time>
      </trkpt>
      <trkpt lat="43.070315988734365" lon="-5.185911990702152">
        <ele>1290.71</ele>
        <time>2025-04-29T10:17:22Z</time>
      </trkpt>
      <trkpt lat="43.070267960429192" lon="-5.188051974400878">
        <ele>1295.99</ele>
        <time>2025-04-29T10:17:29Z</time>
      </trkpt>
      <trkpt lat="43.070624023675919" lon="-5.19108597189188">
        <ele>1300.3199999999999</ele>
        <time>2025-04-29T10:17:38Z</time>
      </trkpt>
      <trkpt lat="43.070730976760387" lon="-5.191702963784337">
        <ele>1301.76</ele>
        <time>2025-04-29T10:17:40Z</time>
      </trkpt>
      <trkpt lat="43.070831978693604" lon="-5.191964982077479">
        <ele>1302.24</ele>
        <time>2025-04-29T10:17:41Z</time>
      </trkpt>
      <trkpt lat="43.070932980626822" lon="-5.192227000370622">
        <ele>1302.72</ele>
        <time>2025-04-29T10:17:42Z</time>
      </trkpt>
      <trkpt lat="43.07105996645987" lon="-5.192465968430042">
        <ele>1303.2</ele>
        <time>2025-04-29T10:17:43Z</time>
      </trkpt>
      <trkpt lat="43.071194998919964" lon="-5.192702002823353">
        <ele>1303.6900000000001</ele>
        <time>2025-04-29T10:17:44Z</time>
      </trkpt>
      <trkpt lat="43.071584003046155" lon="-5.193379009142518">
        <ele>1306.5699999999999</ele>
        <time>2025-04-29T10:17:47Z</time>
      </trkpt>
      <trkpt lat="43.071670001372695" lon="-5.193611020222306">
        <ele>1307.53</ele>
        <time>2025-04-29T10:17:48Z</time>
      </trkpt>
      <trkpt lat="43.071740996092558" lon="-5.19385501742363">
        <ele>1308.49</ele>
        <time>2025-04-29T10:17:49Z</time>
      </trkpt>
      <trkpt lat="43.071797993034124" lon="-5.194103037938476">
        <ele>1308.97</ele>
        <time>2025-04-29T10:17:50Z</time>
      </trkpt>
      <trkpt lat="43.071847027167678" lon="-5.194365978240967">
        <ele>1309.9300000000001</ele>
        <time>2025-04-29T10:17:51Z</time>
      </trkpt>
      <trkpt lat="43.071940988302231" lon="-5.194869982078672">
        <ele>1310.9000000000001</ele>
        <time>2025-04-29T10:17:53Z</time>
      </trkpt>
      <trkpt lat="43.072052970528603" lon="-5.195071985945106">
        <ele>1310.9000000000001</ele>
        <time>2025-04-29T10:17:54Z</time>
      </trkpt>
      <trkpt lat="43.072171993553638" lon="-5.195279018953443">
        <ele>1310.4100000000001</ele>
        <time>2025-04-29T10:17:55Z</time>
      </trkpt>
      <trkpt lat="43.072280958294868" lon="-5.195468030869961">
        <ele>1309.9300000000001</ele>
        <time>2025-04-29T10:17:56Z</time>
      </trkpt>
      <trkpt lat="43.07236704044044" lon="-5.195656958967447">
        <ele>1308.97</ele>
        <time>2025-04-29T10:17:57Z</time>
      </trkpt>
      <trkpt lat="43.072415990754962" lon="-5.195852005854249">
        <ele>1308.49</ele>
        <time>2025-04-29T10:17:58Z</time>
      </trkpt>
      <trkpt lat="43.07245597243309" lon="-5.196059960871935">
        <ele>1308.01</ele>
        <time>2025-04-29T10:17:59Z</time>
      </trkpt>
      <trkpt lat="43.072445997968316" lon="-5.19626397639513">
        <ele>1307.53</ele>
        <time>2025-04-29T10:18:00Z</time>
      </trkpt>
      <trkpt lat="43.072436023503542" lon="-5.196468997746706">
        <ele>1308.01</ele>
        <time>2025-04-29T10:18:01Z</time>
      </trkpt>
      <trkpt lat="43.072381960228086" lon="-5.196675024926662">
        <ele>1308.97</ele>
        <time>2025-04-29T10:18:02Z</time>
      </trkpt>
      <trkpt lat="43.072315994650126" lon="-5.196848027408123">
        <ele>1309.9300000000001</ele>
        <time>2025-04-29T10:18:03Z</time>
      </trkpt>
      <trkpt lat="43.072222033515573" lon="-5.197005020454526">
        <ele>1310.9000000000001</ele>
        <time>2025-04-29T10:18:04Z</time>
      </trkpt>
      <trkpt lat="43.07208901271224" lon="-5.19714298658073">
        <ele>1312.3399999999999</ele>
        <time>2025-04-29T10:18:05Z</time>
      </trkpt>
      <trkpt lat="43.071950962767005" lon="-5.197284976020455">
        <ele>1313.3</ele>
        <time>2025-04-29T10:18:06Z</time>
      </trkpt>
      <trkpt lat="43.071063989773393" lon="-5.198185024783015">
        <ele>1320.03</ele>
        <time>2025-04-29T10:18:12Z</time>
      </trkpt>
      <trkpt lat="43.070952007547021" lon="-5.198343023657799">
        <ele>1321.47</ele>
        <time>2025-04-29T10:18:13Z</time>
      </trkpt>
      <trkpt lat="43.070857040584087" lon="-5.198533963412046">
        <ele>1322.4300000000001</ele>
        <time>2025-04-29T10:18:14Z</time>
      </trkpt>
      <trkpt lat="43.070770036429167" lon="-5.1987349614501">
        <ele>1323.3900000000001</ele>
        <time>2025-04-29T10:18:15Z</time>
      </trkpt>
      <trkpt lat="43.07071203365922" lon="-5.198967978358269">
        <ele>1324.8299999999999</ele>
        <time>2025-04-29T10:18:16Z</time>
      </trkpt>
      <trkpt lat="43.070653025060892" lon="-5.199203006923199">
        <ele>1325.8</ele>
        <time>2025-04-29T10:18:17Z</time>
      </trkpt>
      <trkpt lat="43.070597033947706" lon="-5.199427977204323">
        <ele>1327.24</ele>
        <time>2025-04-29T10:18:18Z</time>
      </trkpt>
      <trkpt lat="43.070577001199126" lon="-5.199648002162576">
        <ele>1328.2</ele>
        <time>2025-04-29T10:18:19Z</time>
      </trkpt>
      <trkpt lat="43.070590998977423" lon="-5.199858974665403">
        <ele>1329.6400000000001</ele>
        <time>2025-04-29T10:18:20Z</time>
      </trkpt>
      <trkpt lat="43.070652019232512" lon="-5.200057039037347">
        <ele>1330.5999999999999</ele>
        <time>2025-04-29T10:18:21Z</time>
      </trkpt>
      <trkpt lat="43.070716978982091" lon="-5.200267005711794">
        <ele>1331.5599999999999</ele>
        <time>2025-04-29T10:18:22Z</time>
      </trkpt>
      <trkpt lat="43.071349980309606" lon="-5.20187197253108">
        <ele>1340.7</ele>
        <time>2025-04-29T10:18:29Z</time>
      </trkpt>
      <trkpt lat="43.071660026907921" lon="-5.202596001327038">
        <ele>1345.5</ele>
        <time>2025-04-29T10:18:32Z</time>
      </trkpt>
      <trkpt lat="43.071748958900571" lon="-5.202865982428193">
        <ele>1346.9400000000001</ele>
        <time>2025-04-29T10:18:33Z</time>
      </trkpt>
      <trkpt lat="43.072699969634414" lon="-5.205404022708535">
        <ele>1363.77</ele>
        <time>2025-04-29T10:18:42Z</time>
      </trkpt>
      <trkpt lat="43.072951007634401" lon="-5.206125034019351">
        <ele>1369.54</ele>
        <time>2025-04-29T10:18:45Z</time>
      </trkpt>
      <trkpt lat="43.072941033169627" lon="-5.206333994865418">
        <ele>1371.46</ele>
        <time>2025-04-29T10:18:46Z</time>
      </trkpt>
      <trkpt lat="43.07292896322906" lon="-5.206558965146542">
        <ele>1373.3800000000001</ele>
        <time>2025-04-29T10:18:47Z</time>
      </trkpt>
      <trkpt lat="43.072663005441427" lon="-5.208027977496386">
        <ele>1382.03</ele>
        <time>2025-04-29T10:18:53Z</time>
      </trkpt>
      <trkpt lat="43.072657976299524" lon="-5.208295024931431">
        <ele>1383.47</ele>
        <time>2025-04-29T10:18:54Z</time>
      </trkpt>
      <trkpt lat="43.072726959362626" lon="-5.209105974063277">
        <ele>1387.3199999999999</ele>
        <time>2025-04-29T10:18:57Z</time>
      </trkpt>
      <trkpt lat="43.072792002931237" lon="-5.209351982921362">
        <ele>1389.24</ele>
        <time>2025-04-29T10:18:58Z</time>
      </trkpt>
      <trkpt lat="43.072890993207693" lon="-5.209598997607827">
        <ele>1391.1700000000001</ele>
        <time>2025-04-29T10:18:59Z</time>
      </trkpt>
      <trkpt lat="43.073816020041704" lon="-5.211287029087544">
        <ele>1403.6600000000001</ele>
        <time>2025-04-29T10:19:06Z</time>
      </trkpt>
      <trkpt lat="43.075732039287686" lon="-5.213753990828991">
        <ele>1424.3299999999999</ele>
        <time>2025-04-29T10:19:17Z</time>
      </trkpt>
      <trkpt lat="43.076270995661616" lon="-5.214275009930134">
        <ele>1429.1400000000001</ele>
        <time>2025-04-29T10:19:20Z</time>
      </trkpt>
      <trkpt lat="43.076445003971457" lon="-5.214389003813267">
        <ele>1430.5799999999999</ele>
        <time>2025-04-29T10:19:21Z</time>
      </trkpt>
      <trkpt lat="43.076626975089312" lon="-5.21443803794682">
        <ele>1432.5</ele>
        <time>2025-04-29T10:19:22Z</time>
      </trkpt>
      <trkpt lat="43.076819004490972" lon="-5.214470978826284">
        <ele>1433.9400000000001</ele>
        <time>2025-04-29T10:19:23Z</time>
      </trkpt>
      <trkpt lat="43.077021008357406" lon="-5.214451029896736">
        <ele>1435.3900000000001</ele>
        <time>2025-04-29T10:19:24Z</time>
      </trkpt>
      <trkpt lat="43.077225023880601" lon="-5.214430997148156">
        <ele>1436.8299999999999</ele>
        <time>2025-04-29T10:19:25Z</time>
      </trkpt>
      <trkpt lat="43.077429961413145" lon="-5.214385986328125">
        <ele>1438.27</ele>
        <time>2025-04-29T10:19:26Z</time>
      </trkpt>
      <trkpt lat="43.079616967588663" lon="-5.213941996917129">
        <ele>1455.0899999999999</ele>
        <time>2025-04-29T10:19:36Z</time>
      </trkpt>
      <trkpt lat="43.079819977283478" lon="-5.213960018008947">
        <ele>1456.53</ele>
        <time>2025-04-29T10:19:37Z</time>
      </trkpt>
      <trkpt lat="43.080024998635054" lon="-5.214036041870713">
        <ele>1457.98</ele>
        <time>2025-04-29T10:19:38Z</time>
      </trkpt>
      <trkpt lat="43.080234965309501" lon="-5.214113993570209">
        <ele>1459.4200000000001</ele>
        <time>2025-04-29T10:19:39Z</time>
      </trkpt>
      <trkpt lat="43.080443004146218" lon="-5.214218012988567">
        <ele>1460.3800000000001</ele>
        <time>2025-04-29T10:19:40Z</time>
      </trkpt>
      <trkpt lat="43.081850996240973" lon="-5.215048994868994">
        <ele>1469.99</ele>
        <time>2025-04-29T10:19:47Z</time>
      </trkpt>
      <trkpt lat="43.082037996500731" lon="-5.215084031224251">
        <ele>1470.95</ele>
        <time>2025-04-29T10:19:48Z</time>
      </trkpt>
      <trkpt lat="43.082231031730771" lon="-5.215077996253967">
        <ele>1472.4000000000001</ele>
        <time>2025-04-29T10:19:49Z</time>
      </trkpt>
      <trkpt lat="43.082803012803197" lon="-5.215032985433936">
        <ele>1476.24</ele>
        <time>2025-04-29T10:19:52Z</time>
      </trkpt>
      <trkpt lat="43.083812026306987" lon="-5.215207999572158">
        <ele>1482.01</ele>
        <time>2025-04-29T10:19:58Z</time>
      </trkpt>
      <trkpt lat="43.083938006311655" lon="-5.21525502204895">
        <ele>1482.97</ele>
        <time>2025-04-29T10:19:59Z</time>
      </trkpt>
      <trkpt lat="43.084048982709646" lon="-5.215333979576826">
        <ele>1484.4100000000001</ele>
        <time>2025-04-29T10:20:00Z</time>
      </trkpt>
      <trkpt lat="43.084122994914651" lon="-5.215473035350442">
        <ele>1485.3699999999999</ele>
        <time>2025-04-29T10:20:01Z</time>
      </trkpt>
      <trkpt lat="43.084189966320992" lon="-5.2156219817698">
        <ele>1486.3399999999999</ele>
        <time>2025-04-29T10:20:02Z</time>
      </trkpt>
      <trkpt lat="43.084236988797784" lon="-5.215778974816203">
        <ele>1487.78</ele>
        <time>2025-04-29T10:20:03Z</time>
      </trkpt>
      <trkpt lat="43.08422802016139" lon="-5.215967986732721">
        <ele>1488.26</ele>
        <time>2025-04-29T10:20:04Z</time>
      </trkpt>
      <trkpt lat="43.084218967705965" lon="-5.216145012527704">
        <ele>1489.22</ele>
        <time>2025-04-29T10:20:05Z</time>
      </trkpt>
      <trkpt lat="43.08416498824954" lon="-5.216313991695643">
        <ele>1490.1800000000001</ele>
        <time>2025-04-29T10:20:06Z</time>
      </trkpt>
      <trkpt lat="43.084097011014819" lon="-5.21647802554071">
        <ele>1491.1400000000001</ele>
        <time>2025-04-29T10:20:07Z</time>
      </trkpt>
      <trkpt lat="43.084028027951717" lon="-5.216644993051887">
        <ele>1491.6199999999999</ele>
        <time>2025-04-29T10:20:08Z</time>
      </trkpt>
      <trkpt lat="43.083958961069584" lon="-5.216812966391444">
        <ele>1492.5799999999999</ele>
        <time>2025-04-29T10:20:09Z</time>
      </trkpt>
      <trkpt lat="43.083921996876597" lon="-5.21699401549995">
        <ele>1493.0599999999999</ele>
        <time>2025-04-29T10:20:10Z</time>
      </trkpt>
      <trkpt lat="43.083943035453558" lon="-5.217161988839507">
        <ele>1494.03</ele>
        <time>2025-04-29T10:20:11Z</time>
      </trkpt>
      <trkpt lat="43.083988968282938" lon="-5.217284029349685">
        <ele>1494.51</ele>
        <time>2025-04-29T10:20:12Z</time>
      </trkpt>
      <trkpt lat="43.084062980487943" lon="-5.217395005747676">
        <ele>1495.47</ele>
        <time>2025-04-29T10:20:13Z</time>
      </trkpt>
      <trkpt lat="43.084140010178089" lon="-5.217505982145667">
        <ele>1495.95</ele>
        <time>2025-04-29T10:20:14Z</time>
      </trkpt>
      <trkpt lat="43.084240006282926" lon="-5.217590974643827">
        <ele>1496.9100000000001</ele>
        <time>2025-04-29T10:20:15Z</time>
      </trkpt>
      <trkpt lat="43.084668992087245" lon="-5.217905966565013">
        <ele>1499.79</ele>
        <time>2025-04-29T10:20:19Z</time>
      </trkpt>
      <trkpt lat="43.084779968485236" lon="-5.217942008748651">
        <ele>1500.27</ele>
        <time>2025-04-29T10:20:20Z</time>
      </trkpt>
      <trkpt lat="43.08489203453064" lon="-5.217917030677199">
        <ele>1500.76</ele>
        <time>2025-04-29T10:20:21Z</time>
      </trkpt>
      <trkpt lat="43.085014997050166" lon="-5.217881994321942">
        <ele>1501.24</ele>
        <time>2025-04-29T10:20:22Z</time>
      </trkpt>
      <trkpt lat="43.085145000368357" lon="-5.217838995158672">
        <ele>1501.72</ele>
        <time>2025-04-29T10:20:23Z</time>
      </trkpt>
      <trkpt lat="43.085269974544644" lon="-5.217777974903584">
        <ele>1501.72</ele>
        <time>2025-04-29T10:20:24Z</time>
      </trkpt>
      <trkpt lat="43.08538899756968" lon="-5.217690970748663">
        <ele>1502.2</ele>
        <time>2025-04-29T10:20:25Z</time>
      </trkpt>
      <trkpt lat="43.085481030866504" lon="-5.217545963823795">
        <ele>1502.6800000000001</ele>
        <time>2025-04-29T10:20:26Z</time>
      </trkpt>
      <trkpt lat="43.086322993040085" lon="-5.216374006122351">
        <ele>1497.3900000000001</ele>
        <time>2025-04-29T10:20:33Z</time>
      </trkpt>
      <trkpt lat="43.08646003715694" lon="-5.216239979490638">
        <ele>1495.95</ele>
        <time>2025-04-29T10:20:34Z</time>
      </trkpt>
      <trkpt lat="43.086600014939904" lon="-5.216135960072279">
        <ele>1494.51</ele>
        <time>2025-04-29T10:20:35Z</time>
      </trkpt>
      <trkpt lat="43.086728006601334" lon="-5.216041998937726">
        <ele>1493.0599999999999</ele>
        <time>2025-04-29T10:20:36Z</time>
      </trkpt>
      <trkpt lat="43.086834037676454" lon="-5.215939991176128">
        <ele>1492.0999999999999</ele>
        <time>2025-04-29T10:20:37Z</time>
      </trkpt>
      <trkpt lat="43.086927998811007" lon="-5.215818034484983">
        <ele>1491.1400000000001</ele>
        <time>2025-04-29T10:20:38Z</time>
      </trkpt>
      <trkpt lat="43.087033024057746" lon="-5.215705968439579">
        <ele>1490.1800000000001</ele>
        <time>2025-04-29T10:20:39Z</time>
      </trkpt>
      <trkpt lat="43.087112987414002" lon="-5.215674033388495">
        <ele>1489.22</ele>
        <time>2025-04-29T10:20:40Z</time>
      </trkpt>
      <trkpt lat="43.087229998782277" lon="-5.215737987309694">
        <ele>1487.78</ele>
        <time>2025-04-29T10:20:41Z</time>
      </trkpt>
      <trkpt lat="43.087323037907481" lon="-5.215804958716035">
        <ele>1486.8199999999999</ele>
        <time>2025-04-29T10:20:42Z</time>
      </trkpt>
      <trkpt lat="43.08740995824337" lon="-5.215930016711354">
        <ele>1485.8499999999999</ele>
        <time>2025-04-29T10:20:43Z</time>
      </trkpt>
      <trkpt lat="43.087510038167238" lon="-5.216073011979461">
        <ele>1484.4100000000001</ele>
        <time>2025-04-29T10:20:44Z</time>
      </trkpt>
      <trkpt lat="43.087728973478079" lon="-5.216343998908997">
        <ele>1482.49</ele>
        <time>2025-04-29T10:20:46Z</time>
      </trkpt>
      <trkpt lat="43.087842967361212" lon="-5.216446006670594">
        <ele>1481.53</ele>
        <time>2025-04-29T10:20:47Z</time>
      </trkpt>
      <trkpt lat="43.088012030348182" lon="-5.216511972248554">
        <ele>1480.0899999999999</ele>
        <time>2025-04-29T10:20:48Z</time>
      </trkpt>
      <trkpt lat="43.088678978383541" lon="-5.216757981106639">
        <ele>1476.24</ele>
        <time>2025-04-29T10:20:52Z</time>
      </trkpt>
      <trkpt lat="43.08884602971375" lon="-5.216787988319993">
        <ele>1474.8</ele>
        <time>2025-04-29T10:20:53Z</time>
      </trkpt>
      <trkpt lat="43.089001011103392" lon="-5.216749012470245">
        <ele>1473.8399999999999</ele>
        <time>2025-04-29T10:20:54Z</time>
      </trkpt>
      <trkpt lat="43.089117016643286" lon="-5.216688998043537">
        <ele>1472.8800000000001</ele>
        <time>2025-04-29T10:20:55Z</time>
      </trkpt>
      <trkpt lat="43.089194968342781" lon="-5.216595958918333">
        <ele>1471.9200000000001</ele>
        <time>2025-04-29T10:20:56Z</time>
      </trkpt>
      <trkpt lat="43.089226987212896" lon="-5.216450029984117">
        <ele>1470.95</ele>
        <time>2025-04-29T10:20:57Z</time>
      </trkpt>
      <trkpt lat="43.089262023568153" lon="-5.216293036937714">
        <ele>1469.51</ele>
        <time>2025-04-29T10:20:58Z</time>
      </trkpt>
      <trkpt lat="43.089296976104379" lon="-5.21613797172904">
        <ele>1468.55</ele>
        <time>2025-04-29T10:20:59Z</time>
      </trkpt>
      <trkpt lat="43.089337041601539" lon="-5.215993970632553">
        <ele>1467.5899999999999</ele>
        <time>2025-04-29T10:21:00Z</time>
      </trkpt>
      <trkpt lat="43.089412981644273" lon="-5.215903026983142">
        <ele>1467.1099999999999</ele>
        <time>2025-04-29T10:21:01Z</time>
      </trkpt>
      <trkpt lat="43.089499985799193" lon="-5.215881988406181">
        <ele>1466.6300000000001</ele>
        <time>2025-04-29T10:21:02Z</time>
      </trkpt>
      <trkpt lat="43.089607022702694" lon="-5.21589900366962">
        <ele>1466.1500000000001</ele>
        <time>2025-04-29T10:21:03Z</time>
      </trkpt>
      <trkpt lat="43.089715987443924" lon="-5.215975027531385">
        <ele>1465.6700000000001</ele>
        <time>2025-04-29T10:21:04Z</time>
      </trkpt>
      <trkpt lat="43.089842973276973" lon="-5.216063037514687">
        <ele>1465.6700000000001</ele>
        <time>2025-04-29T10:21:05Z</time>
      </trkpt>
      <trkpt lat="43.09011697769165" lon="-5.216252971440554">
        <ele>1464.71</ele>
        <time>2025-04-29T10:21:07Z</time>
      </trkpt>
      <trkpt lat="43.090275982394814" lon="-5.216321032494307">
        <ele>1464.23</ele>
        <time>2025-04-29T10:21:08Z</time>
      </trkpt>
      <trkpt lat="43.090440016239882" lon="-5.216382974758744">
        <ele>1463.74</ele>
        <time>2025-04-29T10:21:09Z</time>
      </trkpt>
      <trkpt lat="43.090793984010816" lon="-5.216390015557408">
        <ele>1462.78</ele>
        <time>2025-04-29T10:21:11Z</time>
      </trkpt>
      <trkpt lat="43.09097302146256" lon="-5.216370988637209">
        <ele>1462.3</ele>
        <time>2025-04-29T10:21:12Z</time>
      </trkpt>
      <trkpt lat="43.091330006718636" lon="-5.216355985030532">
        <ele>1461.3399999999999</ele>
        <time>2025-04-29T10:21:14Z</time>
      </trkpt>
      <trkpt lat="43.09146897867322" lon="-5.216403007507324">
        <ele>1461.3399999999999</ele>
        <time>2025-04-29T10:21:15Z</time>
      </trkpt>
      <trkpt lat="43.091631000861526" lon="-5.216509038582444">
        <ele>1461.3399999999999</ele>
        <time>2025-04-29T10:21:16Z</time>
      </trkpt>
      <trkpt lat="43.091767961159348" lon="-5.216597970575094">
        <ele>1460.8599999999999</ele>
        <time>2025-04-29T10:21:17Z</time>
      </trkpt>
      <trkpt lat="43.09189897030592" lon="-5.216682963073254">
        <ele>1460.3800000000001</ele>
        <time>2025-04-29T10:21:18Z</time>
      </trkpt>
      <trkpt lat="43.092030985280871" lon="-5.216744989156723">
        <ele>1459.9000000000001</ele>
        <time>2025-04-29T10:21:19Z</time>
      </trkpt>
      <trkpt lat="43.092159982770681" lon="-5.216783965006471">
        <ele>1458.9400000000001</ele>
        <time>2025-04-29T10:21:20Z</time>
      </trkpt>
      <trkpt lat="43.09228696860373" lon="-5.216749012470245">
        <ele>1457.98</ele>
        <time>2025-04-29T10:21:21Z</time>
      </trkpt>
      <trkpt lat="43.092428036034107" lon="-5.216697966679931">
        <ele>1457.02</ele>
        <time>2025-04-29T10:21:22Z</time>
      </trkpt>
      <trkpt lat="43.092572959139943" lon="-5.216643987223506">
        <ele>1456.05</ele>
        <time>2025-04-29T10:21:23Z</time>
      </trkpt>
      <trkpt lat="43.09271696023643" lon="-5.216591013595462">
        <ele>1455.0899999999999</ele>
        <time>2025-04-29T10:21:24Z</time>
      </trkpt>
      <trkpt lat="43.092874037101865" lon="-5.216558994725347">
        <ele>1454.6099999999999</ele>
        <time>2025-04-29T10:21:25Z</time>
      </trkpt>
      <trkpt lat="43.093029018491507" lon="-5.216578021645546">
        <ele>1453.6500000000001</ele>
        <time>2025-04-29T10:21:26Z</time>
      </trkpt>
      <trkpt lat="43.093183999881148" lon="-5.216595958918333">
        <ele>1452.21</ele>
        <time>2025-04-29T10:21:27Z</time>
      </trkpt>
      <trkpt lat="43.093324983492494" lon="-5.21669302135706">
        <ele>1451.25</ele>
        <time>2025-04-29T10:21:28Z</time>
      </trkpt>
      <trkpt lat="43.093470996245742" lon="-5.216796034947038">
        <ele>1450.29</ele>
        <time>2025-04-29T10:21:29Z</time>
      </trkpt>
      <trkpt lat="43.093614997342229" lon="-5.216897036880255">
        <ele>1449.3199999999999</ele>
        <time>2025-04-29T10:21:30Z</time>
      </trkpt>
      <trkpt lat="43.093741983175278" lon="-5.217055035755038">
        <ele>1447.8800000000001</ele>
        <time>2025-04-29T10:21:31Z</time>
      </trkpt>
      <trkpt lat="43.093873998150229" lon="-5.217219991609454">
        <ele>1446.9200000000001</ele>
        <time>2025-04-29T10:21:32Z</time>
      </trkpt>
      <trkpt lat="43.094154959544539" lon="-5.217493996024132">
        <ele>1444.04</ele>
        <time>2025-04-29T10:21:34Z</time>
      </trkpt>
      <trkpt lat="43.094299966469407" lon="-5.217600027099252">
        <ele>1442.5999999999999</ele>
        <time>2025-04-29T10:21:35Z</time>
      </trkpt>
      <trkpt lat="43.094441033899784" lon="-5.217656018212438">
        <ele>1441.1500000000001</ele>
        <time>2025-04-29T10:21:36Z</time>
      </trkpt>
      <trkpt lat="43.094567013904452" lon="-5.21770597435534">
        <ele>1439.71</ele>
        <time>2025-04-29T10:21:37Z</time>
      </trkpt>
      <trkpt lat="43.094688970595598" lon="-5.21768300794065">
        <ele>1438.27</ele>
        <time>2025-04-29T10:21:38Z</time>
      </trkpt>
      <trkpt lat="43.094802964478731" lon="-5.217651994898915">
        <ele>1437.3099999999999</ele>
        <time>2025-04-29T10:21:39Z</time>
      </trkpt>
      <trkpt lat="43.094905978068709" lon="-5.217549987137318">
        <ele>1435.8699999999999</ele>
        <time>2025-04-29T10:21:40Z</time>
      </trkpt>
      <trkpt lat="43.095012009143829" lon="-5.217433981597424">
        <ele>1434.4200000000001</ele>
        <time>2025-04-29T10:21:41Z</time>
      </trkpt>
      <trkpt lat="43.095146035775542" lon="-5.217347983270884">
        <ele>1432.98</ele>
        <time>2025-04-29T10:21:42Z</time>
      </trkpt>
      <trkpt lat="43.095291964709759" lon="-5.217282017692924">
        <ele>1432.02</ele>
        <time>2025-04-29T10:21:43Z</time>
      </trkpt>
      <trkpt lat="43.095871992409229" lon="-5.217089988291264">
        <ele>1427.21</ele>
        <time>2025-04-29T10:21:47Z</time>
      </trkpt>
      <trkpt lat="43.096124036237597" lon="-5.217089988291264">
        <ele>1425.29</ele>
        <time>2025-04-29T10:21:49Z</time>
      </trkpt>
      <trkpt lat="43.096251022070646" lon="-5.21703701466322">
        <ele>1423.8499999999999</ele>
        <time>2025-04-29T10:21:50Z</time>
      </trkpt>
      <trkpt lat="43.097086027264595" lon="-5.216174013912678">
        <ele>1420.49</ele>
        <time>2025-04-29T10:22:00Z</time>
      </trkpt>
      <trkpt lat="43.097277972847223" lon="-5.216077035292983">
        <ele>1420.97</ele>
        <time>2025-04-29T10:22:01Z</time>
      </trkpt>
      <trkpt lat="43.097394984215498" lon="-5.216020960360766">
        <ele>1420.97</ele>
        <time>2025-04-29T10:22:02Z</time>
      </trkpt>
      <trkpt lat="43.097517024725676" lon="-5.21596304140985">
        <ele>1420.97</ele>
        <time>2025-04-29T10:22:03Z</time>
      </trkpt>
      <trkpt lat="43.097628001123667" lon="-5.215909983962774">
        <ele>1420.49</ele>
        <time>2025-04-29T10:22:04Z</time>
      </trkpt>
      <trkpt lat="43.097721040248871" lon="-5.215829014778137">
        <ele>1420.49</ele>
        <time>2025-04-29T10:22:05Z</time>
      </trkpt>
      <trkpt lat="43.097835034132004" lon="-5.215731030330062">
        <ele>1420</ele>
        <time>2025-04-29T10:22:06Z</time>
      </trkpt>
      <trkpt lat="43.097948022186756" lon="-5.215632962062955">
        <ele>1419.52</ele>
        <time>2025-04-29T10:22:07Z</time>
      </trkpt>
      <trkpt lat="43.098099986091256" lon="-5.215502036735416">
        <ele>1418.5599999999999</ele>
        <time>2025-04-29T10:22:09Z</time>
      </trkpt>
      <trkpt lat="43.098179027438164" lon="-5.215336997061968">
        <ele>1418.5599999999999</ele>
        <time>2025-04-29T10:22:10Z</time>
      </trkpt>
      <trkpt lat="43.098244993016124" lon="-5.215200036764145">
        <ele>1418.0799999999999</ele>
        <time>2025-04-29T10:22:11Z</time>
      </trkpt>
      <trkpt lat="43.098312970250845" lon="-5.215057963505387">
        <ele>1417.5999999999999</ele>
        <time>2025-04-29T10:22:12Z</time>
      </trkpt>
      <trkpt lat="43.098411960527301" lon="-5.214907005429268">
        <ele>1417.1199999999999</ele>
        <time>2025-04-29T10:22:13Z</time>
      </trkpt>
      <trkpt lat="43.098507011309266" lon="-5.21480399183929">
        <ele>1416.6400000000001</ele>
        <time>2025-04-29T10:22:14Z</time>
      </trkpt>
      <trkpt lat="43.09860298410058" lon="-5.214700978249311">
        <ele>1416.1600000000001</ele>
        <time>2025-04-29T10:22:15Z</time>
      </trkpt>
      <trkpt lat="43.098661992698908" lon="-5.214602993801236">
        <ele>1415.6800000000001</ele>
        <time>2025-04-29T10:22:16Z</time>
      </trkpt>
      <trkpt lat="43.098719995468855" lon="-5.214465027675033">
        <ele>1415.2</ele>
        <time>2025-04-29T10:22:17Z</time>
      </trkpt>
      <trkpt lat="43.098780009895563" lon="-5.214319014921784">
        <ele>1414.72</ele>
        <time>2025-04-29T10:22:18Z</time>
      </trkpt>
      <trkpt lat="43.09883801266551" lon="-5.214179959148169">
        <ele>1413.76</ele>
        <time>2025-04-29T10:22:19Z</time>
      </trkpt>
      <trkpt lat="43.098894003778696" lon="-5.214046016335487">
        <ele>1412.79</ele>
        <time>2025-04-29T10:22:20Z</time>
      </trkpt>
      <trkpt lat="43.098947983235121" lon="-5.213916013017297">
        <ele>1411.8299999999999</ele>
        <time>2025-04-29T10:22:21Z</time>
      </trkpt>
      <trkpt lat="43.099087039008737" lon="-5.213720966130495">
        <ele>1409.4300000000001</ele>
        <time>2025-04-29T10:22:23Z</time>
      </trkpt>
      <trkpt lat="43.099174965173006" lon="-5.213707974180579">
        <ele>1408.47</ele>
        <time>2025-04-29T10:22:24Z</time>
      </trkpt>
      <trkpt lat="43.099236991256475" lon="-5.213699005544186">
        <ele>1407.03</ele>
        <time>2025-04-29T10:22:25Z</time>
      </trkpt>
      <trkpt lat="43.099341010674834" lon="-5.213705962523818">
        <ele>1405.5799999999999</ele>
        <time>2025-04-29T10:22:26Z</time>
      </trkpt>
      <trkpt lat="43.099448969587684" lon="-5.213713003322482">
        <ele>1404.6199999999999</ele>
        <time>2025-04-29T10:22:27Z</time>
      </trkpt>
      <trkpt lat="43.099625995382667" lon="-5.213753990828991">
        <ele>1402.22</ele>
        <time>2025-04-29T10:22:29Z</time>
      </trkpt>
      <trkpt lat="43.099688021466136" lon="-5.213785003870726">
        <ele>1401.26</ele>
        <time>2025-04-29T10:22:30Z</time>
      </trkpt>
      <trkpt lat="43.099715011194348" lon="-5.21383898332715">
        <ele>1400.3</ele>
        <time>2025-04-29T10:22:31Z</time>
      </trkpt>
      <trkpt lat="43.09976396150887" lon="-5.213937973603606">
        <ele>1398.8599999999999</ele>
        <time>2025-04-29T10:22:32Z</time>
      </trkpt>
      <trkpt lat="43.099820036441088" lon="-5.214050961658359">
        <ele>1397.8900000000001</ele>
        <time>2025-04-29T10:22:33Z</time>
      </trkpt>
      <trkpt lat="43.100098986178637" lon="-5.214582039043307">
        <ele>1395.49</ele>
        <time>2025-04-29T10:22:37Z</time>
      </trkpt>
      <trkpt lat="43.100183978676796" lon="-5.214702989906073">
        <ele>1395.01</ele>
        <time>2025-04-29T10:22:38Z</time>
      </trkpt>
      <trkpt lat="43.100237036123872" lon="-5.214844979345799">
        <ele>1395.01</ele>
        <time>2025-04-29T10:22:39Z</time>
      </trkpt>
      <trkpt lat="43.100289003923535" lon="-5.215017981827259">
        <ele>1394.53</ele>
        <time>2025-04-29T10:22:40Z</time>
      </trkpt>
      <trkpt lat="43.100337032228708" lon="-5.215189978480339">
        <ele>1394.05</ele>
        <time>2025-04-29T10:22:41Z</time>
      </trkpt>
      <trkpt lat="43.100393023341894" lon="-5.215518968179822">
        <ele>1392.6099999999999</ele>
        <time>2025-04-29T10:22:43Z</time>
      </trkpt>
      <trkpt lat="43.100418001413345" lon="-5.215669004246593">
        <ele>1390.2</ele>
        <time>2025-04-29T10:22:44Z</time>
      </trkpt>
      <trkpt lat="43.100441973656416" lon="-5.215806970372796">
        <ele>1388.28</ele>
        <time>2025-04-29T10:22:45Z</time>
      </trkpt>
      <trkpt lat="43.100465023890138" lon="-5.215940997004509">
        <ele>1387.3199999999999</ele>
        <time>2025-04-29T10:22:46Z</time>
      </trkpt>
      <trkpt lat="43.100488996133208" lon="-5.216063959524036">
        <ele>1386.3599999999999</ele>
        <time>2025-04-29T10:22:47Z</time>
      </trkpt>
      <trkpt lat="43.100595027208328" lon="-5.216357996687293">
        <ele>1382.99</ele>
        <time>2025-04-29T10:22:51Z</time>
      </trkpt>
      <trkpt lat="43.100653029978275" lon="-5.216446006670594">
        <ele>1382.03</ele>
        <time>2025-04-29T10:22:52Z</time>
      </trkpt>
      <trkpt lat="43.100660992786288" lon="-5.216448018327355">
        <ele>1380.1099999999999</ele>
        <time>2025-04-29T10:22:53Z</time>
      </trkpt>
      <trkpt lat="43.100759983062744" lon="-5.216466961428523">
        <ele>1379.1500000000001</ele>
        <time>2025-04-29T10:22:54Z</time>
      </trkpt>
      <trkpt lat="43.100790996104479" lon="-5.216452041640878">
        <ele>1378.1900000000001</ele>
        <time>2025-04-29T10:22:55Z</time>
      </trkpt>
      <trkpt lat="43.100840030238032" lon="-5.216427985578775">
        <ele>1377.23</ele>
        <time>2025-04-29T10:22:56Z</time>
      </trkpt>
      <trkpt lat="43.101203972473741" lon="-5.216246014460921">
        <ele>1370.98</ele>
        <time>2025-04-29T10:23:03Z</time>
      </trkpt>
      <trkpt lat="43.101252000778913" lon="-5.216231010854244">
        <ele>1369.54</ele>
        <time>2025-04-29T10:23:04Z</time>
      </trkpt>
      <trkpt lat="43.101307991892099" lon="-5.216228999197483">
        <ele>1368.5699999999999</ele>
        <time>2025-04-29T10:23:05Z</time>
      </trkpt>
      <trkpt lat="43.101359037682414" lon="-5.216227993369103">
        <ele>1367.6099999999999</ele>
        <time>2025-04-29T10:23:06Z</time>
      </trkpt>
      <trkpt lat="43.101400025188923" lon="-5.216226987540722">
        <ele>1366.6500000000001</ele>
        <time>2025-04-29T10:23:07Z</time>
      </trkpt>
      <trkpt lat="43.101427014917135" lon="-5.216225981712341">
        <ele>1365.6900000000001</ele>
        <time>2025-04-29T10:23:08Z</time>
      </trkpt>
      <trkpt lat="43.101448975503445" lon="-5.216225981712341">
        <ele>1364.73</ele>
        <time>2025-04-29T10:23:09Z</time>
      </trkpt>
      <trkpt lat="43.101474959403276" lon="-5.216224975883961">
        <ele>1363.77</ele>
        <time>2025-04-29T10:23:10Z</time>
      </trkpt>
      <trkpt lat="43.101514019072056" lon="-5.21622397005558">
        <ele>1362.8099999999999</ele>
        <time>2025-04-29T10:23:11Z</time>
      </trkpt>
      <trkpt lat="43.101643016561866" lon="-5.21622003056109">
        <ele>1361.8399999999999</ele>
        <time>2025-04-29T10:23:13Z</time>
      </trkpt>
      <trkpt lat="43.101822976022959" lon="-5.216216007247567">
        <ele>1359.9200000000001</ele>
        <time>2025-04-29T10:23:15Z</time>
      </trkpt>
      <trkpt lat="43.101926995441318" lon="-5.216212989762425">
        <ele>1358.96</ele>
        <time>2025-04-29T10:23:16Z</time>
      </trkpt>
      <trkpt lat="43.102030009031296" lon="-5.216211983934045">
        <ele>1358.48</ele>
        <time>2025-04-29T10:23:17Z</time>
      </trkpt>
      <trkpt lat="43.10277096927166" lon="-5.216553965583444">
        <ele>1352.71</ele>
        <time>2025-04-29T10:23:23Z</time>
      </trkpt>
      <trkpt lat="43.102884041145444" lon="-5.216620014980435">
        <ele>1351.75</ele>
        <time>2025-04-29T10:23:24Z</time>
      </trkpt>
      <trkpt lat="43.103013960644603" lon="-5.216768039390445">
        <ele>1350.79</ele>
        <time>2025-04-29T10:23:25Z</time>
      </trkpt>
      <trkpt lat="43.103042040020227" lon="-5.216837022453547">
        <ele>1349.8299999999999</ele>
        <time>2025-04-29T10:23:26Z</time>
      </trkpt>
      <trkpt lat="43.103086967021227" lon="-5.216942969709635">
        <ele>1348.8699999999999</ele>
        <time>2025-04-29T10:23:27Z</time>
      </trkpt>
      <trkpt lat="43.103123009204865" lon="-5.217029973864555">
        <ele>1348.3900000000001</ele>
        <time>2025-04-29T10:23:28Z</time>
      </trkpt>
      <trkpt lat="43.10315502807498" lon="-5.217107003554702">
        <ele>1347.4300000000001</ele>
        <time>2025-04-29T10:23:29Z</time>
      </trkpt>
      <trkpt lat="43.103186041116714" lon="-5.217181015759707">
        <ele>1346.9400000000001</ele>
        <time>2025-04-29T10:23:30Z</time>
      </trkpt>
      <trkpt lat="43.103213030844927" lon="-5.217245975509286">
        <ele>1345.98</ele>
        <time>2025-04-29T10:23:31Z</time>
      </trkpt>
      <trkpt lat="43.103228034451604" lon="-5.217283023521304">
        <ele>1345.5</ele>
        <time>2025-04-29T10:23:32Z</time>
      </trkpt>
      <trkpt lat="43.103259969502687" lon="-5.217298027127981">
        <ele>1344.54</ele>
        <time>2025-04-29T10:23:33Z</time>
      </trkpt>
      <trkpt lat="43.103722985833883" lon="-5.217514028772712">
        <ele>1339.25</ele>
        <time>2025-04-29T10:23:41Z</time>
      </trkpt>
      <trkpt lat="43.103818036615849" lon="-5.217558033764362">
        <ele>1338.29</ele>
        <time>2025-04-29T10:23:42Z</time>
      </trkpt>
      <trkpt lat="43.103927001357079" lon="-5.217596003785729">
        <ele>1337.8099999999999</ele>
        <time>2025-04-29T10:23:43Z</time>
      </trkpt>
      <trkpt lat="43.104262026026845" lon="-5.217675967141986">
        <ele>1334.9300000000001</ele>
        <time>2025-04-29T10:23:46Z</time>
      </trkpt>
      <trkpt lat="43.104368979111314" lon="-5.217634979635477">
        <ele>1333.97</ele>
        <time>2025-04-29T10:23:47Z</time>
      </trkpt>
      <trkpt lat="43.10444500297308" lon="-5.217543030157685">
        <ele>1333.49</ele>
        <time>2025-04-29T10:23:48Z</time>
      </trkpt>
      <trkpt lat="43.104592021554708" lon="-5.217367010191083">
        <ele>1331.5599999999999</ele>
        <time>2025-04-29T10:23:50Z</time>
      </trkpt>
      <trkpt lat="43.104646001011133" lon="-5.217304984107614">
        <ele>1330.5999999999999</ele>
        <time>2025-04-29T10:23:51Z</time>
      </trkpt>
      <trkpt lat="43.10472596436739" lon="-5.21733901463449">
        <ele>1330.1199999999999</ele>
        <time>2025-04-29T10:23:52Z</time>
      </trkpt>
      <trkpt lat="43.104796959087253" lon="-5.217386037111282">
        <ele>1328.6800000000001</ele>
        <time>2025-04-29T10:23:53Z</time>
      </trkpt>
      <trkpt lat="43.10481196269393" lon="-5.217489972710609">
        <ele>1327.72</ele>
        <time>2025-04-29T10:23:54Z</time>
      </trkpt>
      <trkpt lat="43.104783967137337" lon="-5.217592986300588">
        <ele>1326.76</ele>
        <time>2025-04-29T10:23:55Z</time>
      </trkpt>
      <trkpt lat="43.104735016822815" lon="-5.217679990455508">
        <ele>1325.8</ele>
        <time>2025-04-29T10:23:56Z</time>
      </trkpt>
      <trkpt lat="43.104649018496275" lon="-5.217735981568694">
        <ele>1324.8299999999999</ele>
        <time>2025-04-29T10:23:57Z</time>
      </trkpt>
      <trkpt lat="43.104556985199451" lon="-5.217795995995402">
        <ele>1323.3900000000001</ele>
        <time>2025-04-29T10:23:58Z</time>
      </trkpt>
      <trkpt lat="43.10446796938777" lon="-5.217853998765349">
        <ele>1321.95</ele>
        <time>2025-04-29T10:23:59Z</time>
      </trkpt>
      <trkpt lat="43.104376019909978" lon="-5.217914013192058">
        <ele>1320.99</ele>
        <time>2025-04-29T10:24:00Z</time>
      </trkpt>
      <trkpt lat="43.10427300632" lon="-5.217980984598398">
        <ele>1319.55</ele>
        <time>2025-04-29T10:24:01Z</time>
      </trkpt>
      <trkpt lat="43.104130011051893" lon="-5.217990959063172">
        <ele>1318.5899999999999</ele>
        <time>2025-04-29T10:24:02Z</time>
      </trkpt>
      <trkpt lat="43.104004031047225" lon="-5.217990959063172">
        <ele>1317.1400000000001</ele>
        <time>2025-04-29T10:24:03Z</time>
      </trkpt>
      <trkpt lat="43.103877967223525" lon="-5.217929016798735">
        <ele>1316.1800000000001</ele>
        <time>2025-04-29T10:24:04Z</time>
      </trkpt>
      <trkpt lat="43.103771014139056" lon="-5.217863973230124">
        <ele>1315.22</ele>
        <time>2025-04-29T10:24:05Z</time>
      </trkpt>
      <trkpt lat="43.1036720238626" lon="-5.217803036794066">
        <ele>1314.74</ele>
        <time>2025-04-29T10:24:06Z</time>
      </trkpt>
      <trkpt lat="43.103592982515693" lon="-5.217755008488894">
        <ele>1313.3</ele>
        <time>2025-04-29T10:24:07Z</time>
      </trkpt>
      <trkpt lat="43.103494998067617" lon="-5.217755008488894">
        <ele>1312.3399999999999</ele>
        <time>2025-04-29T10:24:08Z</time>
      </trkpt>
      <trkpt lat="43.103439006954432" lon="-5.217802030965686">
        <ele>1311.8599999999999</ele>
        <time>2025-04-29T10:24:09Z</time>
      </trkpt>
      <trkpt lat="43.103420985862613" lon="-5.217867996543646">
        <ele>1310.9000000000001</ele>
        <time>2025-04-29T10:24:10Z</time>
      </trkpt>
      <trkpt lat="43.103420985862613" lon="-5.217947959899902">
        <ele>1309.9300000000001</ele>
        <time>2025-04-29T10:24:11Z</time>
      </trkpt>
      <trkpt lat="43.103446969762444" lon="-5.217992970719934">
        <ele>1309.45</ele>
        <time>2025-04-29T10:24:12Z</time>
      </trkpt>
      <trkpt lat="43.10347999446094" lon="-5.218050973489881">
        <ele>1308.97</ele>
        <time>2025-04-29T10:24:13Z</time>
      </trkpt>
      <trkpt lat="43.103506984189153" lon="-5.218097995966673">
        <ele>1308.01</ele>
        <time>2025-04-29T10:24:14Z</time>
      </trkpt>
      <trkpt lat="43.1035459600389" lon="-5.218110987916589">
        <ele>1307.53</ele>
        <time>2025-04-29T10:24:15Z</time>
      </trkpt>
      <trkpt lat="43.103601029142737" lon="-5.218129009008408">
        <ele>1307.05</ele>
        <time>2025-04-29T10:24:16Z</time>
      </trkpt>
      <trkpt lat="43.103666994720697" lon="-5.218151975423098">
        <ele>1306.5699999999999</ele>
        <time>2025-04-29T10:24:17Z</time>
      </trkpt>
      <trkpt lat="43.103747041895986" lon="-5.218177959322929">
        <ele>1306.0899999999999</ele>
        <time>2025-04-29T10:24:18Z</time>
      </trkpt>
      <trkpt lat="43.104448020458221" lon="-5.218368982896209">
        <ele>1301.76</ele>
        <time>2025-04-29T10:24:24Z</time>
      </trkpt>
      <trkpt lat="43.104557991027832" lon="-5.218377029523253">
        <ele>1300.3199999999999</ele>
        <time>2025-04-29T10:24:25Z</time>
      </trkpt>
      <trkpt lat="43.104711966589093" lon="-5.218301005661488">
        <ele>1299.3599999999999</ele>
        <time>2025-04-29T10:24:26Z</time>
      </trkpt>
      <trkpt lat="43.104807017371058" lon="-5.218226993456483">
        <ele>1298.4000000000001</ele>
        <time>2025-04-29T10:24:27Z</time>
      </trkpt>
      <trkpt lat="43.104888992384076" lon="-5.218122974038124">
        <ele>1296.96</ele>
        <time>2025-04-29T10:24:28Z</time>
      </trkpt>
      <trkpt lat="43.104974990710616" lon="-5.218014009296894">
        <ele>1295.51</ele>
        <time>2025-04-29T10:24:29Z</time>
      </trkpt>
      <trkpt lat="43.105058977380395" lon="-5.217907978221774">
        <ele>1294.0699999999999</ele>
        <time>2025-04-29T10:24:30Z</time>
      </trkpt>
      <trkpt lat="43.105151010677218" lon="-5.217861961573362">
        <ele>1293.1099999999999</ele>
        <time>2025-04-29T10:24:31Z</time>
      </trkpt>
      <trkpt lat="43.105228962376714" lon="-5.217861961573362">
        <ele>1292.1500000000001</ele>
        <time>2025-04-29T10:24:32Z</time>
      </trkpt>
      <trkpt lat="43.105284031480551" lon="-5.217939997091889">
        <ele>1290.71</ele>
        <time>2025-04-29T10:24:33Z</time>
      </trkpt>
      <trkpt lat="43.105330970138311" lon="-5.218039993196726">
        <ele>1289.75</ele>
        <time>2025-04-29T10:24:34Z</time>
      </trkpt>
      <trkpt lat="43.105319989845157" lon="-5.218177959322929">
        <ele>1288.78</ele>
        <time>2025-04-29T10:24:35Z</time>
      </trkpt>
      <trkpt lat="43.105257041752338" lon="-5.218265969306231">
        <ele>1288.78</ele>
        <time>2025-04-29T10:24:36Z</time>
      </trkpt>
      <trkpt lat="43.105171965435147" lon="-5.218353979289532">
        <ele>1288.3</ele>
        <time>2025-04-29T10:24:37Z</time>
      </trkpt>
      <trkpt lat="43.105070041492581" lon="-5.21843696013093">
        <ele>1287.8199999999999</ele>
        <time>2025-04-29T10:24:38Z</time>
      </trkpt>
      <trkpt lat="43.104593027383089" lon="-5.218793023377657">
        <ele>1284.9400000000001</ele>
        <time>2025-04-29T10:24:42Z</time>
      </trkpt>
      <trkpt lat="43.104454977437854" lon="-5.218847002834082">
        <ele>1284.46</ele>
        <time>2025-04-29T10:24:43Z</time>
      </trkpt>
      <trkpt lat="43.104324974119663" lon="-5.218881033360958">
        <ele>1283.98</ele>
        <time>2025-04-29T10:24:44Z</time>
      </trkpt>
      <trkpt lat="43.104193964973092" lon="-5.218913974240422">
        <ele>1283.02</ele>
        <time>2025-04-29T10:24:45Z</time>
      </trkpt>
      <trkpt lat="43.104051975533366" lon="-5.218895031139255">
        <ele>1281.5699999999999</ele>
        <time>2025-04-29T10:24:46Z</time>
      </trkpt>
      <trkpt lat="43.103916021063924" lon="-5.218877010047436">
        <ele>1280.1300000000001</ele>
        <time>2025-04-29T10:24:47Z</time>
      </trkpt>
      <trkpt lat="43.103786017745733" lon="-5.218830993399024">
        <ele>1278.6900000000001</ele>
        <time>2025-04-29T10:24:48Z</time>
      </trkpt>
      <trkpt lat="43.103649979457259" lon="-5.218768967315555">
        <ele>1276.77</ele>
        <time>2025-04-29T10:24:49Z</time>
      </trkpt>
      <trkpt lat="43.103513019159436" lon="-5.218706019222736">
        <ele>1274.8499999999999</ele>
        <time>2025-04-29T10:24:50Z</time>
      </trkpt>
      <trkpt lat="43.103381004184484" lon="-5.218646004796028">
        <ele>1272.4400000000001</ele>
        <time>2025-04-29T10:24:51Z</time>
      </trkpt>
      <trkpt lat="43.103252006694674" lon="-5.218603005632758">
        <ele>1271</ele>
        <time>2025-04-29T10:24:52Z</time>
      </trkpt>
      <trkpt lat="43.103125020861626" lon="-5.218565035611391">
        <ele>1269.0799999999999</ele>
        <time>2025-04-29T10:24:53Z</time>
      </trkpt>
      <trkpt lat="43.103000968694687" lon="-5.218527987599373">
        <ele>1267.6400000000001</ele>
        <time>2025-04-29T10:24:54Z</time>
      </trkpt>
      <trkpt lat="43.102880017831922" lon="-5.218492029234767">
        <ele>1266.1900000000001</ele>
        <time>2025-04-29T10:24:55Z</time>
      </trkpt>
      <trkpt lat="43.102712966501713" lon="-5.218441989272833">
        <ele>1264.27</ele>
        <time>2025-04-29T10:24:57Z</time>
      </trkpt>
      <trkpt lat="43.102610958740115" lon="-5.218492029234767">
        <ele>1262.8299999999999</ele>
        <time>2025-04-29T10:24:58Z</time>
      </trkpt>
      <trkpt lat="43.102540969848633" lon="-5.218526981770992">
        <ele>1261.8699999999999</ele>
        <time>2025-04-29T10:24:59Z</time>
      </trkpt>
      <trkpt lat="43.102540969848633" lon="-5.218635024502873">
        <ele>1260.4300000000001</ele>
        <time>2025-04-29T10:25:00Z</time>
      </trkpt>
      <trkpt lat="43.102542981505394" lon="-5.218785982578993">
        <ele>1258.5</ele>
        <time>2025-04-29T10:25:01Z</time>
      </trkpt>
      <trkpt lat="43.102639960125089" lon="-5.218870975077152">
        <ele>1256.0999999999999</ele>
        <time>2025-04-29T10:25:02Z</time>
      </trkpt>
      <trkpt lat="43.10277096927166" lon="-5.218935012817383">
        <ele>1254.1800000000001</ele>
        <time>2025-04-29T10:25:03Z</time>
      </trkpt>
      <trkpt lat="43.102908013388515" lon="-5.218935012817383">
        <ele>1252.74</ele>
        <time>2025-04-29T10:25:04Z</time>
      </trkpt>
      <trkpt lat="43.103053020313382" lon="-5.218935012817383">
        <ele>1250.8099999999999</ele>
        <time>2025-04-29T10:25:05Z</time>
      </trkpt>
      <trkpt lat="43.103185035288334" lon="-5.218955967575312">
        <ele>1248.8900000000001</ele>
        <time>2025-04-29T10:25:06Z</time>
      </trkpt>
      <trkpt lat="43.103309003636241" lon="-5.218997960910201">
        <ele>1246.97</ele>
        <time>2025-04-29T10:25:07Z</time>
      </trkpt>
      <trkpt lat="43.103441018611193" lon="-5.219107009470463">
        <ele>1244.5599999999999</ele>
        <time>2025-04-29T10:25:08Z</time>
      </trkpt>
      <trkpt lat="43.103592982515693" lon="-5.219235001131892">
        <ele>1241.6800000000001</ele>
        <time>2025-04-29T10:25:09Z</time>
      </trkpt>
      <trkpt lat="43.103740001097322" lon="-5.219318987801671">
        <ele>1238.3199999999999</ele>
        <time>2025-04-29T10:25:10Z</time>
      </trkpt>
      <trkpt lat="43.103897999972105" lon="-5.219410015270114">
        <ele>1235.4300000000001</ele>
        <time>2025-04-29T10:25:11Z</time>
      </trkpt>
      <trkpt lat="43.10433897189796" lon="-5.21961503662169">
        <ele>1224.3800000000001</ele>
        <time>2025-04-29T10:25:14Z</time>
      </trkpt>
      <trkpt lat="43.104481967166066" lon="-5.219650994986296">
        <ele>1220.53</ele>
        <time>2025-04-29T10:25:15Z</time>
      </trkpt>
      <trkpt lat="43.104773992672563" lon="-5.219625011086464">
        <ele>1213.3199999999999</ele>
        <time>2025-04-29T10:25:17Z</time>
      </trkpt>
      <trkpt lat="43.104922017082572" lon="-5.219601038843393">
        <ele>1209</ele>
        <time>2025-04-29T10:25:18Z</time>
      </trkpt>
      <trkpt lat="43.105055037885904" lon="-5.219544041901827">
        <ele>1205.1500000000001</ele>
        <time>2025-04-29T10:25:19Z</time>
      </trkpt>
      <trkpt lat="43.105846038088202" lon="-5.219299960881472">
        <ele>1182.5599999999999</ele>
        <time>2025-04-29T10:25:24Z</time>
      </trkpt>
      <trkpt lat="43.10594704002142" lon="-5.219238018617034">
        <ele>1178.23</ele>
        <time>2025-04-29T10:25:25Z</time>
      </trkpt>
      <trkpt lat="43.106049969792366" lon="-5.219173980876803">
        <ele>1174.3900000000001</ele>
        <time>2025-04-29T10:25:26Z</time>
      </trkpt>
      <trkpt lat="43.106151977553964" lon="-5.219141962006688">
        <ele>1170.54</ele>
        <time>2025-04-29T10:25:27Z</time>
      </trkpt>
      <trkpt lat="43.106217021122575" lon="-5.219190996140242">
        <ele>1166.22</ele>
        <time>2025-04-29T10:25:28Z</time>
      </trkpt>
      <trkpt lat="43.106238981708884" lon="-5.219256961718202">
        <ele>1162.3699999999999</ele>
        <time>2025-04-29T10:25:29Z</time>
      </trkpt>
      <trkpt lat="43.106275023892522" lon="-5.219363998621702">
        <ele>1158.53</ele>
        <time>2025-04-29T10:25:30Z</time>
      </trkpt>
      <trkpt lat="43.106240993365645" lon="-5.219431975856423">
        <ele>1155.1600000000001</ele>
        <time>2025-04-29T10:25:31Z</time>
      </trkpt>
      <trkpt lat="43.106111995875835" lon="-5.219506993889809">
        <ele>1151.8</ele>
        <time>2025-04-29T10:25:32Z</time>
      </trkpt>
      <trkpt lat="43.10599397867918" lon="-5.219525014981628">
        <ele>1148.9100000000001</ele>
        <time>2025-04-29T10:25:33Z</time>
      </trkpt>
      <trkpt lat="43.105858024209738" lon="-5.219544963911176">
        <ele>1145.55</ele>
        <time>2025-04-29T10:25:34Z</time>
      </trkpt>
      <trkpt lat="43.105702036991715" lon="-5.219332985579968">
        <ele>1142.1800000000001</ele>
        <time>2025-04-29T10:25:35Z</time>
      </trkpt>
      <trkpt lat="43.105572033673525" lon="-5.219361986964941">
        <ele>1139.3</ele>
        <time>2025-04-29T10:25:36Z</time>
      </trkpt>
      <trkpt lat="43.105438007041812" lon="-5.219391994178295">
        <ele>1135.9400000000001</ele>
        <time>2025-04-29T10:25:37Z</time>
      </trkpt>
      <trkpt lat="43.105311021208763" lon="-5.219433987513185">
        <ele>1132.5699999999999</ele>
        <time>2025-04-29T10:25:38Z</time>
      </trkpt>
      <trkpt lat="43.105267016217113" lon="-5.219772029668093">
        <ele>1129.6900000000001</ele>
        <time>2025-04-29T10:25:39Z</time>
      </trkpt>
      <trkpt lat="43.105247989296913" lon="-5.219802036881447">
        <ele>1126.8</ele>
        <time>2025-04-29T10:25:40Z</time>
      </trkpt>
      <trkpt lat="43.105179006233811" lon="-5.219912007451057">
        <ele>1123.9200000000001</ele>
        <time>2025-04-29T10:25:41Z</time>
      </trkpt>
      <trkpt lat="43.105117985978723" lon="-5.220009991899133">
        <ele>1121.52</ele>
        <time>2025-04-29T10:25:42Z</time>
      </trkpt>
      <trkpt lat="43.104942971840501" lon="-5.220154998824">
        <ele>1118.6300000000001</ele>
        <time>2025-04-29T10:25:43Z</time>
      </trkpt>
      <trkpt lat="43.104805005714297" lon="-5.220204032957554">
        <ele>1116.23</ele>
        <time>2025-04-29T10:25:44Z</time>
      </trkpt>
      <trkpt lat="43.104093968868256" lon="-5.220349039882422">
        <ele>1103.73</ele>
        <time>2025-04-29T10:25:49Z</time>
      </trkpt>
      <trkpt lat="43.103968994691968" lon="-5.220360020175576">
        <ele>1101.3299999999999</ele>
        <time>2025-04-29T10:25:50Z</time>
      </trkpt>
      <trkpt lat="43.103852989152074" lon="-5.220371000468731">
        <ele>1099.4000000000001</ele>
        <time>2025-04-29T10:25:51Z</time>
      </trkpt>
      <trkpt lat="43.103787023574114" lon="-5.220392039045692">
        <ele>1097</ele>
        <time>2025-04-29T10:25:52Z</time>
      </trkpt>
      <trkpt lat="43.103691972792149" lon="-5.220436966046691">
        <ele>1094.5999999999999</ele>
        <time>2025-04-29T10:25:53Z</time>
      </trkpt>
      <trkpt lat="43.103600023314357" lon="-5.220479965209961">
        <ele>1092.2</ele>
        <time>2025-04-29T10:25:54Z</time>
      </trkpt>
      <trkpt lat="43.103487035259604" lon="-5.220525981858373">
        <ele>1090.27</ele>
        <time>2025-04-29T10:25:55Z</time>
      </trkpt>
      <trkpt lat="43.103378992527723" lon="-5.220544002950192">
        <ele>1087.8699999999999</ele>
        <time>2025-04-29T10:25:56Z</time>
      </trkpt>
      <trkpt lat="43.102510962635279" lon="-5.220568981021643">
        <ele>1074.4100000000001</ele>
        <time>2025-04-29T10:26:02Z</time>
      </trkpt>
      <trkpt lat="43.102352963760495" lon="-5.220550037920475">
        <ele>1072.49</ele>
        <time>2025-04-29T10:26:03Z</time>
      </trkpt>
      <trkpt lat="43.102178033441305" lon="-5.22047602571547">
        <ele>1070.5699999999999</ele>
        <time>2025-04-29T10:26:04Z</time>
      </trkpt>
      <trkpt lat="43.102035038173199" lon="-5.220400001853705">
        <ele>1068.1600000000001</ele>
        <time>2025-04-29T10:26:05Z</time>
      </trkpt>
      <trkpt lat="43.101758016273379" lon="-5.220250971615315">
        <ele>1063.3599999999999</ele>
        <time>2025-04-29T10:26:07Z</time>
      </trkpt>
      <trkpt lat="43.101704958826303" lon="-5.220222976058722">
        <ele>1060.47</ele>
        <time>2025-04-29T10:26:08Z</time>
      </trkpt>
      <trkpt lat="43.101571016013622" lon="-5.22026002407074">
        <ele>1058.0699999999999</ele>
        <time>2025-04-29T10:26:09Z</time>
      </trkpt>
      <trkpt lat="43.101450987160206" lon="-5.220293970778585">
        <ele>1056.1500000000001</ele>
        <time>2025-04-29T10:26:10Z</time>
      </trkpt>
      <trkpt lat="43.101320983842015" lon="-5.220331018790603">
        <ele>1053.74</ele>
        <time>2025-04-29T10:26:11Z</time>
      </trkpt>
      <trkpt lat="43.101178994402289" lon="-5.220371000468731">
        <ele>1051.8199999999999</ele>
        <time>2025-04-29T10:26:12Z</time>
      </trkpt>
      <trkpt lat="43.101041028276086" lon="-5.220409976318479">
        <ele>1049.9000000000001</ele>
        <time>2025-04-29T10:26:13Z</time>
      </trkpt>
      <trkpt lat="43.100912030786276" lon="-5.220446018502116">
        <ele>1047.97</ele>
        <time>2025-04-29T10:26:14Z</time>
      </trkpt>
      <trkpt lat="43.100717989727855" lon="-5.220501003786922">
        <ele>1046.53</ele>
        <time>2025-04-29T10:26:15Z</time>
      </trkpt>
      <trkpt lat="43.100648000836372" lon="-5.220460016280413">
        <ele>1044.6099999999999</ele>
        <time>2025-04-29T10:26:16Z</time>
      </trkpt>
      <trkpt lat="43.100553033873439" lon="-5.220403019338846">
        <ele>1043.1700000000001</ele>
        <time>2025-04-29T10:26:17Z</time>
      </trkpt>
      <trkpt lat="43.100476004183292" lon="-5.220236973837018">
        <ele>1041.73</ele>
        <time>2025-04-29T10:26:18Z</time>
      </trkpt>
      <trkpt lat="43.10044901445508" lon="-5.220101019367576">
        <ele>1039.8</ele>
        <time>2025-04-29T10:26:19Z</time>
      </trkpt>
      <trkpt lat="43.100420013070107" lon="-5.21996003575623">
        <ele>1037.4000000000001</ele>
        <time>2025-04-29T10:26:20Z</time>
      </trkpt>
      <trkpt lat="43.100416995584965" lon="-5.219944026321173">
        <ele>1035</ele>
        <time>2025-04-29T10:26:21Z</time>
      </trkpt>
      <trkpt lat="43.100416995584965" lon="-5.219944026321173">
        <ele>1032.5899999999999</ele>
        <time>2025-04-29T10:26:22Z</time>
      </trkpt>
      <trkpt lat="43.100267965346575" lon="-5.219813017174602">
        <ele>1030.1900000000001</ele>
        <time>2025-04-29T10:26:23Z</time>
      </trkpt>
      <trkpt lat="43.100246004760265" lon="-5.219792984426022">
        <ele>1027.3099999999999</ele>
        <time>2025-04-29T10:26:24Z</time>
      </trkpt>
      <trkpt lat="43.10023401863873" lon="-5.219802036881447">
        <ele>1024.9000000000001</ele>
        <time>2025-04-29T10:26:25Z</time>
      </trkpt>
      <trkpt lat="43.100180039182305" lon="-5.219840006902814">
        <ele>1022.02</ele>
        <time>2025-04-29T10:26:26Z</time>
      </trkpt>
      <trkpt lat="43.100094962865114" lon="-5.219903960824013">
        <ele>1019.13</ele>
        <time>2025-04-29T10:26:27Z</time>
      </trkpt>
      <trkpt lat="43.100093035027385" lon="-5.220190035179257">
        <ele>1016.25</ele>
        <time>2025-04-29T10:26:28Z</time>
      </trkpt>
      <trkpt lat="43.100168975070119" lon="-5.220310986042023">
        <ele>1013.37</ele>
        <time>2025-04-29T10:26:29Z</time>
      </trkpt>
      <trkpt lat="43.100386988371611" lon="-5.220613991841674">
        <ele>1008.08</ele>
        <time>2025-04-29T10:26:31Z</time>
      </trkpt>
      <trkpt lat="43.100645989179611" lon="-5.220459010452032">
        <ele>1005.2</ele>
        <time>2025-04-29T10:26:32Z</time>
      </trkpt>
      <trkpt lat="43.100717989727855" lon="-5.220501003786922">
        <ele>1002.3099999999999</ele>
        <time>2025-04-29T10:26:33Z</time>
      </trkpt>
      <trkpt lat="43.1008589733392" lon="-5.220462027937174">
        <ele>999.42999999999995</ele>
        <time>2025-04-29T10:26:34Z</time>
      </trkpt>
      <trkpt lat="43.100976990535855" lon="-5.220427997410297">
        <ele>996.05999999999995</ele>
        <time>2025-04-29T10:26:35Z</time>
      </trkpt>
      <trkpt lat="43.101091990247369" lon="-5.220395978540182">
        <ele>993.17999999999995</ele>
        <time>2025-04-29T10:26:36Z</time>
      </trkpt>
      <trkpt lat="43.101188968867064" lon="-5.220367982983589">
        <ele>990.29999999999995</ele>
        <time>2025-04-29T10:26:37Z</time>
      </trkpt>
      <trkpt lat="43.101256024092436" lon="-5.220889002084732">
        <ele>987.88999999999999</ele>
        <time>2025-04-29T10:26:38Z</time>
      </trkpt>
      <trkpt lat="43.101624995470047" lon="-5.221101986244321">
        <ele>981.63999999999999</ele>
        <time>2025-04-29T10:26:41Z</time>
      </trkpt>
      <trkpt lat="43.101735971868038" lon="-5.221101986244321">
        <ele>979.24000000000001</ele>
        <time>2025-04-29T10:26:42Z</time>
      </trkpt>
      <trkpt lat="43.101850971579552" lon="-5.221101986244321">
        <ele>976.84000000000003</ele>
        <time>2025-04-29T10:26:43Z</time>
      </trkpt>
      <trkpt lat="43.101973012089729" lon="-5.221101986244321">
        <ele>974.90999999999997</ele>
        <time>2025-04-29T10:26:44Z</time>
      </trkpt>
      <trkpt lat="43.102091029286385" lon="-5.221101986244321">
        <ele>972.50999999999999</ele>
        <time>2025-04-29T10:26:45Z</time>
      </trkpt>
      <trkpt lat="43.102200999855995" lon="-5.221126964315772">
        <ele>970.59000000000003</ele>
        <time>2025-04-29T10:26:46Z</time>
      </trkpt>
      <trkpt lat="43.102308958768845" lon="-5.221152026206255">
        <ele>968.66999999999996</ele>
        <time>2025-04-29T10:26:47Z</time>
      </trkpt>
      <trkpt lat="43.102495959028602" lon="-5.221195025369525">
        <ele>964.34000000000003</ele>
        <time>2025-04-29T10:26:49Z</time>
      </trkpt>
      <trkpt lat="43.102581035345793" lon="-5.221213968470693">
        <ele>962.41999999999996</ele>
        <time>2025-04-29T10:26:50Z</time>
      </trkpt>
      <trkpt lat="43.103036005049944" lon="-5.221353024244309">
        <ele>955.69000000000005</ele>
        <time>2025-04-29T10:26:54Z</time>
      </trkpt>
      <trkpt lat="43.103162990882993" lon="-5.221403986215591">
        <ele>954.25</ele>
        <time>2025-04-29T10:26:55Z</time>
      </trkpt>
      <trkpt lat="43.103295005857944" lon="-5.221457965672016">
        <ele>953.27999999999997</ele>
        <time>2025-04-29T10:26:56Z</time>
      </trkpt>
      <trkpt lat="43.104078965261579" lon="-5.22165996953845">
        <ele>946.55999999999995</ele>
        <time>2025-04-29T10:27:02Z</time>
      </trkpt>
      <trkpt lat="43.10423000715673" lon="-5.221629040315747">
        <ele>947.03999999999996</ele>
        <time>2025-04-29T10:27:03Z</time>
      </trkpt>
      <trkpt lat="43.104495964944363" lon="-5.221488978713751">
        <ele>945.59000000000003</ele>
        <time>2025-04-29T10:27:05Z</time>
      </trkpt>
      <trkpt lat="43.104657987132668" lon="-5.221471041440964">
        <ele>947.51999999999998</ele>
        <time>2025-04-29T10:27:06Z</time>
      </trkpt>
      <trkpt lat="43.104844987392426" lon="-5.221476992592216">
        <ele>950.88</ele>
        <time>2025-04-29T10:27:07Z</time>
      </trkpt>
      <trkpt lat="43.105152016505599" lon="-5.22148696705699">
        <ele>948.48000000000002</ele>
        <time>2025-04-29T10:27:09Z</time>
      </trkpt>
      <trkpt lat="43.105271039530635" lon="-5.22152703255415">
        <ele>947.03999999999996</ele>
        <time>2025-04-29T10:27:10Z</time>
      </trkpt>
      <trkpt lat="43.105371035635471" lon="-5.221598027274013">
        <ele>946.07000000000005</ele>
        <time>2025-04-29T10:27:11Z</time>
      </trkpt>
      <trkpt lat="43.105445969849825" lon="-5.221685031428933">
        <ele>945.11000000000001</ele>
        <time>2025-04-29T10:27:12Z</time>
      </trkpt>
      <trkpt lat="43.105534985661507" lon="-5.221787039190531">
        <ele>946.55999999999995</ele>
        <time>2025-04-29T10:27:13Z</time>
      </trkpt>
      <trkpt lat="43.105630958452821" lon="-5.221896003931761">
        <ele>947.51999999999998</ele>
        <time>2025-04-29T10:27:14Z</time>
      </trkpt>
      <trkpt lat="43.105732966214418" lon="-5.221954006701708">
        <ele>946.07000000000005</ele>
        <time>2025-04-29T10:27:15Z</time>
      </trkpt>
      <trkpt lat="43.105859030038118" lon="-5.221966998651624">
        <ele>944.63</ele>
        <time>2025-04-29T10:27:16Z</time>
      </trkpt>
      <trkpt lat="43.10599003918469" lon="-5.221942020580173">
        <ele>945.59000000000003</ele>
        <time>2025-04-29T10:27:17Z</time>
      </trkpt>
      <trkpt lat="43.106134962290525" lon="-5.221913019195199">
        <ele>946.55999999999995</ele>
        <time>2025-04-29T10:27:18Z</time>
      </trkpt>
      <trkpt lat="43.10644400306046" lon="-5.221853004768491">
        <ele>952.79999999999995</ele>
        <time>2025-04-29T10:27:20Z</time>
      </trkpt>
      <trkpt lat="43.106608958914876" lon="-5.22185199894011">
        <ele>955.21000000000004</ele>
        <time>2025-04-29T10:27:21Z</time>
      </trkpt>
      <trkpt lat="43.106768969446421" lon="-5.221912013366818">
        <ele>960.00999999999999</ele>
        <time>2025-04-29T10:27:22Z</time>
      </trkpt>
      <trkpt lat="43.106930991634727" lon="-5.221973033621907">
        <ele>963.86000000000001</ele>
        <time>2025-04-29T10:27:23Z</time>
      </trkpt>
      <trkpt lat="43.107091002166271" lon="-5.222032964229584">
        <ele>967.70000000000005</ele>
        <time>2025-04-29T10:27:24Z</time>
      </trkpt>
      <trkpt lat="43.107371963560581" lon="-5.222199009731412">
        <ele>966.25999999999999</ele>
        <time>2025-04-29T10:27:26Z</time>
      </trkpt>
      <trkpt lat="43.107497021555901" lon="-5.222303029149771">
        <ele>965.29999999999995</ele>
        <time>2025-04-29T10:27:27Z</time>
      </trkpt>
      <trkpt lat="43.107612021267414" lon="-5.222399001941085">
        <ele>964.34000000000003</ele>
        <time>2025-04-29T10:27:28Z</time>
      </trkpt>
      <trkpt lat="43.107724003493786" lon="-5.222492041066289">
        <ele>963.38</ele>
        <time>2025-04-29T10:27:29Z</time>
      </trkpt>
      <trkpt lat="43.107756022363901" lon="-5.222519030794501">
        <ele>963.38</ele>
        <time>2025-04-29T10:27:30Z</time>
      </trkpt>
      <trkpt lat="43.107950985431671" lon="-5.222519030794501">
        <ele>962.41999999999996</ele>
        <time>2025-04-29T10:27:31Z</time>
      </trkpt>
      <trkpt lat="43.108078977093101" lon="-5.222519030794501">
        <ele>960.98000000000002</ele>
        <time>2025-04-29T10:27:32Z</time>
      </trkpt>
      <trkpt lat="43.108209986239672" lon="-5.222519030794501">
        <ele>960.49000000000001</ele>
        <time>2025-04-29T10:27:33Z</time>
      </trkpt>
      <trkpt lat="43.10833596624434" lon="-5.222519030794501">
        <ele>959.52999999999997</ele>
        <time>2025-04-29T10:27:34Z</time>
      </trkpt>
      <trkpt lat="43.108357004821301" lon="-5.222519030794501">
        <ele>959.04999999999995</ele>
        <time>2025-04-29T10:27:35Z</time>
      </trkpt>
      <trkpt lat="43.108467981219292" lon="-5.222451975569129">
        <ele>959.04999999999995</ele>
        <time>2025-04-29T10:27:36Z</time>
      </trkpt>
      <trkpt lat="43.10857099480927" lon="-5.222390033304691">
        <ele>958.09000000000003</ele>
        <time>2025-04-29T10:27:37Z</time>
      </trkpt>
      <trkpt lat="43.108587004244328" lon="-5.22236698307097">
        <ele>958.57000000000005</ele>
        <time>2025-04-29T10:27:38Z</time>
      </trkpt>
      <trkpt lat="43.108655987307429" lon="-5.222264975309372">
        <ele>958.57000000000005</ele>
        <time>2025-04-29T10:27:39Z</time>
      </trkpt>
      <trkpt lat="43.108727987855673" lon="-5.222161039710045">
        <ele>957.61000000000001</ele>
        <time>2025-04-29T10:27:40Z</time>
      </trkpt>
      <trkpt lat="43.10885002836585" lon="-5.221982002258301">
        <ele>957.13</ele>
        <time>2025-04-29T10:27:41Z</time>
      </trkpt>
      <trkpt lat="43.108874000608921" lon="-5.22191695868969">
        <ele>956.64999999999998</ele>
        <time>2025-04-29T10:27:42Z</time>
      </trkpt>
      <trkpt lat="43.108930997550488" lon="-5.221758959814906">
        <ele>956.64999999999998</ele>
        <time>2025-04-29T10:27:43Z</time>
      </trkpt>
      <trkpt lat="43.10902202501893" lon="-5.221510017290711">
        <ele>956.64999999999998</ele>
        <time>2025-04-29T10:27:44Z</time>
      </trkpt>
      <trkpt lat="43.109073992818594" lon="-5.22144103422761">
        <ele>955.69000000000005</ele>
        <time>2025-04-29T10:27:45Z</time>
      </trkpt>
      <trkpt lat="43.109168959781528" lon="-5.221316982060671">
        <ele>955.21000000000004</ele>
        <time>2025-04-29T10:27:46Z</time>
      </trkpt>
      <trkpt lat="43.109358977526426" lon="-5.221039038151503">
        <ele>952.32000000000005</ele>
        <time>2025-04-29T10:27:48Z</time>
      </trkpt>
      <trkpt lat="43.109436007216573" lon="-5.220897970721126">
        <ele>950.88</ele>
        <time>2025-04-29T10:27:49Z</time>
      </trkpt>
      <trkpt lat="43.109539020806551" lon="-5.220707030966878">
        <ele>949.44000000000005</ele>
        <time>2025-04-29T10:27:50Z</time>
      </trkpt>
      <trkpt lat="43.109596017748117" lon="-5.220507038757205">
        <ele>948.48000000000002</ele>
        <time>2025-04-29T10:27:51Z</time>
      </trkpt>
      <trkpt lat="43.109625019133091" lon="-5.220403019338846">
        <ele>949.44000000000005</ele>
        <time>2025-04-29T10:27:52Z</time>
      </trkpt>
      <trkpt lat="43.109661983326077" lon="-5.220273016020656">
        <ele>949.44000000000005</ele>
        <time>2025-04-29T10:27:53Z</time>
      </trkpt>
      <trkpt lat="43.10971001163125" lon="-5.220104958862066">
        <ele>948.96000000000004</ele>
        <time>2025-04-29T10:27:54Z</time>
      </trkpt>
      <trkpt lat="43.10975301079452" lon="-5.219952994957566">
        <ele>947.03999999999996</ele>
        <time>2025-04-29T10:27:55Z</time>
      </trkpt>
      <trkpt lat="43.10985904186964" lon="-5.219578994438052">
        <ele>946.07000000000005</ele>
        <time>2025-04-29T10:27:56Z</time>
      </trkpt>
      <trkpt lat="43.109852001070976" lon="-5.219521997496486">
        <ele>945.11000000000001</ele>
        <time>2025-04-29T10:27:57Z</time>
      </trkpt>
      <trkpt lat="43.109830040484667" lon="-5.219345977529883">
        <ele>944.63</ele>
        <time>2025-04-29T10:27:58Z</time>
      </trkpt>
      <trkpt lat="43.109810007736087" lon="-5.219174986705184">
        <ele>943.66999999999996</ele>
        <time>2025-04-29T10:27:59Z</time>
      </trkpt>
      <trkpt lat="43.109797015786171" lon="-5.219069961458445">
        <ele>944.63</ele>
        <time>2025-04-29T10:28:00Z</time>
      </trkpt>
      <trkpt lat="43.109772959724069" lon="-5.218741977587342">
        <ele>945.59000000000003</ele>
        <time>2025-04-29T10:28:01Z</time>
      </trkpt>
      <trkpt lat="43.109772959724069" lon="-5.218741977587342">
        <ele>947.03999999999996</ele>
        <time>2025-04-29T10:28:02Z</time>
      </trkpt>
      <trkpt lat="43.109879996627569" lon="-5.218569980934262">
        <ele>948.96000000000004</ele>
        <time>2025-04-29T10:28:03Z</time>
      </trkpt>
      <trkpt lat="43.11011997051537" lon="-5.218469984829426">
        <ele>948.48000000000002</ele>
        <time>2025-04-29T10:28:05Z</time>
      </trkpt>
      <trkpt lat="43.110214015468955" lon="-5.218430003151298">
        <ele>947.51999999999998</ele>
        <time>2025-04-29T10:28:06Z</time>
      </trkpt>
      <trkpt lat="43.110316023230553" lon="-5.218388009816408">
        <ele>947.03999999999996</ele>
        <time>2025-04-29T10:28:07Z</time>
      </trkpt>
      <trkpt lat="43.110426999628544" lon="-5.218340987339616">
        <ele>947.51999999999998</ele>
        <time>2025-04-29T10:28:08Z</time>
      </trkpt>
      <trkpt lat="43.110597990453243" lon="-5.218311985954642">
        <ele>948</ele>
        <time>2025-04-29T10:28:09Z</time>
      </trkpt>
      <trkpt lat="43.110760012641549" lon="-5.218377029523253">
        <ele>948</ele>
        <time>2025-04-29T10:28:10Z</time>
      </trkpt>
      <trkpt lat="43.110838970169425" lon="-5.21845699287951">
        <ele>948.48000000000002</ele>
        <time>2025-04-29T10:28:11Z</time>
      </trkpt>
      <trkpt lat="43.111060000956059" lon="-5.218678023666143">
        <ele>948.96000000000004</ele>
        <time>2025-04-29T10:28:13Z</time>
      </trkpt>
      <trkpt lat="43.111147005110979" lon="-5.218835016712546">
        <ele>949.44000000000005</ele>
        <time>2025-04-29T10:28:14Z</time>
      </trkpt>
      <trkpt lat="43.111172989010811" lon="-5.218977006152272">
        <ele>948.96000000000004</ele>
        <time>2025-04-29T10:28:15Z</time>
      </trkpt>
      <trkpt lat="43.111176006495953" lon="-5.219180015847087">
        <ele>949.44000000000005</ele>
        <time>2025-04-29T10:28:16Z</time>
      </trkpt>
      <trkpt lat="43.111156979575753" lon="-5.219345977529883">
        <ele>949.44000000000005</ele>
        <time>2025-04-29T10:28:17Z</time>
      </trkpt>
      <trkpt lat="43.111137030646205" lon="-5.219521997496486">
        <ele>949.91999999999996</ele>
        <time>2025-04-29T10:28:18Z</time>
      </trkpt>
      <trkpt lat="43.111112974584103" lon="-5.219733975827694">
        <ele>949.91999999999996</ele>
        <time>2025-04-29T10:28:19Z</time>
      </trkpt>
      <trkpt lat="43.111089002341032" lon="-5.219946037977934">
        <ele>950.39999999999998</ele>
        <time>2025-04-29T10:28:20Z</time>
      </trkpt>
      <trkpt lat="43.111027982085943" lon="-5.220156004652381">
        <ele>951.36000000000001</ele>
        <time>2025-04-29T10:28:21Z</time>
      </trkpt>
      <trkpt lat="43.110953969880939" lon="-5.220360020175576">
        <ele>951.84000000000003</ele>
        <time>2025-04-29T10:28:22Z</time>
      </trkpt>
      <trkpt lat="43.110876018181443" lon="-5.220577027648687">
        <ele>951.84000000000003</ele>
        <time>2025-04-29T10:28:23Z</time>
      </trkpt>
      <trkpt lat="43.110798988491297" lon="-5.220791017636657">
        <ele>951.36000000000001</ele>
        <time>2025-04-29T10:28:24Z</time>
      </trkpt>
      <trkpt lat="43.11072195880115" lon="-5.221002995967865">
        <ele>951.84000000000003</ele>
        <time>2025-04-29T10:28:25Z</time>
      </trkpt>
      <trkpt lat="43.110646018758416" lon="-5.221212962642312">
        <ele>951.84000000000003</ele>
        <time>2025-04-29T10:28:26Z</time>
      </trkpt>
      <trkpt lat="43.110426999628544" lon="-5.221811011433601">
        <ele>952.79999999999995</ele>
        <time>2025-04-29T10:28:29Z</time>
      </trkpt>
      <trkpt lat="43.110328009352088" lon="-5.22198099642992">
        <ele>953.76999999999998</ele>
        <time>2025-04-29T10:28:30Z</time>
      </trkpt>
      <trkpt lat="43.110216027125716" lon="-5.222077975049615">
        <ele>954.25</ele>
        <time>2025-04-29T10:28:31Z</time>
      </trkpt>
      <trkpt lat="43.110111001878977" lon="-5.222166990861297">
        <ele>954.25</ele>
        <time>2025-04-29T10:28:32Z</time>
      </trkpt>
      <trkpt lat="43.110026009380817" lon="-5.222262963652611">
        <ele>953.27999999999997</ele>
        <time>2025-04-29T10:28:33Z</time>
      </trkpt>
      <trkpt lat="43.109954008832574" lon="-5.222405958920717">
        <ele>952.32000000000005</ele>
        <time>2025-04-29T10:28:34Z</time>
      </trkpt>
      <trkpt lat="43.109902963042259" lon="-5.222576027736068">
        <ele>951.84000000000003</ele>
        <time>2025-04-29T10:28:35Z</time>
      </trkpt>
      <trkpt lat="43.109849989414215" lon="-5.22275104187429">
        <ele>951.36000000000001</ele>
        <time>2025-04-29T10:28:36Z</time>
      </trkpt>
      <trkpt lat="43.109750999137759" lon="-5.22307600826025">
        <ele>950.39999999999998</ele>
        <time>2025-04-29T10:28:38Z</time>
      </trkpt>
      <trkpt lat="43.109750999137759" lon="-5.223255967721343">
        <ele>949.91999999999996</ele>
        <time>2025-04-29T10:28:39Z</time>
      </trkpt>
      <trkpt lat="43.109763991087675" lon="-5.223473981022835">
        <ele>950.39999999999998</ele>
        <time>2025-04-29T10:28:40Z</time>
      </trkpt>
      <trkpt lat="43.109959959983826" lon="-5.224272022023797">
        <ele>949.91999999999996</ele>
        <time>2025-04-29T10:28:44Z</time>
      </trkpt>
      <trkpt lat="43.110034978017211" lon="-5.224457010626793">
        <ele>949.44000000000005</ele>
        <time>2025-04-29T10:28:45Z</time>
      </trkpt>
      <trkpt lat="43.110132962465286" lon="-5.224604029208422">
        <ele>948.48000000000002</ele>
        <time>2025-04-29T10:28:46Z</time>
      </trkpt>
      <trkpt lat="43.110474022105336" lon="-5.224994961172342">
        <ele>947.03999999999996</ele>
        <time>2025-04-29T10:28:49Z</time>
      </trkpt>
      <trkpt lat="43.110549040138721" lon="-5.225136028602719">
        <ele>946.07000000000005</ele>
        <time>2025-04-29T10:28:50Z</time>
      </trkpt>
      <trkpt lat="43.110606959089637" lon="-5.225337026640773">
        <ele>946.55999999999995</ele>
        <time>2025-04-29T10:28:51Z</time>
      </trkpt>
      <trkpt lat="43.110705027356744" lon="-5.225673979148269">
        <ele>946.07000000000005</ele>
        <time>2025-04-29T10:28:53Z</time>
      </trkpt>
      <trkpt lat="43.11076101846993" lon="-5.225845975801349">
        <ele>945.11000000000001</ele>
        <time>2025-04-29T10:28:54Z</time>
      </trkpt>
      <trkpt lat="43.110852967947721" lon="-5.225938009098172">
        <ele>944.14999999999998</ele>
        <time>2025-04-29T10:28:55Z</time>
      </trkpt>
      <trkpt lat="43.11095698736608" lon="-5.226038005203009">
        <ele>943.66999999999996</ele>
        <time>2025-04-29T10:28:56Z</time>
      </trkpt>
      <trkpt lat="43.111067041754723" lon="-5.226136995479465">
        <ele>943.19000000000005</ele>
        <time>2025-04-29T10:28:57Z</time>
      </trkpt>
      <trkpt lat="43.111162008717656" lon="-5.226239003241062">
        <ele>942.71000000000004</ele>
        <time>2025-04-29T10:28:58Z</time>
      </trkpt>
      <trkpt lat="43.111253036186099" lon="-5.226412005722523">
        <ele>942.71000000000004</ele>
        <time>2025-04-29T10:28:59Z</time>
      </trkpt>
      <trkpt lat="43.111346997320652" lon="-5.226591965183616">
        <ele>942.71000000000004</ele>
        <time>2025-04-29T10:29:00Z</time>
      </trkpt>
      <trkpt lat="43.111852006986737" lon="-5.227979002520442">
        <ele>942.71000000000004</ele>
        <time>2025-04-29T10:29:07Z</time>
      </trkpt>
      <trkpt lat="43.11190196312964" lon="-5.228187963366509">
        <ele>942.71000000000004</ele>
        <time>2025-04-29T10:29:08Z</time>
      </trkpt>
      <trkpt lat="43.111915960907936" lon="-5.228403965011239">
        <ele>942.23000000000002</ele>
        <time>2025-04-29T10:29:09Z</time>
      </trkpt>
      <trkpt lat="43.111907998099923" lon="-5.228627007454634">
        <ele>942.23000000000002</ele>
        <time>2025-04-29T10:29:10Z</time>
      </trkpt>
      <trkpt lat="43.111896011978388" lon="-5.228844014927745">
        <ele>941.75</ele>
        <time>2025-04-29T10:29:11Z</time>
      </trkpt>
      <trkpt lat="43.111883020028472" lon="-5.229063034057617">
        <ele>941.75</ele>
        <time>2025-04-29T10:29:12Z</time>
      </trkpt>
      <trkpt lat="43.111853012815118" lon="-5.230345968157053">
        <ele>941.75</ele>
        <time>2025-04-29T10:29:18Z</time>
      </trkpt>
      <trkpt lat="43.111918978393078" lon="-5.230533974245191">
        <ele>941.26999999999998</ele>
        <time>2025-04-29T10:29:19Z</time>
      </trkpt>
      <trkpt lat="43.11207203194499" lon="-5.23091702722013">
        <ele>940.30999999999995</ele>
        <time>2025-04-29T10:29:21Z</time>
      </trkpt>
      <trkpt lat="43.112135985866189" lon="-5.231138980016112">
        <ele>939.83000000000004</ele>
        <time>2025-04-29T10:29:22Z</time>
      </trkpt>
      <trkpt lat="43.11245801858604" lon="-5.233300002291799">
        <ele>931.64999999999998</ele>
        <time>2025-04-29T10:29:31Z</time>
      </trkpt>
      <trkpt lat="43.112474028021097" lon="-5.233916994184256">
        <ele>929.25</ele>
        <time>2025-04-29T10:29:34Z</time>
      </trkpt>
      <trkpt lat="43.112505041062832" lon="-5.234116986393929">
        <ele>928.28999999999996</ele>
        <time>2025-04-29T10:29:35Z</time>
      </trkpt>
      <trkpt lat="43.112562960013747" lon="-5.234321001917124">
        <ele>927.33000000000004</ele>
        <time>2025-04-29T10:29:36Z</time>
      </trkpt>
      <trkpt lat="43.113127984106541" lon="-5.235887998715043">
        <ele>920.12</ele>
        <time>2025-04-29T10:29:43Z</time>
      </trkpt>
      <trkpt lat="43.114125011488795" lon="-5.237668985500932">
        <ele>910.50999999999999</ele>
        <time>2025-04-29T10:29:52Z</time>
      </trkpt>
      <trkpt lat="43.114734962582588" lon="-5.238599041476846">
        <ele>906.17999999999995</ele>
        <time>2025-04-29T10:29:57Z</time>
      </trkpt>
      <trkpt lat="43.114839987829328" lon="-5.238773971796036">
        <ele>905.22000000000003</ele>
        <time>2025-04-29T10:29:58Z</time>
      </trkpt>
      <trkpt lat="43.115077028051019" lon="-5.239058034494519">
        <ele>903.29999999999995</ele>
        <time>2025-04-29T10:30:00Z</time>
      </trkpt>
      <trkpt lat="43.115202002227306" lon="-5.239176973700523">
        <ele>902.33000000000004</ele>
        <time>2025-04-29T10:30:01Z</time>
      </trkpt>
      <trkpt lat="43.11531700193882" lon="-5.239286022260785">
        <ele>900.40999999999997</ele>
        <time>2025-04-29T10:30:02Z</time>
      </trkpt>
      <trkpt lat="43.115399982780218" lon="-5.23942600004375">
        <ele>899.45000000000005</ele>
        <time>2025-04-29T10:30:03Z</time>
      </trkpt>
      <trkpt lat="43.115461003035307" lon="-5.239552985876799">
        <ele>898.49000000000001</ele>
        <time>2025-04-29T10:30:04Z</time>
      </trkpt>
      <trkpt lat="43.115472989156842" lon="-5.239692963659763">
        <ele>897.52999999999997</ele>
        <time>2025-04-29T10:30:05Z</time>
      </trkpt>
      <trkpt lat="43.115485981106758" lon="-5.239853980019689">
        <ele>896.57000000000005</ele>
        <time>2025-04-29T10:30:06Z</time>
      </trkpt>
      <trkpt lat="43.115500984713435" lon="-5.240029999986291">
        <ele>895.61000000000001</ele>
        <time>2025-04-29T10:30:07Z</time>
      </trkpt>
      <trkpt lat="43.115517999976873" lon="-5.240227980539203">
        <ele>895.12</ele>
        <time>2025-04-29T10:30:08Z</time>
      </trkpt>
      <trkpt lat="43.115449016913772" lon="-5.242081973701716">
        <ele>894.15999999999997</ele>
        <time>2025-04-29T10:30:16Z</time>
      </trkpt>
      <trkpt lat="43.115265034139156" lon="-5.244074016809464">
        <ele>890.32000000000005</ele>
        <time>2025-04-29T10:30:24Z</time>
      </trkpt>
      <trkpt lat="43.11521197669208" lon="-5.244814977049828">
        <ele>888.39999999999998</ele>
        <time>2025-04-29T10:30:27Z</time>
      </trkpt>
      <trkpt lat="43.115222034975886" lon="-5.245039025321603">
        <ele>887.42999999999995</ele>
        <time>2025-04-29T10:30:28Z</time>
      </trkpt>
      <trkpt lat="43.115281965583563" lon="-5.245234994217753">
        <ele>886.95000000000005</ele>
        <time>2025-04-29T10:30:29Z</time>
      </trkpt>
      <trkpt lat="43.115352038294077" lon="-5.245427023619413">
        <ele>885.99000000000001</ele>
        <time>2025-04-29T10:30:30Z</time>
      </trkpt>
      <trkpt lat="43.115424960851669" lon="-5.245631039142609">
        <ele>885.02999999999997</ele>
        <time>2025-04-29T10:30:31Z</time>
      </trkpt>
      <trkpt lat="43.115590000525117" lon="-5.24608600884676">
        <ele>884.54999999999995</ele>
        <time>2025-04-29T10:30:33Z</time>
      </trkpt>
      <trkpt lat="43.115884959697723" lon="-5.24679402820766">
        <ele>883.11000000000001</ele>
        <time>2025-04-29T10:30:36Z</time>
      </trkpt>
      <trkpt lat="43.115970036014915" lon="-5.246940040960908">
        <ele>882.14999999999998</ele>
        <time>2025-04-29T10:30:37Z</time>
      </trkpt>
      <trkpt lat="43.116081012412906" lon="-5.247129974886775">
        <ele>880.71000000000004</ele>
        <time>2025-04-29T10:30:39Z</time>
      </trkpt>
      <trkpt lat="43.116102972999215" lon="-5.247324015945196">
        <ele>880.22000000000003</ele>
        <time>2025-04-29T10:30:40Z</time>
      </trkpt>
      <trkpt lat="43.116098027676344" lon="-5.247472040355206">
        <ele>880.22000000000003</ele>
        <time>2025-04-29T10:30:41Z</time>
      </trkpt>
      <trkpt lat="43.11609199270606" lon="-5.247657028958201">
        <ele>880.22000000000003</ele>
        <time>2025-04-29T10:30:42Z</time>
      </trkpt>
      <trkpt lat="43.116086041554809" lon="-5.247830031439662">
        <ele>880.22000000000003</ele>
        <time>2025-04-29T10:30:43Z</time>
      </trkpt>
      <trkpt lat="43.116081012412906" lon="-5.247989036142826">
        <ele>879.74000000000001</ele>
        <time>2025-04-29T10:30:44Z</time>
      </trkpt>
      <trkpt lat="43.116156030446291" lon="-5.248183999210596">
        <ele>879.25999999999999</ele>
        <time>2025-04-29T10:30:45Z</time>
      </trkpt>
      <trkpt lat="43.116217972710729" lon="-5.248346021398902">
        <ele>879.74000000000001</ele>
        <time>2025-04-29T10:30:46Z</time>
      </trkpt>
      <trkpt lat="43.116287961602211" lon="-5.248531010001898">
        <ele>880.22000000000003</ele>
        <time>2025-04-29T10:30:47Z</time>
      </trkpt>
      <trkpt lat="43.116362979635596" lon="-5.248726978898048">
        <ele>880.71000000000004</ele>
        <time>2025-04-29T10:30:48Z</time>
      </trkpt>
      <trkpt lat="43.116441015154123" lon="-5.248932000249624">
        <ele>880.71000000000004</ele>
        <time>2025-04-29T10:30:49Z</time>
      </trkpt>
      <trkpt lat="43.116723988205194" lon="-5.249532982707024">
        <ele>884.07000000000005</ele>
        <time>2025-04-29T10:30:52Z</time>
      </trkpt>
      <trkpt lat="43.116845022886992" lon="-5.249707996845245">
        <ele>884.54999999999995</ele>
        <time>2025-04-29T10:30:53Z</time>
      </trkpt>
      <trkpt lat="43.116967985406518" lon="-5.249872030690312">
        <ele>884.54999999999995</ele>
        <time>2025-04-29T10:30:54Z</time>
      </trkpt>
      <trkpt lat="43.117090025916696" lon="-5.250033969059587">
        <ele>885.02999999999997</ele>
        <time>2025-04-29T10:30:55Z</time>
      </trkpt>
      <trkpt lat="43.117196979001164" lon="-5.250176964327693">
        <ele>885.50999999999999</ele>
        <time>2025-04-29T10:30:56Z</time>
      </trkpt>
      <trkpt lat="43.117294041439891" lon="-5.250394977629185">
        <ele>886.47000000000003</ele>
        <time>2025-04-29T10:30:57Z</time>
      </trkpt>
      <trkpt lat="43.117382973432541" lon="-5.250595975667238">
        <ele>886.95000000000005</ele>
        <time>2025-04-29T10:30:58Z</time>
      </trkpt>
      <trkpt lat="43.117472995072603" lon="-5.250797979533672">
        <ele>887.42999999999995</ele>
        <time>2025-04-29T10:30:59Z</time>
      </trkpt>
      <trkpt lat="43.117563016712666" lon="-5.250999983400106">
        <ele>887.90999999999997</ele>
        <time>2025-04-29T10:31:00Z</time>
      </trkpt>
      <trkpt lat="43.11770299449563" lon="-5.25141597725451">
        <ele>888.88</ele>
        <time>2025-04-29T10:31:02Z</time>
      </trkpt>
      <trkpt lat="43.117764014750719" lon="-5.251629967242479">
        <ele>889.84000000000003</ele>
        <time>2025-04-29T10:31:03Z</time>
      </trkpt>
      <trkpt lat="43.117823023349047" lon="-5.251840017735958">
        <ele>889.36000000000001</ele>
        <time>2025-04-29T10:31:04Z</time>
      </trkpt>
      <trkpt lat="43.117881026118994" lon="-5.252044033259153">
        <ele>889.84000000000003</ele>
        <time>2025-04-29T10:31:05Z</time>
      </trkpt>
      <trkpt lat="43.117929976433516" lon="-5.252246037125588">
        <ele>889.84000000000003</ele>
        <time>2025-04-29T10:31:06Z</time>
      </trkpt>
      <trkpt lat="43.117970963940024" lon="-5.252438988536596">
        <ele>890.32000000000005</ele>
        <time>2025-04-29T10:31:07Z</time>
      </trkpt>
      <trkpt lat="43.118012035265565" lon="-5.252628000453115">
        <ele>890.32000000000005</ele>
        <time>2025-04-29T10:31:08Z</time>
      </trkpt>
      <trkpt lat="43.118062997236848" lon="-5.252794967964292">
        <ele>890.32000000000005</ele>
        <time>2025-04-29T10:31:09Z</time>
      </trkpt>
      <trkpt lat="43.118139021098614" lon="-5.25296101346612">
        <ele>890.32000000000005</ele>
        <time>2025-04-29T10:31:10Z</time>
      </trkpt>
      <trkpt lat="43.118376983329654" lon="-5.253482032567263">
        <ele>889.84000000000003</ele>
        <time>2025-04-29T10:31:14Z</time>
      </trkpt>
      <trkpt lat="43.118438003584743" lon="-5.253512039780617">
        <ele>890.32000000000005</ele>
        <time>2025-04-29T10:31:15Z</time>
      </trkpt>
      <trkpt lat="43.118506986647844" lon="-5.253545986488462">
        <ele>889.84000000000003</ele>
        <time>2025-04-29T10:31:16Z</time>
      </trkpt>
      <trkpt lat="43.118600025773048" lon="-5.253550009801984">
        <ele>890.79999999999995</ele>
        <time>2025-04-29T10:31:17Z</time>
      </trkpt>
      <trkpt lat="43.11869197525084" lon="-5.253555038943887">
        <ele>891.27999999999997</ele>
        <time>2025-04-29T10:31:18Z</time>
      </trkpt>
      <trkpt lat="43.118769004940987" lon="-5.253557972609997">
        <ele>891.27999999999997</ele>
        <time>2025-04-29T10:31:19Z</time>
      </trkpt>
      <trkpt lat="43.118824996054173" lon="-5.253560990095139">
        <ele>891.27999999999997</ele>
        <time>2025-04-29T10:31:20Z</time>
      </trkpt>
      <trkpt lat="43.11886003240943" lon="-5.253561995923519">
        <ele>891.27999999999997</ele>
        <time>2025-04-29T10:31:21Z</time>
      </trkpt>
      <trkpt lat="43.118887022137642" lon="-5.25356400758028">
        <ele>891.27999999999997</ele>
        <time>2025-04-29T10:31:22Z</time>
      </trkpt>
      <trkpt lat="43.118910994380713" lon="-5.253565013408661">
        <ele>890.79999999999995</ele>
        <time>2025-04-29T10:31:31Z</time>
      </trkpt>
      <trkpt lat="43.118944019079208" lon="-5.253566019237042">
        <ele>892.24000000000001</ele>
        <time>2025-04-29T10:32:10Z</time>
      </trkpt>
      <trkpt lat="43.11897000297904" lon="-5.253567025065422">
        <ele>892.72000000000003</ele>
        <time>2025-04-29T10:32:11Z</time>
      </trkpt>
      <trkpt lat="43.11901300214231" lon="-5.253569036722183">
        <ele>893.67999999999995</ele>
        <time>2025-04-29T10:32:12Z</time>
      </trkpt>
      <trkpt lat="43.11907603405416" lon="-5.253571970388293">
        <ele>895.12</ele>
        <time>2025-04-29T10:32:13Z</time>
      </trkpt>
      <trkpt lat="43.119151974096894" lon="-5.253575993701816">
        <ele>895.12</ele>
        <time>2025-04-29T10:32:14Z</time>
      </trkpt>
      <trkpt lat="43.119481969624758" lon="-5.253556966781616">
        <ele>894.63999999999999</ele>
        <time>2025-04-29T10:32:17Z</time>
      </trkpt>
      <trkpt lat="43.119579032063484" lon="-5.253459988161922">
        <ele>894.63999999999999</ele>
        <time>2025-04-29T10:32:18Z</time>
      </trkpt>
      <trkpt lat="43.119622031226754" lon="-5.253353035077453">
        <ele>894.15999999999997</ele>
        <time>2025-04-29T10:32:19Z</time>
      </trkpt>
      <trkpt lat="43.11967802233994" lon="-5.253211967647076">
        <ele>894.15999999999997</ele>
        <time>2025-04-29T10:32:20Z</time>
      </trkpt>
      <trkpt lat="43.119748011231422" lon="-5.253078024834395">
        <ele>894.63999999999999</ele>
        <time>2025-04-29T10:32:21Z</time>
      </trkpt>
      <trkpt lat="43.119835015386343" lon="-5.252948021516204">
        <ele>894.15999999999997</ele>
        <time>2025-04-29T10:32:22Z</time>
      </trkpt>
      <trkpt lat="43.12000198289752" lon="-5.252558011561632">
        <ele>892.72000000000003</ele>
        <time>2025-04-29T10:32:25Z</time>
      </trkpt>
      <trkpt lat="43.120066020637751" lon="-5.252270009368658">
        <ele>893.20000000000005</ele>
        <time>2025-04-29T10:32:27Z</time>
      </trkpt>
      <trkpt lat="43.120120000094175" lon="-5.252154003828764">
        <ele>893.20000000000005</ele>
        <time>2025-04-29T10:32:28Z</time>
      </trkpt>
      <trkpt lat="43.120170962065458" lon="-5.252045961096883">
        <ele>893.20000000000005</ele>
        <time>2025-04-29T10:32:29Z</time>
      </trkpt>
      <trkpt lat="43.120202980935574" lon="-5.25193003937602">
        <ele>892.72000000000003</ele>
        <time>2025-04-29T10:32:30Z</time>
      </trkpt>
      <trkpt lat="43.120210021734238" lon="-5.251782014966011">
        <ele>892.72000000000003</ele>
        <time>2025-04-29T10:32:31Z</time>
      </trkpt>
      <trkpt lat="43.12021697871387" lon="-5.251614041626453">
        <ele>892.72000000000003</ele>
        <time>2025-04-29T10:32:32Z</time>
      </trkpt>
      <trkpt lat="43.120247991755605" lon="-5.251427041366696">
        <ele>892.72000000000003</ele>
        <time>2025-04-29T10:32:33Z</time>
      </trkpt>
      <trkpt lat="43.120324015617371" lon="-5.251254038885236">
        <ele>892.72000000000003</ele>
        <time>2025-04-29T10:32:34Z</time>
      </trkpt>
      <trkpt lat="43.120399033650756" lon="-5.251080030575395">
        <ele>892.24000000000001</ele>
        <time>2025-04-29T10:32:35Z</time>
      </trkpt>
      <trkpt lat="43.120467010885477" lon="-5.250922031700611">
        <ele>891.75999999999999</ele>
        <time>2025-04-29T10:32:36Z</time>
      </trkpt>
      <trkpt lat="43.120600031688809" lon="-5.2507050242275">
        <ele>891.27999999999997</ele>
        <time>2025-04-29T10:32:38Z</time>
      </trkpt>
      <trkpt lat="43.120673960074782" lon="-5.250692032277584">
        <ele>890.79999999999995</ele>
        <time>2025-04-29T10:32:39Z</time>
      </trkpt>
      <trkpt lat="43.120743026956916" lon="-5.250732013955712">
        <ele>890.32000000000005</ele>
        <time>2025-04-29T10:32:40Z</time>
      </trkpt>
      <trkpt lat="43.120827013626695" lon="-5.250811977311969">
        <ele>889.84000000000003</ele>
        <time>2025-04-29T10:32:41Z</time>
      </trkpt>
      <trkpt lat="43.120875963941216" lon="-5.250966036692262">
        <ele>888.88</ele>
        <time>2025-04-29T10:32:42Z</time>
      </trkpt>
      <trkpt lat="43.120929021388292" lon="-5.2511350158602">
        <ele>888.39999999999998</ele>
        <time>2025-04-29T10:32:43Z</time>
      </trkpt>
      <trkpt lat="43.120984006673098" lon="-5.25130701251328">
        <ele>887.42999999999995</ele>
        <time>2025-04-29T10:32:44Z</time>
      </trkpt>
      <trkpt lat="43.121034968644381" lon="-5.251470962539315">
        <ele>886.95000000000005</ele>
        <time>2025-04-29T10:32:45Z</time>
      </trkpt>
      <trkpt lat="43.121090037748218" lon="-5.25162803940475">
        <ele>885.99000000000001</ele>
        <time>2025-04-29T10:32:46Z</time>
      </trkpt>
      <trkpt lat="43.121166983619332" lon="-5.251738009974361">
        <ele>885.02999999999997</ele>
        <time>2025-04-29T10:32:47Z</time>
      </trkpt>
      <trkpt lat="43.121236972510815" lon="-5.251831971108913">
        <ele>884.54999999999995</ele>
        <time>2025-04-29T10:32:48Z</time>
      </trkpt>
      <trkpt lat="43.121294975280762" lon="-5.251850998029113">
        <ele>883.59000000000003</ele>
        <time>2025-04-29T10:32:49Z</time>
      </trkpt>
      <trkpt lat="43.121294975280762" lon="-5.251850998029113">
        <ele>883.11000000000001</ele>
        <time>2025-04-29T10:32:50Z</time>
      </trkpt>
      <trkpt lat="43.121379967778921" lon="-5.251734992489219">
        <ele>882.63</ele>
        <time>2025-04-29T10:32:51Z</time>
      </trkpt>
      <trkpt lat="43.121433025225997" lon="-5.251663997769356">
        <ele>882.14999999999998</ele>
        <time>2025-04-29T10:32:52Z</time>
      </trkpt>
      <trkpt lat="43.121507037431002" lon="-5.251562995836139">
        <ele>881.19000000000005</ele>
        <time>2025-04-29T10:32:53Z</time>
      </trkpt>
      <trkpt lat="43.121583983302116" lon="-5.251456964761019">
        <ele>880.22000000000003</ele>
        <time>2025-04-29T10:32:54Z</time>
      </trkpt>
      <trkpt lat="43.121853964403272" lon="-5.251015992835164">
        <ele>877.34000000000003</ele>
        <time>2025-04-29T10:32:57Z</time>
      </trkpt>
      <trkpt lat="43.121992014348507" lon="-5.250747017562389">
        <ele>874.94000000000005</ele>
        <time>2025-04-29T10:32:59Z</time>
      </trkpt>
      <trkpt lat="43.122103996574879" lon="-5.250713992863894">
        <ele>873.98000000000002</ele>
        <time>2025-04-29T10:33:00Z</time>
      </trkpt>
      <trkpt lat="43.122183959931135" lon="-5.250744000077248">
        <ele>873.00999999999999</ele>
        <time>2025-04-29T10:33:01Z</time>
      </trkpt>
      <trkpt lat="43.122246991842985" lon="-5.250866962596774">
        <ele>871.57000000000005</ele>
        <time>2025-04-29T10:33:02Z</time>
      </trkpt>
      <trkpt lat="43.1222790107131" lon="-5.250986991450191">
        <ele>870.61000000000001</ele>
        <time>2025-04-29T10:33:03Z</time>
      </trkpt>
      <trkpt lat="43.122313963249326" lon="-5.25111498311162">
        <ele>869.64999999999998</ele>
        <time>2025-04-29T10:33:04Z</time>
      </trkpt>
      <trkpt lat="43.122348999604583" lon="-5.251245992258191">
        <ele>868.21000000000004</ele>
        <time>2025-04-29T10:33:05Z</time>
      </trkpt>
      <trkpt lat="43.122389987111092" lon="-5.251400973647833">
        <ele>867.73000000000002</ele>
        <time>2025-04-29T10:33:06Z</time>
      </trkpt>
      <trkpt lat="43.122447989881039" lon="-5.251433998346329">
        <ele>866.76999999999998</ele>
        <time>2025-04-29T10:33:07Z</time>
      </trkpt>
      <trkpt lat="43.122552009299397" lon="-5.251483032479882">
        <ele>866.28999999999996</ele>
        <time>2025-04-29T10:33:08Z</time>
      </trkpt>
      <trkpt lat="43.12264597043395" lon="-5.251459982246161">
        <ele>865.79999999999995</ele>
        <time>2025-04-29T10:33:09Z</time>
      </trkpt>
      <trkpt lat="43.122757030650973" lon="-5.251431986689568">
        <ele>865.32000000000005</ele>
        <time>2025-04-29T10:33:10Z</time>
      </trkpt>
      <trkpt lat="43.122989041730762" lon="-5.251294020563364">
        <ele>864.36000000000001</ele>
        <time>2025-04-29T10:33:12Z</time>
      </trkpt>
      <trkpt lat="43.123148968443274" lon="-5.251072989776731">
        <ele>862.91999999999996</ele>
        <time>2025-04-29T10:33:14Z</time>
      </trkpt>
      <trkpt lat="43.123228009790182" lon="-5.250964025035501">
        <ele>862.44000000000005</ele>
        <time>2025-04-29T10:33:15Z</time>
      </trkpt>
      <trkpt lat="43.123305961489677" lon="-5.250855982303619">
        <ele>862.44000000000005</ele>
        <time>2025-04-29T10:33:16Z</time>
      </trkpt>
      <trkpt lat="43.123403023928404" lon="-5.250757997855544">
        <ele>861.96000000000004</ele>
        <time>2025-04-29T10:33:17Z</time>
      </trkpt>
      <trkpt lat="43.123521041125059" lon="-5.250764032825828">
        <ele>861.48000000000002</ele>
        <time>2025-04-29T10:33:18Z</time>
      </trkpt>
      <trkpt lat="43.123655989766121" lon="-5.25077098980546">
        <ele>861</ele>
        <time>2025-04-29T10:33:19Z</time>
      </trkpt>
      <trkpt lat="43.124143984168768" lon="-5.250796973705292">
        <ele>859.55999999999995</ele>
        <time>2025-04-29T10:33:23Z</time>
      </trkpt>
      <trkpt lat="43.124240040779114" lon="-5.250747017562389">
        <ele>859.08000000000004</ele>
        <time>2025-04-29T10:33:24Z</time>
      </trkpt>
      <trkpt lat="43.124322015792131" lon="-5.250656995922327">
        <ele>858.59000000000003</ele>
        <time>2025-04-29T10:33:25Z</time>
      </trkpt>
      <trkpt lat="43.124411031603813" lon="-5.25055599398911">
        <ele>858.59000000000003</ele>
        <time>2025-04-29T10:33:26Z</time>
      </trkpt>
      <trkpt lat="43.124476997181773" lon="-5.250434959307313">
        <ele>858.11000000000001</ele>
        <time>2025-04-29T10:33:27Z</time>
      </trkpt>
      <trkpt lat="43.124753013253212" lon="-5.249931961297989">
        <ele>855.71000000000004</ele>
        <time>2025-04-29T10:33:33Z</time>
      </trkpt>
      <trkpt lat="43.124854015186429" lon="-5.249745966866612">
        <ele>855.23000000000002</ele>
        <time>2025-04-29T10:33:35Z</time>
      </trkpt>
      <trkpt lat="43.125031962990761" lon="-5.249425023794174">
        <ele>853.78999999999996</ele>
        <time>2025-04-29T10:33:39Z</time>
      </trkpt>
      <trkpt lat="43.12509298324585" lon="-5.24939501658082">
        <ele>853.30999999999995</ele>
        <time>2025-04-29T10:33:40Z</time>
      </trkpt>
      <trkpt lat="43.125152997672558" lon="-5.249364003539085">
        <ele>852.83000000000004</ele>
        <time>2025-04-29T10:33:41Z</time>
      </trkpt>
      <trkpt lat="43.125217035412788" lon="-5.249332990497351">
        <ele>852.83000000000004</ele>
        <time>2025-04-29T10:33:42Z</time>
      </trkpt>
      <trkpt lat="43.125278977677226" lon="-5.249301977455616">
        <ele>852.83000000000004</ele>
        <time>2025-04-29T10:33:43Z</time>
      </trkpt>
      <trkpt lat="43.125341003760695" lon="-5.249270964413881">
        <ele>852.35000000000002</ele>
        <time>2025-04-29T10:33:44Z</time>
      </trkpt>
      <trkpt lat="43.125398000702262" lon="-5.249241963028908">
        <ele>851.87</ele>
        <time>2025-04-29T10:33:45Z</time>
      </trkpt>
      <trkpt lat="43.125450974330306" lon="-5.249215979129076">
        <ele>851.87</ele>
        <time>2025-04-29T10:33:46Z</time>
      </trkpt>
      <trkpt lat="43.125495985150337" lon="-5.249181026592851">
        <ele>851.38</ele>
        <time>2025-04-29T10:33:47Z</time>
      </trkpt>
      <trkpt lat="43.125538984313607" lon="-5.249144984409213">
        <ele>850.89999999999998</ele>
        <time>2025-04-29T10:33:48Z</time>
      </trkpt>
      <trkpt lat="43.125576032325625" lon="-5.249112965539098">
        <ele>850.89999999999998</ele>
        <time>2025-04-29T10:33:49Z</time>
      </trkpt>
      <trkpt lat="43.125612996518612" lon="-5.249082958325744">
        <ele>850.41999999999996</ele>
        <time>2025-04-29T10:33:50Z</time>
      </trkpt>
      <trkpt lat="43.125655995681882" lon="-5.249046999961138">
        <ele>850.41999999999996</ele>
        <time>2025-04-29T10:33:51Z</time>
      </trkpt>
      <trkpt lat="43.12571601010859" lon="-5.248996959999204">
        <ele>849.94000000000005</ele>
        <time>2025-04-29T10:33:52Z</time>
      </trkpt>
      <trkpt lat="43.12575800344348" lon="-5.249011041596532">
        <ele>849.94000000000005</ele>
        <time>2025-04-29T10:33:53Z</time>
      </trkpt>
      <trkpt lat="43.125820029526949" lon="-5.249031996354461">
        <ele>849.46000000000004</ele>
        <time>2025-04-29T10:33:54Z</time>
      </trkpt>
      <trkpt lat="43.125908961519599" lon="-5.249062003567815">
        <ele>848.98000000000002</ele>
        <time>2025-04-29T10:33:55Z</time>
      </trkpt>
      <trkpt lat="43.125951960682869" lon="-5.249130986630917">
        <ele>848.5</ele>
        <time>2025-04-29T10:33:56Z</time>
      </trkpt>
      <trkpt lat="43.125998983159661" lon="-5.249206004664302">
        <ele>848.01999999999998</ele>
        <time>2025-04-29T10:33:57Z</time>
      </trkpt>
      <trkpt lat="43.126046005636454" lon="-5.249281022697687">
        <ele>847.53999999999996</ele>
        <time>2025-04-29T10:33:58Z</time>
      </trkpt>
      <trkpt lat="43.126093028113246" lon="-5.249356040731072">
        <ele>847.53999999999996</ele>
        <time>2025-04-29T10:33:59Z</time>
      </trkpt>
      <trkpt lat="43.126138960942626" lon="-5.249429969117045">
        <ele>847.53999999999996</ele>
        <time>2025-04-29T10:34:00Z</time>
      </trkpt>
      <trkpt lat="43.126182965934277" lon="-5.24950004182756">
        <ele>847.53999999999996</ele>
        <time>2025-04-29T10:34:01Z</time>
      </trkpt>
      <trkpt lat="43.12623099423945" lon="-5.249576987698674">
        <ele>847.53999999999996</ele>
        <time>2025-04-29T10:34:02Z</time>
      </trkpt>
      <trkpt lat="43.126256978139281" lon="-5.249592997133732">
        <ele>847.53999999999996</ele>
        <time>2025-04-29T10:34:03Z</time>
      </trkpt>
      <trkpt lat="43.126304000616074" lon="-5.249623004347086">
        <ele>847.53999999999996</ele>
        <time>2025-04-29T10:34:04Z</time>
      </trkpt>
      <trkpt lat="43.126401985064149" lon="-5.249684024602175">
        <ele>847.53999999999996</ele>
        <time>2025-04-29T10:34:05Z</time>
      </trkpt>
      <trkpt lat="43.126430986449122" lon="-5.249684024602175">
        <ele>847.53999999999996</ele>
        <time>2025-04-29T10:34:06Z</time>
      </trkpt>
      <trkpt lat="43.12659602612257" lon="-5.249684024602175">
        <ele>847.05999999999995</ele>
        <time>2025-04-29T10:34:09Z</time>
      </trkpt>
      <trkpt lat="43.126654028892517" lon="-5.249639013782144">
        <ele>847.05999999999995</ele>
        <time>2025-04-29T10:34:10Z</time>
      </trkpt>
      <trkpt lat="43.126771040260792" lon="-5.249547986313701">
        <ele>846.58000000000004</ele>
        <time>2025-04-29T10:34:12Z</time>
      </trkpt>
      <trkpt lat="43.127354001626372" lon="-5.249097039923072">
        <ele>844.17999999999995</ele>
        <time>2025-04-29T10:34:18Z</time>
      </trkpt>
      <trkpt lat="43.127621971070766" lon="-5.248961001634598">
        <ele>843.21000000000004</ele>
        <time>2025-04-29T10:34:20Z</time>
      </trkpt>
      <trkpt lat="43.127764966338873" lon="-5.248911967501044">
        <ele>842.73000000000002</ele>
        <time>2025-04-29T10:34:21Z</time>
      </trkpt>
      <trkpt lat="43.127918019890785" lon="-5.248859999701381">
        <ele>842.73000000000002</ele>
        <time>2025-04-29T10:34:22Z</time>
      </trkpt>
      <trkpt lat="43.128075012937188" lon="-5.248806020244956">
        <ele>842.25</ele>
        <time>2025-04-29T10:34:23Z</time>
      </trkpt>
      <trkpt lat="43.128215996548533" lon="-5.248753968626261">
        <ele>841.76999999999998</ele>
        <time>2025-04-29T10:34:24Z</time>
      </trkpt>
      <trkpt lat="43.12833895906806" lon="-5.248676016926765">
        <ele>841.28999999999996</ele>
        <time>2025-04-29T10:34:25Z</time>
      </trkpt>
      <trkpt lat="43.128440966829658" lon="-5.248610973358154">
        <ele>840.80999999999995</ele>
        <time>2025-04-29T10:34:26Z</time>
      </trkpt>
      <trkpt lat="43.128522019833326" lon="-5.248489016667008">
        <ele>840.33000000000004</ele>
        <time>2025-04-29T10:34:27Z</time>
      </trkpt>
      <trkpt lat="43.128581028431654" lon="-5.248402012512088">
        <ele>839.85000000000002</ele>
        <time>2025-04-29T10:34:28Z</time>
      </trkpt>
      <trkpt lat="43.128631990402937" lon="-5.248323976993561">
        <ele>839.37</ele>
        <time>2025-04-29T10:34:29Z</time>
      </trkpt>
      <trkpt lat="43.1286839582026" lon="-5.248246025294066">
        <ele>839.37</ele>
        <time>2025-04-29T10:34:30Z</time>
      </trkpt>
      <trkpt lat="43.128741038963199" lon="-5.248160026967526">
        <ele>838.88999999999999</ele>
        <time>2025-04-29T10:34:31Z</time>
      </trkpt>
      <trkpt lat="43.128799963742495" lon="-5.24819003418088">
        <ele>838.40999999999997</ele>
        <time>2025-04-29T10:34:32Z</time>
      </trkpt>
      <trkpt lat="43.12887498177588" lon="-5.248226998373866">
        <ele>837.92999999999995</ele>
        <time>2025-04-29T10:34:33Z</time>
      </trkpt>
      <trkpt lat="43.128968020901084" lon="-5.248274020850658">
        <ele>837.45000000000005</ele>
        <time>2025-04-29T10:34:34Z</time>
      </trkpt>
      <trkpt lat="43.129072040319443" lon="-5.248325988650322">
        <ele>837.45000000000005</ele>
        <time>2025-04-29T10:34:35Z</time>
      </trkpt>
      <trkpt lat="43.129152003675699" lon="-5.248316014185548">
        <ele>836.96000000000004</ele>
        <time>2025-04-29T10:34:36Z</time>
      </trkpt>
      <trkpt lat="43.129273960366845" lon="-5.248286006972194">
        <ele>836.96000000000004</ele>
        <time>2025-04-29T10:34:37Z</time>
      </trkpt>
      <trkpt lat="43.129402035847306" lon="-5.248254993930459">
        <ele>836.96000000000004</ele>
        <time>2025-04-29T10:34:38Z</time>
      </trkpt>
      <trkpt lat="43.129551988095045" lon="-5.248219035565853">
        <ele>836.48000000000002</ele>
        <time>2025-04-29T10:34:39Z</time>
      </trkpt>
      <trkpt lat="43.129704035818577" lon="-5.248181987553835">
        <ele>835.51999999999998</ele>
        <time>2025-04-29T10:34:40Z</time>
      </trkpt>
      <trkpt lat="43.129838984459639" lon="-5.2481509745121">
        <ele>835.03999999999996</ele>
        <time>2025-04-29T10:34:41Z</time>
      </trkpt>
      <trkpt lat="43.129963036626577" lon="-5.248125996440649">
        <ele>834.55999999999995</ele>
        <time>2025-04-29T10:34:42Z</time>
      </trkpt>
      <trkpt lat="43.130089016631246" lon="-5.248101018369198">
        <ele>833.60000000000002</ele>
        <time>2025-04-29T10:34:43Z</time>
      </trkpt>
      <trkpt lat="43.130214996635914" lon="-5.24802197702229">
        <ele>833.12</ele>
        <time>2025-04-29T10:34:44Z</time>
      </trkpt>
      <trkpt lat="43.130336031317711" lon="-5.247932961210609">
        <ele>832.15999999999997</ele>
        <time>2025-04-29T10:34:45Z</time>
      </trkpt>
      <trkpt lat="43.130453964695334" lon="-5.247845035046339">
        <ele>831.20000000000005</ele>
        <time>2025-04-29T10:34:46Z</time>
      </trkpt>
      <trkpt lat="43.130577011033893" lon="-5.247754007577896">
        <ele>830.72000000000003</ele>
        <time>2025-04-29T10:34:47Z</time>
      </trkpt>
      <trkpt lat="43.130730986595154" lon="-5.247716037556529">
        <ele>829.75999999999999</ele>
        <time>2025-04-29T10:34:48Z</time>
      </trkpt>
      <trkpt lat="43.130889991298318" lon="-5.247694998979569">
        <ele>828.30999999999995</ele>
        <time>2025-04-29T10:34:49Z</time>
      </trkpt>
      <trkpt lat="43.131051007658243" lon="-5.247674966230989">
        <ele>827.35000000000002</ele>
        <time>2025-04-29T10:34:50Z</time>
      </trkpt>
      <trkpt lat="43.131215963512659" lon="-5.24765401147306">
        <ele>825.90999999999997</ele>
        <time>2025-04-29T10:34:51Z</time>
      </trkpt>
      <trkpt lat="43.131681997328997" lon="-5.247572036460042">
        <ele>822.05999999999995</ele>
        <time>2025-04-29T10:34:54Z</time>
      </trkpt>
      <trkpt lat="43.131809988990426" lon="-5.247513027861714">
        <ele>820.62</ele>
        <time>2025-04-29T10:34:55Z</time>
      </trkpt>
      <trkpt lat="43.131944015622139" lon="-5.247451001778245">
        <ele>819.17999999999995</ele>
        <time>2025-04-29T10:34:56Z</time>
      </trkpt>
      <trkpt lat="43.132218020036817" lon="-5.247323010116816">
        <ele>816.77999999999997</ele>
        <time>2025-04-29T10:34:58Z</time>
      </trkpt>
      <trkpt lat="43.132485989481211" lon="-5.247229970991612">
        <ele>813.40999999999997</ele>
        <time>2025-04-29T10:35:00Z</time>
      </trkpt>
      <trkpt lat="43.132625967264175" lon="-5.247137015685439">
        <ele>811.97000000000003</ele>
        <time>2025-04-29T10:35:01Z</time>
      </trkpt>
      <trkpt lat="43.132762005552649" lon="-5.247037019580603">
        <ele>811.00999999999999</ele>
        <time>2025-04-29T10:35:02Z</time>
      </trkpt>
      <trkpt lat="43.132877005264163" lon="-5.246921014040709">
        <ele>809.57000000000005</ele>
        <time>2025-04-29T10:35:03Z</time>
      </trkpt>
      <trkpt lat="43.132985970005393" lon="-5.246812971308827">
        <ele>808.13</ele>
        <time>2025-04-29T10:35:04Z</time>
      </trkpt>
      <trkpt lat="43.133094012737274" lon="-5.246705012395978">
        <ele>807.15999999999997</ele>
        <time>2025-04-29T10:35:05Z</time>
      </trkpt>
      <trkpt lat="43.133199037984014" lon="-5.246599987149239">
        <ele>805.72000000000003</ele>
        <time>2025-04-29T10:35:06Z</time>
      </trkpt>
      <trkpt lat="43.13329903408885" lon="-5.246521029621363">
        <ele>804.75999999999999</ele>
        <time>2025-04-29T10:35:07Z</time>
      </trkpt>
      <trkpt lat="43.133416967466474" lon="-5.246485993266106">
        <ele>803.32000000000005</ele>
        <time>2025-04-29T10:35:08Z</time>
      </trkpt>
      <trkpt lat="43.133531967177987" lon="-5.24645296856761">
        <ele>801.88</ele>
        <time>2025-04-29T10:35:09Z</time>
      </trkpt>
      <trkpt lat="43.133633974939585" lon="-5.246422039344907">
        <ele>800.91999999999996</ele>
        <time>2025-04-29T10:35:10Z</time>
      </trkpt>
      <trkpt lat="43.133722990751266" lon="-5.24647300131619">
        <ele>799.95000000000005</ele>
        <time>2025-04-29T10:35:11Z</time>
      </trkpt>
      <trkpt lat="43.133801026269794" lon="-5.246531004086137">
        <ele>798.50999999999999</ele>
        <time>2025-04-29T10:35:12Z</time>
      </trkpt>
      <trkpt lat="43.133873026818037" lon="-5.246626976877451">
        <ele>798.02999999999997</ele>
        <time>2025-04-29T10:35:13Z</time>
      </trkpt>
      <trkpt lat="43.133946033194661" lon="-5.246724961325526">
        <ele>797.07000000000005</ele>
        <time>2025-04-29T10:35:14Z</time>
      </trkpt>
      <trkpt lat="43.134019039571285" lon="-5.246822023764253">
        <ele>796.59000000000003</ele>
        <time>2025-04-29T10:35:15Z</time>
      </trkpt>
      <trkpt lat="43.134096991270781" lon="-5.246882038190961">
        <ele>796.11000000000001</ele>
        <time>2025-04-29T10:35:16Z</time>
      </trkpt>
      <trkpt lat="43.134182989597321" lon="-5.246929982677102">
        <ele>795.63</ele>
        <time>2025-04-29T10:35:17Z</time>
      </trkpt>
      <trkpt lat="43.134258007630706" lon="-5.246942974627018">
        <ele>795.14999999999998</ele>
        <time>2025-04-29T10:35:18Z</time>
      </trkpt>
      <trkpt lat="43.134338976815343" lon="-5.246888995170593">
        <ele>794.19000000000005</ele>
        <time>2025-04-29T10:35:19Z</time>
      </trkpt>
      <trkpt lat="43.134422041475773" lon="-5.246819006279111">
        <ele>793.71000000000004</ele>
        <time>2025-04-29T10:35:20Z</time>
      </trkpt>
      <trkpt lat="43.134510973468423" lon="-5.246737031266093">
        <ele>793.22000000000003</ele>
        <time>2025-04-29T10:35:21Z</time>
      </trkpt>
      <trkpt lat="43.134594960138202" lon="-5.246661007404327">
        <ele>792.25999999999999</ele>
        <time>2025-04-29T10:35:22Z</time>
      </trkpt>
      <trkpt lat="43.134690010920167" lon="-5.246613984927535">
        <ele>792.25999999999999</ele>
        <time>2025-04-29T10:35:23Z</time>
      </trkpt>
      <trkpt lat="43.134777015075088" lon="-5.246584983542562">
        <ele>791.77999999999997</ele>
        <time>2025-04-29T10:35:24Z</time>
      </trkpt>
      <trkpt lat="43.134888997301459" lon="-5.246652038767934">
        <ele>791.29999999999995</ele>
        <time>2025-04-29T10:35:25Z</time>
      </trkpt>
      <trkpt lat="43.134979018941522" lon="-5.246749017387629">
        <ele>790.82000000000005</ele>
        <time>2025-04-29T10:35:26Z</time>
      </trkpt>
      <trkpt lat="43.135074991732836" lon="-5.246852030977607">
        <ele>790.34000000000003</ele>
        <time>2025-04-29T10:35:27Z</time>
      </trkpt>
      <trkpt lat="43.13538403250277" lon="-5.24718202650547">
        <ele>788.41999999999996</ele>
        <time>2025-04-29T10:35:30Z</time>
      </trkpt>
      <trkpt lat="43.135721990838647" lon="-5.24744002148509">
        <ele>786.98000000000002</ele>
        <time>2025-04-29T10:35:33Z</time>
      </trkpt>
      <trkpt lat="43.135847970843315" lon="-5.247494000941515">
        <ele>786.5</ele>
        <time>2025-04-29T10:35:34Z</time>
      </trkpt>
      <trkpt lat="43.136119041591883" lon="-5.247617969289422">
        <ele>786.01999999999998</ele>
        <time>2025-04-29T10:35:36Z</time>
      </trkpt>
      <trkpt lat="43.136334959417582" lon="-5.247804969549179">
        <ele>785.52999999999997</ele>
        <time>2025-04-29T10:35:38Z</time>
      </trkpt>
      <trkpt lat="43.136447025462985" lon="-5.247943019494414">
        <ele>785.04999999999995</ele>
        <time>2025-04-29T10:35:39Z</time>
      </trkpt>
      <trkpt lat="43.136497987434268" lon="-5.248076962307096">
        <ele>784.57000000000005</ele>
        <time>2025-04-29T10:35:40Z</time>
      </trkpt>
      <trkpt lat="43.136521959677339" lon="-5.248221969231963">
        <ele>784.09000000000003</ele>
        <time>2025-04-29T10:35:41Z</time>
      </trkpt>
      <trkpt lat="43.136506034061313" lon="-5.24834199808538">
        <ele>783.61000000000001</ele>
        <time>2025-04-29T10:35:42Z</time>
      </trkpt>
      <trkpt lat="43.136490024626255" lon="-5.248461021110416">
        <ele>783.13</ele>
        <time>2025-04-29T10:35:43Z</time>
      </trkpt>
      <trkpt lat="43.13648197799921" lon="-5.248676016926765">
        <ele>782.16999999999996</ele>
        <time>2025-04-29T10:35:45Z</time>
      </trkpt>
      <trkpt lat="43.136521959677339" lon="-5.248781964182854">
        <ele>781.69000000000005</ele>
        <time>2025-04-29T10:35:46Z</time>
      </trkpt>
      <trkpt lat="43.136573005467653" lon="-5.24883502162993">
        <ele>780.73000000000002</ele>
        <time>2025-04-29T10:35:47Z</time>
      </trkpt>
      <trkpt lat="43.136676019057631" lon="-5.248908028006554">
        <ele>780.25</ele>
        <time>2025-04-29T10:35:48Z</time>
      </trkpt>
      <trkpt lat="43.136791018769145" lon="-5.248976005241275">
        <ele>779.28999999999996</ele>
        <time>2025-04-29T10:35:49Z</time>
      </trkpt>
      <trkpt lat="43.136916998773813" lon="-5.24905001744628">
        <ele>778.32000000000005</ele>
        <time>2025-04-29T10:35:50Z</time>
      </trkpt>
      <trkpt lat="43.13704096712172" lon="-5.249124029651284">
        <ele>777.36000000000001</ele>
        <time>2025-04-29T10:35:51Z</time>
      </trkpt>
      <trkpt lat="43.137155966833234" lon="-5.249140039086342">
        <ele>776.39999999999998</ele>
        <time>2025-04-29T10:35:52Z</time>
      </trkpt>
      <trkpt lat="43.137269038707018" lon="-5.249123023822904">
        <ele>775.44000000000005</ele>
        <time>2025-04-29T10:35:53Z</time>
      </trkpt>
      <trkpt lat="43.137903967872262" lon="-5.248825969174504">
        <ele>771.11000000000001</ele>
        <time>2025-04-29T10:35:58Z</time>
      </trkpt>
      <trkpt lat="43.138032965362072" lon="-5.248825969174504">
        <ele>770.14999999999998</ele>
        <time>2025-04-29T10:35:59Z</time>
      </trkpt>
      <trkpt lat="43.138172021135688" lon="-5.248833009973168">
        <ele>768.71000000000004</ele>
        <time>2025-04-29T10:36:00Z</time>
      </trkpt>
      <trkpt lat="43.13830696977675" lon="-5.248925965279341">
        <ele>767.75</ele>
        <time>2025-04-29T10:36:01Z</time>
      </trkpt>
      <trkpt lat="43.138445019721985" lon="-5.249022021889687">
        <ele>766.78999999999996</ele>
        <time>2025-04-29T10:36:02Z</time>
      </trkpt>
      <trkpt lat="43.138588014990091" lon="-5.249121012166143">
        <ele>765.83000000000004</ele>
        <time>2025-04-29T10:36:03Z</time>
      </trkpt>
      <trkpt lat="43.13873402774334" lon="-5.249220002442598">
        <ele>764.87</ele>
        <time>2025-04-29T10:36:04Z</time>
      </trkpt>
      <trkpt lat="43.13888699747622" lon="-5.249303989112377">
        <ele>763.89999999999998</ele>
        <time>2025-04-29T10:36:05Z</time>
      </trkpt>
      <trkpt lat="43.139038039371371" lon="-5.249386969953775">
        <ele>762.94000000000005</ele>
        <time>2025-04-29T10:36:06Z</time>
      </trkpt>
      <trkpt lat="43.139185979962349" lon="-5.249501969665289">
        <ele>762.46000000000004</ele>
        <time>2025-04-29T10:36:07Z</time>
      </trkpt>
      <trkpt lat="43.139741029590368" lon="-5.250243013724685">
        <ele>760.05999999999995</ele>
        <time>2025-04-29T10:36:12Z</time>
      </trkpt>
      <trkpt lat="43.139870027080178" lon="-5.250351978465915">
        <ele>759.58000000000004</ele>
        <time>2025-04-29T10:36:13Z</time>
      </trkpt>
      <trkpt lat="43.140576034784317" lon="-5.251133004203439">
        <ele>755.25</ele>
        <time>2025-04-29T10:36:19Z</time>
      </trkpt>
      <trkpt lat="43.140661027282476" lon="-5.251283962279558">
        <ele>754.76999999999998</ele>
        <time>2025-04-29T10:36:20Z</time>
      </trkpt>
      <trkpt lat="43.140743002295494" lon="-5.251427041366696">
        <ele>753.80999999999995</ele>
        <time>2025-04-29T10:36:21Z</time>
      </trkpt>
      <trkpt lat="43.140801005065441" lon="-5.251528965309262">
        <ele>752.37</ele>
        <time>2025-04-29T10:36:22Z</time>
      </trkpt>
      <trkpt lat="43.140926985070109" lon="-5.251655029132962">
        <ele>751.40999999999997</ele>
        <time>2025-04-29T10:36:23Z</time>
      </trkpt>
      <trkpt lat="43.141029998660088" lon="-5.251757958903909">
        <ele>749.97000000000003</ele>
        <time>2025-04-29T10:36:24Z</time>
      </trkpt>
      <trkpt lat="43.141344990581274" lon="-5.252043027430773">
        <ele>745.63999999999999</ele>
        <time>2025-04-29T10:36:27Z</time>
      </trkpt>
      <trkpt lat="43.141451021656394" lon="-5.252078985795379">
        <ele>744.67999999999995</ele>
        <time>2025-04-29T10:36:28Z</time>
      </trkpt>
      <trkpt lat="43.141715973615646" lon="-5.252127014100552">
        <ele>741.78999999999996</ele>
        <time>2025-04-29T10:36:30Z</time>
      </trkpt>
      <trkpt lat="43.141853017732501" lon="-5.252152998000383">
        <ele>740.35000000000002</ele>
        <time>2025-04-29T10:36:31Z</time>
      </trkpt>
      <trkpt lat="43.141968017444015" lon="-5.252244025468826">
        <ele>738.90999999999997</ele>
        <time>2025-04-29T10:36:32Z</time>
      </trkpt>
      <trkpt lat="43.142078993842006" lon="-5.252333963289857">
        <ele>737.47000000000003</ele>
        <time>2025-04-29T10:36:33Z</time>
      </trkpt>
      <trkpt lat="43.142197011038661" lon="-5.252427002415061">
        <ele>735.07000000000005</ele>
        <time>2025-04-29T10:36:34Z</time>
      </trkpt>
      <trkpt lat="43.14228099770844" lon="-5.252494979649782">
        <ele>733.13999999999999</ele>
        <time>2025-04-29T10:36:35Z</time>
      </trkpt>
      <trkpt lat="43.142416030168533" lon="-5.252647027373314">
        <ele>730.74000000000001</ele>
        <time>2025-04-29T10:36:36Z</time>
      </trkpt>
      <trkpt lat="43.142527006566525" lon="-5.252770995721221">
        <ele>728.34000000000003</ele>
        <time>2025-04-29T10:36:37Z</time>
      </trkpt>
      <trkpt lat="43.142637982964516" lon="-5.252900999039412">
        <ele>726.40999999999997</ele>
        <time>2025-04-29T10:36:38Z</time>
      </trkpt>
      <trkpt lat="43.142740996554494" lon="-5.253052962943912">
        <ele>724.00999999999999</ele>
        <time>2025-04-29T10:36:39Z</time>
      </trkpt>
      <trkpt lat="43.142940988764167" lon="-5.25334800593555">
        <ele>720.15999999999997</ele>
        <time>2025-04-29T10:36:41Z</time>
      </trkpt>
      <trkpt lat="43.143036039546132" lon="-5.253487983718514">
        <ele>718.72000000000003</ele>
        <time>2025-04-29T10:36:42Z</time>
      </trkpt>
      <trkpt lat="43.143108962103724" lon="-5.253641959279776">
        <ele>716.79999999999995</ele>
        <time>2025-04-29T10:36:43Z</time>
      </trkpt>
      <trkpt lat="43.143166964873672" lon="-5.253805993124843">
        <ele>715.36000000000001</ele>
        <time>2025-04-29T10:36:44Z</time>
      </trkpt>
      <trkpt lat="43.143229996785522" lon="-5.253985030576587">
        <ele>713.91999999999996</ele>
        <time>2025-04-29T10:36:45Z</time>
      </trkpt>
      <trkpt lat="43.143284982070327" lon="-5.25414202362299">
        <ele>712.95000000000005</ele>
        <time>2025-04-29T10:36:46Z</time>
      </trkpt>
      <trkpt lat="43.14333401620388" lon="-5.254276972264051">
        <ele>711.50999999999999</ele>
        <time>2025-04-29T10:36:47Z</time>
      </trkpt>
      <trkpt lat="43.143423032015562" lon="-5.254388032481074">
        <ele>710.07000000000005</ele>
        <time>2025-04-29T10:36:48Z</time>
      </trkpt>
      <trkpt lat="43.143520010635257" lon="-5.254507977515459">
        <ele>708.63</ele>
        <time>2025-04-29T10:36:49Z</time>
      </trkpt>
      <trkpt lat="43.143626963719726" lon="-5.254640998318791">
        <ele>707.66999999999996</ele>
        <time>2025-04-29T10:36:50Z</time>
      </trkpt>
      <trkpt lat="43.14374104142189" lon="-5.254781981930137">
        <ele>706.23000000000002</ele>
        <time>2025-04-29T10:36:51Z</time>
      </trkpt>
      <trkpt lat="43.143837014213204" lon="-5.254963031038642">
        <ele>705.25999999999999</ele>
        <time>2025-04-29T10:36:52Z</time>
      </trkpt>
      <trkpt lat="43.143921000882983" lon="-5.255164029076695">
        <ele>704.29999999999995</ele>
        <time>2025-04-29T10:36:53Z</time>
      </trkpt>
      <trkpt lat="43.14434302970767" lon="-5.25611998513341">
        <ele>700.46000000000004</ele>
        <time>2025-04-29T10:36:58Z</time>
      </trkpt>
      <trkpt lat="43.144433973357081" lon="-5.256265997886658">
        <ele>699.98000000000002</ele>
        <time>2025-04-29T10:36:59Z</time>
      </trkpt>
      <trkpt lat="43.144545033574104" lon="-5.25639901868999">
        <ele>699.5</ele>
        <time>2025-04-29T10:37:00Z</time>
      </trkpt>
      <trkpt lat="43.144678976386786" lon="-5.256504965946078">
        <ele>698.52999999999997</ele>
        <time>2025-04-29T10:37:01Z</time>
      </trkpt>
      <trkpt lat="43.144817026332021" lon="-5.256605967879295">
        <ele>698.04999999999995</ele>
        <time>2025-04-29T10:37:02Z</time>
      </trkpt>
      <trkpt lat="43.14496798440814" lon="-5.256684003397822">
        <ele>697.09000000000003</ele>
        <time>2025-04-29T10:37:03Z</time>
      </trkpt>
      <trkpt lat="43.14567600376904" lon="-5.257046017795801">
        <ele>693.25</ele>
        <time>2025-04-29T10:37:08Z</time>
      </trkpt>
      <trkpt lat="43.145781029015779" lon="-5.257132016122341">
        <ele>692.76999999999998</ele>
        <time>2025-04-29T10:37:09Z</time>
      </trkpt>
      <trkpt lat="43.14587096683681" lon="-5.257233018055558">
        <ele>691.80999999999995</ele>
        <time>2025-04-29T10:37:10Z</time>
      </trkpt>
      <trkpt lat="43.145925030112267" lon="-5.257371990010142">
        <ele>691.33000000000004</ele>
        <time>2025-04-29T10:37:11Z</time>
      </trkpt>
      <trkpt lat="43.145983032882214" lon="-5.257521020248532">
        <ele>690.84000000000003</ele>
        <time>2025-04-29T10:37:12Z</time>
      </trkpt>
      <trkpt lat="43.146025026217103" lon="-5.257696034386754">
        <ele>689.88</ele>
        <time>2025-04-29T10:37:13Z</time>
      </trkpt>
      <trkpt lat="43.146043969318271" lon="-5.257869958877564">
        <ele>689.39999999999998</ele>
        <time>2025-04-29T10:37:14Z</time>
      </trkpt>
      <trkpt lat="43.14606299623847" lon="-5.258048996329308">
        <ele>688.91999999999996</ele>
        <time>2025-04-29T10:37:15Z</time>
      </trkpt>
      <trkpt lat="43.146099960431457" lon="-5.258387038484216">
        <ele>688.44000000000005</ele>
        <time>2025-04-29T10:37:17Z</time>
      </trkpt>
      <trkpt lat="43.146116975694895" lon="-5.258543025702238">
        <ele>687.96000000000004</ele>
        <time>2025-04-29T10:37:18Z</time>
      </trkpt>
      <trkpt lat="43.146159974858165" lon="-5.258671017363668">
        <ele>687.96000000000004</ele>
        <time>2025-04-29T10:37:19Z</time>
      </trkpt>
      <trkpt lat="43.146304981783032" lon="-5.258983997628093">
        <ele>687.48000000000002</ele>
        <time>2025-04-29T10:37:21Z</time>
      </trkpt>
      <trkpt lat="43.146808985620737" lon="-5.260304985567927">
        <ele>687.48000000000002</ele>
        <time>2025-04-29T10:37:28Z</time>
      </trkpt>
      <trkpt lat="43.146893978118896" lon="-5.26045803911984">
        <ele>687.48000000000002</ele>
        <time>2025-04-29T10:37:29Z</time>
      </trkpt>
      <trkpt lat="43.147020963951945" lon="-5.260684015229344">
        <ele>687.48000000000002</ele>
        <time>2025-04-29T10:37:31Z</time>
      </trkpt>
      <trkpt lat="43.147087013348937" lon="-5.260802032426">
        <ele>687.48000000000002</ele>
        <time>2025-04-29T10:37:32Z</time>
      </trkpt>
      <trkpt lat="43.147108973935246" lon="-5.260842014104128">
        <ele>687</ele>
        <time>2025-04-29T10:37:33Z</time>
      </trkpt>
      <trkpt lat="43.147108973935246" lon="-5.260842014104128">
        <ele>687</ele>
        <time>2025-04-29T10:37:35Z</time>
      </trkpt>
      <trkpt lat="43.147406028583646" lon="-5.261937025934458">
        <ele>687.96000000000004</ele>
        <time>2025-04-29T10:37:39Z</time>
      </trkpt>
      <trkpt lat="43.147664023563266" lon="-5.262118997052312">
        <ele>687.48000000000002</ele>
        <time>2025-04-29T10:37:41Z</time>
      </trkpt>
      <trkpt lat="43.148174984380603" lon="-5.262959031388164">
        <ele>692.28999999999996</ele>
        <time>2025-04-29T10:37:47Z</time>
      </trkpt>
      <trkpt lat="43.148568011820316" lon="-5.263331020250917">
        <ele>693.25</ele>
        <time>2025-04-29T10:37:51Z</time>
      </trkpt>
      <trkpt lat="43.148732967674732" lon="-5.264647984877229">
        <ele>691.80999999999995</ele>
        <time>2025-04-29T10:37:57Z</time>
      </trkpt>
      <trkpt lat="43.149489015340805" lon="-5.265502016991377">
        <ele>691.80999999999995</ele>
        <time>2025-04-29T10:38:03Z</time>
      </trkpt>
      <trkpt lat="43.150092009454966" lon="-5.266507007181644">
        <ele>691.33000000000004</ele>
        <time>2025-04-29T10:38:10Z</time>
      </trkpt>
      <trkpt lat="43.15010298974812" lon="-5.266839014366269">
        <ele>691.33000000000004</ele>
        <time>2025-04-29T10:38:11Z</time>
      </trkpt>
      <trkpt lat="43.150108018890023" lon="-5.26697002351284">
        <ele>691.80999999999995</ele>
        <time>2025-04-29T10:38:12Z</time>
      </trkpt>
      <trkpt lat="43.150112964212894" lon="-5.267107989639044">
        <ele>691.80999999999995</ele>
        <time>2025-04-29T10:38:13Z</time>
      </trkpt>
      <trkpt lat="43.150099972262979" lon="-5.267158029600978">
        <ele>691.80999999999995</ele>
        <time>2025-04-29T10:38:14Z</time>
      </trkpt>
      <trkpt lat="43.150049010291696" lon="-5.267344024032354">
        <ele>692.28999999999996</ele>
        <time>2025-04-29T10:38:15Z</time>
      </trkpt>
      <trkpt lat="43.150013973936439" lon="-5.267372019588947">
        <ele>692.28999999999996</ele>
        <time>2025-04-29T10:38:16Z</time>
      </trkpt>
      <trkpt lat="43.149915989488363" lon="-5.267453994601965">
        <ele>692.76999999999998</ele>
        <time>2025-04-29T10:38:17Z</time>
      </trkpt>
      <trkpt lat="43.149791015312076" lon="-5.267558014020324">
        <ele>692.76999999999998</ele>
        <time>2025-04-29T10:38:18Z</time>
      </trkpt>
      <trkpt lat="43.149718008935452" lon="-5.267667984589934">
        <ele>693.25</ele>
        <time>2025-04-29T10:38:19Z</time>
      </trkpt>
      <trkpt lat="43.149637039750814" lon="-5.267848027870059">
        <ele>693.25</ele>
        <time>2025-04-29T10:38:20Z</time>
      </trkpt>
      <trkpt lat="43.149593034759164" lon="-5.268016001209617">
        <ele>693.25</ele>
        <time>2025-04-29T10:38:21Z</time>
      </trkpt>
      <trkpt lat="43.149550035595894" lon="-5.268212975934148">
        <ele>693.25</ele>
        <time>2025-04-29T10:38:22Z</time>
      </trkpt>
      <trkpt lat="43.149531008675694" lon="-5.268397964537144">
        <ele>693.25</ele>
        <time>2025-04-29T10:38:23Z</time>
      </trkpt>
      <trkpt lat="43.149511981755495" lon="-5.26858001947403">
        <ele>693.73000000000002</ele>
        <time>2025-04-29T10:38:24Z</time>
      </trkpt>
      <trkpt lat="43.149491026997566" lon="-5.268781017512083">
        <ele>693.73000000000002</ele>
        <time>2025-04-29T10:38:25Z</time>
      </trkpt>
      <trkpt lat="43.149434030056" lon="-5.268900040537119">
        <ele>693.73000000000002</ele>
        <time>2025-04-29T10:38:26Z</time>
      </trkpt>
      <trkpt lat="43.149353982880712" lon="-5.269068013876677">
        <ele>693.73000000000002</ele>
        <time>2025-04-29T10:38:27Z</time>
      </trkpt>
      <trkpt lat="43.149275025352836" lon="-5.269234981387854">
        <ele>693.73000000000002</ele>
        <time>2025-04-29T10:38:28Z</time>
      </trkpt>
      <trkpt lat="43.149194978177547" lon="-5.269402032718062">
        <ele>693.25</ele>
        <time>2025-04-29T10:38:29Z</time>
      </trkpt>
      <trkpt lat="43.149039996787906" lon="-5.269728004932404">
        <ele>692.76999999999998</ele>
        <time>2025-04-29T10:38:31Z</time>
      </trkpt>
      <trkpt lat="43.148967996239662" lon="-5.269879968836904">
        <ele>692.28999999999996</ele>
        <time>2025-04-29T10:38:32Z</time>
      </trkpt>
      <trkpt lat="43.148897001519799" lon="-5.270028999075294">
        <ele>692.28999999999996</ele>
        <time>2025-04-29T10:38:33Z</time>
      </trkpt>
      <trkpt lat="43.148826006799936" lon="-5.270168976858258">
        <ele>691.80999999999995</ele>
        <time>2025-04-29T10:38:34Z</time>
      </trkpt>
      <trkpt lat="43.148736990988255" lon="-5.270314989611507">
        <ele>691.33000000000004</ele>
        <time>2025-04-29T10:38:35Z</time>
      </trkpt>
      <trkpt lat="43.148471033200622" lon="-5.270769037306309">
        <ele>689.39999999999998</ele>
        <time>2025-04-29T10:38:38Z</time>
      </trkpt>
      <trkpt lat="43.148354021832347" lon="-5.271119987592101">
        <ele>687.48000000000002</ele>
        <time>2025-04-29T10:38:40Z</time>
      </trkpt>
      <trkpt lat="43.148360978811979" lon="-5.271273963153362">
        <ele>686.51999999999998</ele>
        <time>2025-04-29T10:38:41Z</time>
      </trkpt>
      <trkpt lat="43.148369025439024" lon="-5.271434979513288">
        <ele>685.55999999999995</ele>
        <time>2025-04-29T10:38:42Z</time>
      </trkpt>
      <trkpt lat="43.148386040702462" lon="-5.271794982254505">
        <ele>684.60000000000002</ele>
        <time>2025-04-29T10:38:44Z</time>
      </trkpt>
      <trkpt lat="43.148739002645016" lon="-5.273389974609017">
        <ele>680.75</ele>
        <time>2025-04-29T10:38:52Z</time>
      </trkpt>
      <trkpt lat="43.149059023708105" lon="-5.274762008339167">
        <ele>677.87</ele>
        <time>2025-04-29T10:38:59Z</time>
      </trkpt>
      <trkpt lat="43.149105040356517" lon="-5.274917995557189">
        <ele>677.87</ele>
        <time>2025-04-29T10:39:00Z</time>
      </trkpt>
      <trkpt lat="43.149077966809273" lon="-5.274997036904097">
        <ele>678.35000000000002</ele>
        <time>2025-04-29T10:39:01Z</time>
      </trkpt>
      <trkpt lat="43.148996997624636" lon="-5.27524002827704">
        <ele>679.30999999999995</ele>
        <time>2025-04-29T10:39:03Z</time>
      </trkpt>
      <trkpt lat="43.149003032594919" lon="-5.275375982746482">
        <ele>679.78999999999996</ele>
        <time>2025-04-29T10:39:04Z</time>
      </trkpt>
      <trkpt lat="43.149009989574552" lon="-5.275529958307743">
        <ele>680.26999999999998</ele>
        <time>2025-04-29T10:39:05Z</time>
      </trkpt>
      <trkpt lat="43.149017030373216" lon="-5.275684017688036">
        <ele>681.23000000000002</ele>
        <time>2025-04-29T10:39:06Z</time>
      </trkpt>
      <trkpt lat="43.149022981524467" lon="-5.275834975764155">
        <ele>681.71000000000004</ele>
        <time>2025-04-29T10:39:07Z</time>
      </trkpt>
      <trkpt lat="43.149030022323132" lon="-5.275987023487687">
        <ele>682.66999999999996</ele>
        <time>2025-04-29T10:39:08Z</time>
      </trkpt>
      <trkpt lat="43.149031028151512" lon="-5.277053033933044">
        <ele>684.60000000000002</ele>
        <time>2025-04-29T10:39:15Z</time>
      </trkpt>
      <trkpt lat="43.148871017619967" lon="-5.278473012149334">
        <ele>688.44000000000005</ele>
        <time>2025-04-29T10:39:24Z</time>
      </trkpt>
      <trkpt lat="43.148884009569883" lon="-5.278817005455494">
        <ele>689.39999999999998</ele>
        <time>2025-04-29T10:39:26Z</time>
      </trkpt>
      <trkpt lat="43.148912005126476" lon="-5.279510021209717">
        <ele>690.84000000000003</ele>
        <time>2025-04-29T10:39:30Z</time>
      </trkpt>
      <trkpt lat="43.148861965164542" lon="-5.2798390109092">
        <ele>691.33000000000004</ele>
        <time>2025-04-29T10:39:32Z</time>
      </trkpt>
      <trkpt lat="43.148849979043007" lon="-5.280018970370293">
        <ele>692.28999999999996</ele>
        <time>2025-04-29T10:39:33Z</time>
      </trkpt>
      <trkpt lat="43.148862970992923" lon="-5.280543006956577">
        <ele>693.25</ele>
        <time>2025-04-29T10:39:36Z</time>
      </trkpt>
      <trkpt lat="43.148848973214626" lon="-5.28072003275156">
        <ele>694.21000000000004</ele>
        <time>2025-04-29T10:39:37Z</time>
      </trkpt>
      <trkpt lat="43.148837992921472" lon="-5.281080035492778">
        <ele>695.16999999999996</ele>
        <time>2025-04-29T10:39:39Z</time>
      </trkpt>
      <trkpt lat="43.148869005963206" lon="-5.281243985518813">
        <ele>696.13</ele>
        <time>2025-04-29T10:39:40Z</time>
      </trkpt>
      <trkpt lat="43.148973025381565" lon="-5.281716976314783">
        <ele>697.57000000000005</ele>
        <time>2025-04-29T10:39:43Z</time>
      </trkpt>
      <trkpt lat="43.149018958210945" lon="-5.281866006553173">
        <ele>698.04999999999995</ele>
        <time>2025-04-29T10:39:44Z</time>
      </trkpt>
      <trkpt lat="43.149089030921459" lon="-5.282035991549492">
        <ele>698.52999999999997</ele>
        <time>2025-04-29T10:39:45Z</time>
      </trkpt>
      <trkpt lat="43.14917997457087" lon="-5.282159959897399">
        <ele>699.01999999999998</ele>
        <time>2025-04-29T10:39:46Z</time>
      </trkpt>
      <trkpt lat="43.149273013696074" lon="-5.282286023721099">
        <ele>699.5</ele>
        <time>2025-04-29T10:39:47Z</time>
      </trkpt>
      <trkpt lat="43.149367980659008" lon="-5.282424995675683">
        <ele>699.5</ele>
        <time>2025-04-29T10:39:48Z</time>
      </trkpt>
      <trkpt lat="43.14943696372211" lon="-5.282621970400214">
        <ele>699.01999999999998</ele>
        <time>2025-04-29T10:39:49Z</time>
      </trkpt>
      <trkpt lat="43.150094021111727" lon="-5.284197013825178">
        <ele>692.76999999999998</ele>
        <time>2025-04-29T10:39:57Z</time>
      </trkpt>
      <trkpt lat="43.150357967242599" lon="-5.28493101708591">
        <ele>687.48000000000002</ele>
        <time>2025-04-29T10:40:01Z</time>
      </trkpt>
      <trkpt lat="43.15040398389101" lon="-5.285098990425468">
        <ele>685.08000000000004</ele>
        <time>2025-04-29T10:40:02Z</time>
      </trkpt>
      <trkpt lat="43.150413958355784" lon="-5.285277022048831">
        <ele>683.63</ele>
        <time>2025-04-29T10:40:03Z</time>
      </trkpt>
      <trkpt lat="43.150413958355784" lon="-5.285438960418105">
        <ele>681.71000000000004</ele>
        <time>2025-04-29T10:40:04Z</time>
      </trkpt>
      <trkpt lat="43.150413958355784" lon="-5.285581033676863">
        <ele>679.78999999999996</ele>
        <time>2025-04-29T10:40:05Z</time>
      </trkpt>
      <trkpt lat="43.150440026074648" lon="-5.285680023953319">
        <ele>678.35000000000002</ele>
        <time>2025-04-29T10:40:06Z</time>
      </trkpt>
      <trkpt lat="43.150475984439254" lon="-5.285782031714916">
        <ele>676.90999999999997</ele>
        <time>2025-04-29T10:40:07Z</time>
      </trkpt>
      <trkpt lat="43.150515966117382" lon="-5.285895019769669">
        <ele>675.94000000000005</ele>
        <time>2025-04-29T10:40:08Z</time>
      </trkpt>
      <trkpt lat="43.150563994422555" lon="-5.286023011431098">
        <ele>674.5</ele>
        <time>2025-04-29T10:40:09Z</time>
      </trkpt>
      <trkpt lat="43.151137987151742" lon="-5.287438966333866">
        <ele>665.37</ele>
        <time>2025-04-29T10:40:18Z</time>
      </trkpt>
      <trkpt lat="43.151821028441191" lon="-5.289034964516759">
        <ele>660.55999999999995</ele>
        <time>2025-04-29T10:40:28Z</time>
      </trkpt>
      <trkpt lat="43.151872996240854" lon="-5.289145018905401">
        <ele>660.55999999999995</ele>
        <time>2025-04-29T10:40:29Z</time>
      </trkpt>
      <trkpt lat="43.151963017880917" lon="-5.289307041093707">
        <ele>660.55999999999995</ele>
        <time>2025-04-29T10:40:30Z</time>
      </trkpt>
      <trkpt lat="43.152039041742682" lon="-5.289440983906388">
        <ele>660.55999999999995</ele>
        <time>2025-04-29T10:40:31Z</time>
      </trkpt>
      <trkpt lat="43.152112970128655" lon="-5.289574004709721">
        <ele>660.08000000000004</ele>
        <time>2025-04-29T10:40:32Z</time>
      </trkpt>
      <trkpt lat="43.152182959020138" lon="-5.289703002199531">
        <ele>660.08000000000004</ele>
        <time>2025-04-29T10:40:33Z</time>
      </trkpt>
      <trkpt lat="43.152240039780736" lon="-5.289837028831244">
        <ele>659.60000000000002</ele>
        <time>2025-04-29T10:40:34Z</time>
      </trkpt>
      <trkpt lat="43.152301982045174" lon="-5.289981029927731">
        <ele>659.12</ele>
        <time>2025-04-29T10:40:35Z</time>
      </trkpt>
      <trkpt lat="43.152346992865205" lon="-5.29010902158916">
        <ele>659.12</ele>
        <time>2025-04-29T10:40:36Z</time>
      </trkpt>
      <trkpt lat="43.152441037818789" lon="-5.290377996861935">
        <ele>658.63999999999999</ele>
        <time>2025-04-29T10:40:38Z</time>
      </trkpt>
      <trkpt lat="43.152581015601754" lon="-5.290774963796139">
        <ele>658.15999999999997</ele>
        <time>2025-04-29T10:40:41Z</time>
      </trkpt>
      <trkpt lat="43.15265896730125" lon="-5.290879989042878">
        <ele>657.67999999999995</ele>
        <time>2025-04-29T10:40:42Z</time>
      </trkpt>
      <trkpt lat="43.152825012803078" lon="-5.291100014001131">
        <ele>656.72000000000003</ele>
        <time>2025-04-29T10:40:44Z</time>
      </trkpt>
      <trkpt lat="43.152913022786379" lon="-5.291231023147702">
        <ele>656.72000000000003</ele>
        <time>2025-04-29T10:40:45Z</time>
      </trkpt>
      <trkpt lat="43.152991980314255" lon="-5.291390027850866">
        <ele>655.75999999999999</ele>
        <time>2025-04-29T10:40:46Z</time>
      </trkpt>
      <trkpt lat="43.153054006397724" lon="-5.291583985090256">
        <ele>655.27999999999997</ele>
        <time>2025-04-29T10:40:47Z</time>
      </trkpt>
      <trkpt lat="43.153117038309574" lon="-5.291783977299929">
        <ele>655.27999999999997</ele>
        <time>2025-04-29T10:40:48Z</time>
      </trkpt>
      <trkpt lat="43.153156014159322" lon="-5.29200199060142">
        <ele>654.79999999999995</ele>
        <time>2025-04-29T10:40:49Z</time>
      </trkpt>
      <trkpt lat="43.153266990557313" lon="-5.292631974443793">
        <ele>653.83000000000004</ele>
        <time>2025-04-29T10:40:52Z</time>
      </trkpt>
      <trkpt lat="43.153250981122255" lon="-5.292826015502214">
        <ele>653.35000000000002</ele>
        <time>2025-04-29T10:40:53Z</time>
      </trkpt>
      <trkpt lat="43.153234971687198" lon="-5.293023996055126">
        <ele>652.87</ele>
        <time>2025-04-29T10:40:54Z</time>
      </trkpt>
      <trkpt lat="43.15304403193295" lon="-5.294895004481077">
        <ele>651.42999999999995</ele>
        <time>2025-04-29T10:41:03Z</time>
      </trkpt>
      <trkpt lat="43.153085019439459" lon="-5.29550101608038">
        <ele>651.42999999999995</ele>
        <time>2025-04-29T10:41:06Z</time>
      </trkpt>
      <trkpt lat="43.153189960867167" lon="-5.296281035989523">
        <ele>651.90999999999997</ele>
        <time>2025-04-29T10:41:10Z</time>
      </trkpt>
      <trkpt lat="43.153269002214074" lon="-5.296452026814222">
        <ele>651.90999999999997</ele>
        <time>2025-04-29T10:41:11Z</time>
      </trkpt>
      <trkpt lat="43.153364975005388" lon="-5.296598961576819">
        <ele>651.90999999999997</ele>
        <time>2025-04-29T10:41:12Z</time>
      </trkpt>
      <trkpt lat="43.153674015775323" lon="-5.297010010108352">
        <ele>652.87</ele>
        <time>2025-04-29T10:41:15Z</time>
      </trkpt>
      <trkpt lat="43.154532993212342" lon="-5.297921039164066">
        <ele>651.42999999999995</ele>
        <time>2025-04-29T10:41:22Z</time>
      </trkpt>
      <trkpt lat="43.154622009024024" lon="-5.298062022775412">
        <ele>650.47000000000003</ele>
        <time>2025-04-29T10:41:23Z</time>
      </trkpt>
      <trkpt lat="43.154685962945223" lon="-5.298250028863549">
        <ele>649.99000000000001</ele>
        <time>2025-04-29T10:41:24Z</time>
      </trkpt>
      <trkpt lat="43.155019981786609" lon="-5.299232974648476">
        <ele>647.10000000000002</ele>
        <time>2025-04-29T10:41:30Z</time>
      </trkpt>
      <trkpt lat="43.155070021748543" lon="-5.299316039308906">
        <ele>647.10000000000002</ele>
        <time>2025-04-29T10:41:31Z</time>
      </trkpt>
      <trkpt lat="43.1551309581846" lon="-5.299337999895215">
        <ele>646.62</ele>
        <time>2025-04-29T10:41:32Z</time>
      </trkpt>
      <trkpt lat="43.155242018401623" lon="-5.299379993230104">
        <ele>646.13999999999999</ele>
        <time>2025-04-29T10:41:33Z</time>
      </trkpt>
      <trkpt lat="43.155327010899782" lon="-5.299345040693879">
        <ele>646.13999999999999</ele>
        <time>2025-04-29T10:41:34Z</time>
      </trkpt>
      <trkpt lat="43.155423989519477" lon="-5.299304975196719">
        <ele>646.13999999999999</ele>
        <time>2025-04-29T10:41:35Z</time>
      </trkpt>
      <trkpt lat="43.155519962310791" lon="-5.299264993518591">
        <ele>645.65999999999997</ele>
        <time>2025-04-29T10:41:36Z</time>
      </trkpt>
      <trkpt lat="43.155617024749517" lon="-5.299230040982366">
        <ele>645.65999999999997</ele>
        <time>2025-04-29T10:41:37Z</time>
      </trkpt>
      <trkpt lat="43.155717020854354" lon="-5.299230040982366">
        <ele>645.65999999999997</ele>
        <time>2025-04-29T10:41:38Z</time>
      </trkpt>
      <trkpt lat="43.15581701695919" lon="-5.299289971590042">
        <ele>645.17999999999995</ele>
        <time>2025-04-29T10:41:39Z</time>
      </trkpt>
      <trkpt lat="43.155905026942492" lon="-5.299394996836782">
        <ele>645.17999999999995</ele>
        <time>2025-04-29T10:41:40Z</time>
      </trkpt>
      <trkpt lat="43.155995970591903" lon="-5.299522988498211">
        <ele>645.17999999999995</ele>
        <time>2025-04-29T10:41:41Z</time>
      </trkpt>
      <trkpt lat="43.156793005764484" lon="-5.300571983680129">
        <ele>643.74000000000001</ele>
        <time>2025-04-29T10:41:48Z</time>
      </trkpt>
      <trkpt lat="43.156924014911056" lon="-5.300687989220023">
        <ele>643.25999999999999</ele>
        <time>2025-04-29T10:41:49Z</time>
      </trkpt>
      <trkpt lat="43.157153008505702" lon="-5.300890998914838">
        <ele>642.29999999999995</ele>
        <time>2025-04-29T10:41:51Z</time>
      </trkpt>
      <trkpt lat="43.157225009053946" lon="-5.300984038040042">
        <ele>642.29999999999995</ele>
        <time>2025-04-29T10:41:52Z</time>
      </trkpt>
      <trkpt lat="43.157259039580822" lon="-5.30113197863102">
        <ele>641.82000000000005</ele>
        <time>2025-04-29T10:41:53Z</time>
      </trkpt>
      <trkpt lat="43.157489961013198" lon="-5.302519015967846">
        <ele>639.88999999999999</ele>
        <time>2025-04-29T10:42:00Z</time>
      </trkpt>
      <trkpt lat="43.157569002360106" lon="-5.302868038415909">
        <ele>638.45000000000005</ele>
        <time>2025-04-29T10:42:02Z</time>
      </trkpt>
      <trkpt lat="43.157682996243238" lon="-5.303170038387179">
        <ele>637.49000000000001</ele>
        <time>2025-04-29T10:42:04Z</time>
      </trkpt>
      <trkpt lat="43.157739993184805" lon="-5.303317978978157">
        <ele>637.49000000000001</ele>
        <time>2025-04-29T10:42:05Z</time>
      </trkpt>
      <trkpt lat="43.157795984297991" lon="-5.303467009216547">
        <ele>637.00999999999999</ele>
        <time>2025-04-29T10:42:06Z</time>
      </trkpt>
      <trkpt lat="43.157868990674615" lon="-5.303573962301016">
        <ele>637.00999999999999</ele>
        <time>2025-04-29T10:42:07Z</time>
      </trkpt>
      <trkpt lat="43.15796697512269" lon="-5.303671024739742">
        <ele>637.00999999999999</ele>
        <time>2025-04-29T10:42:08Z</time>
      </trkpt>
      <trkpt lat="43.158070994541049" lon="-5.30377596616745">
        <ele>637.00999999999999</ele>
        <time>2025-04-29T10:42:09Z</time>
      </trkpt>
      <trkpt lat="43.15818197093904" lon="-5.303887026384473">
        <ele>637.00999999999999</ele>
        <time>2025-04-29T10:42:10Z</time>
      </trkpt>
      <trkpt lat="43.158301999792457" lon="-5.304005965590477">
        <ele>637.49000000000001</ele>
        <time>2025-04-29T10:42:11Z</time>
      </trkpt>
      <trkpt lat="43.159300033003092" lon="-5.30529904179275">
        <ele>640.38</ele>
        <time>2025-04-29T10:42:20Z</time>
      </trkpt>
      <trkpt lat="43.160155992954969" lon="-5.306892022490501">
        <ele>635.57000000000005</ele>
        <time>2025-04-29T10:42:29Z</time>
      </trkpt>
      <trkpt lat="43.16032899543643" lon="-5.307238027453423">
        <ele>634.61000000000001</ele>
        <time>2025-04-29T10:42:31Z</time>
      </trkpt>
      <trkpt lat="43.160422034561634" lon="-5.307393008843064">
        <ele>634.13</ele>
        <time>2025-04-29T10:42:32Z</time>
      </trkpt>
      <trkpt lat="43.16054399125278" lon="-5.30751496553421">
        <ele>633.64999999999998</ele>
        <time>2025-04-29T10:42:33Z</time>
      </trkpt>
      <trkpt lat="43.160926038399339" lon="-5.307823000475764">
        <ele>631.72000000000003</ele>
        <time>2025-04-29T10:42:36Z</time>
      </trkpt>
      <trkpt lat="43.161035003140569" lon="-5.30789902433753">
        <ele>630.75999999999999</ele>
        <time>2025-04-29T10:42:37Z</time>
      </trkpt>
      <trkpt lat="43.161127036437392" lon="-5.307970019057393">
        <ele>629.79999999999995</ele>
        <time>2025-04-29T10:42:38Z</time>
      </trkpt>
      <trkpt lat="43.161196019500494" lon="-5.308023998513818">
        <ele>628.84000000000003</ele>
        <time>2025-04-29T10:42:39Z</time>
      </trkpt>
      <trkpt lat="43.161223009228706" lon="-5.308094993233681">
        <ele>627.88</ele>
        <time>2025-04-29T10:42:40Z</time>
      </trkpt>
      <trkpt lat="43.161212028935552" lon="-5.308192977681756">
        <ele>626.91999999999996</ele>
        <time>2025-04-29T10:42:41Z</time>
      </trkpt>
      <trkpt lat="43.161199036985636" lon="-5.30830797739327">
        <ele>626.44000000000005</ele>
        <time>2025-04-29T10:42:42Z</time>
      </trkpt>
      <trkpt lat="43.161185961216688" lon="-5.308431023731828">
        <ele>625.47000000000003</ele>
        <time>2025-04-29T10:42:43Z</time>
      </trkpt>
      <trkpt lat="43.161171041429043" lon="-5.308563960716128">
        <ele>624.50999999999999</ele>
        <time>2025-04-29T10:42:44Z</time>
      </trkpt>
      <trkpt lat="43.161179004237056" lon="-5.308701004832983">
        <ele>624.02999999999997</ele>
        <time>2025-04-29T10:42:45Z</time>
      </trkpt>
      <trkpt lat="43.161205993965268" lon="-5.308835031464696">
        <ele>623.07000000000005</ele>
        <time>2025-04-29T10:42:46Z</time>
      </trkpt>
      <trkpt lat="43.161234995350242" lon="-5.308976015076041">
        <ele>622.11000000000001</ele>
        <time>2025-04-29T10:42:47Z</time>
      </trkpt>
      <trkpt lat="43.161312025040388" lon="-5.309348003938794">
        <ele>619.71000000000004</ele>
        <time>2025-04-29T10:42:50Z</time>
      </trkpt>
      <trkpt lat="43.161354018375278" lon="-5.309407012537122">
        <ele>618.75</ele>
        <time>2025-04-29T10:42:51Z</time>
      </trkpt>
      <trkpt lat="43.161390982568264" lon="-5.309453029185534">
        <ele>617.29999999999995</ele>
        <time>2025-04-29T10:42:52Z</time>
      </trkpt>
      <trkpt lat="43.161429036408663" lon="-5.309450011700392">
        <ele>616.34000000000003</ele>
        <time>2025-04-29T10:42:53Z</time>
      </trkpt>
      <trkpt lat="43.161469018086791" lon="-5.309430984780192">
        <ele>614.89999999999998</ele>
        <time>2025-04-29T10:42:54Z</time>
      </trkpt>
      <trkpt lat="43.161491984501481" lon="-5.309382034465671">
        <ele>613.94000000000005</ele>
        <time>2025-04-29T10:42:55Z</time>
      </trkpt>
      <trkpt lat="43.161506988108158" lon="-5.309293018653989">
        <ele>612.98000000000002</ele>
        <time>2025-04-29T10:42:56Z</time>
      </trkpt>
      <trkpt lat="43.161504976451397" lon="-5.30918899923563">
        <ele>612.01999999999998</ele>
        <time>2025-04-29T10:42:57Z</time>
      </trkpt>
      <trkpt lat="43.161501958966255" lon="-5.309072993695736">
        <ele>610.57000000000005</ele>
        <time>2025-04-29T10:42:58Z</time>
      </trkpt>
      <trkpt lat="43.161499025300145" lon="-5.30895103700459">
        <ele>609.61000000000001</ele>
        <time>2025-04-29T10:42:59Z</time>
      </trkpt>
      <trkpt lat="43.161496007815003" lon="-5.308830002322793">
        <ele>608.64999999999998</ele>
        <time>2025-04-29T10:43:00Z</time>
      </trkpt>
      <trkpt lat="43.161497013643384" lon="-5.308272019028664">
        <ele>605.28999999999996</ele>
        <time>2025-04-29T10:43:05Z</time>
      </trkpt>
      <trkpt lat="43.161507993936539" lon="-5.308165987953544">
        <ele>604.80999999999995</ele>
        <time>2025-04-29T10:43:06Z</time>
      </trkpt>
      <trkpt lat="43.161519980058074" lon="-5.308063980191946">
        <ele>604.33000000000004</ele>
        <time>2025-04-29T10:43:07Z</time>
      </trkpt>
      <trkpt lat="43.161536995321512" lon="-5.307960966601968">
        <ele>603.85000000000002</ele>
        <time>2025-04-29T10:43:08Z</time>
      </trkpt>
      <trkpt lat="43.161568008363247" lon="-5.307874968275428">
        <ele>603.85000000000002</ele>
        <time>2025-04-29T10:43:09Z</time>
      </trkpt>
      <trkpt lat="43.161650989204645" lon="-5.30770598910749">
        <ele>602.88</ele>
        <time>2025-04-29T10:43:11Z</time>
      </trkpt>
      <trkpt lat="43.161697005853057" lon="-5.307652009651065">
        <ele>602.39999999999998</ele>
        <time>2025-04-29T10:43:12Z</time>
      </trkpt>
      <trkpt lat="43.161806976422668" lon="-5.307614039629698">
        <ele>602.39999999999998</ele>
        <time>2025-04-29T10:43:13Z</time>
      </trkpt>
      <trkpt lat="43.161895992234349" lon="-5.307647986337543">
        <ele>601.44000000000005</ele>
        <time>2025-04-29T10:43:14Z</time>
      </trkpt>
      <trkpt lat="43.161987019702792" lon="-5.30768696218729">
        <ele>601.44000000000005</ele>
        <time>2025-04-29T10:43:15Z</time>
      </trkpt>
      <trkpt lat="43.162076035514474" lon="-5.30772702768445">
        <ele>600.96000000000004</ele>
        <time>2025-04-29T10:43:16Z</time>
      </trkpt>
      <trkpt lat="43.16258498467505" lon="-5.30796498991549">
        <ele>602.88</ele>
        <time>2025-04-29T10:43:22Z</time>
      </trkpt>
      <trkpt lat="43.162655979394913" lon="-5.308029027655721">
        <ele>602.88</ele>
        <time>2025-04-29T10:43:23Z</time>
      </trkpt>
      <trkpt lat="43.162719011306763" lon="-5.308112008497119">
        <ele>602.88</ele>
        <time>2025-04-29T10:43:24Z</time>
      </trkpt>
      <trkpt lat="43.162781959399581" lon="-5.308223990723491">
        <ele>603.36000000000001</ele>
        <time>2025-04-29T10:43:25Z</time>
      </trkpt>
      <trkpt lat="43.162839040160179" lon="-5.308352988213301">
        <ele>603.36000000000001</ele>
        <time>2025-04-29T10:43:26Z</time>
      </trkpt>
      <trkpt lat="43.162900982424617" lon="-5.308491960167885">
        <ele>603.85000000000002</ele>
        <time>2025-04-29T10:43:27Z</time>
      </trkpt>
      <trkpt lat="43.163199964910746" lon="-5.30942402780056">
        <ele>608.16999999999996</ele>
        <time>2025-04-29T10:43:33Z</time>
      </trkpt>
      <trkpt lat="43.163271965458989" lon="-5.309574985876679">
        <ele>608.64999999999998</ele>
        <time>2025-04-29T10:43:34Z</time>
      </trkpt>
      <trkpt lat="43.163415966555476" lon="-5.309875980019569">
        <ele>609.61000000000001</ele>
        <time>2025-04-29T10:43:36Z</time>
      </trkpt>
      <trkpt lat="43.16348503343761" lon="-5.310020986944437">
        <ele>610.09000000000003</ele>
        <time>2025-04-29T10:43:37Z</time>
      </trkpt>
      <trkpt lat="43.163630962371826" lon="-5.310303037986159">
        <ele>611.05999999999995</ele>
        <time>2025-04-29T10:43:39Z</time>
      </trkpt>
      <trkpt lat="43.164447024464607" lon="-5.311612039804459">
        <ele>614.41999999999996</ele>
        <time>2025-04-29T10:43:48Z</time>
      </trkpt>
      <trkpt lat="43.16460401751101" lon="-5.311924014240503">
        <ele>614.41999999999996</ele>
        <time>2025-04-29T10:43:50Z</time>
      </trkpt>
      <trkpt lat="43.164685992524028" lon="-5.312053011730313">
        <ele>614.89999999999998</ele>
        <time>2025-04-29T10:43:51Z</time>
      </trkpt>
      <trkpt lat="43.16477601416409" lon="-5.312159964814782">
        <ele>614.89999999999998</ele>
        <time>2025-04-29T10:43:52Z</time>
      </trkpt>
      <trkpt lat="43.164865029975772" lon="-5.312259960919619">
        <ele>614.89999999999998</ele>
        <time>2025-04-29T10:43:53Z</time>
      </trkpt>
      <trkpt lat="43.16496997140348" lon="-5.312321987003088">
        <ele>615.38</ele>
        <time>2025-04-29T10:43:54Z</time>
      </trkpt>
      <trkpt lat="43.165074996650219" lon="-5.312383007258177">
        <ele>615.86000000000001</ele>
        <time>2025-04-29T10:43:55Z</time>
      </trkpt>
      <trkpt lat="43.165194019675255" lon="-5.312428018078208">
        <ele>616.82000000000005</ele>
        <time>2025-04-29T10:43:56Z</time>
      </trkpt>
      <trkpt lat="43.165700035169721" lon="-5.312573025003076">
        <ele>620.66999999999996</ele>
        <time>2025-04-29T10:44:00Z</time>
      </trkpt>
      <trkpt lat="43.165817968547344" lon="-5.312542011961341">
        <ele>621.63</ele>
        <time>2025-04-29T10:44:01Z</time>
      </trkpt>
      <trkpt lat="43.165923999622464" lon="-5.312505969777703">
        <ele>622.11000000000001</ele>
        <time>2025-04-29T10:44:02Z</time>
      </trkpt>
      <trkpt lat="43.16602298989892" lon="-5.312473028898239">
        <ele>623.07000000000005</ele>
        <time>2025-04-29T10:44:03Z</time>
      </trkpt>
      <trkpt lat="43.166122986003757" lon="-5.312440004199743">
        <ele>624.02999999999997</ele>
        <time>2025-04-29T10:44:04Z</time>
      </trkpt>
      <trkpt lat="43.166214013472199" lon="-5.312409996986389">
        <ele>624.99000000000001</ele>
        <time>2025-04-29T10:44:05Z</time>
      </trkpt>
      <trkpt lat="43.166252989321947" lon="-5.312460958957672">
        <ele>626.44000000000005</ele>
        <time>2025-04-29T10:44:06Z</time>
      </trkpt>
      <trkpt lat="43.166290959343314" lon="-5.312547041103244">
        <ele>627.39999999999998</ele>
        <time>2025-04-29T10:44:07Z</time>
      </trkpt>
      <trkpt lat="43.166314009577036" lon="-5.312598003074527">
        <ele>627.88</ele>
        <time>2025-04-29T10:44:08Z</time>
      </trkpt>
      <trkpt lat="43.166290037333965" lon="-5.312655000016093">
        <ele>628.84000000000003</ele>
        <time>2025-04-29T10:44:09Z</time>
      </trkpt>
      <trkpt lat="43.166249971836805" lon="-5.312750972807407">
        <ele>629.79999999999995</ele>
        <time>2025-04-29T10:44:10Z</time>
      </trkpt>
      <trkpt lat="43.166205966845155" lon="-5.312854992225766">
        <ele>630.75999999999999</ele>
        <time>2025-04-29T10:44:11Z</time>
      </trkpt>
      <trkpt lat="43.166136983782053" lon="-5.312944008037448">
        <ele>631.72000000000003</ele>
        <time>2025-04-29T10:44:12Z</time>
      </trkpt>
      <trkpt lat="43.165970016270876" lon="-5.313198985531926">
        <ele>634.13</ele>
        <time>2025-04-29T10:44:15Z</time>
      </trkpt>
      <trkpt lat="43.165960041806102" lon="-5.313296969980001">
        <ele>635.09000000000003</ele>
        <time>2025-04-29T10:44:16Z</time>
      </trkpt>
      <trkpt lat="43.165948977693915" lon="-5.313392020761967">
        <ele>635.57000000000005</ele>
        <time>2025-04-29T10:44:17Z</time>
      </trkpt>
      <trkpt lat="43.165959035977721" lon="-5.313523029908538">
        <ele>636.52999999999997</ele>
        <time>2025-04-29T10:44:18Z</time>
      </trkpt>
      <trkpt lat="43.165968004614115" lon="-5.313644986599684">
        <ele>637.00999999999999</ele>
        <time>2025-04-29T10:44:19Z</time>
      </trkpt>
      <trkpt lat="43.16600002348423" lon="-5.313751017674804">
        <ele>637.97000000000003</ele>
        <time>2025-04-29T10:44:20Z</time>
      </trkpt>
      <trkpt lat="43.166061965748668" lon="-5.313857970759273">
        <ele>638.45000000000005</ele>
        <time>2025-04-29T10:44:21Z</time>
      </trkpt>
      <trkpt lat="43.166165985167027" lon="-5.3139169793576">
        <ele>638.92999999999995</ele>
        <time>2025-04-29T10:44:22Z</time>
      </trkpt>
      <trkpt lat="43.166276961565018" lon="-5.313981017097831">
        <ele>639.40999999999997</ele>
        <time>2025-04-29T10:44:23Z</time>
      </trkpt>
      <trkpt lat="43.166783982887864" lon="-5.314290979877114">
        <ele>640.86000000000001</ele>
        <time>2025-04-29T10:44:27Z</time>
      </trkpt>
      <trkpt lat="43.167718984186649" lon="-5.314957005903125">
        <ele>640.38</ele>
        <time>2025-04-29T10:44:34Z</time>
      </trkpt>
      <trkpt lat="43.168607968837023" lon="-5.31582796946168">
        <ele>635.09000000000003</ele>
        <time>2025-04-29T10:44:41Z</time>
      </trkpt>
      <trkpt lat="43.168721962720156" lon="-5.315980017185211">
        <ele>634.13</ele>
        <time>2025-04-29T10:44:42Z</time>
      </trkpt>
      <trkpt lat="43.168825982138515" lon="-5.316119994968176">
        <ele>633.16999999999996</ele>
        <time>2025-04-29T10:44:43Z</time>
      </trkpt>
      <trkpt lat="43.169969022274017" lon="-5.31720201484859">
        <ele>625.47000000000003</ele>
        <time>2025-04-29T10:44:52Z</time>
      </trkpt>
      <trkpt lat="43.170084021985531" lon="-5.317338975146413">
        <ele>624.99000000000001</ele>
        <time>2025-04-29T10:44:53Z</time>
      </trkpt>
      <trkpt lat="43.170389961451292" lon="-5.317791011184454">
        <ele>623.54999999999995</ele>
        <time>2025-04-29T10:44:56Z</time>
      </trkpt>
      <trkpt lat="43.170465985313058" lon="-5.317968958988786">
        <ele>622.59000000000003</ele>
        <time>2025-04-29T10:44:57Z</time>
      </trkpt>
      <trkpt lat="43.170522982254624" lon="-5.31817096285522">
        <ele>622.11000000000001</ele>
        <time>2025-04-29T10:44:58Z</time>
      </trkpt>
      <trkpt lat="43.170759016647935" lon="-5.318957017734647">
        <ele>620.19000000000005</ele>
        <time>2025-04-29T10:45:02Z</time>
      </trkpt>
      <trkpt lat="43.170831017196178" lon="-5.31913697719574">
        <ele>619.71000000000004</ele>
        <time>2025-04-29T10:45:03Z</time>
      </trkpt>
      <trkpt lat="43.170904023572803" lon="-5.319315008819103">
        <ele>619.23000000000002</ele>
        <time>2025-04-29T10:45:04Z</time>
      </trkpt>
      <trkpt lat="43.170980969443917" lon="-5.319488011300564">
        <ele>618.75</ele>
        <time>2025-04-29T10:45:05Z</time>
      </trkpt>
      <trkpt lat="43.171053975820541" lon="-5.31965103931725">
        <ele>617.77999999999997</ele>
        <time>2025-04-29T10:45:06Z</time>
      </trkpt>
      <trkpt lat="43.171184984967113" lon="-5.319944992661476">
        <ele>615.86000000000001</ele>
        <time>2025-04-29T10:45:10Z</time>
      </trkpt>
      <trkpt lat="43.171193031594157" lon="-5.319963013753295">
        <ele>615.38</ele>
        <time>2025-04-29T10:45:11Z</time>
      </trkpt>
      <trkpt lat="43.171244999393821" lon="-5.32008002512157">
        <ele>612.98000000000002</ele>
        <time>2025-04-29T10:45:20Z</time>
      </trkpt>
      <trkpt lat="43.171252962201834" lon="-5.320097040385008">
        <ele>612.5</ele>
        <time>2025-04-29T10:45:25Z</time>
      </trkpt>
      <trkpt lat="43.171281041577458" lon="-5.320214973762631">
        <ele>626.91999999999996</ele>
        <time>2025-04-29T10:55:24Z</time>
      </trkpt>
      <trkpt lat="43.171274000778794" lon="-5.320144984871149">
        <ele>618.25999999999999</ele>
        <time>2025-04-29T10:55:58Z</time>
      </trkpt>
      <trkpt lat="43.171254973858595" lon="-5.320131992921233">
        <ele>618.75</ele>
        <time>2025-04-29T10:56:51Z</time>
      </trkpt>
      <trkpt lat="43.171279029920697" lon="-5.320155965164304">
        <ele>618.75</ele>
        <time>2025-04-29T10:57:33Z</time>
      </trkpt>
      <trkpt lat="43.171539958566427" lon="-5.320626022294164">
        <ele>618.75</ele>
        <time>2025-04-29T10:57:39Z</time>
      </trkpt>
      <trkpt lat="43.172198021784425" lon="-5.32143596559763">
        <ele>616.34000000000003</ele>
        <time>2025-04-29T10:57:46Z</time>
      </trkpt>
      <trkpt lat="43.172319978475571" lon="-5.321520958095789">
        <ele>616.34000000000003</ele>
        <time>2025-04-29T10:57:47Z</time>
      </trkpt>
      <trkpt lat="43.17274896427989" lon="-5.321839973330498">
        <ele>614.89999999999998</ele>
        <time>2025-04-29T10:57:51Z</time>
      </trkpt>
      <trkpt lat="43.172818031162024" lon="-5.321975005790591">
        <ele>614.89999999999998</ele>
        <time>2025-04-29T10:57:52Z</time>
      </trkpt>
      <trkpt lat="43.172889025881886" lon="-5.322113977745175">
        <ele>614.41999999999996</ele>
        <time>2025-04-29T10:57:53Z</time>
      </trkpt>
      <trkpt lat="43.173088012263179" lon="-5.322499964386225">
        <ele>614.89999999999998</ele>
        <time>2025-04-29T10:57:56Z</time>
      </trkpt>
      <trkpt lat="43.173175016418099" lon="-5.322581017389894">
        <ele>615.38</ele>
        <time>2025-04-29T10:57:57Z</time>
      </trkpt>
      <trkpt lat="43.173273000866175" lon="-5.322626028209925">
        <ele>615.38</ele>
        <time>2025-04-29T10:57:58Z</time>
      </trkpt>
      <trkpt lat="43.173351958394051" lon="-5.32266098074615">
        <ele>615.86000000000001</ele>
        <time>2025-04-29T10:57:59Z</time>
      </trkpt>
      <trkpt lat="43.173452960327268" lon="-5.322781009599567">
        <ele>615.86000000000001</ele>
        <time>2025-04-29T10:58:00Z</time>
      </trkpt>
      <trkpt lat="43.173538958653808" lon="-5.322883017361164">
        <ele>616.34000000000003</ele>
        <time>2025-04-29T10:58:01Z</time>
      </trkpt>
      <trkpt lat="43.173807011917233" lon="-5.323103964328766">
        <ele>616.82000000000005</ele>
        <time>2025-04-29T10:58:04Z</time>
      </trkpt>
      <trkpt lat="43.173890998587012" lon="-5.323130032047629">
        <ele>616.82000000000005</ele>
        <time>2025-04-29T10:58:05Z</time>
      </trkpt>
      <trkpt lat="43.173966016620398" lon="-5.3231540042907">
        <ele>616.82000000000005</ele>
        <time>2025-04-29T10:58:06Z</time>
      </trkpt>
      <trkpt lat="43.174038017168641" lon="-5.323175964877009">
        <ele>616.82000000000005</ele>
        <time>2025-04-29T10:58:07Z</time>
      </trkpt>
      <trkpt lat="43.174103982746601" lon="-5.323235979303718">
        <ele>617.29999999999995</ele>
        <time>2025-04-29T10:58:08Z</time>
      </trkpt>
      <trkpt lat="43.174181012436748" lon="-5.323304962366819">
        <ele>617.29999999999995</ele>
        <time>2025-04-29T10:58:09Z</time>
      </trkpt>
      <trkpt lat="43.174253012984991" lon="-5.323370005935431">
        <ele>617.29999999999995</ele>
        <time>2025-04-29T10:58:10Z</time>
      </trkpt>
      <trkpt lat="43.174310009926558" lon="-5.323489028960466">
        <ele>617.29999999999995</ele>
        <time>2025-04-29T10:58:11Z</time>
      </trkpt>
      <trkpt lat="43.174372036010027" lon="-5.323619032278657">
        <ele>616.82000000000005</ele>
        <time>2025-04-29T10:58:12Z</time>
      </trkpt>
      <trkpt lat="43.174433978274465" lon="-5.323749035596848">
        <ele>616.82000000000005</ele>
        <time>2025-04-29T10:58:13Z</time>
      </trkpt>
      <trkpt lat="43.174498016014695" lon="-5.323881972581148">
        <ele>616.82000000000005</ele>
        <time>2025-04-29T10:58:14Z</time>
      </trkpt>
      <trkpt lat="43.174568004906178" lon="-5.324028991162777">
        <ele>616.82000000000005</ele>
        <time>2025-04-29T10:58:15Z</time>
      </trkpt>
      <trkpt lat="43.174698008224368" lon="-5.324301989749074">
        <ele>616.82000000000005</ele>
        <time>2025-04-29T10:58:17Z</time>
      </trkpt>
      <trkpt lat="43.17478802986443" lon="-5.324376001954079">
        <ele>616.34000000000003</ele>
        <time>2025-04-29T10:58:18Z</time>
      </trkpt>
      <trkpt lat="43.175093969330192" lon="-5.324601978063583">
        <ele>615.86000000000001</ele>
        <time>2025-04-29T10:58:21Z</time>
      </trkpt>
      <trkpt lat="43.17532598040998" lon="-5.324800964444876">
        <ele>615.38</ele>
        <time>2025-04-29T10:58:23Z</time>
      </trkpt>
      <trkpt lat="43.175422037020326" lon="-5.324929039925337">
        <ele>615.38</ele>
        <time>2025-04-29T10:58:24Z</time>
      </trkpt>
      <trkpt lat="43.17551800981164" lon="-5.325208995491266">
        <ele>614.89999999999998</ele>
        <time>2025-04-29T10:58:26Z</time>
      </trkpt>
      <trkpt lat="43.175546005368233" lon="-5.325349979102612">
        <ele>614.89999999999998</ele>
        <time>2025-04-29T10:58:27Z</time>
      </trkpt>
      <trkpt lat="43.175553968176246" lon="-5.325508983805776">
        <ele>614.89999999999998</ele>
        <time>2025-04-29T10:58:28Z</time>
      </trkpt>
      <trkpt lat="43.175537958741188" lon="-5.325680980458856">
        <ele>614.89999999999998</ele>
        <time>2025-04-29T10:58:29Z</time>
      </trkpt>
      <trkpt lat="43.175521027296782" lon="-5.32586102373898">
        <ele>614.89999999999998</ele>
        <time>2025-04-29T10:58:30Z</time>
      </trkpt>
      <trkpt lat="43.175504012033343" lon="-5.326045006513596">
        <ele>614.41999999999996</ele>
        <time>2025-04-29T10:58:31Z</time>
      </trkpt>
      <trkpt lat="43.175459001213312" lon="-5.326212979853153">
        <ele>613.94000000000005</ele>
        <time>2025-04-29T10:58:32Z</time>
      </trkpt>
      <trkpt lat="43.17539001815021" lon="-5.326384976506233">
        <ele>613.46000000000004</ele>
        <time>2025-04-29T10:58:33Z</time>
      </trkpt>
      <trkpt lat="43.175321035087109" lon="-5.326556973159313">
        <ele>613.46000000000004</ele>
        <time>2025-04-29T10:58:34Z</time>
      </trkpt>
      <trkpt lat="43.17526001483202" lon="-5.326666021719575">
        <ele>612.98000000000002</ele>
        <time>2025-04-29T10:58:35Z</time>
      </trkpt>
      <trkpt lat="43.175151972100139" lon="-5.326728969812393">
        <ele>612.98000000000002</ele>
        <time>2025-04-29T10:58:36Z</time>
      </trkpt>
      <trkpt lat="43.17504501901567" lon="-5.326793007552624">
        <ele>612.98000000000002</ele>
        <time>2025-04-29T10:58:37Z</time>
      </trkpt>
      <trkpt lat="43.174932030960917" lon="-5.326858973130584">
        <ele>612.5</ele>
        <time>2025-04-29T10:58:38Z</time>
      </trkpt>
      <trkpt lat="43.174837986007333" lon="-5.326965004205704">
        <ele>612.01999999999998</ele>
        <time>2025-04-29T10:58:39Z</time>
      </trkpt>
      <trkpt lat="43.17474695853889" lon="-5.327075980603695">
        <ele>612.01999999999998</ele>
        <time>2025-04-29T10:58:40Z</time>
      </trkpt>
      <trkpt lat="43.174704965204" lon="-5.32721302472055">
        <ele>611.53999999999996</ele>
        <time>2025-04-29T10:58:41Z</time>
      </trkpt>
      <trkpt lat="43.174683004617691" lon="-5.327349985018373">
        <ele>611.05999999999995</ele>
        <time>2025-04-29T10:58:42Z</time>
      </trkpt>
      <trkpt lat="43.174698008224368" lon="-5.327506978064776">
        <ele>611.05999999999995</ele>
        <time>2025-04-29T10:58:43Z</time>
      </trkpt>
      <trkpt lat="43.174716029316187" lon="-5.327696995809674">
        <ele>610.57000000000005</ele>
        <time>2025-04-29T10:58:44Z</time>
      </trkpt>
      <trkpt lat="43.174762967973948" lon="-5.327878966927528">
        <ele>610.09000000000003</ele>
        <time>2025-04-29T10:58:45Z</time>
      </trkpt>
      <trkpt lat="43.174833040684462" lon="-5.328045012429357">
        <ele>609.13</ele>
        <time>2025-04-29T10:58:46Z</time>
      </trkpt>
      <trkpt lat="43.174907974898815" lon="-5.328222960233688">
        <ele>608.64999999999998</ele>
        <time>2025-04-29T10:58:47Z</time>
      </trkpt>
      <trkpt lat="43.175272000953555" lon="-5.32899702899158">
        <ele>605.28999999999996</ele>
        <time>2025-04-29T10:58:51Z</time>
      </trkpt>
      <trkpt lat="43.175539970397949" lon="-5.32932098954916">
        <ele>602.88</ele>
        <time>2025-04-29T10:58:53Z</time>
      </trkpt>
      <trkpt lat="43.175797965377569" lon="-5.329634975641966">
        <ele>600.96000000000004</ele>
        <time>2025-04-29T10:58:55Z</time>
      </trkpt>
      <trkpt lat="43.175902990624309" lon="-5.329834967851639">
        <ele>600</ele>
        <time>2025-04-29T10:58:56Z</time>
      </trkpt>
      <trkpt lat="43.176003992557526" lon="-5.330032026395202">
        <ele>599.03999999999996</ele>
        <time>2025-04-29T10:58:57Z</time>
      </trkpt>
      <trkpt lat="43.176552001386881" lon="-5.331431971862912">
        <ele>593.26999999999998</ele>
        <time>2025-04-29T10:59:04Z</time>
      </trkpt>
      <trkpt lat="43.176625007763505" lon="-5.331624001264572">
        <ele>593.26999999999998</ele>
        <time>2025-04-29T10:59:05Z</time>
      </trkpt>
      <trkpt lat="43.176838997751474" lon="-5.3322649654001">
        <ele>593.26999999999998</ele>
        <time>2025-04-29T10:59:08Z</time>
      </trkpt>
      <trkpt lat="43.177135968580842" lon="-5.332808028906584">
        <ele>594.23000000000002</ele>
        <time>2025-04-29T10:59:11Z</time>
      </trkpt>
      <trkpt lat="43.177461018785834" lon="-5.33331798389554">
        <ele>594.71000000000004</ele>
        <time>2025-04-29T10:59:14Z</time>
      </trkpt>
      <trkpt lat="43.177580963820219" lon="-5.333477994427085">
        <ele>594.23000000000002</ele>
        <time>2025-04-29T10:59:15Z</time>
      </trkpt>
      <trkpt lat="43.177703004330397" lon="-5.333630964159966">
        <ele>594.23000000000002</ele>
        <time>2025-04-29T10:59:16Z</time>
      </trkpt>
      <trkpt lat="43.178143976256251" lon="-5.334104960784316">
        <ele>594.23000000000002</ele>
        <time>2025-04-29T10:59:20Z</time>
      </trkpt>
      <trkpt lat="43.178252018988132" lon="-5.334214009344578">
        <ele>594.23000000000002</ele>
        <time>2025-04-29T10:59:21Z</time>
      </trkpt>
      <trkpt lat="43.178711012005806" lon="-5.334762018173933">
        <ele>593.26999999999998</ele>
        <time>2025-04-29T10:59:25Z</time>
      </trkpt>
      <trkpt lat="43.178790975362062" lon="-5.334967039525509">
        <ele>592.30999999999995</ele>
        <time>2025-04-29T10:59:26Z</time>
      </trkpt>
      <trkpt lat="43.179061040282249" lon="-5.335542960092425">
        <ele>589.90999999999997</ele>
        <time>2025-04-29T10:59:29Z</time>
      </trkpt>
      <trkpt lat="43.179179979488254" lon="-5.335697019472718">
        <ele>589.42999999999995</ele>
        <time>2025-04-29T10:59:30Z</time>
      </trkpt>
      <trkpt lat="43.179304031655192" lon="-5.335858035832644">
        <ele>588.95000000000005</ele>
        <time>2025-04-29T10:59:31Z</time>
      </trkpt>
      <trkpt lat="43.179689012467861" lon="-5.336387017741799">
        <ele>587.5</ele>
        <time>2025-04-29T10:59:34Z</time>
      </trkpt>
      <trkpt lat="43.180018002167344" lon="-5.336908036842942">
        <ele>586.05999999999995</ele>
        <time>2025-04-29T10:59:37Z</time>
      </trkpt>
      <trkpt lat="43.180400971323252" lon="-5.337351020425558">
        <ele>584.62</ele>
        <time>2025-04-29T10:59:40Z</time>
      </trkpt>
      <trkpt lat="43.180516976863146" lon="-5.337545983493328">
        <ele>584.13999999999999</ele>
        <time>2025-04-29T10:59:41Z</time>
      </trkpt>
      <trkpt lat="43.180951997637749" lon="-5.338329020887613">
        <ele>581.73000000000002</ele>
        <time>2025-04-29T10:59:45Z</time>
      </trkpt>
      <trkpt lat="43.181029027327895" lon="-5.338547034189105">
        <ele>581.25</ele>
        <time>2025-04-29T10:59:46Z</time>
      </trkpt>
      <trkpt lat="43.18112701177597" lon="-5.339009966701269">
        <ele>579.80999999999995</ele>
        <time>2025-04-29T10:59:48Z</time>
      </trkpt>
      <trkpt lat="43.181161964312196" lon="-5.339735001325607">
        <ele>576.92999999999995</ele>
        <time>2025-04-29T10:59:51Z</time>
      </trkpt>
      <trkpt lat="43.181141009554267" lon="-5.339968018233776">
        <ele>575.49000000000001</ele>
        <time>2025-04-29T10:59:52Z</time>
      </trkpt>
      <trkpt lat="43.181107984855771" lon="-5.340188965201378">
        <ele>574.52999999999997</ele>
        <time>2025-04-29T10:59:53Z</time>
      </trkpt>
      <trkpt lat="43.181074960157275" lon="-5.340403039008379">
        <ele>573.08000000000004</ele>
        <time>2025-04-29T10:59:54Z</time>
      </trkpt>
      <trkpt lat="43.181069009006023" lon="-5.340619962662458">
        <ele>572.12</ele>
        <time>2025-04-29T10:59:55Z</time>
      </trkpt>
      <trkpt lat="43.181100022047758" lon="-5.340804029256105">
        <ele>571.63999999999999</ele>
        <time>2025-04-29T10:59:56Z</time>
      </trkpt>
      <trkpt lat="43.181128017604351" lon="-5.340972002595663">
        <ele>571.15999999999997</ele>
        <time>2025-04-29T10:59:57Z</time>
      </trkpt>
      <trkpt lat="43.181144027039409" lon="-5.341127989813685">
        <ele>570.67999999999995</ele>
        <time>2025-04-29T10:59:58Z</time>
      </trkpt>
      <trkpt lat="43.181150984019041" lon="-5.341281965374947">
        <ele>570.20000000000005</ele>
        <time>2025-04-29T10:59:59Z</time>
      </trkpt>
      <trkpt lat="43.181158024817705" lon="-5.341424960643053">
        <ele>570.20000000000005</ele>
        <time>2025-04-29T11:00:00Z</time>
      </trkpt>
      <trkpt lat="43.181108990684152" lon="-5.342936972156167">
        <ele>570.20000000000005</ele>
        <time>2025-04-29T11:00:09Z</time>
      </trkpt>
      <trkpt lat="43.180834986269474" lon="-5.345231015235186">
        <ele>571.15999999999997</ele>
        <time>2025-04-29T11:00:20Z</time>
      </trkpt>
      <trkpt lat="43.180622002109885" lon="-5.346950981765986">
        <ele>568.75999999999999</ele>
        <time>2025-04-29T11:00:29Z</time>
      </trkpt>
      <trkpt lat="43.180284965783358" lon="-5.348908994346857">
        <ele>563.47000000000003</ele>
        <time>2025-04-29T11:00:39Z</time>
      </trkpt>
      <trkpt lat="43.180023031309247" lon="-5.349768977612257">
        <ele>562.02999999999997</ele>
        <time>2025-04-29T11:00:44Z</time>
      </trkpt>
      <trkpt lat="43.180047003552318" lon="-5.349998977035284">
        <ele>562.02999999999997</ele>
        <time>2025-04-29T11:00:45Z</time>
      </trkpt>
      <trkpt lat="43.180047003552318" lon="-5.350057985633612">
        <ele>562.02999999999997</ele>
        <time>2025-04-29T11:00:46Z</time>
      </trkpt>
      <trkpt lat="43.180021019652486" lon="-5.350180026143789">
        <ele>562.02999999999997</ele>
        <time>2025-04-29T11:00:47Z</time>
      </trkpt>
      <trkpt lat="43.179961005225778" lon="-5.350255966186523">
        <ele>562.02999999999997</ele>
        <time>2025-04-29T11:00:48Z</time>
      </trkpt>
      <trkpt lat="43.179824966937304" lon="-5.350309023633599">
        <ele>561.54999999999995</ele>
        <time>2025-04-29T11:00:49Z</time>
      </trkpt>
      <trkpt lat="43.179757995530963" lon="-5.350437015295029">
        <ele>561.07000000000005</ele>
        <time>2025-04-29T11:00:50Z</time>
      </trkpt>
      <trkpt lat="43.179684989154339" lon="-5.350574981421232">
        <ele>560.59000000000003</ele>
        <time>2025-04-29T11:00:51Z</time>
      </trkpt>
      <trkpt lat="43.178903041407466" lon="-5.35207299515605">
        <ele>556.74000000000001</ele>
        <time>2025-04-29T11:01:02Z</time>
      </trkpt>
      <trkpt lat="43.178717968985438" lon="-5.352705996483564">
        <ele>554.34000000000003</ele>
        <time>2025-04-29T11:01:06Z</time>
      </trkpt>
      <trkpt lat="43.178672958165407" lon="-5.352895008400083">
        <ele>553.86000000000001</ele>
        <time>2025-04-29T11:01:07Z</time>
      </trkpt>
      <trkpt lat="43.178705982863903" lon="-5.35376999527216">
        <ele>551.92999999999995</ele>
        <time>2025-04-29T11:01:11Z</time>
      </trkpt>
      <trkpt lat="43.1796870008111" lon="-5.361210023984313">
        <ele>551.92999999999995</ele>
        <time>2025-04-29T11:01:41Z</time>
      </trkpt>
      <trkpt lat="43.179790014401078" lon="-5.361414961516857">
        <ele>544.72000000000003</ele>
        <time>2025-04-29T11:01:48Z</time>
      </trkpt>
      <trkpt lat="43.180522006005049" lon="-5.362809039652348">
        <ele>541.84000000000003</ele>
        <time>2025-04-29T11:01:56Z</time>
      </trkpt>
      <trkpt lat="43.180639017373323" lon="-5.36292496137321">
        <ele>541.84000000000003</ele>
        <time>2025-04-29T11:01:57Z</time>
      </trkpt>
      <trkpt lat="43.180771032348275" lon="-5.362996961921454">
        <ele>541.84000000000003</ele>
        <time>2025-04-29T11:01:58Z</time>
      </trkpt>
      <trkpt lat="43.181208986788988" lon="-5.363243976607919">
        <ele>540.88</ele>
        <time>2025-04-29T11:02:01Z</time>
      </trkpt>
      <trkpt lat="43.181333960965276" lon="-5.363357970491052">
        <ele>540.88</ele>
        <time>2025-04-29T11:02:02Z</time>
      </trkpt>
      <trkpt lat="43.18144996650517" lon="-5.363497026264668">
        <ele>540.88</ele>
        <time>2025-04-29T11:02:03Z</time>
      </trkpt>
      <trkpt lat="43.18153403699398" lon="-5.363662987947464">
        <ele>540.39999999999998</ele>
        <time>2025-04-29T11:02:04Z</time>
      </trkpt>
      <trkpt lat="43.181608971208334" lon="-5.363849988207221">
        <ele>539.91999999999996</ele>
        <time>2025-04-29T11:02:05Z</time>
      </trkpt>
      <trkpt lat="43.18166496232152" lon="-5.364039000123739">
        <ele>539.91999999999996</ele>
        <time>2025-04-29T11:02:06Z</time>
      </trkpt>
      <trkpt lat="43.181694969534874" lon="-5.364259025081992">
        <ele>540.39999999999998</ele>
        <time>2025-04-29T11:02:07Z</time>
      </trkpt>
      <trkpt lat="43.181722965091467" lon="-5.364468991756439">
        <ele>540.39999999999998</ele>
        <time>2025-04-29T11:02:08Z</time>
      </trkpt>
      <trkpt lat="43.181750038638711" lon="-5.364669989794493">
        <ele>540.88</ele>
        <time>2025-04-29T11:02:09Z</time>
      </trkpt>
      <trkpt lat="43.181777028366923" lon="-5.364872999489307">
        <ele>541.84000000000003</ele>
        <time>2025-04-29T11:02:10Z</time>
      </trkpt>
      <trkpt lat="43.181832013651729" lon="-5.365063017234206">
        <ele>543.27999999999997</ele>
        <time>2025-04-29T11:02:11Z</time>
      </trkpt>
      <trkpt lat="43.181913988664746" lon="-5.365237025544047">
        <ele>544.72000000000003</ele>
        <time>2025-04-29T11:02:12Z</time>
      </trkpt>
      <trkpt lat="43.182017002254725" lon="-5.365398041903973">
        <ele>545.69000000000005</ele>
        <time>2025-04-29T11:02:13Z</time>
      </trkpt>
      <trkpt lat="43.182149017229676" lon="-5.36552201025188">
        <ele>547.61000000000001</ele>
        <time>2025-04-29T11:02:14Z</time>
      </trkpt>
      <trkpt lat="43.182306010276079" lon="-5.365617983043194">
        <ele>549.04999999999995</ele>
        <time>2025-04-29T11:02:15Z</time>
      </trkpt>
      <trkpt lat="43.182482030242682" lon="-5.365672968327999">
        <ele>550.49000000000001</ele>
        <time>2025-04-29T11:02:16Z</time>
      </trkpt>
      <trkpt lat="43.182670958340168" lon="-5.36571697331965">
        <ele>550.97000000000003</ele>
        <time>2025-04-29T11:02:17Z</time>
      </trkpt>
      <trkpt lat="43.182861981913447" lon="-5.3657609783113">
        <ele>551.92999999999995</ele>
        <time>2025-04-29T11:02:18Z</time>
      </trkpt>
      <trkpt lat="43.183048982173204" lon="-5.365860974416137">
        <ele>552.40999999999997</ele>
        <time>2025-04-29T11:02:19Z</time>
      </trkpt>
      <trkpt lat="43.18323103711009" lon="-5.36597203463316">
        <ele>553.38</ele>
        <time>2025-04-29T11:02:20Z</time>
      </trkpt>
      <trkpt lat="43.183394987136126" lon="-5.366126010194421">
        <ele>553.86000000000001</ele>
        <time>2025-04-29T11:02:21Z</time>
      </trkpt>
      <trkpt lat="43.18353496491909" lon="-5.3663170337677">
        <ele>554.34000000000003</ele>
        <time>2025-04-29T11:02:22Z</time>
      </trkpt>
      <trkpt lat="43.183650970458984" lon="-5.366519959643483">
        <ele>554.82000000000005</ele>
        <time>2025-04-29T11:02:23Z</time>
      </trkpt>
      <trkpt lat="43.183765970170498" lon="-5.366721963509917">
        <ele>555.29999999999995</ele>
        <time>2025-04-29T11:02:24Z</time>
      </trkpt>
      <trkpt lat="43.18404802121222" lon="-5.367066962644458">
        <ele>556.25999999999999</ele>
        <time>2025-04-29T11:02:26Z</time>
      </trkpt>
      <trkpt lat="43.184228986501694" lon="-5.367162013426423">
        <ele>556.25999999999999</ele>
        <time>2025-04-29T11:02:27Z</time>
      </trkpt>
      <trkpt lat="43.184424033388495" lon="-5.367256980389357">
        <ele>556.74000000000001</ele>
        <time>2025-04-29T11:02:28Z</time>
      </trkpt>
      <trkpt lat="43.185880975797772" lon="-5.367940021678805">
        <ele>554.82000000000005</ele>
        <time>2025-04-29T11:02:35Z</time>
      </trkpt>
      <trkpt lat="43.186079040169716" lon="-5.368085028603673">
        <ele>553.86000000000001</ele>
        <time>2025-04-29T11:02:36Z</time>
      </trkpt>
      <trkpt lat="43.186265034601092" lon="-5.368247972801328">
        <ele>552.40999999999997</ele>
        <time>2025-04-29T11:02:37Z</time>
      </trkpt>
      <trkpt lat="43.187643019482493" lon="-5.369381038472056">
        <ele>542.79999999999995</ele>
        <time>2025-04-29T11:02:45Z</time>
      </trkpt>
      <trkpt lat="43.187802024185658" lon="-5.369452033191919">
        <ele>541.84000000000003</ele>
        <time>2025-04-29T11:02:46Z</time>
      </trkpt>
      <trkpt lat="43.187949964776635" lon="-5.369506012648344">
        <ele>540.88</ele>
        <time>2025-04-29T11:02:47Z</time>
      </trkpt>
      <trkpt lat="43.188178036361933" lon="-5.369588993489742">
        <ele>540.88</ele>
        <time>2025-04-29T11:02:49Z</time>
      </trkpt>
      <trkpt lat="43.191025033593178" lon="-5.372536992654204">
        <ele>537.02999999999997</ele>
        <time>2025-04-29T11:03:10Z</time>
      </trkpt>
      <trkpt lat="43.191127041354775" lon="-5.375215010717511">
        <ele>528.86000000000001</ele>
        <time>2025-04-29T11:03:20Z</time>
      </trkpt>
      <trkpt lat="43.191106002777815" lon="-5.375753967091441">
        <ele>526.94000000000005</ele>
        <time>2025-04-29T11:03:22Z</time>
      </trkpt>
      <trkpt lat="43.191079013049603" lon="-5.376563994213939">
        <ele>524.05999999999995</ele>
        <time>2025-04-29T11:03:25Z</time>
      </trkpt>
      <trkpt lat="43.191111031919718" lon="-5.376813020557165">
        <ele>523.09000000000003</ele>
        <time>2025-04-29T11:03:26Z</time>
      </trkpt>
      <trkpt lat="43.191166017204523" lon="-5.377065986394882">
        <ele>522.13</ele>
        <time>2025-04-29T11:03:27Z</time>
      </trkpt>
      <trkpt lat="43.191219996660948" lon="-5.377316018566489">
        <ele>521.16999999999996</ele>
        <time>2025-04-29T11:03:28Z</time>
      </trkpt>
      <trkpt lat="43.191255033016205" lon="-5.377564039081335">
        <ele>520.21000000000004</ele>
        <time>2025-04-29T11:03:29Z</time>
      </trkpt>
      <trkpt lat="43.191260984167457" lon="-5.377821028232575">
        <ele>519.73000000000002</ele>
        <time>2025-04-29T11:03:30Z</time>
      </trkpt>
      <trkpt lat="43.191201975569129" lon="-5.378067959100008">
        <ele>518.76999999999998</ele>
        <time>2025-04-29T11:03:31Z</time>
      </trkpt>
      <trkpt lat="43.191127963364124" lon="-5.378312040120363">
        <ele>517.80999999999995</ele>
        <time>2025-04-29T11:03:32Z</time>
      </trkpt>
      <trkpt lat="43.191022016108036" lon="-5.378546984866262">
        <ele>516.85000000000002</ele>
        <time>2025-04-29T11:03:33Z</time>
      </trkpt>
      <trkpt lat="43.190913973376155" lon="-5.378785030916333">
        <ele>515.39999999999998</ele>
        <time>2025-04-29T11:03:34Z</time>
      </trkpt>
      <trkpt lat="43.190513988956809" lon="-5.379773005843163">
        <ele>511.07999999999998</ele>
        <time>2025-04-29T11:03:38Z</time>
      </trkpt>
      <trkpt lat="43.190470989793539" lon="-5.380024965852499">
        <ele>509.63999999999999</ele>
        <time>2025-04-29T11:03:39Z</time>
      </trkpt>
      <trkpt lat="43.190439976751804" lon="-5.380280027166009">
        <ele>508.19</ele>
        <time>2025-04-29T11:03:40Z</time>
      </trkpt>
      <trkpt lat="43.190466966480017" lon="-5.380512960255146">
        <ele>506.75</ele>
        <time>2025-04-29T11:03:41Z</time>
      </trkpt>
      <trkpt lat="43.19051499478519" lon="-5.380756035447121">
        <ele>505.31</ele>
        <time>2025-04-29T11:03:42Z</time>
      </trkpt>
      <trkpt lat="43.190586995333433" lon="-5.380984023213387">
        <ele>503.87</ele>
        <time>2025-04-29T11:03:43Z</time>
      </trkpt>
      <trkpt lat="43.19070803001523" lon="-5.381175968796015">
        <ele>502.91000000000003</ele>
        <time>2025-04-29T11:03:44Z</time>
      </trkpt>
      <trkpt lat="43.190842978656292" lon="-5.381349977105856">
        <ele>501.94999999999999</ele>
        <time>2025-04-29T11:03:45Z</time>
      </trkpt>
      <trkpt lat="43.191011035814881" lon="-5.381461959332228">
        <ele>500.98000000000002</ele>
        <time>2025-04-29T11:03:46Z</time>
      </trkpt>
      <trkpt lat="43.191184960305691" lon="-5.381566984578967">
        <ele>500.01999999999998</ele>
        <time>2025-04-29T11:03:47Z</time>
      </trkpt>
      <trkpt lat="43.191376989707351" lon="-5.381605960428715">
        <ele>499.54000000000002</ele>
        <time>2025-04-29T11:03:48Z</time>
      </trkpt>
      <trkpt lat="43.19156801328063" lon="-5.381644014269114">
        <ele>499.54000000000002</ele>
        <time>2025-04-29T11:03:49Z</time>
      </trkpt>
      <trkpt lat="43.191948970779777" lon="-5.381720038130879">
        <ele>499.06</ele>
        <time>2025-04-29T11:03:51Z</time>
      </trkpt>
      <trkpt lat="43.192111998796463" lon="-5.381794972345233">
        <ele>498.57999999999998</ele>
        <time>2025-04-29T11:03:52Z</time>
      </trkpt>
      <trkpt lat="43.193097962066531" lon="-5.382468961179256">
        <ele>499.06</ele>
        <time>2025-04-29T11:03:58Z</time>
      </trkpt>
      <trkpt lat="43.193279011175036" lon="-5.382519001141191">
        <ele>499.06</ele>
        <time>2025-04-29T11:03:59Z</time>
      </trkpt>
      <trkpt lat="43.193470034748316" lon="-5.3825409617275">
        <ele>499.54000000000002</ele>
        <time>2025-04-29T11:04:00Z</time>
      </trkpt>
      <trkpt lat="43.193669021129608" lon="-5.382532998919487">
        <ele>500.01999999999998</ele>
        <time>2025-04-29T11:04:01Z</time>
      </trkpt>
      <trkpt lat="43.19386700168252" lon="-5.382505003362894">
        <ele>500.01999999999998</ele>
        <time>2025-04-29T11:04:02Z</time>
      </trkpt>
      <trkpt lat="43.19406196475029" lon="-5.382478013634682">
        <ele>500.5</ele>
        <time>2025-04-29T11:04:03Z</time>
      </trkpt>
      <trkpt lat="43.195863990113139" lon="-5.382385980337858">
        <ele>504.35000000000002</ele>
        <time>2025-04-29T11:04:12Z</time>
      </trkpt>
      <trkpt lat="43.196054007858038" lon="-5.382467033341527">
        <ele>504.82999999999998</ele>
        <time>2025-04-29T11:04:13Z</time>
      </trkpt>
      <trkpt lat="43.196244025602937" lon="-5.382566023617983">
        <ele>505.31</ele>
        <time>2025-04-29T11:04:14Z</time>
      </trkpt>
      <trkpt lat="43.196427002549171" lon="-5.382675994187594">
        <ele>505.79000000000002</ele>
        <time>2025-04-29T11:04:15Z</time>
      </trkpt>
      <trkpt lat="43.196606040000916" lon="-5.382816977798939">
        <ele>506.26999999999998</ele>
        <time>2025-04-29T11:04:16Z</time>
      </trkpt>
      <trkpt lat="43.197134016081691" lon="-5.383233977481723">
        <ele>506.26999999999998</ele>
        <time>2025-04-29T11:04:19Z</time>
      </trkpt>
      <trkpt lat="43.197315987199545" lon="-5.383314024657011">
        <ele>506.26999999999998</ele>
        <time>2025-04-29T11:04:20Z</time>
      </trkpt>
      <trkpt lat="43.197511034086347" lon="-5.383368004113436">
        <ele>505.79000000000002</ele>
        <time>2025-04-29T11:04:21Z</time>
      </trkpt>
      <trkpt lat="43.197709014639258" lon="-5.383383007720113">
        <ele>505.79000000000002</ele>
        <time>2025-04-29T11:04:22Z</time>
      </trkpt>
      <trkpt lat="43.197912024334073" lon="-5.38337797857821">
        <ele>505.79000000000002</ele>
        <time>2025-04-29T11:04:23Z</time>
      </trkpt>
      <trkpt lat="43.198330029845238" lon="-5.383365992456675">
        <ele>505.79000000000002</ele>
        <time>2025-04-29T11:04:25Z</time>
      </trkpt>
      <trkpt lat="43.198533039540052" lon="-5.38346397690475">
        <ele>505.79000000000002</ele>
        <time>2025-04-29T11:04:26Z</time>
      </trkpt>
      <trkpt lat="43.198728002607822" lon="-5.383569002151489">
        <ele>505.79000000000002</ele>
        <time>2025-04-29T11:04:27Z</time>
      </trkpt>
      <trkpt lat="43.199873976409435" lon="-5.384137965738773">
        <ele>505.31</ele>
        <time>2025-04-29T11:04:33Z</time>
      </trkpt>
      <trkpt lat="43.200070029124618" lon="-5.384180964902043">
        <ele>505.31</ele>
        <time>2025-04-29T11:04:34Z</time>
      </trkpt>
      <trkpt lat="43.200265998020768" lon="-5.384180964902043">
        <ele>504.82999999999998</ele>
        <time>2025-04-29T11:04:35Z</time>
      </trkpt>
      <trkpt lat="43.200452998280525" lon="-5.384123967960477">
        <ele>504.35000000000002</ele>
        <time>2025-04-29T11:04:36Z</time>
      </trkpt>
      <trkpt lat="43.200645027682185" lon="-5.384059008210897">
        <ele>504.35000000000002</ele>
        <time>2025-04-29T11:04:37Z</time>
      </trkpt>
      <trkpt lat="43.200817024335265" lon="-5.383923975750804">
        <ele>503.87</ele>
        <time>2025-04-29T11:04:38Z</time>
      </trkpt>
      <trkpt lat="43.200990026816726" lon="-5.383777040988207">
        <ele>503.38999999999999</ele>
        <time>2025-04-29T11:04:39Z</time>
      </trkpt>
      <trkpt lat="43.201162023469806" lon="-5.383630022406578">
        <ele>502.91000000000003</ele>
        <time>2025-04-29T11:04:40Z</time>
      </trkpt>
      <trkpt lat="43.201804999262094" lon="-5.383086036890745">
        <ele>501.45999999999998</ele>
        <time>2025-04-29T11:04:44Z</time>
      </trkpt>
      <trkpt lat="43.201971966773272" lon="-5.382986040785909">
        <ele>500.98000000000002</ele>
        <time>2025-04-29T11:04:45Z</time>
      </trkpt>
      <trkpt lat="43.202145975083113" lon="-5.38294798694551">
        <ele>501.45999999999998</ele>
        <time>2025-04-29T11:04:46Z</time>
      </trkpt>
      <trkpt lat="43.202327024191618" lon="-5.382943963631988">
        <ele>501.94999999999999</ele>
        <time>2025-04-29T11:04:47Z</time>
      </trkpt>
      <trkpt lat="43.202507989481091" lon="-5.382992997765541">
        <ele>501.94999999999999</ele>
        <time>2025-04-29T11:04:48Z</time>
      </trkpt>
      <trkpt lat="43.202670011669397" lon="-5.383096011355519">
        <ele>502.43000000000001</ele>
        <time>2025-04-29T11:04:49Z</time>
      </trkpt>
      <trkpt lat="43.202814012765884" lon="-5.38322601467371">
        <ele>502.91000000000003</ele>
        <time>2025-04-29T11:04:50Z</time>
      </trkpt>
      <trkpt lat="43.20293303579092" lon="-5.383395999670029">
        <ele>503.38999999999999</ele>
        <time>2025-04-29T11:04:51Z</time>
      </trkpt>
      <trkpt lat="43.203028002753854" lon="-5.383603032678366">
        <ele>503.87</ele>
        <time>2025-04-29T11:04:52Z</time>
      </trkpt>
      <trkpt lat="43.203090028837323" lon="-5.38384904153645">
        <ele>504.35000000000002</ele>
        <time>2025-04-29T11:04:53Z</time>
      </trkpt>
      <trkpt lat="43.203124981373549" lon="-5.384096978232265">
        <ele>504.82999999999998</ele>
        <time>2025-04-29T11:04:54Z</time>
      </trkpt>
      <trkpt lat="43.203143002465367" lon="-5.38434499874711">
        <ele>504.82999999999998</ele>
        <time>2025-04-29T11:04:55Z</time>
      </trkpt>
      <trkpt lat="43.203067984431982" lon="-5.386269986629486">
        <ele>507.23000000000002</ele>
        <time>2025-04-29T11:05:03Z</time>
      </trkpt>
      <trkpt lat="43.202946027740836" lon="-5.388107970356941">
        <ele>511.56</ele>
        <time>2025-04-29T11:05:10Z</time>
      </trkpt>
      <trkpt lat="43.202930018305779" lon="-5.388571992516518">
        <ele>513.96000000000004</ele>
        <time>2025-04-29T11:05:12Z</time>
      </trkpt>
      <trkpt lat="43.202619971707463" lon="-5.390154998749495">
        <ele>520.69000000000005</ele>
        <time>2025-04-29T11:05:19Z</time>
      </trkpt>
      <trkpt lat="43.202468007802963" lon="-5.390862012282014">
        <ele>522.13</ele>
        <time>2025-04-29T11:05:22Z</time>
      </trkpt>
      <trkpt lat="43.202455015853047" lon="-5.391101986169815">
        <ele>522.13</ele>
        <time>2025-04-29T11:05:23Z</time>
      </trkpt>
      <trkpt lat="43.202473036944866" lon="-5.391351012513042">
        <ele>522.61000000000001</ele>
        <time>2025-04-29T11:05:24Z</time>
      </trkpt>
      <trkpt lat="43.202490974217653" lon="-5.391600960865617">
        <ele>522.61000000000001</ele>
        <time>2025-04-29T11:05:25Z</time>
      </trkpt>
      <trkpt lat="43.202508995309472" lon="-5.391853004693985">
        <ele>523.09000000000003</ele>
        <time>2025-04-29T11:05:26Z</time>
      </trkpt>
      <trkpt lat="43.202679986134171" lon="-5.392826981842518">
        <ele>524.53999999999996</ele>
        <time>2025-04-29T11:05:30Z</time>
      </trkpt>
      <trkpt lat="43.202766990289092" lon="-5.393027979880571">
        <ele>525.01999999999998</ele>
        <time>2025-04-29T11:05:31Z</time>
      </trkpt>
      <trkpt lat="43.202872015535831" lon="-5.393225960433483">
        <ele>525.01999999999998</ele>
        <time>2025-04-29T11:05:32Z</time>
      </trkpt>
      <trkpt lat="43.202987015247345" lon="-5.393416984006763">
        <ele>525.01999999999998</ele>
        <time>2025-04-29T11:05:33Z</time>
      </trkpt>
      <trkpt lat="43.203094974160194" lon="-5.393590992316604">
        <ele>525.01999999999998</ele>
        <time>2025-04-29T11:05:34Z</time>
      </trkpt>
      <trkpt lat="43.203834006562829" lon="-5.394608974456787">
        <ele>523.58000000000004</ele>
        <time>2025-04-29T11:05:41Z</time>
      </trkpt>
      <trkpt lat="43.204851988703012" lon="-5.396132972091436">
        <ele>517.80999999999995</ele>
        <time>2025-04-29T11:05:51Z</time>
      </trkpt>
      <trkpt lat="43.204908985644579" lon="-5.396294994279742">
        <ele>516.85000000000002</ele>
        <time>2025-04-29T11:05:52Z</time>
      </trkpt>
      <trkpt lat="43.204960031434894" lon="-5.396441007032991">
        <ele>515.88</ele>
        <time>2025-04-29T11:05:53Z</time>
      </trkpt>
      <trkpt lat="43.204982997849584" lon="-5.396552989259362">
        <ele>514.91999999999996</ele>
        <time>2025-04-29T11:05:54Z</time>
      </trkpt>
      <trkpt lat="43.204988026991487" lon="-5.396666983142495">
        <ele>513.96000000000004</ele>
        <time>2025-04-29T11:05:55Z</time>
      </trkpt>
      <trkpt lat="43.204991966485977" lon="-5.39676102809608">
        <ele>513.48000000000002</ele>
        <time>2025-04-29T11:05:56Z</time>
      </trkpt>
      <trkpt lat="43.204994983971119" lon="-5.39682799950242">
        <ele>512.03999999999996</ele>
        <time>2025-04-29T11:05:57Z</time>
      </trkpt>
      <trkpt lat="43.2049959897995" lon="-5.396867981180549">
        <ele>511.07999999999998</ele>
        <time>2025-04-29T11:05:58Z</time>
      </trkpt>
      <trkpt lat="43.20499699562788" lon="-5.39689103141427">
        <ele>510.12</ele>
        <time>2025-04-29T11:05:59Z</time>
      </trkpt>
      <trkpt lat="43.20499699562788" lon="-5.39689103141427">
        <ele>508.67000000000002</ele>
        <time>2025-04-29T11:06:12Z</time>
      </trkpt>
      <trkpt lat="43.205002024769783" lon="-5.396991027519107">
        <ele>506.26999999999998</ele>
        <time>2025-04-29T11:06:52Z</time>
      </trkpt>
      <trkpt lat="43.204886019229889" lon="-5.39738598279655">
        <ele>503.38999999999999</ele>
        <time>2025-04-29T11:06:57Z</time>
      </trkpt>
      <trkpt lat="43.204602040350437" lon="-5.398066006600857">
        <ele>499.06</ele>
        <time>2025-04-29T11:07:05Z</time>
      </trkpt>
      <trkpt lat="43.204560969024897" lon="-5.39833003655076">
        <ele>498.57999999999998</ele>
        <time>2025-04-29T11:07:07Z</time>
      </trkpt>
      <trkpt lat="43.204540014266968" lon="-5.398471020162106">
        <ele>498.10000000000002</ele>
        <time>2025-04-29T11:07:08Z</time>
      </trkpt>
      <trkpt lat="43.204450998455286" lon="-5.398592976853252">
        <ele>497.62</ele>
        <time>2025-04-29T11:07:09Z</time>
      </trkpt>
      <trkpt lat="43.204444041475654" lon="-5.398745024576783">
        <ele>497.62</ele>
        <time>2025-04-29T11:07:10Z</time>
      </trkpt>
      <trkpt lat="43.204470025375485" lon="-5.398887014016509">
        <ele>497.62</ele>
        <time>2025-04-29T11:07:11Z</time>
      </trkpt>
      <trkpt lat="43.204499026760459" lon="-5.398995978757739">
        <ele>497.13999999999999</ele>
        <time>2025-04-29T11:07:12Z</time>
      </trkpt>
      <trkpt lat="43.20454403758049" lon="-5.399101004004479">
        <ele>496.66000000000003</ele>
        <time>2025-04-29T11:07:13Z</time>
      </trkpt>
      <trkpt lat="43.20458997040987" lon="-5.399192031472921">
        <ele>496.18000000000001</ele>
        <time>2025-04-29T11:07:14Z</time>
      </trkpt>
      <trkpt lat="43.204641016200185" lon="-5.399292027577758">
        <ele>496.18000000000001</ele>
        <time>2025-04-29T11:07:15Z</time>
      </trkpt>
      <trkpt lat="43.205354986712337" lon="-5.400268016383052">
        <ele>495.69999999999999</ele>
        <time>2025-04-29T11:07:25Z</time>
      </trkpt>
      <trkpt lat="43.2062410376966" lon="-5.401277029886842">
        <ele>498.57999999999998</ele>
        <time>2025-04-29T11:07:35Z</time>
      </trkpt>
      <trkpt lat="43.206644961610436" lon="-5.401714984327555">
        <ele>498.57999999999998</ele>
        <time>2025-04-29T11:07:40Z</time>
      </trkpt>
      <trkpt lat="43.206712016835809" lon="-5.401825038716197">
        <ele>498.57999999999998</ele>
        <time>2025-04-29T11:07:41Z</time>
      </trkpt>
      <trkpt lat="43.206768007948995" lon="-5.401944983750582">
        <ele>498.57999999999998</ele>
        <time>2025-04-29T11:07:42Z</time>
      </trkpt>
      <trkpt lat="43.206793991848826" lon="-5.402098037302494">
        <ele>498.57999999999998</ele>
        <time>2025-04-29T11:07:43Z</time>
      </trkpt>
      <trkpt lat="43.206820981577039" lon="-5.402259975671768">
        <ele>498.57999999999998</ele>
        <time>2025-04-29T11:07:44Z</time>
      </trkpt>
      <trkpt lat="43.206848977133632" lon="-5.402429960668087">
        <ele>499.06</ele>
        <time>2025-04-29T11:07:45Z</time>
      </trkpt>
      <trkpt lat="43.206872027367353" lon="-5.402604974806309">
        <ele>499.54000000000002</ele>
        <time>2025-04-29T11:07:46Z</time>
      </trkpt>
      <trkpt lat="43.206900022923946" lon="-5.402973024174571">
        <ele>500.98000000000002</ele>
        <time>2025-04-29T11:07:48Z</time>
      </trkpt>
      <trkpt lat="43.206948973238468" lon="-5.403156001120806">
        <ele>501.94999999999999</ele>
        <time>2025-04-29T11:07:49Z</time>
      </trkpt>
      <trkpt lat="43.207192970439792" lon="-5.404115980491042">
        <ele>506.26999999999998</ele>
        <time>2025-04-29T11:07:54Z</time>
      </trkpt>
      <trkpt lat="43.207204034551978" lon="-5.404294012114406">
        <ele>507.23000000000002</ele>
        <time>2025-04-29T11:07:55Z</time>
      </trkpt>
      <trkpt lat="43.207206968218088" lon="-5.404452010989189">
        <ele>507.70999999999998</ele>
        <time>2025-04-29T11:07:56Z</time>
      </trkpt>
      <trkpt lat="43.207186013460159" lon="-5.404612021520734">
        <ele>508.19</ele>
        <time>2025-04-29T11:07:57Z</time>
      </trkpt>
      <trkpt lat="43.207163969054818" lon="-5.404772032052279">
        <ele>508.19</ele>
        <time>2025-04-29T11:07:58Z</time>
      </trkpt>
      <trkpt lat="43.207143014296889" lon="-5.404935982078314">
        <ele>508.67000000000002</ele>
        <time>2025-04-29T11:07:59Z</time>
      </trkpt>
      <trkpt lat="43.207021979615092" lon="-5.405455995351076">
        <ele>509.16000000000003</ele>
        <time>2025-04-29T11:08:02Z</time>
      </trkpt>
      <trkpt lat="43.206878984346986" lon="-5.405778028070927">
        <ele>509.63999999999999</ele>
        <time>2025-04-29T11:08:04Z</time>
      </trkpt>
      <trkpt lat="43.206601040437818" lon="-5.406425027176738">
        <ele>508.67000000000002</ele>
        <time>2025-04-29T11:08:08Z</time>
      </trkpt>
      <trkpt lat="43.206552006304264" lon="-5.40658101439476">
        <ele>508.67000000000002</ele>
        <time>2025-04-29T11:08:09Z</time>
      </trkpt>
      <trkpt lat="43.206487968564034" lon="-5.40690204128623">
        <ele>508.19</ele>
        <time>2025-04-29T11:08:11Z</time>
      </trkpt>
      <trkpt lat="43.206466007977724" lon="-5.407249974086881">
        <ele>507.70999999999998</ele>
        <time>2025-04-29T11:08:13Z</time>
      </trkpt>
      <trkpt lat="43.206481011584401" lon="-5.407428005710244">
        <ele>506.75</ele>
        <time>2025-04-29T11:08:14Z</time>
      </trkpt>
      <trkpt lat="43.206496015191078" lon="-5.407617017626762">
        <ele>506.26999999999998</ele>
        <time>2025-04-29T11:08:15Z</time>
      </trkpt>
      <trkpt lat="43.206529039889574" lon="-5.407809969037771">
        <ele>505.79000000000002</ele>
        <time>2025-04-29T11:08:16Z</time>
      </trkpt>
      <trkpt lat="43.206583019345999" lon="-5.408004010096192">
        <ele>504.82999999999998</ele>
        <time>2025-04-29T11:08:17Z</time>
      </trkpt>
      <trkpt lat="43.206643033772707" lon="-5.408216994255781">
        <ele>504.35000000000002</ele>
        <time>2025-04-29T11:08:18Z</time>
      </trkpt>
      <trkpt lat="43.207259019836783" lon="-5.409486014395952">
        <ele>502.91000000000003</ele>
        <time>2025-04-29T11:08:23Z</time>
      </trkpt>
      <trkpt lat="43.208158984780312" lon="-5.41111595928669">
        <ele>504.82999999999998</ele>
        <time>2025-04-29T11:08:30Z</time>
      </trkpt>
      <trkpt lat="43.208265015855432" lon="-5.411332966759801">
        <ele>505.31</ele>
        <time>2025-04-29T11:08:31Z</time>
      </trkpt>
      <trkpt lat="43.208339028060436" lon="-5.411564977839589">
        <ele>505.79000000000002</ele>
        <time>2025-04-29T11:08:32Z</time>
      </trkpt>
      <trkpt lat="43.20841396227479" lon="-5.411796988919377">
        <ele>506.75</ele>
        <time>2025-04-29T11:08:33Z</time>
      </trkpt>
      <trkpt lat="43.208451010286808" lon="-5.412020031362772">
        <ele>506.75</ele>
        <time>2025-04-29T11:08:34Z</time>
      </trkpt>
      <trkpt lat="43.208489986136556" lon="-5.41225397028029">
        <ele>507.70999999999998</ele>
        <time>2025-04-29T11:08:35Z</time>
      </trkpt>
      <trkpt lat="43.20852099917829" lon="-5.412439964711666">
        <ele>508.19</ele>
        <time>2025-04-29T11:08:36Z</time>
      </trkpt>
      <trkpt lat="43.208639016374946" lon="-5.412666024640203">
        <ele>508.67000000000002</ele>
        <time>2025-04-29T11:08:37Z</time>
      </trkpt>
      <trkpt lat="43.208739012479782" lon="-5.41285595856607">
        <ele>509.63999999999999</ele>
        <time>2025-04-29T11:08:38Z</time>
      </trkpt>
      <trkpt lat="43.208870021626353" lon="-5.412995014339685">
        <ele>510.12</ele>
        <time>2025-04-29T11:08:39Z</time>
      </trkpt>
      <trkpt lat="43.209017962217331" lon="-5.413129040971398">
        <ele>510.60000000000002</ele>
        <time>2025-04-29T11:08:40Z</time>
      </trkpt>
      <trkpt lat="43.209203034639359" lon="-5.413215039297938">
        <ele>511.07999999999998</ele>
        <time>2025-04-29T11:08:41Z</time>
      </trkpt>
      <trkpt lat="43.209394980221987" lon="-5.413304977118969">
        <ele>512.03999999999996</ele>
        <time>2025-04-29T11:08:42Z</time>
      </trkpt>
      <trkpt lat="43.209987999871373" lon="-5.41358501650393">
        <ele>513.48000000000002</ele>
        <time>2025-04-29T11:08:45Z</time>
      </trkpt>
      <trkpt lat="43.210143987089396" lon="-5.413742009550333">
        <ele>513.96000000000004</ele>
        <time>2025-04-29T11:08:46Z</time>
      </trkpt>
      <trkpt lat="43.210274996235967" lon="-5.413947030901909">
        <ele>514.44000000000005</ele>
        <time>2025-04-29T11:08:47Z</time>
      </trkpt>
      <trkpt lat="43.21049502119422" lon="-5.414371993392706">
        <ele>514.91999999999996</ele>
        <time>2025-04-29T11:08:49Z</time>
      </trkpt>
      <trkpt lat="43.210630975663662" lon="-5.41450803168118">
        <ele>514.91999999999996</ele>
        <time>2025-04-29T11:08:50Z</time>
      </trkpt>
      <trkpt lat="43.210773970931768" lon="-5.414651026949287">
        <ele>515.39999999999998</ele>
        <time>2025-04-29T11:08:51Z</time>
      </trkpt>
      <trkpt lat="43.210936998948455" lon="-5.414733001962304">
        <ele>515.39999999999998</ele>
        <time>2025-04-29T11:08:52Z</time>
      </trkpt>
      <trkpt lat="43.211123999208212" lon="-5.414827968925238">
        <ele>514.91999999999996</ele>
        <time>2025-04-29T11:08:53Z</time>
      </trkpt>
      <trkpt lat="43.212421014904976" lon="-5.415537999942899">
        <ele>511.56</ele>
        <time>2025-04-29T11:08:59Z</time>
      </trkpt>
      <trkpt lat="43.212620001286268" lon="-5.41566900908947">
        <ele>510.60000000000002</ele>
        <time>2025-04-29T11:09:00Z</time>
      </trkpt>
      <trkpt lat="43.212813958525658" lon="-5.415795994922519">
        <ele>509.63999999999999</ele>
        <time>2025-04-29T11:09:01Z</time>
      </trkpt>
      <trkpt lat="43.213038006797433" lon="-5.415831031277776">
        <ele>508.67000000000002</ele>
        <time>2025-04-29T11:09:02Z</time>
      </trkpt>
      <trkpt lat="43.213250990957022" lon="-5.415852991864085">
        <ele>507.70999999999998</ele>
        <time>2025-04-29T11:09:03Z</time>
      </trkpt>
      <trkpt lat="43.213452994823456" lon="-5.415875036269426">
        <ele>506.75</ele>
        <time>2025-04-29T11:09:04Z</time>
      </trkpt>
      <trkpt lat="43.213644018396735" lon="-5.415894985198975">
        <ele>505.79000000000002</ele>
        <time>2025-04-29T11:09:05Z</time>
      </trkpt>
      <trkpt lat="43.213824983686209" lon="-5.415914012119174">
        <ele>504.82999999999998</ele>
        <time>2025-04-29T11:09:06Z</time>
      </trkpt>
      <trkpt lat="43.213970996439457" lon="-5.416015014052391">
        <ele>504.35000000000002</ele>
        <time>2025-04-29T11:09:07Z</time>
      </trkpt>
      <trkpt lat="43.214121032506227" lon="-5.416131019592285">
        <ele>503.38999999999999</ele>
        <time>2025-04-29T11:09:08Z</time>
      </trkpt>
      <trkpt lat="43.214243995025754" lon="-5.41627200320363">
        <ele>502.91000000000003</ele>
        <time>2025-04-29T11:09:09Z</time>
      </trkpt>
      <trkpt lat="43.214657977223396" lon="-5.416745999827981">
        <ele>500.5</ele>
        <time>2025-04-29T11:09:12Z</time>
      </trkpt>
      <trkpt lat="43.214950002729893" lon="-5.4170230217278">
        <ele>500.01999999999998</ele>
        <time>2025-04-29T11:09:14Z</time>
      </trkpt>
      <trkpt lat="43.215191988274455" lon="-5.417157970368862">
        <ele>500.01999999999998</ele>
        <time>2025-04-29T11:09:16Z</time>
      </trkpt>
      <trkpt lat="43.215314028784633" lon="-5.417225025594235">
        <ele>500.5</ele>
        <time>2025-04-29T11:09:17Z</time>
      </trkpt>
      <trkpt lat="43.215572023764253" lon="-5.417369026690722">
        <ele>500.5</ele>
        <time>2025-04-29T11:09:19Z</time>
      </trkpt>
      <trkpt lat="43.215714013203979" lon="-5.417446978390217">
        <ele>500.5</ele>
        <time>2025-04-29T11:09:20Z</time>
      </trkpt>
      <trkpt lat="43.215849967673421" lon="-5.417544040828943">
        <ele>500.98000000000002</ele>
        <time>2025-04-29T11:09:21Z</time>
      </trkpt>
      <trkpt lat="43.215978965163231" lon="-5.417699022218585">
        <ele>500.98000000000002</ele>
        <time>2025-04-29T11:09:22Z</time>
      </trkpt>
      <trkpt lat="43.216086002066731" lon="-5.417887028306723">
        <ele>501.45999999999998</ele>
        <time>2025-04-29T11:09:23Z</time>
      </trkpt>
      <trkpt lat="43.216180969029665" lon="-5.418105041608214">
        <ele>501.45999999999998</ele>
        <time>2025-04-29T11:09:24Z</time>
      </trkpt>
      <trkpt lat="43.216234026476741" lon="-5.418350966647267">
        <ele>501.45999999999998</ele>
        <time>2025-04-29T11:09:25Z</time>
      </trkpt>
      <trkpt lat="43.216288005933166" lon="-5.418607033789158">
        <ele>501.94999999999999</ele>
        <time>2025-04-29T11:09:26Z</time>
      </trkpt>
      <trkpt lat="43.216551030054688" lon="-5.419873958453536">
        <ele>502.43000000000001</ele>
        <time>2025-04-29T11:09:31Z</time>
      </trkpt>
      <trkpt lat="43.216634010896087" lon="-5.420076968148351">
        <ele>502.91000000000003</ele>
        <time>2025-04-29T11:09:32Z</time>
      </trkpt>
      <trkpt lat="43.216757979243994" lon="-5.420233961194754">
        <ele>502.91000000000003</ele>
        <time>2025-04-29T11:09:33Z</time>
      </trkpt>
      <trkpt lat="43.216903991997242" lon="-5.420347033068538">
        <ele>502.91000000000003</ele>
        <time>2025-04-29T11:09:34Z</time>
      </trkpt>
      <trkpt lat="43.217061990872025" lon="-5.420437976717949">
        <ele>503.38999999999999</ele>
        <time>2025-04-29T11:09:35Z</time>
      </trkpt>
      <trkpt lat="43.217230970039964" lon="-5.420511988922954">
        <ele>503.38999999999999</ele>
        <time>2025-04-29T11:09:36Z</time>
      </trkpt>
      <trkpt lat="43.217402966693044" lon="-5.420586001127958">
        <ele>503.38999999999999</ele>
        <time>2025-04-29T11:09:37Z</time>
      </trkpt>
      <trkpt lat="43.217576975002885" lon="-5.420662024989724">
        <ele>503.87</ele>
        <time>2025-04-29T11:09:38Z</time>
      </trkpt>
      <trkpt lat="43.217747965827584" lon="-5.420777024701238">
        <ele>504.35000000000002</ele>
        <time>2025-04-29T11:09:39Z</time>
      </trkpt>
      <trkpt lat="43.218046026304364" lon="-5.421097967773676">
        <ele>505.31</ele>
        <time>2025-04-29T11:09:41Z</time>
      </trkpt>
      <trkpt lat="43.219108013436198" lon="-5.422573015093803">
        <ele>508.19</ele>
        <time>2025-04-29T11:09:48Z</time>
      </trkpt>
      <trkpt lat="43.219589972868562" lon="-5.423670038580895">
        <ele>509.63999999999999</ele>
        <time>2025-04-29T11:09:52Z</time>
      </trkpt>
      <trkpt lat="43.219742020592093" lon="-5.423908000811935">
        <ele>510.12</ele>
        <time>2025-04-29T11:09:53Z</time>
      </trkpt>
      <trkpt lat="43.219892978668213" lon="-5.424144035205245">
        <ele>511.07999999999998</ele>
        <time>2025-04-29T11:09:54Z</time>
      </trkpt>
      <trkpt lat="43.220080984756351" lon="-5.424318965524435">
        <ele>512.03999999999996</ele>
        <time>2025-04-29T11:09:55Z</time>
      </trkpt>
      <trkpt lat="43.220275025814772" lon="-5.424484005197883">
        <ele>512.51999999999998</ele>
        <time>2025-04-29T11:09:56Z</time>
      </trkpt>
      <trkpt lat="43.220460014417768" lon="-5.424642004072666">
        <ele>513.48000000000002</ele>
        <time>2025-04-29T11:09:57Z</time>
      </trkpt>
      <trkpt lat="43.22061700746417" lon="-5.424835039302707">
        <ele>513.96000000000004</ele>
        <time>2025-04-29T11:09:58Z</time>
      </trkpt>
      <trkpt lat="43.220766959711909" lon="-5.425044000148773">
        <ele>514.44000000000005</ele>
        <time>2025-04-29T11:09:59Z</time>
      </trkpt>
      <trkpt lat="43.220892017707229" lon="-5.425287997350097">
        <ele>514.44000000000005</ele>
        <time>2025-04-29T11:10:00Z</time>
      </trkpt>
      <trkpt lat="43.221138026565313" lon="-5.42576601728797">
        <ele>513.96000000000004</ele>
        <time>2025-04-29T11:10:02Z</time>
      </trkpt>
      <trkpt lat="43.221215978264809" lon="-5.426057958975434">
        <ele>513.48000000000002</ele>
        <time>2025-04-29T11:10:03Z</time>
      </trkpt>
      <trkpt lat="43.221289990469813" lon="-5.426336992532015">
        <ele>512.51999999999998</ele>
        <time>2025-04-29T11:10:04Z</time>
      </trkpt>
      <trkpt lat="43.221545973792672" lon="-5.427438961341977">
        <ele>507.23000000000002</ele>
        <time>2025-04-29T11:10:08Z</time>
      </trkpt>
      <trkpt lat="43.22169098071754" lon="-5.427683964371681">
        <ele>505.31</ele>
        <time>2025-04-29T11:10:09Z</time>
      </trkpt>
      <trkpt lat="43.221830958500504" lon="-5.427921004593372">
        <ele>503.38999999999999</ele>
        <time>2025-04-29T11:10:10Z</time>
      </trkpt>
      <trkpt lat="43.222003960981965" lon="-5.428101969882846">
        <ele>500.98000000000002</ele>
        <time>2025-04-29T11:10:11Z</time>
      </trkpt>
      <trkpt lat="43.22220403701067" lon="-5.428247982636094">
        <ele>499.06</ele>
        <time>2025-04-29T11:10:12Z</time>
      </trkpt>
      <trkpt lat="43.222404029220343" lon="-5.428381003439426">
        <ele>496.66000000000003</ele>
        <time>2025-04-29T11:10:13Z</time>
      </trkpt>
      <trkpt lat="43.222616007551551" lon="-5.42847597040236">
        <ele>494.25999999999999</ele>
        <time>2025-04-29T11:10:14Z</time>
      </trkpt>
      <trkpt lat="43.222826980054379" lon="-5.428570015355945">
        <ele>491.85000000000002</ele>
        <time>2025-04-29T11:10:15Z</time>
      </trkpt>
      <trkpt lat="43.223432991653681" lon="-5.428876038640738">
        <ele>484.16000000000003</ele>
        <time>2025-04-29T11:10:18Z</time>
      </trkpt>
      <trkpt lat="43.223609011620283" lon="-5.429051974788308">
        <ele>481.27999999999997</ele>
        <time>2025-04-29T11:10:19Z</time>
      </trkpt>
      <trkpt lat="43.223749995231628" lon="-5.429293038323522">
        <ele>478.87</ele>
        <time>2025-04-29T11:10:20Z</time>
      </trkpt>
      <trkpt lat="43.22388201020658" lon="-5.429556984454393">
        <ele>476.47000000000003</ele>
        <time>2025-04-29T11:10:21Z</time>
      </trkpt>
      <trkpt lat="43.223981000483036" lon="-5.429859990254045">
        <ele>474.06999999999999</ele>
        <time>2025-04-29T11:10:22Z</time>
      </trkpt>
      <trkpt lat="43.224180992692709" lon="-5.43047103099525">
        <ele>469.25999999999999</ele>
        <time>2025-04-29T11:10:24Z</time>
      </trkpt>
      <trkpt lat="43.224252993240952" lon="-5.43079499155283">
        <ele>466.38</ele>
        <time>2025-04-29T11:10:25Z</time>
      </trkpt>
      <trkpt lat="43.224301021546125" lon="-5.431132027879357">
        <ele>463.49000000000001</ele>
        <time>2025-04-29T11:10:26Z</time>
      </trkpt>
      <trkpt lat="43.224711986258626" lon="-5.433542998507619">
        <ele>441.38</ele>
        <time>2025-04-29T11:10:33Z</time>
      </trkpt>
      <trkpt lat="43.224801002070308" lon="-5.433857990428805">
        <ele>438.5</ele>
        <time>2025-04-29T11:10:34Z</time>
      </trkpt>
      <trkpt lat="43.225035024806857" lon="-5.434772036969662">
        <ele>430.32999999999998</ele>
        <time>2025-04-29T11:10:37Z</time>
      </trkpt>
      <trkpt lat="43.225067965686321" lon="-5.435076970607042">
        <ele>427.92000000000002</ele>
        <time>2025-04-29T11:10:38Z</time>
      </trkpt>
      <trkpt lat="43.225161004811525" lon="-5.43597400188446">
        <ele>419.75</ele>
        <time>2025-04-29T11:10:41Z</time>
      </trkpt>
      <trkpt lat="43.225629972293973" lon="-5.438197972252965">
        <ele>406.29000000000002</ele>
        <time>2025-04-29T11:10:49Z</time>
      </trkpt>
      <trkpt lat="43.225699039176106" lon="-5.438472982496023">
        <ele>405.32999999999998</ele>
        <time>2025-04-29T11:10:50Z</time>
      </trkpt>
      <trkpt lat="43.225766010582447" lon="-5.438746986910701">
        <ele>404.37</ele>
        <time>2025-04-29T11:10:51Z</time>
      </trkpt>
      <trkpt lat="43.226056024432182" lon="-5.439779972657561">
        <ele>401.97000000000003</ele>
        <time>2025-04-29T11:10:55Z</time>
      </trkpt>
      <trkpt lat="43.226170018315315" lon="-5.439992034807801">
        <ele>401.49000000000001</ele>
        <time>2025-04-29T11:10:56Z</time>
      </trkpt>
      <trkpt lat="43.226304966956377" lon="-5.440181968733668">
        <ele>400.52999999999997</ele>
        <time>2025-04-29T11:10:57Z</time>
      </trkpt>
      <trkpt lat="43.227097978815436" lon="-5.441375970840454">
        <ele>398.12</ele>
        <time>2025-04-29T11:11:03Z</time>
      </trkpt>
      <trkpt lat="43.22717098519206" lon="-5.441614016890526">
        <ele>398.12</ele>
        <time>2025-04-29T11:11:04Z</time>
      </trkpt>
      <trkpt lat="43.22721398435533" lon="-5.441864971071482">
        <ele>398.12</ele>
        <time>2025-04-29T11:11:05Z</time>
      </trkpt>
      <trkpt lat="43.227211972698569" lon="-5.442130006849766">
        <ele>398.12</ele>
        <time>2025-04-29T11:11:06Z</time>
      </trkpt>
      <trkpt lat="43.227178025990725" lon="-5.442399987950921">
        <ele>397.63999999999999</ele>
        <time>2025-04-29T11:11:07Z</time>
      </trkpt>
      <trkpt lat="43.227129997685552" lon="-5.442666029557586">
        <ele>397.63999999999999</ele>
        <time>2025-04-29T11:11:08Z</time>
      </trkpt>
      <trkpt lat="43.227074006572366" lon="-5.442938022315502">
        <ele>396.68000000000001</ele>
        <time>2025-04-29T11:11:09Z</time>
      </trkpt>
      <trkpt lat="43.22654603049159" lon="-5.445613022893667">
        <ele>392.83999999999997</ele>
        <time>2025-04-29T11:11:18Z</time>
      </trkpt>
      <trkpt lat="43.226493978872895" lon="-5.445886021479964">
        <ele>392.36000000000001</ele>
        <time>2025-04-29T11:11:19Z</time>
      </trkpt>
      <trkpt lat="43.226429019123316" lon="-5.446131024509668">
        <ele>392.36000000000001</ele>
        <time>2025-04-29T11:11:20Z</time>
      </trkpt>
      <trkpt lat="43.226326005533338" lon="-5.44635096564889">
        <ele>392.36000000000001</ele>
        <time>2025-04-29T11:11:21Z</time>
      </trkpt>
      <trkpt lat="43.226185021921992" lon="-5.44652396813035">
        <ele>391.87</ele>
        <time>2025-04-29T11:11:22Z</time>
      </trkpt>
      <trkpt lat="43.226026017218828" lon="-5.446653971448541">
        <ele>391.38999999999999</ele>
        <time>2025-04-29T11:11:23Z</time>
      </trkpt>
      <trkpt lat="43.225858965888619" lon="-5.446751033887267">
        <ele>391.38999999999999</ele>
        <time>2025-04-29T11:11:24Z</time>
      </trkpt>
      <trkpt lat="43.225655034184456" lon="-5.446767965331674">
        <ele>391.38999999999999</ele>
        <time>2025-04-29T11:11:25Z</time>
      </trkpt>
      <trkpt lat="43.225446995347738" lon="-5.44673502445221">
        <ele>390.91000000000003</ele>
        <time>2025-04-29T11:11:26Z</time>
      </trkpt>
      <trkpt lat="43.225233005359769" lon="-5.446682972833514">
        <ele>390.43000000000001</ele>
        <time>2025-04-29T11:11:27Z</time>
      </trkpt>
      <trkpt lat="43.225014992058277" lon="-5.44662999920547">
        <ele>389.94999999999999</ele>
        <time>2025-04-29T11:11:28Z</time>
      </trkpt>
      <trkpt lat="43.224807037040591" lon="-5.446579959243536">
        <ele>388.99000000000001</ele>
        <time>2025-04-29T11:11:29Z</time>
      </trkpt>
      <trkpt lat="43.224558010697365" lon="-5.446614995598793">
        <ele>388.02999999999997</ele>
        <time>2025-04-29T11:11:30Z</time>
      </trkpt>
      <trkpt lat="43.224327005445957" lon="-5.44664902612567">
        <ele>387.55000000000001</ele>
        <time>2025-04-29T11:11:31Z</time>
      </trkpt>
      <trkpt lat="43.223009034991264" lon="-5.446795960888267">
        <ele>383.22000000000003</ele>
        <time>2025-04-29T11:11:37Z</time>
      </trkpt>
      <trkpt lat="43.222802001982927" lon="-5.446771988645196">
        <ele>382.74000000000001</ele>
        <time>2025-04-29T11:11:38Z</time>
      </trkpt>
      <trkpt lat="43.222388019785285" lon="-5.446734018623829">
        <ele>380.81999999999999</ele>
        <time>2025-04-29T11:11:40Z</time>
      </trkpt>
      <trkpt lat="43.222179980948567" lon="-5.446747010573745">
        <ele>380.33999999999997</ele>
        <time>2025-04-29T11:11:41Z</time>
      </trkpt>
      <trkpt lat="43.221553014591336" lon="-5.446892017498612">
        <ele>378.42000000000002</ele>
        <time>2025-04-29T11:11:44Z</time>
      </trkpt>
      <trkpt lat="43.22136802598834" lon="-5.446996036916971">
        <ele>377.94</ele>
        <time>2025-04-29T11:11:45Z</time>
      </trkpt>
      <trkpt lat="43.22119602933526" lon="-5.447106007486582">
        <ele>377.44999999999999</ele>
        <time>2025-04-29T11:11:46Z</time>
      </trkpt>
      <trkpt lat="43.221053034067154" lon="-5.447254031896591">
        <ele>376.97000000000003</ele>
        <time>2025-04-29T11:11:47Z</time>
      </trkpt>
      <trkpt lat="43.220941973850131" lon="-5.447374982759357">
        <ele>376.49000000000001</ele>
        <time>2025-04-29T11:11:48Z</time>
      </trkpt>
      <trkpt lat="43.220855975523591" lon="-5.447499034926295">
        <ele>376.00999999999999</ele>
        <time>2025-04-29T11:11:49Z</time>
      </trkpt>
      <trkpt lat="43.220780035480857" lon="-5.447617974132299">
        <ele>376.49000000000001</ele>
        <time>2025-04-29T11:11:50Z</time>
      </trkpt>
      <trkpt lat="43.220714991912246" lon="-5.447738002985716">
        <ele>376.49000000000001</ele>
        <time>2025-04-29T11:11:51Z</time>
      </trkpt>
      <trkpt lat="43.220661012455821" lon="-5.447885021567345">
        <ele>376.49000000000001</ele>
        <time>2025-04-29T11:11:52Z</time>
      </trkpt>
      <trkpt lat="43.220608960837126" lon="-5.448028016835451">
        <ele>376.49000000000001</ele>
        <time>2025-04-29T11:11:53Z</time>
      </trkpt>
      <trkpt lat="43.220559004694223" lon="-5.448167994618416">
        <ele>376.49000000000001</ele>
        <time>2025-04-29T11:11:54Z</time>
      </trkpt>
      <trkpt lat="43.22051097638905" lon="-5.448300009593368">
        <ele>376.00999999999999</ele>
        <time>2025-04-29T11:11:55Z</time>
      </trkpt>
      <trkpt lat="43.22046797722578" lon="-5.448430012911558">
        <ele>376.49000000000001</ele>
        <time>2025-04-29T11:11:56Z</time>
      </trkpt>
      <trkpt lat="43.220438975840807" lon="-5.449012974277139">
        <ele>376.49000000000001</ele>
        <time>2025-04-29T11:12:00Z</time>
      </trkpt>
      <trkpt lat="43.220441993325949" lon="-5.449128979817033">
        <ele>376.49000000000001</ele>
        <time>2025-04-29T11:12:01Z</time>
      </trkpt>
      <trkpt lat="43.22044400498271" lon="-5.449219001457095">
        <ele>376.49000000000001</ele>
        <time>2025-04-29T11:12:02Z</time>
      </trkpt>
      <trkpt lat="43.220446016639471" lon="-5.449297036975622">
        <ele>376.49000000000001</ele>
        <time>2025-04-29T11:12:03Z</time>
      </trkpt>
      <trkpt lat="43.220448028296232" lon="-5.449374988675118">
        <ele>376.49000000000001</ele>
        <time>2025-04-29T11:12:04Z</time>
      </trkpt>
      <trkpt lat="43.220450039952993" lon="-5.449456963688135">
        <ele>376.49000000000001</ele>
        <time>2025-04-29T11:12:05Z</time>
      </trkpt>
      <trkpt lat="43.220453979447484" lon="-5.449560983106494">
        <ele>376.97000000000003</ele>
        <time>2025-04-29T11:12:06Z</time>
      </trkpt>
      <trkpt lat="43.220560010522604" lon="-5.45073595829308">
        <ele>378.89999999999998</ele>
        <time>2025-04-29T11:12:15Z</time>
      </trkpt>
      <trkpt lat="43.220740975812078" lon="-5.452611995860934">
        <ele>380.33999999999997</ele>
        <time>2025-04-29T11:12:27Z</time>
      </trkpt>
      <trkpt lat="43.220898974686861" lon="-5.453778002411127">
        <ele>378.89999999999998</ele>
        <time>2025-04-29T11:12:35Z</time>
      </trkpt>
      <trkpt lat="43.220950020477176" lon="-5.45399802736938">
        <ele>378.42000000000002</ele>
        <time>2025-04-29T11:12:37Z</time>
      </trkpt>
      <trkpt lat="43.221092009916902" lon="-5.454404968768358">
        <ele>377.94</ele>
        <time>2025-04-29T11:12:41Z</time>
      </trkpt>
      <trkpt lat="43.221134003251791" lon="-5.454502031207085">
        <ele>377.44999999999999</ele>
        <time>2025-04-29T11:12:42Z</time>
      </trkpt>
      <trkpt lat="43.221173984929919" lon="-5.45460001565516">
        <ele>377.44999999999999</ele>
        <time>2025-04-29T11:12:43Z</time>
      </trkpt>
      <trkpt lat="43.221212960779667" lon="-5.454700011759996">
        <ele>377.44999999999999</ele>
        <time>2025-04-29T11:12:44Z</time>
      </trkpt>
      <trkpt lat="43.221252020448446" lon="-5.454802019521594">
        <ele>377.94</ele>
        <time>2025-04-29T11:12:45Z</time>
      </trkpt>
      <trkpt lat="43.221292002126575" lon="-5.454905033111572">
        <ele>377.94</ele>
        <time>2025-04-29T11:12:46Z</time>
      </trkpt>
      <trkpt lat="43.221424017101526" lon="-5.455337036401033">
        <ele>378.42000000000002</ele>
        <time>2025-04-29T11:12:50Z</time>
      </trkpt>
      <trkpt lat="43.221434997394681" lon="-5.455448012799025">
        <ele>378.42000000000002</ele>
        <time>2025-04-29T11:12:51Z</time>
      </trkpt>
      <trkpt lat="43.221514038741589" lon="-5.456370022147894">
        <ele>380.81999999999999</ele>
        <time>2025-04-29T11:12:59Z</time>
      </trkpt>
      <trkpt lat="43.221524013206363" lon="-5.45657898299396">
        <ele>381.30000000000001</ele>
        <time>2025-04-29T11:13:01Z</time>
      </trkpt>
      <trkpt lat="43.221644964069128" lon="-5.45709203928709">
        <ele>381.77999999999997</ele>
        <time>2025-04-29T11:13:06Z</time>
      </trkpt>
      <trkpt lat="43.221684023737907" lon="-5.457186000421643">
        <ele>381.77999999999997</ele>
        <time>2025-04-29T11:13:07Z</time>
      </trkpt>
      <trkpt lat="43.221722999587655" lon="-5.457279961556196">
        <ele>381.77999999999997</ele>
        <time>2025-04-29T11:13:08Z</time>
      </trkpt>
      <trkpt lat="43.221762981265783" lon="-5.457374006509781">
        <ele>381.77999999999997</ele>
        <time>2025-04-29T11:13:09Z</time>
      </trkpt>
      <trkpt lat="43.221800029277802" lon="-5.457464028149843">
        <ele>382.25999999999999</ele>
        <time>2025-04-29T11:13:10Z</time>
      </trkpt>
      <trkpt lat="43.221851997077465" lon="-5.457548014819622">
        <ele>382.25999999999999</ele>
        <time>2025-04-29T11:13:11Z</time>
      </trkpt>
      <trkpt lat="43.221914023160934" lon="-5.457604005932808">
        <ele>382.25999999999999</ele>
        <time>2025-04-29T11:13:12Z</time>
      </trkpt>
      <trkpt lat="43.221974959596992" lon="-5.457658991217613">
        <ele>382.74000000000001</ele>
        <time>2025-04-29T11:13:13Z</time>
      </trkpt>
      <trkpt lat="43.222033968195319" lon="-5.457712970674038">
        <ele>382.74000000000001</ele>
        <time>2025-04-29T11:13:14Z</time>
      </trkpt>
      <trkpt lat="43.22240000590682" lon="-5.457885973155499">
        <ele>383.69999999999999</ele>
        <time>2025-04-29T11:13:19Z</time>
      </trkpt>
      <trkpt lat="43.222467983141541" lon="-5.45790902338922">
        <ele>383.69999999999999</ele>
        <time>2025-04-29T11:13:20Z</time>
      </trkpt>
      <trkpt lat="43.223456041887403" lon="-5.458303978666663">
        <ele>387.06999999999999</ele>
        <time>2025-04-29T11:13:32Z</time>
      </trkpt>
      <trkpt lat="43.223566012457013" lon="-5.458344966173172">
        <ele>387.55000000000001</ele>
        <time>2025-04-29T11:13:33Z</time>
      </trkpt>
      <trkpt lat="43.223680006340146" lon="-5.458383020013571">
        <ele>388.50999999999999</ele>
        <time>2025-04-29T11:13:34Z</time>
      </trkpt>
      <trkpt lat="43.224742999300361" lon="-5.458848970010877">
        <ele>393.80000000000001</ele>
        <time>2025-04-29T11:13:42Z</time>
      </trkpt>
      <trkpt lat="43.22487099096179" lon="-5.458975033834577">
        <ele>394.27999999999997</ele>
        <time>2025-04-29T11:13:43Z</time>
      </trkpt>
      <trkpt lat="43.2249999884516" lon="-5.459124986082315">
        <ele>394.75999999999999</ele>
        <time>2025-04-29T11:13:44Z</time>
      </trkpt>
      <trkpt lat="43.225134015083313" lon="-5.459280973300338">
        <ele>395.24000000000001</ele>
        <time>2025-04-29T11:13:45Z</time>
      </trkpt>
      <trkpt lat="43.225270975381136" lon="-5.459440983831883">
        <ele>395.24000000000001</ele>
        <time>2025-04-29T11:13:46Z</time>
      </trkpt>
      <trkpt lat="43.226557010784745" lon="-5.461343005299568">
        <ele>399.56999999999999</ele>
        <time>2025-04-29T11:13:56Z</time>
      </trkpt>
      <trkpt lat="43.226948026567698" lon="-5.461944993585348">
        <ele>400.52999999999997</ele>
        <time>2025-04-29T11:13:59Z</time>
      </trkpt>
      <trkpt lat="43.227036036550999" lon="-5.462194019928575">
        <ele>401.00999999999999</ele>
        <time>2025-04-29T11:14:00Z</time>
      </trkpt>
      <trkpt lat="43.227124968543649" lon="-5.462442962452769">
        <ele>401.49000000000001</ele>
        <time>2025-04-29T11:14:01Z</time>
      </trkpt>
      <trkpt lat="43.227474996820092" lon="-5.464615970849991">
        <ele>400.52999999999997</ele>
        <time>2025-04-29T11:14:09Z</time>
      </trkpt>
      <trkpt lat="43.227482959628105" lon="-5.464873965829611">
        <ele>400.52999999999997</ele>
        <time>2025-04-29T11:14:10Z</time>
      </trkpt>
      <trkpt lat="43.227468961849809" lon="-5.465115029364824">
        <ele>400.52999999999997</ele>
        <time>2025-04-29T11:14:11Z</time>
      </trkpt>
      <trkpt lat="43.227392015978694" lon="-5.465347962453961">
        <ele>400.05000000000001</ele>
        <time>2025-04-29T11:14:12Z</time>
      </trkpt>
      <trkpt lat="43.227314986288548" lon="-5.465574022382498">
        <ele>400.52999999999997</ele>
        <time>2025-04-29T11:14:13Z</time>
      </trkpt>
      <trkpt lat="43.227195041254163" lon="-5.465774014592171">
        <ele>400.52999999999997</ele>
        <time>2025-04-29T11:14:14Z</time>
      </trkpt>
      <trkpt lat="43.227078029885888" lon="-5.465969983488321">
        <ele>400.52999999999997</ele>
        <time>2025-04-29T11:14:15Z</time>
      </trkpt>
      <trkpt lat="43.226708974689245" lon="-5.466715972870588">
        <ele>401.97000000000003</ele>
        <time>2025-04-29T11:14:19Z</time>
      </trkpt>
      <trkpt lat="43.226644014939666" lon="-5.466922000050545">
        <ele>402.44999999999999</ele>
        <time>2025-04-29T11:14:20Z</time>
      </trkpt>
      <trkpt lat="43.226529015228152" lon="-5.467812996357679">
        <ele>404.37</ele>
        <time>2025-04-29T11:14:24Z</time>
      </trkpt>
      <trkpt lat="43.226437987759709" lon="-5.468509029597044">
        <ele>405.81</ele>
        <time>2025-04-29T11:14:27Z</time>
      </trkpt>
      <trkpt lat="43.226488027721643" lon="-5.468750009313226">
        <ele>406.29000000000002</ele>
        <time>2025-04-29T11:14:28Z</time>
      </trkpt>
      <trkpt lat="43.226536978036165" lon="-5.468988977372646">
        <ele>406.29000000000002</ele>
        <time>2025-04-29T11:14:29Z</time>
      </trkpt>
      <trkpt lat="43.226605039089918" lon="-5.469196010380983">
        <ele>406.76999999999998</ele>
        <time>2025-04-29T11:14:30Z</time>
      </trkpt>
      <trkpt lat="43.226724984124303" lon="-5.469393990933895">
        <ele>406.76999999999998</ele>
        <time>2025-04-29T11:14:31Z</time>
      </trkpt>
      <trkpt lat="43.226853981614113" lon="-5.469584008678794">
        <ele>405.81</ele>
        <time>2025-04-29T11:14:32Z</time>
      </trkpt>
      <trkpt lat="43.227035030722618" lon="-5.469729015603662">
        <ele>405.32999999999998</ele>
        <time>2025-04-29T11:14:33Z</time>
      </trkpt>
      <trkpt lat="43.228337997570634" lon="-5.470839031040669">
        <ele>398.12</ele>
        <time>2025-04-29T11:14:40Z</time>
      </trkpt>
      <trkpt lat="43.228650977835059" lon="-5.471413023769856">
        <ele>396.68000000000001</ele>
        <time>2025-04-29T11:14:43Z</time>
      </trkpt>
      <trkpt lat="43.229019027203321" lon="-5.472299996763468">
        <ele>396.19999999999999</ele>
        <time>2025-04-29T11:14:48Z</time>
      </trkpt>
      <trkpt lat="43.229093961417675" lon="-5.472488002851605">
        <ele>396.19999999999999</ele>
        <time>2025-04-29T11:14:49Z</time>
      </trkpt>
      <trkpt lat="43.23022099211812" lon="-5.473986016586423">
        <ele>396.19999999999999</ele>
        <time>2025-04-29T11:14:58Z</time>
      </trkpt>
      <trkpt lat="43.231621021404862" lon="-5.474194977432489">
        <ele>394.27999999999997</ele>
        <time>2025-04-29T11:15:06Z</time>
      </trkpt>
      <trkpt lat="43.232353013008833" lon="-5.474390024319291">
        <ele>389.94999999999999</ele>
        <time>2025-04-29T11:15:11Z</time>
      </trkpt>
      <trkpt lat="43.232479998841882" lon="-5.474458001554012">
        <ele>388.99000000000001</ele>
        <time>2025-04-29T11:15:12Z</time>
      </trkpt>
      <trkpt lat="43.232606984674931" lon="-5.474508041515946">
        <ele>387.55000000000001</ele>
        <time>2025-04-29T11:15:13Z</time>
      </trkpt>
      <trkpt lat="43.23271200992167" lon="-5.474627986550331">
        <ele>386.58999999999997</ele>
        <time>2025-04-29T11:15:14Z</time>
      </trkpt>
      <trkpt lat="43.232759032398462" lon="-5.474822027608752">
        <ele>385.14999999999998</ele>
        <time>2025-04-29T11:15:15Z</time>
      </trkpt>
      <trkpt lat="43.232842013239861" lon="-5.474991006776691">
        <ele>383.69999999999999</ele>
        <time>2025-04-29T11:15:16Z</time>
      </trkpt>
      <trkpt lat="43.232961036264896" lon="-5.475140037015081">
        <ele>382.25999999999999</ele>
        <time>2025-04-29T11:15:17Z</time>
      </trkpt>
      <trkpt lat="43.232962964102626" lon="-5.475385040044785">
        <ele>380.33999999999997</ele>
        <time>2025-04-29T11:15:18Z</time>
      </trkpt>
      <trkpt lat="43.232967993244529" lon="-5.475643035024405">
        <ele>378.89999999999998</ele>
        <time>2025-04-29T11:15:19Z</time>
      </trkpt>
      <trkpt lat="43.232974028214812" lon="-5.475918967276812">
        <ele>377.94</ele>
        <time>2025-04-29T11:15:20Z</time>
      </trkpt>
      <trkpt lat="43.232978973537683" lon="-5.476205963641405">
        <ele>376.49000000000001</ele>
        <time>2025-04-29T11:15:21Z</time>
      </trkpt>
      <trkpt lat="43.232907978817821" lon="-5.478440998122096">
        <ele>364.48000000000002</ele>
        <time>2025-04-29T11:15:29Z</time>
      </trkpt>
      <trkpt lat="43.232858022674918" lon="-5.478704022243619">
        <ele>363.51999999999998</ele>
        <time>2025-04-29T11:15:30Z</time>
      </trkpt>
      <trkpt lat="43.232362987473607" lon="-5.480887005105615">
        <ele>361.11000000000001</ele>
        <time>2025-04-29T11:15:38Z</time>
      </trkpt>
      <trkpt lat="43.232311019673944" lon="-5.481448005884886">
        <ele>360.63</ele>
        <time>2025-04-29T11:15:40Z</time>
      </trkpt>
      <trkpt lat="43.232300039380789" lon="-5.481730978935957">
        <ele>360.63</ele>
        <time>2025-04-29T11:15:41Z</time>
      </trkpt>
      <trkpt lat="43.232329040765762" lon="-5.482004983350635">
        <ele>360.14999999999998</ele>
        <time>2025-04-29T11:15:42Z</time>
      </trkpt>
      <trkpt lat="43.232665993273258" lon="-5.484583005309105">
        <ele>356.79000000000002</ele>
        <time>2025-04-29T11:15:51Z</time>
      </trkpt>
      <trkpt lat="43.232720978558064" lon="-5.485154986381531">
        <ele>355.82999999999998</ele>
        <time>2025-04-29T11:15:53Z</time>
      </trkpt>
      <trkpt lat="43.232689965516329" lon="-5.485435025766492">
        <ele>355.33999999999997</ele>
        <time>2025-04-29T11:15:54Z</time>
      </trkpt>
      <trkpt lat="43.232615031301975" lon="-5.485696038231254">
        <ele>354.38</ele>
        <time>2025-04-29T11:15:55Z</time>
      </trkpt>
      <trkpt lat="43.232521992176771" lon="-5.485955039039254">
        <ele>353.89999999999998</ele>
        <time>2025-04-29T11:15:56Z</time>
      </trkpt>
      <trkpt lat="43.232405986636877" lon="-5.486203981563449">
        <ele>353.42000000000002</ele>
        <time>2025-04-29T11:15:57Z</time>
      </trkpt>
      <trkpt lat="43.232171041890979" lon="-5.486706979572773">
        <ele>352.45999999999998</ele>
        <time>2025-04-29T11:15:59Z</time>
      </trkpt>
      <trkpt lat="43.232081020250916" lon="-5.486898003146052">
        <ele>351.98000000000002</ele>
        <time>2025-04-29T11:16:00Z</time>
      </trkpt>
      <trkpt lat="43.232017988339067" lon="-5.487236967310309">
        <ele>351.5</ele>
        <time>2025-04-29T11:16:01Z</time>
      </trkpt>
      <trkpt lat="43.231966020539403" lon="-5.48751600086689">
        <ele>351.01999999999998</ele>
        <time>2025-04-29T11:16:02Z</time>
      </trkpt>
      <trkpt lat="43.231959985569119" lon="-5.487791011109948">
        <ele>351.01999999999998</ele>
        <time>2025-04-29T11:16:03Z</time>
      </trkpt>
      <trkpt lat="43.231969960033894" lon="-5.488081024959683">
        <ele>350.06</ele>
        <time>2025-04-29T11:16:04Z</time>
      </trkpt>
      <trkpt lat="43.232012959197164" lon="-5.490254033356905">
        <ele>346.69</ele>
        <time>2025-04-29T11:16:11Z</time>
      </trkpt>
      <trkpt lat="43.231941964477301" lon="-5.490882005542517">
        <ele>345.73000000000002</ele>
        <time>2025-04-29T11:16:13Z</time>
      </trkpt>
      <trkpt lat="43.231652034446597" lon="-5.49292802810669">
        <ele>340.92000000000002</ele>
        <time>2025-04-29T11:16:20Z</time>
      </trkpt>
      <trkpt lat="43.231697967275977" lon="-5.493174958974123">
        <ele>340.44</ele>
        <time>2025-04-29T11:16:21Z</time>
      </trkpt>
      <trkpt lat="43.231749013066292" lon="-5.493450975045562">
        <ele>339.95999999999998</ele>
        <time>2025-04-29T11:16:22Z</time>
      </trkpt>
      <trkpt lat="43.231843980029225" lon="-5.493706036359072">
        <ele>339</ele>
        <time>2025-04-29T11:16:23Z</time>
      </trkpt>
      <trkpt lat="43.231952022761106" lon="-5.493960008025169">
        <ele>338.51999999999998</ele>
        <time>2025-04-29T11:16:24Z</time>
      </trkpt>
      <trkpt lat="43.232060987502337" lon="-5.494215991348028">
        <ele>338.04000000000002</ele>
        <time>2025-04-29T11:16:25Z</time>
      </trkpt>
      <trkpt lat="43.232227033004165" lon="-5.49441397190094">
        <ele>338.04000000000002</ele>
        <time>2025-04-29T11:16:26Z</time>
      </trkpt>
      <trkpt lat="43.232394000515342" lon="-5.494612958282232">
        <ele>338.04000000000002</ele>
        <time>2025-04-29T11:16:27Z</time>
      </trkpt>
      <trkpt lat="43.232563985511661" lon="-5.494797024875879">
        <ele>338.04000000000002</ele>
        <time>2025-04-29T11:16:28Z</time>
      </trkpt>
      <trkpt lat="43.233387004584074" lon="-5.495907040312886">
        <ele>338.51999999999998</ele>
        <time>2025-04-29T11:16:34Z</time>
      </trkpt>
      <trkpt lat="43.233944987878203" lon="-5.497461967170239">
        <ele>339.48000000000002</ele>
        <time>2025-04-29T11:16:41Z</time>
      </trkpt>
      <trkpt lat="43.234154032543302" lon="-5.499467002227902">
        <ele>339.48000000000002</ele>
        <time>2025-04-29T11:16:48Z</time>
      </trkpt>
      <trkpt lat="43.234313037246466" lon="-5.502033960074186">
        <ele>335.63999999999999</ele>
        <time>2025-04-29T11:16:57Z</time>
      </trkpt>
      <trkpt lat="43.234391994774342" lon="-5.50347900018096">
        <ele>334.68000000000001</ele>
        <time>2025-04-29T11:17:04Z</time>
      </trkpt>
      <trkpt lat="43.234505988657475" lon="-5.503677986562252">
        <ele>334.68000000000001</ele>
        <time>2025-04-29T11:17:05Z</time>
      </trkpt>
      <trkpt lat="43.234543958678842" lon="-5.50384595990181">
        <ele>334.68000000000001</ele>
        <time>2025-04-29T11:17:07Z</time>
      </trkpt>
      <trkpt lat="43.234528033062816" lon="-5.503957020118833">
        <ele>334.68000000000001</ele>
        <time>2025-04-29T11:17:08Z</time>
      </trkpt>
      <trkpt lat="43.234528033062816" lon="-5.503957020118833">
        <ele>334.68000000000001</ele>
        <time>2025-04-29T11:17:09Z</time>
      </trkpt>
      <trkpt lat="43.23447598144412" lon="-5.504234964028001">
        <ele>335.16000000000003</ele>
        <time>2025-04-29T11:17:10Z</time>
      </trkpt>
      <trkpt lat="43.234513029456139" lon="-5.504379970952869">
        <ele>335.16000000000003</ele>
        <time>2025-04-29T11:17:11Z</time>
      </trkpt>
      <trkpt lat="43.234554016962647" lon="-5.504538975656033">
        <ele>335.63999999999999</ele>
        <time>2025-04-29T11:17:12Z</time>
      </trkpt>
      <trkpt lat="43.234597016125917" lon="-5.50470401532948">
        <ele>336.12</ele>
        <time>2025-04-29T11:17:13Z</time>
      </trkpt>
      <trkpt lat="43.234643032774329" lon="-5.504879029467702">
        <ele>336.12</ele>
        <time>2025-04-29T11:17:14Z</time>
      </trkpt>
      <trkpt lat="43.235219959169626" lon="-5.506953969597817">
        <ele>338.51999999999998</ele>
        <time>2025-04-29T11:17:25Z</time>
      </trkpt>
      <trkpt lat="43.235219037160277" lon="-5.508386017754674">
        <ele>337.07999999999998</ele>
        <time>2025-04-29T11:17:31Z</time>
      </trkpt>
      <trkpt lat="43.23516103439033" lon="-5.508638983592391">
        <ele>337.07999999999998</ele>
        <time>2025-04-29T11:17:32Z</time>
      </trkpt>
      <trkpt lat="43.2350969966501" lon="-5.508907036855817">
        <ele>336.60000000000002</ele>
        <time>2025-04-29T11:17:33Z</time>
      </trkpt>
      <trkpt lat="43.235005969181657" lon="-5.509184980764985">
        <ele>336.12</ele>
        <time>2025-04-29T11:17:34Z</time>
      </trkpt>
      <trkpt lat="43.234310019761324" lon="-5.510895978659391">
        <ele>334.68000000000001</ele>
        <time>2025-04-29T11:17:39Z</time>
      </trkpt>
      <trkpt lat="43.233686992898583" lon="-5.51254503428936">
        <ele>331.79000000000002</ele>
        <time>2025-04-29T11:17:44Z</time>
      </trkpt>
      <trkpt lat="43.233600994572043" lon="-5.512880980968475">
        <ele>331.79000000000002</ele>
        <time>2025-04-29T11:17:45Z</time>
      </trkpt>
      <trkpt lat="43.233555983752012" lon="-5.513211982324719">
        <ele>331.79000000000002</ele>
        <time>2025-04-29T11:17:46Z</time>
      </trkpt>
      <trkpt lat="43.233547015115619" lon="-5.513532003387809">
        <ele>331.31</ele>
        <time>2025-04-29T11:17:47Z</time>
      </trkpt>
      <trkpt lat="43.23355296626687" lon="-5.513832997530699">
        <ele>331.31</ele>
        <time>2025-04-29T11:17:48Z</time>
      </trkpt>
      <trkpt lat="43.233582973480225" lon="-5.514117982238531">
        <ele>331.31</ele>
        <time>2025-04-29T11:17:49Z</time>
      </trkpt>
      <trkpt lat="43.233621027320623" lon="-5.514391986653209">
        <ele>331.31</ele>
        <time>2025-04-29T11:17:50Z</time>
      </trkpt>
      <trkpt lat="43.23368196375668" lon="-5.514661967754364">
        <ele>331.31</ele>
        <time>2025-04-29T11:17:51Z</time>
      </trkpt>
      <trkpt lat="43.233757987618446" lon="-5.514919962733984">
        <ele>331.31</ele>
        <time>2025-04-29T11:17:52Z</time>
      </trkpt>
      <trkpt lat="43.233844991773367" lon="-5.515162032097578">
        <ele>331.79000000000002</ele>
        <time>2025-04-29T11:17:53Z</time>
      </trkpt>
      <trkpt lat="43.234182028099895" lon="-5.516354022547603">
        <ele>332.75</ele>
        <time>2025-04-29T11:17:58Z</time>
      </trkpt>
      <trkpt lat="43.234224021434784" lon="-5.516603970900178">
        <ele>332.75</ele>
        <time>2025-04-29T11:17:59Z</time>
      </trkpt>
      <trkpt lat="43.234255034476519" lon="-5.516852997243404">
        <ele>332.75</ele>
        <time>2025-04-29T11:18:00Z</time>
      </trkpt>
      <trkpt lat="43.234180016443133" lon="-5.518640018999577">
        <ele>331.79000000000002</ele>
        <time>2025-04-29T11:18:07Z</time>
      </trkpt>
      <trkpt lat="43.234227038919926" lon="-5.519134970381856">
        <ele>331.79000000000002</ele>
        <time>2025-04-29T11:18:09Z</time>
      </trkpt>
      <trkpt lat="43.234270960092545" lon="-5.51937896758318">
        <ele>331.79000000000002</ele>
        <time>2025-04-29T11:18:10Z</time>
      </trkpt>
      <trkpt lat="43.234315970912576" lon="-5.519626988098025">
        <ele>331.79000000000002</ele>
        <time>2025-04-29T11:18:11Z</time>
      </trkpt>
      <trkpt lat="43.234375985339284" lon="-5.519863022491336">
        <ele>331.31</ele>
        <time>2025-04-29T11:18:12Z</time>
      </trkpt>
      <trkpt lat="43.234448991715908" lon="-5.520096039399505">
        <ele>331.31</ele>
        <time>2025-04-29T11:18:13Z</time>
      </trkpt>
      <trkpt lat="43.234520992264152" lon="-5.520326960831881">
        <ele>330.82999999999998</ele>
        <time>2025-04-29T11:18:14Z</time>
      </trkpt>
      <trkpt lat="43.234985014423728" lon="-5.521933017298579">
        <ele>328.43000000000001</ele>
        <time>2025-04-29T11:18:22Z</time>
      </trkpt>
      <trkpt lat="43.235147036612034" lon="-5.522635001689196">
        <ele>326.99000000000001</ele>
        <time>2025-04-29T11:18:26Z</time>
      </trkpt>
      <trkpt lat="43.235177965834737" lon="-5.522787971422076">
        <ele>326.5</ele>
        <time>2025-04-29T11:18:27Z</time>
      </trkpt>
      <trkpt lat="43.23535499162972" lon="-5.523020988330245">
        <ele>326.01999999999998</ele>
        <time>2025-04-29T11:18:29Z</time>
      </trkpt>
      <trkpt lat="43.235321966931224" lon="-5.523183010518551">
        <ele>326.01999999999998</ele>
        <time>2025-04-29T11:18:30Z</time>
      </trkpt>
      <trkpt lat="43.235257007181644" lon="-5.524565018713474">
        <ele>326.01999999999998</ele>
        <time>2025-04-29T11:18:37Z</time>
      </trkpt>
      <trkpt lat="43.234847970306873" lon="-5.526298983022571">
        <ele>325.54000000000002</ele>
        <time>2025-04-29T11:18:44Z</time>
      </trkpt>
      <trkpt lat="43.23374398984015" lon="-5.528586991131306">
        <ele>321.22000000000003</ele>
        <time>2025-04-29T11:18:53Z</time>
      </trkpt>
      <trkpt lat="43.232721984386444" lon="-5.531064011156559">
        <ele>321.69999999999999</ele>
        <time>2025-04-29T11:19:03Z</time>
      </trkpt>
      <trkpt lat="43.232643026858568" lon="-5.532127004116774">
        <ele>322.66000000000003</ele>
        <time>2025-04-29T11:19:07Z</time>
      </trkpt>
      <trkpt lat="43.232655012980103" lon="-5.532394973561168">
        <ele>322.66000000000003</ele>
        <time>2025-04-29T11:19:08Z</time>
      </trkpt>
      <trkpt lat="43.232688037678599" lon="-5.532673001289368">
        <ele>322.66000000000003</ele>
        <time>2025-04-29T11:19:09Z</time>
      </trkpt>
      <trkpt lat="43.232720978558064" lon="-5.532954968512058">
        <ele>322.66000000000003</ele>
        <time>2025-04-29T11:19:10Z</time>
      </trkpt>
      <trkpt lat="43.232791973277926" lon="-5.533230984583497">
        <ele>322.18000000000001</ele>
        <time>2025-04-29T11:19:11Z</time>
      </trkpt>
      <trkpt lat="43.232869002968073" lon="-5.533511023968458">
        <ele>322.18000000000001</ele>
        <time>2025-04-29T11:19:12Z</time>
      </trkpt>
      <trkpt lat="43.23297000490129" lon="-5.533776981756091">
        <ele>322.18000000000001</ele>
        <time>2025-04-29T11:19:13Z</time>
      </trkpt>
      <trkpt lat="43.233088022097945" lon="-5.534041011705995">
        <ele>322.18000000000001</ele>
        <time>2025-04-29T11:19:14Z</time>
      </trkpt>
      <trkpt lat="43.233218025416136" lon="-5.534302024170756">
        <ele>322.18000000000001</ele>
        <time>2025-04-29T11:19:15Z</time>
      </trkpt>
      <trkpt lat="43.233364038169384" lon="-5.534555995836854">
        <ele>322.18000000000001</ele>
        <time>2025-04-29T11:19:16Z</time>
      </trkpt>
      <trkpt lat="43.234844030812383" lon="-5.537478011101484">
        <ele>318.32999999999998</ele>
        <time>2025-04-29T11:19:27Z</time>
      </trkpt>
      <trkpt lat="43.235260024666786" lon="-5.539265032857657">
        <ele>316.88999999999999</ele>
        <time>2025-04-29T11:19:34Z</time>
      </trkpt>
      <trkpt lat="43.235430009663105" lon="-5.540207996964455">
        <ele>314.97000000000003</ele>
        <time>2025-04-29T11:19:39Z</time>
      </trkpt>
      <trkpt lat="43.235588008537889" lon="-5.540479989722371">
        <ele>314.49000000000001</ele>
        <time>2025-04-29T11:19:41Z</time>
      </trkpt>
      <trkpt lat="43.235599994659424" lon="-5.54060697555542">
        <ele>314.00999999999999</ele>
        <time>2025-04-29T11:19:42Z</time>
      </trkpt>
      <trkpt lat="43.235449036583304" lon="-5.540762040764093">
        <ele>313.52999999999997</ele>
        <time>2025-04-29T11:19:43Z</time>
      </trkpt>
      <trkpt lat="43.23544199578464" lon="-5.540921967476606">
        <ele>313.05000000000001</ele>
        <time>2025-04-29T11:19:44Z</time>
      </trkpt>
      <trkpt lat="43.235435038805008" lon="-5.541096981614828">
        <ele>312.56999999999999</ele>
        <time>2025-04-29T11:19:45Z</time>
      </trkpt>
      <trkpt lat="43.235433027148247" lon="-5.541294040158391">
        <ele>312.08999999999997</ele>
        <time>2025-04-29T11:19:46Z</time>
      </trkpt>
      <trkpt lat="43.235448030754924" lon="-5.541491014882922">
        <ele>311.60000000000002</ele>
        <time>2025-04-29T11:19:47Z</time>
      </trkpt>
      <trkpt lat="43.23546202853322" lon="-5.541699975728989">
        <ele>311.12</ele>
        <time>2025-04-29T11:19:48Z</time>
      </trkpt>
      <trkpt lat="43.235681969672441" lon="-5.543702999129891">
        <ele>308.72000000000003</ele>
        <time>2025-04-29T11:19:56Z</time>
      </trkpt>
      <trkpt lat="43.236191002652049" lon="-5.546416975557804">
        <ele>306.80000000000001</ele>
        <time>2025-04-29T11:20:06Z</time>
      </trkpt>
      <trkpt lat="43.23632201179862" lon="-5.547728994861245">
        <ele>307.75999999999999</ele>
        <time>2025-04-29T11:20:11Z</time>
      </trkpt>
      <trkpt lat="43.236315976828337" lon="-5.547994030639529">
        <ele>307.27999999999997</ele>
        <time>2025-04-29T11:20:12Z</time>
      </trkpt>
      <trkpt lat="43.236310025677085" lon="-5.548254959285259">
        <ele>307.27999999999997</ele>
        <time>2025-04-29T11:20:13Z</time>
      </trkpt>
      <trkpt lat="43.236283035948873" lon="-5.54851102642715">
        <ele>307.27999999999997</ele>
        <time>2025-04-29T11:20:14Z</time>
      </trkpt>
      <trkpt lat="43.236231990158558" lon="-5.54876902140677">
        <ele>306.80000000000001</ele>
        <time>2025-04-29T11:20:15Z</time>
      </trkpt>
      <trkpt lat="43.236167030408978" lon="-5.54902701638639">
        <ele>306.80000000000001</ele>
        <time>2025-04-29T11:20:16Z</time>
      </trkpt>
      <trkpt lat="43.236100981011987" lon="-5.549292974174023">
        <ele>306.31999999999999</ele>
        <time>2025-04-29T11:20:17Z</time>
      </trkpt>
      <trkpt lat="43.236011965200305" lon="-5.549549963325262">
        <ele>306.31999999999999</ele>
        <time>2025-04-29T11:20:18Z</time>
      </trkpt>
      <trkpt lat="43.235918004065752" lon="-5.549813993275166">
        <ele>305.83999999999997</ele>
        <time>2025-04-29T11:20:19Z</time>
      </trkpt>
      <trkpt lat="43.235310986638069" lon="-5.551717020571232">
        <ele>302.94999999999999</ele>
        <time>2025-04-29T11:20:26Z</time>
      </trkpt>
      <trkpt lat="43.235244015231729" lon="-5.553615018725395">
        <ele>299.58999999999997</ele>
        <time>2025-04-29T11:20:33Z</time>
      </trkpt>
      <trkpt lat="43.235433027148247" lon="-5.555233983322978">
        <ele>297.67000000000002</ele>
        <time>2025-04-29T11:20:41Z</time>
      </trkpt>
      <trkpt lat="43.235464040189981" lon="-5.555675039067864">
        <ele>297.67000000000002</ele>
        <time>2025-04-29T11:20:44Z</time>
      </trkpt>
      <trkpt lat="43.235599994659424" lon="-5.55590596050024">
        <ele>297.18000000000001</ele>
        <time>2025-04-29T11:20:45Z</time>
      </trkpt>
      <trkpt lat="43.235649028792977" lon="-5.556052979081869">
        <ele>297.18000000000001</ele>
        <time>2025-04-29T11:20:47Z</time>
      </trkpt>
      <trkpt lat="43.235638970509171" lon="-5.556213995441794">
        <ele>297.18000000000001</ele>
        <time>2025-04-29T11:20:48Z</time>
      </trkpt>
      <trkpt lat="43.235622039064765" lon="-5.556293036788702">
        <ele>297.18000000000001</ele>
        <time>2025-04-29T11:20:49Z</time>
      </trkpt>
      <trkpt lat="43.235493041574955" lon="-5.556693021208048">
        <ele>297.18000000000001</ele>
        <time>2025-04-29T11:20:51Z</time>
      </trkpt>
      <trkpt lat="43.235493041574955" lon="-5.556881027296186">
        <ele>297.67000000000002</ele>
        <time>2025-04-29T11:20:52Z</time>
      </trkpt>
      <trkpt lat="43.235640982165933" lon="-5.558806015178561">
        <ele>299.58999999999997</ele>
        <time>2025-04-29T11:21:01Z</time>
      </trkpt>
      <trkpt lat="43.235861007124186" lon="-5.559971015900374">
        <ele>299.58999999999997</ele>
        <time>2025-04-29T11:21:06Z</time>
      </trkpt>
      <trkpt lat="43.236684026196599" lon="-5.561883011832833">
        <ele>298.14999999999998</ele>
        <time>2025-04-29T11:21:14Z</time>
      </trkpt>
      <trkpt lat="43.237878028303385" lon="-5.563307013362646">
        <ele>296.69999999999999</ele>
        <time>2025-04-29T11:21:21Z</time>
      </trkpt>
      <trkpt lat="43.239646023139358" lon="-5.564976017922163">
        <ele>295.25999999999999</ele>
        <time>2025-04-29T11:21:30Z</time>
      </trkpt>
      <trkpt lat="43.241743007674813" lon="-5.566751975566149">
        <ele>296.22000000000003</ele>
        <time>2025-04-29T11:21:40Z</time>
      </trkpt>
      <trkpt lat="43.243784001097083" lon="-5.567927034571767">
        <ele>295.74000000000001</ele>
        <time>2025-04-29T11:21:49Z</time>
      </trkpt>
      <trkpt lat="43.24543297290802" lon="-5.56834202259779">
        <ele>294.30000000000001</ele>
        <time>2025-04-29T11:21:57Z</time>
      </trkpt>
      <trkpt lat="43.246671985834837" lon="-5.568014038726687">
        <ele>293.81999999999999</ele>
        <time>2025-04-29T11:22:03Z</time>
      </trkpt>
      <trkpt lat="43.248150972649455" lon="-5.567739028483629">
        <ele>294.30000000000001</ele>
        <time>2025-04-29T11:22:10Z</time>
      </trkpt>
      <trkpt lat="43.249403983354568" lon="-5.568239009007812">
        <ele>297.18000000000001</ele>
        <time>2025-04-29T11:22:16Z</time>
      </trkpt>
      <trkpt lat="43.251346992328763" lon="-5.569702992215753">
        <ele>295.25999999999999</ele>
        <time>2025-04-29T11:22:26Z</time>
      </trkpt>
      <trkpt lat="43.253034017980099" lon="-5.571575006470084">
        <ele>289.97000000000003</ele>
        <time>2025-04-29T11:22:36Z</time>
      </trkpt>
      <trkpt lat="43.255192022770643" lon="-5.574022019281983">
        <ele>288.05000000000001</ele>
        <time>2025-04-29T11:22:49Z</time>
      </trkpt>
      <trkpt lat="43.255531992763281" lon="-5.574297029525042">
        <ele>288.52999999999997</ele>
        <time>2025-04-29T11:22:51Z</time>
      </trkpt>
      <trkpt lat="43.255712036043406" lon="-5.574395013973117">
        <ele>288.52999999999997</ele>
        <time>2025-04-29T11:22:52Z</time>
      </trkpt>
      <trkpt lat="43.255893001332879" lon="-5.574485035613179">
        <ele>288.52999999999997</ele>
        <time>2025-04-29T11:22:53Z</time>
      </trkpt>
      <trkpt lat="43.257783958688378" lon="-5.575316017493606">
        <ele>288.05000000000001</ele>
        <time>2025-04-29T11:23:03Z</time>
      </trkpt>
      <trkpt lat="43.259016014635563" lon="-5.57622897438705">
        <ele>287.08999999999997</ele>
        <time>2025-04-29T11:23:11Z</time>
      </trkpt>
      <trkpt lat="43.260525008663535" lon="-5.577462036162615">
        <ele>285.17000000000002</ele>
        <time>2025-04-29T11:23:22Z</time>
      </trkpt>
      <trkpt lat="43.261851025745273" lon="-5.578787969425321">
        <ele>284.20999999999998</ele>
        <time>2025-04-29T11:23:33Z</time>
      </trkpt>
      <trkpt lat="43.263389021158218" lon="-5.580282965674996">
        <ele>284.69</ele>
        <time>2025-04-29T11:23:44Z</time>
      </trkpt>
      <trkpt lat="43.264451008290052" lon="-5.581349981948733">
        <ele>284.20999999999998</ele>
        <time>2025-04-29T11:23:52Z</time>
      </trkpt>
      <trkpt lat="43.264586040750146" lon="-5.581495994701982">
        <ele>283.73000000000002</ele>
        <time>2025-04-29T11:23:53Z</time>
      </trkpt>
      <trkpt lat="43.265592958778143" lon="-5.583057962357998">
        <ele>281.31999999999999</ele>
        <time>2025-04-29T11:24:02Z</time>
      </trkpt>
      <trkpt lat="43.266069972887635" lon="-5.584638034924865">
        <ele>275.56</ele>
        <time>2025-04-29T11:24:10Z</time>
      </trkpt>
      <trkpt lat="43.266161000356078" lon="-5.58675698004663">
        <ele>270.26999999999998</ele>
        <time>2025-04-29T11:24:19Z</time>
      </trkpt>
      <trkpt lat="43.266102997586131" lon="-5.588715998455882">
        <ele>267.86000000000001</ele>
        <time>2025-04-29T11:24:28Z</time>
      </trkpt>
      <trkpt lat="43.266109032556415" lon="-5.588944992050529">
        <ele>267.86000000000001</ele>
        <time>2025-04-29T11:24:29Z</time>
      </trkpt>
      <trkpt lat="43.266240041702986" lon="-5.589638007804751">
        <ele>267.38</ele>
        <time>2025-04-29T11:24:32Z</time>
      </trkpt>
      <trkpt lat="43.266297960653901" lon="-5.589861972257495">
        <ele>267.38</ele>
        <time>2025-04-29T11:24:33Z</time>
      </trkpt>
      <trkpt lat="43.266387982293963" lon="-5.590054001659155">
        <ele>267.38</ele>
        <time>2025-04-29T11:24:34Z</time>
      </trkpt>
      <trkpt lat="43.266484960913658" lon="-5.590242007747293">
        <ele>267.38</ele>
        <time>2025-04-29T11:24:35Z</time>
      </trkpt>
      <trkpt lat="43.266580011695623" lon="-5.590426996350288">
        <ele>267.86000000000001</ele>
        <time>2025-04-29T11:24:36Z</time>
      </trkpt>
      <trkpt lat="43.266672967001796" lon="-5.590606033802033">
        <ele>267.86000000000001</ele>
        <time>2025-04-29T11:24:37Z</time>
      </trkpt>
      <trkpt lat="43.266794001683593" lon="-5.590759003534913">
        <ele>267.86000000000001</ele>
        <time>2025-04-29T11:24:38Z</time>
      </trkpt>
      <trkpt lat="43.266915958374739" lon="-5.590913984924555">
        <ele>267.86000000000001</ele>
        <time>2025-04-29T11:24:39Z</time>
      </trkpt>
      <trkpt lat="43.2670440338552" lon="-5.591048011556268">
        <ele>267.86000000000001</ele>
        <time>2025-04-29T11:24:40Z</time>
      </trkpt>
      <trkpt lat="43.2671959977597" lon="-5.591155970469117">
        <ele>267.86000000000001</ele>
        <time>2025-04-29T11:24:41Z</time>
      </trkpt>
      <trkpt lat="43.26734896749258" lon="-5.59126602485776">
        <ele>267.86000000000001</ele>
        <time>2025-04-29T11:24:42Z</time>
      </trkpt>
      <trkpt lat="43.267500009387732" lon="-5.591372977942228">
        <ele>267.86000000000001</ele>
        <time>2025-04-29T11:24:43Z</time>
      </trkpt>
      <trkpt lat="43.267652979120612" lon="-5.59146199375391">
        <ele>267.86000000000001</ele>
        <time>2025-04-29T11:24:44Z</time>
      </trkpt>
      <trkpt lat="43.267815001308918" lon="-5.591522008180618">
        <ele>267.86000000000001</ele>
        <time>2025-04-29T11:24:45Z</time>
      </trkpt>
      <trkpt lat="43.268301989883184" lon="-5.591618986800313">
        <ele>267.86000000000001</ele>
        <time>2025-04-29T11:24:48Z</time>
      </trkpt>
      <trkpt lat="43.268469041213393" lon="-5.591629967093468">
        <ele>268.35000000000002</ele>
        <time>2025-04-29T11:24:49Z</time>
      </trkpt>
      <trkpt lat="43.268637014552951" lon="-5.591599037870765">
        <ele>267.86000000000001</ele>
        <time>2025-04-29T11:24:50Z</time>
      </trkpt>
      <trkpt lat="43.270491007715464" lon="-5.59109696187079">
        <ele>265.45999999999998</ele>
        <time>2025-04-29T11:25:01Z</time>
      </trkpt>
      <trkpt lat="43.270847992971539" lon="-5.5910549685359">
        <ele>264.98000000000002</ele>
        <time>2025-04-29T11:25:03Z</time>
      </trkpt>
      <trkpt lat="43.271024012938142" lon="-5.591083969920874">
        <ele>264.98000000000002</ele>
        <time>2025-04-29T11:25:04Z</time>
      </trkpt>
      <trkpt lat="43.271200032904744" lon="-5.591114982962608">
        <ele>264.98000000000002</ele>
        <time>2025-04-29T11:25:05Z</time>
      </trkpt>
      <trkpt lat="43.271378986537457" lon="-5.591167034581304">
        <ele>264.98000000000002</ele>
        <time>2025-04-29T11:25:06Z</time>
      </trkpt>
      <trkpt lat="43.271560035645962" lon="-5.591235011816025">
        <ele>264.98000000000002</ele>
        <time>2025-04-29T11:25:07Z</time>
      </trkpt>
      <trkpt lat="43.271741000935435" lon="-5.591326961293817">
        <ele>264.98000000000002</ele>
        <time>2025-04-29T11:25:08Z</time>
      </trkpt>
      <trkpt lat="43.271921966224909" lon="-5.591441038995981">
        <ele>265.45999999999998</ele>
        <time>2025-04-29T11:25:09Z</time>
      </trkpt>
      <trkpt lat="43.272105026990175" lon="-5.59156802482903">
        <ele>265.45999999999998</ele>
        <time>2025-04-29T11:25:10Z</time>
      </trkpt>
      <trkpt lat="43.272275011986494" lon="-5.591732980683446">
        <ele>265.94</ele>
        <time>2025-04-29T11:25:11Z</time>
      </trkpt>
      <trkpt lat="43.272428987547755" lon="-5.591922998428345">
        <ele>265.94</ele>
        <time>2025-04-29T11:25:12Z</time>
      </trkpt>
      <trkpt lat="43.272572988644242" lon="-5.592117961496115">
        <ele>265.94</ele>
        <time>2025-04-29T11:25:13Z</time>
      </trkpt>
      <trkpt lat="43.272708021104336" lon="-5.592320971190929">
        <ele>266.42000000000002</ele>
        <time>2025-04-29T11:25:14Z</time>
      </trkpt>
      <trkpt lat="43.272830983623862" lon="-5.592517023906112">
        <ele>266.42000000000002</ele>
        <time>2025-04-29T11:25:15Z</time>
      </trkpt>
      <trkpt lat="43.27293399721384" lon="-5.592722967267036">
        <ele>266.42000000000002</ele>
        <time>2025-04-29T11:25:16Z</time>
      </trkpt>
      <trkpt lat="43.273034999147058" lon="-5.59292396530509">
        <ele>266.89999999999998</ele>
        <time>2025-04-29T11:25:17Z</time>
      </trkpt>
      <trkpt lat="43.273114962503314" lon="-5.593143990263343">
        <ele>266.89999999999998</ele>
        <time>2025-04-29T11:25:18Z</time>
      </trkpt>
      <trkpt lat="43.27344998717308" lon="-5.594794973731041">
        <ele>267.38</ele>
        <time>2025-04-29T11:25:25Z</time>
      </trkpt>
      <trkpt lat="43.273315960541368" lon="-5.596984997391701">
        <ele>267.38</ele>
        <time>2025-04-29T11:25:34Z</time>
      </trkpt>
      <trkpt lat="43.273142036050558" lon="-5.599797964096069">
        <ele>266.42000000000002</ele>
        <time>2025-04-29T11:25:45Z</time>
      </trkpt>
      <trkpt lat="43.272993005812168" lon="-5.602207006886601">
        <ele>266.89999999999998</ele>
        <time>2025-04-29T11:25:55Z</time>
      </trkpt>
      <trkpt lat="43.272756971418858" lon="-5.604916960000992">
        <ele>271.23000000000002</ele>
        <time>2025-04-29T11:26:06Z</time>
      </trkpt>
      <trkpt lat="43.272475004196167" lon="-5.606923000887036">
        <ele>271.70999999999998</ele>
        <time>2025-04-29T11:26:15Z</time>
      </trkpt>
      <trkpt lat="43.272442985326052" lon="-5.60714696533978">
        <ele>271.23000000000002</ele>
        <time>2025-04-29T11:26:16Z</time>
      </trkpt>
      <trkpt lat="43.272409960627556" lon="-5.607350980862975">
        <ele>270.75</ele>
        <time>2025-04-29T11:26:17Z</time>
      </trkpt>
      <trkpt lat="43.272029003128409" lon="-5.610015001147986">
        <ele>270.26999999999998</ele>
        <time>2025-04-29T11:26:27Z</time>
      </trkpt>
      <trkpt lat="43.271997990086675" lon="-5.610307026654482">
        <ele>269.79000000000002</ele>
        <time>2025-04-29T11:26:28Z</time>
      </trkpt>
      <trkpt lat="43.272102009505033" lon="-5.611964967101812">
        <ele>267.86000000000001</ele>
        <time>2025-04-29T11:26:35Z</time>
      </trkpt>
      <trkpt lat="43.272164035588503" lon="-5.612167976796627">
        <ele>267.38</ele>
        <time>2025-04-29T11:26:36Z</time>
      </trkpt>
      <trkpt lat="43.272551028057933" lon="-5.612984038889408">
        <ele>265.94</ele>
        <time>2025-04-29T11:26:39Z</time>
      </trkpt>
      <trkpt lat="43.272684970870614" lon="-5.613150000572205">
        <ele>265.45999999999998</ele>
        <time>2025-04-29T11:26:40Z</time>
      </trkpt>
      <trkpt lat="43.272829977795482" lon="-5.613329960033298">
        <ele>264.98000000000002</ele>
        <time>2025-04-29T11:26:41Z</time>
      </trkpt>
      <trkpt lat="43.273000968620181" lon="-5.613542022183538">
        <ele>264.5</ele>
        <time>2025-04-29T11:26:42Z</time>
      </trkpt>
      <trkpt lat="43.273151004686952" lon="-5.613650986924768">
        <ele>264.01999999999998</ele>
        <time>2025-04-29T11:26:43Z</time>
      </trkpt>
      <trkpt lat="43.273326018825173" lon="-5.613778978586197">
        <ele>263.54000000000002</ele>
        <time>2025-04-29T11:26:44Z</time>
      </trkpt>
      <trkpt lat="43.273559035733342" lon="-5.613948963582516">
        <ele>262.57999999999998</ele>
        <time>2025-04-29T11:26:45Z</time>
      </trkpt>
      <trkpt lat="43.275332981720567" lon="-5.614992007613182">
        <ele>257.76999999999998</ele>
        <time>2025-04-29T11:26:55Z</time>
      </trkpt>
      <trkpt lat="43.27789600007236" lon="-5.616710968315601">
        <ele>252</ele>
        <time>2025-04-29T11:27:09Z</time>
      </trkpt>
      <trkpt lat="43.279963983222842" lon="-5.618121977895498">
        <ele>250.08000000000001</ele>
        <time>2025-04-29T11:27:21Z</time>
      </trkpt>
      <trkpt lat="43.281931970268488" lon="-5.619701966643333">
        <ele>249.12</ele>
        <time>2025-04-29T11:27:33Z</time>
      </trkpt>
      <trkpt lat="43.28283897601068" lon="-5.621191011741757">
        <ele>248.63999999999999</ele>
        <time>2025-04-29T11:27:41Z</time>
      </trkpt>
      <trkpt lat="43.283482035622001" lon="-5.622354000806809">
        <ele>248.63999999999999</ele>
        <time>2025-04-29T11:27:48Z</time>
      </trkpt>
      <trkpt lat="43.283642968162894" lon="-5.622392976656556">
        <ele>248.63999999999999</ele>
        <time>2025-04-29T11:27:49Z</time>
      </trkpt>
      <trkpt lat="43.283770037814975" lon="-5.622490039095283">
        <ele>248.16</ele>
        <time>2025-04-29T11:27:50Z</time>
      </trkpt>
      <trkpt lat="43.283891994506121" lon="-5.622584000229836">
        <ele>248.63999999999999</ele>
        <time>2025-04-29T11:27:51Z</time>
      </trkpt>
      <trkpt lat="43.284011017531157" lon="-5.622676033526659">
        <ele>248.63999999999999</ele>
        <time>2025-04-29T11:27:52Z</time>
      </trkpt>
      <trkpt lat="43.284588027745485" lon="-5.623047016561031">
        <ele>252</ele>
        <time>2025-04-29T11:27:58Z</time>
      </trkpt>
      <trkpt lat="43.284657010808587" lon="-5.623055985197425">
        <ele>252.47999999999999</ele>
        <time>2025-04-29T11:27:59Z</time>
      </trkpt>
      <trkpt lat="43.284700009971857" lon="-5.623061014339328">
        <ele>253.44</ele>
        <time>2025-04-29T11:28:00Z</time>
      </trkpt>
      <trkpt lat="43.284743009135127" lon="-5.62306696549058">
        <ele>253.93000000000001</ele>
        <time>2025-04-29T11:28:01Z</time>
      </trkpt>
      <trkpt lat="43.284803023561835" lon="-5.622982978820801">
        <ele>254.88999999999999</ele>
        <time>2025-04-29T11:28:02Z</time>
      </trkpt>
      <trkpt lat="43.284839987754822" lon="-5.622965041548014">
        <ele>255.37</ele>
        <time>2025-04-29T11:28:03Z</time>
      </trkpt>
      <trkpt lat="43.284910982474685" lon="-5.622928999364376">
        <ele>256.32999999999998</ele>
        <time>2025-04-29T11:28:04Z</time>
      </trkpt>
      <trkpt lat="43.28500603325665" lon="-5.622941991314292">
        <ele>256.81</ele>
        <time>2025-04-29T11:28:05Z</time>
      </trkpt>
      <trkpt lat="43.28509203158319" lon="-5.622967975214124">
        <ele>257.76999999999998</ele>
        <time>2025-04-29T11:28:06Z</time>
      </trkpt>
      <trkpt lat="43.285185992717743" lon="-5.622996976599097">
        <ele>258.25</ele>
        <time>2025-04-29T11:28:07Z</time>
      </trkpt>
      <trkpt lat="43.285291017964482" lon="-5.622918019071221">
        <ele>258.73000000000002</ele>
        <time>2025-04-29T11:28:08Z</time>
      </trkpt>
      <trkpt lat="43.285370981320739" lon="-5.622832020744681">
        <ele>259.20999999999998</ele>
        <time>2025-04-29T11:28:09Z</time>
      </trkpt>
      <trkpt lat="43.285455973818898" lon="-5.622740993276238">
        <ele>259.69</ele>
        <time>2025-04-29T11:28:10Z</time>
      </trkpt>
      <trkpt lat="43.286141026765108" lon="-5.622263979166746">
        <ele>265.45999999999998</ele>
        <time>2025-04-29T11:28:16Z</time>
      </trkpt>
      <trkpt lat="43.286289973184466" lon="-5.622241012752056">
        <ele>266.42000000000002</ele>
        <time>2025-04-29T11:28:17Z</time>
      </trkpt>
      <trkpt lat="43.28644503839314" lon="-5.622246041893959">
        <ele>266.89999999999998</ele>
        <time>2025-04-29T11:28:18Z</time>
      </trkpt>
      <trkpt lat="43.286765981465578" lon="-5.622328016906977">
        <ele>268.82999999999998</ele>
        <time>2025-04-29T11:28:20Z</time>
      </trkpt>
      <trkpt lat="43.286933032795787" lon="-5.622404040768743">
        <ele>269.79000000000002</ele>
        <time>2025-04-29T11:28:21Z</time>
      </trkpt>
      <trkpt lat="43.287120033055544" lon="-5.622490039095283">
        <ele>270.75</ele>
        <time>2025-04-29T11:28:22Z</time>
      </trkpt>
      <trkpt lat="43.288024021312594" lon="-5.622920030727983">
        <ele>275.06999999999999</ele>
        <time>2025-04-29T11:28:27Z</time>
      </trkpt>
      <trkpt lat="43.288214039057493" lon="-5.622905027121306">
        <ele>275.56</ele>
        <time>2025-04-29T11:28:28Z</time>
      </trkpt>
      <trkpt lat="43.28840003348887" lon="-5.622843001037836">
        <ele>276.04000000000002</ele>
        <time>2025-04-29T11:28:29Z</time>
      </trkpt>
      <trkpt lat="43.28857496380806" lon="-5.622738981619477">
        <ele>276.04000000000002</ele>
        <time>2025-04-29T11:28:30Z</time>
      </trkpt>
      <trkpt lat="43.288729023188353" lon="-5.622576037421823">
        <ele>276.51999999999998</ele>
        <time>2025-04-29T11:28:31Z</time>
      </trkpt>
      <trkpt lat="43.288862966001034" lon="-5.622375961393118">
        <ele>277</ele>
        <time>2025-04-29T11:28:32Z</time>
      </trkpt>
      <trkpt lat="43.289000010117888" lon="-5.622175969183445">
        <ele>277</ele>
        <time>2025-04-29T11:28:33Z</time>
      </trkpt>
      <trkpt lat="43.289612978696823" lon="-5.621376000344753">
        <ele>277.95999999999998</ele>
        <time>2025-04-29T11:28:37Z</time>
      </trkpt>
      <trkpt lat="43.289794027805328" lon="-5.621202997863293">
        <ele>277.95999999999998</ele>
        <time>2025-04-29T11:28:38Z</time>
      </trkpt>
      <trkpt lat="43.289996031671762" lon="-5.621009040623903">
        <ele>277.95999999999998</ele>
        <time>2025-04-29T11:28:39Z</time>
      </trkpt>
      <trkpt lat="43.291380973532796" lon="-5.62001402489841">
        <ele>281.31999999999999</ele>
        <time>2025-04-29T11:28:46Z</time>
      </trkpt>
      <trkpt lat="43.291544001549482" lon="-5.619805986061692">
        <ele>282.27999999999997</ele>
        <time>2025-04-29T11:28:47Z</time>
      </trkpt>
      <trkpt lat="43.291696971282363" lon="-5.619583027437329">
        <ele>283.25</ele>
        <time>2025-04-29T11:28:48Z</time>
      </trkpt>
      <trkpt lat="43.291838960722089" lon="-5.619343975558877">
        <ele>284.20999999999998</ele>
        <time>2025-04-29T11:28:49Z</time>
      </trkpt>
      <trkpt lat="43.291980028152466" lon="-5.619097966700792">
        <ele>285.17000000000002</ele>
        <time>2025-04-29T11:28:50Z</time>
      </trkpt>
      <trkpt lat="43.292810004204512" lon="-5.61760799959302">
        <ele>291.89999999999998</ele>
        <time>2025-04-29T11:28:56Z</time>
      </trkpt>
      <trkpt lat="43.292988035827875" lon="-5.617419993504882">
        <ele>293.33999999999997</ele>
        <time>2025-04-29T11:28:57Z</time>
      </trkpt>
      <trkpt lat="43.29379697330296" lon="-5.616483986377716">
        <ele>298.63</ele>
        <time>2025-04-29T11:29:02Z</time>
      </trkpt>
      <trkpt lat="43.293933011591434" lon="-5.616274019703269">
        <ele>299.11000000000001</ele>
        <time>2025-04-29T11:29:03Z</time>
      </trkpt>
      <trkpt lat="43.294053040444851" lon="-5.616046031937003">
        <ele>300.06999999999999</ele>
        <time>2025-04-29T11:29:04Z</time>
      </trkpt>
      <trkpt lat="43.294147001579404" lon="-5.615793988108635">
        <ele>301.02999999999997</ele>
        <time>2025-04-29T11:29:05Z</time>
      </trkpt>
      <trkpt lat="43.294238029047847" lon="-5.615532975643873">
        <ele>301.99000000000001</ele>
        <time>2025-04-29T11:29:06Z</time>
      </trkpt>
      <trkpt lat="43.294313969090581" lon="-5.615259977057576">
        <ele>303.43000000000001</ele>
        <time>2025-04-29T11:29:07Z</time>
      </trkpt>
      <trkpt lat="43.294708002358675" lon="-5.613881992176175">
        <ele>308.72000000000003</ele>
        <time>2025-04-29T11:29:12Z</time>
      </trkpt>
      <trkpt lat="43.294809004291892" lon="-5.613622991368175">
        <ele>309.68000000000001</ele>
        <time>2025-04-29T11:29:13Z</time>
      </trkpt>
      <trkpt lat="43.295721039175987" lon="-5.61195801012218">
        <ele>315.93000000000001</ele>
        <time>2025-04-29T11:29:20Z</time>
      </trkpt>
      <trkpt lat="43.296727035194635" lon="-5.609521977603436">
        <ele>322.66000000000003</ele>
        <time>2025-04-29T11:29:29Z</time>
      </trkpt>
      <trkpt lat="43.297878038138151" lon="-5.60761702246964">
        <ele>328.43000000000001</ele>
        <time>2025-04-29T11:29:37Z</time>
      </trkpt>
      <trkpt lat="43.299349984154105" lon="-5.605870988219976">
        <ele>333.70999999999998</ele>
        <time>2025-04-29T11:29:46Z</time>
      </trkpt>
      <trkpt lat="43.30139902420342" lon="-5.604203995317221">
        <ele>340.44</ele>
        <time>2025-04-29T11:29:57Z</time>
      </trkpt>
      <trkpt lat="43.301727008074522" lon="-5.60383602976799">
        <ele>341.88999999999999</ele>
        <time>2025-04-29T11:29:59Z</time>
      </trkpt>
      <trkpt lat="43.301880983635783" lon="-5.603637965396047">
        <ele>342.37</ele>
        <time>2025-04-29T11:30:00Z</time>
      </trkpt>
      <trkpt lat="43.302012998610735" lon="-5.603419030085206">
        <ele>343.32999999999998</ele>
        <time>2025-04-29T11:30:01Z</time>
      </trkpt>
      <trkpt lat="43.302135961130261" lon="-5.603188024833798">
        <ele>344.29000000000002</ele>
        <time>2025-04-29T11:30:02Z</time>
      </trkpt>
      <trkpt lat="43.302250038832426" lon="-5.602945033460856">
        <ele>345.25</ele>
        <time>2025-04-29T11:30:03Z</time>
      </trkpt>
      <trkpt lat="43.30268899910152" lon="-5.60196896083653">
        <ele>348.62</ele>
        <time>2025-04-29T11:30:07Z</time>
      </trkpt>
      <trkpt lat="43.302811039611697" lon="-5.601739967241883">
        <ele>349.57999999999998</ele>
        <time>2025-04-29T11:30:08Z</time>
      </trkpt>
      <trkpt lat="43.302956968545914" lon="-5.601542992517352">
        <ele>350.54000000000002</ele>
        <time>2025-04-29T11:30:09Z</time>
      </trkpt>
      <trkpt lat="43.303101975470781" lon="-5.601347023621202">
        <ele>351.01999999999998</ele>
        <time>2025-04-29T11:30:10Z</time>
      </trkpt>
      <trkpt lat="43.303257962688804" lon="-5.601160023361445">
        <ele>351.5</ele>
        <time>2025-04-29T11:30:11Z</time>
      </trkpt>
      <trkpt lat="43.30341998487711" lon="-5.600996995344758">
        <ele>352.45999999999998</ele>
        <time>2025-04-29T11:30:12Z</time>
      </trkpt>
      <trkpt lat="43.303603967651725" lon="-5.600837990641594">
        <ele>352.94</ele>
        <time>2025-04-29T11:30:13Z</time>
      </trkpt>
      <trkpt lat="43.303794991225004" lon="-5.600748974829912">
        <ele>353.42000000000002</ele>
        <time>2025-04-29T11:30:14Z</time>
      </trkpt>
      <trkpt lat="43.303994983434677" lon="-5.600677980110049">
        <ele>353.89999999999998</ele>
        <time>2025-04-29T11:30:15Z</time>
      </trkpt>
      <trkpt lat="43.304196987301111" lon="-5.60063699260354">
        <ele>354.86000000000001</ele>
        <time>2025-04-29T11:30:16Z</time>
      </trkpt>
      <trkpt lat="43.304401002824306" lon="-5.60061402618885">
        <ele>355.33999999999997</ele>
        <time>2025-04-29T11:30:17Z</time>
      </trkpt>
      <trkpt lat="43.304607030004263" lon="-5.600590975955129">
        <ele>356.31</ele>
        <time>2025-04-29T11:30:18Z</time>
      </trkpt>
      <trkpt lat="43.304812973365188" lon="-5.600588964298368">
        <ele>356.79000000000002</ele>
        <time>2025-04-29T11:30:19Z</time>
      </trkpt>
      <trkpt lat="43.305015983060002" lon="-5.600602962076664">
        <ele>357.75</ele>
        <time>2025-04-29T11:30:20Z</time>
      </trkpt>
      <trkpt lat="43.305227961391211" lon="-5.600670017302036">
        <ele>358.23000000000002</ele>
        <time>2025-04-29T11:30:21Z</time>
      </trkpt>
      <trkpt lat="43.305437006056309" lon="-5.600735982879996">
        <ele>358.70999999999998</ele>
        <time>2025-04-29T11:30:22Z</time>
      </trkpt>
      <trkpt lat="43.305631969124079" lon="-5.600838996469975">
        <ele>359.19</ele>
        <time>2025-04-29T11:30:23Z</time>
      </trkpt>
      <trkpt lat="43.305823998525739" lon="-5.600952990353108">
        <ele>359.67000000000002</ele>
        <time>2025-04-29T11:30:24Z</time>
      </trkpt>
      <trkpt lat="43.306559007614851" lon="-5.601369990035892">
        <ele>361.58999999999997</ele>
        <time>2025-04-29T11:30:28Z</time>
      </trkpt>
      <trkpt lat="43.30675195902586" lon="-5.601420029997826">
        <ele>362.06999999999999</ele>
        <time>2025-04-29T11:30:29Z</time>
      </trkpt>
      <trkpt lat="43.308136984705925" lon="-5.601557996124029">
        <ele>366.88</ele>
        <time>2025-04-29T11:30:36Z</time>
      </trkpt>
      <trkpt lat="43.310090973973274" lon="-5.601542992517352">
        <ele>371.20999999999998</ele>
        <time>2025-04-29T11:30:45Z</time>
      </trkpt>
      <trkpt lat="43.310306975618005" lon="-5.601504016667604">
        <ele>371.20999999999998</ele>
        <time>2025-04-29T11:30:46Z</time>
      </trkpt>
      <trkpt lat="43.312345035374165" lon="-5.600727014243603">
        <ele>372.17000000000002</ele>
        <time>2025-04-29T11:30:55Z</time>
      </trkpt>
      <trkpt lat="43.313181968405843" lon="-5.600217981263995">
        <ele>373.13</ele>
        <time>2025-04-29T11:30:59Z</time>
      </trkpt>
      <trkpt lat="43.31336704082787" lon="-5.600051013752818">
        <ele>373.61000000000001</ele>
        <time>2025-04-29T11:31:00Z</time>
      </trkpt>
      <trkpt lat="43.313919994980097" lon="-5.599627979099751">
        <ele>375.52999999999997</ele>
        <time>2025-04-29T11:31:03Z</time>
      </trkpt>
      <trkpt lat="43.31409802660346" lon="-5.599499987438321">
        <ele>376.49000000000001</ele>
        <time>2025-04-29T11:31:04Z</time>
      </trkpt>
      <trkpt lat="43.316489970311522" lon="-5.598089983686805">
        <ele>390.43000000000001</ele>
        <time>2025-04-29T11:31:17Z</time>
      </trkpt>
      <trkpt lat="43.319123983383179" lon="-5.5964479688555">
        <ele>407.74000000000001</ele>
        <time>2025-04-29T11:31:31Z</time>
      </trkpt>
      <trkpt lat="43.319306960329413" lon="-5.596289969980717">
        <ele>408.22000000000003</ele>
        <time>2025-04-29T11:31:32Z</time>
      </trkpt>
      <trkpt lat="43.319455990567803" lon="-5.59608100913465">
        <ele>408.69999999999999</ele>
        <time>2025-04-29T11:31:33Z</time>
      </trkpt>
      <trkpt lat="43.319602003321052" lon="-5.595875987783074">
        <ele>409.66000000000003</ele>
        <time>2025-04-29T11:31:34Z</time>
      </trkpt>
      <trkpt lat="43.319712979719043" lon="-5.595632996410132">
        <ele>410.13999999999999</ele>
        <time>2025-04-29T11:31:35Z</time>
      </trkpt>
      <trkpt lat="43.319816999137402" lon="-5.595381036400795">
        <ele>410.13999999999999</ele>
        <time>2025-04-29T11:31:36Z</time>
      </trkpt>
      <trkpt lat="43.319928981363773" lon="-5.595109965652227">
        <ele>410.62</ele>
        <time>2025-04-29T11:31:37Z</time>
      </trkpt>
      <trkpt lat="43.319994024932384" lon="-5.594851970672607">
        <ele>411.10000000000002</ele>
        <time>2025-04-29T11:31:38Z</time>
      </trkpt>
      <trkpt lat="43.320063007995486" lon="-5.594592969864607">
        <ele>411.57999999999998</ele>
        <time>2025-04-29T11:31:39Z</time>
      </trkpt>
      <trkpt lat="43.320345981046557" lon="-5.593544980511069">
        <ele>413.5</ele>
        <time>2025-04-29T11:31:43Z</time>
      </trkpt>
      <trkpt lat="43.320450000464916" lon="-5.59330802410841">
        <ele>413.5</ele>
        <time>2025-04-29T11:31:44Z</time>
      </trkpt>
      <trkpt lat="43.320560976862907" lon="-5.593075007200241">
        <ele>413.98000000000002</ele>
        <time>2025-04-29T11:31:45Z</time>
      </trkpt>
      <trkpt lat="43.320704977959394" lon="-5.592873003333807">
        <ele>413.98000000000002</ele>
        <time>2025-04-29T11:31:46Z</time>
      </trkpt>
      <trkpt lat="43.320849984884262" lon="-5.592679968103766">
        <ele>413.98000000000002</ele>
        <time>2025-04-29T11:31:47Z</time>
      </trkpt>
      <trkpt lat="43.321009995415807" lon="-5.592511994764209">
        <ele>413.98000000000002</ele>
        <time>2025-04-29T11:31:48Z</time>
      </trkpt>
      <trkpt lat="43.321177968755364" lon="-5.592353995889425">
        <ele>414.47000000000003</ele>
        <time>2025-04-29T11:31:49Z</time>
      </trkpt>
      <trkpt lat="43.321348959580064" lon="-5.592221980914474">
        <ele>414.47000000000003</ele>
        <time>2025-04-29T11:31:50Z</time>
      </trkpt>
      <trkpt lat="43.32153101451695" lon="-5.592111004516482">
        <ele>414.94999999999999</ele>
        <time>2025-04-29T11:31:51Z</time>
      </trkpt>
      <trkpt lat="43.321716003119946" lon="-5.592010002583265">
        <ele>415.43000000000001</ele>
        <time>2025-04-29T11:31:52Z</time>
      </trkpt>
      <trkpt lat="43.322517983615398" lon="-5.591647988185287">
        <ele>417.35000000000002</ele>
        <time>2025-04-29T11:31:57Z</time>
      </trkpt>
      <trkpt lat="43.327631028369069" lon="-5.589346988126636">
        <ele>417.35000000000002</ele>
        <time>2025-04-29T11:32:27Z</time>
      </trkpt>
      <trkpt lat="43.328496962785721" lon="-5.588988997042179">
        <ele>409.18000000000001</ele>
        <time>2025-04-29T11:32:33Z</time>
      </trkpt>
      <trkpt lat="43.328883033245802" lon="-5.588934011757374">
        <ele>413.98000000000002</ele>
        <time>2025-04-29T11:32:35Z</time>
      </trkpt>
      <trkpt lat="43.330260012298822" lon="-5.589221008121967">
        <ele>413.98000000000002</ele>
        <time>2025-04-29T11:32:36Z</time>
      </trkpt>
      <trkpt lat="43.331623999401927" lon="-5.589499035850167">
        <ele>412.54000000000002</ele>
        <time>2025-04-29T11:32:43Z</time>
      </trkpt>
      <trkpt lat="43.331829020753503" lon="-5.589488977566361">
        <ele>413.01999999999998</ele>
        <time>2025-04-29T11:32:44Z</time>
      </trkpt>
      <trkpt lat="43.332033036276698" lon="-5.589423011988401">
        <ele>413.5</ele>
        <time>2025-04-29T11:32:45Z</time>
      </trkpt>
      <trkpt lat="43.332203021273017" lon="-5.589358974248171">
        <ele>413.98000000000002</ele>
        <time>2025-04-29T11:32:46Z</time>
      </trkpt>
      <trkpt lat="43.332435032352805" lon="-5.589250009506941">
        <ele>414.94999999999999</ele>
        <time>2025-04-29T11:32:47Z</time>
      </trkpt>
      <trkpt lat="43.332633012905717" lon="-5.589146995916963">
        <ele>414.94999999999999</ele>
        <time>2025-04-29T11:32:48Z</time>
      </trkpt>
      <trkpt lat="43.332819007337093" lon="-5.58901104144752">
        <ele>414.47000000000003</ele>
        <time>2025-04-29T11:32:49Z</time>
      </trkpt>
      <trkpt lat="43.333001984283328" lon="-5.588868968188763">
        <ele>413.98000000000002</ele>
        <time>2025-04-29T11:32:50Z</time>
      </trkpt>
      <trkpt lat="43.333166018128395" lon="-5.588702000677586">
        <ele>412.54000000000002</ele>
        <time>2025-04-29T11:32:51Z</time>
      </trkpt>
      <trkpt lat="43.333319993689656" lon="-5.588526986539364">
        <ele>411.57999999999998</ele>
        <time>2025-04-29T11:32:52Z</time>
      </trkpt>
      <trkpt lat="43.333453014492989" lon="-5.588318025693297">
        <ele>411.10000000000002</ele>
        <time>2025-04-29T11:32:53Z</time>
      </trkpt>
      <trkpt lat="43.333577988669276" lon="-5.588099006563425">
        <ele>410.62</ele>
        <time>2025-04-29T11:32:54Z</time>
      </trkpt>
      <trkpt lat="43.333704974502325" lon="-5.58787495829165">
        <ele>410.13999999999999</ele>
        <time>2025-04-29T11:32:55Z</time>
      </trkpt>
      <trkpt lat="43.333828020840883" lon="-5.587645964697003">
        <ele>409.66000000000003</ele>
        <time>2025-04-29T11:32:56Z</time>
      </trkpt>
      <trkpt lat="43.33485203795135" lon="-5.585025027394295">
        <ele>404.37</ele>
        <time>2025-04-29T11:33:06Z</time>
      </trkpt>
      <trkpt lat="43.336279978975654" lon="-5.581352999433875">
        <ele>393.31999999999999</ele>
        <time>2025-04-29T11:33:19Z</time>
      </trkpt>
      <trkpt lat="43.336761016398668" lon="-5.580338034778833">
        <ele>388.02999999999997</ele>
        <time>2025-04-29T11:33:23Z</time>
      </trkpt>
      <trkpt lat="43.336899988353252" lon="-5.580114992335439">
        <ele>386.58999999999997</ele>
        <time>2025-04-29T11:33:24Z</time>
      </trkpt>
      <trkpt lat="43.337070979177952" lon="-5.579941989853978">
        <ele>385.14999999999998</ele>
        <time>2025-04-29T11:33:25Z</time>
      </trkpt>
      <trkpt lat="43.337243981659412" lon="-5.579768987372518">
        <ele>383.69999999999999</ele>
        <time>2025-04-29T11:33:26Z</time>
      </trkpt>
      <trkpt lat="43.337414972484112" lon="-5.579604031518102">
        <ele>382.25999999999999</ele>
        <time>2025-04-29T11:33:27Z</time>
      </trkpt>
      <trkpt lat="43.33760398440063" lon="-5.579475034028292">
        <ele>380.81999999999999</ele>
        <time>2025-04-29T11:33:28Z</time>
      </trkpt>
      <trkpt lat="43.337795007973909" lon="-5.579345030710101">
        <ele>379.86000000000001</ele>
        <time>2025-04-29T11:33:29Z</time>
      </trkpt>
      <trkpt lat="43.337992988526821" lon="-5.579258026555181">
        <ele>378.89999999999998</ele>
        <time>2025-04-29T11:33:30Z</time>
      </trkpt>
      <trkpt lat="43.338200021535158" lon="-5.579196000471711">
        <ele>377.94</ele>
        <time>2025-04-29T11:33:31Z</time>
      </trkpt>
      <trkpt lat="43.338407976552844" lon="-5.579132968559861">
        <ele>376.97000000000003</ele>
        <time>2025-04-29T11:33:32Z</time>
      </trkpt>
      <trkpt lat="43.338617021217942" lon="-5.579102039337158">
        <ele>376.00999999999999</ele>
        <time>2025-04-29T11:33:33Z</time>
      </trkpt>
      <trkpt lat="43.338835034519434" lon="-5.579102039337158">
        <ele>375.05000000000001</ele>
        <time>2025-04-29T11:33:34Z</time>
      </trkpt>
      <trkpt lat="43.339053969830275" lon="-5.579102039337158">
        <ele>374.08999999999997</ele>
        <time>2025-04-29T11:33:35Z</time>
      </trkpt>
      <trkpt lat="43.339269971475005" lon="-5.579161969944835">
        <ele>373.13</ele>
        <time>2025-04-29T11:33:36Z</time>
      </trkpt>
      <trkpt lat="43.339487984776497" lon="-5.579226007685065">
        <ele>371.69</ele>
        <time>2025-04-29T11:33:37Z</time>
      </trkpt>
      <trkpt lat="43.339701974764466" lon="-5.579304965212941">
        <ele>370.73000000000002</ele>
        <time>2025-04-29T11:33:38Z</time>
      </trkpt>
      <trkpt lat="43.3399039786309" lon="-5.579423988237977">
        <ele>369.27999999999997</ele>
        <time>2025-04-29T11:33:39Z</time>
      </trkpt>
      <trkpt lat="43.340101959183812" lon="-5.579528007656336">
        <ele>368.31999999999999</ele>
        <time>2025-04-29T11:33:40Z</time>
      </trkpt>
      <trkpt lat="43.340292982757092" lon="-5.579631021246314">
        <ele>367.36000000000001</ele>
        <time>2025-04-29T11:33:41Z</time>
      </trkpt>
      <trkpt lat="43.341295961290598" lon="-5.580689990893006">
        <ele>358.70999999999998</ele>
        <time>2025-04-29T11:33:48Z</time>
      </trkpt>
      <trkpt lat="43.341666022315621" lon="-5.581183014437556">
        <ele>353.89999999999998</ele>
        <time>2025-04-29T11:33:52Z</time>
      </trkpt>
      <trkpt lat="43.341795019805431" lon="-5.581216039136052">
        <ele>352.45999999999998</ele>
        <time>2025-04-29T11:33:53Z</time>
      </trkpt>
      <trkpt lat="43.341837013140321" lon="-5.581226013600826">
        <ele>351.5</ele>
        <time>2025-04-29T11:33:54Z</time>
      </trkpt>
      <trkpt lat="43.34196500480175" lon="-5.58117002248764">
        <ele>350.54000000000002</ele>
        <time>2025-04-29T11:33:55Z</time>
      </trkpt>
      <trkpt lat="43.342039017006755" lon="-5.581130962818861">
        <ele>350.06</ele>
        <time>2025-04-29T11:33:56Z</time>
      </trkpt>
      <trkpt lat="43.342117974534631" lon="-5.581035995855928">
        <ele>349.10000000000002</ele>
        <time>2025-04-29T11:33:57Z</time>
      </trkpt>
      <trkpt lat="43.342167008668184" lon="-5.580929964780808">
        <ele>348.13</ele>
        <time>2025-04-29T11:33:58Z</time>
      </trkpt>
      <trkpt lat="43.342216964811087" lon="-5.58078596368432">
        <ele>347.64999999999998</ele>
        <time>2025-04-29T11:33:59Z</time>
      </trkpt>
      <trkpt lat="43.34228795953095" lon="-5.580583037808538">
        <ele>346.69</ele>
        <time>2025-04-29T11:34:00Z</time>
      </trkpt>
      <trkpt lat="43.342238003388047" lon="-5.580453034490347">
        <ele>346.20999999999998</ele>
        <time>2025-04-29T11:34:01Z</time>
      </trkpt>
      <trkpt lat="43.3421800006181" lon="-5.580300986766815">
        <ele>345.73000000000002</ele>
        <time>2025-04-29T11:34:02Z</time>
      </trkpt>
      <trkpt lat="43.342120992019773" lon="-5.580148017033935">
        <ele>345.73000000000002</ele>
        <time>2025-04-29T11:34:03Z</time>
      </trkpt>
      <trkpt lat="43.342019990086555" lon="-5.579982977360487">
        <ele>345.25</ele>
        <time>2025-04-29T11:34:04Z</time>
      </trkpt>
      <trkpt lat="43.34189903922379" lon="-5.579888010397553">
        <ele>345.25</ele>
        <time>2025-04-29T11:34:05Z</time>
      </trkpt>
      <trkpt lat="43.341766018420458" lon="-5.579787008464336">
        <ele>344.76999999999998</ele>
        <time>2025-04-29T11:34:06Z</time>
      </trkpt>
      <trkpt lat="43.34162000566721" lon="-5.579746020957828">
        <ele>344.29000000000002</ele>
        <time>2025-04-29T11:34:07Z</time>
      </trkpt>
      <trkpt lat="43.341473992913961" lon="-5.579705033451319">
        <ele>344.29000000000002</ele>
        <time>2025-04-29T11:34:08Z</time>
      </trkpt>
      <trkpt lat="43.341060010716319" lon="-5.579582992941141">
        <ele>344.76999999999998</ele>
        <time>2025-04-29T11:34:11Z</time>
      </trkpt>
      <trkpt lat="43.340930007398129" lon="-5.579522978514433">
        <ele>344.29000000000002</ele>
        <time>2025-04-29T11:34:12Z</time>
      </trkpt>
      <trkpt lat="43.34080696105957" lon="-5.579466987401247">
        <ele>344.29000000000002</ele>
        <time>2025-04-29T11:34:13Z</time>
      </trkpt>
      <trkpt lat="43.340708976611495" lon="-5.579355005174875">
        <ele>343.81</ele>
        <time>2025-04-29T11:34:14Z</time>
      </trkpt>
      <trkpt lat="43.34061099216342" lon="-5.579243022948504">
        <ele>342.85000000000002</ele>
        <time>2025-04-29T11:34:15Z</time>
      </trkpt>
      <trkpt lat="43.340509990230203" lon="-5.579130034893751">
        <ele>342.37</ele>
        <time>2025-04-29T11:34:16Z</time>
      </trkpt>
      <trkpt lat="43.340410999953747" lon="-5.579016041010618">
        <ele>341.41000000000003</ele>
        <time>2025-04-29T11:34:17Z</time>
      </trkpt>
      <trkpt lat="43.340313015505672" lon="-5.578900035470724">
        <ele>340.44</ele>
        <time>2025-04-29T11:34:18Z</time>
      </trkpt>
      <trkpt lat="43.339203000068665" lon="-5.577639983966947">
        <ele>329.38999999999999</ele>
        <time>2025-04-29T11:34:29Z</time>
      </trkpt>
      <trkpt lat="43.338692961260676" lon="-5.577338989824057">
        <ele>326.01999999999998</ele>
        <time>2025-04-29T11:34:34Z</time>
      </trkpt>
      <trkpt lat="43.338604029268026" lon="-5.577306970953941">
        <ele>326.01999999999998</ele>
        <time>2025-04-29T11:34:35Z</time>
      </trkpt>
      <trkpt lat="43.338447036221623" lon="-5.577320968732238">
        <ele>325.54000000000002</ele>
        <time>2025-04-29T11:34:36Z</time>
      </trkpt>
      <trkpt lat="43.338434966281056" lon="-5.577331027016044">
        <ele>325.06</ele>
        <time>2025-04-29T11:34:37Z</time>
      </trkpt>
      <trkpt lat="43.338379980996251" lon="-5.577375032007694">
        <ele>324.57999999999998</ele>
        <time>2025-04-29T11:34:38Z</time>
      </trkpt>
      <trkpt lat="43.338324995711446" lon="-5.577402021735907">
        <ele>324.10000000000002</ele>
        <time>2025-04-29T11:34:39Z</time>
      </trkpt>
      <trkpt lat="43.338249977678061" lon="-5.577376959845424">
        <ele>324.10000000000002</ele>
        <time>2025-04-29T11:34:40Z</time>
      </trkpt>
      <trkpt lat="43.338211001828313" lon="-5.577363967895508">
        <ele>323.62</ele>
        <time>2025-04-29T11:34:41Z</time>
      </trkpt>
      <trkpt lat="43.338084015995264" lon="-5.577350975945592">
        <ele>323.13999999999999</ele>
        <time>2025-04-29T11:34:42Z</time>
      </trkpt>
      <trkpt lat="43.338010003790259" lon="-5.577403027564287">
        <ele>323.13999999999999</ele>
        <time>2025-04-29T11:34:43Z</time>
      </trkpt>
      <trkpt lat="43.337911013513803" lon="-5.577471004799008">
        <ele>323.62</ele>
        <time>2025-04-29T11:34:44Z</time>
      </trkpt>
      <trkpt lat="43.337858961895108" lon="-5.577576030045748">
        <ele>324.10000000000002</ele>
        <time>2025-04-29T11:34:45Z</time>
      </trkpt>
      <trkpt lat="43.337801964953542" lon="-5.57768801227212">
        <ele>325.06</ele>
        <time>2025-04-29T11:34:46Z</time>
      </trkpt>
      <trkpt lat="43.337742034345865" lon="-5.577808963134885">
        <ele>326.01999999999998</ele>
        <time>2025-04-29T11:34:47Z</time>
      </trkpt>
      <trkpt lat="43.337674979120493" lon="-5.577922035008669">
        <ele>326.99000000000001</ele>
        <time>2025-04-29T11:34:48Z</time>
      </trkpt>
      <trkpt lat="43.337576994672418" lon="-5.578023036941886">
        <ele>327.94999999999999</ele>
        <time>2025-04-29T11:34:49Z</time>
      </trkpt>
      <trkpt lat="43.336874004453421" lon="-5.578742036595941">
        <ele>335.16000000000003</ele>
        <time>2025-04-29T11:34:55Z</time>
      </trkpt>
      <trkpt lat="43.336584996432066" lon="-5.578942028805614">
        <ele>337.56</ele>
        <time>2025-04-29T11:34:57Z</time>
      </trkpt>
      <trkpt lat="43.336450969800353" lon="-5.579033978283405">
        <ele>338.51999999999998</ele>
        <time>2025-04-29T11:34:58Z</time>
      </trkpt>
      <trkpt lat="43.336319960653782" lon="-5.579123999923468">
        <ele>339.48000000000002</ele>
        <time>2025-04-29T11:34:59Z</time>
      </trkpt>
      <trkpt lat="43.335959035903215" lon="-5.579404039308429">
        <ele>341.41000000000003</ele>
        <time>2025-04-29T11:35:02Z</time>
      </trkpt>
      <trkpt lat="43.335892986506224" lon="-5.579546028748155">
        <ele>342.37</ele>
        <time>2025-04-29T11:35:03Z</time>
      </trkpt>
      <trkpt lat="43.335850993171334" lon="-5.579720959067345">
        <ele>342.85000000000002</ele>
        <time>2025-04-29T11:35:04Z</time>
      </trkpt>
      <trkpt lat="43.335850993171334" lon="-5.579917011782527">
        <ele>343.81</ele>
        <time>2025-04-29T11:35:05Z</time>
      </trkpt>
      <trkpt lat="43.335812017321587" lon="-5.580072999000549">
        <ele>344.76999999999998</ele>
        <time>2025-04-29T11:35:06Z</time>
      </trkpt>
      <trkpt lat="43.335766000673175" lon="-5.580257987603545">
        <ele>345.25</ele>
        <time>2025-04-29T11:35:07Z</time>
      </trkpt>
      <trkpt lat="43.335721995681524" lon="-5.580431995913386">
        <ele>345.73000000000002</ele>
        <time>2025-04-29T11:35:08Z</time>
      </trkpt>
      <trkpt lat="43.335659969598055" lon="-5.580602986738086">
        <ele>346.20999999999998</ele>
        <time>2025-04-29T11:35:09Z</time>
      </trkpt>
      <trkpt lat="43.335575982928276" lon="-5.580748999491334">
        <ele>347.17000000000002</ele>
        <time>2025-04-29T11:35:10Z</time>
      </trkpt>
      <trkpt lat="43.335469029843807" lon="-5.580893000587821">
        <ele>347.64999999999998</ele>
        <time>2025-04-29T11:35:11Z</time>
      </trkpt>
      <trkpt lat="43.335078014060855" lon="-5.581419970840216">
        <ele>350.06</ele>
        <time>2025-04-29T11:35:15Z</time>
      </trkpt>
      <trkpt lat="43.335039038211107" lon="-5.581592973321676">
        <ele>350.54000000000002</ele>
        <time>2025-04-29T11:35:16Z</time>
      </trkpt>
      <trkpt lat="43.335008025169373" lon="-5.581731023266912">
        <ele>351.5</ele>
        <time>2025-04-29T11:35:17Z</time>
      </trkpt>
      <trkpt lat="43.334979023784399" lon="-5.58185800909996">
        <ele>351.98000000000002</ele>
        <time>2025-04-29T11:35:18Z</time>
      </trkpt>
      <trkpt lat="43.335010958835483" lon="-5.582016007974744">
        <ele>352.94</ele>
        <time>2025-04-29T11:35:19Z</time>
      </trkpt>
      <trkpt lat="43.335010958835483" lon="-5.582347009330988">
        <ele>354.86000000000001</ele>
        <time>2025-04-29T11:35:21Z</time>
      </trkpt>
      <trkpt lat="43.335070973262191" lon="-5.582675999030471">
        <ele>356.79000000000002</ele>
        <time>2025-04-29T11:35:23Z</time>
      </trkpt>
      <trkpt lat="43.335013976320624" lon="-5.582770965993404">
        <ele>357.75</ele>
        <time>2025-04-29T11:35:24Z</time>
      </trkpt>
      <trkpt lat="43.33491800352931" lon="-5.58284598402679">
        <ele>358.70999999999998</ele>
        <time>2025-04-29T11:35:25Z</time>
      </trkpt>
      <trkpt lat="43.33481197245419" lon="-5.582940028980374">
        <ele>360.14999999999998</ele>
        <time>2025-04-29T11:35:26Z</time>
      </trkpt>
      <trkpt lat="43.334739971905947" lon="-5.583095010370016">
        <ele>361.11000000000001</ele>
        <time>2025-04-29T11:35:27Z</time>
      </trkpt>
      <trkpt lat="43.334663026034832" lon="-5.583258038386703">
        <ele>362.55000000000001</ele>
        <time>2025-04-29T11:35:28Z</time>
      </trkpt>
      <trkpt lat="43.334367983043194" lon="-5.583888022229075">
        <ele>367.36000000000001</ele>
        <time>2025-04-29T11:35:32Z</time>
      </trkpt>
      <trkpt lat="43.334341999143362" lon="-5.58402699418366">
        <ele>368.80000000000001</ele>
        <time>2025-04-29T11:35:33Z</time>
      </trkpt>
      <trkpt lat="43.334332024678588" lon="-5.584160014986992">
        <ele>370.24000000000001</ele>
        <time>2025-04-29T11:35:34Z</time>
      </trkpt>
      <trkpt lat="43.334274021908641" lon="-5.584279038012028">
        <ele>371.20999999999998</ele>
        <time>2025-04-29T11:35:35Z</time>
      </trkpt>
      <trkpt lat="43.334182994440198" lon="-5.584362018853426">
        <ele>371.69</ele>
        <time>2025-04-29T11:35:36Z</time>
      </trkpt>
      <trkpt lat="43.334084004163742" lon="-5.584468971937895">
        <ele>372.64999999999998</ele>
        <time>2025-04-29T11:35:37Z</time>
      </trkpt>
      <trkpt lat="43.334035975858569" lon="-5.584621019661427">
        <ele>373.61000000000001</ele>
        <time>2025-04-29T11:35:38Z</time>
      </trkpt>
      <trkpt lat="43.333981996402144" lon="-5.584791004657745">
        <ele>374.56999999999999</ele>
        <time>2025-04-29T11:35:39Z</time>
      </trkpt>
      <trkpt lat="43.33395098336041" lon="-5.58499300852418">
        <ele>376.00999999999999</ele>
        <time>2025-04-29T11:35:40Z</time>
      </trkpt>
      <trkpt lat="43.333932962268591" lon="-5.585195012390614">
        <ele>377.44999999999999</ele>
        <time>2025-04-29T11:35:41Z</time>
      </trkpt>
      <trkpt lat="43.333877976983786" lon="-5.585920969024301">
        <ele>382.25999999999999</ele>
        <time>2025-04-29T11:35:45Z</time>
      </trkpt>
      <trkpt lat="43.333887029439211" lon="-5.586239984259009">
        <ele>384.18000000000001</ele>
        <time>2025-04-29T11:35:47Z</time>
      </trkpt>
      <trkpt lat="43.333897003903985" lon="-5.586564028635621">
        <ele>385.63</ele>
        <time>2025-04-29T11:35:49Z</time>
      </trkpt>
      <trkpt lat="43.333863979205489" lon="-5.586680034175515">
        <ele>386.11000000000001</ele>
        <time>2025-04-29T11:35:50Z</time>
      </trkpt>
      <trkpt lat="43.3338029589504" lon="-5.586802996695042">
        <ele>386.58999999999997</ele>
        <time>2025-04-29T11:35:51Z</time>
      </trkpt>
      <trkpt lat="43.33373699337244" lon="-5.586934005841613">
        <ele>387.55000000000001</ele>
        <time>2025-04-29T11:35:52Z</time>
      </trkpt>
      <trkpt lat="43.333684019744396" lon="-5.587040958926082">
        <ele>388.02999999999997</ele>
        <time>2025-04-29T11:35:53Z</time>
      </trkpt>
      <trkpt lat="43.333724001422524" lon="-5.587242040783167">
        <ele>388.99000000000001</ele>
        <time>2025-04-29T11:35:54Z</time>
      </trkpt>
      <trkpt lat="43.333755014464259" lon="-5.587397022172809">
        <ele>389.47000000000003</ele>
        <time>2025-04-29T11:35:55Z</time>
      </trkpt>
      <trkpt lat="43.333788039162755" lon="-5.587566001340747">
        <ele>389.94999999999999</ele>
        <time>2025-04-29T11:35:56Z</time>
      </trkpt>
      <trkpt lat="43.333812011405826" lon="-5.587899014353752">
        <ele>390.43000000000001</ele>
        <time>2025-04-29T11:35:58Z</time>
      </trkpt>
      <trkpt lat="43.333759037777781" lon="-5.588061958551407">
        <ele>390.91000000000003</ele>
        <time>2025-04-29T11:35:59Z</time>
      </trkpt>
      <trkpt lat="43.333652000874281" lon="-5.588364964351058">
        <ele>392.83999999999997</ele>
        <time>2025-04-29T11:36:01Z</time>
      </trkpt>
      <trkpt lat="43.333641020581126" lon="-5.588565040379763">
        <ele>393.80000000000001</ele>
        <time>2025-04-29T11:36:02Z</time>
      </trkpt>
      <trkpt lat="43.333669016137719" lon="-5.588708035647869">
        <ele>394.75999999999999</ele>
        <time>2025-04-29T11:36:03Z</time>
      </trkpt>
      <trkpt lat="43.333704974502325" lon="-5.588885983452201">
        <ele>395.24000000000001</ele>
        <time>2025-04-29T11:36:04Z</time>
      </trkpt>
      <trkpt lat="43.333758031949401" lon="-5.589072983711958">
        <ele>396.19999999999999</ele>
        <time>2025-04-29T11:36:05Z</time>
      </trkpt>
      <trkpt lat="43.333937991410494" lon="-5.589582016691566">
        <ele>398.12</ele>
        <time>2025-04-29T11:36:08Z</time>
      </trkpt>
      <trkpt lat="43.3339290227741" lon="-5.589746972545981">
        <ele>399.07999999999998</ele>
        <time>2025-04-29T11:36:09Z</time>
      </trkpt>
      <trkpt lat="43.333921981975436" lon="-5.589874964207411">
        <ele>400.05000000000001</ele>
        <time>2025-04-29T11:36:10Z</time>
      </trkpt>
      <trkpt lat="43.333958024159074" lon="-5.590048972517252">
        <ele>403.41000000000003</ele>
        <time>2025-04-29T11:36:15Z</time>
      </trkpt>
      <trkpt lat="43.333912007510662" lon="-5.590330017730594">
        <ele>404.37</ele>
        <time>2025-04-29T11:36:33Z</time>
      </trkpt>
      <trkpt lat="43.333898009732366" lon="-5.59040998108685">
        <ele>404.37</ele>
        <time>2025-04-29T11:36:34Z</time>
      </trkpt>
      <trkpt lat="43.333954000845551" lon="-5.590533027425408">
        <ele>404.37</ele>
        <time>2025-04-29T11:36:35Z</time>
      </trkpt>
      <trkpt lat="43.33399398252368" lon="-5.590621959418058">
        <ele>403.88999999999999</ele>
        <time>2025-04-29T11:36:36Z</time>
      </trkpt>
      <trkpt lat="43.33403698168695" lon="-5.590716004371643">
        <ele>403.88999999999999</ele>
        <time>2025-04-29T11:36:37Z</time>
      </trkpt>
      <trkpt lat="43.334113005548716" lon="-5.590895041823387">
        <ele>402.44999999999999</ele>
        <time>2025-04-29T11:36:39Z</time>
      </trkpt>
      <trkpt lat="43.334107976406813" lon="-5.591005012392998">
        <ele>401.97000000000003</ele>
        <time>2025-04-29T11:36:40Z</time>
      </trkpt>
      <trkpt lat="43.334072018042207" lon="-5.591125963255763">
        <ele>401.00999999999999</ele>
        <time>2025-04-29T11:36:41Z</time>
      </trkpt>
      <trkpt lat="43.334047961980104" lon="-5.59120399877429">
        <ele>400.05000000000001</ele>
        <time>2025-04-29T11:36:42Z</time>
      </trkpt>
      <trkpt lat="43.333960035815835" lon="-5.59126602485776">
        <ele>399.07999999999998</ele>
        <time>2025-04-29T11:36:43Z</time>
      </trkpt>
      <trkpt lat="43.333894992247224" lon="-5.591312041506171">
        <ele>398.12</ele>
        <time>2025-04-29T11:36:44Z</time>
      </trkpt>
      <trkpt lat="43.333833971992135" lon="-5.591354034841061">
        <ele>397.63999999999999</ele>
        <time>2025-04-29T11:36:45Z</time>
      </trkpt>
      <trkpt lat="43.333788039162755" lon="-5.591308018192649">
        <ele>397.16000000000003</ele>
        <time>2025-04-29T11:36:46Z</time>
      </trkpt>
      <trkpt lat="43.333704974502325" lon="-5.5912259593606">
        <ele>397.16000000000003</ele>
        <time>2025-04-29T11:36:47Z</time>
      </trkpt>
      <trkpt lat="43.333653006702662" lon="-5.591135015711188">
        <ele>396.68000000000001</ele>
        <time>2025-04-29T11:36:48Z</time>
      </trkpt>
      <trkpt lat="43.333590980619192" lon="-5.591025967150927">
        <ele>396.19999999999999</ele>
        <time>2025-04-29T11:36:49Z</time>
      </trkpt>
      <trkpt lat="43.333525015041232" lon="-5.590909961611033">
        <ele>395.24000000000001</ele>
        <time>2025-04-29T11:36:50Z</time>
      </trkpt>
      <trkpt lat="43.333451002836227" lon="-5.590781969949603">
        <ele>394.75999999999999</ele>
        <time>2025-04-29T11:36:51Z</time>
      </trkpt>
      <trkpt lat="43.333408003672957" lon="-5.590620031580329">
        <ele>393.80000000000001</ele>
        <time>2025-04-29T11:36:52Z</time>
      </trkpt>
      <trkpt lat="43.333363998681307" lon="-5.590449962764978">
        <ele>392.83999999999997</ele>
        <time>2025-04-29T11:36:53Z</time>
      </trkpt>
      <trkpt lat="43.333318987861276" lon="-5.590275032445788">
        <ele>391.87</ele>
        <time>2025-04-29T11:36:54Z</time>
      </trkpt>
      <trkpt lat="43.333273977041245" lon="-5.590099012479186">
        <ele>390.91000000000003</ele>
        <time>2025-04-29T11:36:55Z</time>
      </trkpt>
      <trkpt lat="43.333208011463284" lon="-5.589939001947641">
        <ele>389.94999999999999</ele>
        <time>2025-04-29T11:36:56Z</time>
      </trkpt>
      <trkpt lat="43.33313399925828" lon="-5.589803969487548">
        <ele>388.99000000000001</ele>
        <time>2025-04-29T11:36:57Z</time>
      </trkpt>
      <trkpt lat="43.333055041730404" lon="-5.589684024453163">
        <ele>387.55000000000001</ele>
        <time>2025-04-29T11:36:58Z</time>
      </trkpt>
      <trkpt lat="43.332966025918722" lon="-5.589553015306592">
        <ele>386.58999999999997</ele>
        <time>2025-04-29T11:36:59Z</time>
      </trkpt>
      <trkpt lat="43.332872986793518" lon="-5.589415971189737">
        <ele>385.14999999999998</ele>
        <time>2025-04-29T11:37:00Z</time>
      </trkpt>
      <trkpt lat="43.33261901512742" lon="-5.588993020355701">
        <ele>383.22000000000003</ele>
        <time>2025-04-29T11:37:03Z</time>
      </trkpt>
      <trkpt lat="43.332546008750796" lon="-5.588821023702622">
        <ele>382.74000000000001</ele>
        <time>2025-04-29T11:37:04Z</time>
      </trkpt>
      <trkpt lat="43.33240401931107" lon="-5.588528998196125">
        <ele>381.30000000000001</ele>
        <time>2025-04-29T11:37:06Z</time>
      </trkpt>
      <trkpt lat="43.332333024591208" lon="-5.588430007919669">
        <ele>380.81999999999999</ele>
        <time>2025-04-29T11:37:07Z</time>
      </trkpt>
      <trkpt lat="43.332246020436287" lon="-5.588404024019837">
        <ele>379.86000000000001</ele>
        <time>2025-04-29T11:37:08Z</time>
      </trkpt>
      <trkpt lat="43.332163961604238" lon="-5.588379967957735">
        <ele>379.86000000000001</ele>
        <time>2025-04-29T11:37:09Z</time>
      </trkpt>
      <trkpt lat="43.332138983532786" lon="-5.588372005149722">
        <ele>379.38</ele>
        <time>2025-04-29T11:37:10Z</time>
      </trkpt>
      <trkpt lat="43.332034964114428" lon="-5.588412992656231">
        <ele>378.89999999999998</ele>
        <time>2025-04-29T11:37:11Z</time>
      </trkpt>
      <trkpt lat="43.331947959959507" lon="-5.588448029011488">
        <ele>378.42000000000002</ele>
        <time>2025-04-29T11:37:12Z</time>
      </trkpt>
      <trkpt lat="43.331848969683051" lon="-5.588488010689616">
        <ele>377.94</ele>
        <time>2025-04-29T11:37:13Z</time>
      </trkpt>
      <trkpt lat="43.331745034083724" lon="-5.58851701207459">
        <ele>378.42000000000002</ele>
        <time>2025-04-29T11:37:14Z</time>
      </trkpt>
      <trkpt lat="43.331639003008604" lon="-5.58853997848928">
        <ele>378.42000000000002</ele>
        <time>2025-04-29T11:37:15Z</time>
      </trkpt>
      <trkpt lat="43.331415960565209" lon="-5.588590018451214">
        <ele>379.86000000000001</ele>
        <time>2025-04-29T11:37:17Z</time>
      </trkpt>
      <trkpt lat="43.331291992217302" lon="-5.588617008179426">
        <ele>380.81999999999999</ele>
        <time>2025-04-29T11:37:18Z</time>
      </trkpt>
      <trkpt lat="43.331172969192266" lon="-5.588651960715652">
        <ele>382.25999999999999</ele>
        <time>2025-04-29T11:37:19Z</time>
      </trkpt>
      <trkpt lat="43.331061992794275" lon="-5.588691020384431">
        <ele>383.22000000000003</ele>
        <time>2025-04-29T11:37:20Z</time>
      </trkpt>
      <trkpt lat="43.330967025831342" lon="-5.588723961263895">
        <ele>384.66000000000003</ele>
        <time>2025-04-29T11:37:21Z</time>
      </trkpt>
      <trkpt lat="43.330853031948209" lon="-5.588764026761055">
        <ele>386.58999999999997</ele>
        <time>2025-04-29T11:37:23Z</time>
      </trkpt>
      <trkpt lat="43.330802991986275" lon="-5.588756985962391">
        <ele>388.02999999999997</ele>
        <time>2025-04-29T11:37:24Z</time>
      </trkpt>
      <trkpt lat="43.330786982551217" lon="-5.588694037869573">
        <ele>389.47000000000003</ele>
        <time>2025-04-29T11:37:25Z</time>
      </trkpt>
      <trkpt lat="43.330822018906474" lon="-5.588595969602466">
        <ele>390.43000000000001</ele>
        <time>2025-04-29T11:37:26Z</time>
      </trkpt>
      <trkpt lat="43.330864012241364" lon="-5.588480969890952">
        <ele>391.87</ele>
        <time>2025-04-29T11:37:27Z</time>
      </trkpt>
      <trkpt lat="43.330940958112478" lon="-5.58838902041316">
        <ele>393.31999999999999</ele>
        <time>2025-04-29T11:37:28Z</time>
      </trkpt>
      <trkpt lat="43.331025028601289" lon="-5.588305033743382">
        <ele>394.75999999999999</ele>
        <time>2025-04-29T11:37:29Z</time>
      </trkpt>
      <trkpt lat="43.331112032756209" lon="-5.588218029588461">
        <ele>397.16000000000003</ele>
        <time>2025-04-29T11:37:30Z</time>
      </trkpt>
      <trkpt lat="43.331452002748847" lon="-5.587877975776792">
        <ele>405.32999999999998</ele>
        <time>2025-04-29T11:37:34Z</time>
      </trkpt>
      <trkpt lat="43.33152299746871" lon="-5.587736992165446">
        <ele>407.74000000000001</ele>
        <time>2025-04-29T11:37:35Z</time>
      </trkpt>
      <trkpt lat="43.331703040748835" lon="-5.587374977767468">
        <ele>414.47000000000003</ele>
        <time>2025-04-29T11:37:38Z</time>
      </trkpt>
      <trkpt lat="43.33178099244833" lon="-5.58710097335279">
        <ele>419.26999999999998</ele>
        <time>2025-04-29T11:37:40Z</time>
      </trkpt>
      <trkpt lat="43.331812005490065" lon="-5.586964013054967">
        <ele>421.68000000000001</ele>
        <time>2025-04-29T11:37:41Z</time>
      </trkpt>
      <trkpt lat="43.33184503018856" lon="-5.586822023615241">
        <ele>423.60000000000002</ele>
        <time>2025-04-29T11:37:42Z</time>
      </trkpt>
      <trkpt lat="43.331918036565185" lon="-5.586193967610598">
        <ele>430.81</ele>
        <time>2025-04-29T11:37:46Z</time>
      </trkpt>
      <trkpt lat="43.331922981888056" lon="-5.586085002869368">
        <ele>432.25</ele>
        <time>2025-04-29T11:37:47Z</time>
      </trkpt>
      <trkpt lat="43.331857016310096" lon="-5.585981989279389">
        <ele>433.69</ele>
        <time>2025-04-29T11:37:48Z</time>
      </trkpt>
      <trkpt lat="43.331792978569865" lon="-5.585915017873049">
        <ele>435.13</ele>
        <time>2025-04-29T11:37:49Z</time>
      </trkpt>
      <trkpt lat="43.331726007163525" lon="-5.585843017324805">
        <ele>436.10000000000002</ele>
        <time>2025-04-29T11:37:50Z</time>
      </trkpt>
      <trkpt lat="43.331646965816617" lon="-5.585758024826646">
        <ele>437.54000000000002</ele>
        <time>2025-04-29T11:37:51Z</time>
      </trkpt>
      <trkpt lat="43.331585023552179" lon="-5.585635984316468">
        <ele>438.01999999999998</ele>
        <time>2025-04-29T11:37:52Z</time>
      </trkpt>
      <trkpt lat="43.331530038267374" lon="-5.585497012361884">
        <ele>438.98000000000002</ele>
        <time>2025-04-29T11:37:53Z</time>
      </trkpt>
      <trkpt lat="43.331445967778563" lon="-5.585371032357216">
        <ele>439.45999999999998</ele>
        <time>2025-04-29T11:37:54Z</time>
      </trkpt>
      <trkpt lat="43.331346977502108" lon="-5.585287967696786">
        <ele>440.42000000000002</ele>
        <time>2025-04-29T11:37:55Z</time>
      </trkpt>
      <trkpt lat="43.33124496974051" lon="-5.585201969370246">
        <ele>440.89999999999998</ele>
        <time>2025-04-29T11:37:56Z</time>
      </trkpt>
      <trkpt lat="43.331138016656041" lon="-5.585113959386945">
        <ele>441.38</ele>
        <time>2025-04-29T11:37:57Z</time>
      </trkpt>
      <trkpt lat="43.331035003066063" lon="-5.585014969110489">
        <ele>441.38</ele>
        <time>2025-04-29T11:37:58Z</time>
      </trkpt>
      <trkpt lat="43.330479031428695" lon="-5.584537032991648">
        <ele>445.23000000000002</ele>
        <time>2025-04-29T11:38:03Z</time>
      </trkpt>
      <trkpt lat="43.330380041152239" lon="-5.584429996088147">
        <ele>446.19</ele>
        <time>2025-04-29T11:38:04Z</time>
      </trkpt>
      <trkpt lat="43.330284990370274" lon="-5.584332011640072">
        <ele>447.14999999999998</ele>
        <time>2025-04-29T11:38:05Z</time>
      </trkpt>
      <trkpt lat="43.330188011750579" lon="-5.58426302857697">
        <ele>448.58999999999997</ele>
        <time>2025-04-29T11:38:06Z</time>
      </trkpt>
      <trkpt lat="43.330078963190317" lon="-5.584216006100178">
        <ele>449.55000000000001</ele>
        <time>2025-04-29T11:38:07Z</time>
      </trkpt>
      <trkpt lat="43.329974021762609" lon="-5.584191028028727">
        <ele>451</ele>
        <time>2025-04-29T11:38:08Z</time>
      </trkpt>
      <trkpt lat="43.329755002632737" lon="-5.584135036915541">
        <ele>453.39999999999998</ele>
        <time>2025-04-29T11:38:10Z</time>
      </trkpt>
      <trkpt lat="43.32941897213459" lon="-5.584138976410031">
        <ele>456.27999999999997</ele>
        <time>2025-04-29T11:38:13Z</time>
      </trkpt>
      <trkpt lat="43.329305984079838" lon="-5.584145011380315">
        <ele>457.24000000000001</ele>
        <time>2025-04-29T11:38:14Z</time>
      </trkpt>
      <trkpt lat="43.329023011028767" lon="-5.583986006677151">
        <ele>460.13</ele>
        <time>2025-04-29T11:38:17Z</time>
      </trkpt>
      <trkpt lat="43.328952016308904" lon="-5.58394099585712">
        <ele>461.08999999999997</ele>
        <time>2025-04-29T11:38:18Z</time>
      </trkpt>
      <trkpt lat="43.328898036852479" lon="-5.583887016400695">
        <ele>462.05000000000001</ele>
        <time>2025-04-29T11:38:19Z</time>
      </trkpt>
      <trkpt lat="43.328881021589041" lon="-5.58379196561873">
        <ele>463.49000000000001</ele>
        <time>2025-04-29T11:38:20Z</time>
      </trkpt>
      <trkpt lat="43.328907005488873" lon="-5.58372600004077">
        <ele>464.44999999999999</ele>
        <time>2025-04-29T11:38:21Z</time>
      </trkpt>
      <trkpt lat="43.328931983560324" lon="-5.583664979785681">
        <ele>465.42000000000002</ele>
        <time>2025-04-29T11:38:22Z</time>
      </trkpt>
      <trkpt lat="43.328962996602058" lon="-5.583587028086186">
        <ele>466.38</ele>
        <time>2025-04-29T11:38:23Z</time>
      </trkpt>
      <trkpt lat="43.32894598133862" lon="-5.583544028922916">
        <ele>467.33999999999997</ele>
        <time>2025-04-29T11:38:24Z</time>
      </trkpt>
      <trkpt lat="43.328927960246801" lon="-5.583499018102884">
        <ele>468.30000000000001</ele>
        <time>2025-04-29T11:38:25Z</time>
      </trkpt>
      <trkpt lat="43.328856965526938" lon="-5.58351100422442">
        <ele>469.74000000000001</ele>
        <time>2025-04-29T11:38:26Z</time>
      </trkpt>
      <trkpt lat="43.328790999948978" lon="-5.583544028922916">
        <ele>470.69999999999999</ele>
        <time>2025-04-29T11:38:27Z</time>
      </trkpt>
      <trkpt lat="43.328726962208748" lon="-5.58361703529954">
        <ele>472.13999999999999</ele>
        <time>2025-04-29T11:38:28Z</time>
      </trkpt>
      <trkpt lat="43.328654039651155" lon="-5.583701021969318">
        <ele>473.11000000000001</ele>
        <time>2025-04-29T11:38:29Z</time>
      </trkpt>
      <trkpt lat="43.328628977760673" lon="-5.583819961175323">
        <ele>475.02999999999997</ele>
        <time>2025-04-29T11:38:30Z</time>
      </trkpt>
      <trkpt lat="43.328631995245814" lon="-5.583943007513881">
        <ele>476.47000000000003</ele>
        <time>2025-04-29T11:38:31Z</time>
      </trkpt>
      <trkpt lat="43.328678011894226" lon="-5.584066975861788">
        <ele>477.91000000000003</ele>
        <time>2025-04-29T11:38:32Z</time>
      </trkpt>
      <trkpt lat="43.328725034371018" lon="-5.584193961694837">
        <ele>478.87</ele>
        <time>2025-04-29T11:38:33Z</time>
      </trkpt>
      <trkpt lat="43.328800974413753" lon="-5.584325976669788">
        <ele>480.31999999999999</ele>
        <time>2025-04-29T11:38:34Z</time>
      </trkpt>
      <trkpt lat="43.328895019367337" lon="-5.584354978054762">
        <ele>481.27999999999997</ele>
        <time>2025-04-29T11:38:35Z</time>
      </trkpt>
      <trkpt lat="43.328990992158651" lon="-5.584383979439735">
        <ele>481.75999999999999</ele>
        <time>2025-04-29T11:38:36Z</time>
      </trkpt>
      <trkpt lat="43.32907397300005" lon="-5.584453968331218">
        <ele>482.72000000000003</ele>
        <time>2025-04-29T11:38:37Z</time>
      </trkpt>
      <trkpt lat="43.329127030447125" lon="-5.58456402271986">
        <ele>483.68000000000001</ele>
        <time>2025-04-29T11:38:38Z</time>
      </trkpt>
      <trkpt lat="43.329188972711563" lon="-5.584694026038051">
        <ele>484.16000000000003</ele>
        <time>2025-04-29T11:38:39Z</time>
      </trkpt>
      <trkpt lat="43.329305984079838" lon="-5.584939029067755">
        <ele>485.60000000000002</ele>
        <time>2025-04-29T11:38:41Z</time>
      </trkpt>
      <trkpt lat="43.329421989619732" lon="-5.584987979382277">
        <ele>487.05000000000001</ele>
        <time>2025-04-29T11:38:42Z</time>
      </trkpt>
      <trkpt lat="43.329506982117891" lon="-5.585025027394295">
        <ele>488.49000000000001</ele>
        <time>2025-04-29T11:38:43Z</time>
      </trkpt>
      <trkpt lat="43.329586023464799" lon="-5.585057968273759">
        <ele>489.44999999999999</ele>
        <time>2025-04-29T11:38:44Z</time>
      </trkpt>
      <trkpt lat="43.329632040113211" lon="-5.585143966600299">
        <ele>490.41000000000003</ele>
        <time>2025-04-29T11:38:45Z</time>
      </trkpt>
      <trkpt lat="43.329662969335914" lon="-5.585235999897122">
        <ele>491.85000000000002</ele>
        <time>2025-04-29T11:38:46Z</time>
      </trkpt>
      <trkpt lat="43.329664980992675" lon="-5.585333984345198">
        <ele>492.81</ele>
        <time>2025-04-29T11:38:47Z</time>
      </trkpt>
      <trkpt lat="43.329657018184662" lon="-5.585443032905459">
        <ele>494.25999999999999</ele>
        <time>2025-04-29T11:38:48Z</time>
      </trkpt>
      <trkpt lat="43.329648971557617" lon="-5.585539005696774">
        <ele>495.22000000000003</ele>
        <time>2025-04-29T11:38:49Z</time>
      </trkpt>
      <trkpt lat="43.32958803512156" lon="-5.585600025951862">
        <ele>496.66000000000003</ele>
        <time>2025-04-29T11:38:50Z</time>
      </trkpt>
      <trkpt lat="43.329522991552949" lon="-5.585620980709791">
        <ele>498.10000000000002</ele>
        <time>2025-04-29T11:38:51Z</time>
      </trkpt>
      <trkpt lat="43.329435987398028" lon="-5.585612012073398">
        <ele>499.54000000000002</ele>
        <time>2025-04-29T11:38:52Z</time>
      </trkpt>
      <trkpt lat="43.329334985464811" lon="-5.585601031780243">
        <ele>500.98000000000002</ele>
        <time>2025-04-29T11:38:53Z</time>
      </trkpt>
      <trkpt lat="43.329228032380342" lon="-5.585588961839676">
        <ele>502.43000000000001</ele>
        <time>2025-04-29T11:38:54Z</time>
      </trkpt>
      <trkpt lat="43.328758981078863" lon="-5.585530959069729">
        <ele>509.63999999999999</ele>
        <time>2025-04-29T11:38:58Z</time>
      </trkpt>
      <trkpt lat="43.328672982752323" lon="-5.585459964349866">
        <ele>511.07999999999998</ele>
        <time>2025-04-29T11:38:59Z</time>
      </trkpt>
      <trkpt lat="43.32857902161777" lon="-5.585383018478751">
        <ele>512.51999999999998</ele>
        <time>2025-04-29T11:39:00Z</time>
      </trkpt>
      <trkpt lat="43.328487994149327" lon="-5.585289979353547">
        <ele>513.96000000000004</ele>
        <time>2025-04-29T11:39:01Z</time>
      </trkpt>
      <trkpt lat="43.328404007479548" lon="-5.585186965763569">
        <ele>514.44000000000005</ele>
        <time>2025-04-29T11:39:02Z</time>
      </trkpt>
      <trkpt lat="43.328031012788415" lon="-5.584726966917515">
        <ele>518.76999999999998</ele>
        <time>2025-04-29T11:39:06Z</time>
      </trkpt>
      <trkpt lat="43.327867984771729" lon="-5.584493027999997">
        <ele>522.13</ele>
        <time>2025-04-29T11:39:08Z</time>
      </trkpt>
      <trkpt lat="43.327803025022149" lon="-5.5843910202384">
        <ele>523.58000000000004</ele>
        <time>2025-04-29T11:39:09Z</time>
      </trkpt>
      <trkpt lat="43.327728006988764" lon="-5.584340980276465">
        <ele>525.01999999999998</ele>
        <time>2025-04-29T11:39:10Z</time>
      </trkpt>
      <trkpt lat="43.327641002833843" lon="-5.584326982498169">
        <ele>526.46000000000004</ele>
        <time>2025-04-29T11:39:11Z</time>
      </trkpt>
      <trkpt lat="43.327573025599122" lon="-5.584381967782974">
        <ele>527.41999999999996</ele>
        <time>2025-04-29T11:39:12Z</time>
      </trkpt>
      <trkpt lat="43.327499013394117" lon="-5.584442988038063">
        <ele>528.38</ele>
        <time>2025-04-29T11:39:13Z</time>
      </trkpt>
      <trkpt lat="43.327425001189113" lon="-5.584504008293152">
        <ele>529.34000000000003</ele>
        <time>2025-04-29T11:39:14Z</time>
      </trkpt>
      <trkpt lat="43.327337997034192" lon="-5.584497973322868">
        <ele>530.78999999999996</ele>
        <time>2025-04-29T11:39:15Z</time>
      </trkpt>
      <trkpt lat="43.327253004536033" lon="-5.58447701856494">
        <ele>532.23000000000002</ele>
        <time>2025-04-29T11:39:16Z</time>
      </trkpt>
      <trkpt lat="43.327170023694634" lon="-5.584411974996328">
        <ele>533.66999999999996</ele>
        <time>2025-04-29T11:39:17Z</time>
      </trkpt>
      <trkpt lat="43.327082013711333" lon="-5.584343997761607">
        <ele>535.11000000000001</ele>
        <time>2025-04-29T11:39:18Z</time>
      </trkpt>
      <trkpt lat="43.326607011258602" lon="-5.583977038040757">
        <ele>544.72000000000003</ele>
        <time>2025-04-29T11:39:23Z</time>
      </trkpt>
      <trkpt lat="43.326550014317036" lon="-5.583849968388677">
        <ele>546.16999999999996</ele>
        <time>2025-04-29T11:39:24Z</time>
      </trkpt>
      <trkpt lat="43.326520007103682" lon="-5.583713008090854">
        <ele>548.09000000000003</ele>
        <time>2025-04-29T11:39:25Z</time>
      </trkpt>
      <trkpt lat="43.32649502903223" lon="-5.583560960367322">
        <ele>549.52999999999997</ele>
        <time>2025-04-29T11:39:26Z</time>
      </trkpt>
      <trkpt lat="43.326468039304018" lon="-5.583402961492539">
        <ele>550.97000000000003</ele>
        <time>2025-04-29T11:39:27Z</time>
      </trkpt>
      <trkpt lat="43.32645202986896" lon="-5.583238005638123">
        <ele>552.89999999999998</ele>
        <time>2025-04-29T11:39:28Z</time>
      </trkpt>
      <trkpt lat="43.32645202986896" lon="-5.582878002896905">
        <ele>555.77999999999997</ele>
        <time>2025-04-29T11:39:30Z</time>
      </trkpt>
      <trkpt lat="43.32645202986896" lon="-5.582707012072206">
        <ele>557.22000000000003</ele>
        <time>2025-04-29T11:39:31Z</time>
      </trkpt>
      <trkpt lat="43.326512966305017" lon="-5.582553958520293">
        <ele>558.17999999999995</ele>
        <time>2025-04-29T11:39:32Z</time>
      </trkpt>
      <trkpt lat="43.326571974903345" lon="-5.582407023757696">
        <ele>559.13999999999999</ele>
        <time>2025-04-29T11:39:33Z</time>
      </trkpt>
      <trkpt lat="43.326631989330053" lon="-5.582258999347687">
        <ele>559.62</ele>
        <time>2025-04-29T11:39:34Z</time>
      </trkpt>
      <trkpt lat="43.326690997928381" lon="-5.582110974937677">
        <ele>560.11000000000001</ele>
        <time>2025-04-29T11:39:35Z</time>
      </trkpt>
      <trkpt lat="43.326866012066603" lon="-5.58172800578177">
        <ele>561.07000000000005</ele>
        <time>2025-04-29T11:39:38Z</time>
      </trkpt>
      <trkpt lat="43.326865006238222" lon="-5.581613006070256">
        <ele>561.07000000000005</ele>
        <time>2025-04-29T11:39:39Z</time>
      </trkpt>
      <trkpt lat="43.326848996803164" lon="-5.581546034663916">
        <ele>561.07000000000005</ele>
        <time>2025-04-29T11:39:40Z</time>
      </trkpt>
      <trkpt lat="43.326813960447907" lon="-5.581508986651897">
        <ele>561.07000000000005</ele>
        <time>2025-04-29T11:39:41Z</time>
      </trkpt>
      <trkpt lat="43.326771967113018" lon="-5.581515021622181">
        <ele>561.07000000000005</ele>
        <time>2025-04-29T11:39:42Z</time>
      </trkpt>
      <trkpt lat="43.326718993484974" lon="-5.581521978601813">
        <ele>560.59000000000003</ele>
        <time>2025-04-29T11:39:43Z</time>
      </trkpt>
      <trkpt lat="43.326653027907014" lon="-5.581532036885619">
        <ele>560.59000000000003</ele>
        <time>2025-04-29T11:39:44Z</time>
      </trkpt>
      <trkpt lat="43.326570969074965" lon="-5.581544023007155">
        <ele>560.59000000000003</ele>
        <time>2025-04-29T11:39:45Z</time>
      </trkpt>
      <trkpt lat="43.326077023521066" lon="-5.58168601244688">
        <ele>559.13999999999999</ele>
        <time>2025-04-29T11:39:50Z</time>
      </trkpt>
      <trkpt lat="43.325966969132423" lon="-5.58175097219646">
        <ele>558.65999999999997</ele>
        <time>2025-04-29T11:39:51Z</time>
      </trkpt>
      <trkpt lat="43.325642002746463" lon="-5.581914000213146">
        <ele>559.62</ele>
        <time>2025-04-29T11:39:54Z</time>
      </trkpt>
      <trkpt lat="43.325531026348472" lon="-5.581953981891275">
        <ele>560.59000000000003</ele>
        <time>2025-04-29T11:39:55Z</time>
      </trkpt>
      <trkpt lat="43.325418960303068" lon="-5.581970997154713">
        <ele>562.02999999999997</ele>
        <time>2025-04-29T11:39:56Z</time>
      </trkpt>
      <trkpt lat="43.325202958658338" lon="-5.581939984112978">
        <ele>565.38999999999999</ele>
        <time>2025-04-29T11:39:58Z</time>
      </trkpt>
      <trkpt lat="43.324901964515448" lon="-5.581953981891275">
        <ele>568.27999999999997</ele>
        <time>2025-04-29T11:40:01Z</time>
      </trkpt>
      <trkpt lat="43.324478007853031" lon="-5.581998992711306">
        <ele>569.72000000000003</ele>
        <time>2025-04-29T11:40:05Z</time>
      </trkpt>
      <trkpt lat="43.324395027011633" lon="-5.581949036568403">
        <ele>569.72000000000003</ele>
        <time>2025-04-29T11:40:06Z</time>
      </trkpt>
      <trkpt lat="43.32424096763134" lon="-5.581866977736354">
        <ele>570.20000000000005</ele>
        <time>2025-04-29T11:40:08Z</time>
      </trkpt>
      <trkpt lat="43.324166033416986" lon="-5.58185800909996">
        <ele>570.20000000000005</ele>
        <time>2025-04-29T11:40:09Z</time>
      </trkpt>
      <trkpt lat="43.324095960706472" lon="-5.581849040463567">
        <ele>570.20000000000005</ele>
        <time>2025-04-29T11:40:10Z</time>
      </trkpt>
      <trkpt lat="43.324052039533854" lon="-5.581734040752053">
        <ele>569.72000000000003</ele>
        <time>2025-04-29T11:40:11Z</time>
      </trkpt>
      <trkpt lat="43.324022032320499" lon="-5.581648964434862">
        <ele>569.72000000000003</ele>
        <time>2025-04-29T11:40:12Z</time>
      </trkpt>
      <trkpt lat="43.323992025107145" lon="-5.581561960279942">
        <ele>569.72000000000003</ele>
        <time>2025-04-29T11:40:13Z</time>
      </trkpt>
      <trkpt lat="43.323961012065411" lon="-5.581475039944053">
        <ele>569.72000000000003</ele>
        <time>2025-04-29T11:40:14Z</time>
      </trkpt>
      <trkpt lat="43.323920024558902" lon="-5.581416031345725">
        <ele>569.24000000000001</ele>
        <time>2025-04-29T11:40:15Z</time>
      </trkpt>
      <trkpt lat="43.323850035667419" lon="-5.581403039395809">
        <ele>569.24000000000001</ele>
        <time>2025-04-29T11:40:16Z</time>
      </trkpt>
      <trkpt lat="43.323766971006989" lon="-5.581388035789132">
        <ele>568.75999999999999</ele>
        <time>2025-04-29T11:40:17Z</time>
      </trkpt>
      <trkpt lat="43.323660017922521" lon="-5.581326009705663">
        <ele>568.27999999999997</ele>
        <time>2025-04-29T11:40:18Z</time>
      </trkpt>
      <trkpt lat="43.323581982403994" lon="-5.581240011379123">
        <ele>567.79999999999995</ele>
        <time>2025-04-29T11:40:19Z</time>
      </trkpt>
      <trkpt lat="43.323500007390976" lon="-5.58114998973906">
        <ele>567.32000000000005</ele>
        <time>2025-04-29T11:40:20Z</time>
      </trkpt>
      <trkpt lat="43.323439992964268" lon="-5.581021998077631">
        <ele>567.32000000000005</ele>
        <time>2025-04-29T11:40:21Z</time>
      </trkpt>
      <trkpt lat="43.323392970487475" lon="-5.58091102167964">
        <ele>566.83000000000004</ele>
        <time>2025-04-29T11:40:22Z</time>
      </trkpt>
      <trkpt lat="43.323359023779631" lon="-5.580771965906024">
        <ele>566.83000000000004</ele>
        <time>2025-04-29T11:40:23Z</time>
      </trkpt>
      <trkpt lat="43.323351982980967" lon="-5.580646991729736">
        <ele>566.35000000000002</ele>
        <time>2025-04-29T11:40:24Z</time>
      </trkpt>
      <trkpt lat="43.323345026001334" lon="-5.580523023381829">
        <ele>566.35000000000002</ele>
        <time>2025-04-29T11:40:25Z</time>
      </trkpt>
      <trkpt lat="43.323333039879799" lon="-5.580421015620232">
        <ele>565.87</ele>
        <time>2025-04-29T11:40:26Z</time>
      </trkpt>
      <trkpt lat="43.323318958282471" lon="-5.580367958173156">
        <ele>565.87</ele>
        <time>2025-04-29T11:40:27Z</time>
      </trkpt>
      <trkpt lat="43.323242012411356" lon="-5.580299980938435">
        <ele>565.87</ele>
        <time>2025-04-29T11:40:28Z</time>
      </trkpt>
      <trkpt lat="43.323169006034732" lon="-5.580236027017236">
        <ele>565.87</ele>
        <time>2025-04-29T11:40:29Z</time>
      </trkpt>
      <trkpt lat="43.323088036850095" lon="-5.580164026468992">
        <ele>565.87</ele>
        <time>2025-04-29T11:40:30Z</time>
      </trkpt>
      <trkpt lat="43.323010001331568" lon="-5.580094959586859">
        <ele>565.87</ele>
        <time>2025-04-29T11:40:31Z</time>
      </trkpt>
      <trkpt lat="43.322936994954944" lon="-5.579982977360487">
        <ele>565.38999999999999</ele>
        <time>2025-04-29T11:40:32Z</time>
      </trkpt>
      <trkpt lat="43.322912016883492" lon="-5.579870995134115">
        <ele>565.38999999999999</ele>
        <time>2025-04-29T11:40:33Z</time>
      </trkpt>
      <trkpt lat="43.322912016883492" lon="-5.579768987372518">
        <ele>565.38999999999999</ele>
        <time>2025-04-29T11:40:34Z</time>
      </trkpt>
      <trkpt lat="43.322912016883492" lon="-5.579661028459668">
        <ele>565.38999999999999</ele>
        <time>2025-04-29T11:40:35Z</time>
      </trkpt>
      <trkpt lat="43.322912016883492" lon="-5.579544017091394">
        <ele>565.38999999999999</ele>
        <time>2025-04-29T11:40:36Z</time>
      </trkpt>
      <trkpt lat="43.322753012180328" lon="-5.578877991065383">
        <ele>565.38999999999999</ele>
        <time>2025-04-29T11:40:41Z</time>
      </trkpt>
      <trkpt lat="43.322705989703536" lon="-5.578740024939179">
        <ele>565.38999999999999</ele>
        <time>2025-04-29T11:40:42Z</time>
      </trkpt>
      <trkpt lat="43.32262703217566" lon="-5.578622007742524">
        <ele>565.38999999999999</ele>
        <time>2025-04-29T11:40:43Z</time>
      </trkpt>
      <trkpt lat="43.322547990828753" lon="-5.578502984717488">
        <ele>565.38999999999999</ele>
        <time>2025-04-29T11:40:44Z</time>
      </trkpt>
      <trkpt lat="43.322453023865819" lon="-5.578400976955891">
        <ele>565.87</ele>
        <time>2025-04-29T11:40:45Z</time>
      </trkpt>
      <trkpt lat="43.322357973083854" lon="-5.57833400554955">
        <ele>566.35000000000002</ele>
        <time>2025-04-29T11:40:46Z</time>
      </trkpt>
      <trkpt lat="43.322271974757314" lon="-5.578272985294461">
        <ele>566.35000000000002</ele>
        <time>2025-04-29T11:40:47Z</time>
      </trkpt>
      <trkpt lat="43.32219896838069" lon="-5.578222023323178">
        <ele>566.83000000000004</ele>
        <time>2025-04-29T11:40:48Z</time>
      </trkpt>
      <trkpt lat="43.322142977267504" lon="-5.57818204164505">
        <ele>566.83000000000004</ele>
        <time>2025-04-29T11:40:49Z</time>
      </trkpt>
      <trkpt lat="43.322096038609743" lon="-5.578197967261076">
        <ele>567.32000000000005</ele>
        <time>2025-04-29T11:40:50Z</time>
      </trkpt>
      <trkpt lat="43.322038035839796" lon="-5.578223029151559">
        <ele>567.32000000000005</ele>
        <time>2025-04-29T11:40:51Z</time>
      </trkpt>
      <trkpt lat="43.321980033069849" lon="-5.578263010829687">
        <ele>567.32000000000005</ele>
        <time>2025-04-29T11:40:52Z</time>
      </trkpt>
      <trkpt lat="43.321937033906579" lon="-5.578358983621001">
        <ele>567.32000000000005</ele>
        <time>2025-04-29T11:40:53Z</time>
      </trkpt>
      <trkpt lat="43.321881964802742" lon="-5.578480018302798">
        <ele>566.83000000000004</ele>
        <time>2025-04-29T11:40:54Z</time>
      </trkpt>
      <trkpt lat="43.321858998388052" lon="-5.578595018014312">
        <ele>566.35000000000002</ele>
        <time>2025-04-29T11:40:55Z</time>
      </trkpt>
      <trkpt lat="43.321829997003078" lon="-5.57874103076756">
        <ele>565.38999999999999</ele>
        <time>2025-04-29T11:40:56Z</time>
      </trkpt>
      <trkpt lat="43.321745004504919" lon="-5.579165993258357">
        <ele>562.50999999999999</ele>
        <time>2025-04-29T11:40:59Z</time>
      </trkpt>
      <trkpt lat="43.321698987856507" lon="-5.579263977706432">
        <ele>561.54999999999995</ele>
        <time>2025-04-29T11:41:00Z</time>
      </trkpt>
      <trkpt lat="43.321666968986392" lon="-5.579294990748167">
        <ele>561.07000000000005</ele>
        <time>2025-04-29T11:41:01Z</time>
      </trkpt>
      <trkpt lat="43.321566972881556" lon="-5.579289961606264">
        <ele>560.59000000000003</ele>
        <time>2025-04-29T11:41:02Z</time>
      </trkpt>
      <trkpt lat="43.321491032838821" lon="-5.579286022111774">
        <ele>560.59000000000003</ele>
        <time>2025-04-29T11:41:03Z</time>
      </trkpt>
      <trkpt lat="43.321410985663533" lon="-5.579280992969871">
        <ele>560.59000000000003</ele>
        <time>2025-04-29T11:41:04Z</time>
      </trkpt>
      <trkpt lat="43.321333033964038" lon="-5.579276969656348">
        <ele>560.59000000000003</ele>
        <time>2025-04-29T11:41:05Z</time>
      </trkpt>
      <trkpt lat="43.321241000667214" lon="-5.579314017668366">
        <ele>560.59000000000003</ele>
        <time>2025-04-29T11:41:06Z</time>
      </trkpt>
      <trkpt lat="43.321181992068887" lon="-5.579372020438314">
        <ele>561.07000000000005</ele>
        <time>2025-04-29T11:41:07Z</time>
      </trkpt>
      <trkpt lat="43.321131030097604" lon="-5.579423988237977">
        <ele>561.07000000000005</ele>
        <time>2025-04-29T11:41:08Z</time>
      </trkpt>
      <trkpt lat="43.321075960993767" lon="-5.579543011263013">
        <ele>561.07000000000005</ele>
        <time>2025-04-29T11:41:09Z</time>
      </trkpt>
      <trkpt lat="43.321024999022484" lon="-5.579652981832624">
        <ele>560.59000000000003</ele>
        <time>2025-04-29T11:41:10Z</time>
      </trkpt>
      <trkpt lat="43.32097202539444" lon="-5.579766975715756">
        <ele>560.11000000000001</ele>
        <time>2025-04-29T11:41:11Z</time>
      </trkpt>
      <trkpt lat="43.320918967947364" lon="-5.57988197542727">
        <ele>559.62</ele>
        <time>2025-04-29T11:41:12Z</time>
      </trkpt>
      <trkpt lat="43.320871023461223" lon="-5.58000803925097">
        <ele>559.13999999999999</ele>
        <time>2025-04-29T11:41:13Z</time>
      </trkpt>
      <trkpt lat="43.320855014026165" lon="-5.580152040347457">
        <ele>558.17999999999995</ele>
        <time>2025-04-29T11:41:14Z</time>
      </trkpt>
      <trkpt lat="43.320837998762727" lon="-5.580306015908718">
        <ele>557.70000000000005</ele>
        <time>2025-04-29T11:41:15Z</time>
      </trkpt>
      <trkpt lat="43.320790976285934" lon="-5.580742964521051">
        <ele>555.77999999999997</ele>
        <time>2025-04-29T11:41:18Z</time>
      </trkpt>
      <trkpt lat="43.320741020143032" lon="-5.580850001424551">
        <ele>555.29999999999995</ele>
        <time>2025-04-29T11:41:19Z</time>
      </trkpt>
      <trkpt lat="43.320687962695956" lon="-5.58093398809433">
        <ele>554.82000000000005</ele>
        <time>2025-04-29T11:41:20Z</time>
      </trkpt>
      <trkpt lat="43.320620991289616" lon="-5.580978998914361">
        <ele>554.34000000000003</ele>
        <time>2025-04-29T11:41:21Z</time>
      </trkpt>
      <trkpt lat="43.32054496742785" lon="-5.581018980592489">
        <ele>554.34000000000003</ele>
        <time>2025-04-29T11:41:22Z</time>
      </trkpt>
      <trkpt lat="43.320401972159743" lon="-5.581095004454255">
        <ele>555.29999999999995</ele>
        <time>2025-04-29T11:41:24Z</time>
      </trkpt>
      <trkpt lat="43.320314968004823" lon="-5.581141021102667">
        <ele>555.29999999999995</ele>
        <time>2025-04-29T11:41:25Z</time>
      </trkpt>
      <trkpt lat="43.319637961685658" lon="-5.581123000010848">
        <ele>550.49000000000001</ele>
        <time>2025-04-29T11:41:32Z</time>
      </trkpt>
      <trkpt lat="43.319434029981494" lon="-5.581163987517357">
        <ele>548.57000000000005</ele>
        <time>2025-04-29T11:41:34Z</time>
      </trkpt>
      <trkpt lat="43.319353982806206" lon="-5.581240011379123">
        <ele>547.61000000000001</ele>
        <time>2025-04-29T11:41:35Z</time>
      </trkpt>
      <trkpt lat="43.319269996136427" lon="-5.581318968906999">
        <ele>547.13</ele>
        <time>2025-04-29T11:41:36Z</time>
      </trkpt>
      <trkpt lat="43.319181986153126" lon="-5.581401027739048">
        <ele>546.16999999999996</ele>
        <time>2025-04-29T11:41:37Z</time>
      </trkpt>
      <trkpt lat="43.319090036675334" lon="-5.581487026065588">
        <ele>545.69000000000005</ele>
        <time>2025-04-29T11:41:38Z</time>
      </trkpt>
      <trkpt lat="43.318774960935116" lon="-5.581779973581433">
        <ele>543.75999999999999</ele>
        <time>2025-04-29T11:41:42Z</time>
      </trkpt>
      <trkpt lat="43.318650992587209" lon="-5.581804029643536">
        <ele>543.27999999999997</ele>
        <time>2025-04-29T11:41:44Z</time>
      </trkpt>
      <trkpt lat="43.318593995645642" lon="-5.58181400410831">
        <ele>542.79999999999995</ele>
        <time>2025-04-29T11:41:45Z</time>
      </trkpt>
      <trkpt lat="43.318543033674359" lon="-5.581821966916323">
        <ele>542.79999999999995</ele>
        <time>2025-04-29T11:41:46Z</time>
      </trkpt>
      <trkpt lat="43.318506991490722" lon="-5.581828001886606">
        <ele>542.79999999999995</ele>
        <time>2025-04-29T11:41:47Z</time>
      </trkpt>
      <trkpt lat="43.318476984277368" lon="-5.581833031028509">
        <ele>542.79999999999995</ele>
        <time>2025-04-29T11:41:48Z</time>
      </trkpt>
      <trkpt lat="43.318447982892394" lon="-5.58183797635138">
        <ele>542.79999999999995</ele>
        <time>2025-04-29T11:41:49Z</time>
      </trkpt>
      <trkpt lat="43.318427028134465" lon="-5.581841999664903">
        <ele>543.27999999999997</ele>
        <time>2025-04-29T11:41:50Z</time>
      </trkpt>
      <trkpt lat="43.318427028134465" lon="-5.581841999664903">
        <ele>543.27999999999997</ele>
        <time>2025-04-29T11:42:01Z</time>
      </trkpt>
      <trkpt lat="43.318427028134465" lon="-5.581841999664903">
        <ele>543.75999999999999</ele>
        <time>2025-04-29T11:43:02Z</time>
      </trkpt>
      <trkpt lat="43.318319991230965" lon="-5.582063030451536">
        <ele>545.20000000000005</ele>
        <time>2025-04-29T11:43:38Z</time>
      </trkpt>
      <trkpt lat="43.318384028971195" lon="-5.581849040463567">
        <ele>545.20000000000005</ele>
        <time>2025-04-29T11:43:39Z</time>
      </trkpt>
      <trkpt lat="43.318409007042646" lon="-5.58179397135973">
        <ele>545.20000000000005</ele>
        <time>2025-04-29T11:43:40Z</time>
      </trkpt>
      <trkpt lat="43.318442031741142" lon="-5.581719959154725">
        <ele>545.20000000000005</ele>
        <time>2025-04-29T11:43:41Z</time>
      </trkpt>
      <trkpt lat="43.318484025076032" lon="-5.581624992191792">
        <ele>545.20000000000005</ele>
        <time>2025-04-29T11:43:42Z</time>
      </trkpt>
      <trkpt lat="43.318530963733792" lon="-5.581517033278942">
        <ele>544.72000000000003</ele>
        <time>2025-04-29T11:43:43Z</time>
      </trkpt>
      <trkpt lat="43.318562982603908" lon="-5.581386024132371">
        <ele>544.24000000000001</ele>
        <time>2025-04-29T11:43:44Z</time>
      </trkpt>
      <trkpt lat="43.318576980382204" lon="-5.581244034692645">
        <ele>543.75999999999999</ele>
        <time>2025-04-29T11:43:45Z</time>
      </trkpt>
      <trkpt lat="43.318590978160501" lon="-5.581092992797494">
        <ele>542.79999999999995</ele>
        <time>2025-04-29T11:43:46Z</time>
      </trkpt>
      <trkpt lat="43.318604975938797" lon="-5.580937005579472">
        <ele>542.32000000000005</ele>
        <time>2025-04-29T11:43:47Z</time>
      </trkpt>
      <trkpt lat="43.318631965667009" lon="-5.580644980072975">
        <ele>540.88</ele>
        <time>2025-04-29T11:43:49Z</time>
      </trkpt>
      <trkpt lat="43.318642023950815" lon="-5.580540038645268">
        <ele>540.39999999999998</ele>
        <time>2025-04-29T11:43:50Z</time>
      </trkpt>
      <trkpt lat="43.318725004792213" lon="-5.58048203587532">
        <ele>539.91999999999996</ele>
        <time>2025-04-29T11:43:51Z</time>
      </trkpt>
      <trkpt lat="43.318805973976851" lon="-5.580425960943103">
        <ele>538.96000000000004</ele>
        <time>2025-04-29T11:43:52Z</time>
      </trkpt>
      <trkpt lat="43.318920973688364" lon="-5.580347003415227">
        <ele>538.48000000000002</ele>
        <time>2025-04-29T11:43:53Z</time>
      </trkpt>
      <trkpt lat="43.318994985893369" lon="-5.580339040607214">
        <ele>537.50999999999999</ele>
        <time>2025-04-29T11:43:54Z</time>
      </trkpt>
      <trkpt lat="43.31910403445363" lon="-5.580325964838266">
        <ele>536.54999999999995</ele>
        <time>2025-04-29T11:43:55Z</time>
      </trkpt>
      <trkpt lat="43.319209981709719" lon="-5.580314984545112">
        <ele>535.11000000000001</ele>
        <time>2025-04-29T11:43:56Z</time>
      </trkpt>
      <trkpt lat="43.319308971986175" lon="-5.580301992595196">
        <ele>533.66999999999996</ele>
        <time>2025-04-29T11:43:57Z</time>
      </trkpt>
      <trkpt lat="43.319399999454618" lon="-5.580214988440275">
        <ele>532.23000000000002</ele>
        <time>2025-04-29T11:43:58Z</time>
      </trkpt>
      <trkpt lat="43.319494966417551" lon="-5.580124966800213">
        <ele>530.78999999999996</ele>
        <time>2025-04-29T11:43:59Z</time>
      </trkpt>
      <trkpt lat="43.319592028856277" lon="-5.580032011494041">
        <ele>529.82000000000005</ele>
        <time>2025-04-29T11:44:00Z</time>
      </trkpt>
      <trkpt lat="43.31968598999083" lon="-5.579941989853978">
        <ele>527.89999999999998</ele>
        <time>2025-04-29T11:44:01Z</time>
      </trkpt>
      <trkpt lat="43.319756984710693" lon="-5.579875018447638">
        <ele>525.98000000000002</ele>
        <time>2025-04-29T11:44:02Z</time>
      </trkpt>
      <trkpt lat="43.319807024672627" lon="-5.579744009301066">
        <ele>524.53999999999996</ele>
        <time>2025-04-29T11:44:03Z</time>
      </trkpt>
      <trkpt lat="43.319810964167118" lon="-5.579626997932792">
        <ele>523.09000000000003</ele>
        <time>2025-04-29T11:44:04Z</time>
      </trkpt>
      <trkpt lat="43.31979101523757" lon="-5.579493977129459">
        <ele>522.13</ele>
        <time>2025-04-29T11:44:05Z</time>
      </trkpt>
      <trkpt lat="43.31977098248899" lon="-5.579359028488398">
        <ele>520.69000000000005</ele>
        <time>2025-04-29T11:44:06Z</time>
      </trkpt>
      <trkpt lat="43.319752039387822" lon="-5.579232964664698">
        <ele>519.73000000000002</ele>
        <time>2025-04-29T11:44:07Z</time>
      </trkpt>
      <trkpt lat="43.319737035781145" lon="-5.579129029065371">
        <ele>519.25</ele>
        <time>2025-04-29T11:44:08Z</time>
      </trkpt>
      <trkpt lat="43.319787997752428" lon="-5.579050993546844">
        <ele>518.28999999999996</ele>
        <time>2025-04-29T11:44:09Z</time>
      </trkpt>
      <trkpt lat="43.319844994693995" lon="-5.578972036018968">
        <ele>517.33000000000004</ele>
        <time>2025-04-29T11:44:10Z</time>
      </trkpt>
      <trkpt lat="43.319910960271955" lon="-5.578881008550525">
        <ele>516.37</ele>
        <time>2025-04-29T11:44:11Z</time>
      </trkpt>
      <trkpt lat="43.320053033530712" lon="-5.578653020784259">
        <ele>513.96000000000004</ele>
        <time>2025-04-29T11:44:13Z</time>
      </trkpt>
      <trkpt lat="43.320117993280292" lon="-5.57850600220263">
        <ele>513</ele>
        <time>2025-04-29T11:44:14Z</time>
      </trkpt>
      <trkpt lat="43.320370959118009" lon="-5.577859003096819">
        <ele>507.70999999999998</ele>
        <time>2025-04-29T11:44:18Z</time>
      </trkpt>
      <trkpt lat="43.320395015180111" lon="-5.57766797952354">
        <ele>506.26999999999998</ele>
        <time>2025-04-29T11:44:19Z</time>
      </trkpt>
      <trkpt lat="43.320488976314664" lon="-5.576858958229423">
        <ele>500.5</ele>
        <time>2025-04-29T11:44:23Z</time>
      </trkpt>
      <trkpt lat="43.320505991578102" lon="-5.57646500878036">
        <ele>497.62</ele>
        <time>2025-04-29T11:44:25Z</time>
      </trkpt>
      <trkpt lat="43.32054496742785" lon="-5.576296029612422">
        <ele>496.18000000000001</ele>
        <time>2025-04-29T11:44:26Z</time>
      </trkpt>
      <trkpt lat="43.3205889724195" lon="-5.576148005202413">
        <ele>494.74000000000001</ele>
        <time>2025-04-29T11:44:27Z</time>
      </trkpt>
      <trkpt lat="43.320637000724673" lon="-5.576024958863854">
        <ele>493.29000000000002</ele>
        <time>2025-04-29T11:44:28Z</time>
      </trkpt>
      <trkpt lat="43.320702966302633" lon="-5.575934015214443">
        <ele>491.85000000000002</ele>
        <time>2025-04-29T11:44:29Z</time>
      </trkpt>
      <trkpt lat="43.320768009871244" lon="-5.575843993574381">
        <ele>490.41000000000003</ele>
        <time>2025-04-29T11:44:30Z</time>
      </trkpt>
      <trkpt lat="43.320905975997448" lon="-5.575663028284907">
        <ele>488.00999999999999</ele>
        <time>2025-04-29T11:44:32Z</time>
      </trkpt>
      <trkpt lat="43.321001026779413" lon="-5.575612988322973">
        <ele>486.56</ele>
        <time>2025-04-29T11:44:33Z</time>
      </trkpt>
      <trkpt lat="43.321105968207121" lon="-5.575556997209787">
        <ele>485.60000000000002</ele>
        <time>2025-04-29T11:44:34Z</time>
      </trkpt>
      <trkpt lat="43.321220967918634" lon="-5.575495976954699">
        <ele>484.16000000000003</ele>
        <time>2025-04-29T11:44:35Z</time>
      </trkpt>
      <trkpt lat="43.321326998993754" lon="-5.575408972799778">
        <ele>483.19999999999999</ele>
        <time>2025-04-29T11:44:36Z</time>
      </trkpt>
      <trkpt lat="43.321432024240494" lon="-5.57530403137207">
        <ele>481.75999999999999</ele>
        <time>2025-04-29T11:44:37Z</time>
      </trkpt>
      <trkpt lat="43.321519028395414" lon="-5.575160030275583">
        <ele>480.80000000000001</ele>
        <time>2025-04-29T11:44:38Z</time>
      </trkpt>
      <trkpt lat="43.321605026721954" lon="-5.575018962845206">
        <ele>479.35000000000002</ele>
        <time>2025-04-29T11:44:39Z</time>
      </trkpt>
      <trkpt lat="43.321680966764688" lon="-5.574893988668919">
        <ele>477.91000000000003</ele>
        <time>2025-04-29T11:44:40Z</time>
      </trkpt>
      <trkpt lat="43.321765037253499" lon="-5.574797010049224">
        <ele>476.94999999999999</ele>
        <time>2025-04-29T11:44:41Z</time>
      </trkpt>
      <trkpt lat="43.321867967024446" lon="-5.574754010885954">
        <ele>475.99000000000001</ele>
        <time>2025-04-29T11:44:42Z</time>
      </trkpt>
      <trkpt lat="43.321970980614424" lon="-5.574711011722684">
        <ele>475.50999999999999</ele>
        <time>2025-04-29T11:44:43Z</time>
      </trkpt>
      <trkpt lat="43.322077011689544" lon="-5.574702965095639">
        <ele>474.55000000000001</ele>
        <time>2025-04-29T11:44:44Z</time>
      </trkpt>
      <trkpt lat="43.322180025279522" lon="-5.574702965095639">
        <ele>473.58999999999997</ele>
        <time>2025-04-29T11:44:45Z</time>
      </trkpt>
      <trkpt lat="43.322273986414075" lon="-5.574702965095639">
        <ele>473.11000000000001</ele>
        <time>2025-04-29T11:44:46Z</time>
      </trkpt>
      <trkpt lat="43.322341041639447" lon="-5.574672035872936">
        <ele>472.13999999999999</ele>
        <time>2025-04-29T11:44:47Z</time>
      </trkpt>
      <trkpt lat="43.322397032752633" lon="-5.57463901117444">
        <ele>471.18000000000001</ele>
        <time>2025-04-29T11:44:48Z</time>
      </trkpt>
      <trkpt lat="43.322407007217407" lon="-5.574538009241223">
        <ele>470.22000000000003</ele>
        <time>2025-04-29T11:44:49Z</time>
      </trkpt>
      <trkpt lat="43.32241497002542" lon="-5.574458967894316">
        <ele>468.77999999999997</ele>
        <time>2025-04-29T11:44:50Z</time>
      </trkpt>
      <trkpt lat="43.322398038581014" lon="-5.574398031458259">
        <ele>467.81999999999999</ele>
        <time>2025-04-29T11:44:51Z</time>
      </trkpt>
      <trkpt lat="43.322354033589363" lon="-5.574339022859931">
        <ele>466.86000000000001</ele>
        <time>2025-04-29T11:44:52Z</time>
      </trkpt>
      <trkpt lat="43.322283960878849" lon="-5.574328964576125">
        <ele>465.89999999999998</ele>
        <time>2025-04-29T11:44:53Z</time>
      </trkpt>
      <trkpt lat="43.322188993915915" lon="-5.57431697845459">
        <ele>464.44999999999999</ele>
        <time>2025-04-29T11:44:54Z</time>
      </trkpt>
      <trkpt lat="43.322079023346305" lon="-5.574301974847913">
        <ele>463.00999999999999</ele>
        <time>2025-04-29T11:44:55Z</time>
      </trkpt>
      <trkpt lat="43.321955977007747" lon="-5.574255036190152">
        <ele>461.56999999999999</ele>
        <time>2025-04-29T11:44:56Z</time>
      </trkpt>
      <trkpt lat="43.32185497507453" lon="-5.574201978743076">
        <ele>460.61000000000001</ele>
        <time>2025-04-29T11:44:57Z</time>
      </trkpt>
      <trkpt lat="43.321761013939977" lon="-5.574152022600174">
        <ele>460.13</ele>
        <time>2025-04-29T11:44:58Z</time>
      </trkpt>
      <trkpt lat="43.321666968986392" lon="-5.57410198263824">
        <ele>460.13</ele>
        <time>2025-04-29T11:44:59Z</time>
      </trkpt>
      <trkpt lat="43.321610977873206" lon="-5.574137018993497">
        <ele>459.64999999999998</ele>
        <time>2025-04-29T11:45:00Z</time>
      </trkpt>
      <trkpt lat="43.321525985375047" lon="-5.57418898679316">
        <ele>459.17000000000002</ele>
        <time>2025-04-29T11:45:01Z</time>
      </trkpt>
      <trkpt lat="43.321435041725636" lon="-5.574244977906346">
        <ele>458.69</ele>
        <time>2025-04-29T11:45:02Z</time>
      </trkpt>
      <trkpt lat="43.321222979575396" lon="-5.574375987052918">
        <ele>456.75999999999999</ele>
        <time>2025-04-29T11:45:04Z</time>
      </trkpt>
      <trkpt lat="43.321108985692263" lon="-5.5744459759444">
        <ele>455.80000000000001</ele>
        <time>2025-04-29T11:45:05Z</time>
      </trkpt>
      <trkpt lat="43.320999015122652" lon="-5.574472965672612">
        <ele>454.83999999999997</ele>
        <time>2025-04-29T11:45:06Z</time>
      </trkpt>
      <trkpt lat="43.320879992097616" lon="-5.574470032006502">
        <ele>452.92000000000002</ele>
        <time>2025-04-29T11:45:07Z</time>
      </trkpt>
      <trkpt lat="43.320772033184767" lon="-5.574434995651245">
        <ele>451.95999999999998</ele>
        <time>2025-04-29T11:45:08Z</time>
      </trkpt>
      <trkpt lat="43.320663990452886" lon="-5.574399037286639">
        <ele>450.51999999999998</ele>
        <time>2025-04-29T11:45:09Z</time>
      </trkpt>
      <trkpt lat="43.320341035723686" lon="-5.5742940120399">
        <ele>447.14999999999998</ele>
        <time>2025-04-29T11:45:12Z</time>
      </trkpt>
      <trkpt lat="43.32024103961885" lon="-5.574260987341404">
        <ele>446.19</ele>
        <time>2025-04-29T11:45:13Z</time>
      </trkpt>
      <trkpt lat="43.319976003840566" lon="-5.574174989014864">
        <ele>443.79000000000002</ele>
        <time>2025-04-29T11:45:16Z</time>
      </trkpt>
      <trkpt lat="43.319887993857265" lon="-5.57414598762989">
        <ele>442.81999999999999</ele>
        <time>2025-04-29T11:45:17Z</time>
      </trkpt>
      <trkpt lat="43.319781962782145" lon="-5.574131989851594">
        <ele>442.33999999999997</ele>
        <time>2025-04-29T11:45:18Z</time>
      </trkpt>
      <trkpt lat="43.319581970572472" lon="-5.57414498180151">
        <ele>440.89999999999998</ele>
        <time>2025-04-29T11:45:20Z</time>
      </trkpt>
      <trkpt lat="43.31949102692306" lon="-5.574126960709691">
        <ele>439.94</ele>
        <time>2025-04-29T11:45:21Z</time>
      </trkpt>
      <trkpt lat="43.319401005282998" lon="-5.574071975424886">
        <ele>439.45999999999998</ele>
        <time>2025-04-29T11:45:22Z</time>
      </trkpt>
      <trkpt lat="43.31921199336648" lon="-5.573955969884992">
        <ele>438.98000000000002</ele>
        <time>2025-04-29T11:45:24Z</time>
      </trkpt>
      <trkpt lat="43.318210020661354" lon="-5.573575012385845">
        <ele>431.76999999999998</ele>
        <time>2025-04-29T11:45:33Z</time>
      </trkpt>
      <trkpt lat="43.318041041493416" lon="-5.573545005172491">
        <ele>429.37</ele>
        <time>2025-04-29T11:45:35Z</time>
      </trkpt>
      <trkpt lat="43.317923024296761" lon="-5.573583981022239">
        <ele>428.39999999999998</ele>
        <time>2025-04-29T11:45:36Z</time>
      </trkpt>
      <trkpt lat="43.317830990999937" lon="-5.573623040691018">
        <ele>426.95999999999998</ele>
        <time>2025-04-29T11:45:37Z</time>
      </trkpt>
      <trkpt lat="43.317755972966552" lon="-5.573691017925739">
        <ele>426</ele>
        <time>2025-04-29T11:45:38Z</time>
      </trkpt>
      <trkpt lat="43.317677015438676" lon="-5.573761006817222">
        <ele>424.56</ele>
        <time>2025-04-29T11:45:39Z</time>
      </trkpt>
      <trkpt lat="43.317609038203955" lon="-5.573887992650271">
        <ele>423.12</ele>
        <time>2025-04-29T11:45:40Z</time>
      </trkpt>
      <trkpt lat="43.317550029605627" lon="-5.574028976261616">
        <ele>421.68000000000001</ele>
        <time>2025-04-29T11:45:41Z</time>
      </trkpt>
      <trkpt lat="43.317310977727175" lon="-5.57459601201117">
        <ele>416.38999999999999</ele>
        <time>2025-04-29T11:45:45Z</time>
      </trkpt>
      <trkpt lat="43.31732296384871" lon="-5.574772031977773">
        <ele>415.43000000000001</ele>
        <time>2025-04-29T11:45:46Z</time>
      </trkpt>
      <trkpt lat="43.317334027960896" lon="-5.574920978397131">
        <ele>414.47000000000003</ele>
        <time>2025-04-29T11:45:47Z</time>
      </trkpt>
      <trkpt lat="43.317397981882095" lon="-5.575046958401799">
        <ele>413.5</ele>
        <time>2025-04-29T11:45:48Z</time>
      </trkpt>
      <trkpt lat="43.317465037107468" lon="-5.575181990861893">
        <ele>412.06</ele>
        <time>2025-04-29T11:45:49Z</time>
      </trkpt>
      <trkpt lat="43.317527985200286" lon="-5.575308976694942">
        <ele>410.62</ele>
        <time>2025-04-29T11:45:50Z</time>
      </trkpt>
      <trkpt lat="43.317630998790264" lon="-5.575594967231154">
        <ele>406.29000000000002</ele>
        <time>2025-04-29T11:45:53Z</time>
      </trkpt>
      <trkpt lat="43.317620018497109" lon="-5.575630003586412">
        <ele>404.37</ele>
        <time>2025-04-29T11:45:54Z</time>
      </trkpt>
      <trkpt lat="43.317599985748529" lon="-5.57567099109292">
        <ele>402.44999999999999</ele>
        <time>2025-04-29T11:45:55Z</time>
      </trkpt>
      <trkpt lat="43.317580036818981" lon="-5.575710972771049">
        <ele>400.52999999999997</ele>
        <time>2025-04-29T11:45:56Z</time>
      </trkpt>
      <trkpt lat="43.317568972706795" lon="-5.57573301717639">
        <ele>399.07999999999998</ele>
        <time>2025-04-29T11:45:57Z</time>
      </trkpt>
      <trkpt lat="43.317533014342189" lon="-5.57573301717639">
        <ele>397.63999999999999</ele>
        <time>2025-04-29T11:45:58Z</time>
      </trkpt>
      <trkpt lat="43.317484986037016" lon="-5.57573301717639">
        <ele>396.68000000000001</ele>
        <time>2025-04-29T11:45:59Z</time>
      </trkpt>
      <trkpt lat="43.317393958568573" lon="-5.575807029381394">
        <ele>395.24000000000001</ele>
        <time>2025-04-29T11:46:00Z</time>
      </trkpt>
      <trkpt lat="43.317365041002631" lon="-5.575893027707934">
        <ele>394.27999999999997</ele>
        <time>2025-04-29T11:46:01Z</time>
      </trkpt>
      <trkpt lat="43.317335033789277" lon="-5.575982965528965">
        <ele>393.80000000000001</ele>
        <time>2025-04-29T11:46:02Z</time>
      </trkpt>
      <trkpt lat="43.317304020747542" lon="-5.57607701048255">
        <ele>393.80000000000001</ele>
        <time>2025-04-29T11:46:03Z</time>
      </trkpt>
      <trkpt lat="43.317268984392285" lon="-5.576171977445483">
        <ele>393.80000000000001</ele>
        <time>2025-04-29T11:46:04Z</time>
      </trkpt>
      <trkpt lat="43.31723403185606" lon="-5.576259987428784">
        <ele>393.31999999999999</ele>
        <time>2025-04-29T11:46:05Z</time>
      </trkpt>
      <trkpt lat="43.317196983844042" lon="-5.576337017118931">
        <ele>393.31999999999999</ele>
        <time>2025-04-29T11:46:06Z</time>
      </trkpt>
      <trkpt lat="43.317114003002644" lon="-5.576374987140298">
        <ele>393.31999999999999</ele>
        <time>2025-04-29T11:46:07Z</time>
      </trkpt>
      <trkpt lat="43.317026998847723" lon="-5.576415974646807">
        <ele>394.27999999999997</ele>
        <time>2025-04-29T11:46:08Z</time>
      </trkpt>
      <trkpt lat="43.316946029663086" lon="-5.576453022658825">
        <ele>394.75999999999999</ele>
        <time>2025-04-29T11:46:09Z</time>
      </trkpt>
      <trkpt lat="43.3168900385499" lon="-5.576520999893546">
        <ele>395.72000000000003</ele>
        <time>2025-04-29T11:46:10Z</time>
      </trkpt>
      <trkpt lat="43.316847961395979" lon="-5.576628036797047">
        <ele>396.19999999999999</ele>
        <time>2025-04-29T11:46:11Z</time>
      </trkpt>
      <trkpt lat="43.316818960011005" lon="-5.576758040115237">
        <ele>397.16000000000003</ele>
        <time>2025-04-29T11:46:12Z</time>
      </trkpt>
      <trkpt lat="43.316789958626032" lon="-5.576888965442777">
        <ele>397.63999999999999</ele>
        <time>2025-04-29T11:46:13Z</time>
      </trkpt>
      <trkpt lat="43.316754000261426" lon="-5.57700396515429">
        <ele>399.07999999999998</ele>
        <time>2025-04-29T11:46:14Z</time>
      </trkpt>
      <trkpt lat="43.316709995269775" lon="-5.577102033421397">
        <ele>400.05000000000001</ele>
        <time>2025-04-29T11:46:15Z</time>
      </trkpt>
      <trkpt lat="43.316617961972952" lon="-5.577148972079158">
        <ele>400.52999999999997</ele>
        <time>2025-04-29T11:46:16Z</time>
      </trkpt>
      <trkpt lat="43.316496005281806" lon="-5.577148972079158">
        <ele>401.49000000000001</ele>
        <time>2025-04-29T11:46:17Z</time>
      </trkpt>
      <trkpt lat="43.316416963934898" lon="-5.577103039249778">
        <ele>401.49000000000001</ele>
        <time>2025-04-29T11:46:18Z</time>
      </trkpt>
      <trkpt lat="43.316314034163952" lon="-5.577042018994689">
        <ele>401.97000000000003</ele>
        <time>2025-04-29T11:46:19Z</time>
      </trkpt>
      <trkpt lat="43.316208003088832" lon="-5.57697999291122">
        <ele>401.97000000000003</ele>
        <time>2025-04-29T11:46:20Z</time>
      </trkpt>
      <trkpt lat="43.316130973398685" lon="-5.576934982091188">
        <ele>402.93000000000001</ele>
        <time>2025-04-29T11:46:21Z</time>
      </trkpt>
      <trkpt lat="43.316024020314217" lon="-5.576977981254458">
        <ele>402.93000000000001</ele>
        <time>2025-04-29T11:46:22Z</time>
      </trkpt>
      <trkpt lat="43.315973980352283" lon="-5.577031038701534">
        <ele>403.88999999999999</ele>
        <time>2025-04-29T11:46:23Z</time>
      </trkpt>
      <trkpt lat="43.315878007560968" lon="-5.577132040634751">
        <ele>404.37</ele>
        <time>2025-04-29T11:46:24Z</time>
      </trkpt>
      <trkpt lat="43.315765019506216" lon="-5.577251985669136">
        <ele>405.32999999999998</ele>
        <time>2025-04-29T11:46:25Z</time>
      </trkpt>
      <trkpt lat="43.315640967339277" lon="-5.577381988987327">
        <ele>405.81</ele>
        <time>2025-04-29T11:46:26Z</time>
      </trkpt>
      <trkpt lat="43.31551599316299" lon="-5.577515009790659">
        <ele>406.76999999999998</ele>
        <time>2025-04-29T11:46:27Z</time>
      </trkpt>
      <trkpt lat="43.315394958481193" lon="-5.577643001452088">
        <ele>407.74000000000001</ele>
        <time>2025-04-29T11:46:28Z</time>
      </trkpt>
      <trkpt lat="43.315162025392056" lon="-5.57779798284173">
        <ele>409.18000000000001</ele>
        <time>2025-04-29T11:46:30Z</time>
      </trkpt>
      <trkpt lat="43.315038979053497" lon="-5.577826984226704">
        <ele>410.13999999999999</ele>
        <time>2025-04-29T11:46:31Z</time>
      </trkpt>
      <trkpt lat="43.314901012927294" lon="-5.577856991440058">
        <ele>411.10000000000002</ele>
        <time>2025-04-29T11:46:32Z</time>
      </trkpt>
      <trkpt lat="43.314543021842837" lon="-5.577814998105168">
        <ele>415.43000000000001</ele>
        <time>2025-04-29T11:46:35Z</time>
      </trkpt>
      <trkpt lat="43.314483007416129" lon="-5.577741991728544">
        <ele>416.87</ele>
        <time>2025-04-29T11:46:36Z</time>
      </trkpt>
      <trkpt lat="43.314435984939337" lon="-5.577683988958597">
        <ele>417.82999999999998</ele>
        <time>2025-04-29T11:46:37Z</time>
      </trkpt>
      <trkpt lat="43.31442198716104" lon="-5.577561026439071">
        <ele>419.26999999999998</ele>
        <time>2025-04-29T11:46:38Z</time>
      </trkpt>
      <trkpt lat="43.314405977725983" lon="-5.577411996200681">
        <ele>420.23000000000002</ele>
        <time>2025-04-29T11:46:39Z</time>
      </trkpt>
      <trkpt lat="43.314402038231492" lon="-5.577273024246097">
        <ele>421.19</ele>
        <time>2025-04-29T11:46:40Z</time>
      </trkpt>
      <trkpt lat="43.314456017687917" lon="-5.577111002057791">
        <ele>422.16000000000003</ele>
        <time>2025-04-29T11:46:41Z</time>
      </trkpt>
      <trkpt lat="43.314514020457864" lon="-5.57693699374795">
        <ele>423.60000000000002</ele>
        <time>2025-04-29T11:46:42Z</time>
      </trkpt>
      <trkpt lat="43.314584009349346" lon="-5.576767008751631">
        <ele>424.56</ele>
        <time>2025-04-29T11:46:43Z</time>
      </trkpt>
      <trkpt lat="43.314652992412448" lon="-5.576601969078183">
        <ele>425.51999999999998</ele>
        <time>2025-04-29T11:46:44Z</time>
      </trkpt>
      <trkpt lat="43.314713006839156" lon="-5.576461991295219">
        <ele>426.95999999999998</ele>
        <time>2025-04-29T11:46:45Z</time>
      </trkpt>
      <trkpt lat="43.314758017659187" lon="-5.576355960220099">
        <ele>427.92000000000002</ele>
        <time>2025-04-29T11:46:46Z</time>
      </trkpt>
      <trkpt lat="43.314745025709271" lon="-5.576183963567019">
        <ele>428.88999999999999</ele>
        <time>2025-04-29T11:46:47Z</time>
      </trkpt>
      <trkpt lat="43.314724992960691" lon="-5.576062006875873">
        <ele>429.37</ele>
        <time>2025-04-29T11:46:48Z</time>
      </trkpt>
      <trkpt lat="43.314660033211112" lon="-5.575973996892571">
        <ele>430.32999999999998</ele>
        <time>2025-04-29T11:46:49Z</time>
      </trkpt>
      <trkpt lat="43.314577974379063" lon="-5.575879029929638">
        <ele>431.29000000000002</ele>
        <time>2025-04-29T11:46:50Z</time>
      </trkpt>
      <trkpt lat="43.314478984102607" lon="-5.575791019946337">
        <ele>431.76999999999998</ele>
        <time>2025-04-29T11:46:51Z</time>
      </trkpt>
      <trkpt lat="43.314372031018138" lon="-5.575695969164372">
        <ele>432.73000000000002</ele>
        <time>2025-04-29T11:46:52Z</time>
      </trkpt>
      <trkpt lat="43.313741041347384" lon="-5.5751349683851">
        <ele>434.64999999999998</ele>
        <time>2025-04-29T11:46:58Z</time>
      </trkpt>
      <trkpt lat="43.313672980293632" lon="-5.575074031949043">
        <ele>434.64999999999998</ele>
        <time>2025-04-29T11:46:59Z</time>
      </trkpt>
      <trkpt lat="43.313641967251897" lon="-5.574977975338697">
        <ele>434.64999999999998</ele>
        <time>2025-04-29T11:47:00Z</time>
      </trkpt>
      <trkpt lat="43.313641967251897" lon="-5.574868004769087">
        <ele>434.64999999999998</ele>
        <time>2025-04-29T11:47:01Z</time>
      </trkpt>
      <trkpt lat="43.313641967251897" lon="-5.574744958430529">
        <ele>434.17000000000002</ele>
        <time>2025-04-29T11:47:02Z</time>
      </trkpt>
      <trkpt lat="43.313641967251897" lon="-5.574619984254241">
        <ele>433.69</ele>
        <time>2025-04-29T11:47:03Z</time>
      </trkpt>
      <trkpt lat="43.313630986958742" lon="-5.574492998421192">
        <ele>433.69</ele>
        <time>2025-04-29T11:47:04Z</time>
      </trkpt>
      <trkpt lat="43.313553035259247" lon="-5.574371963739395">
        <ele>433.20999999999998</ele>
        <time>2025-04-29T11:47:05Z</time>
      </trkpt>
      <trkpt lat="43.313468964770436" lon="-5.574241038411856">
        <ele>433.20999999999998</ele>
        <time>2025-04-29T11:47:06Z</time>
      </trkpt>
      <trkpt lat="43.31326100975275" lon="-5.574022019281983">
        <ele>433.69</ele>
        <time>2025-04-29T11:47:08Z</time>
      </trkpt>
      <trkpt lat="43.313079038634896" lon="-5.573839964345098">
        <ele>434.64999999999998</ele>
        <time>2025-04-29T11:47:10Z</time>
      </trkpt>
      <trkpt lat="43.31302497535944" lon="-5.573753966018558">
        <ele>435.13</ele>
        <time>2025-04-29T11:47:11Z</time>
      </trkpt>
      <trkpt lat="43.312995973974466" lon="-5.573609964922071">
        <ele>436.10000000000002</ele>
        <time>2025-04-29T11:47:12Z</time>
      </trkpt>
      <trkpt lat="43.312989016994834" lon="-5.573452971875668">
        <ele>436.57999999999998</ele>
        <time>2025-04-29T11:47:13Z</time>
      </trkpt>
      <trkpt lat="43.31298197619617" lon="-5.573300002142787">
        <ele>437.54000000000002</ele>
        <time>2025-04-29T11:47:14Z</time>
      </trkpt>
      <trkpt lat="43.312963033095002" lon="-5.573137979954481">
        <ele>438.01999999999998</ele>
        <time>2025-04-29T11:47:15Z</time>
      </trkpt>
      <trkpt lat="43.312911987304688" lon="-5.572987021878362">
        <ele>438.98000000000002</ele>
        <time>2025-04-29T11:47:16Z</time>
      </trkpt>
      <trkpt lat="43.31283101812005" lon="-5.572889037430286">
        <ele>439.45999999999998</ele>
        <time>2025-04-29T11:47:17Z</time>
      </trkpt>
      <trkpt lat="43.312733033671975" lon="-5.572807984426618">
        <ele>440.89999999999998</ele>
        <time>2025-04-29T11:47:18Z</time>
      </trkpt>
      <trkpt lat="43.312628008425236" lon="-5.572736989706755">
        <ele>441.86000000000001</ele>
        <time>2025-04-29T11:47:19Z</time>
      </trkpt>
      <trkpt lat="43.312518959864974" lon="-5.572660965844989">
        <ele>443.31</ele>
        <time>2025-04-29T11:47:20Z</time>
      </trkpt>
      <trkpt lat="43.31240102648735" lon="-5.572581002488732">
        <ele>444.75</ele>
        <time>2025-04-29T11:47:21Z</time>
      </trkpt>
      <trkpt lat="43.311908002942801" lon="-5.572280008345842">
        <ele>449.55000000000001</ele>
        <time>2025-04-29T11:47:25Z</time>
      </trkpt>
      <trkpt lat="43.311754027381539" lon="-5.572213958948851">
        <ele>450.02999999999997</ele>
        <time>2025-04-29T11:47:26Z</time>
      </trkpt>
      <trkpt lat="43.311641039326787" lon="-5.572228962555528">
        <ele>451</ele>
        <time>2025-04-29T11:47:27Z</time>
      </trkpt>
      <trkpt lat="43.311500977724791" lon="-5.572246983647347">
        <ele>451.48000000000002</ele>
        <time>2025-04-29T11:47:28Z</time>
      </trkpt>
      <trkpt lat="43.311367034912109" lon="-5.572263998910785">
        <ele>452.44</ele>
        <time>2025-04-29T11:47:29Z</time>
      </trkpt>
      <trkpt lat="43.311242982745171" lon="-5.572260981425643">
        <ele>453.39999999999998</ele>
        <time>2025-04-29T11:47:30Z</time>
      </trkpt>
      <trkpt lat="43.311152961105108" lon="-5.572170959785581">
        <ele>453.39999999999998</ele>
        <time>2025-04-29T11:47:31Z</time>
      </trkpt>
      <trkpt lat="43.311114991083741" lon="-5.572096025571227">
        <ele>453.39999999999998</ele>
        <time>2025-04-29T11:47:32Z</time>
      </trkpt>
      <trkpt lat="43.311056988313794" lon="-5.571980020031333">
        <ele>453.39999999999998</ele>
        <time>2025-04-29T11:47:33Z</time>
      </trkpt>
      <trkpt lat="43.310917010530829" lon="-5.571764018386602">
        <ele>453.39999999999998</ele>
        <time>2025-04-29T11:47:35Z</time>
      </trkpt>
      <trkpt lat="43.310803016647696" lon="-5.571731999516487">
        <ele>453.39999999999998</ele>
        <time>2025-04-29T11:47:36Z</time>
      </trkpt>
      <trkpt lat="43.310577962547541" lon="-5.571669973433018">
        <ele>453.88</ele>
        <time>2025-04-29T11:47:38Z</time>
      </trkpt>
      <trkpt lat="43.310443013906479" lon="-5.571541981771588">
        <ele>453.39999999999998</ele>
        <time>2025-04-29T11:47:39Z</time>
      </trkpt>
      <trkpt lat="43.310348968952894" lon="-5.571419019252062">
        <ele>453.39999999999998</ele>
        <time>2025-04-29T11:47:40Z</time>
      </trkpt>
      <trkpt lat="43.310260036960244" lon="-5.571302007883787">
        <ele>453.39999999999998</ele>
        <time>2025-04-29T11:47:41Z</time>
      </trkpt>
      <trkpt lat="43.310178983956575" lon="-5.571239981800318">
        <ele>453.88</ele>
        <time>2025-04-29T11:47:42Z</time>
      </trkpt>
      <trkpt lat="43.310096003115177" lon="-5.571184996515513">
        <ele>454.36000000000001</ele>
        <time>2025-04-29T11:47:43Z</time>
      </trkpt>
      <trkpt lat="43.309976980090141" lon="-5.571197988465428">
        <ele>454.83999999999997</ele>
        <time>2025-04-29T11:47:44Z</time>
      </trkpt>
      <trkpt lat="43.309853011742234" lon="-5.571212992072105">
        <ele>456.27999999999997</ele>
        <time>2025-04-29T11:47:45Z</time>
      </trkpt>
      <trkpt lat="43.309614965692163" lon="-5.571239981800318">
        <ele>459.64999999999998</ele>
        <time>2025-04-29T11:47:47Z</time>
      </trkpt>
      <trkpt lat="43.309502983465791" lon="-5.571270994842053">
        <ele>461.08999999999997</ele>
        <time>2025-04-29T11:47:48Z</time>
      </trkpt>
      <trkpt lat="43.309382032603025" lon="-5.571337966248393">
        <ele>462.52999999999997</ele>
        <time>2025-04-29T11:47:49Z</time>
      </trkpt>
      <trkpt lat="43.309137029573321" lon="-5.571494959294796">
        <ele>465.42000000000002</ele>
        <time>2025-04-29T11:47:51Z</time>
      </trkpt>
      <trkpt lat="43.309053964912891" lon="-5.571622028946877">
        <ele>467.33999999999997</ele>
        <time>2025-04-29T11:47:52Z</time>
      </trkpt>
      <trkpt lat="43.308977019041777" lon="-5.571741973981261">
        <ele>468.77999999999997</ele>
        <time>2025-04-29T11:47:53Z</time>
      </trkpt>
      <trkpt lat="43.308913987129927" lon="-5.571869965642691">
        <ele>469.74000000000001</ele>
        <time>2025-04-29T11:47:54Z</time>
      </trkpt>
      <trkpt lat="43.308886997401714" lon="-5.572026036679745">
        <ele>471.18000000000001</ele>
        <time>2025-04-29T11:47:55Z</time>
      </trkpt>
      <trkpt lat="43.30885699018836" lon="-5.572194010019302">
        <ele>472.63</ele>
        <time>2025-04-29T11:47:56Z</time>
      </trkpt>
      <trkpt lat="43.308622967451811" lon="-5.573376026004553">
        <ele>480.80000000000001</ele>
        <time>2025-04-29T11:48:03Z</time>
      </trkpt>
      <trkpt lat="43.30857896246016" lon="-5.573546011000872">
        <ele>481.75999999999999</ele>
        <time>2025-04-29T11:48:04Z</time>
      </trkpt>
      <trkpt lat="43.308519031852484" lon="-5.573698980733752">
        <ele>483.19999999999999</ele>
        <time>2025-04-29T11:48:05Z</time>
      </trkpt>
      <trkpt lat="43.308439990505576" lon="-5.573842981830239">
        <ele>484.16000000000003</ele>
        <time>2025-04-29T11:48:06Z</time>
      </trkpt>
      <trkpt lat="43.30836396664381" lon="-5.573981031775475">
        <ele>485.12</ele>
        <time>2025-04-29T11:48:07Z</time>
      </trkpt>
      <trkpt lat="43.308280985802412" lon="-5.574110029265285">
        <ele>486.07999999999998</ele>
        <time>2025-04-29T11:48:08Z</time>
      </trkpt>
      <trkpt lat="43.307786034420133" lon="-5.574738001450896">
        <ele>491.37</ele>
        <time>2025-04-29T11:48:14Z</time>
      </trkpt>
      <trkpt lat="43.307744963094592" lon="-5.574859036132693">
        <ele>491.85000000000002</ele>
        <time>2025-04-29T11:48:15Z</time>
      </trkpt>
      <trkpt lat="43.30771503970027" lon="-5.575012005865574">
        <ele>492.81</ele>
        <time>2025-04-29T11:48:16Z</time>
      </trkpt>
      <trkpt lat="43.307648990303278" lon="-5.575350970029831">
        <ele>493.76999999999998</ele>
        <time>2025-04-29T11:48:18Z</time>
      </trkpt>
      <trkpt lat="43.307612026110291" lon="-5.575539981946349">
        <ele>494.25999999999999</ele>
        <time>2025-04-29T11:48:19Z</time>
      </trkpt>
      <trkpt lat="43.307536002248526" lon="-5.575702004134655">
        <ele>495.69999999999999</ele>
        <time>2025-04-29T11:48:20Z</time>
      </trkpt>
      <trkpt lat="43.307456960901618" lon="-5.575870983302593">
        <ele>497.13999999999999</ele>
        <time>2025-04-29T11:48:21Z</time>
      </trkpt>
      <trkpt lat="43.307347996160388" lon="-5.575997969135642">
        <ele>498.57999999999998</ele>
        <time>2025-04-29T11:48:22Z</time>
      </trkpt>
      <trkpt lat="43.307241965085268" lon="-5.576104000210762">
        <ele>499.54000000000002</ele>
        <time>2025-04-29T11:48:23Z</time>
      </trkpt>
      <trkpt lat="43.307163007557392" lon="-5.576224029064179">
        <ele>500.5</ele>
        <time>2025-04-29T11:48:24Z</time>
      </trkpt>
      <trkpt lat="43.307100981473923" lon="-5.576349003240466">
        <ele>501.94999999999999</ele>
        <time>2025-04-29T11:48:25Z</time>
      </trkpt>
      <trkpt lat="43.307103998959064" lon="-5.576490992680192">
        <ele>502.91000000000003</ele>
        <time>2025-04-29T11:48:26Z</time>
      </trkpt>
      <trkpt lat="43.307111961767077" lon="-5.576668018475175">
        <ele>503.87</ele>
        <time>2025-04-29T11:48:27Z</time>
      </trkpt>
      <trkpt lat="43.307120008394122" lon="-5.576856024563313">
        <ele>504.82999999999998</ele>
        <time>2025-04-29T11:48:28Z</time>
      </trkpt>
      <trkpt lat="43.307128977030516" lon="-5.577045036479831">
        <ele>506.26999999999998</ele>
        <time>2025-04-29T11:48:29Z</time>
      </trkpt>
      <trkpt lat="43.30713702365756" lon="-5.577226001769304">
        <ele>507.70999999999998</ele>
        <time>2025-04-29T11:48:30Z</time>
      </trkpt>
      <trkpt lat="43.307103998959064" lon="-5.577408978715539">
        <ele>508.67000000000002</ele>
        <time>2025-04-29T11:48:31Z</time>
      </trkpt>
      <trkpt lat="43.307053036987782" lon="-5.577561026439071">
        <ele>510.12</ele>
        <time>2025-04-29T11:48:32Z</time>
      </trkpt>
      <trkpt lat="43.307011965662241" lon="-5.577686000615358">
        <ele>511.56</ele>
        <time>2025-04-29T11:48:33Z</time>
      </trkpt>
      <trkpt lat="43.306955974549055" lon="-5.577778033912182">
        <ele>513</ele>
        <time>2025-04-29T11:48:34Z</time>
      </trkpt>
      <trkpt lat="43.306896965950727" lon="-5.577809968963265">
        <ele>514.91999999999996</ele>
        <time>2025-04-29T11:48:35Z</time>
      </trkpt>
      <trkpt lat="43.306810967624187" lon="-5.577834025025368">
        <ele>517.33000000000004</ele>
        <time>2025-04-29T11:48:36Z</time>
      </trkpt>
      <trkpt lat="43.306712983176112" lon="-5.577805023640394">
        <ele>519.25</ele>
        <time>2025-04-29T11:48:37Z</time>
      </trkpt>
      <trkpt lat="43.306606030091643" lon="-5.57777401059866">
        <ele>520.69000000000005</ele>
        <time>2025-04-29T11:48:38Z</time>
      </trkpt>
      <trkpt lat="43.306504022330046" lon="-5.577744003385305">
        <ele>522.61000000000001</ele>
        <time>2025-04-29T11:48:39Z</time>
      </trkpt>
      <trkpt lat="43.3064079657197" lon="-5.57777401059866">
        <ele>524.05999999999995</ele>
        <time>2025-04-29T11:48:40Z</time>
      </trkpt>
      <trkpt lat="43.30631903372705" lon="-5.577864032238722">
        <ele>525.98000000000002</ele>
        <time>2025-04-29T11:48:41Z</time>
      </trkpt>
      <trkpt lat="43.306222977116704" lon="-5.577960005030036">
        <ele>527.41999999999996</ele>
        <time>2025-04-29T11:48:42Z</time>
      </trkpt>
      <trkpt lat="43.306132033467293" lon="-5.578051032498479">
        <ele>529.82000000000005</ele>
        <time>2025-04-29T11:48:43Z</time>
      </trkpt>
      <trkpt lat="43.306029019877315" lon="-5.578036028891802">
        <ele>530.78999999999996</ele>
        <time>2025-04-29T11:48:44Z</time>
      </trkpt>
      <trkpt lat="43.305970011278987" lon="-5.578014990314841">
        <ele>531.75</ele>
        <time>2025-04-29T11:48:45Z</time>
      </trkpt>
      <trkpt lat="43.305904967710376" lon="-5.577937038615346">
        <ele>532.71000000000004</ele>
        <time>2025-04-29T11:48:46Z</time>
      </trkpt>
      <trkpt lat="43.305860040709376" lon="-5.577834025025368">
        <ele>533.19000000000005</ele>
        <time>2025-04-29T11:48:47Z</time>
      </trkpt>
      <trkpt lat="43.305828021839261" lon="-5.577681977301836">
        <ele>533.66999999999996</ele>
        <time>2025-04-29T11:48:48Z</time>
      </trkpt>
      <trkpt lat="43.305792985484004" lon="-5.577520038932562">
        <ele>533.66999999999996</ele>
        <time>2025-04-29T11:48:49Z</time>
      </trkpt>
      <trkpt lat="43.305756021291018" lon="-5.577347036451101">
        <ele>533.66999999999996</ele>
        <time>2025-04-29T11:48:50Z</time>
      </trkpt>
      <trkpt lat="43.30571997910738" lon="-5.577178979292512">
        <ele>533.66999999999996</ele>
        <time>2025-04-29T11:48:51Z</time>
      </trkpt>
      <trkpt lat="43.305688966065645" lon="-5.577034978196025">
        <ele>533.19000000000005</ele>
        <time>2025-04-29T11:48:52Z</time>
      </trkpt>
      <trkpt lat="43.305620988830924" lon="-5.576921990141273">
        <ele>533.19000000000005</ele>
        <time>2025-04-29T11:48:53Z</time>
      </trkpt>
      <trkpt lat="43.305558962747455" lon="-5.576842026785016">
        <ele>532.71000000000004</ele>
        <time>2025-04-29T11:48:54Z</time>
      </trkpt>
      <trkpt lat="43.305478999391198" lon="-5.576798021793366">
        <ele>532.71000000000004</ele>
        <time>2025-04-29T11:48:55Z</time>
      </trkpt>
      <trkpt lat="43.305382020771503" lon="-5.576789975166321">
        <ele>533.19000000000005</ele>
        <time>2025-04-29T11:48:56Z</time>
      </trkpt>
      <trkpt lat="43.305278001353145" lon="-5.576816964894533">
        <ele>534.14999999999998</ele>
        <time>2025-04-29T11:48:57Z</time>
      </trkpt>
      <trkpt lat="43.305161995813251" lon="-5.576847977936268">
        <ele>535.11000000000001</ele>
        <time>2025-04-29T11:48:58Z</time>
      </trkpt>
      <trkpt lat="43.304926967248321" lon="-5.576888965442777">
        <ele>537.02999999999997</ele>
        <time>2025-04-29T11:49:00Z</time>
      </trkpt>
      <trkpt lat="43.304798975586891" lon="-5.576884020119906">
        <ele>537.99000000000001</ele>
        <time>2025-04-29T11:49:01Z</time>
      </trkpt>
      <trkpt lat="43.304552966728806" lon="-5.5768739618361">
        <ele>540.39999999999998</ele>
        <time>2025-04-29T11:49:03Z</time>
      </trkpt>
      <trkpt lat="43.304421035572886" lon="-5.576907992362976">
        <ele>541.36000000000001</ele>
        <time>2025-04-29T11:49:04Z</time>
      </trkpt>
      <trkpt lat="43.30430100671947" lon="-5.576984016224742">
        <ele>542.32000000000005</ele>
        <time>2025-04-29T11:49:05Z</time>
      </trkpt>
      <trkpt lat="43.304166980087757" lon="-5.577069008722901">
        <ele>544.24000000000001</ele>
        <time>2025-04-29T11:49:06Z</time>
      </trkpt>
      <trkpt lat="43.304033037275076" lon="-5.577155007049441">
        <ele>545.69000000000005</ele>
        <time>2025-04-29T11:49:07Z</time>
      </trkpt>
      <trkpt lat="43.303909990936518" lon="-5.577232958748937">
        <ele>546.64999999999998</ele>
        <time>2025-04-29T11:49:08Z</time>
      </trkpt>
      <trkpt lat="43.303804965689778" lon="-5.577300013974309">
        <ele>547.13</ele>
        <time>2025-04-29T11:49:09Z</time>
      </trkpt>
      <trkpt lat="43.303732965141535" lon="-5.577296996489167">
        <ele>547.61000000000001</ele>
        <time>2025-04-29T11:49:10Z</time>
      </trkpt>
      <trkpt lat="43.303659036755562" lon="-5.577250979840756">
        <ele>548.57000000000005</ele>
        <time>2025-04-29T11:49:11Z</time>
      </trkpt>
      <trkpt lat="43.303600028157234" lon="-5.577214015647769">
        <ele>549.52999999999997</ele>
        <time>2025-04-29T11:49:12Z</time>
      </trkpt>
      <trkpt lat="43.303583012893796" lon="-5.577113013714552">
        <ele>550.00999999999999</ele>
        <time>2025-04-29T11:49:13Z</time>
      </trkpt>
      <trkpt lat="43.303562980145216" lon="-5.576993990689516">
        <ele>550.49000000000001</ele>
        <time>2025-04-29T11:49:14Z</time>
      </trkpt>
      <trkpt lat="43.303540013730526" lon="-5.576856024563313">
        <ele>550.97000000000003</ele>
        <time>2025-04-29T11:49:15Z</time>
      </trkpt>
      <trkpt lat="43.303515035659075" lon="-5.57670196518302">
        <ele>551.45000000000005</ele>
        <time>2025-04-29T11:49:16Z</time>
      </trkpt>
      <trkpt lat="43.303478993475437" lon="-5.576534997671843">
        <ele>551.92999999999995</ele>
        <time>2025-04-29T11:49:17Z</time>
      </trkpt>
      <trkpt lat="43.30341998487711" lon="-5.576376998797059">
        <ele>552.40999999999997</ele>
        <time>2025-04-29T11:49:18Z</time>
      </trkpt>
      <trkpt lat="43.303359970450401" lon="-5.576215982437134">
        <ele>552.40999999999997</ele>
        <time>2025-04-29T11:49:19Z</time>
      </trkpt>
      <trkpt lat="43.303111027926207" lon="-5.575547022745013">
        <ele>554.82000000000005</ele>
        <time>2025-04-29T11:49:23Z</time>
      </trkpt>
      <trkpt lat="43.303008014336228" lon="-5.575215015560389">
        <ele>556.25999999999999</ele>
        <time>2025-04-29T11:49:25Z</time>
      </trkpt>
      <trkpt lat="43.302983958274126" lon="-5.57504796423018">
        <ele>557.22000000000003</ele>
        <time>2025-04-29T11:49:26Z</time>
      </trkpt>
      <trkpt lat="43.302993010729551" lon="-5.574894994497299">
        <ele>557.70000000000005</ele>
        <time>2025-04-29T11:49:27Z</time>
      </trkpt>
      <trkpt lat="43.30301396548748" lon="-5.574750993400812">
        <ele>557.70000000000005</ele>
        <time>2025-04-29T11:49:28Z</time>
      </trkpt>
      <trkpt lat="43.30303399823606" lon="-5.574607998132706">
        <ele>558.17999999999995</ele>
        <time>2025-04-29T11:49:29Z</time>
      </trkpt>
      <trkpt lat="43.30305302515626" lon="-5.574476988986135">
        <ele>558.65999999999997</ele>
        <time>2025-04-29T11:49:30Z</time>
      </trkpt>
      <trkpt lat="43.303047996014357" lon="-5.574350003153086">
        <ele>559.13999999999999</ele>
        <time>2025-04-29T11:49:31Z</time>
      </trkpt>
      <trkpt lat="43.303000973537564" lon="-5.574227962642908">
        <ele>560.11000000000001</ele>
        <time>2025-04-29T11:49:32Z</time>
      </trkpt>
      <trkpt lat="43.302920004352927" lon="-5.5741230212152">
        <ele>560.59000000000003</ele>
        <time>2025-04-29T11:49:33Z</time>
      </trkpt>
      <trkpt lat="43.302812967449427" lon="-5.574027970433235">
        <ele>561.54999999999995</ele>
        <time>2025-04-29T11:49:34Z</time>
      </trkpt>
      <trkpt lat="43.3027090318501" lon="-5.573969967663288">
        <ele>562.50999999999999</ele>
        <time>2025-04-29T11:49:35Z</time>
      </trkpt>
      <trkpt lat="43.302598977461457" lon="-5.573964016512036">
        <ele>563.47000000000003</ele>
        <time>2025-04-29T11:49:36Z</time>
      </trkpt>
      <trkpt lat="43.302504010498524" lon="-5.573979020118713">
        <ele>564.42999999999995</ele>
        <time>2025-04-29T11:49:37Z</time>
      </trkpt>
      <trkpt lat="43.302390016615391" lon="-5.574000980705023">
        <ele>564.90999999999997</ele>
        <time>2025-04-29T11:49:38Z</time>
      </trkpt>
      <trkpt lat="43.302277028560638" lon="-5.574078010395169">
        <ele>565.87</ele>
        <time>2025-04-29T11:49:39Z</time>
      </trkpt>
      <trkpt lat="43.301888024434447" lon="-5.574300969019532">
        <ele>568.27999999999997</ele>
        <time>2025-04-29T11:49:42Z</time>
      </trkpt>
      <trkpt lat="43.301737988367677" lon="-5.574340028688312">
        <ele>569.24000000000001</ele>
        <time>2025-04-29T11:49:43Z</time>
      </trkpt>
      <trkpt lat="43.301588036119938" lon="-5.574377998709679">
        <ele>570.20000000000005</ele>
        <time>2025-04-29T11:49:44Z</time>
      </trkpt>
      <trkpt lat="43.301167013123631" lon="-5.574409011751413">
        <ele>574.52999999999997</ele>
        <time>2025-04-29T11:49:47Z</time>
      </trkpt>
      <trkpt lat="43.30103499814868" lon="-5.57438001036644">
        <ele>576.45000000000005</ele>
        <time>2025-04-29T11:49:48Z</time>
      </trkpt>
      <trkpt lat="43.300894014537334" lon="-5.574280014261603">
        <ele>577.88999999999999</ele>
        <time>2025-04-29T11:49:49Z</time>
      </trkpt>
      <trkpt lat="43.30075797624886" lon="-5.574183035641909">
        <ele>579.80999999999995</ele>
        <time>2025-04-29T11:49:50Z</time>
      </trkpt>
      <trkpt lat="43.300642976537347" lon="-5.57410198263824">
        <ele>581.25</ele>
        <time>2025-04-29T11:49:51Z</time>
      </trkpt>
      <trkpt lat="43.300522025674582" lon="-5.57405898347497">
        <ele>583.17999999999995</ele>
        <time>2025-04-29T11:49:52Z</time>
      </trkpt>
      <trkpt lat="43.300441978499293" lon="-5.574113968759775">
        <ele>584.13999999999999</ele>
        <time>2025-04-29T11:49:53Z</time>
      </trkpt>
      <trkpt lat="43.300350029021502" lon="-5.574175994843245">
        <ele>585.58000000000004</ele>
        <time>2025-04-29T11:49:54Z</time>
      </trkpt>
      <trkpt lat="43.300245003774762" lon="-5.574247995391488">
        <ele>586.53999999999996</ele>
        <time>2025-04-29T11:49:55Z</time>
      </trkpt>
      <trkpt lat="43.300136039033532" lon="-5.574322007596493">
        <ele>587.5</ele>
        <time>2025-04-29T11:49:56Z</time>
      </trkpt>
      <trkpt lat="43.300029002130032" lon="-5.574353020638228">
        <ele>588.46000000000004</ele>
        <time>2025-04-29T11:49:57Z</time>
      </trkpt>
      <trkpt lat="43.299931017681956" lon="-5.574339022859931">
        <ele>589.90999999999997</ele>
        <time>2025-04-29T11:49:58Z</time>
      </trkpt>
      <trkpt lat="43.299845019355416" lon="-5.57427397929132">
        <ele>590.87</ele>
        <time>2025-04-29T11:49:59Z</time>
      </trkpt>
      <trkpt lat="43.299787016585469" lon="-5.574151016771793">
        <ele>592.30999999999995</ele>
        <time>2025-04-29T11:50:00Z</time>
      </trkpt>
      <trkpt lat="43.299720967188478" lon="-5.574011960998178">
        <ele>593.26999999999998</ele>
        <time>2025-04-29T11:50:01Z</time>
      </trkpt>
      <trkpt lat="43.299648966640234" lon="-5.573884975165129">
        <ele>594.23000000000002</ele>
        <time>2025-04-29T11:50:02Z</time>
      </trkpt>
      <trkpt lat="43.299566991627216" lon="-5.573804005980492">
        <ele>595.19000000000005</ele>
        <time>2025-04-29T11:50:03Z</time>
      </trkpt>
      <trkpt lat="43.299414021894336" lon="-5.573627986013889">
        <ele>596.63999999999999</ele>
        <time>2025-04-29T11:50:05Z</time>
      </trkpt>
      <trkpt lat="43.299373034387827" lon="-5.573503011837602">
        <ele>597.12</ele>
        <time>2025-04-29T11:50:06Z</time>
      </trkpt>
      <trkpt lat="43.299373034387827" lon="-5.573367979377508">
        <ele>598.08000000000004</ele>
        <time>2025-04-29T11:50:07Z</time>
      </trkpt>
      <trkpt lat="43.299373034387827" lon="-5.573217021301389">
        <ele>599.03999999999996</ele>
        <time>2025-04-29T11:50:08Z</time>
      </trkpt>
      <trkpt lat="43.299373034387827" lon="-5.573053993284702">
        <ele>599.51999999999998</ele>
        <time>2025-04-29T11:50:09Z</time>
      </trkpt>
      <trkpt lat="43.299373034387827" lon="-5.572876967489719">
        <ele>600.48000000000002</ele>
        <time>2025-04-29T11:50:10Z</time>
      </trkpt>
      <trkpt lat="43.299373034387827" lon="-5.572685021907091">
        <ele>600.96000000000004</ele>
        <time>2025-04-29T11:50:11Z</time>
      </trkpt>
      <trkpt lat="43.299373034387827" lon="-5.572488969191909">
        <ele>601.91999999999996</ele>
        <time>2025-04-29T11:50:12Z</time>
      </trkpt>
      <trkpt lat="43.299373034387827" lon="-5.572291994467378">
        <ele>602.88</ele>
        <time>2025-04-29T11:50:13Z</time>
      </trkpt>
      <trkpt lat="43.299354007467628" lon="-5.572107005864382">
        <ele>603.85000000000002</ele>
        <time>2025-04-29T11:50:14Z</time>
      </trkpt>
      <trkpt lat="43.299306984990835" lon="-5.571940960362554">
        <ele>604.80999999999995</ele>
        <time>2025-04-29T11:50:15Z</time>
      </trkpt>
      <trkpt lat="43.299261974170804" lon="-5.57178296148777">
        <ele>605.76999999999998</ele>
        <time>2025-04-29T11:50:16Z</time>
      </trkpt>
      <trkpt lat="43.299219980835915" lon="-5.571637032553554">
        <ele>606.73000000000002</ele>
        <time>2025-04-29T11:50:17Z</time>
      </trkpt>
      <trkpt lat="43.29918603412807" lon="-5.57148196734488">
        <ele>607.21000000000004</ele>
        <time>2025-04-29T11:50:18Z</time>
      </trkpt>
      <trkpt lat="43.299158038571477" lon="-5.571311982348561">
        <ele>608.16999999999996</ele>
        <time>2025-04-29T11:50:19Z</time>
      </trkpt>
      <trkpt lat="43.299129037186503" lon="-5.571140991523862">
        <ele>609.13</ele>
        <time>2025-04-29T11:50:20Z</time>
      </trkpt>
      <trkpt lat="43.299076985567808" lon="-5.570974024012685">
        <ele>610.09000000000003</ele>
        <time>2025-04-29T11:50:21Z</time>
      </trkpt>
      <trkpt lat="43.299000039696693" lon="-5.570812001824379">
        <ele>611.05999999999995</ele>
        <time>2025-04-29T11:50:22Z</time>
      </trkpt>
      <trkpt lat="43.298922004178166" lon="-5.570647967979312">
        <ele>611.53999999999996</ele>
        <time>2025-04-29T11:50:23Z</time>
      </trkpt>
      <trkpt lat="43.29882200807333" lon="-5.570494998246431">
        <ele>612.5</ele>
        <time>2025-04-29T11:50:24Z</time>
      </trkpt>
      <trkpt lat="43.298727963119745" lon="-5.570352002978325">
        <ele>613.46000000000004</ele>
        <time>2025-04-29T11:50:25Z</time>
      </trkpt>
      <trkpt lat="43.29856401309371" lon="-5.570100964978337">
        <ele>614.41999999999996</ele>
        <time>2025-04-29T11:50:27Z</time>
      </trkpt>
      <trkpt lat="43.298492012545466" lon="-5.569971967488527">
        <ele>615.38</ele>
        <time>2025-04-29T11:50:28Z</time>
      </trkpt>
      <trkpt lat="43.298224965110421" lon="-5.569363022223115">
        <ele>619.23000000000002</ele>
        <time>2025-04-29T11:50:32Z</time>
      </trkpt>
      <trkpt lat="43.298008963465691" lon="-5.568971000611782">
        <ele>620.66999999999996</ele>
        <time>2025-04-29T11:50:35Z</time>
      </trkpt>
      <trkpt lat="43.297619037330151" lon="-5.568513013422489">
        <ele>623.07000000000005</ele>
        <time>2025-04-29T11:50:39Z</time>
      </trkpt>
      <trkpt lat="43.297548964619637" lon="-5.568367000669241">
        <ele>624.02999999999997</ele>
        <time>2025-04-29T11:50:40Z</time>
      </trkpt>
      <trkpt lat="43.297494985163212" lon="-5.568224005401135">
        <ele>625.47000000000003</ele>
        <time>2025-04-29T11:50:41Z</time>
      </trkpt>
      <trkpt lat="43.297460032626987" lon="-5.56808796711266">
        <ele>626.91999999999996</ele>
        <time>2025-04-29T11:50:42Z</time>
      </trkpt>
      <trkpt lat="43.297451985999942" lon="-5.567953018471599">
        <ele>628.36000000000001</ele>
        <time>2025-04-29T11:50:43Z</time>
      </trkpt>
      <trkpt lat="43.297444023191929" lon="-5.567824020981789">
        <ele>629.32000000000005</ele>
        <time>2025-04-29T11:50:44Z</time>
      </trkpt>
      <trkpt lat="43.297354001551867" lon="-5.566751975566149">
        <ele>635.09000000000003</ele>
        <time>2025-04-29T11:50:53Z</time>
      </trkpt>
      <trkpt lat="43.29727697186172" lon="-5.566461039707065">
        <ele>635.09000000000003</ele>
        <time>2025-04-29T11:50:55Z</time>
      </trkpt>
      <trkpt lat="43.297215029597282" lon="-5.566318966448307">
        <ele>635.57000000000005</ele>
        <time>2025-04-29T11:50:56Z</time>
      </trkpt>
      <trkpt lat="43.296860978007317" lon="-5.565384970977902">
        <ele>636.52999999999997</ele>
        <time>2025-04-29T11:51:02Z</time>
      </trkpt>
      <trkpt lat="43.296840023249388" lon="-5.565214985981584">
        <ele>637.49000000000001</ele>
        <time>2025-04-29T11:51:03Z</time>
      </trkpt>
      <trkpt lat="43.296786965802312" lon="-5.564854983240366">
        <ele>637.97000000000003</ele>
        <time>2025-04-29T11:51:05Z</time>
      </trkpt>
      <trkpt lat="43.296728963032365" lon="-5.564708970487118">
        <ele>637.97000000000003</ele>
        <time>2025-04-29T11:51:06Z</time>
      </trkpt>
      <trkpt lat="43.29665201716125" lon="-5.564577039331198">
        <ele>638.45000000000005</ele>
        <time>2025-04-29T11:51:07Z</time>
      </trkpt>
      <trkpt lat="43.296556966379285" lon="-5.564476037397981">
        <ele>638.45000000000005</ele>
        <time>2025-04-29T11:51:08Z</time>
      </trkpt>
      <trkpt lat="43.2964370213449" lon="-5.564377969130874">
        <ele>638.92999999999995</ele>
        <time>2025-04-29T11:51:09Z</time>
      </trkpt>
      <trkpt lat="43.296312969177961" lon="-5.564275961369276">
        <ele>639.88999999999999</ele>
        <time>2025-04-29T11:51:10Z</time>
      </trkpt>
      <trkpt lat="43.296196041628718" lon="-5.564179988577962">
        <ele>640.38</ele>
        <time>2025-04-29T11:51:11Z</time>
      </trkpt>
      <trkpt lat="43.296106019988656" lon="-5.564027018845081">
        <ele>640.86000000000001</ele>
        <time>2025-04-29T11:51:12Z</time>
      </trkpt>
      <trkpt lat="43.296038964763284" lon="-5.563859967514873">
        <ele>641.82000000000005</ele>
        <time>2025-04-29T11:51:13Z</time>
      </trkpt>
      <trkpt lat="43.295981967821717" lon="-5.563716972246766">
        <ele>641.82000000000005</ele>
        <time>2025-04-29T11:51:14Z</time>
      </trkpt>
      <trkpt lat="43.295865040272474" lon="-5.563547993078828">
        <ele>642.29999999999995</ele>
        <time>2025-04-29T11:51:15Z</time>
      </trkpt>
      <trkpt lat="43.295761020854115" lon="-5.563420001417399">
        <ele>642.77999999999997</ele>
        <time>2025-04-29T11:51:16Z</time>
      </trkpt>
      <trkpt lat="43.295635962858796" lon="-5.563340038061142">
        <ele>643.25999999999999</ele>
        <time>2025-04-29T11:51:17Z</time>
      </trkpt>
      <trkpt lat="43.295522974804044" lon="-5.563267031684518">
        <ele>643.74000000000001</ele>
        <time>2025-04-29T11:51:18Z</time>
      </trkpt>
      <trkpt lat="43.295437982305884" lon="-5.563163012266159">
        <ele>644.70000000000005</ele>
        <time>2025-04-29T11:51:19Z</time>
      </trkpt>
      <trkpt lat="43.295377967879176" lon="-5.563038038089871">
        <ele>645.17999999999995</ele>
        <time>2025-04-29T11:51:20Z</time>
      </trkpt>
      <trkpt lat="43.295361958444118" lon="-5.562880961224437">
        <ele>645.65999999999997</ele>
        <time>2025-04-29T11:51:21Z</time>
      </trkpt>
      <trkpt lat="43.295345026999712" lon="-5.562710976228118">
        <ele>646.13999999999999</ele>
        <time>2025-04-29T11:51:22Z</time>
      </trkpt>
      <trkpt lat="43.295328011736274" lon="-5.562533028423786">
        <ele>646.13999999999999</ele>
        <time>2025-04-29T11:51:23Z</time>
      </trkpt>
      <trkpt lat="43.295296998694539" lon="-5.562378969043493">
        <ele>646.62</ele>
        <time>2025-04-29T11:51:24Z</time>
      </trkpt>
      <trkpt lat="43.295241007581353" lon="-5.562239997088909">
        <ele>646.62</ele>
        <time>2025-04-29T11:51:25Z</time>
      </trkpt>
      <trkpt lat="43.295150985941291" lon="-5.562160033732653">
        <ele>646.62</ele>
        <time>2025-04-29T11:51:26Z</time>
      </trkpt>
      <trkpt lat="43.295031040906906" lon="-5.562077974900603">
        <ele>647.10000000000002</ele>
        <time>2025-04-29T11:51:27Z</time>
      </trkpt>
      <trkpt lat="43.294904977083206" lon="-5.561991976574063">
        <ele>647.10000000000002</ele>
        <time>2025-04-29T11:51:28Z</time>
      </trkpt>
      <trkpt lat="43.294786037877202" lon="-5.561893992125988">
        <ele>647.10000000000002</ele>
        <time>2025-04-29T11:51:29Z</time>
      </trkpt>
      <trkpt lat="43.294680006802082" lon="-5.561773041263223">
        <ele>647.10000000000002</ele>
        <time>2025-04-29T11:51:30Z</time>
      </trkpt>
      <trkpt lat="43.294572969898582" lon="-5.561652006581426">
        <ele>647.10000000000002</ele>
        <time>2025-04-29T11:51:31Z</time>
      </trkpt>
      <trkpt lat="43.294457970187068" lon="-5.561543963849545">
        <ele>647.10000000000002</ele>
        <time>2025-04-29T11:51:32Z</time>
      </trkpt>
      <trkpt lat="43.294329978525639" lon="-5.561464000493288">
        <ele>647.10000000000002</ele>
        <time>2025-04-29T11:51:33Z</time>
      </trkpt>
      <trkpt lat="43.294197041541338" lon="-5.561433993279934">
        <ele>647.10000000000002</ele>
        <time>2025-04-29T11:51:34Z</time>
      </trkpt>
      <trkpt lat="43.294071983546019" lon="-5.561434999108315">
        <ele>647.10000000000002</ele>
        <time>2025-04-29T11:51:35Z</time>
      </trkpt>
      <trkpt lat="43.293948015198112" lon="-5.561460983008146">
        <ele>646.62</ele>
        <time>2025-04-29T11:51:36Z</time>
      </trkpt>
      <trkpt lat="43.29383703880012" lon="-5.561485039070249">
        <ele>646.62</ele>
        <time>2025-04-29T11:51:37Z</time>
      </trkpt>
      <trkpt lat="43.293697983026505" lon="-5.561472969129682">
        <ele>646.62</ele>
        <time>2025-04-29T11:51:38Z</time>
      </trkpt>
      <trkpt lat="43.293572003021836" lon="-5.561443967744708">
        <ele>647.10000000000002</ele>
        <time>2025-04-29T11:51:39Z</time>
      </trkpt>
      <trkpt lat="43.293449962511659" lon="-5.561358975246549">
        <ele>647.10000000000002</ele>
        <time>2025-04-29T11:51:40Z</time>
      </trkpt>
      <trkpt lat="43.29332297667861" lon="-5.561270965263248">
        <ele>647.59000000000003</ele>
        <time>2025-04-29T11:51:41Z</time>
      </trkpt>
      <trkpt lat="43.293199008330703" lon="-5.561184966936708">
        <ele>648.07000000000005</ele>
        <time>2025-04-29T11:51:42Z</time>
      </trkpt>
      <trkpt lat="43.292947970330715" lon="-5.561087988317013">
        <ele>648.54999999999995</ele>
        <time>2025-04-29T11:51:44Z</time>
      </trkpt>
      <trkpt lat="43.292814027518034" lon="-5.56105999276042">
        <ele>649.02999999999997</ele>
        <time>2025-04-29T11:51:45Z</time>
      </trkpt>
      <trkpt lat="43.29267899505794" lon="-5.561031997203827">
        <ele>649.02999999999997</ele>
        <time>2025-04-29T11:51:46Z</time>
      </trkpt>
      <trkpt lat="43.292561983689666" lon="-5.561030991375446">
        <ele>649.02999999999997</ele>
        <time>2025-04-29T11:51:47Z</time>
      </trkpt>
      <trkpt lat="43.292442038655281" lon="-5.561098968610168">
        <ele>649.02999999999997</ele>
        <time>2025-04-29T11:51:48Z</time>
      </trkpt>
      <trkpt lat="43.292361991479993" lon="-5.561199970543385">
        <ele>649.02999999999997</ele>
        <time>2025-04-29T11:51:49Z</time>
      </trkpt>
      <trkpt lat="43.292267024517059" lon="-5.561321005225182">
        <ele>649.02999999999997</ele>
        <time>2025-04-29T11:51:50Z</time>
      </trkpt>
      <trkpt lat="43.292166022583842" lon="-5.56144799105823">
        <ele>648.54999999999995</ele>
        <time>2025-04-29T11:51:51Z</time>
      </trkpt>
      <trkpt lat="43.292039958760142" lon="-5.561555027961731">
        <ele>648.54999999999995</ele>
        <time>2025-04-29T11:51:52Z</time>
      </trkpt>
      <trkpt lat="43.291897969320416" lon="-5.56164002045989">
        <ele>649.02999999999997</ele>
        <time>2025-04-29T11:51:53Z</time>
      </trkpt>
      <trkpt lat="43.291753968223929" lon="-5.561715960502625">
        <ele>649.02999999999997</ele>
        <time>2025-04-29T11:51:54Z</time>
      </trkpt>
      <trkpt lat="43.291605021804571" lon="-5.561770023778081">
        <ele>649.50999999999999</ele>
        <time>2025-04-29T11:51:55Z</time>
      </trkpt>
      <trkpt lat="43.291450962424278" lon="-5.561801036819816">
        <ele>649.50999999999999</ele>
        <time>2025-04-29T11:51:56Z</time>
      </trkpt>
      <trkpt lat="43.291292041540146" lon="-5.561822997406125">
        <ele>649.99000000000001</ele>
        <time>2025-04-29T11:51:57Z</time>
      </trkpt>
      <trkpt lat="43.290985012426972" lon="-5.56189700961113">
        <ele>650.95000000000005</ele>
        <time>2025-04-29T11:51:59Z</time>
      </trkpt>
      <trkpt lat="43.290846040472388" lon="-5.561958029866219">
        <ele>650.95000000000005</ele>
        <time>2025-04-29T11:52:00Z</time>
      </trkpt>
      <trkpt lat="43.290708996355534" lon="-5.562019972130656">
        <ele>650.95000000000005</ele>
        <time>2025-04-29T11:52:01Z</time>
      </trkpt>
      <trkpt lat="43.290575975552201" lon="-5.56204897351563">
        <ele>650.47000000000003</ele>
        <time>2025-04-29T11:52:02Z</time>
      </trkpt>
      <trkpt lat="43.290451001375914" lon="-5.562075963243842">
        <ele>649.99000000000001</ele>
        <time>2025-04-29T11:52:03Z</time>
      </trkpt>
      <trkpt lat="43.290337007492781" lon="-5.562140000984073">
        <ele>649.99000000000001</ele>
        <time>2025-04-29T11:52:04Z</time>
      </trkpt>
      <trkpt lat="43.29022997058928" lon="-5.562228010967374">
        <ele>649.50999999999999</ele>
        <time>2025-04-29T11:52:05Z</time>
      </trkpt>
      <trkpt lat="43.290115976706147" lon="-5.562320966273546">
        <ele>649.50999999999999</ele>
        <time>2025-04-29T11:52:06Z</time>
      </trkpt>
      <trkpt lat="43.289997959509492" lon="-5.562418028712273">
        <ele>649.50999999999999</ele>
        <time>2025-04-29T11:52:07Z</time>
      </trkpt>
      <trkpt lat="43.289872985333204" lon="-5.562507966533303">
        <ele>649.50999999999999</ele>
        <time>2025-04-29T11:52:08Z</time>
      </trkpt>
      <trkpt lat="43.289737030863762" lon="-5.562592959031463">
        <ele>649.50999999999999</ele>
        <time>2025-04-29T11:52:09Z</time>
      </trkpt>
      <trkpt lat="43.289081985130906" lon="-5.562946004793048">
        <ele>650.95000000000005</ele>
        <time>2025-04-29T11:52:14Z</time>
      </trkpt>
      <trkpt lat="43.288966985419393" lon="-5.56295296177268">
        <ele>650.95000000000005</ele>
        <time>2025-04-29T11:52:15Z</time>
      </trkpt>
      <trkpt lat="43.288861960172653" lon="-5.562958996742964">
        <ele>651.42999999999995</ele>
        <time>2025-04-29T11:52:16Z</time>
      </trkpt>
      <trkpt lat="43.288764981552958" lon="-5.562965031713247">
        <ele>651.90999999999997</ele>
        <time>2025-04-29T11:52:17Z</time>
      </trkpt>
      <trkpt lat="43.288676971569657" lon="-5.562953967601061">
        <ele>651.90999999999997</ele>
        <time>2025-04-29T11:52:18Z</time>
      </trkpt>
      <trkpt lat="43.288290984928608" lon="-5.562943993136287">
        <ele>650.95000000000005</ele>
        <time>2025-04-29T11:52:22Z</time>
      </trkpt>
      <trkpt lat="43.287552036345005" lon="-5.563042983412743">
        <ele>647.10000000000002</ele>
        <time>2025-04-29T11:52:28Z</time>
      </trkpt>
      <trkpt lat="43.287411974743009" lon="-5.563098974525929">
        <ele>646.13999999999999</ele>
        <time>2025-04-29T11:52:29Z</time>
      </trkpt>
      <trkpt lat="43.286152007058263" lon="-5.563486972823739">
        <ele>637.97000000000003</ele>
        <time>2025-04-29T11:52:37Z</time>
      </trkpt>
      <trkpt lat="43.285741964355111" lon="-5.56368000805378">
        <ele>634.13</ele>
        <time>2025-04-29T11:52:40Z</time>
      </trkpt>
      <trkpt lat="43.285649009048939" lon="-5.563760977238417">
        <ele>632.67999999999995</ele>
        <time>2025-04-29T11:52:41Z</time>
      </trkpt>
      <trkpt lat="43.28558798879385" lon="-5.563877988606691">
        <ele>631.72000000000003</ele>
        <time>2025-04-29T11:52:42Z</time>
      </trkpt>
      <trkpt lat="43.285524034872651" lon="-5.563999023288488">
        <ele>630.27999999999997</ele>
        <time>2025-04-29T11:52:43Z</time>
      </trkpt>
      <trkpt lat="43.285455973818898" lon="-5.564129026606679">
        <ele>628.84000000000003</ele>
        <time>2025-04-29T11:52:44Z</time>
      </trkpt>
      <trkpt lat="43.28535296022892" lon="-5.56417697109282">
        <ele>627.88</ele>
        <time>2025-04-29T11:52:45Z</time>
      </trkpt>
      <trkpt lat="43.285240978002548" lon="-5.564182000234723">
        <ele>626.91999999999996</ele>
        <time>2025-04-29T11:52:46Z</time>
      </trkpt>
      <trkpt lat="43.285110974684358" lon="-5.564170014113188">
        <ele>626.44000000000005</ele>
        <time>2025-04-29T11:52:47Z</time>
      </trkpt>
      <trkpt lat="43.284977031871676" lon="-5.564119974151254">
        <ele>624.99000000000001</ele>
        <time>2025-04-29T11:52:48Z</time>
      </trkpt>
      <trkpt lat="43.284155018627644" lon="-5.563744967803359">
        <ele>616.82000000000005</ele>
        <time>2025-04-29T11:52:54Z</time>
      </trkpt>
      <trkpt lat="43.284069020301104" lon="-5.56374303996563">
        <ele>615.38</ele>
        <time>2025-04-29T11:52:55Z</time>
      </trkpt>
      <trkpt lat="43.284008000046015" lon="-5.563803976401687">
        <ele>613.94000000000005</ele>
        <time>2025-04-29T11:52:56Z</time>
      </trkpt>
      <trkpt lat="43.283960977569222" lon="-5.563872959464788">
        <ele>612.5</ele>
        <time>2025-04-29T11:52:57Z</time>
      </trkpt>
      <trkpt lat="43.283938011154532" lon="-5.564008997753263">
        <ele>610.57000000000005</ele>
        <time>2025-04-29T11:52:58Z</time>
      </trkpt>
      <trkpt lat="43.283913033083081" lon="-5.564151993021369">
        <ele>609.13</ele>
        <time>2025-04-29T11:52:59Z</time>
      </trkpt>
      <trkpt lat="43.283888977020979" lon="-5.564290964975953">
        <ele>607.21000000000004</ele>
        <time>2025-04-29T11:53:00Z</time>
      </trkpt>
      <trkpt lat="43.283844972029328" lon="-5.56438903324306">
        <ele>605.28999999999996</ele>
        <time>2025-04-29T11:53:01Z</time>
      </trkpt>
      <trkpt lat="43.283772971481085" lon="-5.564489029347897">
        <ele>603.85000000000002</ele>
        <time>2025-04-29T11:53:02Z</time>
      </trkpt>
      <trkpt lat="43.283702982589602" lon="-5.564514007419348">
        <ele>602.88</ele>
        <time>2025-04-29T11:53:03Z</time>
      </trkpt>
      <trkpt lat="43.283601980656385" lon="-5.564550971612334">
        <ele>602.39999999999998</ele>
        <time>2025-04-29T11:53:04Z</time>
      </trkpt>
      <trkpt lat="43.283279025927186" lon="-5.564666977152228">
        <ele>601.44000000000005</ele>
        <time>2025-04-29T11:53:07Z</time>
      </trkpt>
      <trkpt lat="43.283183975145221" lon="-5.564639987424016">
        <ele>601.44000000000005</ele>
        <time>2025-04-29T11:53:08Z</time>
      </trkpt>
      <trkpt lat="43.283131001517177" lon="-5.564597994089127">
        <ele>600.96000000000004</ele>
        <time>2025-04-29T11:53:09Z</time>
      </trkpt>
      <trkpt lat="43.283128989860415" lon="-5.56452096439898">
        <ele>600.96000000000004</ele>
        <time>2025-04-29T11:53:10Z</time>
      </trkpt>
      <trkpt lat="43.283155979588628" lon="-5.564462961629033">
        <ele>600.96000000000004</ele>
        <time>2025-04-29T11:53:11Z</time>
      </trkpt>
      <trkpt lat="43.283214988186955" lon="-5.564404036849737">
        <ele>600.48000000000002</ele>
        <time>2025-04-29T11:53:12Z</time>
      </trkpt>
      <trkpt lat="43.283316995948553" lon="-5.564370006322861">
        <ele>600</ele>
        <time>2025-04-29T11:53:13Z</time>
      </trkpt>
      <trkpt lat="43.283425038680434" lon="-5.564333964139223">
        <ele>600</ele>
        <time>2025-04-29T11:53:14Z</time>
      </trkpt>
      <trkpt lat="43.283607009798288" lon="-5.564203960821033">
        <ele>598.08000000000004</ele>
        <time>2025-04-29T11:53:16Z</time>
      </trkpt>
      <trkpt lat="43.283666018396616" lon="-5.564125003293157">
        <ele>597.60000000000002</ele>
        <time>2025-04-29T11:53:17Z</time>
      </trkpt>
      <trkpt lat="43.283659983426332" lon="-5.564030036330223">
        <ele>596.63999999999999</ele>
        <time>2025-04-29T11:53:18Z</time>
      </trkpt>
      <trkpt lat="43.28365202061832" lon="-5.563898021355271">
        <ele>596.14999999999998</ele>
        <time>2025-04-29T11:53:19Z</time>
      </trkpt>
      <trkpt lat="43.283642968162894" lon="-5.563757959753275">
        <ele>595.19000000000005</ele>
        <time>2025-04-29T11:53:20Z</time>
      </trkpt>
      <trkpt lat="43.283633999526501" lon="-5.563612030819058">
        <ele>594.71000000000004</ele>
        <time>2025-04-29T11:53:21Z</time>
      </trkpt>
      <trkpt lat="43.283624025061727" lon="-5.563461994752288">
        <ele>594.23000000000002</ele>
        <time>2025-04-29T11:53:22Z</time>
      </trkpt>
      <trkpt lat="43.283663000911474" lon="-5.563328973948956">
        <ele>593.26999999999998</ele>
        <time>2025-04-29T11:53:23Z</time>
      </trkpt>
      <trkpt lat="43.283709017559886" lon="-5.563201988115907">
        <ele>592.30999999999995</ele>
        <time>2025-04-29T11:53:24Z</time>
      </trkpt>
      <trkpt lat="43.283796021714807" lon="-5.563128981739283">
        <ele>591.35000000000002</ele>
        <time>2025-04-29T11:53:25Z</time>
      </trkpt>
      <trkpt lat="43.283909009769559" lon="-5.563084976747632">
        <ele>590.38999999999999</ele>
        <time>2025-04-29T11:53:26Z</time>
      </trkpt>
      <trkpt lat="43.284032978117466" lon="-5.563084976747632">
        <ele>588.95000000000005</ele>
        <time>2025-04-29T11:53:27Z</time>
      </trkpt>
      <trkpt lat="43.284161975607276" lon="-5.563120013102889">
        <ele>587.01999999999998</ele>
        <time>2025-04-29T11:53:28Z</time>
      </trkpt>
      <trkpt lat="43.284301031380892" lon="-5.563156977295876">
        <ele>585.58000000000004</ele>
        <time>2025-04-29T11:53:29Z</time>
      </trkpt>
      <trkpt lat="43.284577969461679" lon="-5.56323098950088">
        <ele>583.17999999999995</ele>
        <time>2025-04-29T11:53:31Z</time>
      </trkpt>
      <trkpt lat="43.284696992486715" lon="-5.56320802308619">
        <ele>581.73000000000002</ele>
        <time>2025-04-29T11:53:32Z</time>
      </trkpt>
      <trkpt lat="43.284807968884706" lon="-5.563147002831101">
        <ele>580.28999999999996</ele>
        <time>2025-04-29T11:53:33Z</time>
      </trkpt>
      <trkpt lat="43.284872006624937" lon="-5.563023034483194">
        <ele>579.33000000000004</ele>
        <time>2025-04-29T11:53:34Z</time>
      </trkpt>
      <trkpt lat="43.284925986081362" lon="-5.562893031165004">
        <ele>578.37</ele>
        <time>2025-04-29T11:53:35Z</time>
      </trkpt>
      <trkpt lat="43.284979965537786" lon="-5.562765039503574">
        <ele>577.40999999999997</ele>
        <time>2025-04-29T11:53:36Z</time>
      </trkpt>
      <trkpt lat="43.285038974136114" lon="-5.562622966244817">
        <ele>576.45000000000005</ele>
        <time>2025-04-29T11:53:37Z</time>
      </trkpt>
      <trkpt lat="43.285117009654641" lon="-5.562529005110264">
        <ele>575.49000000000001</ele>
        <time>2025-04-29T11:53:38Z</time>
      </trkpt>
      <trkpt lat="43.285207031294703" lon="-5.562421968206763">
        <ele>574.52999999999997</ele>
        <time>2025-04-29T11:53:39Z</time>
      </trkpt>
      <trkpt lat="43.285301998257637" lon="-5.56230797432363">
        <ele>573.55999999999995</ele>
        <time>2025-04-29T11:53:40Z</time>
      </trkpt>
      <trkpt lat="43.285376010462642" lon="-5.562179982662201">
        <ele>573.08000000000004</ele>
        <time>2025-04-29T11:53:41Z</time>
      </trkpt>
      <trkpt lat="43.285420015454292" lon="-5.562013015151024">
        <ele>572.60000000000002</ele>
        <time>2025-04-29T11:53:42Z</time>
      </trkpt>
      <trkpt lat="43.285512970760465" lon="-5.561659969389439">
        <ele>570.67999999999995</ele>
        <time>2025-04-29T11:53:44Z</time>
      </trkpt>
      <trkpt lat="43.285571979358792" lon="-5.561482021585107">
        <ele>569.72000000000003</ele>
        <time>2025-04-29T11:53:45Z</time>
      </trkpt>
      <trkpt lat="43.28567398712039" lon="-5.561350006610155">
        <ele>568.27999999999997</ele>
        <time>2025-04-29T11:53:46Z</time>
      </trkpt>
      <trkpt lat="43.28578001819551" lon="-5.561297032982111">
        <ele>566.83000000000004</ele>
        <time>2025-04-29T11:53:47Z</time>
      </trkpt>
      <trkpt lat="43.285882025957108" lon="-5.561245987191796">
        <ele>565.38999999999999</ele>
        <time>2025-04-29T11:53:48Z</time>
      </trkpt>
      <trkpt lat="43.285985039547086" lon="-5.561195025220513">
        <ele>563.95000000000005</ele>
        <time>2025-04-29T11:53:49Z</time>
      </trkpt>
      <trkpt lat="43.286089980974793" lon="-5.561141967773438">
        <ele>562.50999999999999</ele>
        <time>2025-04-29T11:53:50Z</time>
      </trkpt>
      <trkpt lat="43.286174973472953" lon="-5.561024034395814">
        <ele>560.59000000000003</ele>
        <time>2025-04-29T11:53:51Z</time>
      </trkpt>
      <trkpt lat="43.286268012598157" lon="-5.560893025249243">
        <ele>558.65999999999997</ele>
        <time>2025-04-29T11:53:52Z</time>
      </trkpt>
      <trkpt lat="43.286546962335706" lon="-5.560476025566459">
        <ele>553.86000000000001</ele>
        <time>2025-04-29T11:53:55Z</time>
      </trkpt>
      <trkpt lat="43.286627009510994" lon="-5.560283996164799">
        <ele>552.40999999999997</ele>
        <time>2025-04-29T11:53:56Z</time>
      </trkpt>
      <trkpt lat="43.286647964268923" lon="-5.560132032260299">
        <ele>551.45000000000005</ele>
        <time>2025-04-29T11:53:57Z</time>
      </trkpt>
      <trkpt lat="43.286673026159406" lon="-5.559946037828922">
        <ele>550.97000000000003</ele>
        <time>2025-04-29T11:53:58Z</time>
      </trkpt>
      <trkpt lat="43.286680988967419" lon="-5.559760965406895">
        <ele>550.00999999999999</ele>
        <time>2025-04-29T11:53:59Z</time>
      </trkpt>
      <trkpt lat="43.286651987582445" lon="-5.559614030644298">
        <ele>549.52999999999997</ele>
        <time>2025-04-29T11:54:00Z</time>
      </trkpt>
      <trkpt lat="43.286586022004485" lon="-5.559457959607244">
        <ele>548.09000000000003</ele>
        <time>2025-04-29T11:54:01Z</time>
      </trkpt>
      <trkpt lat="43.286493988707662" lon="-5.559386964887381">
        <ele>547.13</ele>
        <time>2025-04-29T11:54:02Z</time>
      </trkpt>
      <trkpt lat="43.286392986774445" lon="-5.559308007359505">
        <ele>546.16999999999996</ele>
        <time>2025-04-29T11:54:03Z</time>
      </trkpt>
      <trkpt lat="43.286286033689976" lon="-5.559225026518107">
        <ele>545.69000000000005</ele>
        <time>2025-04-29T11:54:04Z</time>
      </trkpt>
      <trkpt lat="43.285853024572134" lon="-5.55852203629911">
        <ele>543.27999999999997</ele>
        <time>2025-04-29T11:54:09Z</time>
      </trkpt>
      <trkpt lat="43.285832991823554" lon="-5.558370994403958">
        <ele>542.79999999999995</ele>
        <time>2025-04-29T11:54:10Z</time>
      </trkpt>
      <trkpt lat="43.285842966288328" lon="-5.55824501439929">
        <ele>541.84000000000003</ele>
        <time>2025-04-29T11:54:11Z</time>
      </trkpt>
      <trkpt lat="43.285870039835572" lon="-5.558122973889113">
        <ele>540.88</ele>
        <time>2025-04-29T11:54:12Z</time>
      </trkpt>
      <trkpt lat="43.285899963229895" lon="-5.557989031076431">
        <ele>539.91999999999996</ele>
        <time>2025-04-29T11:54:13Z</time>
      </trkpt>
      <trkpt lat="43.285936005413532" lon="-5.557832960039377">
        <ele>538.96000000000004</ele>
        <time>2025-04-29T11:54:14Z</time>
      </trkpt>
      <trkpt lat="43.28597598709166" lon="-5.557655012235045">
        <ele>538.48000000000002</ele>
        <time>2025-04-29T11:54:15Z</time>
      </trkpt>
      <trkpt lat="43.285977998748422" lon="-5.557473041117191">
        <ele>537.50999999999999</ele>
        <time>2025-04-29T11:54:16Z</time>
      </trkpt>
      <trkpt lat="43.285971963778138" lon="-5.557282017543912">
        <ele>537.02999999999997</ele>
        <time>2025-04-29T11:54:17Z</time>
      </trkpt>
      <trkpt lat="43.285967018455267" lon="-5.55710599757731">
        <ele>536.07000000000005</ele>
        <time>2025-04-29T11:54:18Z</time>
      </trkpt>
      <trkpt lat="43.285961989313364" lon="-5.556936012580991">
        <ele>535.59000000000003</ele>
        <time>2025-04-29T11:54:19Z</time>
      </trkpt>
      <trkpt lat="43.285943968221545" lon="-5.55682897567749">
        <ele>535.11000000000001</ele>
        <time>2025-04-29T11:54:20Z</time>
      </trkpt>
      <trkpt lat="43.285904992371798" lon="-5.556737026199698">
        <ele>534.14999999999998</ele>
        <time>2025-04-29T11:54:21Z</time>
      </trkpt>
      <trkpt lat="43.285855036228895" lon="-5.556679023429751">
        <ele>533.66999999999996</ele>
        <time>2025-04-29T11:54:22Z</time>
      </trkpt>
      <trkpt lat="43.285811031237245" lon="-5.556679023429751">
        <ele>532.71000000000004</ele>
        <time>2025-04-29T11:54:23Z</time>
      </trkpt>
      <trkpt lat="43.285758979618549" lon="-5.55674197152257">
        <ele>531.75</ele>
        <time>2025-04-29T11:54:24Z</time>
      </trkpt>
      <trkpt lat="43.285756967961788" lon="-5.556866023689508">
        <ele>530.78999999999996</ele>
        <time>2025-04-29T11:54:25Z</time>
      </trkpt>
      <trkpt lat="43.285770965740085" lon="-5.556993009522557">
        <ele>529.34000000000003</ele>
        <time>2025-04-29T11:54:26Z</time>
      </trkpt>
      <trkpt lat="43.285795021802187" lon="-5.557137010619044">
        <ele>527.41999999999996</ele>
        <time>2025-04-29T11:54:27Z</time>
      </trkpt>
      <trkpt lat="43.285811031237245" lon="-5.557284029200673">
        <ele>525.5</ele>
        <time>2025-04-29T11:54:28Z</time>
      </trkpt>
      <trkpt lat="43.285811031237245" lon="-5.557444039732218">
        <ele>523.09000000000003</ele>
        <time>2025-04-29T11:54:29Z</time>
      </trkpt>
      <trkpt lat="43.285790998488665" lon="-5.557585023343563">
        <ele>521.16999999999996</ele>
        <time>2025-04-29T11:54:30Z</time>
      </trkpt>
      <trkpt lat="43.285735007375479" lon="-5.557722989469767">
        <ele>519.73000000000002</ele>
        <time>2025-04-29T11:54:31Z</time>
      </trkpt>
      <trkpt lat="43.285637022927403" lon="-5.557827008888125">
        <ele>518.28999999999996</ele>
        <time>2025-04-29T11:54:32Z</time>
      </trkpt>
      <trkpt lat="43.285537026822567" lon="-5.557932034134865">
        <ele>517.80999999999995</ele>
        <time>2025-04-29T11:54:33Z</time>
      </trkpt>
      <trkpt lat="43.285448011010885" lon="-5.558025995269418">
        <ele>517.33000000000004</ele>
        <time>2025-04-29T11:54:34Z</time>
      </trkpt>
      <trkpt lat="43.285368969663978" lon="-5.558124985545874">
        <ele>517.33000000000004</ele>
        <time>2025-04-29T11:54:35Z</time>
      </trkpt>
      <trkpt lat="43.285323958843946" lon="-5.558232022449374">
        <ele>516.85000000000002</ele>
        <time>2025-04-29T11:54:36Z</time>
      </trkpt>
      <trkpt lat="43.285322031006217" lon="-5.558354984968901">
        <ele>516.37</ele>
        <time>2025-04-29T11:54:37Z</time>
      </trkpt>
      <trkpt lat="43.285326976329088" lon="-5.558475013822317">
        <ele>515.88</ele>
        <time>2025-04-29T11:54:38Z</time>
      </trkpt>
      <trkpt lat="43.285333011299372" lon="-5.558613985776901">
        <ele>515.39999999999998</ele>
        <time>2025-04-29T11:54:39Z</time>
      </trkpt>
      <trkpt lat="43.285341979935765" lon="-5.558767039328814">
        <ele>514.44000000000005</ele>
        <time>2025-04-29T11:54:40Z</time>
      </trkpt>
      <trkpt lat="43.285390008240938" lon="-5.558905005455017">
        <ele>513.48000000000002</ele>
        <time>2025-04-29T11:54:41Z</time>
      </trkpt>
      <trkpt lat="43.285438036546111" lon="-5.559044983237982">
        <ele>513</ele>
        <time>2025-04-29T11:54:42Z</time>
      </trkpt>
      <trkpt lat="43.285484975203872" lon="-5.559181021526456">
        <ele>512.51999999999998</ele>
        <time>2025-04-29T11:54:43Z</time>
      </trkpt>
      <trkpt lat="43.285533003509045" lon="-5.559317981824279">
        <ele>511.56</ele>
        <time>2025-04-29T11:54:44Z</time>
      </trkpt>
      <trkpt lat="43.285533003509045" lon="-5.559415966272354">
        <ele>511.07999999999998</ele>
        <time>2025-04-29T11:54:45Z</time>
      </trkpt>
      <trkpt lat="43.285504002124071" lon="-5.559568013995886">
        <ele>510.60000000000002</ele>
        <time>2025-04-29T11:54:46Z</time>
      </trkpt>
      <trkpt lat="43.285430995747447" lon="-5.559659041464329">
        <ele>510.12</ele>
        <time>2025-04-29T11:54:47Z</time>
      </trkpt>
      <trkpt lat="43.285320019349456" lon="-5.559761971235275">
        <ele>510.12</ele>
        <time>2025-04-29T11:54:48Z</time>
      </trkpt>
      <trkpt lat="43.285205019637942" lon="-5.559802958741784">
        <ele>510.12</ele>
        <time>2025-04-29T11:54:49Z</time>
      </trkpt>
      <trkpt lat="43.285084990784526" lon="-5.559846041724086">
        <ele>510.12</ele>
        <time>2025-04-29T11:54:50Z</time>
      </trkpt>
      <trkpt lat="43.284756001085043" lon="-5.559992976486683">
        <ele>509.63999999999999</ele>
        <time>2025-04-29T11:54:53Z</time>
      </trkpt>
      <trkpt lat="43.284649970009923" lon="-5.560076041147113">
        <ele>510.12</ele>
        <time>2025-04-29T11:54:54Z</time>
      </trkpt>
      <trkpt lat="43.284570006653666" lon="-5.560186011716723">
        <ele>510.60000000000002</ele>
        <time>2025-04-29T11:54:55Z</time>
      </trkpt>
      <trkpt lat="43.284085029736161" lon="-5.560862012207508">
        <ele>510.12</ele>
        <time>2025-04-29T11:55:00Z</time>
      </trkpt>
      <trkpt lat="43.283970030024648" lon="-5.560937030240893">
        <ele>509.63999999999999</ele>
        <time>2025-04-29T11:55:01Z</time>
      </trkpt>
      <trkpt lat="43.283881014212966" lon="-5.560969971120358">
        <ele>509.63999999999999</ele>
        <time>2025-04-29T11:55:02Z</time>
      </trkpt>
      <trkpt lat="43.283810019493103" lon="-5.560910040512681">
        <ele>509.16000000000003</ele>
        <time>2025-04-29T11:55:03Z</time>
      </trkpt>
      <trkpt lat="43.283732989802957" lon="-5.56084600277245">
        <ele>509.16000000000003</ele>
        <time>2025-04-29T11:55:04Z</time>
      </trkpt>
      <trkpt lat="43.283647997304797" lon="-5.560772996395826">
        <ele>508.67000000000002</ele>
        <time>2025-04-29T11:55:05Z</time>
      </trkpt>
      <trkpt lat="43.283556969836354" lon="-5.56069596670568">
        <ele>508.19</ele>
        <time>2025-04-29T11:55:06Z</time>
      </trkpt>
      <trkpt lat="43.283468037843704" lon="-5.560620026662946">
        <ele>507.70999999999998</ele>
        <time>2025-04-29T11:55:07Z</time>
      </trkpt>
      <trkpt lat="43.283366030082107" lon="-5.560614997521043">
        <ele>507.23000000000002</ele>
        <time>2025-04-29T11:55:08Z</time>
      </trkpt>
      <trkpt lat="43.283251030370593" lon="-5.560627989470959">
        <ele>506.26999999999998</ele>
        <time>2025-04-29T11:55:09Z</time>
      </trkpt>
      <trkpt lat="43.283120021224022" lon="-5.560642993077636">
        <ele>505.31</ele>
        <time>2025-04-29T11:55:10Z</time>
      </trkpt>
      <trkpt lat="43.282981971278787" lon="-5.560659002512693">
        <ele>504.35000000000002</ele>
        <time>2025-04-29T11:55:11Z</time>
      </trkpt>
      <trkpt lat="43.282700004056096" lon="-5.560691021382809">
        <ele>502.91000000000003</ele>
        <time>2025-04-29T11:55:13Z</time>
      </trkpt>
      <trkpt lat="43.282556002959609" lon="-5.560659002512693">
        <ele>501.94999999999999</ele>
        <time>2025-04-29T11:55:14Z</time>
      </trkpt>
      <trkpt lat="43.282448966056108" lon="-5.560574010014534">
        <ele>500.98000000000002</ele>
        <time>2025-04-29T11:55:15Z</time>
      </trkpt>
      <trkpt lat="43.282351987436414" lon="-5.560449035838246">
        <ele>499.54000000000002</ele>
        <time>2025-04-29T11:55:16Z</time>
      </trkpt>
      <trkpt lat="43.282246962189674" lon="-5.560315009206533">
        <ele>498.57999999999998</ele>
        <time>2025-04-29T11:55:17Z</time>
      </trkpt>
      <trkpt lat="43.28161396086216" lon="-5.559530965983868">
        <ele>490.41000000000003</ele>
        <time>2025-04-29T11:55:23Z</time>
      </trkpt>
      <trkpt lat="43.281519999727607" lon="-5.559517974033952">
        <ele>488.97000000000003</ele>
        <time>2025-04-29T11:55:24Z</time>
      </trkpt>
      <trkpt lat="43.281411034986377" lon="-5.559540018439293">
        <ele>487.52999999999997</ele>
        <time>2025-04-29T11:55:25Z</time>
      </trkpt>
      <trkpt lat="43.281300980597734" lon="-5.559588968753815">
        <ele>485.60000000000002</ele>
        <time>2025-04-29T11:55:26Z</time>
      </trkpt>
      <trkpt lat="43.281179023906589" lon="-5.559644037857652">
        <ele>484.63999999999999</ele>
        <time>2025-04-29T11:55:27Z</time>
      </trkpt>
      <trkpt lat="43.280247040092945" lon="-5.560069000348449">
        <ele>475.50999999999999</ele>
        <time>2025-04-29T11:55:34Z</time>
      </trkpt>
      <trkpt lat="43.280210997909307" lon="-5.560185005888343">
        <ele>474.06999999999999</ele>
        <time>2025-04-29T11:55:35Z</time>
      </trkpt>
      <trkpt lat="43.280218038707972" lon="-5.560305034741759">
        <ele>473.58999999999997</ele>
        <time>2025-04-29T11:55:36Z</time>
      </trkpt>
      <trkpt lat="43.280257014557719" lon="-5.560422968119383">
        <ele>472.63</ele>
        <time>2025-04-29T11:55:37Z</time>
      </trkpt>
      <trkpt lat="43.280300013720989" lon="-5.560550037771463">
        <ele>472.13999999999999</ele>
        <time>2025-04-29T11:55:38Z</time>
      </trkpt>
      <trkpt lat="43.280725982040167" lon="-5.561786033213139">
        <ele>470.69999999999999</ele>
        <time>2025-04-29T11:55:46Z</time>
      </trkpt>
      <trkpt lat="43.280911976471543" lon="-5.562239997088909">
        <ele>471.18000000000001</ele>
        <time>2025-04-29T11:55:49Z</time>
      </trkpt>
      <trkpt lat="43.280891021713614" lon="-5.5623700004071">
        <ele>471.18000000000001</ele>
        <time>2025-04-29T11:55:50Z</time>
      </trkpt>
      <trkpt lat="43.280851040035486" lon="-5.562447030097246">
        <ele>471.18000000000001</ele>
        <time>2025-04-29T11:55:51Z</time>
      </trkpt>
      <trkpt lat="43.280756995081902" lon="-5.562512995675206">
        <ele>471.66000000000003</ele>
        <time>2025-04-29T11:55:52Z</time>
      </trkpt>
      <trkpt lat="43.280654987320304" lon="-5.562582984566689">
        <ele>471.66000000000003</ele>
        <time>2025-04-29T11:55:53Z</time>
      </trkpt>
      <trkpt lat="43.280536970123649" lon="-5.562646016478539">
        <ele>471.66000000000003</ele>
        <time>2025-04-29T11:55:54Z</time>
      </trkpt>
      <trkpt lat="43.28041099011898" lon="-5.562711982056499">
        <ele>471.18000000000001</ele>
        <time>2025-04-29T11:55:55Z</time>
      </trkpt>
      <trkpt lat="43.280296996235847" lon="-5.562773002311587">
        <ele>470.69999999999999</ele>
        <time>2025-04-29T11:55:56Z</time>
      </trkpt>
      <trkpt lat="43.280232036486268" lon="-5.562880039215088">
        <ele>469.74000000000001</ele>
        <time>2025-04-29T11:55:57Z</time>
      </trkpt>
      <trkpt lat="43.280204962939024" lon="-5.563006019219756">
        <ele>469.25999999999999</ele>
        <time>2025-04-29T11:55:58Z</time>
      </trkpt>
      <trkpt lat="43.280145032331347" lon="-5.563283041119576">
        <ele>467.81999999999999</ele>
        <time>2025-04-29T11:56:00Z</time>
      </trkpt>
      <trkpt lat="43.28008996322751" lon="-5.56340198032558">
        <ele>467.33999999999997</ele>
        <time>2025-04-29T11:56:01Z</time>
      </trkpt>
      <trkpt lat="43.280017962679267" lon="-5.563458977267146">
        <ele>466.38</ele>
        <time>2025-04-29T11:56:02Z</time>
      </trkpt>
      <trkpt lat="43.27991696074605" lon="-5.563442967832089">
        <ele>464.93000000000001</ele>
        <time>2025-04-29T11:56:03Z</time>
      </trkpt>
      <trkpt lat="43.279801039025187" lon="-5.563400974497199">
        <ele>463.49000000000001</ele>
        <time>2025-04-29T11:56:04Z</time>
      </trkpt>
      <trkpt lat="43.279660977423191" lon="-5.563341965898871">
        <ele>462.05000000000001</ele>
        <time>2025-04-29T11:56:05Z</time>
      </trkpt>
      <trkpt lat="43.279384961351752" lon="-5.563183967024088">
        <ele>459.64999999999998</ele>
        <time>2025-04-29T11:56:07Z</time>
      </trkpt>
      <trkpt lat="43.279254036024213" lon="-5.563072990626097">
        <ele>458.20999999999998</ele>
        <time>2025-04-29T11:56:08Z</time>
      </trkpt>
      <trkpt lat="43.279006015509367" lon="-5.56290602311492">
        <ele>454.83999999999997</ele>
        <time>2025-04-29T11:56:10Z</time>
      </trkpt>
      <trkpt lat="43.27888498082757" lon="-5.562919015064836">
        <ele>454.36000000000001</ele>
        <time>2025-04-29T11:56:11Z</time>
      </trkpt>
      <trkpt lat="43.278751038014889" lon="-5.562933012843132">
        <ele>454.36000000000001</ele>
        <time>2025-04-29T11:56:12Z</time>
      </trkpt>
      <trkpt lat="43.278607958927751" lon="-5.562947010621429">
        <ele>454.36000000000001</ele>
        <time>2025-04-29T11:56:13Z</time>
      </trkpt>
      <trkpt lat="43.278477033600211" lon="-5.562961008399725">
        <ele>454.36000000000001</ele>
        <time>2025-04-29T11:56:14Z</time>
      </trkpt>
      <trkpt lat="43.278335966169834" lon="-5.562880039215088">
        <ele>454.36000000000001</ele>
        <time>2025-04-29T11:56:15Z</time>
      </trkpt>
      <trkpt lat="43.278220966458321" lon="-5.562775013968349">
        <ele>453.88</ele>
        <time>2025-04-29T11:56:16Z</time>
      </trkpt>
      <trkpt lat="43.278100015595555" lon="-5.562663031741977">
        <ele>453.39999999999998</ele>
        <time>2025-04-29T11:56:17Z</time>
      </trkpt>
      <trkpt lat="43.277915026992559" lon="-5.562493968755007">
        <ele>452.92000000000002</ele>
        <time>2025-04-29T11:56:19Z</time>
      </trkpt>
      <trkpt lat="43.277753004804254" lon="-5.562453987076879">
        <ele>452.44</ele>
        <time>2025-04-29T11:56:20Z</time>
      </trkpt>
      <trkpt lat="43.277673041447997" lon="-5.562486005946994">
        <ele>451.95999999999998</ele>
        <time>2025-04-29T11:56:21Z</time>
      </trkpt>
      <trkpt lat="43.277563992887735" lon="-5.562546020373702">
        <ele>451.95999999999998</ele>
        <time>2025-04-29T11:56:22Z</time>
      </trkpt>
      <trkpt lat="43.277452010661364" lon="-5.562676023691893">
        <ele>451.48000000000002</ele>
        <time>2025-04-29T11:56:23Z</time>
      </trkpt>
      <trkpt lat="43.277331981807947" lon="-5.562812983989716">
        <ele>451</ele>
        <time>2025-04-29T11:56:24Z</time>
      </trkpt>
      <trkpt lat="43.277199966832995" lon="-5.562966037541628">
        <ele>450.51999999999998</ele>
        <time>2025-04-29T11:56:25Z</time>
      </trkpt>
      <trkpt lat="43.276547016575933" lon="-5.563719989731908">
        <ele>448.11000000000001</ele>
        <time>2025-04-29T11:56:30Z</time>
      </trkpt>
      <trkpt lat="43.276190031319857" lon="-5.56413296610117">
        <ele>448.11000000000001</ele>
        <time>2025-04-29T11:56:33Z</time>
      </trkpt>
      <trkpt lat="43.276080982759595" lon="-5.564258024096489">
        <ele>447.63</ele>
        <time>2025-04-29T11:56:34Z</time>
      </trkpt>
      <trkpt lat="43.276048041880131" lon="-5.564295994117856">
        <ele>447.14999999999998</ele>
        <time>2025-04-29T11:56:35Z</time>
      </trkpt>
      <trkpt lat="43.276048041880131" lon="-5.56449699215591">
        <ele>446.67000000000002</ele>
        <time>2025-04-29T11:56:36Z</time>
      </trkpt>
      <trkpt lat="43.276066984981298" lon="-5.56460302323103">
        <ele>445.23000000000002</ele>
        <time>2025-04-29T11:56:37Z</time>
      </trkpt>
      <trkpt lat="43.276096992194653" lon="-5.564749035984278">
        <ele>444.26999999999998</ele>
        <time>2025-04-29T11:56:38Z</time>
      </trkpt>
      <trkpt lat="43.276129011064768" lon="-5.564899994060397">
        <ele>442.33999999999997</ele>
        <time>2025-04-29T11:56:39Z</time>
      </trkpt>
      <trkpt lat="43.276159018278122" lon="-5.565045000985265">
        <ele>440.42000000000002</ele>
        <time>2025-04-29T11:56:40Z</time>
      </trkpt>
      <trkpt lat="43.27613496221602" lon="-5.565230995416641">
        <ele>438.5</ele>
        <time>2025-04-29T11:56:41Z</time>
      </trkpt>
      <trkpt lat="43.27604603022337" lon="-5.565350018441677">
        <ele>436.57999999999998</ele>
        <time>2025-04-29T11:56:42Z</time>
      </trkpt>
      <trkpt lat="43.275951985269785" lon="-5.56544397957623">
        <ele>434.64999999999998</ele>
        <time>2025-04-29T11:56:43Z</time>
      </trkpt>
      <trkpt lat="43.275806978344917" lon="-5.565651012584567">
        <ele>431.29000000000002</ele>
        <time>2025-04-29T11:56:45Z</time>
      </trkpt>
      <trkpt lat="43.275794992223382" lon="-5.565791996195912">
        <ele>429.85000000000002</ele>
        <time>2025-04-29T11:56:46Z</time>
      </trkpt>
      <trkpt lat="43.275803038850427" lon="-5.565927028656006">
        <ele>428.39999999999998</ele>
        <time>2025-04-29T11:56:47Z</time>
      </trkpt>
      <trkpt lat="43.275822987779975" lon="-5.566069018095732">
        <ele>426.95999999999998</ele>
        <time>2025-04-29T11:56:48Z</time>
      </trkpt>
      <trkpt lat="43.275819970294833" lon="-5.566175971180201">
        <ele>425.51999999999998</ele>
        <time>2025-04-29T11:56:49Z</time>
      </trkpt>
      <trkpt lat="43.27579096890986" lon="-5.566248977556825">
        <ele>424.07999999999998</ele>
        <time>2025-04-29T11:56:50Z</time>
      </trkpt>
      <trkpt lat="43.275773031637073" lon="-5.566241014748812">
        <ele>422.63999999999999</ele>
        <time>2025-04-29T11:56:51Z</time>
      </trkpt>
      <trkpt lat="43.27570203691721" lon="-5.566211007535458">
        <ele>421.68000000000001</ele>
        <time>2025-04-29T11:56:52Z</time>
      </trkpt>
      <trkpt lat="43.275641016662121" lon="-5.566185023635626">
        <ele>421.19</ele>
        <time>2025-04-29T11:56:53Z</time>
      </trkpt>
      <trkpt lat="43.27559701167047" lon="-5.566068012267351">
        <ele>420.23000000000002</ele>
        <time>2025-04-29T11:56:54Z</time>
      </trkpt>
      <trkpt lat="43.275546971708536" lon="-5.565933985635638">
        <ele>419.26999999999998</ele>
        <time>2025-04-29T11:56:55Z</time>
      </trkpt>
      <trkpt lat="43.275516964495182" lon="-5.565783027559519">
        <ele>418.79000000000002</ele>
        <time>2025-04-29T11:56:56Z</time>
      </trkpt>
      <trkpt lat="43.27553004026413" lon="-5.56563600897789">
        <ele>416.87</ele>
        <time>2025-04-29T11:56:57Z</time>
      </trkpt>
      <trkpt lat="43.275583013892174" lon="-5.565504999831319">
        <ele>415.91000000000003</ele>
        <time>2025-04-29T11:56:58Z</time>
      </trkpt>
      <trkpt lat="43.275712011381984" lon="-5.565247004851699">
        <ele>414.47000000000003</ele>
        <time>2025-04-29T11:57:00Z</time>
      </trkpt>
      <trkpt lat="43.27576900832355" lon="-5.565133010968566">
        <ele>413.5</ele>
        <time>2025-04-29T11:57:01Z</time>
      </trkpt>
      <trkpt lat="43.275743024423718" lon="-5.565000995993614">
        <ele>412.54000000000002</ele>
        <time>2025-04-29T11:57:02Z</time>
      </trkpt>
      <trkpt lat="43.275702958926558" lon="-5.564866969361901">
        <ele>411.57999999999998</ele>
        <time>2025-04-29T11:57:03Z</time>
      </trkpt>
      <trkpt lat="43.275637999176979" lon="-5.564722968265414">
        <ele>410.62</ele>
        <time>2025-04-29T11:57:04Z</time>
      </trkpt>
      <trkpt lat="43.275574967265129" lon="-5.564581984654069">
        <ele>409.66000000000003</ele>
        <time>2025-04-29T11:57:05Z</time>
      </trkpt>
      <trkpt lat="43.27553004026413" lon="-5.564439995214343">
        <ele>408.22000000000003</ele>
        <time>2025-04-29T11:57:06Z</time>
      </trkpt>
      <trkpt lat="43.275519981980324" lon="-5.564307980239391">
        <ele>407.25999999999999</ele>
        <time>2025-04-29T11:57:07Z</time>
      </trkpt>
      <trkpt lat="43.275528028607368" lon="-5.564164984971285">
        <ele>406.29000000000002</ele>
        <time>2025-04-29T11:57:08Z</time>
      </trkpt>
      <trkpt lat="43.275593994185328" lon="-5.564069012179971">
        <ele>404.85000000000002</ele>
        <time>2025-04-29T11:57:09Z</time>
      </trkpt>
      <trkpt lat="43.275674963369966" lon="-5.563952000811696">
        <ele>403.88999999999999</ele>
        <time>2025-04-29T11:57:10Z</time>
      </trkpt>
      <trkpt lat="43.275760961696506" lon="-5.563827026635408">
        <ele>402.44999999999999</ele>
        <time>2025-04-29T11:57:11Z</time>
      </trkpt>
      <trkpt lat="43.275846960023046" lon="-5.56370297446847">
        <ele>401.00999999999999</ele>
        <time>2025-04-29T11:57:12Z</time>
      </trkpt>
      <trkpt lat="43.275928013026714" lon="-5.563585963100195">
        <ele>399.56999999999999</ele>
        <time>2025-04-29T11:57:13Z</time>
      </trkpt>
      <trkpt lat="43.275950979441404" lon="-5.563468029722571">
        <ele>398.60000000000002</ele>
        <time>2025-04-29T11:57:14Z</time>
      </trkpt>
      <trkpt lat="43.275964977219701" lon="-5.563339032232761">
        <ele>397.16000000000003</ele>
        <time>2025-04-29T11:57:15Z</time>
      </trkpt>
      <trkpt lat="43.275977969169617" lon="-5.563210034742951">
        <ele>396.19999999999999</ele>
        <time>2025-04-29T11:57:16Z</time>
      </trkpt>
      <trkpt lat="43.276018034666777" lon="-5.563073996454477">
        <ele>395.24000000000001</ele>
        <time>2025-04-29T11:57:17Z</time>
      </trkpt>
      <trkpt lat="43.27607000246644" lon="-5.562943993136287">
        <ele>393.80000000000001</ele>
        <time>2025-04-29T11:57:18Z</time>
      </trkpt>
      <trkpt lat="43.276182990521193" lon="-5.562831005081534">
        <ele>392.83999999999997</ele>
        <time>2025-04-29T11:57:19Z</time>
      </trkpt>
      <trkpt lat="43.276294972747564" lon="-5.562719022855163">
        <ele>391.87</ele>
        <time>2025-04-29T11:57:20Z</time>
      </trkpt>
      <trkpt lat="43.2764139957726" lon="-5.562599999830127">
        <ele>390.91000000000003</ele>
        <time>2025-04-29T11:57:21Z</time>
      </trkpt>
      <trkpt lat="43.276532012969255" lon="-5.562481982633472">
        <ele>389.94999999999999</ele>
        <time>2025-04-29T11:57:22Z</time>
      </trkpt>
      <trkpt lat="43.276637960225344" lon="-5.562356002628803">
        <ele>388.99000000000001</ele>
        <time>2025-04-29T11:57:23Z</time>
      </trkpt>
      <trkpt lat="43.276712978258729" lon="-5.562235973775387">
        <ele>388.02999999999997</ele>
        <time>2025-04-29T11:57:24Z</time>
      </trkpt>
      <trkpt lat="43.276712978258729" lon="-5.562109993770719">
        <ele>387.06999999999999</ele>
        <time>2025-04-29T11:57:25Z</time>
      </trkpt>
      <trkpt lat="43.276712978258729" lon="-5.562000023201108">
        <ele>386.11000000000001</ele>
        <time>2025-04-29T11:57:26Z</time>
      </trkpt>
      <trkpt lat="43.276679031550884" lon="-5.561917964369059">
        <ele>385.14999999999998</ele>
        <time>2025-04-29T11:57:27Z</time>
      </trkpt>
      <trkpt lat="43.276633014902472" lon="-5.561807993799448">
        <ele>383.69999999999999</ele>
        <time>2025-04-29T11:57:28Z</time>
      </trkpt>
      <trkpt lat="43.276612982153893" lon="-5.561686959117651">
        <ele>381.77999999999997</ele>
        <time>2025-04-29T11:57:29Z</time>
      </trkpt>
      <trkpt lat="43.27662798576057" lon="-5.561571037396789">
        <ele>380.33999999999997</ele>
        <time>2025-04-29T11:57:30Z</time>
      </trkpt>
      <trkpt lat="43.276711972430348" lon="-5.561514962464571">
        <ele>378.89999999999998</ele>
        <time>2025-04-29T11:57:31Z</time>
      </trkpt>
      <trkpt lat="43.276780033484101" lon="-5.561469029635191">
        <ele>377.44999999999999</ele>
        <time>2025-04-29T11:57:32Z</time>
      </trkpt>
      <trkpt lat="43.276884974911809" lon="-5.561399962753058">
        <ele>376.00999999999999</ele>
        <time>2025-04-29T11:57:33Z</time>
      </trkpt>
      <trkpt lat="43.27697197906673" lon="-5.561370039358735">
        <ele>375.05000000000001</ele>
        <time>2025-04-29T11:57:34Z</time>
      </trkpt>
      <trkpt lat="43.277494003996253" lon="-5.56118999607861">
        <ele>370.73000000000002</ele>
        <time>2025-04-29T11:57:38Z</time>
      </trkpt>
      <trkpt lat="43.277639010921121" lon="-5.561179015785456">
        <ele>369.27999999999997</ele>
        <time>2025-04-29T11:57:39Z</time>
      </trkpt>
      <trkpt lat="43.277769014239311" lon="-5.561172980815172">
        <ele>368.31999999999999</ele>
        <time>2025-04-29T11:57:40Z</time>
      </trkpt>
      <trkpt lat="43.277878984808922" lon="-5.561168035492301">
        <ele>366.88</ele>
        <time>2025-04-29T11:57:41Z</time>
      </trkpt>
      <trkpt lat="43.277968000620604" lon="-5.561164012178779">
        <ele>365.44</ele>
        <time>2025-04-29T11:57:42Z</time>
      </trkpt>
      <trkpt lat="43.277989961206913" lon="-5.561139034107328">
        <ele>364</ele>
        <time>2025-04-29T11:57:43Z</time>
      </trkpt>
      <trkpt lat="43.278018962591887" lon="-5.561071978881955">
        <ele>362.55000000000001</ele>
        <time>2025-04-29T11:57:44Z</time>
      </trkpt>
      <trkpt lat="43.278034972026944" lon="-5.561033003032208">
        <ele>361.58999999999997</ele>
        <time>2025-04-29T11:57:45Z</time>
      </trkpt>
      <trkpt lat="43.278032038360834" lon="-5.56103996001184">
        <ele>360.14999999999998</ele>
        <time>2025-04-29T11:57:46Z</time>
      </trkpt>
      <trkpt lat="43.278023991733789" lon="-5.56099402718246">
        <ele>358.23000000000002</ele>
        <time>2025-04-29T11:57:47Z</time>
      </trkpt>
      <trkpt lat="43.277890970930457" lon="-5.560937030240893">
        <ele>356.79000000000002</ele>
        <time>2025-04-29T11:57:48Z</time>
      </trkpt>
      <trkpt lat="43.277758033946157" lon="-5.560954967513681">
        <ele>355.33999999999997</ele>
        <time>2025-04-29T11:57:49Z</time>
      </trkpt>
      <trkpt lat="43.27761503867805" lon="-5.56097500026226">
        <ele>354.38</ele>
        <time>2025-04-29T11:57:50Z</time>
      </trkpt>
      <trkpt lat="43.27746600843966" lon="-5.56099503301084">
        <ele>352.94</ele>
        <time>2025-04-29T11:57:51Z</time>
      </trkpt>
      <trkpt lat="43.277307003736496" lon="-5.56101799942553">
        <ele>351.5</ele>
        <time>2025-04-29T11:57:52Z</time>
      </trkpt>
      <trkpt lat="43.276382982730865" lon="-5.561110032722354">
        <ele>344.29000000000002</ele>
        <time>2025-04-29T11:57:58Z</time>
      </trkpt>
      <trkpt lat="43.27622196637094" lon="-5.561184966936708">
        <ele>343.81</ele>
        <time>2025-04-29T11:57:59Z</time>
      </trkpt>
      <trkpt lat="43.276120964437723" lon="-5.56129896081984">
        <ele>342.85000000000002</ele>
        <time>2025-04-29T11:58:00Z</time>
      </trkpt>
      <trkpt lat="43.276031026616693" lon="-5.561481015756726">
        <ele>341.88999999999999</ele>
        <time>2025-04-29T11:58:01Z</time>
      </trkpt>
      <trkpt lat="43.2759840041399" lon="-5.561633985489607">
        <ele>340.92000000000002</ele>
        <time>2025-04-29T11:58:02Z</time>
      </trkpt>
      <trkpt lat="43.275938993319869" lon="-5.561778992414475">
        <ele>339.95999999999998</ele>
        <time>2025-04-29T11:58:03Z</time>
      </trkpt>
      <trkpt lat="43.275890965014696" lon="-5.561932967975736">
        <ele>338.51999999999998</ele>
        <time>2025-04-29T11:58:04Z</time>
      </trkpt>
      <trkpt lat="43.27581200748682" lon="-5.562073029577732">
        <ele>337.56</ele>
        <time>2025-04-29T11:58:05Z</time>
      </trkpt>
      <trkpt lat="43.275707988068461" lon="-5.562223987653852">
        <ele>336.60000000000002</ele>
        <time>2025-04-29T11:58:06Z</time>
      </trkpt>
      <trkpt lat="43.274901984259486" lon="-5.562991015613079">
        <ele>332.26999999999998</ele>
        <time>2025-04-29T11:58:12Z</time>
      </trkpt>
      <trkpt lat="43.27426697127521" lon="-5.563695011660457">
        <ele>326.5</ele>
        <time>2025-04-29T11:58:17Z</time>
      </trkpt>
      <trkpt lat="43.273902023211122" lon="-5.564017966389656">
        <ele>322.18000000000001</ele>
        <time>2025-04-29T11:58:20Z</time>
      </trkpt>
      <trkpt lat="43.273825999349356" lon="-5.564157022163272">
        <ele>320.74000000000001</ele>
        <time>2025-04-29T11:58:21Z</time>
      </trkpt>
      <trkpt lat="43.27377101406455" lon="-5.564315021038055">
        <ele>318.81</ele>
        <time>2025-04-29T11:58:22Z</time>
      </trkpt>
      <trkpt lat="43.27353497967124" lon="-5.564979035407305">
        <ele>311.60000000000002</ele>
        <time>2025-04-29T11:58:26Z</time>
      </trkpt>
      <trkpt lat="43.273474965244532" lon="-5.565124964341521">
        <ele>310.16000000000003</ele>
        <time>2025-04-29T11:58:27Z</time>
      </trkpt>
      <trkpt lat="43.272919999435544" lon="-5.566049991175532">
        <ele>300.06999999999999</ele>
        <time>2025-04-29T11:58:36Z</time>
      </trkpt>
      <trkpt lat="43.272362016141415" lon="-5.566982980817556">
        <ele>297.18000000000001</ele>
        <time>2025-04-29T11:58:45Z</time>
      </trkpt>
      <trkpt lat="43.272300995886326" lon="-5.567080965265632">
        <ele>296.69999999999999</ele>
        <time>2025-04-29T11:58:46Z</time>
      </trkpt>
      <trkpt lat="43.272190019488335" lon="-5.567280035465956">
        <ele>296.69999999999999</ele>
        <time>2025-04-29T11:58:48Z</time>
      </trkpt>
      <trkpt lat="43.27209304086864" lon="-5.567503999918699">
        <ele>297.18000000000001</ele>
        <time>2025-04-29T11:58:50Z</time>
      </trkpt>
      <trkpt lat="43.272053981199861" lon="-5.567632997408509">
        <ele>296.69999999999999</ele>
        <time>2025-04-29T11:58:51Z</time>
      </trkpt>
      <trkpt lat="43.271805960685015" lon="-5.568489963188767">
        <ele>296.22000000000003</ele>
        <time>2025-04-29T11:58:57Z</time>
      </trkpt>
      <trkpt lat="43.271737983450294" lon="-5.568626001477242">
        <ele>296.22000000000003</ele>
        <time>2025-04-29T11:58:58Z</time>
      </trkpt>
      <trkpt lat="43.271660031750798" lon="-5.568735972046852">
        <ele>295.74000000000001</ele>
        <time>2025-04-29T11:58:59Z</time>
      </trkpt>
      <trkpt lat="43.271546037867665" lon="-5.568805038928986">
        <ele>295.74000000000001</ele>
        <time>2025-04-29T11:59:00Z</time>
      </trkpt>
      <trkpt lat="43.271430032327771" lon="-5.568874021992087">
        <ele>295.74000000000001</ele>
        <time>2025-04-29T11:59:01Z</time>
      </trkpt>
      <trkpt lat="43.271316038444638" lon="-5.568941999226809">
        <ele>295.74000000000001</ele>
        <time>2025-04-29T11:59:02Z</time>
      </trkpt>
      <trkpt lat="43.27022303827107" lon="-5.569406021386385">
        <ele>294.77999999999997</ele>
        <time>2025-04-29T11:59:11Z</time>
      </trkpt>
      <trkpt lat="43.270108960568905" lon="-5.569456983357668">
        <ele>294.77999999999997</ele>
        <time>2025-04-29T11:59:12Z</time>
      </trkpt>
      <trkpt lat="43.268882017582655" lon="-5.569962998852134">
        <ele>292.38</ele>
        <time>2025-04-29T11:59:23Z</time>
      </trkpt>
      <trkpt lat="43.268762994557619" lon="-5.570013960823417">
        <ele>292.38</ele>
        <time>2025-04-29T11:59:24Z</time>
      </trkpt>
      <trkpt lat="43.267981968820095" lon="-5.570364994928241">
        <ele>290.45999999999998</ele>
        <time>2025-04-29T11:59:31Z</time>
      </trkpt>
      <trkpt lat="43.267889013513923" lon="-5.570432972162962">
        <ele>289.97000000000003</ele>
        <time>2025-04-29T11:59:32Z</time>
      </trkpt>
      <trkpt lat="43.267815001308918" lon="-5.570515030995011">
        <ele>289.00999999999999</ele>
        <time>2025-04-29T11:59:33Z</time>
      </trkpt>
      <trkpt lat="43.267768984660506" lon="-5.570632964372635">
        <ele>288.52999999999997</ele>
        <time>2025-04-29T11:59:34Z</time>
      </trkpt>
      <trkpt lat="43.267721962183714" lon="-5.570766991004348">
        <ele>287.56999999999999</ele>
        <time>2025-04-29T11:59:35Z</time>
      </trkpt>
      <trkpt lat="43.267718022689223" lon="-5.570914009585977">
        <ele>287.08999999999997</ele>
        <time>2025-04-29T11:59:36Z</time>
      </trkpt>
      <trkpt lat="43.26771299354732" lon="-5.571060022339225">
        <ele>286.61000000000001</ele>
        <time>2025-04-29T11:59:37Z</time>
      </trkpt>
      <trkpt lat="43.267705030739307" lon="-5.571345007047057">
        <ele>285.17000000000002</ele>
        <time>2025-04-29T11:59:39Z</time>
      </trkpt>
      <trkpt lat="43.267697989940643" lon="-5.571467969566584">
        <ele>284.20999999999998</ele>
        <time>2025-04-29T11:59:40Z</time>
      </trkpt>
      <trkpt lat="43.2676259893924" lon="-5.571556985378265">
        <ele>283.25</ele>
        <time>2025-04-29T11:59:41Z</time>
      </trkpt>
      <trkpt lat="43.267530016601086" lon="-5.571678020060062">
        <ele>282.76999999999998</ele>
        <time>2025-04-29T11:59:42Z</time>
      </trkpt>
      <trkpt lat="43.267447035759687" lon="-5.571726970374584">
        <ele>282.76999999999998</ele>
        <time>2025-04-29T11:59:43Z</time>
      </trkpt>
      <trkpt lat="43.266463000327349" lon="-5.572314960882068">
        <ele>280.83999999999997</ele>
        <time>2025-04-29T11:59:51Z</time>
      </trkpt>
      <trkpt lat="43.266058992594481" lon="-5.572562981396914">
        <ele>280.83999999999997</ele>
        <time>2025-04-29T11:59:54Z</time>
      </trkpt>
      <trkpt lat="43.264589980244637" lon="-5.573124988004565">
        <ele>282.27999999999997</ele>
        <time>2025-04-29T12:00:04Z</time>
      </trkpt>
      <trkpt lat="43.264294015243649" lon="-5.573234036564827">
        <ele>282.27999999999997</ele>
        <time>2025-04-29T12:00:06Z</time>
      </trkpt>
      <trkpt lat="43.263378040865064" lon="-5.573666961863637">
        <ele>281.80000000000001</ele>
        <time>2025-04-29T12:00:14Z</time>
      </trkpt>
      <trkpt lat="43.263202020898461" lon="-5.57375798933208">
        <ele>281.31999999999999</ele>
        <time>2025-04-29T12:00:16Z</time>
      </trkpt>
      <trkpt lat="43.262556027621031" lon="-5.574092008173466">
        <ele>280.36000000000001</ele>
        <time>2025-04-29T12:00:22Z</time>
      </trkpt>
      <trkpt lat="43.262343965470791" lon="-5.574204996228218">
        <ele>279.88</ele>
        <time>2025-04-29T12:00:24Z</time>
      </trkpt>
      <trkpt lat="43.262236006557941" lon="-5.574261993169785">
        <ele>280.36000000000001</ele>
        <time>2025-04-29T12:00:25Z</time>
      </trkpt>
      <trkpt lat="43.261928977444768" lon="-5.57442401535809">
        <ele>280.36000000000001</ele>
        <time>2025-04-29T12:00:28Z</time>
      </trkpt>
      <trkpt lat="43.26184599660337" lon="-5.574468020349741">
        <ele>280.36000000000001</ele>
        <time>2025-04-29T12:00:29Z</time>
      </trkpt>
      <trkpt lat="43.261775001883507" lon="-5.574505990371108">
        <ele>280.36000000000001</ele>
        <time>2025-04-29T12:00:30Z</time>
      </trkpt>
      <trkpt lat="43.261646004393697" lon="-5.574573967605829">
        <ele>280.83999999999997</ele>
        <time>2025-04-29T12:00:36Z</time>
      </trkpt>
      <trkpt lat="43.261623959988356" lon="-5.574586037546396">
        <ele>280.83999999999997</ele>
        <time>2025-04-29T12:00:37Z</time>
      </trkpt>
      <trkpt lat="43.261624965816736" lon="-5.574715035036206">
        <ele>280.36000000000001</ele>
        <time>2025-04-29T12:00:38Z</time>
      </trkpt>
      <trkpt lat="43.261664025485516" lon="-5.574777983129025">
        <ele>280.36000000000001</ele>
        <time>2025-04-29T12:00:39Z</time>
      </trkpt>
      <trkpt lat="43.26171699911356" lon="-5.57485300116241">
        <ele>279.88</ele>
        <time>2025-04-29T12:00:40Z</time>
      </trkpt>
      <trkpt lat="43.261779025197029" lon="-5.57494000531733">
        <ele>279.39999999999998</ele>
        <time>2025-04-29T12:00:41Z</time>
      </trkpt>
      <trkpt lat="43.262478997930884" lon="-5.57592898607254">
        <ele>278.44</ele>
        <time>2025-04-29T12:00:49Z</time>
      </trkpt>
      <trkpt lat="43.262702040374279" lon="-5.576226962730289">
        <ele>278.44</ele>
        <time>2025-04-29T12:00:51Z</time>
      </trkpt>
      <trkpt lat="43.262811005115509" lon="-5.576382027938962">
        <ele>279.39999999999998</ele>
        <time>2025-04-29T12:00:52Z</time>
      </trkpt>
      <trkpt lat="43.263279972597957" lon="-5.577047970145941">
        <ele>281.80000000000001</ele>
        <time>2025-04-29T12:00:56Z</time>
      </trkpt>
      <trkpt lat="43.263387009501457" lon="-5.577199012041092">
        <ele>282.27999999999997</ele>
        <time>2025-04-29T12:00:57Z</time>
      </trkpt>
      <trkpt lat="43.263489017263055" lon="-5.577337983995676">
        <ele>283.25</ele>
        <time>2025-04-29T12:00:58Z</time>
      </trkpt>
      <trkpt lat="43.263581972569227" lon="-5.577465975657105">
        <ele>283.73000000000002</ele>
        <time>2025-04-29T12:00:59Z</time>
      </trkpt>
      <trkpt lat="43.263667970895767" lon="-5.577583992853761">
        <ele>283.73000000000002</ele>
        <time>2025-04-29T12:01:00Z</time>
      </trkpt>
      <trkpt lat="43.263750029727817" lon="-5.577694969251752">
        <ele>283.73000000000002</ele>
        <time>2025-04-29T12:01:01Z</time>
      </trkpt>
      <trkpt lat="43.264017999172211" lon="-5.57809503749013">
        <ele>284.69</ele>
        <time>2025-04-29T12:01:05Z</time>
      </trkpt>
      <trkpt lat="43.264116989448667" lon="-5.57822797447443">
        <ele>284.20999999999998</ele>
        <time>2025-04-29T12:01:07Z</time>
      </trkpt>
      <trkpt lat="43.264155965298414" lon="-5.578281031921506">
        <ele>284.20999999999998</ele>
        <time>2025-04-29T12:01:08Z</time>
      </trkpt>
      <trkpt lat="43.264193013310432" lon="-5.578329982236028">
        <ele>284.69</ele>
        <time>2025-04-29T12:01:09Z</time>
      </trkpt>
      <trkpt lat="43.264220003038645" lon="-5.578366024419665">
        <ele>285.64999999999998</ele>
        <time>2025-04-29T12:01:16Z</time>
      </trkpt>
      <trkpt lat="43.264220003038645" lon="-5.578366024419665">
        <ele>285.64999999999998</ele>
        <time>2025-04-29T12:01:58Z</time>
      </trkpt>
      <trkpt lat="43.264220003038645" lon="-5.578366024419665">
        <ele>285.64999999999998</ele>
        <time>2025-04-29T12:02:35Z</time>
      </trkpt>
      <trkpt lat="43.264220003038645" lon="-5.578366024419665">
        <ele>286.13</ele>
        <time>2025-04-29T12:03:13Z</time>
      </trkpt>
      <trkpt lat="43.264220003038645" lon="-5.578366024419665">
        <ele>286.13</ele>
        <time>2025-04-29T12:04:07Z</time>
      </trkpt>
      <trkpt lat="43.264220003038645" lon="-5.578366024419665">
        <ele>286.13</ele>
        <time>2025-04-29T12:05:02Z</time>
      </trkpt>
      <trkpt lat="43.264220003038645" lon="-5.578366024419665">
        <ele>273.14999999999998</ele>
        <time>2025-04-29T12:05:53Z</time>
      </trkpt>
      <trkpt lat="43.264220003038645" lon="-5.578366024419665">
        <ele>273.63</ele>
        <time>2025-04-29T12:06:49Z</time>
      </trkpt>
      <trkpt lat="43.264220003038645" lon="-5.578366024419665">
        <ele>274.11000000000001</ele>
        <time>2025-04-29T12:07:32Z</time>
      </trkpt>
      <trkpt lat="43.264220003038645" lon="-5.578366024419665">
        <ele>274.11000000000001</ele>
        <time>2025-04-29T12:08:17Z</time>
      </trkpt>
      <trkpt lat="43.264220003038645" lon="-5.578366024419665">
        <ele>274.11000000000001</ele>
        <time>2025-04-29T12:08:51Z</time>
      </trkpt>
      <trkpt lat="43.264215979725122" lon="-5.578360995277762">
        <ele>274.11000000000001</ele>
        <time>2025-04-29T12:08:55Z</time>
      </trkpt>
      <trkpt lat="43.264103997498751" lon="-5.578210959210992">
        <ele>274.11000000000001</ele>
        <time>2025-04-29T12:08:59Z</time>
      </trkpt>
      <trkpt lat="43.263942981138825" lon="-5.578153962269425">
        <ele>274.58999999999997</ele>
        <time>2025-04-29T12:09:00Z</time>
      </trkpt>
      <trkpt lat="43.263882966712117" lon="-5.57818103581667">
        <ele>274.58999999999997</ele>
        <time>2025-04-29T12:09:01Z</time>
      </trkpt>
      <trkpt lat="43.263852959498763" lon="-5.578316990286112">
        <ele>274.58999999999997</ele>
        <time>2025-04-29T12:09:02Z</time>
      </trkpt>
      <trkpt lat="43.263860000297427" lon="-5.578372981399298">
        <ele>274.58999999999997</ele>
        <time>2025-04-29T12:09:03Z</time>
      </trkpt>
      <trkpt lat="43.263860000297427" lon="-5.578372981399298">
        <ele>274.11000000000001</ele>
        <time>2025-04-29T12:09:04Z</time>
      </trkpt>
      <trkpt lat="43.263940969482064" lon="-5.578457973897457">
        <ele>274.11000000000001</ele>
        <time>2025-04-29T12:09:05Z</time>
      </trkpt>
      <trkpt lat="43.264022022485733" lon="-5.578543972223997">
        <ele>274.11000000000001</ele>
        <time>2025-04-29T12:09:06Z</time>
      </trkpt>
      <trkpt lat="43.264114977791905" lon="-5.578642962500453">
        <ele>273.63</ele>
        <time>2025-04-29T12:09:07Z</time>
      </trkpt>
      <trkpt lat="43.264518985524774" lon="-5.579032972455025">
        <ele>275.56</ele>
        <time>2025-04-29T12:09:11Z</time>
      </trkpt>
      <trkpt lat="43.264608001336455" lon="-5.579160964116454">
        <ele>276.51999999999998</ele>
        <time>2025-04-29T12:09:12Z</time>
      </trkpt>
      <trkpt lat="43.26468201354146" lon="-5.579289961606264">
        <ele>277</ele>
        <time>2025-04-29T12:09:13Z</time>
      </trkpt>
      <trkpt lat="43.264731969684362" lon="-5.579428011551499">
        <ele>277.95999999999998</ele>
        <time>2025-04-29T12:09:14Z</time>
      </trkpt>
      <trkpt lat="43.264758959412575" lon="-5.579594979062676">
        <ele>278.44</ele>
        <time>2025-04-29T12:09:15Z</time>
      </trkpt>
      <trkpt lat="43.264753008261323" lon="-5.579751972109079">
        <ele>279.39999999999998</ele>
        <time>2025-04-29T12:09:16Z</time>
      </trkpt>
      <trkpt lat="43.26474797911942" lon="-5.579913994297385">
        <ele>279.88</ele>
        <time>2025-04-29T12:09:17Z</time>
      </trkpt>
      <trkpt lat="43.264742027968168" lon="-5.580084985122085">
        <ele>280.36000000000001</ele>
        <time>2025-04-29T12:09:18Z</time>
      </trkpt>
      <trkpt lat="43.264584029093385" lon="-5.58076299726963">
        <ele>282.76999999999998</ele>
        <time>2025-04-29T12:09:22Z</time>
      </trkpt>
      <trkpt lat="43.264497024938464" lon="-5.581015041097999">
        <ele>283.25</ele>
        <time>2025-04-29T12:09:24Z</time>
      </trkpt>
      <trkpt lat="43.264528959989548" lon="-5.581202041357756">
        <ele>282.76999999999998</ele>
        <time>2025-04-29T12:09:25Z</time>
      </trkpt>
      <trkpt lat="43.264586040750146" lon="-5.581271024420857">
        <ele>282.27999999999997</ele>
        <time>2025-04-29T12:09:26Z</time>
      </trkpt>
      <trkpt lat="43.264658963307738" lon="-5.581359034404159">
        <ele>281.31999999999999</ele>
        <time>2025-04-29T12:09:27Z</time>
      </trkpt>
      <trkpt lat="43.264743033796549" lon="-5.581461964175105">
        <ele>280.36000000000001</ele>
        <time>2025-04-29T12:09:28Z</time>
      </trkpt>
      <trkpt lat="43.265337981283665" lon="-5.582450022920966">
        <ele>275.56</ele>
        <time>2025-04-29T12:09:34Z</time>
      </trkpt>
      <trkpt lat="43.266049018129706" lon="-5.584553964436054">
        <ele>270.75</ele>
        <time>2025-04-29T12:09:43Z</time>
      </trkpt>
      <trkpt lat="43.26616401784122" lon="-5.586579032242298">
        <ele>267.38</ele>
        <time>2025-04-29T12:09:50Z</time>
      </trkpt>
      <trkpt lat="43.266110038384795" lon="-5.58901296928525">
        <ele>265.94</ele>
        <time>2025-04-29T12:09:59Z</time>
      </trkpt>
      <trkpt lat="43.266150020062923" lon="-5.589287979528308">
        <ele>265.94</ele>
        <time>2025-04-29T12:10:00Z</time>
      </trkpt>
      <trkpt lat="43.266215985640883" lon="-5.589543962851167">
        <ele>266.42000000000002</ele>
        <time>2025-04-29T12:10:01Z</time>
      </trkpt>
      <trkpt lat="43.266283040866256" lon="-5.589802041649818">
        <ele>266.89999999999998</ele>
        <time>2025-04-29T12:10:02Z</time>
      </trkpt>
      <trkpt lat="43.266381025314331" lon="-5.590041009709239">
        <ele>267.38</ele>
        <time>2025-04-29T12:10:03Z</time>
      </trkpt>
      <trkpt lat="43.266497030854225" lon="-5.590264974161983">
        <ele>267.38</ele>
        <time>2025-04-29T12:10:04Z</time>
      </trkpt>
      <trkpt lat="43.266613958403468" lon="-5.590492961928248">
        <ele>267.86000000000001</ele>
        <time>2025-04-29T12:10:05Z</time>
      </trkpt>
      <trkpt lat="43.266747985035181" lon="-5.590701000764966">
        <ele>268.82999999999998</ele>
        <time>2025-04-29T12:10:06Z</time>
      </trkpt>
      <trkpt lat="43.266898021101952" lon="-5.590890012681484">
        <ele>269.31</ele>
        <time>2025-04-29T12:10:07Z</time>
      </trkpt>
      <trkpt lat="43.267059037461877" lon="-5.591057986021042">
        <ele>269.79000000000002</ele>
        <time>2025-04-29T12:10:08Z</time>
      </trkpt>
      <trkpt lat="43.26723899692297" lon="-5.591186983510852">
        <ele>270.26999999999998</ele>
        <time>2025-04-29T12:10:09Z</time>
      </trkpt>
      <trkpt lat="43.267419040203094" lon="-5.591314975172281">
        <ele>270.26999999999998</ele>
        <time>2025-04-29T12:10:10Z</time>
      </trkpt>
      <trkpt lat="43.267598999664187" lon="-5.59144196100533">
        <ele>270.75</ele>
        <time>2025-04-29T12:10:11Z</time>
      </trkpt>
      <trkpt lat="43.267794968560338" lon="-5.591513961553574">
        <ele>270.75</ele>
        <time>2025-04-29T12:10:12Z</time>
      </trkpt>
      <trkpt lat="43.268002001568675" lon="-5.59158998541534">
        <ele>270.75</ele>
        <time>2025-04-29T12:10:13Z</time>
      </trkpt>
      <trkpt lat="43.268200987949967" lon="-5.591609012335539">
        <ele>270.75</ele>
        <time>2025-04-29T12:10:14Z</time>
      </trkpt>
      <trkpt lat="43.268407015129924" lon="-5.591628961265087">
        <ele>270.75</ele>
        <time>2025-04-29T12:10:15Z</time>
      </trkpt>
      <trkpt lat="43.26861597597599" lon="-5.591602977365255">
        <ele>270.75</ele>
        <time>2025-04-29T12:10:16Z</time>
      </trkpt>
      <trkpt lat="43.268822003155947" lon="-5.591564001515508">
        <ele>270.75</ele>
        <time>2025-04-29T12:10:17Z</time>
      </trkpt>
      <trkpt lat="43.269029036164284" lon="-5.59152502566576">
        <ele>270.75</ele>
        <time>2025-04-29T12:10:18Z</time>
      </trkpt>
      <trkpt lat="43.270893003791571" lon="-5.591061003506184">
        <ele>267.86000000000001</ele>
        <time>2025-04-29T12:10:27Z</time>
      </trkpt>
      <trkpt lat="43.271100958809257" lon="-5.59109696187079">
        <ele>267.38</ele>
        <time>2025-04-29T12:10:28Z</time>
      </trkpt>
      <trkpt lat="43.271305980160832" lon="-5.59113996103406">
        <ele>266.89999999999998</ele>
        <time>2025-04-29T12:10:29Z</time>
      </trkpt>
      <trkpt lat="43.271503038704395" lon="-5.591213973239064">
        <ele>266.42000000000002</ele>
        <time>2025-04-29T12:10:30Z</time>
      </trkpt>
      <trkpt lat="43.271692972630262" lon="-5.591296032071114">
        <ele>266.42000000000002</ele>
        <time>2025-04-29T12:10:31Z</time>
      </trkpt>
      <trkpt lat="43.271876033395529" lon="-5.591412037611008">
        <ele>266.42000000000002</ele>
        <time>2025-04-29T12:10:32Z</time>
      </trkpt>
      <trkpt lat="43.272056998685002" lon="-5.591526031494141">
        <ele>266.89999999999998</ele>
        <time>2025-04-29T12:10:33Z</time>
      </trkpt>
      <trkpt lat="43.272228995338082" lon="-5.59167598374188">
        <ele>267.38</ele>
        <time>2025-04-29T12:10:34Z</time>
      </trkpt>
      <trkpt lat="43.272376013919711" lon="-5.591857032850385">
        <ele>267.38</ele>
        <time>2025-04-29T12:10:35Z</time>
      </trkpt>
      <trkpt lat="43.27252596616745" lon="-5.592046966776252">
        <ele>267.86000000000001</ele>
        <time>2025-04-29T12:10:36Z</time>
      </trkpt>
      <trkpt lat="43.272663010284305" lon="-5.592251988127828">
        <ele>268.35000000000002</ele>
        <time>2025-04-29T12:10:37Z</time>
      </trkpt>
      <trkpt lat="43.272802988067269" lon="-5.592462960630655">
        <ele>268.35000000000002</ele>
        <time>2025-04-29T12:10:38Z</time>
      </trkpt>
      <trkpt lat="43.272921005263925" lon="-5.592696983367205">
        <ele>268.35000000000002</ele>
        <time>2025-04-29T12:10:39Z</time>
      </trkpt>
      <trkpt lat="43.27303902246058" lon="-5.592932011932135">
        <ele>268.35000000000002</ele>
        <time>2025-04-29T12:10:40Z</time>
      </trkpt>
      <trkpt lat="43.27312896028161" lon="-5.593187995254993">
        <ele>268.82999999999998</ele>
        <time>2025-04-29T12:10:41Z</time>
      </trkpt>
      <trkpt lat="43.273209007456899" lon="-5.593449007719755">
        <ele>268.82999999999998</ele>
        <time>2025-04-29T12:10:42Z</time>
      </trkpt>
      <trkpt lat="43.273289976641536" lon="-5.593710020184517">
        <ele>268.82999999999998</ele>
        <time>2025-04-29T12:10:43Z</time>
      </trkpt>
      <trkpt lat="43.273356026038527" lon="-5.59397698380053">
        <ele>269.31</ele>
        <time>2025-04-29T12:10:44Z</time>
      </trkpt>
      <trkpt lat="43.273389972746372" lon="-5.59425400570035">
        <ele>269.31</ele>
        <time>2025-04-29T12:10:45Z</time>
      </trkpt>
      <trkpt lat="43.273425009101629" lon="-5.59453203342855">
        <ele>269.79000000000002</ele>
        <time>2025-04-29T12:10:46Z</time>
      </trkpt>
      <trkpt lat="43.2734489813447" lon="-5.594810983166099">
        <ele>269.79000000000002</ele>
        <time>2025-04-29T12:10:47Z</time>
      </trkpt>
      <trkpt lat="43.273435989394784" lon="-5.595088005065918">
        <ele>269.79000000000002</ele>
        <time>2025-04-29T12:10:48Z</time>
      </trkpt>
      <trkpt lat="43.273422997444868" lon="-5.595369972288609">
        <ele>270.26999999999998</ele>
        <time>2025-04-29T12:10:49Z</time>
      </trkpt>
      <trkpt lat="43.273266004398465" lon="-5.597791001200676">
        <ele>274.11000000000001</ele>
        <time>2025-04-29T12:10:58Z</time>
      </trkpt>
      <trkpt lat="43.27308302745223" lon="-5.600761966779828">
        <ele>277</ele>
        <time>2025-04-29T12:11:09Z</time>
      </trkpt>
      <trkpt lat="43.273030975833535" lon="-5.60160200111568">
        <ele>276.51999999999998</ele>
        <time>2025-04-29T12:11:12Z</time>
      </trkpt>
      <trkpt lat="43.272849004715681" lon="-5.604095030575991">
        <ele>274.58999999999997</ele>
        <time>2025-04-29T12:11:21Z</time>
      </trkpt>
      <trkpt lat="43.272537030279636" lon="-5.606493009254336">
        <ele>274.11000000000001</ele>
        <time>2025-04-29T12:11:30Z</time>
      </trkpt>
      <trkpt lat="43.272020034492016" lon="-5.610096976161003">
        <ele>280.83999999999997</ele>
        <time>2025-04-29T12:11:43Z</time>
      </trkpt>
      <trkpt lat="43.289059018716216" lon="-5.632966998964548">
        <ele>240.47</ele>
        <time>2025-04-29T12:13:51Z</time>
      </trkpt>
      <trkpt lat="43.289529997855425" lon="-5.635811984539032">
        <ele>240.94999999999999</ele>
        <time>2025-04-29T12:14:02Z</time>
      </trkpt>
      <trkpt lat="43.289453973993659" lon="-5.638474998995662">
        <ele>242.38999999999999</ele>
        <time>2025-04-29T12:14:13Z</time>
      </trkpt>
      <trkpt lat="43.288976959884167" lon="-5.64162902534008">
        <ele>239.02000000000001</ele>
        <time>2025-04-29T12:14:25Z</time>
      </trkpt>
      <trkpt lat="43.288588039577007" lon="-5.64392801374197">
        <ele>237.58000000000001</ele>
        <time>2025-04-29T12:14:34Z</time>
      </trkpt>
      <trkpt lat="43.288290984928608" lon="-5.646685995161533">
        <ele>238.53999999999999</ele>
        <time>2025-04-29T12:14:46Z</time>
      </trkpt>
      <trkpt lat="43.287707017734647" lon="-5.648594973608851">
        <ele>239.02000000000001</ele>
        <time>2025-04-29T12:14:55Z</time>
      </trkpt>
      <trkpt lat="43.286743015050888" lon="-5.650764964520931">
        <ele>234.22</ele>
        <time>2025-04-29T12:15:05Z</time>
      </trkpt>
      <trkpt lat="43.286667997017503" lon="-5.650977026671171">
        <ele>233.25999999999999</ele>
        <time>2025-04-29T12:15:06Z</time>
      </trkpt>
      <trkpt lat="43.286592978984118" lon="-5.651953015476465">
        <ele>230.84999999999999</ele>
        <time>2025-04-29T12:15:10Z</time>
      </trkpt>
      <trkpt lat="43.286603037267923" lon="-5.652203969657421">
        <ele>230.37</ele>
        <time>2025-04-29T12:15:11Z</time>
      </trkpt>
      <trkpt lat="43.286635978147388" lon="-5.652446039021015">
        <ele>229.88999999999999</ele>
        <time>2025-04-29T12:15:12Z</time>
      </trkpt>
      <trkpt lat="43.286674031987786" lon="-5.652689030393958">
        <ele>229.88999999999999</ele>
        <time>2025-04-29T12:15:13Z</time>
      </trkpt>
      <trkpt lat="43.286710996180773" lon="-5.652924980968237">
        <ele>229.41</ele>
        <time>2025-04-29T12:15:14Z</time>
      </trkpt>
      <trkpt lat="43.286871006712317" lon="-5.65333996899426">
        <ele>229.41</ele>
        <time>2025-04-29T12:15:16Z</time>
      </trkpt>
      <trkpt lat="43.287381967529655" lon="-5.654199030250311">
        <ele>228.93000000000001</ele>
        <time>2025-04-29T12:15:21Z</time>
      </trkpt>
      <trkpt lat="43.287512976676226" lon="-5.65432601608336">
        <ele>228.93000000000001</ele>
        <time>2025-04-29T12:15:22Z</time>
      </trkpt>
      <trkpt lat="43.288565995171666" lon="-5.655083991587162">
        <ele>227.97</ele>
        <time>2025-04-29T12:15:29Z</time>
      </trkpt>
      <trkpt lat="43.289331011474133" lon="-5.655812965705991">
        <ele>227.49000000000001</ele>
        <time>2025-04-29T12:15:35Z</time>
      </trkpt>
      <trkpt lat="43.289545001462102" lon="-5.656142039224505">
        <ele>227.49000000000001</ele>
        <time>2025-04-29T12:15:37Z</time>
      </trkpt>
      <trkpt lat="43.289652038365602" lon="-5.65630498342216">
        <ele>227.97</ele>
        <time>2025-04-29T12:15:38Z</time>
      </trkpt>
      <trkpt lat="43.290242040529847" lon="-5.657874997705221">
        <ele>227.97</ele>
        <time>2025-04-29T12:15:46Z</time>
      </trkpt>
      <trkpt lat="43.290747972205281" lon="-5.660040965303779">
        <ele>226.05000000000001</ele>
        <time>2025-04-29T12:15:55Z</time>
      </trkpt>
      <trkpt lat="43.290768004953861" lon="-5.66034103743732">
        <ele>225.09</ele>
        <time>2025-04-29T12:15:56Z</time>
      </trkpt>
      <trkpt lat="43.290748978033662" lon="-5.660586962476373">
        <ele>224.61000000000001</ele>
        <time>2025-04-29T12:15:57Z</time>
      </trkpt>
      <trkpt lat="43.290728023275733" lon="-5.660859039053321">
        <ele>224.12</ele>
        <time>2025-04-29T12:15:58Z</time>
      </trkpt>
      <trkpt lat="43.290691981092095" lon="-5.661119967699051">
        <ele>223.63999999999999</ele>
        <time>2025-04-29T12:15:59Z</time>
      </trkpt>
      <trkpt lat="43.290359973907471" lon="-5.663462961092591">
        <ele>222.19999999999999</ele>
        <time>2025-04-29T12:16:09Z</time>
      </trkpt>
      <trkpt lat="43.29040196724236" lon="-5.665206983685494">
        <ele>220.75999999999999</ele>
        <time>2025-04-29T12:16:16Z</time>
      </trkpt>
      <trkpt lat="43.290567006915808" lon="-5.667483005672693">
        <ele>217.88</ele>
        <time>2025-04-29T12:16:26Z</time>
      </trkpt>
      <trkpt lat="43.290753001347184" lon="-5.669598011299968">
        <ele>216.43000000000001</ele>
        <time>2025-04-29T12:16:35Z</time>
      </trkpt>
      <trkpt lat="43.291362030431628" lon="-5.671429038047791">
        <ele>216.43000000000001</ele>
        <time>2025-04-29T12:16:43Z</time>
      </trkpt>
      <trkpt lat="43.292456036433578" lon="-5.673219999298453">
        <ele>217.40000000000001</ele>
        <time>2025-04-29T12:16:52Z</time>
      </trkpt>
      <trkpt lat="43.293979028239846" lon="-5.675455033779144">
        <ele>221.24000000000001</ele>
        <time>2025-04-29T12:17:04Z</time>
      </trkpt>
      <trkpt lat="43.295616013929248" lon="-5.677461996674538">
        <ele>220.28</ele>
        <time>2025-04-29T12:17:16Z</time>
      </trkpt>
      <trkpt lat="43.296770034357905" lon="-5.679429983720183">
        <ele>216.43000000000001</ele>
        <time>2025-04-29T12:17:25Z</time>
      </trkpt>
      <trkpt lat="43.297839984297752" lon="-5.68122697994113">
        <ele>217.40000000000001</ele>
        <time>2025-04-29T12:17:34Z</time>
      </trkpt>
      <trkpt lat="43.297907961532474" lon="-5.681443987414241">
        <ele>217.40000000000001</ele>
        <time>2025-04-29T12:17:35Z</time>
      </trkpt>
      <trkpt lat="43.297978034242988" lon="-5.681669963523746">
        <ele>217.40000000000001</ele>
        <time>2025-04-29T12:17:36Z</time>
      </trkpt>
      <trkpt lat="43.298456976190209" lon="-5.683713974431157">
        <ele>221.72</ele>
        <time>2025-04-29T12:17:45Z</time>
      </trkpt>
      <trkpt lat="43.299129037186503" lon="-5.686728022992611">
        <ele>223.16</ele>
        <time>2025-04-29T12:17:58Z</time>
      </trkpt>
      <trkpt lat="43.299876032397151" lon="-5.68994801491499">
        <ele>221.72</ele>
        <time>2025-04-29T12:18:11Z</time>
      </trkpt>
      <trkpt lat="43.30052001401782" lon="-5.691434964537621">
        <ele>219.31999999999999</ele>
        <time>2025-04-29T12:18:17Z</time>
      </trkpt>
      <trkpt lat="43.302166974171996" lon="-5.693626999855042">
        <ele>211.63</ele>
        <time>2025-04-29T12:18:28Z</time>
      </trkpt>
      <trkpt lat="43.302790001034737" lon="-5.695097018033266">
        <ele>210.19</ele>
        <time>2025-04-29T12:18:34Z</time>
      </trkpt>
      <trkpt lat="43.302837023511529" lon="-5.695358030498028">
        <ele>210.66999999999999</ele>
        <time>2025-04-29T12:18:35Z</time>
      </trkpt>
      <trkpt lat="43.302874993532896" lon="-5.695619964972138">
        <ele>210.66999999999999</ele>
        <time>2025-04-29T12:18:36Z</time>
      </trkpt>
      <trkpt lat="43.303090995177627" lon="-5.696941958740354">
        <ele>212.11000000000001</ele>
        <time>2025-04-29T12:18:41Z</time>
      </trkpt>
      <trkpt lat="43.303156038746238" lon="-5.69721101783216">
        <ele>212.11000000000001</ele>
        <time>2025-04-29T12:18:42Z</time>
      </trkpt>
      <trkpt lat="43.303261986002326" lon="-5.697459038347006">
        <ele>212.11000000000001</ele>
        <time>2025-04-29T12:18:43Z</time>
      </trkpt>
      <trkpt lat="43.303375979885459" lon="-5.697697000578046">
        <ele>212.11000000000001</ele>
        <time>2025-04-29T12:18:44Z</time>
      </trkpt>
      <trkpt lat="43.303514029830694" lon="-5.697908978909254">
        <ele>212.11000000000001</ele>
        <time>2025-04-29T12:18:45Z</time>
      </trkpt>
      <trkpt lat="43.303671022877097" lon="-5.698096984997392">
        <ele>212.11000000000001</ele>
        <time>2025-04-29T12:18:46Z</time>
      </trkpt>
      <trkpt lat="43.303826004266739" lon="-5.698282979428768">
        <ele>211.63</ele>
        <time>2025-04-29T12:18:47Z</time>
      </trkpt>
      <trkpt lat="43.304005963727832" lon="-5.698416000232101">
        <ele>211.63</ele>
        <time>2025-04-29T12:18:48Z</time>
      </trkpt>
      <trkpt lat="43.304183995351195" lon="-5.698529994115233">
        <ele>211.15000000000001</ele>
        <time>2025-04-29T12:18:49Z</time>
      </trkpt>
      <trkpt lat="43.304359009489417" lon="-5.698641976341605">
        <ele>211.63</ele>
        <time>2025-04-29T12:18:50Z</time>
      </trkpt>
      <trkpt lat="43.304531006142497" lon="-5.698755970224738">
        <ele>211.15000000000001</ele>
        <time>2025-04-29T12:18:51Z</time>
      </trkpt>
      <trkpt lat="43.304870976135135" lon="-5.698982030153275">
        <ele>211.63</ele>
        <time>2025-04-29T12:18:53Z</time>
      </trkpt>
      <trkpt lat="43.305038027465343" lon="-5.699093006551266">
        <ele>211.63</ele>
        <time>2025-04-29T12:18:54Z</time>
      </trkpt>
      <trkpt lat="43.305184040218592" lon="-5.699260979890823">
        <ele>211.63</ele>
        <time>2025-04-29T12:18:55Z</time>
      </trkpt>
      <trkpt lat="43.305329969152808" lon="-5.699427025392652">
        <ele>212.11000000000001</ele>
        <time>2025-04-29T12:18:56Z</time>
      </trkpt>
      <trkpt lat="43.305475981906056" lon="-5.699594998732209">
        <ele>211.63</ele>
        <time>2025-04-29T12:18:57Z</time>
      </trkpt>
      <trkpt lat="43.305607996881008" lon="-5.69978803396225">
        <ele>211.15000000000001</ele>
        <time>2025-04-29T12:18:58Z</time>
      </trkpt>
      <trkpt lat="43.305738000199199" lon="-5.699992971494794">
        <ele>211.15000000000001</ele>
        <time>2025-04-29T12:18:59Z</time>
      </trkpt>
      <trkpt lat="43.307599034160376" lon="-5.702654980123043">
        <ele>209.69999999999999</ele>
        <time>2025-04-29T12:19:12Z</time>
      </trkpt>
      <trkpt lat="43.309528967365623" lon="-5.704695973545313">
        <ele>203.46000000000001</ele>
        <time>2025-04-29T12:19:23Z</time>
      </trkpt>
      <trkpt lat="43.310824977234006" lon="-5.70552502758801">
        <ele>200.56999999999999</ele>
        <time>2025-04-29T12:19:29Z</time>
      </trkpt>
      <trkpt lat="43.31274401396513" lon="-5.705947978422046">
        <ele>199.13</ele>
        <time>2025-04-29T12:19:37Z</time>
      </trkpt>
      <trkpt lat="43.315291022881866" lon="-5.706530017778277">
        <ele>202.49000000000001</ele>
        <time>2025-04-29T12:19:48Z</time>
      </trkpt>
      <trkpt lat="43.31732296384871" lon="-5.707521010190249">
        <ele>200.09</ele>
        <time>2025-04-29T12:19:57Z</time>
      </trkpt>
      <trkpt lat="43.318671025335789" lon="-5.708649968728423">
        <ele>195.28</ele>
        <time>2025-04-29T12:20:04Z</time>
      </trkpt>
      <trkpt lat="43.319843988865614" lon="-5.710201961919665">
        <ele>188.56</ele>
        <time>2025-04-29T12:20:13Z</time>
      </trkpt>
      <trkpt lat="43.32084696739912" lon="-5.712184030562639">
        <ele>190</ele>
        <time>2025-04-29T12:20:23Z</time>
      </trkpt>
      <trkpt lat="43.32144501619041" lon="-5.714116981253028">
        <ele>190</ele>
        <time>2025-04-29T12:20:33Z</time>
      </trkpt>
      <trkpt lat="43.32179001532495" lon="-5.715596973896027">
        <ele>184.22999999999999</ele>
        <time>2025-04-29T12:20:42Z</time>
      </trkpt>
      <trkpt lat="43.321890011429787" lon="-5.716481013223529">
        <ele>184.71000000000001</ele>
        <time>2025-04-29T12:20:51Z</time>
      </trkpt>
      <trkpt lat="43.321903003379703" lon="-5.716559970751405">
        <ele>185.19</ele>
        <time>2025-04-29T12:20:52Z</time>
      </trkpt>
      <trkpt lat="43.321936028078198" lon="-5.716653009876609">
        <ele>185.19</ele>
        <time>2025-04-29T12:20:53Z</time>
      </trkpt>
      <trkpt lat="43.321967041119933" lon="-5.716740014031529">
        <ele>185.66999999999999</ele>
        <time>2025-04-29T12:20:54Z</time>
      </trkpt>
      <trkpt lat="43.321998976171017" lon="-5.716831963509321">
        <ele>185.66999999999999</ele>
        <time>2025-04-29T12:20:55Z</time>
      </trkpt>
      <trkpt lat="43.322036024183035" lon="-5.716932965442538">
        <ele>185.66999999999999</ele>
        <time>2025-04-29T12:20:56Z</time>
      </trkpt>
      <trkpt lat="43.322080029174685" lon="-5.717011000961065">
        <ele>186.15000000000001</ele>
        <time>2025-04-29T12:20:57Z</time>
      </trkpt>
      <trkpt lat="43.322141971439123" lon="-5.717159025371075">
        <ele>186.63</ele>
        <time>2025-04-29T12:20:59Z</time>
      </trkpt>
      <trkpt lat="43.322148006409407" lon="-5.717248963192105">
        <ele>187.11000000000001</ele>
        <time>2025-04-29T12:21:00Z</time>
      </trkpt>
      <trkpt lat="43.322158986702561" lon="-5.717419032007456">
        <ele>187.11000000000001</ele>
        <time>2025-04-29T12:21:02Z</time>
      </trkpt>
      <trkpt lat="43.322240961715579" lon="-5.717507964000106">
        <ele>187.59</ele>
        <time>2025-04-29T12:21:03Z</time>
      </trkpt>
      <trkpt lat="43.322296030819416" lon="-5.717552974820137">
        <ele>187.59</ele>
        <time>2025-04-29T12:21:04Z</time>
      </trkpt>
      <trkpt lat="43.322355039417744" lon="-5.717604020610452">
        <ele>187.59</ele>
        <time>2025-04-29T12:21:05Z</time>
      </trkpt>
      <trkpt lat="43.322417987510562" lon="-5.717656994238496">
        <ele>187.59</ele>
        <time>2025-04-29T12:21:06Z</time>
      </trkpt>
      <trkpt lat="43.322487976402044" lon="-5.717714997008443">
        <ele>188.08000000000001</ele>
        <time>2025-04-29T12:21:07Z</time>
      </trkpt>
      <trkpt lat="43.322568023577332" lon="-5.717782974243164">
        <ele>188.08000000000001</ele>
        <time>2025-04-29T12:21:08Z</time>
      </trkpt>
      <trkpt lat="43.323418032377958" lon="-5.718252025544643">
        <ele>189.03999999999999</ele>
        <time>2025-04-29T12:21:15Z</time>
      </trkpt>
      <trkpt lat="43.323567984625697" lon="-5.718320002779365">
        <ele>189.52000000000001</ele>
        <time>2025-04-29T12:21:16Z</time>
      </trkpt>
      <trkpt lat="43.323721038177609" lon="-5.718371970579028">
        <ele>189.52000000000001</ele>
        <time>2025-04-29T12:21:17Z</time>
      </trkpt>
      <trkpt lat="43.323880964890122" lon="-5.718379011377692">
        <ele>190</ele>
        <time>2025-04-29T12:21:18Z</time>
      </trkpt>
      <trkpt lat="43.324043992906809" lon="-5.718370964750648">
        <ele>190.47999999999999</ele>
        <time>2025-04-29T12:21:19Z</time>
      </trkpt>
      <trkpt lat="43.324221018701792" lon="-5.718361996114254">
        <ele>190.96000000000001</ele>
        <time>2025-04-29T12:21:20Z</time>
      </trkpt>
      <trkpt lat="43.324372982606292" lon="-5.718327965587378">
        <ele>191.44</ele>
        <time>2025-04-29T12:21:21Z</time>
      </trkpt>
      <trkpt lat="43.324526036158204" lon="-5.718242973089218">
        <ele>191.91999999999999</ele>
        <time>2025-04-29T12:21:22Z</time>
      </trkpt>
      <trkpt lat="43.324680011719465" lon="-5.718156974762678">
        <ele>192.40000000000001</ele>
        <time>2025-04-29T12:21:23Z</time>
      </trkpt>
      <trkpt lat="43.324820995330811" lon="-5.718040969222784">
        <ele>192.88</ele>
        <time>2025-04-29T12:21:24Z</time>
      </trkpt>
      <trkpt lat="43.324957033619285" lon="-5.717905014753342">
        <ele>193.36000000000001</ele>
        <time>2025-04-29T12:21:25Z</time>
      </trkpt>
      <trkpt lat="43.325084019452333" lon="-5.717757996171713">
        <ele>193.84</ele>
        <time>2025-04-29T12:21:26Z</time>
      </trkpt>
      <trkpt lat="43.325190972536802" lon="-5.717572001740336">
        <ele>194.80000000000001</ele>
        <time>2025-04-29T12:21:27Z</time>
      </trkpt>
      <trkpt lat="43.325300021097064" lon="-5.717383995652199">
        <ele>195.28</ele>
        <time>2025-04-29T12:21:28Z</time>
      </trkpt>
      <trkpt lat="43.325409991666675" lon="-5.717192972078919">
        <ele>196.25</ele>
        <time>2025-04-29T12:21:29Z</time>
      </trkpt>
      <trkpt lat="43.326588990166783" lon="-5.714900018647313">
        <ele>206.34</ele>
        <time>2025-04-29T12:21:40Z</time>
      </trkpt>
      <trkpt lat="43.327264990657568" lon="-5.714279003441334">
        <ele>211.15000000000001</ele>
        <time>2025-04-29T12:21:44Z</time>
      </trkpt>
      <trkpt lat="43.32746003754437" lon="-5.714170038700104">
        <ele>212.59</ele>
        <time>2025-04-29T12:21:45Z</time>
      </trkpt>
      <trkpt lat="43.327659023925662" lon="-5.714058978483081">
        <ele>214.03</ele>
        <time>2025-04-29T12:21:46Z</time>
      </trkpt>
      <trkpt lat="43.327874019742012" lon="-5.713997036218643">
        <ele>215.47</ele>
        <time>2025-04-29T12:21:47Z</time>
      </trkpt>
      <trkpt lat="43.328090021386743" lon="-5.713939033448696">
        <ele>216.91</ele>
        <time>2025-04-29T12:21:48Z</time>
      </trkpt>
      <trkpt lat="43.328319014981389" lon="-5.713878013193607">
        <ele>218.36000000000001</ele>
        <time>2025-04-29T12:21:49Z</time>
      </trkpt>
      <trkpt lat="43.328533004969358" lon="-5.713869966566563">
        <ele>220.28</ele>
        <time>2025-04-29T12:21:50Z</time>
      </trkpt>
      <trkpt lat="43.330415999516845" lon="-5.713794026523829">
        <ele>236.13999999999999</ele>
        <time>2025-04-29T12:21:58Z</time>
      </trkpt>
      <trkpt lat="43.331846036016941" lon="-5.713661005720496">
        <ele>247.68000000000001</ele>
        <time>2025-04-29T12:22:04Z</time>
      </trkpt>
      <trkpt lat="43.332074023783207" lon="-5.71362404152751">
        <ele>249.12</ele>
        <time>2025-04-29T12:22:05Z</time>
      </trkpt>
      <trkpt lat="43.33229798823595" lon="-5.713507030159235">
        <ele>251.03999999999999</ele>
        <time>2025-04-29T12:22:06Z</time>
      </trkpt>
      <trkpt lat="43.332516001537442" lon="-5.713384989649057">
        <ele>252.47999999999999</ele>
        <time>2025-04-29T12:22:07Z</time>
      </trkpt>
      <trkpt lat="43.332733009010553" lon="-5.713244006037712">
        <ele>253.93000000000001</ele>
        <time>2025-04-29T12:22:08Z</time>
      </trkpt>
      <trkpt lat="43.33294196985662" lon="-5.713087012991309">
        <ele>254.88999999999999</ele>
        <time>2025-04-29T12:22:09Z</time>
      </trkpt>
      <trkpt lat="43.333144979551435" lon="-5.71289598941803">
        <ele>256.32999999999998</ele>
        <time>2025-04-29T12:22:10Z</time>
      </trkpt>
      <trkpt lat="43.333323011174798" lon="-5.712679987773299">
        <ele>257.76999999999998</ele>
        <time>2025-04-29T12:22:11Z</time>
      </trkpt>
      <trkpt lat="43.33349802531302" lon="-5.712468009442091">
        <ele>259.20999999999998</ele>
        <time>2025-04-29T12:22:12Z</time>
      </trkpt>
      <trkpt lat="43.333673039451241" lon="-5.712246978655458">
        <ele>260.64999999999998</ele>
        <time>2025-04-29T12:22:13Z</time>
      </trkpt>
      <trkpt lat="43.3338029589504" lon="-5.711985966190696">
        <ele>262.10000000000002</ele>
        <time>2025-04-29T12:22:14Z</time>
      </trkpt>
      <trkpt lat="43.333934973925352" lon="-5.711722020059824">
        <ele>263.54000000000002</ele>
        <time>2025-04-29T12:22:15Z</time>
      </trkpt>
      <trkpt lat="43.334066988900304" lon="-5.711457990109921">
        <ele>264.98000000000002</ele>
        <time>2025-04-29T12:22:16Z</time>
      </trkpt>
      <trkpt lat="43.335632979869843" lon="-5.708118975162506">
        <ele>283.73000000000002</ele>
        <time>2025-04-29T12:22:28Z</time>
      </trkpt>
      <trkpt lat="43.336231028661132" lon="-5.70696696639061">
        <ele>290.45999999999998</ele>
        <time>2025-04-29T12:22:32Z</time>
      </trkpt>
      <trkpt lat="43.336418028920889" lon="-5.706718023866415">
        <ele>291.89999999999998</ele>
        <time>2025-04-29T12:22:33Z</time>
      </trkpt>
      <trkpt lat="43.336622966453433" lon="-5.706499004736543">
        <ele>293.33999999999997</ele>
        <time>2025-04-29T12:22:34Z</time>
      </trkpt>
      <trkpt lat="43.33685003221035" lon="-5.706328013911843">
        <ele>294.77999999999997</ele>
        <time>2025-04-29T12:22:35Z</time>
      </trkpt>
      <trkpt lat="43.337081959471107" lon="-5.70617001503706">
        <ele>296.22000000000003</ele>
        <time>2025-04-29T12:22:36Z</time>
      </trkpt>
      <trkpt lat="43.337322017177939" lon="-5.706040011718869">
        <ele>297.67000000000002</ele>
        <time>2025-04-29T12:22:37Z</time>
      </trkpt>
      <trkpt lat="43.337569031864405" lon="-5.705936998128891">
        <ele>299.58999999999997</ele>
        <time>2025-04-29T12:22:38Z</time>
      </trkpt>
      <trkpt lat="43.337825015187263" lon="-5.70587002672255">
        <ele>301.02999999999997</ele>
        <time>2025-04-29T12:22:39Z</time>
      </trkpt>
      <trkpt lat="43.338077981024981" lon="-5.705833984538913">
        <ele>302.94999999999999</ele>
        <time>2025-04-29T12:22:40Z</time>
      </trkpt>
      <trkpt lat="43.33833203651011" lon="-5.705812023952603">
        <ele>304.38999999999999</ele>
        <time>2025-04-29T12:22:41Z</time>
      </trkpt>
      <trkpt lat="43.338585002347827" lon="-5.705864997580648">
        <ele>306.31999999999999</ele>
        <time>2025-04-29T12:22:42Z</time>
      </trkpt>
      <trkpt lat="43.338836962357163" lon="-5.705916965380311">
        <ele>307.75999999999999</ele>
        <time>2025-04-29T12:22:43Z</time>
      </trkpt>
      <trkpt lat="43.339076014235616" lon="-5.706002963706851">
        <ele>309.19999999999999</ele>
        <time>2025-04-29T12:22:44Z</time>
      </trkpt>
      <trkpt lat="43.339309031143785" lon="-5.706115029752255">
        <ele>310.63999999999999</ele>
        <time>2025-04-29T12:22:45Z</time>
      </trkpt>
      <trkpt lat="43.339531989768147" lon="-5.706249978393316">
        <ele>312.08999999999997</ele>
        <time>2025-04-29T12:22:46Z</time>
      </trkpt>
      <trkpt lat="43.339740028604865" lon="-5.706418035551906">
        <ele>313.52999999999997</ele>
        <time>2025-04-29T12:22:47Z</time>
      </trkpt>
      <trkpt lat="43.339929962530732" lon="-5.706619033589959">
        <ele>315.44999999999999</ele>
        <time>2025-04-29T12:22:48Z</time>
      </trkpt>
      <trkpt lat="43.340113023295999" lon="-5.70681600831449">
        <ele>316.41000000000003</ele>
        <time>2025-04-29T12:22:49Z</time>
      </trkpt>
      <trkpt lat="43.340291976928711" lon="-5.707033015787602">
        <ele>317.85000000000002</ele>
        <time>2025-04-29T12:22:50Z</time>
      </trkpt>
      <trkpt lat="43.34044000133872" lon="-5.70722596719861">
        <ele>319.30000000000001</ele>
        <time>2025-04-29T12:22:51Z</time>
      </trkpt>
      <trkpt lat="43.34073998965323" lon="-5.707624023780227">
        <ele>321.69999999999999</ele>
        <time>2025-04-29T12:22:53Z</time>
      </trkpt>
      <trkpt lat="43.341515986248851" lon="-5.70866396650672">
        <ele>324.57999999999998</ele>
        <time>2025-04-29T12:23:00Z</time>
      </trkpt>
      <trkpt lat="43.342084027826786" lon="-5.70943501777947">
        <ele>323.13999999999999</ele>
        <time>2025-04-29T12:23:04Z</time>
      </trkpt>
      <trkpt lat="43.345375014469028" lon="-5.713952025398612">
        <ele>323.13999999999999</ele>
        <time>2025-04-29T12:23:36Z</time>
      </trkpt>
      <trkpt lat="43.346210019662976" lon="-5.715101016685367">
        <ele>332.75</ele>
        <time>2025-04-29T12:23:42Z</time>
      </trkpt>
      <trkpt lat="43.34997802041471" lon="-5.720176007598639">
        <ele>319.30000000000001</ele>
        <time>2025-04-29T12:23:51Z</time>
      </trkpt>
      <trkpt lat="43.351432029157877" lon="-5.721503030508757">
        <ele>308.24000000000001</ele>
        <time>2025-04-29T12:23:57Z</time>
      </trkpt>
      <trkpt lat="43.353106984868646" lon="-5.722271986305714">
        <ele>295.25999999999999</ele>
        <time>2025-04-29T12:24:03Z</time>
      </trkpt>
      <trkpt lat="43.354492010548711" lon="-5.722174001857638">
        <ele>282.27999999999997</ele>
        <time>2025-04-29T12:24:08Z</time>
      </trkpt>
      <trkpt lat="43.356541972607374" lon="-5.721412003040314">
        <ele>263.54000000000002</ele>
        <time>2025-04-29T12:24:16Z</time>
      </trkpt>
      <trkpt lat="43.359472034499049" lon="-5.720508014783263">
        <ele>242.38999999999999</ele>
        <time>2025-04-29T12:24:27Z</time>
      </trkpt>
      <trkpt lat="43.36097901687026" lon="-5.720829041674733">
        <ele>235.18000000000001</ele>
        <time>2025-04-29T12:24:33Z</time>
      </trkpt>
      <trkpt lat="43.362350966781378" lon="-5.721795978024602">
        <ele>229.88999999999999</ele>
        <time>2025-04-29T12:24:39Z</time>
      </trkpt>
      <trkpt lat="43.363676983863115" lon="-5.723435981199145">
        <ele>223.16</ele>
        <time>2025-04-29T12:24:46Z</time>
      </trkpt>
      <trkpt lat="43.3649090398103" lon="-5.724481958895922">
        <ele>217.88</ele>
        <time>2025-04-29T12:24:52Z</time>
      </trkpt>
      <trkpt lat="43.366269003599882" lon="-5.724999038502574">
        <ele>214.50999999999999</ele>
        <time>2025-04-29T12:24:58Z</time>
      </trkpt>
      <trkpt lat="43.367971032857895" lon="-5.724897030740976">
        <ele>210.66999999999999</ele>
        <time>2025-04-29T12:25:05Z</time>
      </trkpt>
      <trkpt lat="43.369424035772681" lon="-5.724306022748351">
        <ele>204.41999999999999</ele>
        <time>2025-04-29T12:25:12Z</time>
      </trkpt>
      <trkpt lat="43.370446963235736" lon="-5.723925987258554">
        <ele>200.56999999999999</ele>
        <time>2025-04-29T12:25:18Z</time>
      </trkpt>
      <trkpt lat="43.370578978210688" lon="-5.723834959790111">
        <ele>200.09</ele>
        <time>2025-04-29T12:25:19Z</time>
      </trkpt>
      <trkpt lat="43.370706969872117" lon="-5.723736975342035">
        <ele>199.61000000000001</ele>
        <time>2025-04-29T12:25:20Z</time>
      </trkpt>
      <trkpt lat="43.37081803008914" lon="-5.723601020872593">
        <ele>199.13</ele>
        <time>2025-04-29T12:25:21Z</time>
      </trkpt>
      <trkpt lat="43.370931018143892" lon="-5.723463976755738">
        <ele>199.13</ele>
        <time>2025-04-29T12:25:22Z</time>
      </trkpt>
      <trkpt lat="43.371040988713503" lon="-5.723330033943057">
        <ele>198.65000000000001</ele>
        <time>2025-04-29T12:25:23Z</time>
      </trkpt>
      <trkpt lat="43.371146013960242" lon="-5.723214028403163">
        <ele>198.65000000000001</ele>
        <time>2025-04-29T12:25:24Z</time>
      </trkpt>
      <trkpt lat="43.371250033378601" lon="-5.723169017583132">
        <ele>198.65000000000001</ele>
        <time>2025-04-29T12:25:25Z</time>
      </trkpt>
      <trkpt lat="43.371376013383269" lon="-5.723169017583132">
        <ele>198.16999999999999</ele>
        <time>2025-04-29T12:25:26Z</time>
      </trkpt>
      <trkpt lat="43.37148598395288" lon="-5.723227020353079">
        <ele>198.65000000000001</ele>
        <time>2025-04-29T12:25:27Z</time>
      </trkpt>
      <trkpt lat="43.371601989492774" lon="-5.723292985931039">
        <ele>198.65000000000001</ele>
        <time>2025-04-29T12:25:28Z</time>
      </trkpt>
      <trkpt lat="43.371723024174571" lon="-5.723361968994141">
        <ele>199.13</ele>
        <time>2025-04-29T12:25:29Z</time>
      </trkpt>
      <trkpt lat="43.372079003602266" lon="-5.723537988960743">
        <ele>198.65000000000001</ele>
        <time>2025-04-29T12:25:32Z</time>
      </trkpt>
      <trkpt lat="43.372208001092076" lon="-5.723574031144381">
        <ele>198.65000000000001</ele>
        <time>2025-04-29T12:25:33Z</time>
      </trkpt>
      <trkpt lat="43.372372034937143" lon="-5.723619963973761">
        <ele>198.16999999999999</ele>
        <time>2025-04-29T12:25:34Z</time>
      </trkpt>
      <trkpt lat="43.37247303687036" lon="-5.723619963973761">
        <ele>197.69</ele>
        <time>2025-04-29T12:25:35Z</time>
      </trkpt>
      <trkpt lat="43.372598011046648" lon="-5.723555004224181">
        <ele>197.21000000000001</ele>
        <time>2025-04-29T12:25:36Z</time>
      </trkpt>
      <trkpt lat="43.372715022414923" lon="-5.723455008119345">
        <ele>196.25</ele>
        <time>2025-04-29T12:25:37Z</time>
      </trkpt>
      <trkpt lat="43.372833961620927" lon="-5.723354006186128">
        <ele>195.28</ele>
        <time>2025-04-29T12:25:38Z</time>
      </trkpt>
      <trkpt lat="43.372949967160821" lon="-5.723256021738052">
        <ele>194.31999999999999</ele>
        <time>2025-04-29T12:25:39Z</time>
      </trkpt>
      <trkpt lat="43.373351041227579" lon="-5.722814965993166">
        <ele>191.91999999999999</ele>
        <time>2025-04-29T12:25:44Z</time>
      </trkpt>
      <trkpt lat="43.373359004035592" lon="-5.722631989046931">
        <ele>191.44</ele>
        <time>2025-04-29T12:25:45Z</time>
      </trkpt>
      <trkpt lat="43.373413989320397" lon="-5.722480025142431">
        <ele>190.96000000000001</ele>
        <time>2025-04-29T12:25:47Z</time>
      </trkpt>
      <trkpt lat="43.373480038717389" lon="-5.722382040694356">
        <ele>190.96000000000001</ele>
        <time>2025-04-29T12:25:48Z</time>
      </trkpt>
      <trkpt lat="43.373568970710039" lon="-5.722358990460634">
        <ele>190.47999999999999</ele>
        <time>2025-04-29T12:25:49Z</time>
      </trkpt>
      <trkpt lat="43.373647006228566" lon="-5.722384974360466">
        <ele>190</ele>
        <time>2025-04-29T12:25:50Z</time>
      </trkpt>
      <trkpt lat="43.373718000948429" lon="-5.722498968243599">
        <ele>190</ele>
        <time>2025-04-29T12:25:51Z</time>
      </trkpt>
      <trkpt lat="43.373766029253602" lon="-5.722638024017215">
        <ele>189.52000000000001</ele>
        <time>2025-04-29T12:25:52Z</time>
      </trkpt>
      <trkpt lat="43.373748008161783" lon="-5.722764004021883">
        <ele>189.52000000000001</ele>
        <time>2025-04-29T12:25:53Z</time>
      </trkpt>
      <trkpt lat="43.373683970421553" lon="-5.7228840328753">
        <ele>189.52000000000001</ele>
        <time>2025-04-29T12:25:54Z</time>
      </trkpt>
      <trkpt lat="43.373638037592173" lon="-5.723126018419862">
        <ele>189.03999999999999</ele>
        <time>2025-04-29T12:25:55Z</time>
      </trkpt>
      <trkpt lat="43.373647006228566" lon="-5.723219979554415">
        <ele>189.03999999999999</ele>
        <time>2025-04-29T12:25:56Z</time>
      </trkpt>
      <trkpt lat="43.373648012056947" lon="-5.723411003127694">
        <ele>189.03999999999999</ele>
        <time>2025-04-29T12:25:57Z</time>
      </trkpt>
      <trkpt lat="43.373433016240597" lon="-5.725105991587043">
        <ele>188.56</ele>
        <time>2025-04-29T12:26:05Z</time>
      </trkpt>
      <trkpt lat="43.373340982943773" lon="-5.726115005090833">
        <ele>188.08000000000001</ele>
        <time>2025-04-29T12:26:10Z</time>
      </trkpt>
      <trkpt lat="43.373316004872322" lon="-5.72625900618732">
        <ele>188.08000000000001</ele>
        <time>2025-04-29T12:26:11Z</time>
      </trkpt>
      <trkpt lat="43.373215002939105" lon="-5.726412981748581">
        <ele>188.56</ele>
        <time>2025-04-29T12:26:12Z</time>
      </trkpt>
      <trkpt lat="43.37313998490572" lon="-5.726527981460095">
        <ele>189.52000000000001</ele>
        <time>2025-04-29T12:26:13Z</time>
      </trkpt>
      <trkpt lat="43.373072007670999" lon="-5.726632000878453">
        <ele>190</ele>
        <time>2025-04-29T12:26:14Z</time>
      </trkpt>
      <trkpt lat="43.373017022386193" lon="-5.726716993376613">
        <ele>190.47999999999999</ele>
        <time>2025-04-29T12:26:15Z</time>
      </trkpt>
      <trkpt lat="43.373058009892702" lon="-5.726987980306149">
        <ele>190.96000000000001</ele>
        <time>2025-04-29T12:26:16Z</time>
      </trkpt>
      <trkpt lat="43.37303495965898" lon="-5.727026034146547">
        <ele>191.44</ele>
        <time>2025-04-29T12:26:17Z</time>
      </trkpt>
      <trkpt lat="43.372977962717414" lon="-5.727117983624339">
        <ele>191.91999999999999</ele>
        <time>2025-04-29T12:26:18Z</time>
      </trkpt>
      <trkpt lat="43.372876038774848" lon="-5.727179003879428">
        <ele>191.91999999999999</ele>
        <time>2025-04-29T12:26:19Z</time>
      </trkpt>
      <trkpt lat="43.37275399826467" lon="-5.72716299444437">
        <ele>192.40000000000001</ele>
        <time>2025-04-29T12:26:20Z</time>
      </trkpt>
      <trkpt lat="43.372660037130117" lon="-5.727238012477756">
        <ele>192.40000000000001</ele>
        <time>2025-04-29T12:26:21Z</time>
      </trkpt>
      <trkpt lat="43.372573032975197" lon="-5.727383019402623">
        <ele>192.40000000000001</ele>
        <time>2025-04-29T12:26:22Z</time>
      </trkpt>
      <trkpt lat="43.372263992205262" lon="-5.72793303988874">
        <ele>194.80000000000001</ele>
        <time>2025-04-29T12:26:26Z</time>
      </trkpt>
      <trkpt lat="43.372229039669037" lon="-5.728054996579886">
        <ele>195.77000000000001</ele>
        <time>2025-04-29T12:26:27Z</time>
      </trkpt>
      <trkpt lat="43.372186962515116" lon="-5.728203020989895">
        <ele>196.25</ele>
        <time>2025-04-29T12:26:28Z</time>
      </trkpt>
      <trkpt lat="43.372143963351846" lon="-5.728354984894395">
        <ele>197.21000000000001</ele>
        <time>2025-04-29T12:26:29Z</time>
      </trkpt>
      <trkpt lat="43.372128959745169" lon="-5.728527987375855">
        <ele>197.69</ele>
        <time>2025-04-29T12:26:30Z</time>
      </trkpt>
      <trkpt lat="43.372120996937156" lon="-5.728695038706064">
        <ele>198.16999999999999</ele>
        <time>2025-04-29T12:26:31Z</time>
      </trkpt>
      <trkpt lat="43.372115967795253" lon="-5.728876003995538">
        <ele>198.65000000000001</ele>
        <time>2025-04-29T12:26:32Z</time>
      </trkpt>
      <trkpt lat="43.372202971950173" lon="-5.730637963861227">
        <ele>202.49000000000001</ele>
        <time>2025-04-29T12:26:40Z</time>
      </trkpt>
      <trkpt lat="43.372273966670036" lon="-5.732768978923559">
        <ele>203.46000000000001</ele>
        <time>2025-04-29T12:26:48Z</time>
      </trkpt>
      <trkpt lat="43.372297016903758" lon="-5.734865963459015">
        <ele>205.38</ele>
        <time>2025-04-29T12:26:55Z</time>
      </trkpt>
      <trkpt lat="43.372263992205262" lon="-5.736387027427554">
        <ele>206.81999999999999</ele>
        <time>2025-04-29T12:27:01Z</time>
      </trkpt>
      <trkpt lat="43.37217103689909" lon="-5.736605040729046">
        <ele>207.30000000000001</ele>
        <time>2025-04-29T12:27:02Z</time>
      </trkpt>
      <trkpt lat="43.372079003602266" lon="-5.736743006855249">
        <ele>207.78</ele>
        <time>2025-04-29T12:27:03Z</time>
      </trkpt>
      <trkpt lat="43.371953023597598" lon="-5.736868986859918">
        <ele>207.78</ele>
        <time>2025-04-29T12:27:04Z</time>
      </trkpt>
      <trkpt lat="43.371828971430659" lon="-5.736993961036205">
        <ele>208.25999999999999</ele>
        <time>2025-04-29T12:27:05Z</time>
      </trkpt>
      <trkpt lat="43.371707014739513" lon="-5.737116001546383">
        <ele>208.25999999999999</ele>
        <time>2025-04-29T12:27:06Z</time>
      </trkpt>
      <trkpt lat="43.371620010584593" lon="-5.737274000421166">
        <ele>208.25999999999999</ele>
        <time>2025-04-29T12:27:07Z</time>
      </trkpt>
      <trkpt lat="43.371555972844362" lon="-5.737438034266233">
        <ele>208.25999999999999</ele>
        <time>2025-04-29T12:27:08Z</time>
      </trkpt>
      <trkpt lat="43.371522026136518" lon="-5.73760399594903">
        <ele>208.25999999999999</ele>
        <time>2025-04-29T12:27:09Z</time>
      </trkpt>
      <trkpt lat="43.371481960639358" lon="-5.737797031179071">
        <ele>208.25999999999999</ele>
        <time>2025-04-29T12:27:10Z</time>
      </trkpt>
      <trkpt lat="43.371440973132849" lon="-5.737995011731982">
        <ele>207.78</ele>
        <time>2025-04-29T12:27:11Z</time>
      </trkpt>
      <trkpt lat="43.371156994253397" lon="-5.7389369700104">
        <ele>206.34</ele>
        <time>2025-04-29T12:27:16Z</time>
      </trkpt>
      <trkpt lat="43.371065966784954" lon="-5.739098992198706">
        <ele>206.34</ele>
        <time>2025-04-29T12:27:17Z</time>
      </trkpt>
      <trkpt lat="43.370970999822021" lon="-5.739268977195025">
        <ele>206.81999999999999</ele>
        <time>2025-04-29T12:27:18Z</time>
      </trkpt>
      <trkpt lat="43.370866980403662" lon="-5.739432005211711">
        <ele>207.30000000000001</ele>
        <time>2025-04-29T12:27:19Z</time>
      </trkpt>
      <trkpt lat="43.370720967650414" lon="-5.739551028236747">
        <ele>208.25999999999999</ele>
        <time>2025-04-29T12:27:20Z</time>
      </trkpt>
      <trkpt lat="43.370561040937901" lon="-5.739626968279481">
        <ele>209.22</ele>
        <time>2025-04-29T12:27:21Z</time>
      </trkpt>
      <trkpt lat="43.370392983779311" lon="-5.73966602794826">
        <ele>210.19</ele>
        <time>2025-04-29T12:27:22Z</time>
      </trkpt>
      <trkpt lat="43.370224004611373" lon="-5.739627974107862">
        <ele>211.15000000000001</ele>
        <time>2025-04-29T12:27:23Z</time>
      </trkpt>
      <trkpt lat="43.370051002129912" lon="-5.73958002962172">
        <ele>212.11000000000001</ele>
        <time>2025-04-29T12:27:24Z</time>
      </trkpt>
      <trkpt lat="43.36987498216331" lon="-5.739532001316547">
        <ele>213.06999999999999</ele>
        <time>2025-04-29T12:27:25Z</time>
      </trkpt>
      <trkpt lat="43.369198981672525" lon="-5.739325974136591">
        <ele>217.40000000000001</ele>
        <time>2025-04-29T12:27:29Z</time>
      </trkpt>
      <trkpt lat="43.369032014161348" lon="-5.73934399522841">
        <ele>218.36000000000001</ele>
        <time>2025-04-29T12:27:30Z</time>
      </trkpt>
      <trkpt lat="43.368874015286565" lon="-5.739405015483499">
        <ele>219.80000000000001</ele>
        <time>2025-04-29T12:27:31Z</time>
      </trkpt>
      <trkpt lat="43.368718028068542" lon="-5.739481039345264">
        <ele>220.75999999999999</ele>
        <time>2025-04-29T12:27:32Z</time>
      </trkpt>
      <trkpt lat="43.368582995608449" lon="-5.739604001864791">
        <ele>221.72</ele>
        <time>2025-04-29T12:27:33Z</time>
      </trkpt>
      <trkpt lat="43.368000034242868" lon="-5.740218982100487">
        <ele>227.97</ele>
        <time>2025-04-29T12:27:38Z</time>
      </trkpt>
      <trkpt lat="43.36789601482451" lon="-5.740367006510496">
        <ele>229.41</ele>
        <time>2025-04-29T12:27:39Z</time>
      </trkpt>
      <trkpt lat="43.367829965427518" lon="-5.740544032305479">
        <ele>230.37</ele>
        <time>2025-04-29T12:27:40Z</time>
      </trkpt>
      <trkpt lat="43.367762994021177" lon="-5.740721980109811">
        <ele>231.81</ele>
        <time>2025-04-29T12:27:41Z</time>
      </trkpt>
      <trkpt lat="43.36770398542285" lon="-5.740905962884426">
        <ele>233.25999999999999</ele>
        <time>2025-04-29T12:27:42Z</time>
      </trkpt>
      <trkpt lat="43.367666015401483" lon="-5.741095980629325">
        <ele>234.69999999999999</ele>
        <time>2025-04-29T12:27:43Z</time>
      </trkpt>
      <trkpt lat="43.367629973217845" lon="-5.74129999615252">
        <ele>236.13999999999999</ele>
        <time>2025-04-29T12:27:44Z</time>
      </trkpt>
      <trkpt lat="43.367629973217845" lon="-5.741505017504096">
        <ele>237.58000000000001</ele>
        <time>2025-04-29T12:27:45Z</time>
      </trkpt>
      <trkpt lat="43.367629973217845" lon="-5.741715990006924">
        <ele>239.50999999999999</ele>
        <time>2025-04-29T12:27:46Z</time>
      </trkpt>
      <trkpt lat="43.367632990702987" lon="-5.741940038278699">
        <ele>240.94999999999999</ele>
        <time>2025-04-29T12:27:47Z</time>
      </trkpt>
      <trkpt lat="43.36781001649797" lon="-5.743924034759402">
        <ele>242.87</ele>
        <time>2025-04-29T12:27:55Z</time>
      </trkpt>
      <trkpt lat="43.367838012054563" lon="-5.744648985564709">
        <ele>241.91</ele>
        <time>2025-04-29T12:27:58Z</time>
      </trkpt>
      <trkpt lat="43.367781015112996" lon="-5.744871022179723">
        <ele>241.91</ele>
        <time>2025-04-29T12:27:59Z</time>
      </trkpt>
      <trkpt lat="43.367723012343049" lon="-5.745096998289228">
        <ele>242.38999999999999</ele>
        <time>2025-04-29T12:28:00Z</time>
      </trkpt>
      <trkpt lat="43.367615975439548" lon="-5.745533024892211">
        <ele>243.83000000000001</ele>
        <time>2025-04-29T12:28:02Z</time>
      </trkpt>
      <trkpt lat="43.36761798709631" lon="-5.745736034587026">
        <ele>244.78999999999999</ele>
        <time>2025-04-29T12:28:03Z</time>
      </trkpt>
      <trkpt lat="43.367628967389464" lon="-5.745933009311557">
        <ele>245.75</ele>
        <time>2025-04-29T12:28:04Z</time>
      </trkpt>
      <trkpt lat="43.367680013179779" lon="-5.746107017621398">
        <ele>246.72</ele>
        <time>2025-04-29T12:28:05Z</time>
      </trkpt>
      <trkpt lat="43.367734998464584" lon="-5.746288988739252">
        <ele>247.68000000000001</ele>
        <time>2025-04-29T12:28:06Z</time>
      </trkpt>
      <trkpt lat="43.367786966264248" lon="-5.746465008705854">
        <ele>248.63999999999999</ele>
        <time>2025-04-29T12:28:07Z</time>
      </trkpt>
      <trkpt lat="43.367840023711324" lon="-5.746643040329218">
        <ele>249.59999999999999</ele>
        <time>2025-04-29T12:28:08Z</time>
      </trkpt>
      <trkpt lat="43.367887968197465" lon="-5.746835991740227">
        <ele>250.08000000000001</ele>
        <time>2025-04-29T12:28:09Z</time>
      </trkpt>
      <trkpt lat="43.367930967360735" lon="-5.747045036405325">
        <ele>250.08000000000001</ele>
        <time>2025-04-29T12:28:10Z</time>
      </trkpt>
      <trkpt lat="43.36794001981616" lon="-5.747275035828352">
        <ele>249.59999999999999</ele>
        <time>2025-04-29T12:28:11Z</time>
      </trkpt>
      <trkpt lat="43.368247970938683" lon="-5.749561032280326">
        <ele>234.22</ele>
        <time>2025-04-29T12:28:20Z</time>
      </trkpt>
      <trkpt lat="43.368809977546334" lon="-5.750985033810139">
        <ele>226.05000000000001</ele>
        <time>2025-04-29T12:28:27Z</time>
      </trkpt>
      <trkpt lat="43.368897987529635" lon="-5.751142026856542">
        <ele>225.09</ele>
        <time>2025-04-29T12:28:28Z</time>
      </trkpt>
      <trkpt lat="43.369001001119614" lon="-5.751276975497603">
        <ele>224.61000000000001</ele>
        <time>2025-04-29T12:28:29Z</time>
      </trkpt>
      <trkpt lat="43.369110971689224" lon="-5.751386024057865">
        <ele>224.12</ele>
        <time>2025-04-29T12:28:30Z</time>
      </trkpt>
      <trkpt lat="43.369225971400738" lon="-5.751490965485573">
        <ele>223.16</ele>
        <time>2025-04-29T12:28:31Z</time>
      </trkpt>
      <trkpt lat="43.370058964937925" lon="-5.752524035051465">
        <ele>214.99000000000001</ele>
        <time>2025-04-29T12:28:39Z</time>
      </trkpt>
      <trkpt lat="43.370401030406356" lon="-5.753187965601683">
        <ele>209.22</ele>
        <time>2025-04-29T12:28:43Z</time>
      </trkpt>
      <trkpt lat="43.37043397128582" lon="-5.753385024145246">
        <ele>207.78</ele>
        <time>2025-04-29T12:28:44Z</time>
      </trkpt>
      <trkpt lat="43.370516030117869" lon="-5.753773022443056">
        <ele>204.41999999999999</ele>
        <time>2025-04-29T12:28:46Z</time>
      </trkpt>
      <trkpt lat="43.370575960725546" lon="-5.753945019096136">
        <ele>202.97999999999999</ele>
        <time>2025-04-29T12:28:47Z</time>
      </trkpt>
      <trkpt lat="43.370661037042737" lon="-5.754090026021004">
        <ele>201.53</ele>
        <time>2025-04-29T12:28:48Z</time>
      </trkpt>
      <trkpt lat="43.370771007612348" lon="-5.754187004640698">
        <ele>200.09</ele>
        <time>2025-04-29T12:28:49Z</time>
      </trkpt>
      <trkpt lat="43.370894975960255" lon="-5.754260011017323">
        <ele>198.65000000000001</ele>
        <time>2025-04-29T12:28:50Z</time>
      </trkpt>
      <trkpt lat="43.371023973450065" lon="-5.754320025444031">
        <ele>197.21000000000001</ele>
        <time>2025-04-29T12:28:51Z</time>
      </trkpt>
      <trkpt lat="43.371890997514129" lon="-5.754668964073062">
        <ele>189.03999999999999</ele>
        <time>2025-04-29T12:28:58Z</time>
      </trkpt>
      <trkpt lat="43.372009014710784" lon="-5.754668964073062">
        <ele>188.08000000000001</ele>
        <time>2025-04-29T12:28:59Z</time>
      </trkpt>
      <trkpt lat="43.372120996937156" lon="-5.754668964073062">
        <ele>188.08000000000001</ele>
        <time>2025-04-29T12:29:00Z</time>
      </trkpt>
      <trkpt lat="43.372241025790572" lon="-5.754637029021978">
        <ele>187.59</ele>
        <time>2025-04-29T12:29:01Z</time>
      </trkpt>
      <trkpt lat="43.372357031330466" lon="-5.754592018201947">
        <ele>187.59</ele>
        <time>2025-04-29T12:29:02Z</time>
      </trkpt>
      <trkpt lat="43.373611969873309" lon="-5.754006039351225">
        <ele>180.87</ele>
        <time>2025-04-29T12:29:12Z</time>
      </trkpt>
      <trkpt lat="43.373744990676641" lon="-5.753907971084118">
        <ele>179.90000000000001</ele>
        <time>2025-04-29T12:29:13Z</time>
      </trkpt>
      <trkpt lat="43.375022979453206" lon="-5.752991996705532">
        <ele>175.58000000000001</ele>
        <time>2025-04-29T12:29:22Z</time>
      </trkpt>
      <trkpt lat="43.375190030783415" lon="-5.752953020855784">
        <ele>175.58000000000001</ele>
        <time>2025-04-29T12:29:23Z</time>
      </trkpt>
      <trkpt lat="43.375361021608114" lon="-5.752913039177656">
        <ele>175.58000000000001</ele>
        <time>2025-04-29T12:29:24Z</time>
      </trkpt>
      <trkpt lat="43.375535029917955" lon="-5.752951009199023">
        <ele>176.06</ele>
        <time>2025-04-29T12:29:25Z</time>
      </trkpt>
      <trkpt lat="43.375710966065526" lon="-5.752997025847435">
        <ele>175.58000000000001</ele>
        <time>2025-04-29T12:29:26Z</time>
      </trkpt>
      <trkpt lat="43.375881034880877" lon="-5.753072965890169">
        <ele>175.58000000000001</ele>
        <time>2025-04-29T12:29:27Z</time>
      </trkpt>
      <trkpt lat="43.376055965200067" lon="-5.753173967823386">
        <ele>175.58000000000001</ele>
        <time>2025-04-29T12:29:28Z</time>
      </trkpt>
      <trkpt lat="43.37623399682343" lon="-5.753262983635068">
        <ele>175.58000000000001</ele>
        <time>2025-04-29T12:29:29Z</time>
      </trkpt>
      <trkpt lat="43.378400970250368" lon="-5.754457991570234">
        <ele>177.02000000000001</ele>
        <time>2025-04-29T12:29:41Z</time>
      </trkpt>
      <trkpt lat="43.380282036960125" lon="-5.75547899119556">
        <ele>179.41999999999999</ele>
        <time>2025-04-29T12:29:52Z</time>
      </trkpt>
      <trkpt lat="43.381902007386088" lon="-5.756381973624229">
        <ele>175.09999999999999</ele>
        <time>2025-04-29T12:30:03Z</time>
      </trkpt>
      <trkpt lat="43.382811024785042" lon="-5.756865022704005">
        <ele>176.53999999999999</ele>
        <time>2025-04-29T12:30:12Z</time>
      </trkpt>
      <trkpt lat="43.383328020572662" lon="-5.757268024608493">
        <ele>177.97999999999999</ele>
        <time>2025-04-29T12:30:18Z</time>
      </trkpt>
      <trkpt lat="43.383404966443777" lon="-5.75728302821517">
        <ele>177.97999999999999</ele>
        <time>2025-04-29T12:30:19Z</time>
      </trkpt>
      <trkpt lat="43.383477972820401" lon="-5.757298031821847">
        <ele>177.97999999999999</ele>
        <time>2025-04-29T12:30:20Z</time>
      </trkpt>
      <trkpt lat="43.383547961711884" lon="-5.757327033206821">
        <ele>178.46000000000001</ele>
        <time>2025-04-29T12:30:21Z</time>
      </trkpt>
      <trkpt lat="43.383615016937256" lon="-5.757394004613161">
        <ele>178.46000000000001</ele>
        <time>2025-04-29T12:30:22Z</time>
      </trkpt>
      <trkpt lat="43.383663967251778" lon="-5.757487965747714">
        <ele>178.94</ele>
        <time>2025-04-29T12:30:23Z</time>
      </trkpt>
      <trkpt lat="43.383675031363964" lon="-5.757601037621498">
        <ele>179.41999999999999</ele>
        <time>2025-04-29T12:30:24Z</time>
      </trkpt>
      <trkpt lat="43.383662961423397" lon="-5.757701033726335">
        <ele>179.90000000000001</ele>
        <time>2025-04-29T12:30:25Z</time>
      </trkpt>
      <trkpt lat="43.383627003058791" lon="-5.757808992639184">
        <ele>179.90000000000001</ele>
        <time>2025-04-29T12:30:26Z</time>
      </trkpt>
      <trkpt lat="43.383578974753618" lon="-5.757900020107627">
        <ele>180.38</ele>
        <time>2025-04-29T12:30:27Z</time>
      </trkpt>
      <trkpt lat="43.383537987247109" lon="-5.758031029254198">
        <ele>179.90000000000001</ele>
        <time>2025-04-29T12:30:28Z</time>
      </trkpt>
      <trkpt lat="43.383503034710884" lon="-5.758153991773725">
        <ele>179.90000000000001</ele>
        <time>2025-04-29T12:30:29Z</time>
      </trkpt>
      <trkpt lat="43.383464980870485" lon="-5.758285000920296">
        <ele>179.90000000000001</ele>
        <time>2025-04-29T12:30:30Z</time>
      </trkpt>
      <trkpt lat="43.383447965607047" lon="-5.75844501145184">
        <ele>179.90000000000001</ele>
        <time>2025-04-29T12:30:31Z</time>
      </trkpt>
      <trkpt lat="43.383456012234092" lon="-5.758598987013102">
        <ele>179.90000000000001</ele>
        <time>2025-04-29T12:30:32Z</time>
      </trkpt>
      <trkpt lat="43.383464980870485" lon="-5.758764026686549">
        <ele>179.41999999999999</ele>
        <time>2025-04-29T12:30:33Z</time>
      </trkpt>
      <trkpt lat="43.383484007790685" lon="-5.758933005854487">
        <ele>179.41999999999999</ele>
        <time>2025-04-29T12:30:34Z</time>
      </trkpt>
      <trkpt lat="43.383552990853786" lon="-5.76097802259028">
        <ele>180.87</ele>
        <time>2025-04-29T12:30:44Z</time>
      </trkpt>
      <trkpt lat="43.383673019707203" lon="-5.763813033699989">
        <ele>185.19</ele>
        <time>2025-04-29T12:30:56Z</time>
      </trkpt>
      <trkpt lat="43.383779972791672" lon="-5.76641502790153">
        <ele>188.56</ele>
        <time>2025-04-29T12:31:08Z</time>
      </trkpt>
      <trkpt lat="43.383851973339915" lon="-5.768784005194902">
        <ele>193.36000000000001</ele>
        <time>2025-04-29T12:31:19Z</time>
      </trkpt>
      <trkpt lat="43.383878963068128" lon="-5.771191036328673">
        <ele>189.03999999999999</ele>
        <time>2025-04-29T12:31:30Z</time>
      </trkpt>
      <trkpt lat="43.383648041635752" lon="-5.773675013333559">
        <ele>191.91999999999999</ele>
        <time>2025-04-29T12:31:41Z</time>
      </trkpt>
      <trkpt lat="43.383192988112569" lon="-5.776025969535112">
        <ele>193.36000000000001</ele>
        <time>2025-04-29T12:31:52Z</time>
      </trkpt>
      <trkpt lat="43.382498966529965" lon="-5.779129033908248">
        <ele>189.03999999999999</ele>
        <time>2025-04-29T12:32:07Z</time>
      </trkpt>
      <trkpt lat="43.381858002394438" lon="-5.781786013394594">
        <ele>182.78999999999999</ele>
        <time>2025-04-29T12:32:21Z</time>
      </trkpt>
      <trkpt lat="43.381504034623504" lon="-5.782724032178521">
        <ele>178.94</ele>
        <time>2025-04-29T12:32:28Z</time>
      </trkpt>
      <trkpt lat="43.381471009925008" lon="-5.7828080188483">
        <ele>177.97999999999999</ele>
        <time>2025-04-29T12:32:29Z</time>
      </trkpt>
      <trkpt lat="43.381442008540034" lon="-5.782880019396544">
        <ele>177.5</ele>
        <time>2025-04-29T12:32:30Z</time>
      </trkpt>
      <trkpt lat="43.381418036296964" lon="-5.782939027994871">
        <ele>177.02000000000001</ele>
        <time>2025-04-29T12:32:31Z</time>
      </trkpt>
      <trkpt lat="43.381530018523335" lon="-5.783136002719402">
        <ele>176.53999999999999</ele>
        <time>2025-04-29T12:32:32Z</time>
      </trkpt>
      <trkpt lat="43.381589027121663" lon="-5.783156035467982">
        <ele>176.06</ele>
        <time>2025-04-29T12:32:33Z</time>
      </trkpt>
      <trkpt lat="43.381664967164397" lon="-5.783182019367814">
        <ele>175.58000000000001</ele>
        <time>2025-04-29T12:32:34Z</time>
      </trkpt>
      <trkpt lat="43.381750965490937" lon="-5.783212026581168">
        <ele>175.09999999999999</ele>
        <time>2025-04-29T12:32:35Z</time>
      </trkpt>
      <trkpt lat="43.381846016272902" lon="-5.783243961632252">
        <ele>174.62</ele>
        <time>2025-04-29T12:32:36Z</time>
      </trkpt>
      <trkpt lat="43.382822005078197" lon="-5.783611005172133">
        <ele>173.66</ele>
        <time>2025-04-29T12:32:46Z</time>
      </trkpt>
      <trkpt lat="43.38373102247715" lon="-5.783867994323373">
        <ele>172.21000000000001</ele>
        <time>2025-04-29T12:32:54Z</time>
      </trkpt>
      <trkpt lat="43.384777000173926" lon="-5.784225985407829">
        <ele>171.25</ele>
        <time>2025-04-29T12:33:03Z</time>
      </trkpt>
      <trkpt lat="43.38646100834012" lon="-5.784757984802127">
        <ele>175.09999999999999</ele>
        <time>2025-04-29T12:33:17Z</time>
      </trkpt>
      <trkpt lat="43.387395003810525" lon="-5.785058978945017">
        <ele>172.69</ele>
        <time>2025-04-29T12:33:25Z</time>
      </trkpt>
      <trkpt lat="43.388145016506314" lon="-5.78557999804616">
        <ele>172.21000000000001</ele>
        <time>2025-04-29T12:33:32Z</time>
      </trkpt>
      <trkpt lat="43.388230009004474" lon="-5.785694997757673">
        <ele>172.21000000000001</ele>
        <time>2025-04-29T12:33:33Z</time>
      </trkpt>
      <trkpt lat="43.388316007331014" lon="-5.785812009125948">
        <ele>172.69</ele>
        <time>2025-04-29T12:33:34Z</time>
      </trkpt>
      <trkpt lat="43.388692019507289" lon="-5.786251975223422">
        <ele>174.13999999999999</ele>
        <time>2025-04-29T12:33:38Z</time>
      </trkpt>
      <trkpt lat="43.388799978420138" lon="-5.786320958286524">
        <ele>174.13999999999999</ele>
        <time>2025-04-29T12:33:39Z</time>
      </trkpt>
      <trkpt lat="43.38890802115202" lon="-5.786390025168657">
        <ele>174.13999999999999</ele>
        <time>2025-04-29T12:33:40Z</time>
      </trkpt>
      <trkpt lat="43.390150973573327" lon="-5.786997964605689">
        <ele>173.16999999999999</ele>
        <time>2025-04-29T12:33:51Z</time>
      </trkpt>
      <trkpt lat="43.391483025625348" lon="-5.787418987601996">
        <ele>171.72999999999999</ele>
        <time>2025-04-29T12:34:01Z</time>
      </trkpt>
      <trkpt lat="43.392462031915784" lon="-5.787914022803307">
        <ele>172.21000000000001</ele>
        <time>2025-04-29T12:34:07Z</time>
      </trkpt>
      <trkpt lat="43.392628999426961" lon="-5.788002032786608">
        <ele>172.69</ele>
        <time>2025-04-29T12:34:08Z</time>
      </trkpt>
      <trkpt lat="43.394162971526384" lon="-5.788938039913774">
        <ele>174.13999999999999</ele>
        <time>2025-04-29T12:34:19Z</time>
      </trkpt>
      <trkpt lat="43.395304000005126" lon="-5.78942502848804">
        <ele>174.13999999999999</ele>
        <time>2025-04-29T12:34:28Z</time>
      </trkpt>
      <trkpt lat="43.396768989041448" lon="-5.789944035932422">
        <ele>174.62</ele>
        <time>2025-04-29T12:34:39Z</time>
      </trkpt>
      <trkpt lat="43.398061981424689" lon="-5.790445022284985">
        <ele>171.72999999999999</ele>
        <time>2025-04-29T12:34:50Z</time>
      </trkpt>
      <trkpt lat="43.39922103099525" lon="-5.790947014465928">
        <ele>162.59999999999999</ele>
        <time>2025-04-29T12:35:01Z</time>
      </trkpt>
      <trkpt lat="43.399434015154839" lon="-5.790986996144056">
        <ele>161.63999999999999</ele>
        <time>2025-04-29T12:35:03Z</time>
      </trkpt>
      <trkpt lat="43.39961196295917" lon="-5.791109036654234">
        <ele>161.16</ele>
        <time>2025-04-29T12:35:05Z</time>
      </trkpt>
      <trkpt lat="43.399700978770852" lon="-5.791133008897305">
        <ele>160.68000000000001</ele>
        <time>2025-04-29T12:35:06Z</time>
      </trkpt>
      <trkpt lat="43.39978395961225" lon="-5.791147006675601">
        <ele>160.19999999999999</ele>
        <time>2025-04-29T12:35:07Z</time>
      </trkpt>
      <trkpt lat="43.399815978482366" lon="-5.791147006675601">
        <ele>159.72</ele>
        <time>2025-04-29T12:35:08Z</time>
      </trkpt>
      <trkpt lat="43.399898037314415" lon="-5.79118799418211">
        <ele>159.24000000000001</ele>
        <time>2025-04-29T12:35:09Z</time>
      </trkpt>
      <trkpt lat="43.399968026205897" lon="-5.791116999462247">
        <ele>158.75</ele>
        <time>2025-04-29T12:35:10Z</time>
      </trkpt>
      <trkpt lat="43.399991998448968" lon="-5.791091015562415">
        <ele>158.27000000000001</ele>
        <time>2025-04-29T12:35:11Z</time>
      </trkpt>
      <trkpt lat="43.400246975943446" lon="-5.791014991700649">
        <ele>155.87</ele>
        <time>2025-04-29T12:35:17Z</time>
      </trkpt>
      <trkpt lat="43.400262985378504" lon="-5.791022032499313">
        <ele>155.38999999999999</ele>
        <time>2025-04-29T12:35:18Z</time>
      </trkpt>
      <trkpt lat="43.4002769831568" lon="-5.791028989478946">
        <ele>154.91</ele>
        <time>2025-04-29T12:35:19Z</time>
      </trkpt>
      <trkpt lat="43.4002769831568" lon="-5.791028989478946">
        <ele>152.50999999999999</ele>
        <time>2025-04-29T12:35:28Z</time>
      </trkpt>
      <trkpt lat="43.4002769831568" lon="-5.791028989478946">
        <ele>152.50999999999999</ele>
        <time>2025-04-29T12:35:56Z</time>
      </trkpt>
      <trkpt lat="43.4002769831568" lon="-5.791028989478946">
        <ele>152.03</ele>
        <time>2025-04-29T12:36:23Z</time>
      </trkpt>
      <trkpt lat="43.4002769831568" lon="-5.791028989478946">
        <ele>152.03</ele>
        <time>2025-04-29T12:37:02Z</time>
      </trkpt>
      <trkpt lat="43.4002769831568" lon="-5.791028989478946">
        <ele>151.53999999999999</ele>
        <time>2025-04-29T12:37:31Z</time>
      </trkpt>
      <trkpt lat="43.400514023378491" lon="-5.790948020294309">
        <ele>146.74000000000001</ele>
        <time>2025-04-29T12:40:28Z</time>
      </trkpt>
      <trkpt lat="43.400528021156788" lon="-5.791128985583782">
        <ele>150.58000000000001</ele>
        <time>2025-04-29T12:40:58Z</time>
      </trkpt>
      <trkpt lat="43.400479992851615" lon="-5.79110300168395">
        <ele>152.99000000000001</ele>
        <time>2025-04-29T12:41:44Z</time>
      </trkpt>
      <trkpt lat="43.400485021993518" lon="-5.791154969483614">
        <ele>162.12</ele>
        <time>2025-04-29T12:42:30Z</time>
      </trkpt>
      <trkpt lat="43.400437999516726" lon="-5.791104007512331">
        <ele>162.12</ele>
        <time>2025-04-29T12:42:43Z</time>
      </trkpt>
      <trkpt lat="43.400416960939765" lon="-5.791167039424181">
        <ele>162.59999999999999</ele>
        <time>2025-04-29T12:42:44Z</time>
      </trkpt>
      <trkpt lat="43.400439005345106" lon="-5.791429979726672">
        <ele>164.03999999999999</ele>
        <time>2025-04-29T12:42:48Z</time>
      </trkpt>
      <trkpt lat="43.400371028110385" lon="-5.791306011378765">
        <ele>166.44999999999999</ele>
        <time>2025-04-29T12:42:59Z</time>
      </trkpt>
      <trkpt lat="43.400353007018566" lon="-5.79135999083519">
        <ele>167.41</ele>
        <time>2025-04-29T12:43:01Z</time>
      </trkpt>
      <trkpt lat="43.400353007018566" lon="-5.79136099666357">
        <ele>167.41</ele>
        <time>2025-04-29T12:43:02Z</time>
      </trkpt>
      <trkpt lat="43.400330962613225" lon="-5.791353033855557">
        <ele>167.41</ele>
        <time>2025-04-29T12:43:03Z</time>
      </trkpt>
      <trkpt lat="43.399669965729117" lon="-5.79112496227026">
        <ele>171.72999999999999</ele>
        <time>2025-04-29T12:43:12Z</time>
      </trkpt>
      <trkpt lat="43.399494029581547" lon="-5.7912109605968">
        <ele>174.13999999999999</ele>
        <time>2025-04-29T12:43:20Z</time>
      </trkpt>
      <trkpt lat="43.399494029581547" lon="-5.7912109605968">
        <ele>174.62</ele>
        <time>2025-04-29T12:43:21Z</time>
      </trkpt>
      <trkpt lat="43.399487994611263" lon="-5.791214983910322">
        <ele>174.62</ele>
        <time>2025-04-29T12:43:22Z</time>
      </trkpt>
      <trkpt lat="43.399433009326458" lon="-5.79135999083519">
        <ele>175.09999999999999</ele>
        <time>2025-04-29T12:43:23Z</time>
      </trkpt>
      <trkpt lat="43.39943703263998" lon="-5.791471973061562">
        <ele>175.09999999999999</ele>
        <time>2025-04-29T12:43:24Z</time>
      </trkpt>
      <trkpt lat="43.399440972134471" lon="-5.7915960252285">
        <ele>175.09999999999999</ele>
        <time>2025-04-29T12:43:25Z</time>
      </trkpt>
      <trkpt lat="43.399446001276374" lon="-5.791733991354704">
        <ele>175.09999999999999</ele>
        <time>2025-04-29T12:43:26Z</time>
      </trkpt>
      <trkpt lat="43.399450024589896" lon="-5.791873969137669">
        <ele>175.09999999999999</ele>
        <time>2025-04-29T12:43:27Z</time>
      </trkpt>
      <trkpt lat="43.399510961025953" lon="-5.79320702701807">
        <ele>175.09999999999999</ele>
        <time>2025-04-29T12:43:36Z</time>
      </trkpt>
      <trkpt lat="43.399604000151157" lon="-5.795165039598942">
        <ele>174.13999999999999</ele>
        <time>2025-04-29T12:43:48Z</time>
      </trkpt>
      <trkpt lat="43.399629984050989" lon="-5.795659990981221">
        <ele>173.16999999999999</ele>
        <time>2025-04-29T12:43:51Z</time>
      </trkpt>
      <trkpt lat="43.399718999862671" lon="-5.797491017729044">
        <ele>174.13999999999999</ele>
        <time>2025-04-29T12:44:02Z</time>
      </trkpt>
      <trkpt lat="43.399725034832954" lon="-5.797658991068602">
        <ele>173.66</ele>
        <time>2025-04-29T12:44:03Z</time>
      </trkpt>
      <trkpt lat="43.399730985984206" lon="-5.797823024913669">
        <ele>172.69</ele>
        <time>2025-04-29T12:44:04Z</time>
      </trkpt>
      <trkpt lat="43.399798963218927" lon="-5.799148036167026">
        <ele>172.69</ele>
        <time>2025-04-29T12:44:12Z</time>
      </trkpt>
      <trkpt lat="43.399815978482366" lon="-5.799321960657835">
        <ele>172.69</ele>
        <time>2025-04-29T12:44:13Z</time>
      </trkpt>
      <trkpt lat="43.399815978482366" lon="-5.799557995051146">
        <ele>173.16999999999999</ele>
        <time>2025-04-29T12:44:14Z</time>
      </trkpt>
      <trkpt lat="43.399835005402565" lon="-5.799946999177337">
        <ele>173.66</ele>
        <time>2025-04-29T12:44:17Z</time>
      </trkpt>
      <trkpt lat="43.399841962382197" lon="-5.800086976960301">
        <ele>174.13999999999999</ele>
        <time>2025-04-29T12:44:18Z</time>
      </trkpt>
      <trkpt lat="43.399884039536119" lon="-5.801168996840715">
        <ele>176.53999999999999</ele>
        <time>2025-04-29T12:44:28Z</time>
      </trkpt>
      <trkpt lat="43.399925027042627" lon="-5.802141968160868">
        <ele>176.06</ele>
        <time>2025-04-29T12:44:38Z</time>
      </trkpt>
      <trkpt lat="43.399980012327433" lon="-5.803152993321419">
        <ele>174.13999999999999</ele>
        <time>2025-04-29T12:44:49Z</time>
      </trkpt>
      <trkpt lat="43.400019994005561" lon="-5.804262002930045">
        <ele>175.58000000000001</ele>
        <time>2025-04-29T12:45:01Z</time>
      </trkpt>
      <trkpt lat="43.400030974298716" lon="-5.804749997332692">
        <ele>176.53999999999999</ele>
        <time>2025-04-29T12:45:07Z</time>
      </trkpt>
      <trkpt lat="43.400047989562154" lon="-5.804819986224175">
        <ele>176.53999999999999</ele>
        <time>2025-04-29T12:45:08Z</time>
      </trkpt>
      <trkpt lat="43.400087971240282" lon="-5.804866002872586">
        <ele>176.53999999999999</ele>
        <time>2025-04-29T12:45:09Z</time>
      </trkpt>
      <trkpt lat="43.400119990110397" lon="-5.804890980944037">
        <ele>177.02000000000001</ele>
        <time>2025-04-29T12:45:10Z</time>
      </trkpt>
      <trkpt lat="43.400152008980513" lon="-5.804959964007139">
        <ele>177.02000000000001</ele>
        <time>2025-04-29T12:45:11Z</time>
      </trkpt>
      <trkpt lat="43.400139017030597" lon="-5.805026013404131">
        <ele>177.5</ele>
        <time>2025-04-29T12:45:12Z</time>
      </trkpt>
      <trkpt lat="43.400138011202216" lon="-5.805030036717653">
        <ele>177.02000000000001</ele>
        <time>2025-04-29T12:45:13Z</time>
      </trkpt>
      <trkpt lat="43.400052012875676" lon="-5.805159034207463">
        <ele>177.02000000000001</ele>
        <time>2025-04-29T12:45:14Z</time>
      </trkpt>
      <trkpt lat="43.400052012875676" lon="-5.805245032534003">
        <ele>177.02000000000001</ele>
        <time>2025-04-29T12:45:15Z</time>
      </trkpt>
      <trkpt lat="43.400059975683689" lon="-5.805336982011795">
        <ele>177.02000000000001</ele>
        <time>2025-04-29T12:45:16Z</time>
      </trkpt>
      <trkpt lat="43.400067016482353" lon="-5.805421974509955">
        <ele>177.02000000000001</ele>
        <time>2025-04-29T12:45:17Z</time>
      </trkpt>
      <trkpt lat="43.400094006210566" lon="-5.806198976933956">
        <ele>178.46000000000001</ele>
        <time>2025-04-29T12:45:26Z</time>
      </trkpt>
      <trkpt lat="43.400123007595539" lon="-5.806672973558307">
        <ele>179.41999999999999</ele>
        <time>2025-04-29T12:45:31Z</time>
      </trkpt>
      <trkpt lat="43.400126025080681" lon="-5.806761989369988">
        <ele>179.41999999999999</ele>
        <time>2025-04-29T12:45:32Z</time>
      </trkpt>
      <trkpt lat="43.400140022858977" lon="-5.8071309607476">
        <ele>179.90000000000001</ele>
        <time>2025-04-29T12:45:36Z</time>
      </trkpt>
      <trkpt lat="43.400163995102048" lon="-5.807717023417354">
        <ele>178.94</ele>
        <time>2025-04-29T12:45:43Z</time>
      </trkpt>
      <trkpt lat="43.400170030072331" lon="-5.807775026187301">
        <ele>178.94</ele>
        <time>2025-04-29T12:45:44Z</time>
      </trkpt>
      <trkpt lat="43.400158965960145" lon="-5.808106027543545">
        <ele>177.02000000000001</ele>
        <time>2025-04-29T12:45:50Z</time>
      </trkpt>
      <trkpt lat="43.400158965960145" lon="-5.808168975636363">
        <ele>176.53999999999999</ele>
        <time>2025-04-29T12:45:51Z</time>
      </trkpt>
      <trkpt lat="43.400158965960145" lon="-5.808292021974921">
        <ele>174.62</ele>
        <time>2025-04-29T12:45:53Z</time>
      </trkpt>
      <trkpt lat="43.400287963449955" lon="-5.808370979502797">
        <ele>173.66</ele>
        <time>2025-04-29T12:45:54Z</time>
      </trkpt>
      <trkpt lat="43.400287963449955" lon="-5.808452032506466">
        <ele>173.16999999999999</ele>
        <time>2025-04-29T12:45:55Z</time>
      </trkpt>
      <trkpt lat="43.400287963449955" lon="-5.8085279725492">
        <ele>172.69</ele>
        <time>2025-04-29T12:45:56Z</time>
      </trkpt>
      <trkpt lat="43.400287963449955" lon="-5.8085279725492">
        <ele>172.69</ele>
        <time>2025-04-29T12:45:57Z</time>
      </trkpt>
      <trkpt lat="43.400216968730092" lon="-5.808598967269063">
        <ele>172.21000000000001</ele>
        <time>2025-04-29T12:45:58Z</time>
      </trkpt>
      <trkpt lat="43.400185033679008" lon="-5.808629980310798">
        <ele>171.25</ele>
        <time>2025-04-29T12:45:59Z</time>
      </trkpt>
      <trkpt lat="43.400191990658641" lon="-5.808773981407285">
        <ele>171.25</ele>
        <time>2025-04-29T12:46:00Z</time>
      </trkpt>
      <trkpt lat="43.400195008143783" lon="-5.808799965307117">
        <ele>170.77000000000001</ele>
        <time>2025-04-29T12:46:01Z</time>
      </trkpt>
      <trkpt lat="43.400197019800544" lon="-5.808825027197599">
        <ele>170.28999999999999</ele>
        <time>2025-04-29T12:46:02Z</time>
      </trkpt>
      <trkpt lat="43.400199031457305" lon="-5.808847993612289">
        <ele>170.28999999999999</ele>
        <time>2025-04-29T12:46:03Z</time>
      </trkpt>
      <trkpt lat="43.400199031457305" lon="-5.808847993612289">
        <ele>169.81</ele>
        <time>2025-04-29T12:46:18Z</time>
      </trkpt>
      <trkpt lat="43.400200037285686" lon="-5.808861991390586">
        <ele>169.81</ele>
        <time>2025-04-29T12:46:20Z</time>
      </trkpt>
      <trkpt lat="43.400202970951796" lon="-5.808897027745843">
        <ele>169.33000000000001</ele>
        <time>2025-04-29T12:46:21Z</time>
      </trkpt>
      <trkpt lat="43.400225015357137" lon="-5.809418968856335">
        <ele>162.12</ele>
        <time>2025-04-29T12:46:31Z</time>
      </trkpt>
      <trkpt lat="43.400229038670659" lon="-5.809486024081707">
        <ele>161.16</ele>
        <time>2025-04-29T12:46:32Z</time>
      </trkpt>
      <trkpt lat="43.40023398399353" lon="-5.809556012973189">
        <ele>160.19999999999999</ele>
        <time>2025-04-29T12:46:33Z</time>
      </trkpt>
      <trkpt lat="43.400245970115066" lon="-5.809752987697721">
        <ele>156.83000000000001</ele>
        <time>2025-04-29T12:46:36Z</time>
      </trkpt>
      <trkpt lat="43.400248987600207" lon="-5.809822976589203">
        <ele>155.87</ele>
        <time>2025-04-29T12:46:37Z</time>
      </trkpt>
      <trkpt lat="43.400255022570491" lon="-5.809952979907394">
        <ele>153.94999999999999</ele>
        <time>2025-04-29T12:46:39Z</time>
      </trkpt>
      <trkpt lat="43.400257034227252" lon="-5.81000997684896">
        <ele>152.99000000000001</ele>
        <time>2025-04-29T12:46:40Z</time>
      </trkpt>
      <trkpt lat="43.400258962064981" lon="-5.810069991275668">
        <ele>152.03</ele>
        <time>2025-04-29T12:46:41Z</time>
      </trkpt>
      <trkpt lat="43.40027597732842" lon="-5.810458995401859">
        <ele>147.69999999999999</ele>
        <time>2025-04-29T12:46:47Z</time>
      </trkpt>
      <trkpt lat="43.400305984541774" lon="-5.810807012021542">
        <ele>145.78</ele>
        <time>2025-04-29T12:46:52Z</time>
      </trkpt>
      <trkpt lat="43.400381002575159" lon="-5.81099702976644">
        <ele>144.34</ele>
        <time>2025-04-29T12:46:55Z</time>
      </trkpt>
      <trkpt lat="43.400502959266305" lon="-5.81103902310133">
        <ele>144.34</ele>
        <time>2025-04-29T12:46:57Z</time>
      </trkpt>
      <trkpt lat="43.400523997843266" lon="-5.811101971194148">
        <ele>144.34</ele>
        <time>2025-04-29T12:46:58Z</time>
      </trkpt>
      <trkpt lat="43.400503965094686" lon="-5.811201967298985">
        <ele>144.34</ele>
        <time>2025-04-29T12:46:59Z</time>
      </trkpt>
      <trkpt lat="43.400502959266305" lon="-5.811210013926029">
        <ele>144.34</ele>
        <time>2025-04-29T12:47:00Z</time>
      </trkpt>
      <trkpt lat="43.400467000901699" lon="-5.811222000047565">
        <ele>144.34</ele>
        <time>2025-04-29T12:47:01Z</time>
      </trkpt>
      <trkpt lat="43.400434982031584" lon="-5.811231974512339">
        <ele>144.34</ele>
        <time>2025-04-29T12:47:02Z</time>
      </trkpt>
      <trkpt lat="43.400401035323739" lon="-5.811243960633874">
        <ele>144.34</ele>
        <time>2025-04-29T12:47:03Z</time>
      </trkpt>
      <trkpt lat="43.400186039507389" lon="-5.811318978667259">
        <ele>145.30000000000001</ele>
        <time>2025-04-29T12:47:08Z</time>
      </trkpt>
      <trkpt lat="43.400141028687358" lon="-5.811355020850897">
        <ele>145.30000000000001</ele>
        <time>2025-04-29T12:47:09Z</time>
      </trkpt>
      <trkpt lat="43.399629984050989" lon="-5.811823988333345">
        <ele>146.25999999999999</ele>
        <time>2025-04-29T12:47:21Z</time>
      </trkpt>
      <trkpt lat="43.399076024070382" lon="-5.812321035191417">
        <ele>150.09999999999999</ele>
        <time>2025-04-29T12:47:29Z</time>
      </trkpt>
      <trkpt lat="43.398293992504478" lon="-5.81301698461175">
        <ele>152.50999999999999</ele>
        <time>2025-04-29T12:47:40Z</time>
      </trkpt>
      <trkpt lat="43.397853020578623" lon="-5.813420992344618">
        <ele>155.87</ele>
        <time>2025-04-29T12:47:49Z</time>
      </trkpt>
      <trkpt lat="43.397821001708508" lon="-5.813699020072818">
        <ele>156.34999999999999</ele>
        <time>2025-04-29T12:47:51Z</time>
      </trkpt>
      <trkpt lat="43.397784037515521" lon="-5.813780995085836">
        <ele>156.83000000000001</ele>
        <time>2025-04-29T12:47:53Z</time>
      </trkpt>
      <trkpt lat="43.397709019482136" lon="-5.813899012282491">
        <ele>156.83000000000001</ele>
        <time>2025-04-29T12:47:54Z</time>
      </trkpt>
      <trkpt lat="43.397629978135228" lon="-5.813921978697181">
        <ele>157.31</ele>
        <time>2025-04-29T12:47:55Z</time>
      </trkpt>
      <trkpt lat="43.397583961486816" lon="-5.813934970647097">
        <ele>157.78999999999999</ele>
        <time>2025-04-29T12:47:56Z</time>
      </trkpt>
      <trkpt lat="43.397415988147259" lon="-5.813861964270473">
        <ele>157.78999999999999</ele>
        <time>2025-04-29T12:47:57Z</time>
      </trkpt>
      <trkpt lat="43.397227982059121" lon="-5.813970007002354">
        <ele>157.78999999999999</ele>
        <time>2025-04-29T12:47:59Z</time>
      </trkpt>
      <trkpt lat="43.397129997611046" lon="-5.814038990065455">
        <ele>157.78999999999999</ele>
        <time>2025-04-29T12:48:00Z</time>
      </trkpt>
      <trkpt lat="43.397037964314222" lon="-5.814118031412363">
        <ele>157.31</ele>
        <time>2025-04-29T12:48:01Z</time>
      </trkpt>
      <trkpt lat="43.395957034081221" lon="-5.815051021054387">
        <ele>157.78999999999999</ele>
        <time>2025-04-29T12:48:13Z</time>
      </trkpt>
      <trkpt lat="43.395567024126649" lon="-5.815351009368897">
        <ele>158.27000000000001</ele>
        <time>2025-04-29T12:48:18Z</time>
      </trkpt>
      <trkpt lat="43.395489994436502" lon="-5.815467014908791">
        <ele>158.27000000000001</ele>
        <time>2025-04-29T12:48:19Z</time>
      </trkpt>
      <trkpt lat="43.395426040515304" lon="-5.815570028498769">
        <ele>158.75</ele>
        <time>2025-04-29T12:48:20Z</time>
      </trkpt>
      <trkpt lat="43.39535303413868" lon="-5.815716041252017">
        <ele>158.75</ele>
        <time>2025-04-29T12:48:21Z</time>
      </trkpt>
      <trkpt lat="43.39526703581214" lon="-5.815759040415287">
        <ele>158.75</ele>
        <time>2025-04-29T12:48:22Z</time>
      </trkpt>
      <trkpt lat="43.395167961716652" lon="-5.815808996558189">
        <ele>158.75</ele>
        <time>2025-04-29T12:48:23Z</time>
      </trkpt>
      <trkpt lat="43.394400011748075" lon="-5.816447027027607">
        <ele>160.19999999999999</ele>
        <time>2025-04-29T12:48:32Z</time>
      </trkpt>
      <trkpt lat="43.393466016277671" lon="-5.817279014736414">
        <ele>160.68000000000001</ele>
        <time>2025-04-29T12:48:44Z</time>
      </trkpt>
      <trkpt lat="43.39335503987968" lon="-5.817376999184489">
        <ele>160.68000000000001</ele>
        <time>2025-04-29T12:48:46Z</time>
      </trkpt>
      <trkpt lat="43.39329301379621" lon="-5.817431984469295">
        <ele>160.68000000000001</ele>
        <time>2025-04-29T12:48:47Z</time>
      </trkpt>
      <trkpt lat="43.39329301379621" lon="-5.817431984469295">
        <ele>160.68000000000001</ele>
        <time>2025-04-29T12:48:48Z</time>
      </trkpt>
      <trkpt lat="43.393263006582856" lon="-5.817462997511029">
        <ele>160.19999999999999</ele>
        <time>2025-04-29T12:48:49Z</time>
      </trkpt>
      <trkpt lat="43.393237022683024" lon="-5.817485963925719">
        <ele>160.19999999999999</ele>
        <time>2025-04-29T12:48:50Z</time>
      </trkpt>
      <trkpt lat="43.393209027126431" lon="-5.817511025816202">
        <ele>160.19999999999999</ele>
        <time>2025-04-29T12:48:51Z</time>
      </trkpt>
      <trkpt lat="43.393129985779524" lon="-5.817581014707685">
        <ele>159.24000000000001</ele>
        <time>2025-04-29T12:48:54Z</time>
      </trkpt>
      <trkpt lat="43.393083969131112" lon="-5.817620996385813">
        <ele>159.24000000000001</ele>
        <time>2025-04-29T12:48:55Z</time>
      </trkpt>
      <trkpt lat="43.393041975796223" lon="-5.817698026075959">
        <ele>159.24000000000001</ele>
        <time>2025-04-29T12:48:56Z</time>
      </trkpt>
      <trkpt lat="43.393011968582869" lon="-5.817758962512016">
        <ele>158.75</ele>
        <time>2025-04-29T12:48:57Z</time>
      </trkpt>
      <trkpt lat="43.392983973026276" lon="-5.817815037444234">
        <ele>158.75</ele>
        <time>2025-04-29T12:48:58Z</time>
      </trkpt>
      <trkpt lat="43.392957989126444" lon="-5.817865999415517">
        <ele>158.75</ele>
        <time>2025-04-29T12:48:59Z</time>
      </trkpt>
      <trkpt lat="43.392929993569851" lon="-5.817922996357083">
        <ele>158.75</ele>
        <time>2025-04-29T12:49:00Z</time>
      </trkpt>
      <trkpt lat="43.392899986356497" lon="-5.817982004955411">
        <ele>158.75</ele>
        <time>2025-04-29T12:49:01Z</time>
      </trkpt>
      <trkpt lat="43.392872996628284" lon="-5.818036990240216">
        <ele>158.75</ele>
        <time>2025-04-29T12:49:02Z</time>
      </trkpt>
      <trkpt lat="43.392850030213594" lon="-5.818082001060247">
        <ele>158.75</ele>
        <time>2025-04-29T12:49:03Z</time>
      </trkpt>
      <trkpt lat="43.392815999686718" lon="-5.818141009658575">
        <ele>158.75</ele>
        <time>2025-04-29T12:49:04Z</time>
      </trkpt>
      <trkpt lat="43.392815999686718" lon="-5.818141009658575">
        <ele>158.75</ele>
        <time>2025-04-29T12:49:12Z</time>
      </trkpt>
      <trkpt lat="43.392815999686718" lon="-5.818141009658575">
        <ele>157.78999999999999</ele>
        <time>2025-04-29T12:49:57Z</time>
      </trkpt>
      <trkpt lat="43.392638973891735" lon="-5.818232959136367">
        <ele>159.72</ele>
        <time>2025-04-29T12:50:32Z</time>
      </trkpt>
      <trkpt lat="43.392509976401925" lon="-5.818405039608479">
        <ele>159.72</ele>
        <time>2025-04-29T12:50:34Z</time>
      </trkpt>
      <trkpt lat="43.39243495836854" lon="-5.818505035713315">
        <ele>159.72</ele>
        <time>2025-04-29T12:50:35Z</time>
      </trkpt>
      <trkpt lat="43.392374021932483" lon="-5.818477962166071">
        <ele>160.19999999999999</ele>
        <time>2025-04-29T12:50:36Z</time>
      </trkpt>
      <trkpt lat="43.392314007505774" lon="-5.818450972437859">
        <ele>160.19999999999999</ele>
        <time>2025-04-29T12:50:37Z</time>
      </trkpt>
      <trkpt lat="43.392250975593925" lon="-5.818421971052885">
        <ele>160.19999999999999</ele>
        <time>2025-04-29T12:50:38Z</time>
      </trkpt>
      <trkpt lat="43.392166988924146" lon="-5.818422976881266">
        <ele>160.19999999999999</ele>
        <time>2025-04-29T12:50:39Z</time>
      </trkpt>
      <trkpt lat="43.392092976719141" lon="-5.818482991307974">
        <ele>160.19999999999999</ele>
        <time>2025-04-29T12:50:40Z</time>
      </trkpt>
      <trkpt lat="43.392007984220982" lon="-5.818561026826501">
        <ele>160.19999999999999</ele>
        <time>2025-04-29T12:50:41Z</time>
      </trkpt>
      <trkpt lat="43.391615962609649" lon="-5.818912982940674">
        <ele>159.72</ele>
        <time>2025-04-29T12:50:46Z</time>
      </trkpt>
      <trkpt lat="43.39155200868845" lon="-5.81896897405386">
        <ele>159.24000000000001</ele>
        <time>2025-04-29T12:50:47Z</time>
      </trkpt>
      <trkpt lat="43.390799984335899" lon="-5.819512959569693">
        <ele>158.75</ele>
        <time>2025-04-29T12:50:58Z</time>
      </trkpt>
      <trkpt lat="43.390747010707855" lon="-5.819541038945317">
        <ele>158.75</ele>
        <time>2025-04-29T12:50:59Z</time>
      </trkpt>
      <trkpt lat="43.390703005716205" lon="-5.819559982046485">
        <ele>158.27000000000001</ele>
        <time>2025-04-29T12:51:00Z</time>
      </trkpt>
      <trkpt lat="43.390610972419381" lon="-5.819648997858167">
        <ele>158.27000000000001</ele>
        <time>2025-04-29T12:51:01Z</time>
      </trkpt>
      <trkpt lat="43.390610972419381" lon="-5.819712029770017">
        <ele>158.27000000000001</ele>
        <time>2025-04-29T12:51:02Z</time>
      </trkpt>
      <trkpt lat="43.390610972419381" lon="-5.819794004783034">
        <ele>158.27000000000001</ele>
        <time>2025-04-29T12:51:03Z</time>
      </trkpt>
      <trkpt lat="43.390604015439749" lon="-5.8198700286448">
        <ele>158.27000000000001</ele>
        <time>2025-04-29T12:51:04Z</time>
      </trkpt>
      <trkpt lat="43.390561016276479" lon="-5.81995602697134">
        <ele>158.27000000000001</ele>
        <time>2025-04-29T12:51:05Z</time>
      </trkpt>
      <trkpt lat="43.390509970486164" lon="-5.820032972842455">
        <ele>157.78999999999999</ele>
        <time>2025-04-29T12:51:06Z</time>
      </trkpt>
      <trkpt lat="43.390431012958288" lon="-5.820054011419416">
        <ele>156.83000000000001</ele>
        <time>2025-04-29T12:51:07Z</time>
      </trkpt>
      <trkpt lat="43.390357000753284" lon="-5.820074966177344">
        <ele>156.34999999999999</ele>
        <time>2025-04-29T12:51:08Z</time>
      </trkpt>
      <trkpt lat="43.390274019911885" lon="-5.82008401863277">
        <ele>155.38999999999999</ele>
        <time>2025-04-29T12:51:09Z</time>
      </trkpt>
      <trkpt lat="43.390181986615062" lon="-5.820029033347964">
        <ele>154.43000000000001</ele>
        <time>2025-04-29T12:51:10Z</time>
      </trkpt>
      <trkpt lat="43.390144016593695" lon="-5.819963989779353">
        <ele>152.99000000000001</ele>
        <time>2025-04-29T12:51:11Z</time>
      </trkpt>
      <trkpt lat="43.390095988288522" lon="-5.81984899006784">
        <ele>152.50999999999999</ele>
        <time>2025-04-29T12:51:12Z</time>
      </trkpt>
      <trkpt lat="43.390095988288522" lon="-5.819756034761667">
        <ele>151.53999999999999</ele>
        <time>2025-04-29T12:51:13Z</time>
      </trkpt>
      <trkpt lat="43.390095988288522" lon="-5.819659978151321">
        <ele>150.58000000000001</ele>
        <time>2025-04-29T12:51:14Z</time>
      </trkpt>
      <trkpt lat="43.39013303630054" lon="-5.819558976218104">
        <ele>150.09999999999999</ele>
        <time>2025-04-29T12:51:15Z</time>
      </trkpt>
      <trkpt lat="43.390166983008385" lon="-5.81948203034699">
        <ele>149.62</ele>
        <time>2025-04-29T12:51:16Z</time>
      </trkpt>
      <trkpt lat="43.390234960243106" lon="-5.819435007870197">
        <ele>149.13999999999999</ele>
        <time>2025-04-29T12:51:17Z</time>
      </trkpt>
      <trkpt lat="43.390310984104872" lon="-5.819413969293237">
        <ele>148.66</ele>
        <time>2025-04-29T12:51:18Z</time>
      </trkpt>
      <trkpt lat="43.390418021008372" lon="-5.819384967908263">
        <ele>148.66</ele>
        <time>2025-04-29T12:51:19Z</time>
      </trkpt>
      <trkpt lat="43.390488009899855" lon="-5.819425033405423">
        <ele>148.66</ele>
        <time>2025-04-29T12:51:20Z</time>
      </trkpt>
      <trkpt lat="43.390567973256111" lon="-5.819470966234803">
        <ele>149.13999999999999</ele>
        <time>2025-04-29T12:51:21Z</time>
      </trkpt>
      <trkpt lat="43.390686996281147" lon="-5.819567022845149">
        <ele>149.13999999999999</ele>
        <time>2025-04-29T12:51:22Z</time>
      </trkpt>
      <trkpt lat="43.390784980729222" lon="-5.819522012025118">
        <ele>149.62</ele>
        <time>2025-04-29T12:51:23Z</time>
      </trkpt>
      <trkpt lat="43.390880031511188" lon="-5.819469038397074">
        <ele>149.62</ele>
        <time>2025-04-29T12:51:24Z</time>
      </trkpt>
      <trkpt lat="43.391519989818335" lon="-5.818996969610453">
        <ele>148.18000000000001</ele>
        <time>2025-04-29T12:51:31Z</time>
      </trkpt>
      <trkpt lat="43.3916150406003" lon="-5.818913988769054">
        <ele>148.18000000000001</ele>
        <time>2025-04-29T12:51:32Z</time>
      </trkpt>
      <trkpt lat="43.392736036330462" lon="-5.8179169613868">
        <ele>152.03</ele>
        <time>2025-04-29T12:51:44Z</time>
      </trkpt>
      <trkpt lat="43.39406699873507" lon="-5.816730000078678">
        <ele>154.43000000000001</ele>
        <time>2025-04-29T12:51:58Z</time>
      </trkpt>
      <trkpt lat="43.395009962841868" lon="-5.815907986834645">
        <ele>155.38999999999999</ele>
        <time>2025-04-29T12:52:09Z</time>
      </trkpt>
      <trkpt lat="43.39505203999579" lon="-5.815865993499756">
        <ele>155.87</ele>
        <time>2025-04-29T12:52:10Z</time>
      </trkpt>
      <trkpt lat="43.395087998360395" lon="-5.815750993788242">
        <ele>155.87</ele>
        <time>2025-04-29T12:52:11Z</time>
      </trkpt>
      <trkpt lat="43.395116999745369" lon="-5.815655020996928">
        <ele>156.34999999999999</ele>
        <time>2025-04-29T12:52:12Z</time>
      </trkpt>
      <trkpt lat="43.395167039707303" lon="-5.815444970503449">
        <ele>156.83000000000001</ele>
        <time>2025-04-29T12:52:14Z</time>
      </trkpt>
      <trkpt lat="43.395257983356714" lon="-5.815364001318812">
        <ele>156.83000000000001</ele>
        <time>2025-04-29T12:52:15Z</time>
      </trkpt>
      <trkpt lat="43.395336018875241" lon="-5.815356038510799">
        <ele>156.83000000000001</ele>
        <time>2025-04-29T12:52:16Z</time>
      </trkpt>
      <trkpt lat="43.395414976403117" lon="-5.815351009368897">
        <ele>156.83000000000001</ele>
        <time>2025-04-29T12:52:17Z</time>
      </trkpt>
      <trkpt lat="43.395497035235167" lon="-5.815351009368897">
        <ele>156.83000000000001</ele>
        <time>2025-04-29T12:52:18Z</time>
      </trkpt>
      <trkpt lat="43.395567024126649" lon="-5.815351009368897">
        <ele>157.31</ele>
        <time>2025-04-29T12:52:19Z</time>
      </trkpt>
      <trkpt lat="43.395656039938331" lon="-5.815283032134175">
        <ele>157.31</ele>
        <time>2025-04-29T12:52:20Z</time>
      </trkpt>
      <trkpt lat="43.395732985809445" lon="-5.815224023535848">
        <ele>157.31</ele>
        <time>2025-04-29T12:52:21Z</time>
      </trkpt>
      <trkpt lat="43.395810015499592" lon="-5.81516501493752">
        <ele>157.31</ele>
        <time>2025-04-29T12:52:22Z</time>
      </trkpt>
      <trkpt lat="43.396718027070165" lon="-5.814403016120195">
        <ele>158.75</ele>
        <time>2025-04-29T12:52:34Z</time>
      </trkpt>
      <trkpt lat="43.397425962612033" lon="-5.813857018947601">
        <ele>163.08000000000001</ele>
        <time>2025-04-29T12:52:44Z</time>
      </trkpt>
      <trkpt lat="43.397455969825387" lon="-5.813633976504207">
        <ele>163.08000000000001</ele>
        <time>2025-04-29T12:52:45Z</time>
      </trkpt>
      <trkpt lat="43.397468039765954" lon="-5.813605980947614">
        <ele>163.56</ele>
        <time>2025-04-29T12:52:46Z</time>
      </trkpt>
      <trkpt lat="43.397505003958941" lon="-5.813519982621074">
        <ele>164.03999999999999</ele>
        <time>2025-04-29T12:52:47Z</time>
      </trkpt>
      <trkpt lat="43.397574992850423" lon="-5.813457034528256">
        <ele>164.03999999999999</ele>
        <time>2025-04-29T12:52:48Z</time>
      </trkpt>
      <trkpt lat="43.397638024762273" lon="-5.81342501565814">
        <ele>164.52000000000001</ele>
        <time>2025-04-29T12:52:49Z</time>
      </trkpt>
      <trkpt lat="43.397649005055428" lon="-5.813419986516237">
        <ele>164.52000000000001</ele>
        <time>2025-04-29T12:52:50Z</time>
      </trkpt>
      <trkpt lat="43.397815972566605" lon="-5.813461979851127">
        <ele>164.52000000000001</ele>
        <time>2025-04-29T12:52:51Z</time>
      </trkpt>
      <trkpt lat="43.397873975336552" lon="-5.813397020101547">
        <ele>164.52000000000001</ele>
        <time>2025-04-29T12:52:52Z</time>
      </trkpt>
      <trkpt lat="43.397948993369937" lon="-5.813313033431768">
        <ele>164.52000000000001</ele>
        <time>2025-04-29T12:52:53Z</time>
      </trkpt>
      <trkpt lat="43.398018982261419" lon="-5.813265005126596">
        <ele>164.52000000000001</ele>
        <time>2025-04-29T12:52:54Z</time>
      </trkpt>
      <trkpt lat="43.398099029436707" lon="-5.813200967386365">
        <ele>164.52000000000001</ele>
        <time>2025-04-29T12:52:55Z</time>
      </trkpt>
      <trkpt lat="43.399039981886744" lon="-5.812353976070881">
        <ele>166.44999999999999</ele>
        <time>2025-04-29T12:53:08Z</time>
      </trkpt>
      <trkpt lat="43.399559995159507" lon="-5.811885008588433">
        <ele>167.41</ele>
        <time>2025-04-29T12:53:18Z</time>
      </trkpt>
      <trkpt lat="43.399665020406246" lon="-5.8117900416255">
        <ele>167.41</ele>
        <time>2025-04-29T12:53:20Z</time>
      </trkpt>
      <trkpt lat="43.399711037054658" lon="-5.811744024977088">
        <ele>167.41</ele>
        <time>2025-04-29T12:53:21Z</time>
      </trkpt>
      <trkpt lat="43.399750012904406" lon="-5.811704965308309">
        <ele>167.41</ele>
        <time>2025-04-29T12:53:22Z</time>
      </trkpt>
      <trkpt lat="43.399783037602901" lon="-5.811673030257225">
        <ele>167.41</ele>
        <time>2025-04-29T12:53:23Z</time>
      </trkpt>
      <trkpt lat="43.399813966825604" lon="-5.811643023043871">
        <ele>167.41</ele>
        <time>2025-04-29T12:53:24Z</time>
      </trkpt>
      <trkpt lat="43.399917986243963" lon="-5.811551995575428">
        <ele>167.88999999999999</ele>
        <time>2025-04-29T12:53:27Z</time>
      </trkpt>
      <trkpt lat="43.399946987628937" lon="-5.811526011675596">
        <ele>167.88999999999999</ele>
        <time>2025-04-29T12:53:28Z</time>
      </trkpt>
      <trkpt lat="43.399979006499052" lon="-5.811498016119003">
        <ele>167.88999999999999</ele>
        <time>2025-04-29T12:53:29Z</time>
      </trkpt>
      <trkpt lat="43.400008007884026" lon="-5.811472032219172">
        <ele>167.41</ele>
        <time>2025-04-29T12:53:30Z</time>
      </trkpt>
      <trkpt lat="43.400032985955477" lon="-5.81144998781383">
        <ele>167.41</ele>
        <time>2025-04-29T12:53:31Z</time>
      </trkpt>
      <trkpt lat="43.400052012875676" lon="-5.811432972550392">
        <ele>166.93000000000001</ele>
        <time>2025-04-29T12:53:32Z</time>
      </trkpt>
      <trkpt lat="43.400052012875676" lon="-5.811432972550392">
        <ele>166.44999999999999</ele>
        <time>2025-04-29T12:53:44Z</time>
      </trkpt>
      <trkpt lat="43.400052012875676" lon="-5.811432972550392">
        <ele>165.96000000000001</ele>
        <time>2025-04-29T12:54:27Z</time>
      </trkpt>
      <trkpt lat="43.400052012875676" lon="-5.811432972550392">
        <ele>164.52000000000001</ele>
        <time>2025-04-29T12:55:16Z</time>
      </trkpt>
      <trkpt lat="43.400116972625256" lon="-5.811375975608826">
        <ele>163.08000000000001</ele>
        <time>2025-04-29T12:55:42Z</time>
      </trkpt>
      <trkpt lat="43.400169024243951" lon="-5.811330964788795">
        <ele>162.59999999999999</ele>
        <time>2025-04-29T12:55:43Z</time>
      </trkpt>
      <trkpt lat="43.400226021185517" lon="-5.811288971453905">
        <ele>162.59999999999999</ele>
        <time>2025-04-29T12:55:44Z</time>
      </trkpt>
      <trkpt lat="43.400273965671659" lon="-5.811252007260919">
        <ele>162.12</ele>
        <time>2025-04-29T12:55:45Z</time>
      </trkpt>
      <trkpt lat="43.400317970663309" lon="-5.811219988390803">
        <ele>161.63999999999999</ele>
        <time>2025-04-29T12:55:46Z</time>
      </trkpt>
      <trkpt lat="43.400330962613225" lon="-5.811210013926029">
        <ele>161.16</ele>
        <time>2025-04-29T12:55:47Z</time>
      </trkpt>
      <trkpt lat="43.400330962613225" lon="-5.811210013926029">
        <ele>161.16</ele>
        <time>2025-04-29T12:55:48Z</time>
      </trkpt>
      <trkpt lat="43.400502959266305" lon="-5.811038017272949">
        <ele>160.68000000000001</ele>
        <time>2025-04-29T12:55:49Z</time>
      </trkpt>
      <trkpt lat="43.400502959266305" lon="-5.811038017272949">
        <ele>160.19999999999999</ele>
        <time>2025-04-29T12:55:50Z</time>
      </trkpt>
      <trkpt lat="43.40064000338316" lon="-5.810902984812856">
        <ele>159.72</ele>
        <time>2025-04-29T12:55:52Z</time>
      </trkpt>
      <trkpt lat="43.40104702860117" lon="-5.810530995950103">
        <ele>159.24000000000001</ele>
        <time>2025-04-29T12:55:57Z</time>
      </trkpt>
      <trkpt lat="43.401123974472284" lon="-5.810461007058621">
        <ele>159.24000000000001</ele>
        <time>2025-04-29T12:55:58Z</time>
      </trkpt>
      <trkpt lat="43.401700984686613" lon="-5.809958009049296">
        <ele>158.27000000000001</ele>
        <time>2025-04-29T12:56:07Z</time>
      </trkpt>
      <trkpt lat="43.401899971067905" lon="-5.809777965769172">
        <ele>161.63999999999999</ele>
        <time>2025-04-29T12:56:13Z</time>
      </trkpt>
      <trkpt lat="43.402050007134676" lon="-5.809647040441632">
        <ele>166.44999999999999</ele>
        <time>2025-04-29T12:56:22Z</time>
      </trkpt>
      <trkpt lat="43.402223009616137" lon="-5.809495998546481">
        <ele>166.44999999999999</ele>
        <time>2025-04-29T12:56:46Z</time>
      </trkpt>
      <trkpt lat="43.402916025370359" lon="-5.808888981118798">
        <ele>165</ele>
        <time>2025-04-29T12:56:55Z</time>
      </trkpt>
      <trkpt lat="43.403468979522586" lon="-5.808410039171577">
        <ele>164.52000000000001</ele>
        <time>2025-04-29T12:57:05Z</time>
      </trkpt>
      <trkpt lat="43.403489012271166" lon="-5.808392018079758">
        <ele>164.52000000000001</ele>
        <time>2025-04-29T12:57:13Z</time>
      </trkpt>
      <trkpt lat="43.403848009184003" lon="-5.808131005614996">
        <ele>163.56</ele>
        <time>2025-04-29T12:57:18Z</time>
      </trkpt>
      <trkpt lat="43.404001984745264" lon="-5.807990022003651">
        <ele>163.08000000000001</ele>
        <time>2025-04-29T12:57:20Z</time>
      </trkpt>
      <trkpt lat="43.404081026092172" lon="-5.807930007576942">
        <ele>163.08000000000001</ele>
        <time>2025-04-29T12:57:21Z</time>
      </trkpt>
      <trkpt lat="43.404181022197008" lon="-5.807959008961916">
        <ele>162.59999999999999</ele>
        <time>2025-04-29T12:57:22Z</time>
      </trkpt>
      <trkpt lat="43.404240030795336" lon="-5.808033021166921">
        <ele>163.08000000000001</ele>
        <time>2025-04-29T12:57:23Z</time>
      </trkpt>
      <trkpt lat="43.404257968068123" lon="-5.80822697840631">
        <ele>163.08000000000001</ele>
        <time>2025-04-29T12:57:24Z</time>
      </trkpt>
      <trkpt lat="43.40427003800869" lon="-5.808321023359895">
        <ele>163.08000000000001</ele>
        <time>2025-04-29T12:57:25Z</time>
      </trkpt>
      <trkpt lat="43.404287975281477" lon="-5.808457983657718">
        <ele>162.12</ele>
        <time>2025-04-29T12:57:26Z</time>
      </trkpt>
      <trkpt lat="43.404343966394663" lon="-5.808635009452701">
        <ele>161.63999999999999</ele>
        <time>2025-04-29T12:57:28Z</time>
      </trkpt>
      <trkpt lat="43.404457960277796" lon="-5.808754032477737">
        <ele>161.63999999999999</ele>
        <time>2025-04-29T12:57:29Z</time>
      </trkpt>
      <trkpt lat="43.404975961893797" lon="-5.809784000739455">
        <ele>165.96000000000001</ele>
        <time>2025-04-29T12:57:39Z</time>
      </trkpt>
      <trkpt lat="43.40536898933351" lon="-5.810556979849935">
        <ele>171.72999999999999</ele>
        <time>2025-04-29T12:57:47Z</time>
      </trkpt>
      <trkpt lat="43.405814990401268" lon="-5.81138301640749">
        <ele>172.21000000000001</ele>
        <time>2025-04-29T12:57:55Z</time>
      </trkpt>
      <trkpt lat="43.405891014263034" lon="-5.811467003077269">
        <ele>172.21000000000001</ele>
        <time>2025-04-29T12:57:56Z</time>
      </trkpt>
      <trkpt lat="43.405965026468039" lon="-5.811543026939035">
        <ele>172.21000000000001</ele>
        <time>2025-04-29T12:57:57Z</time>
      </trkpt>
      <trkpt lat="43.406704980880022" lon="-5.81209103576839">
        <ele>174.13999999999999</ele>
        <time>2025-04-29T12:58:06Z</time>
      </trkpt>
      <trkpt lat="43.407188029959798" lon="-5.812476016581059">
        <ele>173.66</ele>
        <time>2025-04-29T12:58:12Z</time>
      </trkpt>
      <trkpt lat="43.407706031575799" lon="-5.812853034585714">
        <ele>173.16999999999999</ele>
        <time>2025-04-29T12:58:20Z</time>
      </trkpt>
      <trkpt lat="43.408569032326341" lon="-5.813478995114565">
        <ele>171.72999999999999</ele>
        <time>2025-04-29T12:58:31Z</time>
      </trkpt>
      <trkpt lat="43.408815963193774" lon="-5.813658032566309">
        <ele>171.25</ele>
        <time>2025-04-29T12:58:34Z</time>
      </trkpt>
      <trkpt lat="43.409684998914599" lon="-5.81400697119534">
        <ele>167.88999999999999</ele>
        <time>2025-04-29T12:58:44Z</time>
      </trkpt>
      <trkpt lat="43.410612037405372" lon="-5.814191959798336">
        <ele>166.44999999999999</ele>
        <time>2025-04-29T12:58:55Z</time>
      </trkpt>
      <trkpt lat="43.411639994010329" lon="-5.814191959798336">
        <ele>167.41</ele>
        <time>2025-04-29T12:59:08Z</time>
      </trkpt>
      <trkpt lat="43.411932019516826" lon="-5.814204029738903">
        <ele>167.88999999999999</ele>
        <time>2025-04-29T12:59:12Z</time>
      </trkpt>
      <trkpt lat="43.411982981488109" lon="-5.814214004203677">
        <ele>167.88999999999999</ele>
        <time>2025-04-29T12:59:13Z</time>
      </trkpt>
      <trkpt lat="43.412068979814649" lon="-5.814287010580301">
        <ele>167.41</ele>
        <time>2025-04-29T12:59:14Z</time>
      </trkpt>
      <trkpt lat="43.412142992019653" lon="-5.81434995867312">
        <ele>167.41</ele>
        <time>2025-04-29T12:59:15Z</time>
      </trkpt>
      <trkpt lat="43.41222102753818" lon="-5.814416008070111">
        <ele>167.41</ele>
        <time>2025-04-29T12:59:16Z</time>
      </trkpt>
      <trkpt lat="43.41228699311614" lon="-5.814488008618355">
        <ele>167.41</ele>
        <time>2025-04-29T12:59:17Z</time>
      </trkpt>
      <trkpt lat="43.412611037492752" lon="-5.814944989979267">
        <ele>165</ele>
        <time>2025-04-29T12:59:23Z</time>
      </trkpt>
      <trkpt lat="43.41310397721827" lon="-5.81557497382164">
        <ele>162.59999999999999</ele>
        <time>2025-04-29T12:59:31Z</time>
      </trkpt>
      <trkpt lat="43.413177989423275" lon="-5.815599029883742">
        <ele>162.59999999999999</ele>
        <time>2025-04-29T12:59:32Z</time>
      </trkpt>
      <trkpt lat="43.413290977478027" lon="-5.815566005185247">
        <ele>161.63999999999999</ele>
        <time>2025-04-29T12:59:33Z</time>
      </trkpt>
      <trkpt lat="43.413422992452979" lon="-5.815526023507118">
        <ele>160.68000000000001</ele>
        <time>2025-04-29T12:59:35Z</time>
      </trkpt>
      <trkpt lat="43.413546960800886" lon="-5.815592994913459">
        <ele>159.72</ele>
        <time>2025-04-29T12:59:36Z</time>
      </trkpt>
      <trkpt lat="43.413589037954807" lon="-5.815688967704773">
        <ele>159.24000000000001</ele>
        <time>2025-04-29T12:59:37Z</time>
      </trkpt>
      <trkpt lat="43.413570011034608" lon="-5.815815031528473">
        <ele>159.24000000000001</ele>
        <time>2025-04-29T12:59:38Z</time>
      </trkpt>
      <trkpt lat="43.413560036569834" lon="-5.815974036231637">
        <ele>159.24000000000001</ele>
        <time>2025-04-29T12:59:39Z</time>
      </trkpt>
      <trkpt lat="43.413592977449298" lon="-5.816106973215938">
        <ele>158.75</ele>
        <time>2025-04-29T12:59:40Z</time>
      </trkpt>
      <trkpt lat="43.413630025461316" lon="-5.816254997625947">
        <ele>158.27000000000001</ele>
        <time>2025-04-29T12:59:41Z</time>
      </trkpt>
      <trkpt lat="43.413684004917741" lon="-5.816403022035956">
        <ele>157.78999999999999</ele>
        <time>2025-04-29T12:59:42Z</time>
      </trkpt>
      <trkpt lat="43.413766985759139" lon="-5.816533025354147">
        <ele>157.31</ele>
        <time>2025-04-29T12:59:43Z</time>
      </trkpt>
      <trkpt lat="43.413851978257298" lon="-5.816665962338448">
        <ele>156.83000000000001</ele>
        <time>2025-04-29T12:59:44Z</time>
      </trkpt>
      <trkpt lat="43.413936970755458" lon="-5.81679898314178">
        <ele>156.83000000000001</ele>
        <time>2025-04-29T12:59:45Z</time>
      </trkpt>
      <trkpt lat="43.4146289806813" lon="-5.817799028009176">
        <ele>155.87</ele>
        <time>2025-04-29T12:59:54Z</time>
      </trkpt>
      <trkpt lat="43.414942966774106" lon="-5.81823798827827">
        <ele>156.83000000000001</ele>
        <time>2025-04-29T12:59:58Z</time>
      </trkpt>
      <trkpt lat="43.415027959272265" lon="-5.818360028788447">
        <ele>156.83000000000001</ele>
        <time>2025-04-29T12:59:59Z</time>
      </trkpt>
      <trkpt lat="43.415281008929014" lon="-5.818717014044523">
        <ele>158.27000000000001</ele>
        <time>2025-04-29T13:00:02Z</time>
      </trkpt>
      <trkpt lat="43.415360972285271" lon="-5.818830002099276">
        <ele>158.75</ele>
        <time>2025-04-29T13:00:03Z</time>
      </trkpt>
      <trkpt lat="43.416182985529304" lon="-5.819985028356314">
        <ele>161.63999999999999</ele>
        <time>2025-04-29T13:00:13Z</time>
      </trkpt>
      <trkpt lat="43.416681038215756" lon="-5.820675026625395">
        <ele>163.08000000000001</ele>
        <time>2025-04-29T13:00:19Z</time>
      </trkpt>
      <trkpt lat="43.417493999004364" lon="-5.821781018748879">
        <ele>168.37</ele>
        <time>2025-04-29T13:00:29Z</time>
      </trkpt>
      <trkpt lat="43.418347025290132" lon="-5.822941996157169">
        <ele>173.16999999999999</ele>
        <time>2025-04-29T13:00:39Z</time>
      </trkpt>
      <trkpt lat="43.419381016865373" lon="-5.824346970766783">
        <ele>174.62</ele>
        <time>2025-04-29T13:00:51Z</time>
      </trkpt>
      <trkpt lat="43.419641023501754" lon="-5.824698004871607">
        <ele>174.13999999999999</ele>
        <time>2025-04-29T13:00:54Z</time>
      </trkpt>
      <trkpt lat="43.419724004343152" lon="-5.824810992926359">
        <ele>173.66</ele>
        <time>2025-04-29T13:00:55Z</time>
      </trkpt>
      <trkpt lat="43.419874962419271" lon="-5.825015008449554">
        <ele>173.66</ele>
        <time>2025-04-29T13:00:59Z</time>
      </trkpt>
      <trkpt lat="43.419929025694728" lon="-5.825087008997798">
        <ele>173.16999999999999</ele>
        <time>2025-04-29T13:01:01Z</time>
      </trkpt>
      <trkpt lat="43.419933971017599" lon="-5.825178036466241">
        <ele>173.16999999999999</ele>
        <time>2025-04-29T13:01:02Z</time>
      </trkpt>
      <trkpt lat="43.419899018481374" lon="-5.825223969295621">
        <ele>173.16999999999999</ele>
        <time>2025-04-29T13:01:03Z</time>
      </trkpt>
      <trkpt lat="43.419861970469356" lon="-5.825274009257555">
        <ele>173.16999999999999</ele>
        <time>2025-04-29T13:01:04Z</time>
      </trkpt>
      <trkpt lat="43.41982601210475" lon="-5.825322959572077">
        <ele>173.16999999999999</ele>
        <time>2025-04-29T13:01:05Z</time>
      </trkpt>
      <trkpt lat="43.41978301294148" lon="-5.825380962342024">
        <ele>173.16999999999999</ele>
        <time>2025-04-29T13:01:06Z</time>
      </trkpt>
      <trkpt lat="43.419732972979546" lon="-5.825449023395777">
        <ele>172.69</ele>
        <time>2025-04-29T13:01:07Z</time>
      </trkpt>
      <trkpt lat="43.419672958552837" lon="-5.825528986752033">
        <ele>173.16999999999999</ele>
        <time>2025-04-29T13:01:08Z</time>
      </trkpt>
      <trkpt lat="43.419471038505435" lon="-5.82580097950995">
        <ele>174.62</ele>
        <time>2025-04-29T13:01:11Z</time>
      </trkpt>
      <trkpt lat="43.419449999928474" lon="-5.825897036120296">
        <ele>175.09999999999999</ele>
        <time>2025-04-29T13:01:12Z</time>
      </trkpt>
      <trkpt lat="43.419428039342165" lon="-5.82599401473999">
        <ele>175.09999999999999</ele>
        <time>2025-04-29T13:01:13Z</time>
      </trkpt>
      <trkpt lat="43.419428039342165" lon="-5.826117983087897">
        <ele>175.58000000000001</ele>
        <time>2025-04-29T13:01:14Z</time>
      </trkpt>
      <trkpt lat="43.419428039342165" lon="-5.826240023598075">
        <ele>176.06</ele>
        <time>2025-04-29T13:01:15Z</time>
      </trkpt>
      <trkpt lat="43.419401971623302" lon="-5.826366003602743">
        <ele>176.06</ele>
        <time>2025-04-29T13:01:16Z</time>
      </trkpt>
      <trkpt lat="43.41937598772347" lon="-5.826476980000734">
        <ele>176.53999999999999</ele>
        <time>2025-04-29T13:01:17Z</time>
      </trkpt>
      <trkpt lat="43.419300969690084" lon="-5.826798006892204">
        <ele>177.02000000000001</ele>
        <time>2025-04-29T13:01:20Z</time>
      </trkpt>
      <trkpt lat="43.419278003275394" lon="-5.826894985511899">
        <ele>177.02000000000001</ele>
        <time>2025-04-29T13:01:21Z</time>
      </trkpt>
      <trkpt lat="43.419275991618633" lon="-5.827005039900541">
        <ele>177.5</ele>
        <time>2025-04-29T13:01:22Z</time>
      </trkpt>
      <trkpt lat="43.419299963861704" lon="-5.828418983146548">
        <ele>184.22999999999999</ele>
        <time>2025-04-29T13:01:36Z</time>
      </trkpt>
      <trkpt lat="43.419283032417297" lon="-5.828673960641027">
        <ele>185.66999999999999</ele>
        <time>2025-04-29T13:01:38Z</time>
      </trkpt>
      <trkpt lat="43.419265011325479" lon="-5.82876599393785">
        <ele>186.15000000000001</ele>
        <time>2025-04-29T13:01:39Z</time>
      </trkpt>
      <trkpt lat="43.419221006333828" lon="-5.828845035284758">
        <ele>186.15000000000001</ele>
        <time>2025-04-29T13:01:40Z</time>
      </trkpt>
      <trkpt lat="43.419037023559213" lon="-5.829186011105776">
        <ele>186.63</ele>
        <time>2025-04-29T13:01:44Z</time>
      </trkpt>
      <trkpt lat="43.418991006910801" lon="-5.829266980290413">
        <ele>186.63</ele>
        <time>2025-04-29T13:01:45Z</time>
      </trkpt>
      <trkpt lat="43.418776011094451" lon="-5.82958297803998">
        <ele>187.11000000000001</ele>
        <time>2025-04-29T13:01:49Z</time>
      </trkpt>
      <trkpt lat="43.418720019981265" lon="-5.829663025215268">
        <ele>187.11000000000001</ele>
        <time>2025-04-29T13:01:50Z</time>
      </trkpt>
      <trkpt lat="43.418683977797627" lon="-5.829757992178202">
        <ele>187.59</ele>
        <time>2025-04-29T13:01:51Z</time>
      </trkpt>
      <trkpt lat="43.41864500194788" lon="-5.829859999939799">
        <ele>187.59</ele>
        <time>2025-04-29T13:01:52Z</time>
      </trkpt>
      <trkpt lat="43.418604014441371" lon="-5.829966031014919">
        <ele>188.08000000000001</ele>
        <time>2025-04-29T13:01:53Z</time>
      </trkpt>
      <trkpt lat="43.418521033599973" lon="-5.830181026831269">
        <ele>189.03999999999999</ele>
        <time>2025-04-29T13:01:55Z</time>
      </trkpt>
      <trkpt lat="43.418392958119512" lon="-5.830470034852624">
        <ele>190.47999999999999</ele>
        <time>2025-04-29T13:01:58Z</time>
      </trkpt>
      <trkpt lat="43.418349958956242" lon="-5.830563995987177">
        <ele>191.44</ele>
        <time>2025-04-29T13:01:59Z</time>
      </trkpt>
      <trkpt lat="43.418249962851405" lon="-5.830727024003863">
        <ele>192.40000000000001</ele>
        <time>2025-04-29T13:02:01Z</time>
      </trkpt>
      <trkpt lat="43.418179973959923" lon="-5.830778991803527">
        <ele>192.88</ele>
        <time>2025-04-29T13:02:02Z</time>
      </trkpt>
      <trkpt lat="43.418102022260427" lon="-5.830778991803527">
        <ele>193.36000000000001</ele>
        <time>2025-04-29T13:02:03Z</time>
      </trkpt>
      <trkpt lat="43.417938994243741" lon="-5.830778991803527">
        <ele>193.84</ele>
        <time>2025-04-29T13:02:05Z</time>
      </trkpt>
      <trkpt lat="43.417859030887485" lon="-5.830778991803527">
        <ele>193.36000000000001</ele>
        <time>2025-04-29T13:02:06Z</time>
      </trkpt>
      <trkpt lat="43.417774038389325" lon="-5.830778991803527">
        <ele>193.36000000000001</ele>
        <time>2025-04-29T13:02:07Z</time>
      </trkpt>
      <trkpt lat="43.417676975950599" lon="-5.830795001238585">
        <ele>193.36000000000001</ele>
        <time>2025-04-29T13:02:08Z</time>
      </trkpt>
      <trkpt lat="43.417616039514542" lon="-5.830865995958448">
        <ele>193.36000000000001</ele>
        <time>2025-04-29T13:02:09Z</time>
      </trkpt>
      <trkpt lat="43.41754999011755" lon="-5.830950988456607">
        <ele>192.88</ele>
        <time>2025-04-29T13:02:10Z</time>
      </trkpt>
      <trkpt lat="43.417503973469138" lon="-5.831044027581811">
        <ele>193.36000000000001</ele>
        <time>2025-04-29T13:02:11Z</time>
      </trkpt>
      <trkpt lat="43.41746499761939" lon="-5.831122985109687">
        <ele>193.36000000000001</ele>
        <time>2025-04-29T13:02:12Z</time>
      </trkpt>
      <trkpt lat="43.417429039254785" lon="-5.83119397982955">
        <ele>193.84</ele>
        <time>2025-04-29T13:02:13Z</time>
      </trkpt>
      <trkpt lat="43.417298030108213" lon="-5.831393972039223">
        <ele>195.28</ele>
        <time>2025-04-29T13:02:16Z</time>
      </trkpt>
      <trkpt lat="43.417079010978341" lon="-5.831587007269263">
        <ele>196.25</ele>
        <time>2025-04-29T13:02:19Z</time>
      </trkpt>
      <trkpt lat="43.417027965188026" lon="-5.831679040566087">
        <ele>195.77000000000001</ele>
        <time>2025-04-29T13:02:20Z</time>
      </trkpt>
      <trkpt lat="43.417012039572001" lon="-5.831835027784109">
        <ele>195.77000000000001</ele>
        <time>2025-04-29T13:02:21Z</time>
      </trkpt>
      <trkpt lat="43.417022014036775" lon="-5.831966958940029">
        <ele>195.28</ele>
        <time>2025-04-29T13:02:22Z</time>
      </trkpt>
      <trkpt lat="43.417032994329929" lon="-5.832110960036516">
        <ele>195.28</ele>
        <time>2025-04-29T13:02:23Z</time>
      </trkpt>
      <trkpt lat="43.417079010978341" lon="-5.832708002999425">
        <ele>193.36000000000001</ele>
        <time>2025-04-29T13:02:27Z</time>
      </trkpt>
      <trkpt lat="43.417071970179677" lon="-5.832987036556006">
        <ele>191.91999999999999</ele>
        <time>2025-04-29T13:02:29Z</time>
      </trkpt>
      <trkpt lat="43.417055960744619" lon="-5.833123996853828">
        <ele>191.44</ele>
        <time>2025-04-29T13:02:30Z</time>
      </trkpt>
      <trkpt lat="43.41703400015831" lon="-5.833236984908581">
        <ele>190.96000000000001</ele>
        <time>2025-04-29T13:02:31Z</time>
      </trkpt>
      <trkpt lat="43.416995024308562" lon="-5.833343015983701">
        <ele>190.47999999999999</ele>
        <time>2025-04-29T13:02:32Z</time>
      </trkpt>
      <trkpt lat="43.416959987953305" lon="-5.833439994603396">
        <ele>190.47999999999999</ele>
        <time>2025-04-29T13:02:33Z</time>
      </trkpt>
      <trkpt lat="43.41692503541708" lon="-5.8335330337286">
        <ele>190.96000000000001</ele>
        <time>2025-04-29T13:02:34Z</time>
      </trkpt>
      <trkpt lat="43.416883964091539" lon="-5.833620959892869">
        <ele>190.96000000000001</ele>
        <time>2025-04-29T13:02:35Z</time>
      </trkpt>
      <trkpt lat="43.416811041533947" lon="-5.833674017339945">
        <ele>190.96000000000001</ele>
        <time>2025-04-29T13:02:36Z</time>
      </trkpt>
      <trkpt lat="43.416735017672181" lon="-5.83372900262475">
        <ele>190.47999999999999</ele>
        <time>2025-04-29T13:02:37Z</time>
      </trkpt>
      <trkpt lat="43.416650025174022" lon="-5.833787005394697">
        <ele>190</ele>
        <time>2025-04-29T13:02:38Z</time>
      </trkpt>
      <trkpt lat="43.416277030482888" lon="-5.833932012319565">
        <ele>188.08000000000001</ele>
        <time>2025-04-29T13:02:42Z</time>
      </trkpt>
      <trkpt lat="43.416207041591406" lon="-5.834011975675821">
        <ele>187.59</ele>
        <time>2025-04-29T13:02:43Z</time>
      </trkpt>
      <trkpt lat="43.416126994416118" lon="-5.834105014801025">
        <ele>187.11000000000001</ele>
        <time>2025-04-29T13:02:44Z</time>
      </trkpt>
      <trkpt lat="43.415762968361378" lon="-5.834613963961601">
        <ele>184.22999999999999</ele>
        <time>2025-04-29T13:02:49Z</time>
      </trkpt>
      <trkpt lat="43.415607986971736" lon="-5.834919987246394">
        <ele>183.27000000000001</ele>
        <time>2025-04-29T13:02:52Z</time>
      </trkpt>
      <trkpt lat="43.415568005293608" lon="-5.835036998614669">
        <ele>182.78999999999999</ele>
        <time>2025-04-29T13:02:53Z</time>
      </trkpt>
      <trkpt lat="43.415527017787099" lon="-5.835156021639705">
        <ele>182.31</ele>
        <time>2025-04-29T13:02:54Z</time>
      </trkpt>
      <trkpt lat="43.415375975891948" lon="-5.835492974147201">
        <ele>181.34999999999999</ele>
        <time>2025-04-29T13:02:57Z</time>
      </trkpt>
      <trkpt lat="43.415307998657227" lon="-5.835579978302121">
        <ele>181.34999999999999</ele>
        <time>2025-04-29T13:02:58Z</time>
      </trkpt>
      <trkpt lat="43.415231974795461" lon="-5.835638986900449">
        <ele>181.34999999999999</ele>
        <time>2025-04-29T13:02:59Z</time>
      </trkpt>
      <trkpt lat="43.415152011439204" lon="-5.835686009377241">
        <ele>181.34999999999999</ele>
        <time>2025-04-29T13:03:00Z</time>
      </trkpt>
      <trkpt lat="43.415073975920677" lon="-5.835731020197272">
        <ele>181.34999999999999</ele>
        <time>2025-04-29T13:03:01Z</time>
      </trkpt>
      <trkpt lat="43.414997030049562" lon="-5.835767984390259">
        <ele>181.34999999999999</ele>
        <time>2025-04-29T13:03:02Z</time>
      </trkpt>
      <trkpt lat="43.414900973439217" lon="-5.835800003260374">
        <ele>180.87</ele>
        <time>2025-04-29T13:03:03Z</time>
      </trkpt>
      <trkpt lat="43.414839031174779" lon="-5.835821963846684">
        <ele>180.38</ele>
        <time>2025-04-29T13:03:04Z</time>
      </trkpt>
      <trkpt lat="43.414758983999491" lon="-5.835850965231657">
        <ele>179.90000000000001</ele>
        <time>2025-04-29T13:03:05Z</time>
      </trkpt>
      <trkpt lat="43.414216004312038" lon="-5.836045006290078">
        <ele>177.02000000000001</ele>
        <time>2025-04-29T13:03:11Z</time>
      </trkpt>
      <trkpt lat="43.414131011813879" lon="-5.836075013503432">
        <ele>176.53999999999999</ele>
        <time>2025-04-29T13:03:12Z</time>
      </trkpt>
      <trkpt lat="43.414065968245268" lon="-5.836097979918122">
        <ele>176.06</ele>
        <time>2025-04-29T13:03:13Z</time>
      </trkpt>
      <trkpt lat="43.414032021537423" lon="-5.836228989064694">
        <ele>175.58000000000001</ele>
        <time>2025-04-29T13:03:14Z</time>
      </trkpt>
      <trkpt lat="43.414051970466971" lon="-5.836295038461685">
        <ele>175.09999999999999</ele>
        <time>2025-04-29T13:03:15Z</time>
      </trkpt>
      <trkpt lat="43.414077032357454" lon="-5.836377013474703">
        <ele>175.09999999999999</ele>
        <time>2025-04-29T13:03:16Z</time>
      </trkpt>
      <trkpt lat="43.414103016257286" lon="-5.836461000144482">
        <ele>175.09999999999999</ele>
        <time>2025-04-29T13:03:17Z</time>
      </trkpt>
      <trkpt lat="43.414130005985498" lon="-5.836551021784544">
        <ele>175.58000000000001</ele>
        <time>2025-04-29T13:03:18Z</time>
      </trkpt>
      <trkpt lat="43.414158001542091" lon="-5.836640959605575">
        <ele>176.06</ele>
        <time>2025-04-29T13:03:19Z</time>
      </trkpt>
      <trkpt lat="43.414220027625561" lon="-5.836846986785531">
        <ele>176.53999999999999</ele>
        <time>2025-04-29T13:03:21Z</time>
      </trkpt>
      <trkpt lat="43.414253974333405" lon="-5.836958969011903">
        <ele>177.02000000000001</ele>
        <time>2025-04-29T13:03:22Z</time>
      </trkpt>
      <trkpt lat="43.414296973496675" lon="-5.837120991200209">
        <ele>177.02000000000001</ele>
        <time>2025-04-29T13:03:23Z</time>
      </trkpt>
      <trkpt lat="43.414265038445592" lon="-5.837234985083342">
        <ele>177.97999999999999</ele>
        <time>2025-04-29T13:03:24Z</time>
      </trkpt>
      <trkpt lat="43.414230002090335" lon="-5.8373580314219">
        <ele>178.46000000000001</ele>
        <time>2025-04-29T13:03:25Z</time>
      </trkpt>
      <trkpt lat="43.414064040407538" lon="-5.837946021929383">
        <ele>181.83000000000001</ele>
        <time>2025-04-29T13:03:29Z</time>
      </trkpt>
      <trkpt lat="43.414064040407538" lon="-5.83806898444891">
        <ele>182.31</ele>
        <time>2025-04-29T13:03:30Z</time>
      </trkpt>
      <trkpt lat="43.414064962416887" lon="-5.838231006637216">
        <ele>182.78999999999999</ele>
        <time>2025-04-29T13:03:31Z</time>
      </trkpt>
      <trkpt lat="43.414103016257286" lon="-5.838550021871924">
        <ele>184.22999999999999</ele>
        <time>2025-04-29T13:03:33Z</time>
      </trkpt>
      <trkpt lat="43.414122965186834" lon="-5.838720006868243">
        <ele>185.19</ele>
        <time>2025-04-29T13:03:34Z</time>
      </trkpt>
      <trkpt lat="43.414165964350104" lon="-5.838889991864562">
        <ele>186.15000000000001</ele>
        <time>2025-04-29T13:03:35Z</time>
      </trkpt>
      <trkpt lat="43.414513980969787" lon="-5.839886013418436">
        <ele>188.08000000000001</ele>
        <time>2025-04-29T13:03:41Z</time>
      </trkpt>
      <trkpt lat="43.414604002609849" lon="-5.840054992586374">
        <ele>187.59</ele>
        <time>2025-04-29T13:03:42Z</time>
      </trkpt>
      <trkpt lat="43.414794020354748" lon="-5.840370990335941">
        <ele>186.63</ele>
        <time>2025-04-29T13:03:44Z</time>
      </trkpt>
      <trkpt lat="43.41486400924623" lon="-5.840551033616066">
        <ele>186.63</ele>
        <time>2025-04-29T13:03:45Z</time>
      </trkpt>
      <trkpt lat="43.414932992309332" lon="-5.840729987248778">
        <ele>186.15000000000001</ele>
        <time>2025-04-29T13:03:46Z</time>
      </trkpt>
      <trkpt lat="43.415468009188771" lon="-5.841949973255396">
        <ele>189.52000000000001</ele>
        <time>2025-04-29T13:03:53Z</time>
      </trkpt>
      <trkpt lat="43.415507990866899" lon="-5.842131022363901">
        <ele>190</ele>
        <time>2025-04-29T13:03:54Z</time>
      </trkpt>
      <trkpt lat="43.415626008063555" lon="-5.842595966532826">
        <ele>190.96000000000001</ele>
        <time>2025-04-29T13:03:57Z</time>
      </trkpt>
      <trkpt lat="43.415690967813134" lon="-5.842694034799933">
        <ele>190.96000000000001</ele>
        <time>2025-04-29T13:03:58Z</time>
      </trkpt>
      <trkpt lat="43.415759028866887" lon="-5.842795036733151">
        <ele>191.44</ele>
        <time>2025-04-29T13:03:59Z</time>
      </trkpt>
      <trkpt lat="43.41651801019907" lon="-5.843580001965165">
        <ele>191.44</ele>
        <time>2025-04-29T13:04:07Z</time>
      </trkpt>
      <trkpt lat="43.417587960138917" lon="-5.84477199241519">
        <ele>182.78999999999999</ele>
        <time>2025-04-29T13:04:17Z</time>
      </trkpt>
      <trkpt lat="43.417706983163953" lon="-5.844866037368774">
        <ele>182.31</ele>
        <time>2025-04-29T13:04:18Z</time>
      </trkpt>
      <trkpt lat="43.418291034176946" lon="-5.845326958224177">
        <ele>179.41999999999999</ele>
        <time>2025-04-29T13:04:23Z</time>
      </trkpt>
      <trkpt lat="43.418360017240047" lon="-5.845410022884607">
        <ele>178.94</ele>
        <time>2025-04-29T13:04:24Z</time>
      </trkpt>
      <trkpt lat="43.418434029445052" lon="-5.845534997060895">
        <ele>178.46000000000001</ele>
        <time>2025-04-29T13:04:25Z</time>
      </trkpt>
      <trkpt lat="43.418491026386619" lon="-5.845663994550705">
        <ele>177.97999999999999</ele>
        <time>2025-04-29T13:04:26Z</time>
      </trkpt>
      <trkpt lat="43.418546011671424" lon="-5.845788968726993">
        <ele>177.5</ele>
        <time>2025-04-29T13:04:27Z</time>
      </trkpt>
      <trkpt lat="43.418598985299468" lon="-5.845906985923648">
        <ele>177.02000000000001</ele>
        <time>2025-04-29T13:04:28Z</time>
      </trkpt>
      <trkpt lat="43.418655982241035" lon="-5.846035983413458">
        <ele>176.53999999999999</ele>
        <time>2025-04-29T13:04:29Z</time>
      </trkpt>
      <trkpt lat="43.418690012767911" lon="-5.846173027530313">
        <ele>176.53999999999999</ele>
        <time>2025-04-29T13:04:30Z</time>
      </trkpt>
      <trkpt lat="43.418747009709477" lon="-5.846485001966357">
        <ele>175.09999999999999</ele>
        <time>2025-04-29T13:04:32Z</time>
      </trkpt>
      <trkpt lat="43.41875396668911" lon="-5.846638977527618">
        <ele>174.62</ele>
        <time>2025-04-29T13:04:33Z</time>
      </trkpt>
      <trkpt lat="43.418760001659393" lon="-5.84679102525115">
        <ele>174.62</ele>
        <time>2025-04-29T13:04:34Z</time>
      </trkpt>
      <trkpt lat="43.418729994446039" lon="-5.847081961110234">
        <ele>174.13999999999999</ele>
        <time>2025-04-29T13:04:36Z</time>
      </trkpt>
      <trkpt lat="43.41868900693953" lon="-5.847212970256805">
        <ele>173.66</ele>
        <time>2025-04-29T13:04:37Z</time>
      </trkpt>
      <trkpt lat="43.418626980856061" lon="-5.847334004938602">
        <ele>173.16999999999999</ele>
        <time>2025-04-29T13:04:38Z</time>
      </trkpt>
      <trkpt lat="43.41855900362134" lon="-5.847465014085174">
        <ele>172.69</ele>
        <time>2025-04-29T13:04:39Z</time>
      </trkpt>
      <trkpt lat="43.418490020558238" lon="-5.847599962726235">
        <ele>171.72999999999999</ele>
        <time>2025-04-29T13:04:40Z</time>
      </trkpt>
      <trkpt lat="43.418424976989627" lon="-5.847728038206697">
        <ele>171.25</ele>
        <time>2025-04-29T13:04:41Z</time>
      </trkpt>
      <trkpt lat="43.41836404055357" lon="-5.84784597158432">
        <ele>170.77000000000001</ele>
        <time>2025-04-29T13:04:42Z</time>
      </trkpt>
      <trkpt lat="43.418307965621352" lon="-5.847955020144582">
        <ele>170.28999999999999</ele>
        <time>2025-04-29T13:04:43Z</time>
      </trkpt>
      <trkpt lat="43.418321963399649" lon="-5.848071025684476">
        <ele>169.81</ele>
        <time>2025-04-29T13:04:44Z</time>
      </trkpt>
      <trkpt lat="43.418364962562919" lon="-5.848184013739228">
        <ele>168.84999999999999</ele>
        <time>2025-04-29T13:04:45Z</time>
      </trkpt>
      <trkpt lat="43.418459007516503" lon="-5.848434967920184">
        <ele>167.41</ele>
        <time>2025-04-29T13:04:47Z</time>
      </trkpt>
      <trkpt lat="43.418505024164915" lon="-5.848559020087123">
        <ele>166.44999999999999</ele>
        <time>2025-04-29T13:04:48Z</time>
      </trkpt>
      <trkpt lat="43.418575013056397" lon="-5.848681982606649">
        <ele>165.47999999999999</ele>
        <time>2025-04-29T13:04:49Z</time>
      </trkpt>
      <trkpt lat="43.418676014989614" lon="-5.848708972334862">
        <ele>164.52000000000001</ele>
        <time>2025-04-29T13:04:50Z</time>
      </trkpt>
      <trkpt lat="43.418781962245703" lon="-5.848736967891455">
        <ele>163.56</ele>
        <time>2025-04-29T13:04:51Z</time>
      </trkpt>
      <trkpt lat="43.418900985270739" lon="-5.848750965669751">
        <ele>162.59999999999999</ele>
        <time>2025-04-29T13:04:52Z</time>
      </trkpt>
      <trkpt lat="43.41901296749711" lon="-5.848716013133526">
        <ele>161.16</ele>
        <time>2025-04-29T13:04:53Z</time>
      </trkpt>
      <trkpt lat="43.41911899857223" lon="-5.84868298843503">
        <ele>160.19999999999999</ele>
        <time>2025-04-29T13:04:54Z</time>
      </trkpt>
      <trkpt lat="43.419206002727151" lon="-5.848655998706818">
        <ele>159.24000000000001</ele>
        <time>2025-04-29T13:04:55Z</time>
      </trkpt>
      <trkpt lat="43.419243972748518" lon="-5.84870302118361">
        <ele>158.27000000000001</ele>
        <time>2025-04-29T13:04:56Z</time>
      </trkpt>
      <trkpt lat="43.419298036023974" lon="-5.848790025338531">
        <ele>157.31</ele>
        <time>2025-04-29T13:04:57Z</time>
      </trkpt>
      <trkpt lat="43.419361989945173" lon="-5.848894966766238">
        <ele>155.87</ele>
        <time>2025-04-29T13:04:58Z</time>
      </trkpt>
      <trkpt lat="43.419431978836656" lon="-5.849008960649371">
        <ele>154.91</ele>
        <time>2025-04-29T13:04:59Z</time>
      </trkpt>
      <trkpt lat="43.420211998745799" lon="-5.850330032408238">
        <ele>147.22</ele>
        <time>2025-04-29T13:05:09Z</time>
      </trkpt>
      <trkpt lat="43.42040503397584" lon="-5.850694980472326">
        <ele>146.25999999999999</ele>
        <time>2025-04-29T13:05:12Z</time>
      </trkpt>
      <trkpt lat="43.42044803313911" lon="-5.850826995447278">
        <ele>146.25999999999999</ele>
        <time>2025-04-29T13:05:13Z</time>
      </trkpt>
      <trkpt lat="43.42047200538218" lon="-5.850977031514049">
        <ele>146.74000000000001</ele>
        <time>2025-04-29T13:05:14Z</time>
      </trkpt>
      <trkpt lat="43.420695969834924" lon="-5.852533970028162">
        <ele>148.66</ele>
        <time>2025-04-29T13:05:25Z</time>
      </trkpt>
      <trkpt lat="43.42072899453342" lon="-5.852813003584743">
        <ele>149.62</ele>
        <time>2025-04-29T13:05:27Z</time>
      </trkpt>
      <trkpt lat="43.420767970383167" lon="-5.852965973317623">
        <ele>150.58000000000001</ele>
        <time>2025-04-29T13:05:28Z</time>
      </trkpt>
      <trkpt lat="43.420820022001863" lon="-5.853116009384394">
        <ele>151.06</ele>
        <time>2025-04-29T13:05:29Z</time>
      </trkpt>
      <trkpt lat="43.421456040814519" lon="-5.854801023378968">
        <ele>163.08000000000001</ele>
        <time>2025-04-29T13:05:41Z</time>
      </trkpt>
      <trkpt lat="43.421694003045559" lon="-5.855293963104487">
        <ele>165.96000000000001</ele>
        <time>2025-04-29T13:05:45Z</time>
      </trkpt>
      <trkpt lat="43.421777989715338" lon="-5.855389013886452">
        <ele>166.93000000000001</ele>
        <time>2025-04-29T13:05:46Z</time>
      </trkpt>
      <trkpt lat="43.422021986916661" lon="-5.855661006644368">
        <ele>167.88999999999999</ele>
        <time>2025-04-29T13:05:49Z</time>
      </trkpt>
      <trkpt lat="43.422077978029847" lon="-5.855796039104462">
        <ele>167.88999999999999</ele>
        <time>2025-04-29T13:05:50Z</time>
      </trkpt>
      <trkpt lat="43.422094993293285" lon="-5.855928976088762">
        <ele>167.88999999999999</ele>
        <time>2025-04-29T13:05:51Z</time>
      </trkpt>
      <trkpt lat="43.422111002728343" lon="-5.856055961921811">
        <ele>167.88999999999999</ele>
        <time>2025-04-29T13:05:52Z</time>
      </trkpt>
      <trkpt lat="43.422100022435188" lon="-5.856211027130485">
        <ele>167.88999999999999</ele>
        <time>2025-04-29T13:05:53Z</time>
      </trkpt>
      <trkpt lat="43.422089964151382" lon="-5.856359973549843">
        <ele>167.88999999999999</ele>
        <time>2025-04-29T13:05:54Z</time>
      </trkpt>
      <trkpt lat="43.422079989686608" lon="-5.856515960767865">
        <ele>167.88999999999999</ele>
        <time>2025-04-29T13:05:55Z</time>
      </trkpt>
      <trkpt lat="43.421915033832192" lon="-5.858238022774458">
        <ele>170.77000000000001</ele>
        <time>2025-04-29T13:06:05Z</time>
      </trkpt>
      <trkpt lat="43.421834986656904" lon="-5.85877999663353">
        <ele>173.16999999999999</ele>
        <time>2025-04-29T13:06:08Z</time>
      </trkpt>
      <trkpt lat="43.421815037727356" lon="-5.858954004943371">
        <ele>174.13999999999999</ele>
        <time>2025-04-29T13:06:09Z</time>
      </trkpt>
      <trkpt lat="43.421796010807157" lon="-5.85912398993969">
        <ele>174.62</ele>
        <time>2025-04-29T13:06:10Z</time>
      </trkpt>
      <trkpt lat="43.421793999150395" lon="-5.859292969107628">
        <ele>175.58000000000001</ele>
        <time>2025-04-29T13:06:11Z</time>
      </trkpt>
      <trkpt lat="43.42180397361517" lon="-5.859457002952695">
        <ele>176.53999999999999</ele>
        <time>2025-04-29T13:06:12Z</time>
      </trkpt>
      <trkpt lat="43.421812020242214" lon="-5.859606033191085">
        <ele>177.5</ele>
        <time>2025-04-29T13:06:13Z</time>
      </trkpt>
      <trkpt lat="43.421885026618838" lon="-5.860147001221776">
        <ele>180.38</ele>
        <time>2025-04-29T13:06:17Z</time>
      </trkpt>
      <trkpt lat="43.421930037438869" lon="-5.860286979004741">
        <ele>180.38</ele>
        <time>2025-04-29T13:06:18Z</time>
      </trkpt>
      <trkpt lat="43.422629004344344" lon="-5.861889012157917">
        <ele>181.34999999999999</ele>
        <time>2025-04-29T13:06:30Z</time>
      </trkpt>
      <trkpt lat="43.422983977943659" lon="-5.863269008696079">
        <ele>173.66</ele>
        <time>2025-04-29T13:06:39Z</time>
      </trkpt>
      <trkpt lat="43.423060001805425" lon="-5.863412003964186">
        <ele>172.69</ele>
        <time>2025-04-29T13:06:40Z</time>
      </trkpt>
      <trkpt lat="43.423137031495571" lon="-5.863556005060673">
        <ele>171.72999999999999</ele>
        <time>2025-04-29T13:06:41Z</time>
      </trkpt>
      <trkpt lat="43.423507008701563" lon="-5.864191018044949">
        <ele>166.93000000000001</ele>
        <time>2025-04-29T13:06:46Z</time>
      </trkpt>
      <trkpt lat="43.423597030341625" lon="-5.86428003385663">
        <ele>165.96000000000001</ele>
        <time>2025-04-29T13:06:47Z</time>
      </trkpt>
      <trkpt lat="43.423708006739616" lon="-5.864340970292687">
        <ele>165</ele>
        <time>2025-04-29T13:06:48Z</time>
      </trkpt>
      <trkpt lat="43.424346959218383" lon="-5.864644981920719">
        <ele>160.19999999999999</ele>
        <time>2025-04-29T13:06:54Z</time>
      </trkpt>
      <trkpt lat="43.424421977251768" lon="-5.864737015217543">
        <ele>159.72</ele>
        <time>2025-04-29T13:06:55Z</time>
      </trkpt>
      <trkpt lat="43.424830008298159" lon="-5.865255016833544">
        <ele>158.27000000000001</ele>
        <time>2025-04-29T13:07:00Z</time>
      </trkpt>
      <trkpt lat="43.424889016896486" lon="-5.865387031808496">
        <ele>157.78999999999999</ele>
        <time>2025-04-29T13:07:01Z</time>
      </trkpt>
      <trkpt lat="43.425541967153549" lon="-5.866779014468193">
        <ele>154.91</ele>
        <time>2025-04-29T13:07:10Z</time>
      </trkpt>
      <trkpt lat="43.42594999819994" lon="-5.867763971909881">
        <ele>153.94999999999999</ele>
        <time>2025-04-29T13:07:16Z</time>
      </trkpt>
      <trkpt lat="43.426000960171223" lon="-5.867931023240089">
        <ele>153.94999999999999</ele>
        <time>2025-04-29T13:07:17Z</time>
      </trkpt>
      <trkpt lat="43.426043037325144" lon="-5.86810402572155">
        <ele>153.94999999999999</ele>
        <time>2025-04-29T13:07:18Z</time>
      </trkpt>
      <trkpt lat="43.42616599984467" lon="-5.869568008929491">
        <ele>151.06</ele>
        <time>2025-04-29T13:07:26Z</time>
      </trkpt>
      <trkpt lat="43.426211010664701" lon="-5.86971502751112">
        <ele>150.58000000000001</ele>
        <time>2025-04-29T13:07:27Z</time>
      </trkpt>
      <trkpt lat="43.426278987899423" lon="-5.869832038879395">
        <ele>150.09999999999999</ele>
        <time>2025-04-29T13:07:28Z</time>
      </trkpt>
      <trkpt lat="43.426374960690737" lon="-5.869920970872045">
        <ele>149.62</ele>
        <time>2025-04-29T13:07:29Z</time>
      </trkpt>
      <trkpt lat="43.426489038392901" lon="-5.869968999177218">
        <ele>149.62</ele>
        <time>2025-04-29T13:07:30Z</time>
      </trkpt>
      <trkpt lat="43.426593979820609" lon="-5.870013004168868">
        <ele>149.62</ele>
        <time>2025-04-29T13:07:31Z</time>
      </trkpt>
      <trkpt lat="43.426692970097065" lon="-5.870054997503758">
        <ele>149.13999999999999</ele>
        <time>2025-04-29T13:07:32Z</time>
      </trkpt>
      <trkpt lat="43.426780980080366" lon="-5.870134038850665">
        <ele>148.18000000000001</ele>
        <time>2025-04-29T13:07:33Z</time>
      </trkpt>
      <trkpt lat="43.426872007548809" lon="-5.870238980278373">
        <ele>147.69999999999999</ele>
        <time>2025-04-29T13:07:34Z</time>
      </trkpt>
      <trkpt lat="43.426963035017252" lon="-5.870344005525112">
        <ele>146.74000000000001</ele>
        <time>2025-04-29T13:07:35Z</time>
      </trkpt>
      <trkpt lat="43.427080968394876" lon="-5.870393039658666">
        <ele>145.78</ele>
        <time>2025-04-29T13:07:36Z</time>
      </trkpt>
      <trkpt lat="43.427180964499712" lon="-5.870397984981537">
        <ele>145.30000000000001</ele>
        <time>2025-04-29T13:07:37Z</time>
      </trkpt>
      <trkpt lat="43.427281966432929" lon="-5.870402008295059">
        <ele>144.34</ele>
        <time>2025-04-29T13:07:38Z</time>
      </trkpt>
      <trkpt lat="43.427371988072991" lon="-5.870406031608582">
        <ele>143.84999999999999</ele>
        <time>2025-04-29T13:07:39Z</time>
      </trkpt>
      <trkpt lat="43.427453963086009" lon="-5.870408965274692">
        <ele>142.88999999999999</ele>
        <time>2025-04-29T13:07:40Z</time>
      </trkpt>
      <trkpt lat="43.42751900665462" lon="-5.870430003851652">
        <ele>142.41</ele>
        <time>2025-04-29T13:07:41Z</time>
      </trkpt>
      <trkpt lat="43.42760399915278" lon="-5.870496975257993">
        <ele>142.41</ele>
        <time>2025-04-29T13:07:42Z</time>
      </trkpt>
      <trkpt lat="43.427616991102695" lon="-5.870599988847971">
        <ele>142.41</ele>
        <time>2025-04-29T13:07:43Z</time>
      </trkpt>
      <trkpt lat="43.427633000537753" lon="-5.870719011873007">
        <ele>142.41</ele>
        <time>2025-04-29T13:07:44Z</time>
      </trkpt>
      <trkpt lat="43.427784964442253" lon="-5.871625011786819">
        <ele>146.74000000000001</ele>
        <time>2025-04-29T13:07:50Z</time>
      </trkpt>
      <trkpt lat="43.428215039893985" lon="-5.873062005266547">
        <ele>152.03</ele>
        <time>2025-04-29T13:08:00Z</time>
      </trkpt>
      <trkpt lat="43.428244041278958" lon="-5.873205000534654">
        <ele>151.53999999999999</ele>
        <time>2025-04-29T13:08:01Z</time>
      </trkpt>
      <trkpt lat="43.4282729588449" lon="-5.873352019116283">
        <ele>150.58000000000001</ele>
        <time>2025-04-29T13:08:02Z</time>
      </trkpt>
      <trkpt lat="43.428301960229874" lon="-5.87349702604115">
        <ele>149.62</ele>
        <time>2025-04-29T13:08:03Z</time>
      </trkpt>
      <trkpt lat="43.428331967443228" lon="-5.873643960803747">
        <ele>148.66</ele>
        <time>2025-04-29T13:08:04Z</time>
      </trkpt>
      <trkpt lat="43.42835501767695" lon="-5.873758960515261">
        <ele>147.69999999999999</ele>
        <time>2025-04-29T13:08:05Z</time>
      </trkpt>
      <trkpt lat="43.42842098325491" lon="-5.873916959390044">
        <ele>147.22</ele>
        <time>2025-04-29T13:08:06Z</time>
      </trkpt>
      <trkpt lat="43.428474962711334" lon="-5.874047968536615">
        <ele>146.74000000000001</ele>
        <time>2025-04-29T13:08:07Z</time>
      </trkpt>
      <trkpt lat="43.428531037643552" lon="-5.874181995168328">
        <ele>146.25999999999999</ele>
        <time>2025-04-29T13:08:08Z</time>
      </trkpt>
      <trkpt lat="43.428661040961742" lon="-5.874455999583006">
        <ele>145.78</ele>
        <time>2025-04-29T13:08:10Z</time>
      </trkpt>
      <trkpt lat="43.428729018196464" lon="-5.874593965709209">
        <ele>146.25999999999999</ele>
        <time>2025-04-29T13:08:11Z</time>
      </trkpt>
      <trkpt lat="43.428776040673256" lon="-5.874765962362289">
        <ele>146.74000000000001</ele>
        <time>2025-04-29T13:08:12Z</time>
      </trkpt>
      <trkpt lat="43.429033029824495" lon="-5.87665599770844">
        <ele>150.58000000000001</ele>
        <time>2025-04-29T13:08:21Z</time>
      </trkpt>
      <trkpt lat="43.429206032305956" lon="-5.877313977107406">
        <ele>152.50999999999999</ele>
        <time>2025-04-29T13:08:24Z</time>
      </trkpt>
      <trkpt lat="43.429220030084252" lon="-5.877539031207562">
        <ele>153.47</ele>
        <time>2025-04-29T13:08:25Z</time>
      </trkpt>
      <trkpt lat="43.429228998720646" lon="-5.877771964296699">
        <ele>154.43000000000001</ele>
        <time>2025-04-29T13:08:26Z</time>
      </trkpt>
      <trkpt lat="43.429237967357039" lon="-5.877997018396854">
        <ele>155.38999999999999</ele>
        <time>2025-04-29T13:08:27Z</time>
      </trkpt>
      <trkpt lat="43.429246013984084" lon="-5.878217965364456">
        <ele>156.34999999999999</ele>
        <time>2025-04-29T13:08:28Z</time>
      </trkpt>
      <trkpt lat="43.429253976792097" lon="-5.878435978665948">
        <ele>156.83000000000001</ele>
        <time>2025-04-29T13:08:29Z</time>
      </trkpt>
      <trkpt lat="43.429298987612128" lon="-5.878637982532382">
        <ele>157.78999999999999</ele>
        <time>2025-04-29T13:08:30Z</time>
      </trkpt>
      <trkpt lat="43.429352967068553" lon="-5.878838980570436">
        <ele>158.27000000000001</ele>
        <time>2025-04-29T13:08:31Z</time>
      </trkpt>
      <trkpt lat="43.429407030344009" lon="-5.879037966951728">
        <ele>159.24000000000001</ele>
        <time>2025-04-29T13:08:32Z</time>
      </trkpt>
      <trkpt lat="43.429555976763368" lon="-5.879825027659535">
        <ele>162.12</ele>
        <time>2025-04-29T13:08:36Z</time>
      </trkpt>
      <trkpt lat="43.429828975349665" lon="-5.881329998373985">
        <ele>165</ele>
        <time>2025-04-29T13:08:44Z</time>
      </trkpt>
      <trkpt lat="43.429996026679873" lon="-5.882309004664421">
        <ele>166.93000000000001</ele>
        <time>2025-04-29T13:08:50Z</time>
      </trkpt>
      <trkpt lat="43.429965013638139" lon="-5.882469015195966">
        <ele>167.41</ele>
        <time>2025-04-29T13:08:51Z</time>
      </trkpt>
      <trkpt lat="43.429929977282882" lon="-5.882640006020665">
        <ele>167.88999999999999</ele>
        <time>2025-04-29T13:08:52Z</time>
      </trkpt>
      <trkpt lat="43.429895024746656" lon="-5.882815020158887">
        <ele>168.37</ele>
        <time>2025-04-29T13:08:53Z</time>
      </trkpt>
      <trkpt lat="43.429866023361683" lon="-5.882961032912135">
        <ele>168.84999999999999</ele>
        <time>2025-04-29T13:08:54Z</time>
      </trkpt>
      <trkpt lat="43.429920002818108" lon="-5.883161025121808">
        <ele>169.33000000000001</ele>
        <time>2025-04-29T13:08:55Z</time>
      </trkpt>
      <trkpt lat="43.430027961730957" lon="-5.883221961557865">
        <ele>169.81</ele>
        <time>2025-04-29T13:08:56Z</time>
      </trkpt>
      <trkpt lat="43.430027961730957" lon="-5.883221961557865">
        <ele>170.28999999999999</ele>
        <time>2025-04-29T13:08:57Z</time>
      </trkpt>
      <trkpt lat="43.430107003077865" lon="-5.883307959884405">
        <ele>170.28999999999999</ele>
        <time>2025-04-29T13:08:58Z</time>
      </trkpt>
      <trkpt lat="43.430153019726276" lon="-5.883357999846339">
        <ele>170.77000000000001</ele>
        <time>2025-04-29T13:08:59Z</time>
      </trkpt>
      <trkpt lat="43.430183026939631" lon="-5.883391024544835">
        <ele>171.25</ele>
        <time>2025-04-29T13:09:00Z</time>
      </trkpt>
      <trkpt lat="43.430236000567675" lon="-5.883463025093079">
        <ele>173.16999999999999</ele>
        <time>2025-04-29T13:09:04Z</time>
      </trkpt>
      <trkpt lat="43.430197024717927" lon="-5.883492026478052">
        <ele>173.66</ele>
        <time>2025-04-29T13:09:05Z</time>
      </trkpt>
      <trkpt lat="43.43013902194798" lon="-5.883536031469703">
        <ele>174.62</ele>
        <time>2025-04-29T13:09:06Z</time>
      </trkpt>
      <trkpt lat="43.429564023390412" lon="-5.88402503170073">
        <ele>175.58000000000001</ele>
        <time>2025-04-29T13:09:12Z</time>
      </trkpt>
      <trkpt lat="43.429470984265208" lon="-5.884165009483695">
        <ele>175.09999999999999</ele>
        <time>2025-04-29T13:09:13Z</time>
      </trkpt>
      <trkpt lat="43.429395966231823" lon="-5.884314961731434">
        <ele>175.09999999999999</ele>
        <time>2025-04-29T13:09:14Z</time>
      </trkpt>
      <trkpt lat="43.429343998432159" lon="-5.884475978091359">
        <ele>174.62</ele>
        <time>2025-04-29T13:09:15Z</time>
      </trkpt>
      <trkpt lat="43.429311979562044" lon="-5.884635988622904">
        <ele>174.13999999999999</ele>
        <time>2025-04-29T13:09:16Z</time>
      </trkpt>
      <trkpt lat="43.429284989833832" lon="-5.884794993326068">
        <ele>173.66</ele>
        <time>2025-04-29T13:09:17Z</time>
      </trkpt>
      <trkpt lat="43.429262023419142" lon="-5.88495098054409">
        <ele>173.66</ele>
        <time>2025-04-29T13:09:18Z</time>
      </trkpt>
      <trkpt lat="43.42923897318542" lon="-5.885105961933732">
        <ele>173.16999999999999</ele>
        <time>2025-04-29T13:09:19Z</time>
      </trkpt>
      <trkpt lat="43.429126990959048" lon="-5.886454023420811">
        <ele>166.93000000000001</ele>
        <time>2025-04-29T13:09:27Z</time>
      </trkpt>
      <trkpt lat="43.429084997624159" lon="-5.888039963319898">
        <ele>159.24000000000001</ele>
        <time>2025-04-29T13:09:37Z</time>
      </trkpt>
      <trkpt lat="43.429054990410805" lon="-5.888203997164965">
        <ele>158.27000000000001</ele>
        <time>2025-04-29T13:09:38Z</time>
      </trkpt>
      <trkpt lat="43.42902397736907" lon="-5.888371970504522">
        <ele>157.31</ele>
        <time>2025-04-29T13:09:39Z</time>
      </trkpt>
      <trkpt lat="43.428952982649207" lon="-5.888525024056435">
        <ele>155.87</ele>
        <time>2025-04-29T13:09:40Z</time>
      </trkpt>
      <trkpt lat="43.428873019292951" lon="-5.888682017102838">
        <ele>154.91</ele>
        <time>2025-04-29T13:09:41Z</time>
      </trkpt>
      <trkpt lat="43.428793977946043" lon="-5.888836998492479">
        <ele>153.94999999999999</ele>
        <time>2025-04-29T13:09:42Z</time>
      </trkpt>
      <trkpt lat="43.428426012396812" lon="-5.889666974544525">
        <ele>148.18000000000001</ele>
        <time>2025-04-29T13:09:48Z</time>
      </trkpt>
      <trkpt lat="43.428413020446897" lon="-5.889811981469393">
        <ele>147.69999999999999</ele>
        <time>2025-04-29T13:09:49Z</time>
      </trkpt>
      <trkpt lat="43.428403967991471" lon="-5.889979032799602">
        <ele>147.22</ele>
        <time>2025-04-29T13:09:50Z</time>
      </trkpt>
      <trkpt lat="43.428400028496981" lon="-5.890155974775553">
        <ele>146.74000000000001</ele>
        <time>2025-04-29T13:09:51Z</time>
      </trkpt>
      <trkpt lat="43.428405979648232" lon="-5.890348004177213">
        <ele>146.74000000000001</ele>
        <time>2025-04-29T13:09:52Z</time>
      </trkpt>
      <trkpt lat="43.428561966866255" lon="-5.89283499866724">
        <ele>147.22</ele>
        <time>2025-04-29T13:10:04Z</time>
      </trkpt>
      <trkpt lat="43.428623992949724" lon="-5.894422028213739">
        <ele>153.47</ele>
        <time>2025-04-29T13:10:11Z</time>
      </trkpt>
      <trkpt lat="43.428611000999808" lon="-5.894651021808386">
        <ele>154.43000000000001</ele>
        <time>2025-04-29T13:10:12Z</time>
      </trkpt>
      <trkpt lat="43.428497007116675" lon="-5.895893974229693">
        <ele>159.72</ele>
        <time>2025-04-29T13:10:19Z</time>
      </trkpt>
      <trkpt lat="43.428493989631534" lon="-5.896404013037682">
        <ele>159.72</ele>
        <time>2025-04-29T13:10:22Z</time>
      </trkpt>
      <trkpt lat="43.428515028208494" lon="-5.896581038832665">
        <ele>159.72</ele>
        <time>2025-04-29T13:10:23Z</time>
      </trkpt>
      <trkpt lat="43.428551992401481" lon="-5.896752029657364">
        <ele>159.24000000000001</ele>
        <time>2025-04-29T13:10:24Z</time>
      </trkpt>
      <trkpt lat="43.428604966029525" lon="-5.896912962198257">
        <ele>158.75</ele>
        <time>2025-04-29T13:10:25Z</time>
      </trkpt>
      <trkpt lat="43.428655005991459" lon="-5.897061992436647">
        <ele>158.27000000000001</ele>
        <time>2025-04-29T13:10:26Z</time>
      </trkpt>
      <trkpt lat="43.428742010146379" lon="-5.897199036553502">
        <ele>157.78999999999999</ele>
        <time>2025-04-29T13:10:27Z</time>
      </trkpt>
      <trkpt lat="43.428830020129681" lon="-5.897339014336467">
        <ele>157.31</ele>
        <time>2025-04-29T13:10:28Z</time>
      </trkpt>
      <trkpt lat="43.429652033373713" lon="-5.898831998929381">
        <ele>149.62</ele>
        <time>2025-04-29T13:10:38Z</time>
      </trkpt>
      <trkpt lat="43.430531965568662" lon="-5.900191040709615">
        <ele>148.66</ele>
        <time>2025-04-29T13:10:48Z</time>
      </trkpt>
      <trkpt lat="43.430608995258808" lon="-5.900330012664199">
        <ele>149.13999999999999</ele>
        <time>2025-04-29T13:10:49Z</time>
      </trkpt>
      <trkpt lat="43.430642019957304" lon="-5.900503015145659">
        <ele>149.62</ele>
        <time>2025-04-29T13:10:50Z</time>
      </trkpt>
      <trkpt lat="43.430659035220742" lon="-5.900673000141978">
        <ele>149.62</ele>
        <time>2025-04-29T13:10:51Z</time>
      </trkpt>
      <trkpt lat="43.430674960836768" lon="-5.900837033987045">
        <ele>149.62</ele>
        <time>2025-04-29T13:10:52Z</time>
      </trkpt>
      <trkpt lat="43.430689964443445" lon="-5.900996960699558">
        <ele>149.62</ele>
        <time>2025-04-29T13:10:53Z</time>
      </trkpt>
      <trkpt lat="43.430672027170658" lon="-5.901159988716245">
        <ele>149.62</ele>
        <time>2025-04-29T13:10:54Z</time>
      </trkpt>
      <trkpt lat="43.430622993037105" lon="-5.901336008682847">
        <ele>149.13999999999999</ele>
        <time>2025-04-29T13:10:55Z</time>
      </trkpt>
      <trkpt lat="43.43056901358068" lon="-5.901528038084507">
        <ele>149.13999999999999</ele>
        <time>2025-04-29T13:10:56Z</time>
      </trkpt>
      <trkpt lat="43.430337002500892" lon="-5.902433032169938">
        <ele>146.74000000000001</ele>
        <time>2025-04-29T13:11:01Z</time>
      </trkpt>
      <trkpt lat="43.430306995287538" lon="-5.902640987187624">
        <ele>146.25999999999999</ele>
        <time>2025-04-29T13:11:02Z</time>
      </trkpt>
      <trkpt lat="43.430277993902564" lon="-5.902985986322165">
        <ele>145.78</ele>
        <time>2025-04-29T13:11:04Z</time>
      </trkpt>
      <trkpt lat="43.430261984467506" lon="-5.903174998238683">
        <ele>145.30000000000001</ele>
        <time>2025-04-29T13:11:05Z</time>
      </trkpt>
      <trkpt lat="43.430243041366339" lon="-5.903392005711794">
        <ele>144.81999999999999</ele>
        <time>2025-04-29T13:11:06Z</time>
      </trkpt>
      <trkpt lat="43.430179003626108" lon="-5.903714038431644">
        <ele>144.34</ele>
        <time>2025-04-29T13:11:08Z</time>
      </trkpt>
      <trkpt lat="43.430102979764342" lon="-5.903864996507764">
        <ele>143.84999999999999</ele>
        <time>2025-04-29T13:11:09Z</time>
      </trkpt>
      <trkpt lat="43.430029973387718" lon="-5.903996005654335">
        <ele>143.84999999999999</ele>
        <time>2025-04-29T13:11:10Z</time>
      </trkpt>
      <trkpt lat="43.429938023909926" lon="-5.904122991487384">
        <ele>143.84999999999999</ele>
        <time>2025-04-29T13:11:11Z</time>
      </trkpt>
      <trkpt lat="43.429856970906258" lon="-5.904261963441968">
        <ele>144.34</ele>
        <time>2025-04-29T13:11:12Z</time>
      </trkpt>
      <trkpt lat="43.42977499589324" lon="-5.904403030872345">
        <ele>144.34</ele>
        <time>2025-04-29T13:11:13Z</time>
      </trkpt>
      <trkpt lat="43.429692015051842" lon="-5.904545020312071">
        <ele>144.34</ele>
        <time>2025-04-29T13:11:14Z</time>
      </trkpt>
      <trkpt lat="43.429641975089908" lon="-5.904722968116403">
        <ele>144.81999999999999</ele>
        <time>2025-04-29T13:11:15Z</time>
      </trkpt>
      <trkpt lat="43.429607022553682" lon="-5.904913991689682">
        <ele>144.34</ele>
        <time>2025-04-29T13:11:16Z</time>
      </trkpt>
      <trkpt lat="43.429561005905271" lon="-5.905109960585833">
        <ele>144.34</ele>
        <time>2025-04-29T13:11:17Z</time>
      </trkpt>
      <trkpt lat="43.429132020100951" lon="-5.906892959028482">
        <ele>143.37</ele>
        <time>2025-04-29T13:11:27Z</time>
      </trkpt>
      <trkpt lat="43.42906697653234" lon="-5.907031008973718">
        <ele>142.88999999999999</ele>
        <time>2025-04-29T13:11:28Z</time>
      </trkpt>
      <trkpt lat="43.428969997912645" lon="-5.907093035057187">
        <ele>142.41</ele>
        <time>2025-04-29T13:11:29Z</time>
      </trkpt>
      <trkpt lat="43.428868995979428" lon="-5.90712396427989">
        <ele>141.93000000000001</ele>
        <time>2025-04-29T13:11:30Z</time>
      </trkpt>
      <trkpt lat="43.428739998489618" lon="-5.90712103061378">
        <ele>141.44999999999999</ele>
        <time>2025-04-29T13:11:31Z</time>
      </trkpt>
      <trkpt lat="43.428605971857905" lon="-5.907117007300258">
        <ele>140.97</ele>
        <time>2025-04-29T13:11:32Z</time>
      </trkpt>
      <trkpt lat="43.428474040701985" lon="-5.907112983986735">
        <ele>140.49000000000001</ele>
        <time>2025-04-29T13:11:33Z</time>
      </trkpt>
      <trkpt lat="43.428336996585131" lon="-5.907108960673213">
        <ele>140.49000000000001</ele>
        <time>2025-04-29T13:11:34Z</time>
      </trkpt>
      <trkpt lat="43.428188972175121" lon="-5.907105021178722">
        <ele>140.00999999999999</ele>
        <time>2025-04-29T13:11:35Z</time>
      </trkpt>
      <trkpt lat="43.428038014099002" lon="-5.907191019505262">
        <ele>140.00999999999999</ele>
        <time>2025-04-29T13:11:36Z</time>
      </trkpt>
      <trkpt lat="43.427888983860612" lon="-5.907280035316944">
        <ele>140.49000000000001</ele>
        <time>2025-04-29T13:11:37Z</time>
      </trkpt>
      <trkpt lat="43.427741965278983" lon="-5.907368967309594">
        <ele>140.97</ele>
        <time>2025-04-29T13:11:38Z</time>
      </trkpt>
      <trkpt lat="43.427056996151805" lon="-5.907726036384702">
        <ele>143.84999999999999</ele>
        <time>2025-04-29T13:11:43Z</time>
      </trkpt>
      <trkpt lat="43.426934033632278" lon="-5.907838018611074">
        <ele>143.84999999999999</ele>
        <time>2025-04-29T13:11:44Z</time>
      </trkpt>
      <trkpt lat="43.426566990092397" lon="-5.908210007473826">
        <ele>144.81999999999999</ele>
        <time>2025-04-29T13:11:47Z</time>
      </trkpt>
      <trkpt lat="43.426432963460684" lon="-5.908262981101871">
        <ele>145.30000000000001</ele>
        <time>2025-04-29T13:11:48Z</time>
      </trkpt>
      <trkpt lat="43.426316035911441" lon="-5.908254012465477">
        <ele>145.30000000000001</ele>
        <time>2025-04-29T13:11:49Z</time>
      </trkpt>
      <trkpt lat="43.426189972087741" lon="-5.908195003867149">
        <ele>146.25999999999999</ele>
        <time>2025-04-29T13:11:50Z</time>
      </trkpt>
      <trkpt lat="43.42605602927506" lon="-5.90813297778368">
        <ele>146.74000000000001</ele>
        <time>2025-04-29T13:11:51Z</time>
      </trkpt>
      <trkpt lat="43.425919990986586" lon="-5.908069023862481">
        <ele>147.22</ele>
        <time>2025-04-29T13:11:52Z</time>
      </trkpt>
      <trkpt lat="43.42566903680563" lon="-5.907975984737277">
        <ele>148.18000000000001</ele>
        <time>2025-04-29T13:11:54Z</time>
      </trkpt>
      <trkpt lat="43.42554297298193" lon="-5.907962992787361">
        <ele>149.62</ele>
        <time>2025-04-29T13:11:55Z</time>
      </trkpt>
      <trkpt lat="43.42541104182601" lon="-5.907997023314238">
        <ele>150.58000000000001</ele>
        <time>2025-04-29T13:11:56Z</time>
      </trkpt>
      <trkpt lat="43.424590034410357" lon="-5.908244960010052">
        <ele>159.24000000000001</ele>
        <time>2025-04-29T13:12:03Z</time>
      </trkpt>
      <trkpt lat="43.424001960083842" lon="-5.908472025766969">
        <ele>165.47999999999999</ele>
        <time>2025-04-29T13:12:09Z</time>
      </trkpt>
      <trkpt lat="43.423912022262812" lon="-5.908558024093509">
        <ele>166.44999999999999</ele>
        <time>2025-04-29T13:12:10Z</time>
      </trkpt>
      <trkpt lat="43.423857036978006" lon="-5.908678974956274">
        <ele>167.41</ele>
        <time>2025-04-29T13:12:11Z</time>
      </trkpt>
      <trkpt lat="43.423822000622749" lon="-5.908811995759606">
        <ele>168.37</ele>
        <time>2025-04-29T13:12:12Z</time>
      </trkpt>
      <trkpt lat="43.423783024773002" lon="-5.908957002684474">
        <ele>169.81</ele>
        <time>2025-04-29T13:12:13Z</time>
      </trkpt>
      <trkpt lat="43.423762992024422" lon="-5.909136962145567">
        <ele>170.77000000000001</ele>
        <time>2025-04-29T13:12:14Z</time>
      </trkpt>
      <trkpt lat="43.423814037814736" lon="-5.909815980121493">
        <ele>173.66</ele>
        <time>2025-04-29T13:12:18Z</time>
      </trkpt>
      <trkpt lat="43.423896012827754" lon="-5.909945983439684">
        <ele>174.62</ele>
        <time>2025-04-29T13:12:19Z</time>
      </trkpt>
      <trkpt lat="43.42399600893259" lon="-5.910056959837675">
        <ele>175.58000000000001</ele>
        <time>2025-04-29T13:12:20Z</time>
      </trkpt>
      <trkpt lat="43.424433963373303" lon="-5.910545960068703">
        <ele>178.94</ele>
        <time>2025-04-29T13:12:24Z</time>
      </trkpt>
      <trkpt lat="43.424544017761946" lon="-5.91066800057888">
        <ele>179.90000000000001</ele>
        <time>2025-04-29T13:12:25Z</time>
      </trkpt>
      <trkpt lat="43.42461702413857" lon="-5.910830022767186">
        <ele>180.87</ele>
        <time>2025-04-29T13:12:26Z</time>
      </trkpt>
      <trkpt lat="43.424651976674795" lon="-5.911024985834956">
        <ele>182.31</ele>
        <time>2025-04-29T13:12:27Z</time>
      </trkpt>
      <trkpt lat="43.42466102913022" lon="-5.911232018843293">
        <ele>184.22999999999999</ele>
        <time>2025-04-29T13:12:28Z</time>
      </trkpt>
      <trkpt lat="43.424657005816698" lon="-5.911447014659643">
        <ele>185.66999999999999</ele>
        <time>2025-04-29T13:12:29Z</time>
      </trkpt>
      <trkpt lat="43.424652982503176" lon="-5.911672990769148">
        <ele>187.11000000000001</ele>
        <time>2025-04-29T13:12:30Z</time>
      </trkpt>
      <trkpt lat="43.424601014703512" lon="-5.912304986268282">
        <ele>191.91999999999999</ele>
        <time>2025-04-29T13:12:33Z</time>
      </trkpt>
      <trkpt lat="43.424529014155269" lon="-5.91245099902153">
        <ele>193.36000000000001</ele>
        <time>2025-04-29T13:12:34Z</time>
      </trkpt>
      <trkpt lat="43.424433041363955" lon="-5.912538003176451">
        <ele>195.28</ele>
        <time>2025-04-29T13:12:35Z</time>
      </trkpt>
      <trkpt lat="43.424235982820392" lon="-5.912731038406491">
        <ele>198.16999999999999</ele>
        <time>2025-04-29T13:12:37Z</time>
      </trkpt>
      <trkpt lat="43.424129029735923" lon="-5.912846038118005">
        <ele>199.61000000000001</ele>
        <time>2025-04-29T13:12:38Z</time>
      </trkpt>
      <trkpt lat="43.424019981175661" lon="-5.912973023951054">
        <ele>201.05000000000001</ele>
        <time>2025-04-29T13:12:39Z</time>
      </trkpt>
      <trkpt lat="43.423813031986356" lon="-5.91328801587224">
        <ele>204.90000000000001</ele>
        <time>2025-04-29T13:12:41Z</time>
      </trkpt>
      <trkpt lat="43.423703983426094" lon="-5.91345900669694">
        <ele>206.34</ele>
        <time>2025-04-29T13:12:42Z</time>
      </trkpt>
      <trkpt lat="43.42328698374331" lon="-5.914270039647818">
        <ele>214.99000000000001</ele>
        <time>2025-04-29T13:12:46Z</time>
      </trkpt>
      <trkpt lat="43.423197967931628" lon="-5.914485035464168">
        <ele>216.91</ele>
        <time>2025-04-29T13:12:47Z</time>
      </trkpt>
      <trkpt lat="43.422893034294248" lon="-5.915474016219378">
        <ele>227.97</ele>
        <time>2025-04-29T13:12:53Z</time>
      </trkpt>
      <trkpt lat="43.422451978549361" lon="-5.917200017720461">
        <ele>241.91</ele>
        <time>2025-04-29T13:13:05Z</time>
      </trkpt>
      <trkpt lat="43.421961972489953" lon="-5.91878897510469">
        <ele>246.72</ele>
        <time>2025-04-29T13:13:16Z</time>
      </trkpt>
      <trkpt lat="43.421292006969452" lon="-5.920583959668875">
        <ele>247.19999999999999</ele>
        <time>2025-04-29T13:13:27Z</time>
      </trkpt>
      <trkpt lat="43.421228975057602" lon="-5.920768026262522">
        <ele>247.19999999999999</ele>
        <time>2025-04-29T13:13:28Z</time>
      </trkpt>
      <trkpt lat="43.421163009479642" lon="-5.92095703817904">
        <ele>247.19999999999999</ele>
        <time>2025-04-29T13:13:29Z</time>
      </trkpt>
      <trkpt lat="43.42111598700285" lon="-5.921161975711584">
        <ele>247.68000000000001</ele>
        <time>2025-04-29T13:13:30Z</time>
      </trkpt>
      <trkpt lat="43.421097965911031" lon="-5.921368002891541">
        <ele>247.68000000000001</ele>
        <time>2025-04-29T13:13:31Z</time>
      </trkpt>
      <trkpt lat="43.421081034466624" lon="-5.921556008979678">
        <ele>247.68000000000001</ele>
        <time>2025-04-29T13:13:32Z</time>
      </trkpt>
      <trkpt lat="43.421027977019548" lon="-5.921907965093851">
        <ele>247.19999999999999</ele>
        <time>2025-04-29T13:13:34Z</time>
      </trkpt>
      <trkpt lat="43.420976009219885" lon="-5.922087002545595">
        <ele>246.72</ele>
        <time>2025-04-29T13:13:35Z</time>
      </trkpt>
      <trkpt lat="43.420737963169813" lon="-5.922825029119849">
        <ele>244.78999999999999</ele>
        <time>2025-04-29T13:13:39Z</time>
      </trkpt>
      <trkpt lat="43.420708039775491" lon="-5.923014963045716">
        <ele>244.31</ele>
        <time>2025-04-29T13:13:40Z</time>
      </trkpt>
      <trkpt lat="43.420696975663304" lon="-5.923202969133854">
        <ele>243.83000000000001</ele>
        <time>2025-04-29T13:13:41Z</time>
      </trkpt>
      <trkpt lat="43.420693958178163" lon="-5.923391981050372">
        <ele>243.34999999999999</ele>
        <time>2025-04-29T13:13:42Z</time>
      </trkpt>
      <trkpt lat="43.420693958178163" lon="-5.923584010452032">
        <ele>242.87</ele>
        <time>2025-04-29T13:13:43Z</time>
      </trkpt>
      <trkpt lat="43.420679038390517" lon="-5.924527980387211">
        <ele>239.99000000000001</ele>
        <time>2025-04-29T13:13:48Z</time>
      </trkpt>
      <trkpt lat="43.420657999813557" lon="-5.924709029495716">
        <ele>239.50999999999999</ele>
        <time>2025-04-29T13:13:49Z</time>
      </trkpt>
      <trkpt lat="43.42062103562057" lon="-5.924885971471667">
        <ele>239.02000000000001</ele>
        <time>2025-04-29T13:13:50Z</time>
      </trkpt>
      <trkpt lat="43.42053696513176" lon="-5.925400033593178">
        <ele>237.58000000000001</ele>
        <time>2025-04-29T13:13:53Z</time>
      </trkpt>
      <trkpt lat="43.420531013980508" lon="-5.925564989447594">
        <ele>237.09999999999999</ele>
        <time>2025-04-29T13:13:54Z</time>
      </trkpt>
      <trkpt lat="43.420525984838605" lon="-5.925732962787151">
        <ele>237.09999999999999</ele>
        <time>2025-04-29T13:13:55Z</time>
      </trkpt>
      <trkpt lat="43.420507041737437" lon="-5.925912000238895">
        <ele>236.62</ele>
        <time>2025-04-29T13:13:56Z</time>
      </trkpt>
      <trkpt lat="43.420479968190193" lon="-5.926073016598821">
        <ele>236.13999999999999</ele>
        <time>2025-04-29T13:13:57Z</time>
      </trkpt>
      <trkpt lat="43.420424982905388" lon="-5.926267979666591">
        <ele>235.18000000000001</ele>
        <time>2025-04-29T13:13:58Z</time>
      </trkpt>
      <trkpt lat="43.420374020934105" lon="-5.926451040431857">
        <ele>233.74000000000001</ele>
        <time>2025-04-29T13:13:59Z</time>
      </trkpt>
      <trkpt lat="43.420314006507397" lon="-5.926643991842866">
        <ele>232.78</ele>
        <time>2025-04-29T13:14:00Z</time>
      </trkpt>
      <trkpt lat="43.420231025665998" lon="-5.926827974617481">
        <ele>231.81</ele>
        <time>2025-04-29T13:14:01Z</time>
      </trkpt>
      <trkpt lat="43.420148966833949" lon="-5.927011035382748">
        <ele>230.37</ele>
        <time>2025-04-29T13:14:02Z</time>
      </trkpt>
      <trkpt lat="43.420015024021268" lon="-5.927372965961695">
        <ele>227.97</ele>
        <time>2025-04-29T13:14:04Z</time>
      </trkpt>
      <trkpt lat="43.419970013201237" lon="-5.927539011463523">
        <ele>227.00999999999999</ele>
        <time>2025-04-29T13:14:05Z</time>
      </trkpt>
      <trkpt lat="43.419994991272688" lon="-5.927690975368023">
        <ele>227.00999999999999</ele>
        <time>2025-04-29T13:14:06Z</time>
      </trkpt>
      <trkpt lat="43.420050982385874" lon="-5.928024994209409">
        <ele>227.00999999999999</ele>
        <time>2025-04-29T13:14:08Z</time>
      </trkpt>
      <trkpt lat="43.420040002092719" lon="-5.928191961720586">
        <ele>227.49000000000001</ele>
        <time>2025-04-29T13:14:09Z</time>
      </trkpt>
      <trkpt lat="43.420016029849648" lon="-5.928379967808723">
        <ele>228.44999999999999</ele>
        <time>2025-04-29T13:14:10Z</time>
      </trkpt>
      <trkpt lat="43.419952997937799" lon="-5.928539978340268">
        <ele>229.41</ele>
        <time>2025-04-29T13:14:11Z</time>
      </trkpt>
      <trkpt lat="43.419888960197568" lon="-5.928703006356955">
        <ele>229.88999999999999</ele>
        <time>2025-04-29T13:14:12Z</time>
      </trkpt>
      <trkpt lat="43.419820982962847" lon="-5.928872991353273">
        <ele>230.84999999999999</ele>
        <time>2025-04-29T13:14:13Z</time>
      </trkpt>
      <trkpt lat="43.419754011556506" lon="-5.929043982177973">
        <ele>231.33000000000001</ele>
        <time>2025-04-29T13:14:14Z</time>
      </trkpt>
      <trkpt lat="43.419645968824625" lon="-5.929369032382965">
        <ele>231.81</ele>
        <time>2025-04-29T13:14:16Z</time>
      </trkpt>
      <trkpt lat="43.419613027945161" lon="-5.929540023207665">
        <ele>231.81</ele>
        <time>2025-04-29T13:14:17Z</time>
      </trkpt>
      <trkpt lat="43.419580003246665" lon="-5.929715959355235">
        <ele>232.30000000000001</ele>
        <time>2025-04-29T13:14:18Z</time>
      </trkpt>
      <trkpt lat="43.419252019375563" lon="-5.931210033595562">
        <ele>228.44999999999999</ele>
        <time>2025-04-29T13:14:26Z</time>
      </trkpt>
      <trkpt lat="43.419185969978571" lon="-5.931388987228274">
        <ele>227.49000000000001</ele>
        <time>2025-04-29T13:14:27Z</time>
      </trkpt>
      <trkpt lat="43.418392036110163" lon="-5.933103002607822">
        <ele>217.40000000000001</ele>
        <time>2025-04-29T13:14:38Z</time>
      </trkpt>
      <trkpt lat="43.418266978114843" lon="-5.933408020064235">
        <ele>214.99000000000001</ele>
        <time>2025-04-29T13:14:43Z</time>
      </trkpt>
      <trkpt lat="43.418247029185295" lon="-5.933454036712647">
        <ele>214.99000000000001</ele>
        <time>2025-04-29T13:14:44Z</time>
      </trkpt>
      <trkpt lat="43.418185003101826" lon="-5.93344297260046">
        <ele>214.50999999999999</ele>
        <time>2025-04-29T13:14:45Z</time>
      </trkpt>
      <trkpt lat="43.418110990896821" lon="-5.933429980650544">
        <ele>214.50999999999999</ele>
        <time>2025-04-29T13:14:46Z</time>
      </trkpt>
      <trkpt lat="43.418024992570281" lon="-5.933414977043867">
        <ele>214.03</ele>
        <time>2025-04-29T13:14:47Z</time>
      </trkpt>
      <trkpt lat="43.417928013950586" lon="-5.933397961780429">
        <ele>213.55000000000001</ele>
        <time>2025-04-29T13:14:48Z</time>
      </trkpt>
      <trkpt lat="43.417812008410692" lon="-5.933412965387106">
        <ele>213.06999999999999</ele>
        <time>2025-04-29T13:14:49Z</time>
      </trkpt>
      <trkpt lat="43.417694997042418" lon="-5.933452025055885">
        <ele>212.59</ele>
        <time>2025-04-29T13:14:50Z</time>
      </trkpt>
      <trkpt lat="43.41757002286613" lon="-5.933494018390775">
        <ele>212.59</ele>
        <time>2025-04-29T13:14:51Z</time>
      </trkpt>
      <trkpt lat="43.417440019547939" lon="-5.933546992018819">
        <ele>212.59</ele>
        <time>2025-04-29T13:14:52Z</time>
      </trkpt>
      <trkpt lat="43.416879018768668" lon="-5.933766011148691">
        <ele>211.63</ele>
        <time>2025-04-29T13:14:56Z</time>
      </trkpt>
      <trkpt lat="43.416735017672181" lon="-5.933799035847187">
        <ele>211.15000000000001</ele>
        <time>2025-04-29T13:14:57Z</time>
      </trkpt>
      <trkpt lat="43.415867993608117" lon="-5.933854021131992">
        <ele>207.78</ele>
        <time>2025-04-29T13:15:03Z</time>
      </trkpt>
      <trkpt lat="43.415751988068223" lon="-5.933917975053191">
        <ele>207.30000000000001</ele>
        <time>2025-04-29T13:15:04Z</time>
      </trkpt>
      <trkpt lat="43.415009016171098" lon="-5.934438994154334">
        <ele>204.41999999999999</ele>
        <time>2025-04-29T13:15:10Z</time>
      </trkpt>
      <trkpt lat="43.414874989539385" lon="-5.934554999694228">
        <ele>203.94</ele>
        <time>2025-04-29T13:15:11Z</time>
      </trkpt>
      <trkpt lat="43.414779016748071" lon="-5.934724984690547">
        <ele>203.94</ele>
        <time>2025-04-29T13:15:12Z</time>
      </trkpt>
      <trkpt lat="43.414687989279628" lon="-5.934903016313911">
        <ele>203.46000000000001</ele>
        <time>2025-04-29T13:15:13Z</time>
      </trkpt>
      <trkpt lat="43.414598973467946" lon="-5.935078030452132">
        <ele>202.97999999999999</ele>
        <time>2025-04-29T13:15:14Z</time>
      </trkpt>
      <trkpt lat="43.414161019027233" lon="-5.935968020930886">
        <ele>199.61000000000001</ele>
        <time>2025-04-29T13:15:20Z</time>
      </trkpt>
      <trkpt lat="43.414115002378821" lon="-5.936067011207342">
        <ele>199.13</ele>
        <time>2025-04-29T13:15:21Z</time>
      </trkpt>
      <trkpt lat="43.414087006822228" lon="-5.936233978718519">
        <ele>199.13</ele>
        <time>2025-04-29T13:15:22Z</time>
      </trkpt>
      <trkpt lat="43.414130005985498" lon="-5.936337998136878">
        <ele>198.65000000000001</ele>
        <time>2025-04-29T13:15:23Z</time>
      </trkpt>
      <trkpt lat="43.414181973785162" lon="-5.936463978141546">
        <ele>197.69</ele>
        <time>2025-04-29T13:15:24Z</time>
      </trkpt>
      <trkpt lat="43.414239976555109" lon="-5.936604039743543">
        <ele>197.21000000000001</ele>
        <time>2025-04-29T13:15:25Z</time>
      </trkpt>
      <trkpt lat="43.414300996810198" lon="-5.93675198033452">
        <ele>197.21000000000001</ele>
        <time>2025-04-29T13:15:26Z</time>
      </trkpt>
      <trkpt lat="43.414299990981817" lon="-5.936951972544193">
        <ele>196.72999999999999</ele>
        <time>2025-04-29T13:15:27Z</time>
      </trkpt>
      <trkpt lat="43.41428398154676" lon="-5.937154982239008">
        <ele>196.72999999999999</ele>
        <time>2025-04-29T13:15:28Z</time>
      </trkpt>
      <trkpt lat="43.414266966283321" lon="-5.937366960570216">
        <ele>197.21000000000001</ele>
        <time>2025-04-29T13:15:29Z</time>
      </trkpt>
      <trkpt lat="43.414192032068968" lon="-5.938309002667666">
        <ele>197.69</ele>
        <time>2025-04-29T13:15:34Z</time>
      </trkpt>
      <trkpt lat="43.414160013198853" lon="-5.938486028462648">
        <ele>198.16999999999999</ele>
        <time>2025-04-29T13:15:35Z</time>
      </trkpt>
      <trkpt lat="43.414078038185835" lon="-5.938658025115728">
        <ele>198.65000000000001</ele>
        <time>2025-04-29T13:15:36Z</time>
      </trkpt>
      <trkpt lat="43.413984999060631" lon="-5.938808983191848">
        <ele>198.65000000000001</ele>
        <time>2025-04-29T13:15:37Z</time>
      </trkpt>
      <trkpt lat="43.413890032097697" lon="-5.938967987895012">
        <ele>198.65000000000001</ele>
        <time>2025-04-29T13:15:38Z</time>
      </trkpt>
      <trkpt lat="43.413615021854639" lon="-5.939460005611181">
        <ele>198.16999999999999</ele>
        <time>2025-04-29T13:15:41Z</time>
      </trkpt>
      <trkpt lat="43.413523994386196" lon="-5.939839035272598">
        <ele>197.69</ele>
        <time>2025-04-29T13:15:43Z</time>
      </trkpt>
      <trkpt lat="43.413142031058669" lon="-5.941450037062168">
        <ele>191.91999999999999</ele>
        <time>2025-04-29T13:15:51Z</time>
      </trkpt>
      <trkpt lat="43.413134990260005" lon="-5.94164801761508">
        <ele>190.47999999999999</ele>
        <time>2025-04-29T13:15:52Z</time>
      </trkpt>
      <trkpt lat="43.413162985816598" lon="-5.941843986511231">
        <ele>189.03999999999999</ele>
        <time>2025-04-29T13:15:53Z</time>
      </trkpt>
      <trkpt lat="43.41323297470808" lon="-5.941987987607718">
        <ele>187.59</ele>
        <time>2025-04-29T13:15:54Z</time>
      </trkpt>
      <trkpt lat="43.41331603936851" lon="-5.942160990089178">
        <ele>186.15000000000001</ele>
        <time>2025-04-29T13:15:55Z</time>
      </trkpt>
      <trkpt lat="43.41340396553278" lon="-5.942341033369303">
        <ele>184.71000000000001</ele>
        <time>2025-04-29T13:15:56Z</time>
      </trkpt>
      <trkpt lat="43.413495998829603" lon="-5.94253096729517">
        <ele>182.78999999999999</ele>
        <time>2025-04-29T13:15:57Z</time>
      </trkpt>
      <trkpt lat="43.413525000214577" lon="-5.942747974768281">
        <ele>180.87</ele>
        <time>2025-04-29T13:15:58Z</time>
      </trkpt>
      <trkpt lat="43.413548972457647" lon="-5.942992977797985">
        <ele>179.41999999999999</ele>
        <time>2025-04-29T13:15:59Z</time>
      </trkpt>
      <trkpt lat="43.413575040176511" lon="-5.943250972777605">
        <ele>177.5</ele>
        <time>2025-04-29T13:16:00Z</time>
      </trkpt>
      <trkpt lat="43.413521982729435" lon="-5.945227006450295">
        <ele>166.93000000000001</ele>
        <time>2025-04-29T13:16:07Z</time>
      </trkpt>
      <trkpt lat="43.413250995799899" lon="-5.947602018713951">
        <ele>156.83000000000001</ele>
        <time>2025-04-29T13:16:15Z</time>
      </trkpt>
      <trkpt lat="43.41318997554481" lon="-5.947863031178713">
        <ele>155.87</ele>
        <time>2025-04-29T13:16:16Z</time>
      </trkpt>
      <trkpt lat="43.413085034117103" lon="-5.948080038651824">
        <ele>154.43000000000001</ele>
        <time>2025-04-29T13:16:17Z</time>
      </trkpt>
      <trkpt lat="43.412975985556841" lon="-5.948306014761329">
        <ele>153.47</ele>
        <time>2025-04-29T13:16:18Z</time>
      </trkpt>
      <trkpt lat="43.412868026643991" lon="-5.948528973385692">
        <ele>152.03</ele>
        <time>2025-04-29T13:16:19Z</time>
      </trkpt>
      <trkpt lat="43.412665016949177" lon="-5.948948990553618">
        <ele>149.62</ele>
        <time>2025-04-29T13:16:21Z</time>
      </trkpt>
      <trkpt lat="43.412578012794256" lon="-5.949155017733574">
        <ele>148.66</ele>
        <time>2025-04-29T13:16:22Z</time>
      </trkpt>
      <trkpt lat="43.412548005580902" lon="-5.949377976357937">
        <ele>147.69999999999999</ele>
        <time>2025-04-29T13:16:23Z</time>
      </trkpt>
      <trkpt lat="43.41252202168107" lon="-5.949611999094486">
        <ele>146.74000000000001</ele>
        <time>2025-04-29T13:16:24Z</time>
      </trkpt>
      <trkpt lat="43.412555968388915" lon="-5.949838981032372">
        <ele>145.78</ele>
        <time>2025-04-29T13:16:25Z</time>
      </trkpt>
      <trkpt lat="43.412593016400933" lon="-5.950082978233695">
        <ele>144.81999999999999</ele>
        <time>2025-04-29T13:16:26Z</time>
      </trkpt>
      <trkpt lat="43.41262998059392" lon="-5.950332004576922">
        <ele>144.34</ele>
        <time>2025-04-29T13:16:27Z</time>
      </trkpt>
      <trkpt lat="43.413356021046638" lon="-5.952572990208864">
        <ele>136.63999999999999</ele>
        <time>2025-04-29T13:16:36Z</time>
      </trkpt>
      <trkpt lat="43.413677969947457" lon="-5.954010989516974">
        <ele>134.24000000000001</ele>
        <time>2025-04-29T13:16:42Z</time>
      </trkpt>
      <trkpt lat="43.413641005754471" lon="-5.954232020303607">
        <ele>133.75999999999999</ele>
        <time>2025-04-29T13:16:43Z</time>
      </trkpt>
      <trkpt lat="43.413607981055975" lon="-5.954426983371377">
        <ele>133.28</ele>
        <time>2025-04-29T13:16:44Z</time>
      </trkpt>
      <trkpt lat="43.413181006908417" lon="-5.955515960231423">
        <ele>130.88</ele>
        <time>2025-04-29T13:16:49Z</time>
      </trkpt>
      <trkpt lat="43.41314597055316" lon="-5.955780996009708">
        <ele>130.40000000000001</ele>
        <time>2025-04-29T13:16:50Z</time>
      </trkpt>
      <trkpt lat="43.413104983046651" lon="-5.956274019554257">
        <ele>129.43000000000001</ele>
        <time>2025-04-29T13:16:52Z</time>
      </trkpt>
      <trkpt lat="43.413042034953833" lon="-5.956477029249072">
        <ele>128.94999999999999</ele>
        <time>2025-04-29T13:16:53Z</time>
      </trkpt>
      <trkpt lat="43.412950001657009" lon="-5.956636033952236">
        <ele>128.47</ele>
        <time>2025-04-29T13:16:54Z</time>
      </trkpt>
      <trkpt lat="43.412846988067031" lon="-5.956791015341878">
        <ele>128.47</ele>
        <time>2025-04-29T13:16:55Z</time>
      </trkpt>
      <trkpt lat="43.412755038589239" lon="-5.956928981468082">
        <ele>128.47</ele>
        <time>2025-04-29T13:16:56Z</time>
      </trkpt>
      <trkpt lat="43.412584969773889" lon="-5.95705596730113">
        <ele>128.47</ele>
        <time>2025-04-29T13:16:57Z</time>
      </trkpt>
      <trkpt lat="43.412438035011292" lon="-5.957167027518153">
        <ele>128.94999999999999</ele>
        <time>2025-04-29T13:16:58Z</time>
      </trkpt>
      <trkpt lat="43.412290010601282" lon="-5.957293007522821">
        <ele>128.94999999999999</ele>
        <time>2025-04-29T13:16:59Z</time>
      </trkpt>
      <trkpt lat="43.412152966484427" lon="-5.957455029711127">
        <ele>128.94999999999999</ele>
        <time>2025-04-29T13:17:00Z</time>
      </trkpt>
      <trkpt lat="43.412026986479759" lon="-5.957624008879066">
        <ele>129.43000000000001</ele>
        <time>2025-04-29T13:17:01Z</time>
      </trkpt>
      <trkpt lat="43.411911986768246" lon="-5.957796005532146">
        <ele>129.91999999999999</ele>
        <time>2025-04-29T13:17:02Z</time>
      </trkpt>
      <trkpt lat="43.411806039512157" lon="-5.95795601606369">
        <ele>130.40000000000001</ele>
        <time>2025-04-29T13:17:03Z</time>
      </trkpt>
      <trkpt lat="43.411379987373948" lon="-5.958993025124073">
        <ele>129.43000000000001</ele>
        <time>2025-04-29T13:17:09Z</time>
      </trkpt>
      <trkpt lat="43.411265993490815" lon="-5.959240039810538">
        <ele>127.51000000000001</ele>
        <time>2025-04-29T13:17:11Z</time>
      </trkpt>
      <trkpt lat="43.411198016256094" lon="-5.959345987066627">
        <ele>126.55</ele>
        <time>2025-04-29T13:17:12Z</time>
      </trkpt>
      <trkpt lat="43.411124004051089" lon="-5.95946098677814">
        <ele>125.59</ele>
        <time>2025-04-29T13:17:13Z</time>
      </trkpt>
      <trkpt lat="43.411046974360943" lon="-5.959525024518371">
        <ele>125.11</ele>
        <time>2025-04-29T13:17:14Z</time>
      </trkpt>
      <trkpt lat="43.410943960770965" lon="-5.959577998146415">
        <ele>124.15000000000001</ele>
        <time>2025-04-29T13:17:15Z</time>
      </trkpt>
      <trkpt lat="43.410828961059451" lon="-5.959601970389485">
        <ele>123.19</ele>
        <time>2025-04-29T13:17:16Z</time>
      </trkpt>
      <trkpt lat="43.410709016025066" lon="-5.959627032279968">
        <ele>122.22</ele>
        <time>2025-04-29T13:17:17Z</time>
      </trkpt>
      <trkpt lat="43.410586975514889" lon="-5.959652010351419">
        <ele>121.26000000000001</ele>
        <time>2025-04-29T13:17:18Z</time>
      </trkpt>
      <trkpt lat="43.41028799302876" lon="-5.959713030606508">
        <ele>118.38</ele>
        <time>2025-04-29T13:17:21Z</time>
      </trkpt>
      <trkpt lat="43.410226972773671" lon="-5.959726022556424">
        <ele>117.42</ele>
        <time>2025-04-29T13:17:22Z</time>
      </trkpt>
      <trkpt lat="43.410170981660485" lon="-5.959737002849579">
        <ele>116.45999999999999</ele>
        <time>2025-04-29T13:17:23Z</time>
      </trkpt>
      <trkpt lat="43.410154972225428" lon="-5.959843033924699">
        <ele>115.5</ele>
        <time>2025-04-29T13:17:24Z</time>
      </trkpt>
      <trkpt lat="43.410151032730937" lon="-5.959943030029535">
        <ele>114.53</ele>
        <time>2025-04-29T13:17:25Z</time>
      </trkpt>
      <trkpt lat="43.410146003589034" lon="-5.960074039176107">
        <ele>113.56999999999999</ele>
        <time>2025-04-29T13:17:26Z</time>
      </trkpt>
      <trkpt lat="43.410139968618751" lon="-5.960230026394129">
        <ele>113.09</ele>
        <time>2025-04-29T13:17:27Z</time>
      </trkpt>
      <trkpt lat="43.410162013024092" lon="-5.960380984470248">
        <ele>112.61</ele>
        <time>2025-04-29T13:17:28Z</time>
      </trkpt>
      <trkpt lat="43.410216998308897" lon="-5.960563961416483">
        <ele>112.61</ele>
        <time>2025-04-29T13:17:29Z</time>
      </trkpt>
      <trkpt lat="43.410275001078844" lon="-5.960755990818143">
        <ele>113.09</ele>
        <time>2025-04-29T13:17:30Z</time>
      </trkpt>
      <trkpt lat="43.410468958318233" lon="-5.961281033232808">
        <ele>115.5</ele>
        <time>2025-04-29T13:17:33Z</time>
      </trkpt>
      <trkpt lat="43.410555962473154" lon="-5.961417993530631">
        <ele>116.94</ele>
        <time>2025-04-29T13:17:34Z</time>
      </trkpt>
      <trkpt lat="43.410671968013048" lon="-5.961475996300578">
        <ele>118.38</ele>
        <time>2025-04-29T13:17:35Z</time>
      </trkpt>
      <trkpt lat="43.410819992423058" lon="-5.961533999070525">
        <ele>119.34</ele>
        <time>2025-04-29T13:17:36Z</time>
      </trkpt>
      <trkpt lat="43.410961981862783" lon="-5.961589990183711">
        <ele>120.78</ele>
        <time>2025-04-29T13:17:37Z</time>
      </trkpt>
      <trkpt lat="43.411089973524213" lon="-5.961661990731955">
        <ele>122.22</ele>
        <time>2025-04-29T13:17:38Z</time>
      </trkpt>
      <trkpt lat="43.411199022084475" lon="-5.961786964908242">
        <ele>123.19</ele>
        <time>2025-04-29T13:17:39Z</time>
      </trkpt>
      <trkpt lat="43.41131997294724" lon="-5.961925014853478">
        <ele>124.63</ele>
        <time>2025-04-29T13:17:40Z</time>
      </trkpt>
      <trkpt lat="43.411450982093811" lon="-5.962074967101216">
        <ele>126.06999999999999</ele>
        <time>2025-04-29T13:17:41Z</time>
      </trkpt>
      <trkpt lat="43.41170696541667" lon="-5.962437987327576">
        <ele>129.43000000000001</ele>
        <time>2025-04-29T13:17:43Z</time>
      </trkpt>
      <trkpt lat="43.411815008148551" lon="-5.962648959830403">
        <ele>130.88</ele>
        <time>2025-04-29T13:17:44Z</time>
      </trkpt>
      <trkpt lat="43.411897988989949" lon="-5.962860016152263">
        <ele>132.31999999999999</ele>
        <time>2025-04-29T13:17:45Z</time>
      </trkpt>
      <trkpt lat="43.411976024508476" lon="-5.963057996705174">
        <ele>134.24000000000001</ele>
        <time>2025-04-29T13:17:46Z</time>
      </trkpt>
      <trkpt lat="43.41207199729979" lon="-5.963223036378622">
        <ele>135.68000000000001</ele>
        <time>2025-04-29T13:17:47Z</time>
      </trkpt>
      <trkpt lat="43.412171993404627" lon="-5.963358990848064">
        <ele>137.13</ele>
        <time>2025-04-29T13:17:48Z</time>
      </trkpt>
      <trkpt lat="43.412239970639348" lon="-5.963452029973269">
        <ele>138.56999999999999</ele>
        <time>2025-04-29T13:17:49Z</time>
      </trkpt>
      <trkpt lat="43.412317000329494" lon="-5.963637018576264">
        <ele>139.53</ele>
        <time>2025-04-29T13:17:50Z</time>
      </trkpt>
      <trkpt lat="43.412358993664384" lon="-5.963793005794287">
        <ele>140.49000000000001</ele>
        <time>2025-04-29T13:17:51Z</time>
      </trkpt>
      <trkpt lat="43.412383971735835" lon="-5.963968019932509">
        <ele>141.44999999999999</ele>
        <time>2025-04-29T13:17:52Z</time>
      </trkpt>
      <trkpt lat="43.412407021969557" lon="-5.964128030464053">
        <ele>142.41</ele>
        <time>2025-04-29T13:17:53Z</time>
      </trkpt>
      <trkpt lat="43.412468964233994" lon="-5.964242024347186">
        <ele>143.37</ele>
        <time>2025-04-29T13:17:54Z</time>
      </trkpt>
      <trkpt lat="43.412549011409283" lon="-5.96435802988708">
        <ele>144.81999999999999</ele>
        <time>2025-04-29T13:17:55Z</time>
      </trkpt>
      <trkpt lat="43.412635009735823" lon="-5.964485015720129">
        <ele>145.78</ele>
        <time>2025-04-29T13:17:56Z</time>
      </trkpt>
      <trkpt lat="43.412726037204266" lon="-5.964619964361191">
        <ele>146.74000000000001</ele>
        <time>2025-04-29T13:17:57Z</time>
      </trkpt>
      <trkpt lat="43.413096014410257" lon="-5.965376012027264">
        <ele>152.50999999999999</ele>
        <time>2025-04-29T13:18:02Z</time>
      </trkpt>
      <trkpt lat="43.413157034665346" lon="-5.96566803753376">
        <ele>153.94999999999999</ele>
        <time>2025-04-29T13:18:04Z</time>
      </trkpt>
      <trkpt lat="43.413171032443643" lon="-5.965808015316725">
        <ele>154.91</ele>
        <time>2025-04-29T13:18:05Z</time>
      </trkpt>
      <trkpt lat="43.413180001080036" lon="-5.966079002246261">
        <ele>156.83000000000001</ele>
        <time>2025-04-29T13:18:07Z</time>
      </trkpt>
      <trkpt lat="43.413175977766514" lon="-5.966221997514367">
        <ele>157.31</ele>
        <time>2025-04-29T13:18:08Z</time>
      </trkpt>
      <trkpt lat="43.413172038272023" lon="-5.966365998610854">
        <ele>158.27000000000001</ele>
        <time>2025-04-29T13:18:09Z</time>
      </trkpt>
      <trkpt lat="43.41316700913012" lon="-5.966517040506005">
        <ele>158.75</ele>
        <time>2025-04-29T13:18:10Z</time>
      </trkpt>
      <trkpt lat="43.413162985816598" lon="-5.966662969440222">
        <ele>159.24000000000001</ele>
        <time>2025-04-29T13:18:11Z</time>
      </trkpt>
      <trkpt lat="43.413220988586545" lon="-5.966780986636877">
        <ele>159.72</ele>
        <time>2025-04-29T13:18:12Z</time>
      </trkpt>
      <trkpt lat="43.413285026326776" lon="-5.966902021318674">
        <ele>160.19999999999999</ele>
        <time>2025-04-29T13:18:13Z</time>
      </trkpt>
      <trkpt lat="43.413349986076355" lon="-5.967025989666581">
        <ele>161.16</ele>
        <time>2025-04-29T13:18:14Z</time>
      </trkpt>
      <trkpt lat="43.413822976872325" lon="-5.967844985425472">
        <ele>165.47999999999999</ele>
        <time>2025-04-29T13:18:21Z</time>
      </trkpt>
      <trkpt lat="43.413914004340768" lon="-5.967937018722296">
        <ele>165.96000000000001</ele>
        <time>2025-04-29T13:18:22Z</time>
      </trkpt>
      <trkpt lat="43.41400302015245" lon="-5.968026034533978">
        <ele>165.96000000000001</ele>
        <time>2025-04-29T13:18:23Z</time>
      </trkpt>
      <trkpt lat="43.41408901847899" lon="-5.968112032860518">
        <ele>166.44999999999999</ele>
        <time>2025-04-29T13:18:24Z</time>
      </trkpt>
      <trkpt lat="43.414171999320388" lon="-5.968196019530296">
        <ele>167.41</ele>
        <time>2025-04-29T13:18:25Z</time>
      </trkpt>
      <trkpt lat="43.4142180159688" lon="-5.968342032283545">
        <ele>167.88999999999999</ele>
        <time>2025-04-29T13:18:26Z</time>
      </trkpt>
      <trkpt lat="43.414263026788831" lon="-5.968485027551651">
        <ele>168.37</ele>
        <time>2025-04-29T13:18:27Z</time>
      </trkpt>
      <trkpt lat="43.414299990981817" lon="-5.968628022819758">
        <ele>169.33000000000001</ele>
        <time>2025-04-29T13:18:28Z</time>
      </trkpt>
      <trkpt lat="43.414299990981817" lon="-5.96878501586616">
        <ele>170.28999999999999</ele>
        <time>2025-04-29T13:18:29Z</time>
      </trkpt>
      <trkpt lat="43.414299990981817" lon="-5.968932034447789">
        <ele>171.25</ele>
        <time>2025-04-29T13:18:30Z</time>
      </trkpt>
      <trkpt lat="43.414279036223888" lon="-5.969503009691834">
        <ele>173.16999999999999</ele>
        <time>2025-04-29T13:18:34Z</time>
      </trkpt>
      <trkpt lat="43.414279036223888" lon="-5.969652961939573">
        <ele>173.16999999999999</ele>
        <time>2025-04-29T13:18:35Z</time>
      </trkpt>
      <trkpt lat="43.414332009851933" lon="-5.969812972471118">
        <ele>173.66</ele>
        <time>2025-04-29T13:18:36Z</time>
      </trkpt>
      <trkpt lat="43.414388000965118" lon="-5.969958985224366">
        <ele>174.13999999999999</ele>
        <time>2025-04-29T13:18:37Z</time>
      </trkpt>
      <trkpt lat="43.414446003735065" lon="-5.970109021291137">
        <ele>175.09999999999999</ele>
        <time>2025-04-29T13:18:38Z</time>
      </trkpt>
      <trkpt lat="43.414630992338061" lon="-5.970705980435014">
        <ele>177.5</ele>
        <time>2025-04-29T13:18:42Z</time>
      </trkpt>
      <trkpt lat="43.414653958752751" lon="-5.970860961824656">
        <ele>178.46000000000001</ele>
        <time>2025-04-29T13:18:43Z</time>
      </trkpt>
      <trkpt lat="43.414744986221194" lon="-5.971483988687396">
        <ele>181.34999999999999</ele>
        <time>2025-04-29T13:18:47Z</time>
      </trkpt>
      <trkpt lat="43.414796032011509" lon="-5.971633018925786">
        <ele>182.31</ele>
        <time>2025-04-29T13:18:48Z</time>
      </trkpt>
      <trkpt lat="43.414854034781456" lon="-5.971777020022273">
        <ele>183.27000000000001</ele>
        <time>2025-04-29T13:18:49Z</time>
      </trkpt>
      <trkpt lat="43.41501303948462" lon="-5.97222201526165">
        <ele>185.66999999999999</ele>
        <time>2025-04-29T13:18:52Z</time>
      </trkpt>
      <trkpt lat="43.415026031434536" lon="-5.972380014136434">
        <ele>186.63</ele>
        <time>2025-04-29T13:18:53Z</time>
      </trkpt>
      <trkpt lat="43.415010021999478" lon="-5.972528038546443">
        <ele>187.11000000000001</ele>
        <time>2025-04-29T13:18:54Z</time>
      </trkpt>
      <trkpt lat="43.414982026442885" lon="-5.972682014107704">
        <ele>188.08000000000001</ele>
        <time>2025-04-29T13:18:55Z</time>
      </trkpt>
      <trkpt lat="43.414953025057912" lon="-5.972841018810868">
        <ele>189.03999999999999</ele>
        <time>2025-04-29T13:18:56Z</time>
      </trkpt>
      <trkpt lat="43.414924023672938" lon="-5.973003963008523">
        <ele>190</ele>
        <time>2025-04-29T13:18:57Z</time>
      </trkpt>
      <trkpt lat="43.414900973439217" lon="-5.973174031823874">
        <ele>190.96000000000001</ele>
        <time>2025-04-29T13:18:58Z</time>
      </trkpt>
      <trkpt lat="43.414866020902991" lon="-5.97488502971828">
        <ele>197.21000000000001</ele>
        <time>2025-04-29T13:19:08Z</time>
      </trkpt>
      <trkpt lat="43.414858980104327" lon="-5.97538199275732">
        <ele>199.61000000000001</ele>
        <time>2025-04-29T13:19:11Z</time>
      </trkpt>
      <trkpt lat="43.414872977882624" lon="-5.975540997460485">
        <ele>200.09</ele>
        <time>2025-04-29T13:19:12Z</time>
      </trkpt>
      <trkpt lat="43.414895022287965" lon="-5.975704025477171">
        <ele>200.56999999999999</ele>
        <time>2025-04-29T13:19:13Z</time>
      </trkpt>
      <trkpt lat="43.414946990087628" lon="-5.97585397772491">
        <ele>201.05000000000001</ele>
        <time>2025-04-29T13:19:14Z</time>
      </trkpt>
      <trkpt lat="43.415009016171098" lon="-5.975998984649777">
        <ele>202.00999999999999</ele>
        <time>2025-04-29T13:19:15Z</time>
      </trkpt>
      <trkpt lat="43.415072970092297" lon="-5.97615597769618">
        <ele>202.49000000000001</ele>
        <time>2025-04-29T13:19:16Z</time>
      </trkpt>
      <trkpt lat="43.41546599753201" lon="-5.977159962058067">
        <ele>204.90000000000001</ele>
        <time>2025-04-29T13:19:22Z</time>
      </trkpt>
      <trkpt lat="43.415500028058887" lon="-5.977346962317824">
        <ele>204.90000000000001</ele>
        <time>2025-04-29T13:19:23Z</time>
      </trkpt>
      <trkpt lat="43.415533974766731" lon="-5.977535974234343">
        <ele>204.41999999999999</ele>
        <time>2025-04-29T13:19:24Z</time>
      </trkpt>
      <trkpt lat="43.415554007515311" lon="-5.977729009464383">
        <ele>203.46000000000001</ele>
        <time>2025-04-29T13:19:25Z</time>
      </trkpt>
      <trkpt lat="43.415565993636847" lon="-5.977907963097096">
        <ele>202.49000000000001</ele>
        <time>2025-04-29T13:19:26Z</time>
      </trkpt>
      <trkpt lat="43.415530035272241" lon="-5.978073002770543">
        <ele>201.53</ele>
        <time>2025-04-29T13:19:27Z</time>
      </trkpt>
      <trkpt lat="43.415485024452209" lon="-5.978228989988565">
        <ele>200.09</ele>
        <time>2025-04-29T13:19:28Z</time>
      </trkpt>
      <trkpt lat="43.415413023903966" lon="-5.978381037712097">
        <ele>199.13</ele>
        <time>2025-04-29T13:19:29Z</time>
      </trkpt>
      <trkpt lat="43.415338005870581" lon="-5.978539036586881">
        <ele>198.16999999999999</ele>
        <time>2025-04-29T13:19:30Z</time>
      </trkpt>
      <trkpt lat="43.415286038070917" lon="-5.978712039068341">
        <ele>197.21000000000001</ele>
        <time>2025-04-29T13:19:31Z</time>
      </trkpt>
      <trkpt lat="43.41524999588728" lon="-5.978895016014576">
        <ele>196.72999999999999</ele>
        <time>2025-04-29T13:19:32Z</time>
      </trkpt>
      <trkpt lat="43.415223006159067" lon="-5.979069024324417">
        <ele>195.77000000000001</ele>
        <time>2025-04-29T13:19:33Z</time>
      </trkpt>
      <trkpt lat="43.415223006159067" lon="-5.979244038462639">
        <ele>194.31999999999999</ele>
        <time>2025-04-29T13:19:34Z</time>
      </trkpt>
      <trkpt lat="43.415232980623841" lon="-5.979423997923732">
        <ele>193.36000000000001</ele>
        <time>2025-04-29T13:19:35Z</time>
      </trkpt>
      <trkpt lat="43.415266005322337" lon="-5.979589959606528">
        <ele>192.40000000000001</ele>
        <time>2025-04-29T13:19:36Z</time>
      </trkpt>
      <trkpt lat="43.415296012535691" lon="-5.979738989844918">
        <ele>190.96000000000001</ele>
        <time>2025-04-29T13:19:37Z</time>
      </trkpt>
      <trkpt lat="43.415323002263904" lon="-5.979877039790154">
        <ele>190</ele>
        <time>2025-04-29T13:19:38Z</time>
      </trkpt>
      <trkpt lat="43.415350997820497" lon="-5.980017017573118">
        <ele>188.56</ele>
        <time>2025-04-29T13:19:39Z</time>
      </trkpt>
      <trkpt lat="43.415309004485607" lon="-5.980131011456251">
        <ele>187.11000000000001</ele>
        <time>2025-04-29T13:19:40Z</time>
      </trkpt>
      <trkpt lat="43.415259970352054" lon="-5.980260008946061">
        <ele>185.66999999999999</ele>
        <time>2025-04-29T13:19:41Z</time>
      </trkpt>
      <trkpt lat="43.415211020037532" lon="-5.980392023921013">
        <ele>184.22999999999999</ele>
        <time>2025-04-29T13:19:42Z</time>
      </trkpt>
      <trkpt lat="43.415157962590456" lon="-5.980656975880265">
        <ele>180.87</ele>
        <time>2025-04-29T13:19:44Z</time>
      </trkpt>
      <trkpt lat="43.415184030309319" lon="-5.980758983641863">
        <ele>179.41999999999999</ele>
        <time>2025-04-29T13:19:45Z</time>
      </trkpt>
      <trkpt lat="43.415237003937364" lon="-5.980826038867235">
        <ele>177.97999999999999</ele>
        <time>2025-04-29T13:19:46Z</time>
      </trkpt>
      <trkpt lat="43.415304981172085" lon="-5.980853028595448">
        <ele>176.53999999999999</ele>
        <time>2025-04-29T13:19:47Z</time>
      </trkpt>
      <trkpt lat="43.415384022518992" lon="-5.980811035260558">
        <ele>174.62</ele>
        <time>2025-04-29T13:19:48Z</time>
      </trkpt>
      <trkpt lat="43.415472032502294" lon="-5.980760995298624">
        <ele>173.16999999999999</ele>
        <time>2025-04-29T13:19:49Z</time>
      </trkpt>
      <trkpt lat="43.41557202860713" lon="-5.980703998357058">
        <ele>171.72999999999999</ele>
        <time>2025-04-29T13:19:50Z</time>
      </trkpt>
      <trkpt lat="43.415675964206457" lon="-5.980643983930349">
        <ele>170.28999999999999</ele>
        <time>2025-04-29T13:19:51Z</time>
      </trkpt>
      <trkpt lat="43.415779983624816" lon="-5.980602996423841">
        <ele>169.33000000000001</ele>
        <time>2025-04-29T13:19:52Z</time>
      </trkpt>
      <trkpt lat="43.415876040235162" lon="-5.980636021122336">
        <ele>168.37</ele>
        <time>2025-04-29T13:19:53Z</time>
      </trkpt>
      <trkpt lat="43.415974024683237" lon="-5.980705004185438">
        <ele>167.41</ele>
        <time>2025-04-29T13:19:54Z</time>
      </trkpt>
      <trkpt lat="43.416037978604436" lon="-5.980832995846868">
        <ele>166.93000000000001</ele>
        <time>2025-04-29T13:19:55Z</time>
      </trkpt>
      <trkpt lat="43.416060023009777" lon="-5.980952018871903">
        <ele>166.44999999999999</ele>
        <time>2025-04-29T13:19:56Z</time>
      </trkpt>
      <trkpt lat="43.416080977767706" lon="-5.981069030240178">
        <ele>165.47999999999999</ele>
        <time>2025-04-29T13:19:57Z</time>
      </trkpt>
      <trkpt lat="43.416037978604436" lon="-5.981218982487917">
        <ele>165</ele>
        <time>2025-04-29T13:19:58Z</time>
      </trkpt>
      <trkpt lat="43.415972013026476" lon="-5.981306992471218">
        <ele>164.52000000000001</ele>
        <time>2025-04-29T13:19:59Z</time>
      </trkpt>
      <trkpt lat="43.415908981114626" lon="-5.981390979140997">
        <ele>164.03999999999999</ele>
        <time>2025-04-29T13:20:00Z</time>
      </trkpt>
      <trkpt lat="43.415864976122975" lon="-5.981536991894245">
        <ele>163.08000000000001</ele>
        <time>2025-04-29T13:20:01Z</time>
      </trkpt>
      <trkpt lat="43.415853995829821" lon="-5.981681998819113">
        <ele>162.12</ele>
        <time>2025-04-29T13:20:02Z</time>
      </trkpt>
      <trkpt lat="43.41587302275002" lon="-5.981841003522277">
        <ele>161.16</ele>
        <time>2025-04-29T13:20:03Z</time>
      </trkpt>
      <trkpt lat="43.415946029126644" lon="-5.982379037886858">
        <ele>157.31</ele>
        <time>2025-04-29T13:20:06Z</time>
      </trkpt>
      <trkpt lat="43.415997996926308" lon="-5.982536030933261">
        <ele>156.34999999999999</ele>
        <time>2025-04-29T13:20:07Z</time>
      </trkpt>
      <trkpt lat="43.416063040494919" lon="-5.982683971524239">
        <ele>154.91</ele>
        <time>2025-04-29T13:20:08Z</time>
      </trkpt>
      <trkpt lat="43.416132023558021" lon="-5.982823027297854">
        <ele>153.47</ele>
        <time>2025-04-29T13:20:09Z</time>
      </trkpt>
      <trkpt lat="43.416209975257516" lon="-5.982978008687496">
        <ele>152.03</ele>
        <time>2025-04-29T13:20:10Z</time>
      </trkpt>
      <trkpt lat="43.416241994127631" lon="-5.983145982027054">
        <ele>151.06</ele>
        <time>2025-04-29T13:20:11Z</time>
      </trkpt>
      <trkpt lat="43.416278036311269" lon="-5.983333988115192">
        <ele>150.09999999999999</ele>
        <time>2025-04-29T13:20:12Z</time>
      </trkpt>
      <trkpt lat="43.416423965245485" lon="-5.984250968322158">
        <ele>145.30000000000001</ele>
        <time>2025-04-29T13:20:17Z</time>
      </trkpt>
      <trkpt lat="43.416451038792729" lon="-5.986377960070968">
        <ele>136.63999999999999</ele>
        <time>2025-04-29T13:20:28Z</time>
      </trkpt>
      <trkpt lat="43.416525973007083" lon="-5.986521961167455">
        <ele>135.68000000000001</ele>
        <time>2025-04-29T13:20:29Z</time>
      </trkpt>
      <trkpt lat="43.416598979383707" lon="-5.986662022769451">
        <ele>134.72</ele>
        <time>2025-04-29T13:20:30Z</time>
      </trkpt>
      <trkpt lat="43.416681960225105" lon="-5.986819015815854">
        <ele>133.75999999999999</ele>
        <time>2025-04-29T13:20:31Z</time>
      </trkpt>
      <trkpt lat="43.416704004630446" lon="-5.986976008862257">
        <ele>132.80000000000001</ele>
        <time>2025-04-29T13:20:32Z</time>
      </trkpt>
      <trkpt lat="43.416735017672181" lon="-5.987169966101646">
        <ele>132.80000000000001</ele>
        <time>2025-04-29T13:20:33Z</time>
      </trkpt>
      <trkpt lat="43.416774999350309" lon="-5.987375993281603">
        <ele>132.31999999999999</ele>
        <time>2025-04-29T13:20:34Z</time>
      </trkpt>
      <trkpt lat="43.416817998513579" lon="-5.987597024068236">
        <ele>132.31999999999999</ele>
        <time>2025-04-29T13:20:35Z</time>
      </trkpt>
      <trkpt lat="43.416860997676849" lon="-5.987819982692599">
        <ele>131.84</ele>
        <time>2025-04-29T13:20:36Z</time>
      </trkpt>
      <trkpt lat="43.416896034032106" lon="-5.988000025972724">
        <ele>131.84</ele>
        <time>2025-04-29T13:20:37Z</time>
      </trkpt>
      <trkpt lat="43.416886981576681" lon="-5.988252991810441">
        <ele>131.84</ele>
        <time>2025-04-29T13:20:38Z</time>
      </trkpt>
      <trkpt lat="43.416878012940288" lon="-5.988485002890229">
        <ele>131.36000000000001</ele>
        <time>2025-04-29T13:20:39Z</time>
      </trkpt>
      <trkpt lat="43.416855968534946" lon="-5.988713996484876">
        <ele>131.84</ele>
        <time>2025-04-29T13:20:40Z</time>
      </trkpt>
      <trkpt lat="43.416811041533947" lon="-5.989164020866156">
        <ele>131.84</ele>
        <time>2025-04-29T13:20:42Z</time>
      </trkpt>
      <trkpt lat="43.416811041533947" lon="-5.989382034167647">
        <ele>131.84</ele>
        <time>2025-04-29T13:20:43Z</time>
      </trkpt>
      <trkpt lat="43.416848005726933" lon="-5.989963989704847">
        <ele>131.84</ele>
        <time>2025-04-29T13:20:46Z</time>
      </trkpt>
      <trkpt lat="43.416896034032106" lon="-5.990059040486813">
        <ele>130.88</ele>
        <time>2025-04-29T13:20:47Z</time>
      </trkpt>
      <trkpt lat="43.416973985731602" lon="-5.990121988579631">
        <ele>130.40000000000001</ele>
        <time>2025-04-29T13:20:48Z</time>
      </trkpt>
      <trkpt lat="43.417053027078509" lon="-5.990145038813353">
        <ele>129.91999999999999</ele>
        <time>2025-04-29T13:20:49Z</time>
      </trkpt>
      <trkpt lat="43.417156040668488" lon="-5.990144032984972">
        <ele>129.43000000000001</ele>
        <time>2025-04-29T13:20:50Z</time>
      </trkpt>
      <trkpt lat="43.417268022894859" lon="-5.990086030215025">
        <ele>128.94999999999999</ele>
        <time>2025-04-29T13:20:51Z</time>
      </trkpt>
      <trkpt lat="43.417390985414386" lon="-5.990020986646414">
        <ele>128.94999999999999</ele>
        <time>2025-04-29T13:20:52Z</time>
      </trkpt>
      <trkpt lat="43.417790969833732" lon="-5.989843960851431">
        <ele>127.98999999999999</ele>
        <time>2025-04-29T13:20:55Z</time>
      </trkpt>
      <trkpt lat="43.417934970930219" lon="-5.989800039678812">
        <ele>127.51000000000001</ele>
        <time>2025-04-29T13:20:56Z</time>
      </trkpt>
      <trkpt lat="43.418080983683467" lon="-5.989755028858781">
        <ele>127.03</ele>
        <time>2025-04-29T13:20:57Z</time>
      </trkpt>
      <trkpt lat="43.418224984779954" lon="-5.989699037745595">
        <ele>127.03</ele>
        <time>2025-04-29T13:20:58Z</time>
      </trkpt>
      <trkpt lat="43.41834400780499" lon="-5.989589989185333">
        <ele>126.55</ele>
        <time>2025-04-29T13:20:59Z</time>
      </trkpt>
      <trkpt lat="43.418463030830026" lon="-5.989480018615723">
        <ele>126.06999999999999</ele>
        <time>2025-04-29T13:21:00Z</time>
      </trkpt>
      <trkpt lat="43.418677020817995" lon="-5.989157985895872">
        <ele>125.59</ele>
        <time>2025-04-29T13:21:02Z</time>
      </trkpt>
      <trkpt lat="43.418756984174252" lon="-5.98895899951458">
        <ele>125.11</ele>
        <time>2025-04-29T13:21:03Z</time>
      </trkpt>
      <trkpt lat="43.41883703134954" lon="-5.988760013133287">
        <ele>124.15000000000001</ele>
        <time>2025-04-29T13:21:04Z</time>
      </trkpt>
      <trkpt lat="43.419005004689097" lon="-5.988339995965362">
        <ele>123.19</ele>
        <time>2025-04-29T13:21:06Z</time>
      </trkpt>
      <trkpt lat="43.419108018279076" lon="-5.988136986270547">
        <ele>122.22</ele>
        <time>2025-04-29T13:21:07Z</time>
      </trkpt>
      <trkpt lat="43.419313039630651" lon="-5.987757034599781">
        <ele>121.26000000000001</ele>
        <time>2025-04-29T13:21:09Z</time>
      </trkpt>
      <trkpt lat="43.419441031292081" lon="-5.987631976604462">
        <ele>120.3</ele>
        <time>2025-04-29T13:21:10Z</time>
      </trkpt>
      <trkpt lat="43.419566005468369" lon="-5.987515971064568">
        <ele>119.81999999999999</ele>
        <time>2025-04-29T13:21:11Z</time>
      </trkpt>
      <trkpt lat="43.419814025983214" lon="-5.987355960533023">
        <ele>118.38</ele>
        <time>2025-04-29T13:21:13Z</time>
      </trkpt>
      <trkpt lat="43.41993497684598" lon="-5.987355960533023">
        <ele>117.90000000000001</ele>
        <time>2025-04-29T13:21:14Z</time>
      </trkpt>
      <trkpt lat="43.420045031234622" lon="-5.98736803047359">
        <ele>117.90000000000001</ele>
        <time>2025-04-29T13:21:15Z</time>
      </trkpt>
      <trkpt lat="43.420882970094681" lon="-5.987560981884599">
        <ele>125.59</ele>
        <time>2025-04-29T13:21:24Z</time>
      </trkpt>
      <trkpt lat="43.420928986743093" lon="-5.987601969391108">
        <ele>127.03</ele>
        <time>2025-04-29T13:21:25Z</time>
      </trkpt>
      <trkpt lat="43.42096796259284" lon="-5.987637005746365">
        <ele>127.51000000000001</ele>
        <time>2025-04-29T13:21:26Z</time>
      </trkpt>
      <trkpt lat="43.421005010604858" lon="-5.987670030444861">
        <ele>128.94999999999999</ele>
        <time>2025-04-29T13:21:27Z</time>
      </trkpt>
      <trkpt lat="43.421018002554774" lon="-5.987729039043188">
        <ele>129.91999999999999</ele>
        <time>2025-04-29T13:21:28Z</time>
      </trkpt>
      <trkpt lat="43.420967040583491" lon="-5.987803973257542">
        <ele>130.88</ele>
        <time>2025-04-29T13:21:29Z</time>
      </trkpt>
      <trkpt lat="43.420899985358119" lon="-5.987907992675901">
        <ele>131.36000000000001</ele>
        <time>2025-04-29T13:21:30Z</time>
      </trkpt>
      <trkpt lat="43.420829996466637" lon="-5.988034978508949">
        <ele>131.84</ele>
        <time>2025-04-29T13:21:31Z</time>
      </trkpt>
      <trkpt lat="43.420011000707746" lon="-5.989268962293863">
        <ele>136.16</ele>
        <time>2025-04-29T13:21:40Z</time>
      </trkpt>
      <trkpt lat="43.418876007199287" lon="-5.990286022424698">
        <ele>137.13</ele>
        <time>2025-04-29T13:21:47Z</time>
      </trkpt>
      <trkpt lat="43.417531969025731" lon="-5.991374999284744">
        <ele>134.72</ele>
        <time>2025-04-29T13:21:54Z</time>
      </trkpt>
      <trkpt lat="43.416637033224106" lon="-5.99224696867168">
        <ele>132.80000000000001</ele>
        <time>2025-04-29T13:21:59Z</time>
      </trkpt>
      <trkpt lat="43.416532007977366" lon="-5.992398010566831">
        <ele>132.31999999999999</ele>
        <time>2025-04-29T13:22:00Z</time>
      </trkpt>
      <trkpt lat="43.416488002985716" lon="-5.992629015818238">
        <ele>131.84</ele>
        <time>2025-04-29T13:22:01Z</time>
      </trkpt>
      <trkpt lat="43.416463024914265" lon="-5.99284702911973">
        <ele>131.36000000000001</ele>
        <time>2025-04-29T13:22:02Z</time>
      </trkpt>
      <trkpt lat="43.416452966630459" lon="-5.993093959987164">
        <ele>130.88</ele>
        <time>2025-04-29T13:22:03Z</time>
      </trkpt>
      <trkpt lat="43.416441986337304" lon="-5.993357989937067">
        <ele>130.40000000000001</ele>
        <time>2025-04-29T13:22:04Z</time>
      </trkpt>
      <trkpt lat="43.416369985789061" lon="-5.994130969047546">
        <ele>129.91999999999999</ele>
        <time>2025-04-29T13:22:07Z</time>
      </trkpt>
      <trkpt lat="43.416290022432804" lon="-5.994322998449206">
        <ele>129.43000000000001</ele>
        <time>2025-04-29T13:22:08Z</time>
      </trkpt>
      <trkpt lat="43.416188014671206" lon="-5.99450103007257">
        <ele>128.47</ele>
        <time>2025-04-29T13:22:09Z</time>
      </trkpt>
      <trkpt lat="43.416069997474551" lon="-5.994618963450193">
        <ele>127.98999999999999</ele>
        <time>2025-04-29T13:22:10Z</time>
      </trkpt>
      <trkpt lat="43.415929013863206" lon="-5.994761036708951">
        <ele>127.98999999999999</ele>
        <time>2025-04-29T13:22:11Z</time>
      </trkpt>
      <trkpt lat="43.415786018595099" lon="-5.994903026148677">
        <ele>127.51000000000001</ele>
        <time>2025-04-29T13:22:12Z</time>
      </trkpt>
      <trkpt lat="43.415683005005121" lon="-5.995087008923292">
        <ele>127.51000000000001</ele>
        <time>2025-04-29T13:22:13Z</time>
      </trkpt>
      <trkpt lat="43.41563799418509" lon="-5.995273003354669">
        <ele>127.98999999999999</ele>
        <time>2025-04-29T13:22:14Z</time>
      </trkpt>
      <trkpt lat="43.415613016113639" lon="-5.995508031919599">
        <ele>127.98999999999999</ele>
        <time>2025-04-29T13:22:15Z</time>
      </trkpt>
      <trkpt lat="43.415586026385427" lon="-5.995759991928935">
        <ele>127.98999999999999</ele>
        <time>2025-04-29T13:22:16Z</time>
      </trkpt>
      <trkpt lat="43.415558030828834" lon="-5.996023016050458">
        <ele>127.51000000000001</ele>
        <time>2025-04-29T13:22:17Z</time>
      </trkpt>
      <trkpt lat="43.415366001427174" lon="-5.997377028688788">
        <ele>126.55</ele>
        <time>2025-04-29T13:22:22Z</time>
      </trkpt>
      <trkpt lat="43.415296012535691" lon="-5.997585989534855">
        <ele>126.06999999999999</ele>
        <time>2025-04-29T13:22:23Z</time>
      </trkpt>
      <trkpt lat="43.415198028087616" lon="-5.997738037258387">
        <ele>125.59</ele>
        <time>2025-04-29T13:22:24Z</time>
      </trkpt>
      <trkpt lat="43.415069030597806" lon="-5.99785496480763">
        <ele>125.11</ele>
        <time>2025-04-29T13:22:25Z</time>
      </trkpt>
      <trkpt lat="43.414924023672938" lon="-5.997906010597944">
        <ele>124.63</ele>
        <time>2025-04-29T13:22:26Z</time>
      </trkpt>
      <trkpt lat="43.414752027019858" lon="-5.997929982841015">
        <ele>124.15000000000001</ele>
        <time>2025-04-29T13:22:27Z</time>
      </trkpt>
      <trkpt lat="43.414586987346411" lon="-5.997953033074737">
        <ele>123.67</ele>
        <time>2025-04-29T13:22:28Z</time>
      </trkpt>
      <trkpt lat="43.414439968764782" lon="-5.997972982004285">
        <ele>123.19</ele>
        <time>2025-04-29T13:22:29Z</time>
      </trkpt>
      <trkpt lat="43.414322035387158" lon="-5.998074989765883">
        <ele>122.70999999999999</ele>
        <time>2025-04-29T13:22:30Z</time>
      </trkpt>
      <trkpt lat="43.414207035675645" lon="-5.998204993084073">
        <ele>122.22</ele>
        <time>2025-04-29T13:22:31Z</time>
      </trkpt>
      <trkpt lat="43.414079966023564" lon="-5.99834899418056">
        <ele>121.73999999999999</ele>
        <time>2025-04-29T13:22:32Z</time>
      </trkpt>
      <trkpt lat="43.413934959098697" lon="-5.998514033854008">
        <ele>121.26000000000001</ele>
        <time>2025-04-29T13:22:33Z</time>
      </trkpt>
      <trkpt lat="43.41378903016448" lon="-5.998616963624954">
        <ele>120.78</ele>
        <time>2025-04-29T13:22:34Z</time>
      </trkpt>
      <trkpt lat="43.41361896134913" lon="-5.998736992478371">
        <ele>120.3</ele>
        <time>2025-04-29T13:22:35Z</time>
      </trkpt>
      <trkpt lat="43.413443025201559" lon="-5.998860960826278">
        <ele>119.34</ele>
        <time>2025-04-29T13:22:36Z</time>
      </trkpt>
      <trkpt lat="43.41327304020524" lon="-5.998980989679694">
        <ele>118.86</ele>
        <time>2025-04-29T13:22:37Z</time>
      </trkpt>
      <trkpt lat="43.413125015795231" lon="-5.999132031574845">
        <ele>118.38</ele>
        <time>2025-04-29T13:22:38Z</time>
      </trkpt>
      <trkpt lat="43.412741040810943" lon="-5.999783976003528">
        <ele>116.45999999999999</ele>
        <time>2025-04-29T13:22:41Z</time>
      </trkpt>
      <trkpt lat="43.412635009735823" lon="-6.000050017610192">
        <ele>115.5</ele>
        <time>2025-04-29T13:22:42Z</time>
      </trkpt>
      <trkpt lat="43.412576001137495" lon="-6.000344976782799">
        <ele>115.01000000000001</ele>
        <time>2025-04-29T13:22:43Z</time>
      </trkpt>
      <trkpt lat="43.412545993924141" lon="-6.000648988410831">
        <ele>114.53</ele>
        <time>2025-04-29T13:22:44Z</time>
      </trkpt>
      <trkpt lat="43.412520010024309" lon="-6.000974038615823">
        <ele>114.05</ele>
        <time>2025-04-29T13:22:45Z</time>
      </trkpt>
      <trkpt lat="43.412526967003942" lon="-6.00129397585988">
        <ele>113.56999999999999</ele>
        <time>2025-04-29T13:22:46Z</time>
      </trkpt>
      <trkpt lat="43.41252101585269" lon="-6.002539023756981">
        <ele>112.13</ele>
        <time>2025-04-29T13:22:50Z</time>
      </trkpt>
      <trkpt lat="43.412468964233994" lon="-6.002828031778336">
        <ele>111.65000000000001</ele>
        <time>2025-04-29T13:22:51Z</time>
      </trkpt>
      <trkpt lat="43.412400986999273" lon="-6.003121985122562">
        <ele>111.65000000000001</ele>
        <time>2025-04-29T13:22:52Z</time>
      </trkpt>
      <trkpt lat="43.412294033914804" lon="-6.003385009244084">
        <ele>111.17</ele>
        <time>2025-04-29T13:22:53Z</time>
      </trkpt>
      <trkpt lat="43.412174005061388" lon="-6.003651972860098">
        <ele>110.69</ele>
        <time>2025-04-29T13:22:54Z</time>
      </trkpt>
      <trkpt lat="43.412038972601295" lon="-6.003900999203324">
        <ele>110.20999999999999</ele>
        <time>2025-04-29T13:22:55Z</time>
      </trkpt>
      <trkpt lat="43.41187996789813" lon="-6.004138961434364">
        <ele>110.20999999999999</ele>
        <time>2025-04-29T13:22:56Z</time>
      </trkpt>
      <trkpt lat="43.411719035357237" lon="-6.004381030797958">
        <ele>109.73</ele>
        <time>2025-04-29T13:22:57Z</time>
      </trkpt>
      <trkpt lat="43.409991022199392" lon="-6.006618998944759">
        <ele>104.44</ele>
        <time>2025-04-29T13:23:07Z</time>
      </trkpt>
      <trkpt lat="43.407509978860617" lon="-6.009269021451473">
        <ele>95.790000000000006</ele>
        <time>2025-04-29T13:23:20Z</time>
      </trkpt>
      <trkpt lat="43.405649028718472" lon="-6.011125026270747">
        <ele>88.099999999999994</ele>
        <time>2025-04-29T13:23:30Z</time>
      </trkpt>
      <trkpt lat="43.403738038614392" lon="-6.012754971161485">
        <ele>85.209999999999994</ele>
        <time>2025-04-29T13:23:40Z</time>
      </trkpt>
      <trkpt lat="43.402087977156043" lon="-6.014581974595785">
        <ele>90.980000000000004</ele>
        <time>2025-04-29T13:23:50Z</time>
      </trkpt>
      <trkpt lat="43.400828009471297" lon="-6.016007987782359">
        <ele>94.829999999999998</ele>
        <time>2025-04-29T13:23:59Z</time>
      </trkpt>
      <trkpt lat="43.399492017924786" lon="-6.017892993986607">
        <ele>101.56</ele>
        <time>2025-04-29T13:24:10Z</time>
      </trkpt>
      <trkpt lat="43.399090021848679" lon="-6.018590033054352">
        <ele>102.52</ele>
        <time>2025-04-29T13:24:15Z</time>
      </trkpt>
      <trkpt lat="43.399038976058364" lon="-6.018723975867033">
        <ele>102.52</ele>
        <time>2025-04-29T13:24:16Z</time>
      </trkpt>
      <trkpt lat="43.399011986330152" lon="-6.018873006105423">
        <ele>102.52</ele>
        <time>2025-04-29T13:24:17Z</time>
      </trkpt>
      <trkpt lat="43.398995976895094" lon="-6.019034022465348">
        <ele>102.52</ele>
        <time>2025-04-29T13:24:18Z</time>
      </trkpt>
      <trkpt lat="43.398978961631656" lon="-6.019198978319764">
        <ele>102.52</ele>
        <time>2025-04-29T13:24:19Z</time>
      </trkpt>
      <trkpt lat="43.398997988551855" lon="-6.019366029649973">
        <ele>102.04000000000001</ele>
        <time>2025-04-29T13:24:20Z</time>
      </trkpt>
      <trkpt lat="43.399019027128816" lon="-6.019543977454305">
        <ele>102.04000000000001</ele>
        <time>2025-04-29T13:24:21Z</time>
      </trkpt>
      <trkpt lat="43.399044005200267" lon="-6.019756961613894">
        <ele>102.04000000000001</ele>
        <time>2025-04-29T13:24:22Z</time>
      </trkpt>
      <trkpt lat="43.399078035727143" lon="-6.019896017387509">
        <ele>101.08</ele>
        <time>2025-04-29T13:24:23Z</time>
      </trkpt>
      <trkpt lat="43.399212984368205" lon="-6.020543016493321">
        <ele>99.150000000000006</ele>
        <time>2025-04-29T13:24:27Z</time>
      </trkpt>
      <trkpt lat="43.399237040430307" lon="-6.020721970126033">
        <ele>98.670000000000002</ele>
        <time>2025-04-29T13:24:28Z</time>
      </trkpt>
      <trkpt lat="43.39920200407505" lon="-6.020907964557409">
        <ele>97.709999999999994</ele>
        <time>2025-04-29T13:24:29Z</time>
      </trkpt>
      <trkpt lat="43.399156993255019" lon="-6.021096976473928">
        <ele>97.230000000000004</ele>
        <time>2025-04-29T13:24:30Z</time>
      </trkpt>
      <trkpt lat="43.399069989100099" lon="-6.021282970905304">
        <ele>96.269999999999996</ele>
        <time>2025-04-29T13:24:31Z</time>
      </trkpt>
      <trkpt lat="43.398978961631656" lon="-6.021462008357048">
        <ele>94.829999999999998</ele>
        <time>2025-04-29T13:24:32Z</time>
      </trkpt>
      <trkpt lat="43.398868991062045" lon="-6.021627970039845">
        <ele>93.870000000000005</ele>
        <time>2025-04-29T13:24:33Z</time>
      </trkpt>
      <trkpt lat="43.398027028888464" lon="-6.022937977686524">
        <ele>85.209999999999994</ele>
        <time>2025-04-29T13:24:42Z</time>
      </trkpt>
      <trkpt lat="43.397969026118517" lon="-6.02307996712625">
        <ele>84.730000000000004</ele>
        <time>2025-04-29T13:24:43Z</time>
      </trkpt>
      <trkpt lat="43.397948993369937" lon="-6.023235032334924">
        <ele>83.769999999999996</ele>
        <time>2025-04-29T13:24:44Z</time>
      </trkpt>
      <trkpt lat="43.397974977269769" lon="-6.023383978754282">
        <ele>83.290000000000006</ele>
        <time>2025-04-29T13:24:45Z</time>
      </trkpt>
      <trkpt lat="43.398035997524858" lon="-6.023536026477814">
        <ele>82.329999999999998</ele>
        <time>2025-04-29T13:24:46Z</time>
      </trkpt>
      <trkpt lat="43.398109003901482" lon="-6.023676004260778">
        <ele>81.849999999999994</ele>
        <time>2025-04-29T13:24:47Z</time>
      </trkpt>
      <trkpt lat="43.398217968642712" lon="-6.023802990093827">
        <ele>81.370000000000005</ele>
        <time>2025-04-29T13:24:48Z</time>
      </trkpt>
      <trkpt lat="43.398334980010986" lon="-6.023938022553921">
        <ele>80.409999999999997</ele>
        <time>2025-04-29T13:24:49Z</time>
      </trkpt>
      <trkpt lat="43.398454003036022" lon="-6.024075988680124">
        <ele>79.930000000000007</ele>
        <time>2025-04-29T13:24:50Z</time>
      </trkpt>
      <trkpt lat="43.398589035496116" lon="-6.024182019755244">
        <ele>79.450000000000003</ele>
        <time>2025-04-29T13:24:51Z</time>
      </trkpt>
      <trkpt lat="43.399837017059326" lon="-6.024721981957555">
        <ele>75.599999999999994</ele>
        <time>2025-04-29T13:24:59Z</time>
      </trkpt>
      <trkpt lat="43.400443028658628" lon="-6.024974025785923">
        <ele>74.159999999999997</ele>
        <time>2025-04-29T13:25:03Z</time>
      </trkpt>
      <trkpt lat="43.401953028514981" lon="-6.025652037933469">
        <ele>65.030000000000001</ele>
        <time>2025-04-29T13:25:13Z</time>
      </trkpt>
      <trkpt lat="43.402130976319313" lon="-6.025758991017938">
        <ele>64.069999999999993</ele>
        <time>2025-04-29T13:25:14Z</time>
      </trkpt>
      <trkpt lat="43.402286041527987" lon="-6.025906009599567">
        <ele>63.100000000000001</ele>
        <time>2025-04-29T13:25:15Z</time>
      </trkpt>
      <trkpt lat="43.402445968240499" lon="-6.026083035394549">
        <ele>62.619999999999997</ele>
        <time>2025-04-29T13:25:16Z</time>
      </trkpt>
      <trkpt lat="43.402605978772044" lon="-6.02625897154212">
        <ele>61.659999999999997</ele>
        <time>2025-04-29T13:25:17Z</time>
      </trkpt>
      <trkpt lat="43.402728019282222" lon="-6.026496011763811">
        <ele>61.18</ele>
        <time>2025-04-29T13:25:18Z</time>
      </trkpt>
      <trkpt lat="43.402858022600412" lon="-6.026746965944767">
        <ele>60.700000000000003</ele>
        <time>2025-04-29T13:25:19Z</time>
      </trkpt>
      <trkpt lat="43.402964975684881" lon="-6.027004038915038">
        <ele>60.219999999999999</ele>
        <time>2025-04-29T13:25:20Z</time>
      </trkpt>
      <trkpt lat="43.403050974011421" lon="-6.027287011966109">
        <ele>59.740000000000002</ele>
        <time>2025-04-29T13:25:21Z</time>
      </trkpt>
      <trkpt lat="43.403103025630116" lon="-6.027576019987464">
        <ele>59.259999999999998</ele>
        <time>2025-04-29T13:25:22Z</time>
      </trkpt>
      <trkpt lat="43.403640976175666" lon="-6.029303027316928">
        <ele>53.009999999999998</ele>
        <time>2025-04-29T13:25:29Z</time>
      </trkpt>
      <trkpt lat="43.404099969193339" lon="-6.030781008303165">
        <ele>49.649999999999999</ele>
        <time>2025-04-29T13:25:35Z</time>
      </trkpt>
      <trkpt lat="43.404088988900185" lon="-6.030978988856077">
        <ele>49.649999999999999</ele>
        <time>2025-04-29T13:25:36Z</time>
      </trkpt>
      <trkpt lat="43.404037021100521" lon="-6.031163977459073">
        <ele>49.159999999999997</ele>
        <time>2025-04-29T13:25:37Z</time>
      </trkpt>
      <trkpt lat="43.403678024187684" lon="-6.032720999792218">
        <ele>45.799999999999997</ele>
        <time>2025-04-29T13:25:44Z</time>
      </trkpt>
      <trkpt lat="43.403692021965981" lon="-6.032987963408232">
        <ele>45.32</ele>
        <time>2025-04-29T13:25:45Z</time>
      </trkpt>
      <trkpt lat="43.403737032786012" lon="-6.033252999186516">
        <ele>44.840000000000003</ele>
        <time>2025-04-29T13:25:46Z</time>
      </trkpt>
      <trkpt lat="43.403783971443772" lon="-6.033523986116052">
        <ele>44.840000000000003</ele>
        <time>2025-04-29T13:25:47Z</time>
      </trkpt>
      <trkpt lat="43.403839962556958" lon="-6.033792039379478">
        <ele>44.840000000000003</ele>
        <time>2025-04-29T13:25:48Z</time>
      </trkpt>
      <trkpt lat="43.403893020004034" lon="-6.034047016873956">
        <ele>44.840000000000003</ele>
        <time>2025-04-29T13:25:49Z</time>
      </trkpt>
      <trkpt lat="43.403881033882499" lon="-6.034285984933376">
        <ele>44.840000000000003</ele>
        <time>2025-04-29T13:25:50Z</time>
      </trkpt>
      <trkpt lat="43.403865024447441" lon="-6.034537022933364">
        <ele>45.32</ele>
        <time>2025-04-29T13:25:51Z</time>
      </trkpt>
      <trkpt lat="43.403828982263803" lon="-6.035016970708966">
        <ele>46.280000000000001</ele>
        <time>2025-04-29T13:25:53Z</time>
      </trkpt>
      <trkpt lat="43.403871981427073" lon="-6.03631298057735">
        <ele>48.200000000000003</ele>
        <time>2025-04-29T13:26:00Z</time>
      </trkpt>
      <trkpt lat="43.403929984197021" lon="-6.036624033004046">
        <ele>49.159999999999997</ele>
        <time>2025-04-29T13:26:02Z</time>
      </trkpt>
      <trkpt lat="43.403966026380658" lon="-6.036773985251784">
        <ele>49.649999999999999</ele>
        <time>2025-04-29T13:26:03Z</time>
      </trkpt>
      <trkpt lat="43.404025034978986" lon="-6.036921003833413">
        <ele>49.649999999999999</ele>
        <time>2025-04-29T13:26:04Z</time>
      </trkpt>
      <trkpt lat="43.404145985841751" lon="-6.037223003804684">
        <ele>50.609999999999999</ele>
        <time>2025-04-29T13:26:06Z</time>
      </trkpt>
      <trkpt lat="43.404182028025389" lon="-6.037397012114525">
        <ele>50.609999999999999</ele>
        <time>2025-04-29T13:26:07Z</time>
      </trkpt>
      <trkpt lat="43.404188985005021" lon="-6.037577977403998">
        <ele>51.090000000000003</ele>
        <time>2025-04-29T13:26:08Z</time>
      </trkpt>
      <trkpt lat="43.404174987226725" lon="-6.037759026512504">
        <ele>51.090000000000003</ele>
        <time>2025-04-29T13:26:09Z</time>
      </trkpt>
      <trkpt lat="43.404151014983654" lon="-6.037940997630358">
        <ele>51.090000000000003</ele>
        <time>2025-04-29T13:26:10Z</time>
      </trkpt>
      <trkpt lat="43.40403500944376" lon="-6.039530960842967">
        <ele>51.57</ele>
        <time>2025-04-29T13:26:19Z</time>
      </trkpt>
      <trkpt lat="43.403999973088503" lon="-6.040765028446913">
        <ele>50.130000000000003</ele>
        <time>2025-04-29T13:26:27Z</time>
      </trkpt>
      <trkpt lat="43.403985975310206" lon="-6.040880028158426">
        <ele>49.649999999999999</ele>
        <time>2025-04-29T13:26:28Z</time>
      </trkpt>
      <trkpt lat="43.404007013887167" lon="-6.041020005941391">
        <ele>49.649999999999999</ele>
        <time>2025-04-29T13:26:29Z</time>
      </trkpt>
      <trkpt lat="43.404022017493844" lon="-6.041113967075944">
        <ele>49.159999999999997</ele>
        <time>2025-04-29T13:26:30Z</time>
      </trkpt>
      <trkpt lat="43.404022017493844" lon="-6.041252017021179">
        <ele>48.68</ele>
        <time>2025-04-29T13:26:31Z</time>
      </trkpt>
      <trkpt lat="43.404022017493844" lon="-6.041408004239202">
        <ele>48.200000000000003</ele>
        <time>2025-04-29T13:26:32Z</time>
      </trkpt>
      <trkpt lat="43.403993016108871" lon="-6.041560973972082">
        <ele>48.200000000000003</ele>
        <time>2025-04-29T13:26:33Z</time>
      </trkpt>
      <trkpt lat="43.403956973925233" lon="-6.041750991716981">
        <ele>47.719999999999999</ele>
        <time>2025-04-29T13:26:34Z</time>
      </trkpt>
      <trkpt lat="43.403915986418724" lon="-6.041915025562048">
        <ele>47.719999999999999</ele>
        <time>2025-04-29T13:26:35Z</time>
      </trkpt>
      <trkpt lat="43.403872987255454" lon="-6.042088028043509">
        <ele>47.240000000000002</ele>
        <time>2025-04-29T13:26:36Z</time>
      </trkpt>
      <trkpt lat="43.403850020840764" lon="-6.042259018868208">
        <ele>47.240000000000002</ele>
        <time>2025-04-29T13:26:37Z</time>
      </trkpt>
      <trkpt lat="43.403850020840764" lon="-6.042396984994412">
        <ele>46.759999999999998</ele>
        <time>2025-04-29T13:26:38Z</time>
      </trkpt>
      <trkpt lat="43.40388597920537" lon="-6.042541991919279">
        <ele>46.759999999999998</ele>
        <time>2025-04-29T13:26:39Z</time>
      </trkpt>
      <trkpt lat="43.403927972540259" lon="-6.042686998844147">
        <ele>46.280000000000001</ele>
        <time>2025-04-29T13:26:40Z</time>
      </trkpt>
      <trkpt lat="43.404052024707198" lon="-6.043012971058488">
        <ele>46.280000000000001</ele>
        <time>2025-04-29T13:26:42Z</time>
      </trkpt>
      <trkpt lat="43.40420700609684" lon="-6.043364005163312">
        <ele>45.799999999999997</ele>
        <time>2025-04-29T13:26:44Z</time>
      </trkpt>
      <trkpt lat="43.404280012473464" lon="-6.043563997372985">
        <ele>45.32</ele>
        <time>2025-04-29T13:26:45Z</time>
      </trkpt>
      <trkpt lat="43.404472041875124" lon="-6.044089961796999">
        <ele>44.840000000000003</ele>
        <time>2025-04-29T13:26:48Z</time>
      </trkpt>
      <trkpt lat="43.404499031603336" lon="-6.04430302977562">
        <ele>44.840000000000003</ele>
        <time>2025-04-29T13:26:49Z</time>
      </trkpt>
      <trkpt lat="43.404523003846407" lon="-6.044494975358248">
        <ele>44.840000000000003</ele>
        <time>2025-04-29T13:26:50Z</time>
      </trkpt>
      <trkpt lat="43.404547981917858" lon="-6.044692033901811">
        <ele>44.359999999999999</ele>
        <time>2025-04-29T13:26:51Z</time>
      </trkpt>
      <trkpt lat="43.404572959989309" lon="-6.044894959777594">
        <ele>44.359999999999999</ele>
        <time>2025-04-29T13:26:52Z</time>
      </trkpt>
      <trkpt lat="43.404599027708173" lon="-6.04510098695755">
        <ele>44.359999999999999</ele>
        <time>2025-04-29T13:26:53Z</time>
      </trkpt>
      <trkpt lat="43.404684020206332" lon="-6.045309025794268">
        <ele>44.359999999999999</ele>
        <time>2025-04-29T13:26:54Z</time>
      </trkpt>
      <trkpt lat="43.404769012704492" lon="-6.045503988862038">
        <ele>44.840000000000003</ele>
        <time>2025-04-29T13:26:55Z</time>
      </trkpt>
      <trkpt lat="43.404855011031032" lon="-6.04570004157722">
        <ele>45.32</ele>
        <time>2025-04-29T13:26:56Z</time>
      </trkpt>
      <trkpt lat="43.405199004337192" lon="-6.046856995671988">
        <ele>49.159999999999997</ele>
        <time>2025-04-29T13:27:02Z</time>
      </trkpt>
      <trkpt lat="43.40519598685205" lon="-6.047022035345435">
        <ele>50.130000000000003</ele>
        <time>2025-04-29T13:27:03Z</time>
      </trkpt>
      <trkpt lat="43.405190035700798" lon="-6.047192020341754">
        <ele>50.609999999999999</ele>
        <time>2025-04-29T13:27:04Z</time>
      </trkpt>
      <trkpt lat="43.405179977416992" lon="-6.047437023371458">
        <ele>51.57</ele>
        <time>2025-04-29T13:27:06Z</time>
      </trkpt>
      <trkpt lat="43.405288020148873" lon="-6.047581024467945">
        <ele>52.049999999999997</ele>
        <time>2025-04-29T13:27:07Z</time>
      </trkpt>
      <trkpt lat="43.405380975455046" lon="-6.047673979774118">
        <ele>53.009999999999998</ele>
        <time>2025-04-29T13:27:08Z</time>
      </trkpt>
      <trkpt lat="43.40549798682332" lon="-6.047779005020857">
        <ele>53.969999999999999</ele>
        <time>2025-04-29T13:27:09Z</time>
      </trkpt>
      <trkpt lat="43.405637964606285" lon="-6.047838013619185">
        <ele>54.450000000000003</ele>
        <time>2025-04-29T13:27:10Z</time>
      </trkpt>
      <trkpt lat="43.405781965702772" lon="-6.047885036095977">
        <ele>55.409999999999997</ele>
        <time>2025-04-29T13:27:11Z</time>
      </trkpt>
      <trkpt lat="43.40590501204133" lon="-6.047924011945725">
        <ele>56.369999999999997</ele>
        <time>2025-04-29T13:27:12Z</time>
      </trkpt>
      <trkpt lat="43.406002996489406" lon="-6.047955024987459">
        <ele>57.82</ele>
        <time>2025-04-29T13:27:13Z</time>
      </trkpt>
      <trkpt lat="43.406093018129468" lon="-6.048029959201813">
        <ele>58.780000000000001</ele>
        <time>2025-04-29T13:27:14Z</time>
      </trkpt>
      <trkpt lat="43.406153032556176" lon="-6.048159040510654">
        <ele>60.700000000000003</ele>
        <time>2025-04-29T13:27:15Z</time>
      </trkpt>
      <trkpt lat="43.406209023669362" lon="-6.048416029661894">
        <ele>63.100000000000001</ele>
        <time>2025-04-29T13:27:17Z</time>
      </trkpt>
      <trkpt lat="43.406240036711097" lon="-6.048534968867898">
        <ele>64.549999999999997</ele>
        <time>2025-04-29T13:27:18Z</time>
      </trkpt>
      <trkpt lat="43.406269960105419" lon="-6.048652986064553">
        <ele>65.989999999999995</ele>
        <time>2025-04-29T13:27:19Z</time>
      </trkpt>
      <trkpt lat="43.406303990632296" lon="-6.048782989382744">
        <ele>67.430000000000007</ele>
        <time>2025-04-29T13:27:20Z</time>
      </trkpt>
      <trkpt lat="43.406339026987553" lon="-6.048918021842837">
        <ele>68.870000000000005</ele>
        <time>2025-04-29T13:27:21Z</time>
      </trkpt>
      <trkpt lat="43.406389988958836" lon="-6.049017012119293">
        <ele>69.829999999999998</ele>
        <time>2025-04-29T13:27:22Z</time>
      </trkpt>
      <trkpt lat="43.406450003385544" lon="-6.049132011830807">
        <ele>71.269999999999996</ele>
        <time>2025-04-29T13:27:23Z</time>
      </trkpt>
      <trkpt lat="43.406810006126761" lon="-6.049703992903233">
        <ele>76.560000000000002</ele>
        <time>2025-04-29T13:27:28Z</time>
      </trkpt>
      <trkpt lat="43.40689399279654" lon="-6.04978596791625">
        <ele>77.519999999999996</ele>
        <time>2025-04-29T13:27:29Z</time>
      </trkpt>
      <trkpt lat="43.407004969194531" lon="-6.049844976514578">
        <ele>78.480000000000004</ele>
        <time>2025-04-29T13:27:30Z</time>
      </trkpt>
      <trkpt lat="43.407118041068316" lon="-6.049903985112906">
        <ele>79.930000000000007</ele>
        <time>2025-04-29T13:27:31Z</time>
      </trkpt>
      <trkpt lat="43.407243015244603" lon="-6.049972968176007">
        <ele>80.890000000000001</ele>
        <time>2025-04-29T13:27:32Z</time>
      </trkpt>
      <trkpt lat="43.407328007742763" lon="-6.050100037828088">
        <ele>82.329999999999998</ele>
        <time>2025-04-29T13:27:33Z</time>
      </trkpt>
      <trkpt lat="43.407533029094338" lon="-6.050488958135247">
        <ele>85.689999999999998</ele>
        <time>2025-04-29T13:27:36Z</time>
      </trkpt>
      <trkpt lat="43.40760100632906" lon="-6.050671013072133">
        <ele>86.659999999999997</ele>
        <time>2025-04-29T13:27:37Z</time>
      </trkpt>
      <trkpt lat="43.407587008550763" lon="-6.050813002511859">
        <ele>88.099999999999994</ele>
        <time>2025-04-29T13:27:38Z</time>
      </trkpt>
      <trkpt lat="43.407569993287325" lon="-6.050969995558262">
        <ele>89.060000000000002</ele>
        <time>2025-04-29T13:27:39Z</time>
      </trkpt>
      <trkpt lat="43.407553983852267" lon="-6.051127994433045">
        <ele>90.019999999999996</ele>
        <time>2025-04-29T13:27:40Z</time>
      </trkpt>
      <trkpt lat="43.407540991902351" lon="-6.051256991922855">
        <ele>91.459999999999994</ele>
        <time>2025-04-29T13:27:41Z</time>
      </trkpt>
      <trkpt lat="43.407554989680648" lon="-6.051413984969258">
        <ele>92.420000000000002</ele>
        <time>2025-04-29T13:27:42Z</time>
      </trkpt>
      <trkpt lat="43.407584996894002" lon="-6.051530996337533">
        <ele>93.870000000000005</ele>
        <time>2025-04-29T13:27:43Z</time>
      </trkpt>
      <trkpt lat="43.407654985785484" lon="-6.051648007705808">
        <ele>94.349999999999994</ele>
        <time>2025-04-29T13:27:44Z</time>
      </trkpt>
      <trkpt lat="43.407727992162108" lon="-6.051768958568573">
        <ele>95.790000000000006</ele>
        <time>2025-04-29T13:27:45Z</time>
      </trkpt>
      <trkpt lat="43.408083971589804" lon="-6.052284026518464">
        <ele>100.59999999999999</ele>
        <time>2025-04-29T13:27:49Z</time>
      </trkpt>
      <trkpt lat="43.408196037635207" lon="-6.052381005138159">
        <ele>101.56</ele>
        <time>2025-04-29T13:27:50Z</time>
      </trkpt>
      <trkpt lat="43.408713033422828" lon="-6.052818959578872">
        <ele>106.36</ele>
        <time>2025-04-29T13:27:55Z</time>
      </trkpt>
      <trkpt lat="43.408829960972071" lon="-6.052873022854328">
        <ele>106.84</ele>
        <time>2025-04-29T13:27:56Z</time>
      </trkpt>
      <trkpt lat="43.409174038097262" lon="-6.053021969273686">
        <ele>108.77</ele>
        <time>2025-04-29T13:27:59Z</time>
      </trkpt>
      <trkpt lat="43.40927897952497" lon="-6.05309103615582">
        <ele>109.73</ele>
        <time>2025-04-29T13:28:00Z</time>
      </trkpt>
      <trkpt lat="43.409363972023129" lon="-6.053221961483359">
        <ele>110.20999999999999</ele>
        <time>2025-04-29T13:28:01Z</time>
      </trkpt>
      <trkpt lat="43.410080960020423" lon="-6.054263999685645">
        <ele>113.09</ele>
        <time>2025-04-29T13:28:09Z</time>
      </trkpt>
      <trkpt lat="43.410189002752304" lon="-6.054366007447243">
        <ele>112.61</ele>
        <time>2025-04-29T13:28:10Z</time>
      </trkpt>
      <trkpt lat="43.410305008292198" lon="-6.054474972188473">
        <ele>112.13</ele>
        <time>2025-04-29T13:28:11Z</time>
      </trkpt>
      <trkpt lat="43.410399975255132" lon="-6.054598018527031">
        <ele>111.65000000000001</ele>
        <time>2025-04-29T13:28:12Z</time>
      </trkpt>
      <trkpt lat="43.410477004945278" lon="-6.054772026836872">
        <ele>111.17</ele>
        <time>2025-04-29T13:28:13Z</time>
      </trkpt>
      <trkpt lat="43.410558979958296" lon="-6.054952992126346">
        <ele>111.17</ele>
        <time>2025-04-29T13:28:14Z</time>
      </trkpt>
      <trkpt lat="43.411047980189323" lon="-6.05633600614965">
        <ele>107.31999999999999</ele>
        <time>2025-04-29T13:28:21Z</time>
      </trkpt>
      <trkpt lat="43.411216037347913" lon="-6.056903963908553">
        <ele>105.88</ele>
        <time>2025-04-29T13:28:24Z</time>
      </trkpt>
      <trkpt lat="43.411292983219028" lon="-6.057048970833421">
        <ele>105.40000000000001</ele>
        <time>2025-04-29T13:28:25Z</time>
      </trkpt>
      <trkpt lat="43.41140303760767" lon="-6.057144021615386">
        <ele>104.92</ele>
        <time>2025-04-29T13:28:26Z</time>
      </trkpt>
      <trkpt lat="43.411531029269099" lon="-6.057220967486501">
        <ele>104.92</ele>
        <time>2025-04-29T13:28:27Z</time>
      </trkpt>
      <trkpt lat="43.411668995395303" lon="-6.057304032146931">
        <ele>104.92</ele>
        <time>2025-04-29T13:28:28Z</time>
      </trkpt>
      <trkpt lat="43.412947990000248" lon="-6.057968968525529">
        <ele>101.08</ele>
        <time>2025-04-29T13:28:36Z</time>
      </trkpt>
      <trkpt lat="43.413112023845315" lon="-6.058041974902153">
        <ele>100.11</ele>
        <time>2025-04-29T13:28:37Z</time>
      </trkpt>
      <trkpt lat="43.414553962647915" lon="-6.058226963505149">
        <ele>93.390000000000001</ele>
        <time>2025-04-29T13:28:45Z</time>
      </trkpt>
      <trkpt lat="43.414737023413181" lon="-6.058238027617335">
        <ele>92.420000000000002</ele>
        <time>2025-04-29T13:28:46Z</time>
      </trkpt>
      <trkpt lat="43.414916982874274" lon="-6.058287983760238">
        <ele>91.459999999999994</ele>
        <time>2025-04-29T13:28:47Z</time>
      </trkpt>
      <trkpt lat="43.415816025808454" lon="-6.058556959033012">
        <ele>87.620000000000005</ele>
        <time>2025-04-29T13:28:52Z</time>
      </trkpt>
      <trkpt lat="43.415963966399431" lon="-6.058669025078416">
        <ele>87.140000000000001</ele>
        <time>2025-04-29T13:28:53Z</time>
      </trkpt>
      <trkpt lat="43.416382977738976" lon="-6.059048976749182">
        <ele>85.209999999999994</ele>
        <time>2025-04-29T13:28:56Z</time>
      </trkpt>
      <trkpt lat="43.416536031290889" lon="-6.059132041409612">
        <ele>84.730000000000004</ele>
        <time>2025-04-29T13:28:57Z</time>
      </trkpt>
      <trkpt lat="43.416811041533947" lon="-6.059281993657351">
        <ele>84.25</ele>
        <time>2025-04-29T13:28:59Z</time>
      </trkpt>
      <trkpt lat="43.417014973238111" lon="-6.059319963678718">
        <ele>84.25</ele>
        <time>2025-04-29T13:29:00Z</time>
      </trkpt>
      <trkpt lat="43.417179007083178" lon="-6.059349970892072">
        <ele>84.730000000000004</ele>
        <time>2025-04-29T13:29:01Z</time>
      </trkpt>
      <trkpt lat="43.417389979586005" lon="-6.059389030560851">
        <ele>84.730000000000004</ele>
        <time>2025-04-29T13:29:02Z</time>
      </trkpt>
      <trkpt lat="43.417487964034081" lon="-6.059377966448665">
        <ele>84.25</ele>
        <time>2025-04-29T13:29:03Z</time>
      </trkpt>
      <trkpt lat="43.418369991704822" lon="-6.059198006987572">
        <ele>82.329999999999998</ele>
        <time>2025-04-29T13:29:09Z</time>
      </trkpt>
      <trkpt lat="43.419592995196581" lon="-6.058749994263053">
        <ele>78.480000000000004</ele>
        <time>2025-04-29T13:29:18Z</time>
      </trkpt>
      <trkpt lat="43.419699026271701" lon="-6.058684028685093">
        <ele>78</ele>
        <time>2025-04-29T13:29:19Z</time>
      </trkpt>
      <trkpt lat="43.419776977971196" lon="-6.058596018701792">
        <ele>78</ele>
        <time>2025-04-29T13:29:20Z</time>
      </trkpt>
      <trkpt lat="43.419794999063015" lon="-6.058465009555221">
        <ele>78</ele>
        <time>2025-04-29T13:29:21Z</time>
      </trkpt>
      <trkpt lat="43.419814025983214" lon="-6.058324025943875">
        <ele>77.519999999999996</ele>
        <time>2025-04-29T13:29:22Z</time>
      </trkpt>
      <trkpt lat="43.419833974912763" lon="-6.058172984048724">
        <ele>77.519999999999996</ele>
        <time>2025-04-29T13:29:23Z</time>
      </trkpt>
      <trkpt lat="43.419858030974865" lon="-6.057994030416012">
        <ele>77.519999999999996</ele>
        <time>2025-04-29T13:29:24Z</time>
      </trkpt>
      <trkpt lat="43.419906981289387" lon="-6.05786201544106">
        <ele>77.040000000000006</ele>
        <time>2025-04-29T13:29:25Z</time>
      </trkpt>
      <trkpt lat="43.41999901458621" lon="-6.05773201212287">
        <ele>77.040000000000006</ele>
        <time>2025-04-29T13:29:26Z</time>
      </trkpt>
      <trkpt lat="43.420103034004569" lon="-6.057607959955931">
        <ele>76.560000000000002</ele>
        <time>2025-04-29T13:29:27Z</time>
      </trkpt>
      <trkpt lat="43.420219039544463" lon="-6.057494971901178">
        <ele>76.079999999999998</ele>
        <time>2025-04-29T13:29:28Z</time>
      </trkpt>
      <trkpt lat="43.420352982357144" lon="-6.05738801881671">
        <ele>75.599999999999994</ele>
        <time>2025-04-29T13:29:29Z</time>
      </trkpt>
      <trkpt lat="43.420492960140109" lon="-6.057276958599687">
        <ele>75.599999999999994</ele>
        <time>2025-04-29T13:29:30Z</time>
      </trkpt>
      <trkpt lat="43.421452017500997" lon="-6.056575980037451">
        <ele>71.760000000000005</ele>
        <time>2025-04-29T13:29:37Z</time>
      </trkpt>
      <trkpt lat="43.421563999727368" lon="-6.056471038609743">
        <ele>71.269999999999996</ele>
        <time>2025-04-29T13:29:38Z</time>
      </trkpt>
      <trkpt lat="43.421670030802488" lon="-6.056370036676526">
        <ele>70.790000000000006</ele>
        <time>2025-04-29T13:29:39Z</time>
      </trkpt>
      <trkpt lat="43.421767009422183" lon="-6.056278003379703">
        <ele>70.310000000000002</ele>
        <time>2025-04-29T13:29:40Z</time>
      </trkpt>
      <trkpt lat="43.421887960284948" lon="-6.056238021701574">
        <ele>70.310000000000002</ele>
        <time>2025-04-29T13:29:41Z</time>
      </trkpt>
      <trkpt lat="43.422010000795126" lon="-6.056197034195066">
        <ele>69.829999999999998</ele>
        <time>2025-04-29T13:29:42Z</time>
      </trkpt>
      <trkpt lat="43.422141009941697" lon="-6.056153029203415">
        <ele>69.349999999999994</ele>
        <time>2025-04-29T13:29:43Z</time>
      </trkpt>
      <trkpt lat="43.422546023502946" lon="-6.056017996743321">
        <ele>68.870000000000005</ele>
        <time>2025-04-29T13:29:46Z</time>
      </trkpt>
      <trkpt lat="43.422667980194092" lon="-6.055977009236813">
        <ele>68.390000000000001</ele>
        <time>2025-04-29T13:29:47Z</time>
      </trkpt>
      <trkpt lat="43.422758001834154" lon="-6.055848011747003">
        <ele>67.430000000000007</ele>
        <time>2025-04-29T13:29:48Z</time>
      </trkpt>
      <trkpt lat="43.422852968797088" lon="-6.055711973458529">
        <ele>66.950000000000003</ele>
        <time>2025-04-29T13:29:49Z</time>
      </trkpt>
      <trkpt lat="43.422954976558685" lon="-6.055564032867551">
        <ele>66.469999999999999</ele>
        <time>2025-04-29T13:29:50Z</time>
      </trkpt>
      <trkpt lat="43.423064025118947" lon="-6.055411985144019">
        <ele>65.989999999999995</ele>
        <time>2025-04-29T13:29:51Z</time>
      </trkpt>
      <trkpt lat="43.423207020387053" lon="-6.055303020402789">
        <ele>65.510000000000005</ele>
        <time>2025-04-29T13:29:52Z</time>
      </trkpt>
      <trkpt lat="43.423360995948315" lon="-6.055189026519656">
        <ele>65.030000000000001</ele>
        <time>2025-04-29T13:29:53Z</time>
      </trkpt>
      <trkpt lat="43.425028994679451" lon="-6.054213037714362">
        <ele>59.740000000000002</ele>
        <time>2025-04-29T13:30:02Z</time>
      </trkpt>
      <trkpt lat="43.426416032016277" lon="-6.053184997290373">
        <ele>57.340000000000003</ele>
        <time>2025-04-29T13:30:10Z</time>
      </trkpt>
      <trkpt lat="43.42655198648572" lon="-6.053059017285705">
        <ele>57.340000000000003</ele>
        <time>2025-04-29T13:30:11Z</time>
      </trkpt>
      <trkpt lat="43.426749967038631" lon="-6.052975030615926">
        <ele>56.369999999999997</ele>
        <time>2025-04-29T13:30:12Z</time>
      </trkpt>
      <trkpt lat="43.426935961470008" lon="-6.052895989269018">
        <ele>55.890000000000001</ele>
        <time>2025-04-29T13:30:13Z</time>
      </trkpt>
      <trkpt lat="43.42713201418519" lon="-6.05281300842762">
        <ele>54.93</ele>
        <time>2025-04-29T13:30:14Z</time>
      </trkpt>
      <trkpt lat="43.427329994738102" lon="-6.052720975130796">
        <ele>53.969999999999999</ele>
        <time>2025-04-29T13:30:15Z</time>
      </trkpt>
      <trkpt lat="43.427515989169478" lon="-6.052617961540818">
        <ele>53.009999999999998</ele>
        <time>2025-04-29T13:30:16Z</time>
      </trkpt>
      <trkpt lat="43.428472029045224" lon="-6.052002981305122">
        <ele>48.200000000000003</ele>
        <time>2025-04-29T13:30:22Z</time>
      </trkpt>
      <trkpt lat="43.428615024313331" lon="-6.051990995183587">
        <ele>47.240000000000002</ele>
        <time>2025-04-29T13:30:23Z</time>
      </trkpt>
      <trkpt lat="43.428768999874592" lon="-6.052007004618645">
        <ele>46.759999999999998</ele>
        <time>2025-04-29T13:30:24Z</time>
      </trkpt>
      <trkpt lat="43.429899970069528" lon="-6.052188975736499">
        <ele>41.950000000000003</ele>
        <time>2025-04-29T13:30:32Z</time>
      </trkpt>
      <trkpt lat="43.430265001952648" lon="-6.052247984334827">
        <ele>40.990000000000002</ele>
        <time>2025-04-29T13:30:35Z</time>
      </trkpt>
      <trkpt lat="43.430411014705896" lon="-6.052248990163207">
        <ele>40.990000000000002</ele>
        <time>2025-04-29T13:30:36Z</time>
      </trkpt>
      <trkpt lat="43.430521991103888" lon="-6.052200961858034">
        <ele>40.509999999999998</ele>
        <time>2025-04-29T13:30:37Z</time>
      </trkpt>
      <trkpt lat="43.430621987208724" lon="-6.052112029865384">
        <ele>40.509999999999998</ele>
        <time>2025-04-29T13:30:38Z</time>
      </trkpt>
      <trkpt lat="43.430709997192025" lon="-6.052033994346857">
        <ele>40.030000000000001</ele>
        <time>2025-04-29T13:30:39Z</time>
      </trkpt>
      <trkpt lat="43.430820973590016" lon="-6.052007004618645">
        <ele>39.549999999999997</ele>
        <time>2025-04-29T13:30:40Z</time>
      </trkpt>
      <trkpt lat="43.430922981351614" lon="-6.051984960213304">
        <ele>39.549999999999997</ele>
        <time>2025-04-29T13:30:41Z</time>
      </trkpt>
      <trkpt lat="43.431020965799689" lon="-6.051966017112136">
        <ele>39.549999999999997</ele>
        <time>2025-04-29T13:30:42Z</time>
      </trkpt>
      <trkpt lat="43.431295976042747" lon="-6.052044974640012">
        <ele>40.030000000000001</ele>
        <time>2025-04-29T13:30:45Z</time>
      </trkpt>
      <trkpt lat="43.431377029046416" lon="-6.052102977409959">
        <ele>40.509999999999998</ele>
        <time>2025-04-29T13:30:46Z</time>
      </trkpt>
      <trkpt lat="43.431453974917531" lon="-6.052169026806951">
        <ele>40.990000000000002</ele>
        <time>2025-04-29T13:30:47Z</time>
      </trkpt>
      <trkpt lat="43.431502003222704" lon="-6.052284026518464">
        <ele>40.990000000000002</ele>
        <time>2025-04-29T13:30:48Z</time>
      </trkpt>
      <trkpt lat="43.431546008214355" lon="-6.052414029836655">
        <ele>40.509999999999998</ele>
        <time>2025-04-29T13:30:49Z</time>
      </trkpt>
      <trkpt lat="43.431593030691147" lon="-6.052551995962858">
        <ele>40.990000000000002</ele>
        <time>2025-04-29T13:30:50Z</time>
      </trkpt>
      <trkpt lat="43.432081025093794" lon="-6.054094014689326">
        <ele>40.030000000000001</ele>
        <time>2025-04-29T13:30:59Z</time>
      </trkpt>
      <trkpt lat="43.432255033403635" lon="-6.054693991318345">
        <ele>39.07</ele>
        <time>2025-04-29T13:31:02Z</time>
      </trkpt>
      <trkpt lat="43.432253021746874" lon="-6.054902030155063">
        <ele>39.549999999999997</ele>
        <time>2025-04-29T13:31:03Z</time>
      </trkpt>
      <trkpt lat="43.432243969291449" lon="-6.055116020143032">
        <ele>39.07</ele>
        <time>2025-04-29T13:31:04Z</time>
      </trkpt>
      <trkpt lat="43.432221002876759" lon="-6.05532699264586">
        <ele>39.07</ele>
        <time>2025-04-29T13:31:05Z</time>
      </trkpt>
      <trkpt lat="43.432173980399966" lon="-6.055540982633829">
        <ele>38.590000000000003</ele>
        <time>2025-04-29T13:31:06Z</time>
      </trkpt>
      <trkpt lat="43.432046994566917" lon="-6.056211031973362">
        <ele>37.630000000000003</ele>
        <time>2025-04-29T13:31:09Z</time>
      </trkpt>
      <trkpt lat="43.432024028152227" lon="-6.056443965062499">
        <ele>38.109999999999999</ele>
        <time>2025-04-29T13:31:10Z</time>
      </trkpt>
      <trkpt lat="43.431907016783953" lon="-6.057792026549578">
        <ele>37.630000000000003</ele>
        <time>2025-04-29T13:31:17Z</time>
      </trkpt>
      <trkpt lat="43.431873992085457" lon="-6.058225035667419">
        <ele>36.670000000000002</ele>
        <time>2025-04-29T13:31:21Z</time>
      </trkpt>
      <trkpt lat="43.431844990700483" lon="-6.058373982086778">
        <ele>35.710000000000001</ele>
        <time>2025-04-29T13:31:24Z</time>
      </trkpt>
      <trkpt lat="43.431802997365594" lon="-6.058365013450384">
        <ele>35.229999999999997</ele>
        <time>2025-04-29T13:31:25Z</time>
      </trkpt>
      <trkpt lat="43.431737031787634" lon="-6.058350009843707">
        <ele>35.229999999999997</ele>
        <time>2025-04-29T13:31:26Z</time>
      </trkpt>
      <trkpt lat="43.430929016321898" lon="-6.058315979316831">
        <ele>34.259999999999998</ele>
        <time>2025-04-29T13:31:34Z</time>
      </trkpt>
      <trkpt lat="43.430704968050122" lon="-6.058256970718503">
        <ele>35.229999999999997</ele>
        <time>2025-04-29T13:31:36Z</time>
      </trkpt>
      <trkpt lat="43.430604971945286" lon="-6.058174995705485">
        <ele>35.710000000000001</ele>
        <time>2025-04-29T13:31:37Z</time>
      </trkpt>
      <trkpt lat="43.430508999153972" lon="-6.058059995993972">
        <ele>36.189999999999998</ele>
        <time>2025-04-29T13:31:38Z</time>
      </trkpt>
      <trkpt lat="43.430410008877516" lon="-6.057941978797317">
        <ele>36.670000000000002</ele>
        <time>2025-04-29T13:31:39Z</time>
      </trkpt>
      <trkpt lat="43.430329039692879" lon="-6.057843994349241">
        <ele>37.630000000000003</ele>
        <time>2025-04-29T13:31:40Z</time>
      </trkpt>
      <trkpt lat="43.430236000567675" lon="-6.057778028771281">
        <ele>38.590000000000003</ele>
        <time>2025-04-29T13:31:41Z</time>
      </trkpt>
      <trkpt lat="43.430143967270851" lon="-6.057735029608011">
        <ele>39.549999999999997</ele>
        <time>2025-04-29T13:31:42Z</time>
      </trkpt>
      <trkpt lat="43.430021004751325" lon="-6.057730000466108">
        <ele>40.509999999999998</ele>
        <time>2025-04-29T13:31:43Z</time>
      </trkpt>
      <trkpt lat="43.429893013089895" lon="-6.057722959667444">
        <ele>40.990000000000002</ele>
        <time>2025-04-29T13:31:44Z</time>
      </trkpt>
      <trkpt lat="43.429768038913608" lon="-6.057718014344573">
        <ele>41.950000000000003</ele>
        <time>2025-04-29T13:31:45Z</time>
      </trkpt>
      <trkpt lat="43.429647004231811" lon="-6.057743998244405">
        <ele>42.439999999999998</ele>
        <time>2025-04-29T13:31:46Z</time>
      </trkpt>
      <trkpt lat="43.429506020620465" lon="-6.057794038206339">
        <ele>43.399999999999999</ele>
        <time>2025-04-29T13:31:47Z</time>
      </trkpt>
      <trkpt lat="43.429363025352359" lon="-6.057843994349241">
        <ele>43.880000000000003</ele>
        <time>2025-04-29T13:31:48Z</time>
      </trkpt>
      <trkpt lat="43.429240984842181" lon="-6.057924963533878">
        <ele>44.359999999999999</ele>
        <time>2025-04-29T13:31:49Z</time>
      </trkpt>
      <trkpt lat="43.428994975984097" lon="-6.058105006814003">
        <ele>45.799999999999997</ele>
        <time>2025-04-29T13:31:51Z</time>
      </trkpt>
      <trkpt lat="43.428505975753069" lon="-6.058594007045031">
        <ele>49.159999999999997</ele>
        <time>2025-04-29T13:31:56Z</time>
      </trkpt>
      <trkpt lat="43.428398016840219" lon="-6.058853007853031">
        <ele>50.130000000000003</ele>
        <time>2025-04-29T13:31:57Z</time>
      </trkpt>
      <trkpt lat="43.428393993526697" lon="-6.058881003409624">
        <ele>50.609999999999999</ele>
        <time>2025-04-29T13:31:58Z</time>
      </trkpt>
      <trkpt lat="43.428375972434878" lon="-6.059023998677731">
        <ele>51.090000000000003</ele>
        <time>2025-04-29T13:31:59Z</time>
      </trkpt>
      <trkpt lat="43.428299026563764" lon="-6.059088036417961">
        <ele>51.57</ele>
        <time>2025-04-29T13:32:00Z</time>
      </trkpt>
      <trkpt lat="43.428192995488644" lon="-6.059084013104439">
        <ele>52.049999999999997</ele>
        <time>2025-04-29T13:32:01Z</time>
      </trkpt>
      <trkpt lat="43.42807698994875" lon="-6.059078983962536">
        <ele>52.530000000000001</ele>
        <time>2025-04-29T13:32:02Z</time>
      </trkpt>
      <trkpt lat="43.427962996065617" lon="-6.059074038639665">
        <ele>52.530000000000001</ele>
        <time>2025-04-29T13:32:03Z</time>
      </trkpt>
      <trkpt lat="43.427817989140749" lon="-6.059066997841001">
        <ele>53.490000000000002</ele>
        <time>2025-04-29T13:32:04Z</time>
      </trkpt>
      <trkpt lat="43.427741965278983" lon="-6.059099016711116">
        <ele>54.450000000000003</ele>
        <time>2025-04-29T13:32:05Z</time>
      </trkpt>
      <trkpt lat="43.42751900665462" lon="-6.059191972017288">
        <ele>55.890000000000001</ele>
        <time>2025-04-29T13:32:07Z</time>
      </trkpt>
      <trkpt lat="43.427413981407881" lon="-6.059235977008939">
        <ele>56.859999999999999</ele>
        <time>2025-04-29T13:32:08Z</time>
      </trkpt>
      <trkpt lat="43.42730300500989" lon="-6.059281993657351">
        <ele>57.82</ele>
        <time>2025-04-29T13:32:09Z</time>
      </trkpt>
      <trkpt lat="43.42721801251173" lon="-6.059367991983891">
        <ele>58.299999999999997</ele>
        <time>2025-04-29T13:32:10Z</time>
      </trkpt>
      <trkpt lat="43.427159003913403" lon="-6.059510987251997">
        <ele>59.740000000000002</ele>
        <time>2025-04-29T13:32:11Z</time>
      </trkpt>
      <trkpt lat="43.427118016406894" lon="-6.059649037197232">
        <ele>60.700000000000003</ele>
        <time>2025-04-29T13:32:12Z</time>
      </trkpt>
      <trkpt lat="43.427075017243624" lon="-6.059792032465339">
        <ele>62.140000000000001</ele>
        <time>2025-04-29T13:32:13Z</time>
      </trkpt>
      <trkpt lat="43.426930010318756" lon="-6.060383962467313">
        <ele>67.430000000000007</ele>
        <time>2025-04-29T13:32:17Z</time>
      </trkpt>
      <trkpt lat="43.426936967298388" lon="-6.060551013797522">
        <ele>67.909999999999997</ele>
        <time>2025-04-29T13:32:18Z</time>
      </trkpt>
      <trkpt lat="43.426980972290039" lon="-6.060696020722389">
        <ele>68.390000000000001</ele>
        <time>2025-04-29T13:32:19Z</time>
      </trkpt>
      <trkpt lat="43.42702497728169" lon="-6.060842033475637">
        <ele>68.390000000000001</ele>
        <time>2025-04-29T13:32:20Z</time>
      </trkpt>
      <trkpt lat="43.427069988101721" lon="-6.060979999601841">
        <ele>68.870000000000005</ele>
        <time>2025-04-29T13:32:21Z</time>
      </trkpt>
      <trkpt lat="43.427119022235274" lon="-6.061114026233554">
        <ele>68.870000000000005</ele>
        <time>2025-04-29T13:32:22Z</time>
      </trkpt>
      <trkpt lat="43.42749604023993" lon="-6.062156986445189">
        <ele>67.909999999999997</ele>
        <time>2025-04-29T13:32:30Z</time>
      </trkpt>
      <trkpt lat="43.427529986947775" lon="-6.062312973663211">
        <ele>67.909999999999997</ele>
        <time>2025-04-29T13:32:31Z</time>
      </trkpt>
      <trkpt lat="43.42756099998951" lon="-6.062457980588079">
        <ele>67.909999999999997</ele>
        <time>2025-04-29T13:32:32Z</time>
      </trkpt>
      <trkpt lat="43.427533004432917" lon="-6.062585972249508">
        <ele>67.909999999999997</ele>
        <time>2025-04-29T13:32:33Z</time>
      </trkpt>
      <trkpt lat="43.427500985562801" lon="-6.06273801997304">
        <ele>67.909999999999997</ele>
        <time>2025-04-29T13:32:34Z</time>
      </trkpt>
      <trkpt lat="43.427466033026576" lon="-6.062899958342314">
        <ele>67.430000000000007</ele>
        <time>2025-04-29T13:32:35Z</time>
      </trkpt>
      <trkpt lat="43.427171995863318" lon="-6.064583966508508">
        <ele>63.100000000000001</ele>
        <time>2025-04-29T13:32:43Z</time>
      </trkpt>
      <trkpt lat="43.42713201418519" lon="-6.065532965585589">
        <ele>59.740000000000002</ele>
        <time>2025-04-29T13:32:47Z</time>
      </trkpt>
      <trkpt lat="43.42711097560823" lon="-6.065761959180236">
        <ele>59.259999999999998</ele>
        <time>2025-04-29T13:32:48Z</time>
      </trkpt>
      <trkpt lat="43.426836971193552" lon="-6.067038020119071">
        <ele>53.969999999999999</ele>
        <time>2025-04-29T13:32:54Z</time>
      </trkpt>
      <trkpt lat="43.426752984523773" lon="-6.067158970981836">
        <ele>53.490000000000002</ele>
        <time>2025-04-29T13:32:55Z</time>
      </trkpt>
      <trkpt lat="43.426673021167517" lon="-6.06727397069335">
        <ele>53.009999999999998</ele>
        <time>2025-04-29T13:32:56Z</time>
      </trkpt>
      <trkpt lat="43.426600014790893" lon="-6.067378995940089">
        <ele>52.530000000000001</ele>
        <time>2025-04-29T13:32:57Z</time>
      </trkpt>
      <trkpt lat="43.426531031727791" lon="-6.067478992044926">
        <ele>52.049999999999997</ele>
        <time>2025-04-29T13:32:58Z</time>
      </trkpt>
      <trkpt lat="43.426483003422618" lon="-6.067585023120046">
        <ele>51.57</ele>
        <time>2025-04-29T13:32:59Z</time>
      </trkpt>
      <trkpt lat="43.426464982330799" lon="-6.067716032266617">
        <ele>51.57</ele>
        <time>2025-04-29T13:33:00Z</time>
      </trkpt>
      <trkpt lat="43.426510998979211" lon="-6.067817034199834">
        <ele>51.090000000000003</ele>
        <time>2025-04-29T13:33:01Z</time>
      </trkpt>
      <trkpt lat="43.4265529923141" lon="-6.067909989506006">
        <ele>51.090000000000003</ele>
        <time>2025-04-29T13:33:02Z</time>
      </trkpt>
      <trkpt lat="43.426592973992229" lon="-6.067997999489307">
        <ele>51.090000000000003</ele>
        <time>2025-04-29T13:33:03Z</time>
      </trkpt>
      <trkpt lat="43.426660029217601" lon="-6.068144012242556">
        <ele>51.090000000000003</ele>
        <time>2025-04-29T13:33:04Z</time>
      </trkpt>
      <trkpt lat="43.426667992025614" lon="-6.06819799169898">
        <ele>51.090000000000003</ele>
        <time>2025-04-29T13:33:05Z</time>
      </trkpt>
      <trkpt lat="43.426688024774194" lon="-6.068327995017171">
        <ele>51.090000000000003</ele>
        <time>2025-04-29T13:33:06Z</time>
      </trkpt>
      <trkpt lat="43.426709985360503" lon="-6.068474007770419">
        <ele>50.609999999999999</ele>
        <time>2025-04-29T13:33:07Z</time>
      </trkpt>
      <trkpt lat="43.426930010318756" lon="-6.069927010685206">
        <ele>52.049999999999997</ele>
        <time>2025-04-29T13:33:15Z</time>
      </trkpt>
      <trkpt lat="43.427298981696367" lon="-6.071730041876435">
        <ele>50.609999999999999</ele>
        <time>2025-04-29T13:33:23Z</time>
      </trkpt>
      <trkpt lat="43.427376011386514" lon="-6.071950988844037">
        <ele>50.130000000000003</ele>
        <time>2025-04-29T13:33:24Z</time>
      </trkpt>
      <trkpt lat="43.427640963345766" lon="-6.072543002665043">
        <ele>48.200000000000003</ele>
        <time>2025-04-29T13:33:27Z</time>
      </trkpt>
      <trkpt lat="43.42773400247097" lon="-6.072723967954516">
        <ele>47.719999999999999</ele>
        <time>2025-04-29T13:33:28Z</time>
      </trkpt>
      <trkpt lat="43.42784196138382" lon="-6.072872998192906">
        <ele>47.240000000000002</ele>
        <time>2025-04-29T13:33:29Z</time>
      </trkpt>
      <trkpt lat="43.428198024630547" lon="-6.073361998423934">
        <ele>47.240000000000002</ele>
        <time>2025-04-29T13:33:32Z</time>
      </trkpt>
      <trkpt lat="43.428674032911658" lon="-6.073945965617895">
        <ele>47.240000000000002</ele>
        <time>2025-04-29T13:33:36Z</time>
      </trkpt>
      <trkpt lat="43.428961029276252" lon="-6.074248971417546">
        <ele>47.240000000000002</ele>
        <time>2025-04-29T13:33:38Z</time>
      </trkpt>
      <trkpt lat="43.429120033979416" lon="-6.074315020814538">
        <ele>47.240000000000002</ele>
        <time>2025-04-29T13:33:39Z</time>
      </trkpt>
      <trkpt lat="43.42960299924016" lon="-6.074515013024211">
        <ele>47.240000000000002</ele>
        <time>2025-04-29T13:33:42Z</time>
      </trkpt>
      <trkpt lat="43.429766027256846" lon="-6.074582990258932">
        <ele>47.240000000000002</ele>
        <time>2025-04-29T13:33:43Z</time>
      </trkpt>
      <trkpt lat="43.430517967790365" lon="-6.074504032731056">
        <ele>48.200000000000003</ele>
        <time>2025-04-29T13:33:47Z</time>
      </trkpt>
      <trkpt lat="43.430690970271826" lon="-6.07444804161787">
        <ele>48.68</ele>
        <time>2025-04-29T13:33:48Z</time>
      </trkpt>
      <trkpt lat="43.430864978581667" lon="-6.074390960857272">
        <ele>48.68</ele>
        <time>2025-04-29T13:33:49Z</time>
      </trkpt>
      <trkpt lat="43.431617002934217" lon="-6.074144029989839">
        <ele>46.280000000000001</ele>
        <time>2025-04-29T13:33:55Z</time>
      </trkpt>
      <trkpt lat="43.431732002645731" lon="-6.07410597614944">
        <ele>43.399999999999999</ele>
        <time>2025-04-29T13:34:02Z</time>
      </trkpt>
      <trkpt lat="43.431732002645731" lon="-6.07410597614944">
        <ele>42.920000000000002</ele>
        <time>2025-04-29T13:34:28Z</time>
      </trkpt>
      <trkpt lat="43.431787993758917" lon="-6.074088038876653">
        <ele>41.950000000000003</ele>
        <time>2025-04-29T13:35:08Z</time>
      </trkpt>
      <trkpt lat="43.43183702789247" lon="-6.074119973927736">
        <ele>41.469999999999999</ele>
        <time>2025-04-29T13:35:09Z</time>
      </trkpt>
      <trkpt lat="43.431986980140209" lon="-6.074219970032573">
        <ele>40.990000000000002</ele>
        <time>2025-04-29T13:35:11Z</time>
      </trkpt>
      <trkpt lat="43.432107008993626" lon="-6.074198009446263">
        <ele>40.509999999999998</ele>
        <time>2025-04-29T13:35:12Z</time>
      </trkpt>
      <trkpt lat="43.432153025642037" lon="-6.074151992797852">
        <ele>40.509999999999998</ele>
        <time>2025-04-29T13:35:13Z</time>
      </trkpt>
      <trkpt lat="43.432251010090113" lon="-6.074011009186506">
        <ele>40.509999999999998</ele>
        <time>2025-04-29T13:35:14Z</time>
      </trkpt>
      <trkpt lat="43.432348994538188" lon="-6.073902966454625">
        <ele>40.030000000000001</ele>
        <time>2025-04-29T13:35:15Z</time>
      </trkpt>
      <trkpt lat="43.43243801034987" lon="-6.073835995048285">
        <ele>40.030000000000001</ele>
        <time>2025-04-29T13:35:16Z</time>
      </trkpt>
      <trkpt lat="43.432559967041016" lon="-6.073743961751461">
        <ele>39.549999999999997</ele>
        <time>2025-04-29T13:35:17Z</time>
      </trkpt>
      <trkpt lat="43.43261000700295" lon="-6.073730969801545">
        <ele>39.549999999999997</ele>
        <time>2025-04-29T13:35:18Z</time>
      </trkpt>
      <trkpt lat="43.432683013379574" lon="-6.073710015043616">
        <ele>39.549999999999997</ele>
        <time>2025-04-29T13:35:19Z</time>
      </trkpt>
      <trkpt lat="43.432753002271056" lon="-6.073690988123417">
        <ele>39.549999999999997</ele>
        <time>2025-04-29T13:35:20Z</time>
      </trkpt>
      <trkpt lat="43.432894991710782" lon="-6.073651006445289">
        <ele>39.549999999999997</ele>
        <time>2025-04-29T13:35:22Z</time>
      </trkpt>
      <trkpt lat="43.433531010523438" lon="-6.073393011465669">
        <ele>41.950000000000003</ele>
        <time>2025-04-29T13:35:31Z</time>
      </trkpt>
      <trkpt lat="43.433828987181187" lon="-6.073369961231947">
        <ele>42.920000000000002</ele>
        <time>2025-04-29T13:35:35Z</time>
      </trkpt>
      <trkpt lat="43.433897970244288" lon="-6.073364010080695">
        <ele>42.920000000000002</ele>
        <time>2025-04-29T13:35:36Z</time>
      </trkpt>
      <trkpt lat="43.433983968570828" lon="-6.073351018130779">
        <ele>43.399999999999999</ele>
        <time>2025-04-29T13:35:37Z</time>
      </trkpt>
      <trkpt lat="43.434039959684014" lon="-6.073295027017593">
        <ele>44.359999999999999</ele>
        <time>2025-04-29T13:35:38Z</time>
      </trkpt>
      <trkpt lat="43.434089999645948" lon="-6.073244987055659">
        <ele>45.32</ele>
        <time>2025-04-29T13:35:39Z</time>
      </trkpt>
      <trkpt lat="43.434212962165475" lon="-6.073122024536133">
        <ele>47.719999999999999</ele>
        <time>2025-04-29T13:35:41Z</time>
      </trkpt>
      <trkpt lat="43.434258978813887" lon="-6.073098974302411">
        <ele>49.159999999999997</ele>
        <time>2025-04-29T13:35:42Z</time>
      </trkpt>
      <trkpt lat="43.434323016554117" lon="-6.073067039251328">
        <ele>50.130000000000003</ele>
        <time>2025-04-29T13:35:43Z</time>
      </trkpt>
      <trkpt lat="43.434397028759122" lon="-6.073029991239309">
        <ele>51.090000000000003</ele>
        <time>2025-04-29T13:35:44Z</time>
      </trkpt>
      <trkpt lat="43.434486966580153" lon="-6.072984980419278">
        <ele>52.530000000000001</ele>
        <time>2025-04-29T13:35:45Z</time>
      </trkpt>
      <trkpt lat="43.434972027316689" lon="-6.072828993201256">
        <ele>56.859999999999999</ele>
        <time>2025-04-29T13:35:49Z</time>
      </trkpt>
      <trkpt lat="43.435118040069938" lon="-6.072851959615946">
        <ele>58.299999999999997</ele>
        <time>2025-04-29T13:35:50Z</time>
      </trkpt>
      <trkpt lat="43.435392966493964" lon="-6.072928989306092">
        <ele>60.700000000000003</ele>
        <time>2025-04-29T13:35:52Z</time>
      </trkpt>
      <trkpt lat="43.435480976477265" lon="-6.072884984314442">
        <ele>62.140000000000001</ele>
        <time>2025-04-29T13:35:53Z</time>
      </trkpt>
      <trkpt lat="43.435839973390102" lon="-6.072706030681729">
        <ele>66.469999999999999</ele>
        <time>2025-04-29T13:35:56Z</time>
      </trkpt>
      <trkpt lat="43.436107020825148" lon="-6.072682980448008">
        <ele>69.829999999999998</ele>
        <time>2025-04-29T13:35:58Z</time>
      </trkpt>
      <trkpt lat="43.436236018314958" lon="-6.07270997017622">
        <ele>71.269999999999996</ele>
        <time>2025-04-29T13:35:59Z</time>
      </trkpt>
      <trkpt lat="43.436484960839152" lon="-6.072763027623296">
        <ele>74.159999999999997</ele>
        <time>2025-04-29T13:36:01Z</time>
      </trkpt>
      <trkpt lat="43.436599960550666" lon="-6.072788005694747">
        <ele>75.599999999999994</ele>
        <time>2025-04-29T13:36:02Z</time>
      </trkpt>
      <trkpt lat="43.436719989404082" lon="-6.072738971561194">
        <ele>76.560000000000002</ele>
        <time>2025-04-29T13:36:03Z</time>
      </trkpt>
      <trkpt lat="43.436817973852158" lon="-6.072640987113118">
        <ele>78</ele>
        <time>2025-04-29T13:36:04Z</time>
      </trkpt>
      <trkpt lat="43.436911012977362" lon="-6.072548031806946">
        <ele>78.969999999999999</ele>
        <time>2025-04-29T13:36:05Z</time>
      </trkpt>
      <trkpt lat="43.43701503239572" lon="-6.07249497435987">
        <ele>79.930000000000007</ele>
        <time>2025-04-29T13:36:06Z</time>
      </trkpt>
      <trkpt lat="43.437131959944963" lon="-6.072457004338503">
        <ele>80.890000000000001</ele>
        <time>2025-04-29T13:36:07Z</time>
      </trkpt>
      <trkpt lat="43.437246037647128" lon="-6.072419034317136">
        <ele>81.849999999999994</ele>
        <time>2025-04-29T13:36:08Z</time>
      </trkpt>
      <trkpt lat="43.4373580198735" lon="-6.072463039308786">
        <ele>82.810000000000002</ele>
        <time>2025-04-29T13:36:09Z</time>
      </trkpt>
      <trkpt lat="43.437473019585013" lon="-6.072520958259702">
        <ele>83.769999999999996</ele>
        <time>2025-04-29T13:36:10Z</time>
      </trkpt>
      <trkpt lat="43.437589025124907" lon="-6.072578961029649">
        <ele>84.730000000000004</ele>
        <time>2025-04-29T13:36:11Z</time>
      </trkpt>
      <trkpt lat="43.43867196701467" lon="-6.072798985987902">
        <ele>91.459999999999994</ele>
        <time>2025-04-29T13:36:20Z</time>
      </trkpt>
      <trkpt lat="43.438762994483113" lon="-6.072611985728145">
        <ele>91.939999999999998</ele>
        <time>2025-04-29T13:36:21Z</time>
      </trkpt>
      <trkpt lat="43.438868019729853" lon="-6.072536967694759">
        <ele>92.420000000000002</ele>
        <time>2025-04-29T13:36:22Z</time>
      </trkpt>
      <trkpt lat="43.438951000571251" lon="-6.0724519751966">
        <ele>92.420000000000002</ele>
        <time>2025-04-29T13:36:23Z</time>
      </trkpt>
      <trkpt lat="43.439039010554552" lon="-6.072348961606622">
        <ele>92.900000000000006</ele>
        <time>2025-04-29T13:36:24Z</time>
      </trkpt>
      <trkpt lat="43.439131965860724" lon="-6.072242008522153">
        <ele>93.390000000000001</ele>
        <time>2025-04-29T13:36:25Z</time>
      </trkpt>
      <trkpt lat="43.439225004985929" lon="-6.072133965790272">
        <ele>93.390000000000001</ele>
        <time>2025-04-29T13:36:26Z</time>
      </trkpt>
      <trkpt lat="43.439317960292101" lon="-6.072027012705803">
        <ele>93.390000000000001</ele>
        <time>2025-04-29T13:36:27Z</time>
      </trkpt>
      <trkpt lat="43.439414016902447" lon="-6.071916958317161">
        <ele>93.390000000000001</ele>
        <time>2025-04-29T13:36:28Z</time>
      </trkpt>
      <trkpt lat="43.439507978037" lon="-6.07180698774755">
        <ele>92.900000000000006</ele>
        <time>2025-04-29T13:36:29Z</time>
      </trkpt>
      <trkpt lat="43.439607974141836" lon="-6.071702968329191">
        <ele>92.420000000000002</ele>
        <time>2025-04-29T13:36:30Z</time>
      </trkpt>
      <trkpt lat="43.440571976825595" lon="-6.070763021707535">
        <ele>90.5</ele>
        <time>2025-04-29T13:36:40Z</time>
      </trkpt>
      <trkpt lat="43.440659986808896" lon="-6.07066797092557">
        <ele>90.5</ele>
        <time>2025-04-29T13:36:41Z</time>
      </trkpt>
      <trkpt lat="43.44105402007699" lon="-6.070337975397706">
        <ele>90.5</ele>
        <time>2025-04-29T13:36:46Z</time>
      </trkpt>
      <trkpt lat="43.441142030060291" lon="-6.070307968184352">
        <ele>90.5</ele>
        <time>2025-04-29T13:36:47Z</time>
      </trkpt>
      <trkpt lat="43.441318972036242" lon="-6.070296987891197">
        <ele>90.980000000000004</ele>
        <time>2025-04-29T13:36:49Z</time>
      </trkpt>
      <trkpt lat="43.441428020596504" lon="-6.070286007598043">
        <ele>90.980000000000004</ele>
        <time>2025-04-29T13:36:50Z</time>
      </trkpt>
      <trkpt lat="43.441531034186482" lon="-6.070219036191702">
        <ele>90.5</ele>
        <time>2025-04-29T13:36:51Z</time>
      </trkpt>
      <trkpt lat="43.441639998927712" lon="-6.070148963481188">
        <ele>90.5</ele>
        <time>2025-04-29T13:36:52Z</time>
      </trkpt>
      <trkpt lat="43.441752986982465" lon="-6.070075035095215">
        <ele>90.019999999999996</ele>
        <time>2025-04-29T13:36:53Z</time>
      </trkpt>
      <trkpt lat="43.441869998350739" lon="-6.069986019283533">
        <ele>89.540000000000006</ele>
        <time>2025-04-29T13:36:54Z</time>
      </trkpt>
      <trkpt lat="43.441963959485292" lon="-6.069858027622104">
        <ele>89.540000000000006</ele>
        <time>2025-04-29T13:36:55Z</time>
      </trkpt>
      <trkpt lat="43.442054986953735" lon="-6.069733975455165">
        <ele>89.060000000000002</ele>
        <time>2025-04-29T13:36:56Z</time>
      </trkpt>
      <trkpt lat="43.44214903190732" lon="-6.069639008492231">
        <ele>88.579999999999998</ele>
        <time>2025-04-29T13:36:57Z</time>
      </trkpt>
      <trkpt lat="43.442247016355395" lon="-6.069559967145324">
        <ele>88.579999999999998</ele>
        <time>2025-04-29T13:36:58Z</time>
      </trkpt>
      <trkpt lat="43.442345000803471" lon="-6.069480003789067">
        <ele>88.099999999999994</ele>
        <time>2025-04-29T13:36:59Z</time>
      </trkpt>
      <trkpt lat="43.442541975528002" lon="-6.069367015734315">
        <ele>87.140000000000001</ele>
        <time>2025-04-29T13:37:01Z</time>
      </trkpt>
      <trkpt lat="43.442647000774741" lon="-6.069327034056187">
        <ele>87.140000000000001</ele>
        <time>2025-04-29T13:37:02Z</time>
      </trkpt>
      <trkpt lat="43.443852989003062" lon="-6.069198036566377">
        <ele>85.689999999999998</ele>
        <time>2025-04-29T13:37:12Z</time>
      </trkpt>
      <trkpt lat="43.443964971229434" lon="-6.06920599937439">
        <ele>85.209999999999994</ele>
        <time>2025-04-29T13:37:13Z</time>
      </trkpt>
      <trkpt lat="43.444077959284186" lon="-6.069240029901266">
        <ele>84.730000000000004</ele>
        <time>2025-04-29T13:37:14Z</time>
      </trkpt>
      <trkpt lat="43.444160018116236" lon="-6.069357041269541">
        <ele>83.769999999999996</ele>
        <time>2025-04-29T13:37:15Z</time>
      </trkpt>
      <trkpt lat="43.444224977865815" lon="-6.0694869607687">
        <ele>82.810000000000002</ele>
        <time>2025-04-29T13:37:16Z</time>
      </trkpt>
      <trkpt lat="43.444268982857466" lon="-6.069664992392063">
        <ele>81.849999999999994</ele>
        <time>2025-04-29T13:37:17Z</time>
      </trkpt>
      <trkpt lat="43.444314999505877" lon="-6.069856015965343">
        <ele>80.409999999999997</ele>
        <time>2025-04-29T13:37:18Z</time>
      </trkpt>
      <trkpt lat="43.44436302781105" lon="-6.070051984861493">
        <ele>79.450000000000003</ele>
        <time>2025-04-29T13:37:19Z</time>
      </trkpt>
      <trkpt lat="43.444411978125572" lon="-6.070253988727927">
        <ele>78</ele>
        <time>2025-04-29T13:37:20Z</time>
      </trkpt>
      <trkpt lat="43.444421030580997" lon="-6.07049698010087">
        <ele>76.560000000000002</ele>
        <time>2025-04-29T13:37:21Z</time>
      </trkpt>
      <trkpt lat="43.444412983953953" lon="-6.070738965645433">
        <ele>75.120000000000005</ele>
        <time>2025-04-29T13:37:22Z</time>
      </trkpt>
      <trkpt lat="43.444409966468811" lon="-6.071001989766955">
        <ele>73.680000000000007</ele>
        <time>2025-04-29T13:37:23Z</time>
      </trkpt>
      <trkpt lat="43.444671984761953" lon="-6.073378007858992">
        <ele>59.740000000000002</ele>
        <time>2025-04-29T13:37:32Z</time>
      </trkpt>
      <trkpt lat="43.4447490144521" lon="-6.073824008926749">
        <ele>56.369999999999997</ele>
        <time>2025-04-29T13:37:34Z</time>
      </trkpt>
      <trkpt lat="43.444931991398335" lon="-6.074567986652255">
        <ele>47.719999999999999</ele>
        <time>2025-04-29T13:37:38Z</time>
      </trkpt>
      <trkpt lat="43.44505000859499" lon="-6.074969982728362">
        <ele>43.399999999999999</ele>
        <time>2025-04-29T13:37:40Z</time>
      </trkpt>
      <trkpt lat="43.445303980261087" lon="-6.075477004051209">
        <ele>37.630000000000003</ele>
        <time>2025-04-29T13:37:43Z</time>
      </trkpt>
      <trkpt lat="43.445377992466092" lon="-6.075627040117979">
        <ele>36.189999999999998</ele>
        <time>2025-04-29T13:37:44Z</time>
      </trkpt>
      <trkpt lat="43.445450998842716" lon="-6.075771041214466">
        <ele>34.740000000000002</ele>
        <time>2025-04-29T13:37:45Z</time>
      </trkpt>
      <trkpt lat="43.44552299939096" lon="-6.075908001512289">
        <ele>32.82</ele>
        <time>2025-04-29T13:37:46Z</time>
      </trkpt>
      <trkpt lat="43.445602962747216" lon="-6.076055020093918">
        <ele>31.379999999999999</ele>
        <time>2025-04-29T13:37:47Z</time>
      </trkpt>
      <trkpt lat="43.445680998265743" lon="-6.076198015362024">
        <ele>29.460000000000001</ele>
        <time>2025-04-29T13:37:48Z</time>
      </trkpt>
      <trkpt lat="43.44575903378427" lon="-6.076341010630131">
        <ele>27.050000000000001</ele>
        <time>2025-04-29T13:37:49Z</time>
      </trkpt>
      <trkpt lat="43.445840002968907" lon="-6.07648903504014">
        <ele>25.129999999999999</ele>
        <time>2025-04-29T13:37:50Z</time>
      </trkpt>
      <trkpt lat="43.445992972701788" lon="-6.07676999643445">
        <ele>23.690000000000001</ele>
        <time>2025-04-29T13:37:51Z</time>
      </trkpt>
      <trkpt lat="43.446027003228664" lon="-6.076775025576353">
        <ele>21.77</ele>
        <time>2025-04-29T13:37:52Z</time>
      </trkpt>
      <trkpt lat="43.446191037073731" lon="-6.076796986162663">
        <ele>19.84</ele>
        <time>2025-04-29T13:37:53Z</time>
      </trkpt>
      <trkpt lat="43.446354987099767" lon="-6.076820036396384">
        <ele>18.399999999999999</ele>
        <time>2025-04-29T13:37:54Z</time>
      </trkpt>
      <trkpt lat="43.446867037564516" lon="-6.076892036944628">
        <ele>13.6</ele>
        <time>2025-04-29T13:37:57Z</time>
      </trkpt>
      <trkpt lat="43.447041967883706" lon="-6.076991027221084">
        <ele>12.630000000000001</ele>
        <time>2025-04-29T13:37:58Z</time>
      </trkpt>
      <trkpt lat="43.44719996675849" lon="-6.077106026932597">
        <ele>11.67</ele>
        <time>2025-04-29T13:37:59Z</time>
      </trkpt>
      <trkpt lat="43.447353020310402" lon="-6.077218009158969">
        <ele>10.710000000000001</ele>
        <time>2025-04-29T13:38:00Z</time>
      </trkpt>
      <trkpt lat="43.447473971173167" lon="-6.07730601914227">
        <ele>10.23</ele>
        <time>2025-04-29T13:38:01Z</time>
      </trkpt>
      <trkpt lat="43.447553012520075" lon="-6.077534006908536">
        <ele>10.23</ele>
        <time>2025-04-29T13:38:02Z</time>
      </trkpt>
      <trkpt lat="43.447612021118402" lon="-6.077704997733235">
        <ele>9.75</ele>
        <time>2025-04-29T13:38:03Z</time>
      </trkpt>
      <trkpt lat="43.447656026110053" lon="-6.077881017699838">
        <ele>9.75</ele>
        <time>2025-04-29T13:38:04Z</time>
      </trkpt>
      <trkpt lat="43.447684021666646" lon="-6.078082015737891">
        <ele>10.23</ele>
        <time>2025-04-29T13:38:05Z</time>
      </trkpt>
      <trkpt lat="43.44795098528266" lon="-6.080004991963506">
        <ele>13.6</ele>
        <time>2025-04-29T13:38:13Z</time>
      </trkpt>
      <trkpt lat="43.447960959747434" lon="-6.080226022750139">
        <ele>14.56</ele>
        <time>2025-04-29T13:38:14Z</time>
      </trkpt>
      <trkpt lat="43.447970012202859" lon="-6.081097992137075">
        <ele>18.399999999999999</ele>
        <time>2025-04-29T13:38:18Z</time>
      </trkpt>
      <trkpt lat="43.448019968345761" lon="-6.081277029588819">
        <ele>19.359999999999999</ele>
        <time>2025-04-29T13:38:19Z</time>
      </trkpt>
      <trkpt lat="43.448074031621218" lon="-6.081425976008177">
        <ele>20.32</ele>
        <time>2025-04-29T13:38:20Z</time>
      </trkpt>
      <trkpt lat="43.44818701967597" lon="-6.081570982933044">
        <ele>21.77</ele>
        <time>2025-04-29T13:38:21Z</time>
      </trkpt>
      <trkpt lat="43.448256002739072" lon="-6.081707021221519">
        <ele>22.73</ele>
        <time>2025-04-29T13:38:22Z</time>
      </trkpt>
      <trkpt lat="43.448291039094329" lon="-6.081806011497974">
        <ele>23.690000000000001</ele>
        <time>2025-04-29T13:38:23Z</time>
      </trkpt>
      <trkpt lat="43.448308976367116" lon="-6.081856973469257">
        <ele>24.649999999999999</ele>
        <time>2025-04-29T13:38:24Z</time>
      </trkpt>
      <trkpt lat="43.448357004672289" lon="-6.082087978720665">
        <ele>27.530000000000001</ele>
        <time>2025-04-29T13:38:31Z</time>
      </trkpt>
      <trkpt lat="43.448436968028545" lon="-6.082637999206781">
        <ele>28.98</ele>
        <time>2025-04-29T13:38:35Z</time>
      </trkpt>
      <trkpt lat="43.448426993563771" lon="-6.082783006131649">
        <ele>29.460000000000001</ele>
        <time>2025-04-29T13:38:36Z</time>
      </trkpt>
      <trkpt lat="43.448414001613855" lon="-6.08293698169291">
        <ele>29.940000000000001</ele>
        <time>2025-04-29T13:38:37Z</time>
      </trkpt>
      <trkpt lat="43.448400003835559" lon="-6.083093974739313">
        <ele>30.420000000000002</ele>
        <time>2025-04-29T13:38:38Z</time>
      </trkpt>
      <trkpt lat="43.448386006057262" lon="-6.083249961957336">
        <ele>30.420000000000002</ele>
        <time>2025-04-29T13:38:39Z</time>
      </trkpt>
      <trkpt lat="43.448383994400501" lon="-6.0834089666605">
        <ele>30.899999999999999</ele>
        <time>2025-04-29T13:38:40Z</time>
      </trkpt>
      <trkpt lat="43.448437973856926" lon="-6.083585992455483">
        <ele>31.379999999999999</ele>
        <time>2025-04-29T13:38:41Z</time>
      </trkpt>
      <trkpt lat="43.448522966355085" lon="-6.083762012422085">
        <ele>32.340000000000003</ele>
        <time>2025-04-29T13:38:42Z</time>
      </trkpt>
      <trkpt lat="43.448630003258586" lon="-6.083939960226417">
        <ele>33.299999999999997</ele>
        <time>2025-04-29T13:38:43Z</time>
      </trkpt>
      <trkpt lat="43.448737040162086" lon="-6.08411799184978">
        <ele>34.259999999999998</ele>
        <time>2025-04-29T13:38:44Z</time>
      </trkpt>
      <trkpt lat="43.448847010731697" lon="-6.084301974624395">
        <ele>35.229999999999997</ele>
        <time>2025-04-29T13:38:45Z</time>
      </trkpt>
      <trkpt lat="43.448943989351392" lon="-6.084406999871135">
        <ele>36.189999999999998</ele>
        <time>2025-04-29T13:38:46Z</time>
      </trkpt>
      <trkpt lat="43.449045997112989" lon="-6.084516970440745">
        <ele>37.149999999999999</ele>
        <time>2025-04-29T13:38:47Z</time>
      </trkpt>
      <trkpt lat="43.449131995439529" lon="-6.084655020385981">
        <ele>38.590000000000003</ele>
        <time>2025-04-29T13:38:48Z</time>
      </trkpt>
      <trkpt lat="43.449180023744702" lon="-6.084815030917525">
        <ele>39.07</ele>
        <time>2025-04-29T13:38:49Z</time>
      </trkpt>
      <trkpt lat="43.449215982109308" lon="-6.085002031177282">
        <ele>40.030000000000001</ele>
        <time>2025-04-29T13:38:50Z</time>
      </trkpt>
      <trkpt lat="43.449283959344029" lon="-6.085367985069752">
        <ele>40.990000000000002</ele>
        <time>2025-04-29T13:38:52Z</time>
      </trkpt>
      <trkpt lat="43.449297035112977" lon="-6.085438979789615">
        <ele>41.469999999999999</ele>
        <time>2025-04-29T13:38:53Z</time>
      </trkpt>
      <trkpt lat="43.449431983754039" lon="-6.085584992542863">
        <ele>41.950000000000003</ele>
        <time>2025-04-29T13:38:54Z</time>
      </trkpt>
      <trkpt lat="43.449619989842176" lon="-6.085887998342514">
        <ele>42.920000000000002</ele>
        <time>2025-04-29T13:38:56Z</time>
      </trkpt>
      <trkpt lat="43.449689978733659" lon="-6.086043985560536">
        <ele>43.399999999999999</ele>
        <time>2025-04-29T13:38:57Z</time>
      </trkpt>
      <trkpt lat="43.449775977060199" lon="-6.086173988878727">
        <ele>43.880000000000003</ele>
        <time>2025-04-29T13:38:58Z</time>
      </trkpt>
      <trkpt lat="43.449902962893248" lon="-6.086298041045666">
        <ele>44.840000000000003</ele>
        <time>2025-04-29T13:38:59Z</time>
      </trkpt>
      <trkpt lat="43.45003598369658" lon="-6.086427038535476">
        <ele>45.799999999999997</ele>
        <time>2025-04-29T13:39:00Z</time>
      </trkpt>
      <trkpt lat="43.450286015868187" lon="-6.086670029908419">
        <ele>48.200000000000003</ele>
        <time>2025-04-29T13:39:02Z</time>
      </trkpt>
      <trkpt lat="43.450501011684537" lon="-6.086879996582866">
        <ele>50.609999999999999</ele>
        <time>2025-04-29T13:39:04Z</time>
      </trkpt>
      <trkpt lat="43.450580975040793" lon="-6.08701997436583">
        <ele>51.57</ele>
        <time>2025-04-29T13:39:05Z</time>
      </trkpt>
      <trkpt lat="43.45063797198236" lon="-6.087170010432601">
        <ele>53.009999999999998</ele>
        <time>2025-04-29T13:39:06Z</time>
      </trkpt>
      <trkpt lat="43.4508310072124" lon="-6.087668985128403">
        <ele>55.890000000000001</ele>
        <time>2025-04-29T13:39:09Z</time>
      </trkpt>
      <trkpt lat="43.450894961133599" lon="-6.08783695846796">
        <ele>56.859999999999999</ele>
        <time>2025-04-29T13:39:10Z</time>
      </trkpt>
      <trkpt lat="43.450952963903546" lon="-6.087988000363112">
        <ele>57.82</ele>
        <time>2025-04-29T13:39:11Z</time>
      </trkpt>
      <trkpt lat="43.450961010530591" lon="-6.088104005903006">
        <ele>58.299999999999997</ele>
        <time>2025-04-29T13:39:12Z</time>
      </trkpt>
      <trkpt lat="43.450937960296869" lon="-6.088248006999493">
        <ele>58.299999999999997</ele>
        <time>2025-04-29T13:39:13Z</time>
      </trkpt>
      <trkpt lat="43.45089697279036" lon="-6.088364012539387">
        <ele>58.780000000000001</ele>
        <time>2025-04-29T13:39:14Z</time>
      </trkpt>
      <trkpt lat="43.450811980292201" lon="-6.08850097283721">
        <ele>59.259999999999998</ele>
        <time>2025-04-29T13:39:15Z</time>
      </trkpt>
      <trkpt lat="43.450717013329268" lon="-6.088654026389122">
        <ele>59.740000000000002</ele>
        <time>2025-04-29T13:39:16Z</time>
      </trkpt>
      <trkpt lat="43.450514003634453" lon="-6.088979998603463">
        <ele>61.18</ele>
        <time>2025-04-29T13:39:18Z</time>
      </trkpt>
      <trkpt lat="43.450409984216094" lon="-6.089173033833504">
        <ele>61.659999999999997</ele>
        <time>2025-04-29T13:39:19Z</time>
      </trkpt>
      <trkpt lat="43.450331026688218" lon="-6.089378977194428">
        <ele>62.619999999999997</ele>
        <time>2025-04-29T13:39:20Z</time>
      </trkpt>
      <trkpt lat="43.450252991169691" lon="-6.089580981060863">
        <ele>63.579999999999998</ele>
        <time>2025-04-29T13:39:21Z</time>
      </trkpt>
      <trkpt lat="43.450157018378377" lon="-6.089751971885562">
        <ele>64.069999999999993</ele>
        <time>2025-04-29T13:39:22Z</time>
      </trkpt>
      <trkpt lat="43.450044030323625" lon="-6.089904019609094">
        <ele>65.510000000000005</ele>
        <time>2025-04-29T13:39:23Z</time>
      </trkpt>
      <trkpt lat="43.449929030612111" lon="-6.090060006827116">
        <ele>65.989999999999995</ele>
        <time>2025-04-29T13:39:24Z</time>
      </trkpt>
      <trkpt lat="43.449826017022133" lon="-6.09024097211659">
        <ele>66.469999999999999</ele>
        <time>2025-04-29T13:39:25Z</time>
      </trkpt>
      <trkpt lat="43.449758039787412" lon="-6.090448005124927">
        <ele>67.430000000000007</ele>
        <time>2025-04-29T13:39:26Z</time>
      </trkpt>
      <trkpt lat="43.449712023139" lon="-6.090664006769657">
        <ele>68.390000000000001</ele>
        <time>2025-04-29T13:39:27Z</time>
      </trkpt>
      <trkpt lat="43.449665000662208" lon="-6.09088302589953">
        <ele>69.349999999999994</ele>
        <time>2025-04-29T13:39:28Z</time>
      </trkpt>
      <trkpt lat="43.449511025100946" lon="-6.091639995574951">
        <ele>73.200000000000003</ele>
        <time>2025-04-29T13:39:32Z</time>
      </trkpt>
      <trkpt lat="43.449508007615805" lon="-6.091805035248399">
        <ele>74.159999999999997</ele>
        <time>2025-04-29T13:39:33Z</time>
      </trkpt>
      <trkpt lat="43.449498033151031" lon="-6.092263022437692">
        <ele>76.560000000000002</ele>
        <time>2025-04-29T13:39:36Z</time>
      </trkpt>
      <trkpt lat="43.449528962373734" lon="-6.092851012945175">
        <ele>79.450000000000003</ele>
        <time>2025-04-29T13:39:40Z</time>
      </trkpt>
      <trkpt lat="43.449591994285583" lon="-6.092965006828308">
        <ele>80.409999999999997</ele>
        <time>2025-04-29T13:39:41Z</time>
      </trkpt>
      <trkpt lat="43.449655026197433" lon="-6.093080006539822">
        <ele>80.890000000000001</ele>
        <time>2025-04-29T13:39:42Z</time>
      </trkpt>
      <trkpt lat="43.449715962633491" lon="-6.093190982937813">
        <ele>80.890000000000001</ele>
        <time>2025-04-29T13:39:43Z</time>
      </trkpt>
      <trkpt lat="43.449815958738327" lon="-6.093278992921114">
        <ele>81.370000000000005</ele>
        <time>2025-04-29T13:39:44Z</time>
      </trkpt>
      <trkpt lat="43.449919978156686" lon="-6.093325009569526">
        <ele>81.849999999999994</ele>
        <time>2025-04-29T13:39:45Z</time>
      </trkpt>
      <trkpt lat="43.450027015060186" lon="-6.093372032046318">
        <ele>82.329999999999998</ele>
        <time>2025-04-29T13:39:46Z</time>
      </trkpt>
      <trkpt lat="43.4501420147717" lon="-6.093411007896066">
        <ele>83.290000000000006</ele>
        <time>2025-04-29T13:39:47Z</time>
      </trkpt>
      <trkpt lat="43.450261959806085" lon="-6.093436991795898">
        <ele>83.769999999999996</ele>
        <time>2025-04-29T13:39:48Z</time>
      </trkpt>
      <trkpt lat="43.450377965345979" lon="-6.093402961269021">
        <ele>84.25</ele>
        <time>2025-04-29T13:39:49Z</time>
      </trkpt>
      <trkpt lat="43.450494976714253" lon="-6.093353005126119">
        <ele>84.730000000000004</ele>
        <time>2025-04-29T13:39:50Z</time>
      </trkpt>
      <trkpt lat="43.45061500556767" lon="-6.093301959335804">
        <ele>85.209999999999994</ele>
        <time>2025-04-29T13:39:51Z</time>
      </trkpt>
      <trkpt lat="43.450969979166985" lon="-6.093152007088065">
        <ele>87.140000000000001</ele>
        <time>2025-04-29T13:39:54Z</time>
      </trkpt>
      <trkpt lat="43.451075004413724" lon="-6.093180002644658">
        <ele>88.099999999999994</ele>
        <time>2025-04-29T13:39:55Z</time>
      </trkpt>
      <trkpt lat="43.451178018003702" lon="-6.09322601929307">
        <ele>88.579999999999998</ele>
        <time>2025-04-29T13:39:56Z</time>
      </trkpt>
      <trkpt lat="43.451270973309875" lon="-6.093287961557508">
        <ele>89.540000000000006</ele>
        <time>2025-04-29T13:39:57Z</time>
      </trkpt>
      <trkpt lat="43.451358983293176" lon="-6.093370020389557">
        <ele>90.019999999999996</ele>
        <time>2025-04-29T13:39:58Z</time>
      </trkpt>
      <trkpt lat="43.451443975791335" lon="-6.093447972089052">
        <ele>90.980000000000004</ele>
        <time>2025-04-29T13:39:59Z</time>
      </trkpt>
      <trkpt lat="43.451508013531566" lon="-6.09350698068738">
        <ele>91.459999999999994</ele>
        <time>2025-04-29T13:40:00Z</time>
      </trkpt>
      <trkpt lat="43.451485969126225" lon="-6.093605970963836">
        <ele>91.939999999999998</ele>
        <time>2025-04-29T13:40:01Z</time>
      </trkpt>
      <trkpt lat="43.451465014368296" lon="-6.09370001591742">
        <ele>92.900000000000006</ele>
        <time>2025-04-29T13:40:02Z</time>
      </trkpt>
      <trkpt lat="43.451422015205026" lon="-6.093717031180859">
        <ele>93.390000000000001</ele>
        <time>2025-04-29T13:40:03Z</time>
      </trkpt>
      <trkpt lat="43.451339034363627" lon="-6.093749972060323">
        <ele>93.870000000000005</ele>
        <time>2025-04-29T13:40:04Z</time>
      </trkpt>
      <trkpt lat="43.451251024380326" lon="-6.09378500841558">
        <ele>94.349999999999994</ele>
        <time>2025-04-29T13:40:05Z</time>
      </trkpt>
      <trkpt lat="43.450763029977679" lon="-6.093968991190195">
        <ele>97.230000000000004</ele>
        <time>2025-04-29T13:40:10Z</time>
      </trkpt>
      <trkpt lat="43.450686000287533" lon="-6.094053983688355">
        <ele>97.709999999999994</ele>
        <time>2025-04-29T13:40:11Z</time>
      </trkpt>
      <trkpt lat="43.450021985918283" lon="-6.095057968050242">
        <ele>103</ele>
        <time>2025-04-29T13:40:19Z</time>
      </trkpt>
      <trkpt lat="43.449930958449841" lon="-6.095180008560419">
        <ele>103.95999999999999</ele>
        <time>2025-04-29T13:40:20Z</time>
      </trkpt>
      <trkpt lat="43.449843032285571" lon="-6.095297019928694">
        <ele>104.44</ele>
        <time>2025-04-29T13:40:21Z</time>
      </trkpt>
      <trkpt lat="43.449746975675225" lon="-6.095342030748725">
        <ele>104.92</ele>
        <time>2025-04-29T13:40:22Z</time>
      </trkpt>
      <trkpt lat="43.449629964306951" lon="-6.095387041568756">
        <ele>105.40000000000001</ele>
        <time>2025-04-29T13:40:23Z</time>
      </trkpt>
      <trkpt lat="43.449510019272566" lon="-6.095431968569756">
        <ele>105.88</ele>
        <time>2025-04-29T13:40:24Z</time>
      </trkpt>
      <trkpt lat="43.449387978762388" lon="-6.095477985218167">
        <ele>106.36</ele>
        <time>2025-04-29T13:40:25Z</time>
      </trkpt>
      <trkpt lat="43.449263004586101" lon="-6.09552601352334">
        <ele>106.84</ele>
        <time>2025-04-29T13:40:26Z</time>
      </trkpt>
      <trkpt lat="43.44913300126791" lon="-6.095623997971416">
        <ele>107.31999999999999</ele>
        <time>2025-04-29T13:40:27Z</time>
      </trkpt>
      <trkpt lat="43.44902403652668" lon="-6.095732962712646">
        <ele>107.31999999999999</ele>
        <time>2025-04-29T13:40:28Z</time>
      </trkpt>
      <trkpt lat="43.448555991053581" lon="-6.096307039260864">
        <ele>109.73</ele>
        <time>2025-04-29T13:40:33Z</time>
      </trkpt>
      <trkpt lat="43.448461024090648" lon="-6.096424972638488">
        <ele>110.69</ele>
        <time>2025-04-29T13:40:34Z</time>
      </trkpt>
      <trkpt lat="43.447947967797518" lon="-6.097006006166339">
        <ele>115.01000000000001</ele>
        <time>2025-04-29T13:40:39Z</time>
      </trkpt>
      <trkpt lat="43.447857024148107" lon="-6.097140032798052">
        <ele>115.5</ele>
        <time>2025-04-29T13:40:40Z</time>
      </trkpt>
      <trkpt lat="43.447768008336425" lon="-6.097271963953972">
        <ele>116.45999999999999</ele>
        <time>2025-04-29T13:40:41Z</time>
      </trkpt>
      <trkpt lat="43.447539014741778" lon="-6.097668008878827">
        <ele>118.86</ele>
        <time>2025-04-29T13:40:44Z</time>
      </trkpt>
      <trkpt lat="43.447449998930097" lon="-6.097758030518889">
        <ele>119.34</ele>
        <time>2025-04-29T13:40:45Z</time>
      </trkpt>
      <trkpt lat="43.447355031967163" lon="-6.097852997481823">
        <ele>119.81999999999999</ele>
        <time>2025-04-29T13:40:46Z</time>
      </trkpt>
      <trkpt lat="43.447252018377185" lon="-6.097955005243421">
        <ele>120.3</ele>
        <time>2025-04-29T13:40:47Z</time>
      </trkpt>
      <trkpt lat="43.447152022272348" lon="-6.098055001348257">
        <ele>120.78</ele>
        <time>2025-04-29T13:40:48Z</time>
      </trkpt>
      <trkpt lat="43.447057977318764" lon="-6.098149968311191">
        <ele>121.26000000000001</ele>
        <time>2025-04-29T13:40:49Z</time>
      </trkpt>
      <trkpt lat="43.446968039497733" lon="-6.098238984122872">
        <ele>122.22</ele>
        <time>2025-04-29T13:40:50Z</time>
      </trkpt>
      <trkpt lat="43.446872988715768" lon="-6.098335040733218">
        <ele>123.19</ele>
        <time>2025-04-29T13:40:52Z</time>
      </trkpt>
      <trkpt lat="43.446828983724117" lon="-6.098481975495815">
        <ele>123.19</ele>
        <time>2025-04-29T13:40:53Z</time>
      </trkpt>
      <trkpt lat="43.446808028966188" lon="-6.098549030721188">
        <ele>123.67</ele>
        <time>2025-04-29T13:40:54Z</time>
      </trkpt>
      <trkpt lat="43.44681297428906" lon="-6.098556993529201">
        <ele>124.15000000000001</ele>
        <time>2025-04-29T13:40:55Z</time>
      </trkpt>
      <trkpt lat="43.446892015635967" lon="-6.098614996299148">
        <ele>124.63</ele>
        <time>2025-04-29T13:40:56Z</time>
      </trkpt>
      <trkpt lat="43.447003997862339" lon="-6.098620025441051">
        <ele>125.11</ele>
        <time>2025-04-29T13:40:57Z</time>
      </trkpt>
      <trkpt lat="43.447126960381866" lon="-6.098624970763922">
        <ele>125.59</ele>
        <time>2025-04-29T13:40:58Z</time>
      </trkpt>
      <trkpt lat="43.447247995063663" lon="-6.098629999905825">
        <ele>126.06999999999999</ele>
        <time>2025-04-29T13:40:59Z</time>
      </trkpt>
      <trkpt lat="43.447387972846627" lon="-6.098635029047728">
        <ele>127.03</ele>
        <time>2025-04-29T13:41:00Z</time>
      </trkpt>
      <trkpt lat="43.447482017800212" lon="-6.098689008504152">
        <ele>127.51000000000001</ele>
        <time>2025-04-29T13:41:01Z</time>
      </trkpt>
      <trkpt lat="43.447927013039589" lon="-6.098967036232352">
        <ele>130.40000000000001</ele>
        <time>2025-04-29T13:41:05Z</time>
      </trkpt>
      <trkpt lat="43.448394974693656" lon="-6.099228970706463">
        <ele>133.75999999999999</ele>
        <time>2025-04-29T13:41:09Z</time>
      </trkpt>
      <trkpt lat="43.448459012433887" lon="-6.099348999559879">
        <ele>134.72</ele>
        <time>2025-04-29T13:41:10Z</time>
      </trkpt>
      <trkpt lat="43.448524978011847" lon="-6.099471962079406">
        <ele>135.19999999999999</ele>
        <time>2025-04-29T13:41:11Z</time>
      </trkpt>
      <trkpt lat="43.448572000488639" lon="-6.099590985104442">
        <ele>135.68000000000001</ele>
        <time>2025-04-29T13:41:12Z</time>
      </trkpt>
      <trkpt lat="43.448491031304002" lon="-6.099752001464367">
        <ele>136.16</ele>
        <time>2025-04-29T13:41:13Z</time>
      </trkpt>
      <trkpt lat="43.448468986898661" lon="-6.09993003308773">
        <ele>136.63999999999999</ele>
        <time>2025-04-29T13:41:14Z</time>
      </trkpt>
      <trkpt lat="43.448449037969112" lon="-6.100094988942146">
        <ele>137.13</ele>
        <time>2025-04-29T13:41:15Z</time>
      </trkpt>
      <trkpt lat="43.448431016877294" lon="-6.100245025008917">
        <ele>138.09</ele>
        <time>2025-04-29T13:41:16Z</time>
      </trkpt>
      <trkpt lat="43.448412995785475" lon="-6.10036002472043">
        <ele>138.56999999999999</ele>
        <time>2025-04-29T13:41:17Z</time>
      </trkpt>
      <trkpt lat="43.448352981358767" lon="-6.100480975583196">
        <ele>138.56999999999999</ele>
        <time>2025-04-29T13:41:18Z</time>
      </trkpt>
      <trkpt lat="43.448291961103678" lon="-6.100626988336444">
        <ele>139.05000000000001</ele>
        <time>2025-04-29T13:41:19Z</time>
      </trkpt>
      <trkpt lat="43.447494003921747" lon="-6.101774973794818">
        <ele>147.69999999999999</ele>
        <time>2025-04-29T13:41:28Z</time>
      </trkpt>
      <trkpt lat="43.446543999016285" lon="-6.10300300642848">
        <ele>157.78999999999999</ele>
        <time>2025-04-29T13:41:36Z</time>
      </trkpt>
      <trkpt lat="43.446441991254687" lon="-6.103182965889573">
        <ele>158.75</ele>
        <time>2025-04-29T13:41:37Z</time>
      </trkpt>
      <trkpt lat="43.446345012634993" lon="-6.103354962542653">
        <ele>160.19999999999999</ele>
        <time>2025-04-29T13:41:38Z</time>
      </trkpt>
      <trkpt lat="43.446239987388253" lon="-6.103508016094565">
        <ele>160.68000000000001</ele>
        <time>2025-04-29T13:41:39Z</time>
      </trkpt>
      <trkpt lat="43.446099003776908" lon="-6.103610023856163">
        <ele>161.63999999999999</ele>
        <time>2025-04-29T13:41:40Z</time>
      </trkpt>
      <trkpt lat="43.44595399685204" lon="-6.103715971112251">
        <ele>162.12</ele>
        <time>2025-04-29T13:41:41Z</time>
      </trkpt>
      <trkpt lat="43.445815024897456" lon="-6.103816973045468">
        <ele>162.59999999999999</ele>
        <time>2025-04-29T13:41:42Z</time>
      </trkpt>
      <trkpt lat="43.445687033236027" lon="-6.103910012170672">
        <ele>163.08000000000001</ele>
        <time>2025-04-29T13:41:43Z</time>
      </trkpt>
      <trkpt lat="43.445581002160907" lon="-6.103987041860819">
        <ele>163.56</ele>
        <time>2025-04-29T13:41:44Z</time>
      </trkpt>
      <trkpt lat="43.445563986897469" lon="-6.104000033810735">
        <ele>163.56</ele>
        <time>2025-04-29T13:41:45Z</time>
      </trkpt>
      <trkpt lat="43.445530040189624" lon="-6.104134982451797">
        <ele>163.56</ele>
        <time>2025-04-29T13:41:46Z</time>
      </trkpt>
      <trkpt lat="43.44552400521934" lon="-6.104180999100208">
        <ele>163.56</ele>
        <time>2025-04-29T13:41:47Z</time>
      </trkpt>
      <trkpt lat="43.44556700438261" lon="-6.104311002418399">
        <ele>163.56</ele>
        <time>2025-04-29T13:41:48Z</time>
      </trkpt>
      <trkpt lat="43.445606986060739" lon="-6.104429019615054">
        <ele>163.56</ele>
        <time>2025-04-29T13:41:49Z</time>
      </trkpt>
      <trkpt lat="43.445683009922504" lon="-6.104534966871142">
        <ele>163.56</ele>
        <time>2025-04-29T13:41:50Z</time>
      </trkpt>
      <trkpt lat="43.44575903378427" lon="-6.104638986289501">
        <ele>164.03999999999999</ele>
        <time>2025-04-29T13:41:51Z</time>
      </trkpt>
      <trkpt lat="43.445814019069076" lon="-6.104715010151267">
        <ele>164.52000000000001</ele>
        <time>2025-04-29T13:41:52Z</time>
      </trkpt>
      <trkpt lat="43.445886019617319" lon="-6.104869991540909">
        <ele>165</ele>
        <time>2025-04-29T13:41:53Z</time>
      </trkpt>
      <trkpt lat="43.445822987705469" lon="-6.105031007900834">
        <ele>165</ele>
        <time>2025-04-29T13:41:54Z</time>
      </trkpt>
      <trkpt lat="43.44575802795589" lon="-6.105165034532547">
        <ele>165.47999999999999</ele>
        <time>2025-04-29T13:41:55Z</time>
      </trkpt>
      <trkpt lat="43.445683009922504" lon="-6.105320015922189">
        <ele>165.96000000000001</ele>
        <time>2025-04-29T13:41:56Z</time>
      </trkpt>
      <trkpt lat="43.445552000775933" lon="-6.105607012286782">
        <ele>166.44999999999999</ele>
        <time>2025-04-29T13:41:58Z</time>
      </trkpt>
      <trkpt lat="43.445504978299141" lon="-6.105765011161566">
        <ele>166.93000000000001</ele>
        <time>2025-04-29T13:41:59Z</time>
      </trkpt>
      <trkpt lat="43.445458961650729" lon="-6.105923010036349">
        <ele>167.88999999999999</ele>
        <time>2025-04-29T13:42:00Z</time>
      </trkpt>
      <trkpt lat="43.445167019963264" lon="-6.106836972758174">
        <ele>173.66</ele>
        <time>2025-04-29T13:42:07Z</time>
      </trkpt>
      <trkpt lat="43.44500700943172" lon="-6.107280040159822">
        <ele>177.5</ele>
        <time>2025-04-29T13:42:10Z</time>
      </trkpt>
      <trkpt lat="43.444806011393666" lon="-6.107850009575486">
        <ele>181.83000000000001</ele>
        <time>2025-04-29T13:42:14Z</time>
      </trkpt>
      <trkpt lat="43.44477298669517" lon="-6.107996022328734">
        <ele>182.78999999999999</ele>
        <time>2025-04-29T13:42:15Z</time>
      </trkpt>
      <trkpt lat="43.444708026945591" lon="-6.108283018693328">
        <ele>184.71000000000001</ele>
        <time>2025-04-29T13:42:17Z</time>
      </trkpt>
      <trkpt lat="43.444678019732237" lon="-6.10841603949666">
        <ele>185.66999999999999</ele>
        <time>2025-04-29T13:42:18Z</time>
      </trkpt>
      <trkpt lat="43.444638038054109" lon="-6.108533972874284">
        <ele>186.63</ele>
        <time>2025-04-29T13:42:19Z</time>
      </trkpt>
      <trkpt lat="43.444579029455781" lon="-6.108651990070939">
        <ele>187.59</ele>
        <time>2025-04-29T13:42:20Z</time>
      </trkpt>
      <trkpt lat="43.444518009200692" lon="-6.108774030581117">
        <ele>188.08000000000001</ele>
        <time>2025-04-29T13:42:21Z</time>
      </trkpt>
      <trkpt lat="43.44397796317935" lon="-6.110000973567367">
        <ele>196.72999999999999</ele>
        <time>2025-04-29T13:42:30Z</time>
      </trkpt>
      <trkpt lat="43.443971006199718" lon="-6.11017799936235">
        <ele>197.69</ele>
        <time>2025-04-29T13:42:31Z</time>
      </trkpt>
      <trkpt lat="43.443993972614408" lon="-6.110323006287217">
        <ele>198.65000000000001</ele>
        <time>2025-04-29T13:42:32Z</time>
      </trkpt>
      <trkpt lat="43.444015011191368" lon="-6.110453009605408">
        <ele>199.13</ele>
        <time>2025-04-29T13:42:33Z</time>
      </trkpt>
      <trkpt lat="43.444008976221085" lon="-6.110573038458824">
        <ele>200.09</ele>
        <time>2025-04-29T13:42:34Z</time>
      </trkpt>
      <trkpt lat="43.443965977057815" lon="-6.110698012635112">
        <ele>201.05000000000001</ele>
        <time>2025-04-29T13:42:35Z</time>
      </trkpt>
      <trkpt lat="43.443878972902894" lon="-6.110759032890201">
        <ele>202.00999999999999</ele>
        <time>2025-04-29T13:42:36Z</time>
      </trkpt>
      <trkpt lat="43.443787023425102" lon="-6.110763978213072">
        <ele>202.49000000000001</ele>
        <time>2025-04-29T13:42:37Z</time>
      </trkpt>
      <trkpt lat="43.443678980693221" lon="-6.110769007354975">
        <ele>202.97999999999999</ele>
        <time>2025-04-29T13:42:38Z</time>
      </trkpt>
      <trkpt lat="43.443565992638469" lon="-6.110774958506227">
        <ele>203.46000000000001</ele>
        <time>2025-04-29T13:42:39Z</time>
      </trkpt>
      <trkpt lat="43.443444035947323" lon="-6.110771019011736">
        <ele>204.41999999999999</ele>
        <time>2025-04-29T13:42:40Z</time>
      </trkpt>
      <trkpt lat="43.4433329757303" lon="-6.110704969614744">
        <ele>204.90000000000001</ele>
        <time>2025-04-29T13:42:41Z</time>
      </trkpt>
      <trkpt lat="43.443218981847167" lon="-6.110637998208404">
        <ele>206.34</ele>
        <time>2025-04-29T13:42:42Z</time>
      </trkpt>
      <trkpt lat="43.443096019327641" lon="-6.11056599766016">
        <ele>206.81999999999999</ele>
        <time>2025-04-29T13:42:43Z</time>
      </trkpt>
      <trkpt lat="43.442984959110618" lon="-6.110577983781695">
        <ele>207.78</ele>
        <time>2025-04-29T13:42:44Z</time>
      </trkpt>
      <trkpt lat="43.442857973277569" lon="-6.110618971288204">
        <ele>208.74000000000001</ele>
        <time>2025-04-29T13:42:45Z</time>
      </trkpt>
      <trkpt lat="43.442743979394436" lon="-6.110698012635112">
        <ele>209.69999999999999</ele>
        <time>2025-04-29T13:42:46Z</time>
      </trkpt>
      <trkpt lat="43.442628979682922" lon="-6.110777975991368">
        <ele>210.66999999999999</ele>
        <time>2025-04-29T13:42:47Z</time>
      </trkpt>
      <trkpt lat="43.442510040476918" lon="-6.110860034823418">
        <ele>211.15000000000001</ele>
        <time>2025-04-29T13:42:48Z</time>
      </trkpt>
      <trkpt lat="43.442292027175426" lon="-6.111140996217728">
        <ele>213.06999999999999</ele>
        <time>2025-04-29T13:42:50Z</time>
      </trkpt>
      <trkpt lat="43.442204017192125" lon="-6.111297989264131">
        <ele>214.50999999999999</ele>
        <time>2025-04-29T13:42:51Z</time>
      </trkpt>
      <trkpt lat="43.442117013037205" lon="-6.111452970653772">
        <ele>215.47</ele>
        <time>2025-04-29T13:42:52Z</time>
      </trkpt>
      <trkpt lat="43.441660031676292" lon="-6.112379003316164">
        <ele>223.16</ele>
        <time>2025-04-29T13:42:58Z</time>
      </trkpt>
      <trkpt lat="43.441551988944411" lon="-6.112462989985943">
        <ele>224.12</ele>
        <time>2025-04-29T13:42:59Z</time>
      </trkpt>
      <trkpt lat="43.441431038081646" lon="-6.112557034939528">
        <ele>225.09</ele>
        <time>2025-04-29T13:43:00Z</time>
      </trkpt>
      <trkpt lat="43.440611958503723" lon="-6.113120969384909">
        <ele>227.49000000000001</ele>
        <time>2025-04-29T13:43:06Z</time>
      </trkpt>
      <trkpt lat="43.440463012084365" lon="-6.11316698603332">
        <ele>227.97</ele>
        <time>2025-04-29T13:43:07Z</time>
      </trkpt>
      <trkpt lat="43.439965965226293" lon="-6.113301012665033">
        <ele>228.44999999999999</ele>
        <time>2025-04-29T13:43:10Z</time>
      </trkpt>
      <trkpt lat="43.439802015200257" lon="-6.113387010991573">
        <ele>228.44999999999999</ele>
        <time>2025-04-29T13:43:11Z</time>
      </trkpt>
      <trkpt lat="43.438532995060086" lon="-6.113775009289384">
        <ele>228.93000000000001</ele>
        <time>2025-04-29T13:43:19Z</time>
      </trkpt>
      <trkpt lat="43.438376002013683" lon="-6.113760005682707">
        <ele>228.93000000000001</ele>
        <time>2025-04-29T13:43:20Z</time>
      </trkpt>
      <trkpt lat="43.437764961272478" lon="-6.11370200291276">
        <ele>229.88999999999999</ele>
        <time>2025-04-29T13:43:25Z</time>
      </trkpt>
      <trkpt lat="43.437711987644434" lon="-6.11374500207603">
        <ele>229.41</ele>
        <time>2025-04-29T13:43:26Z</time>
      </trkpt>
      <trkpt lat="43.437678040936589" lon="-6.113824965432286">
        <ele>228.93000000000001</ele>
        <time>2025-04-29T13:43:27Z</time>
      </trkpt>
      <trkpt lat="43.437666976824403" lon="-6.11391800455749">
        <ele>228.93000000000001</ele>
        <time>2025-04-29T13:43:28Z</time>
      </trkpt>
      <trkpt lat="43.437666976824403" lon="-6.114064017310739">
        <ele>229.41</ele>
        <time>2025-04-29T13:43:29Z</time>
      </trkpt>
      <trkpt lat="43.437680974602699" lon="-6.114225033670664">
        <ele>229.41</ele>
        <time>2025-04-29T13:43:30Z</time>
      </trkpt>
      <trkpt lat="43.437705030664802" lon="-6.114399963989854">
        <ele>229.88999999999999</ele>
        <time>2025-04-29T13:43:31Z</time>
      </trkpt>
      <trkpt lat="43.437732020393014" lon="-6.114600040018559">
        <ele>229.88999999999999</ele>
        <time>2025-04-29T13:43:32Z</time>
      </trkpt>
      <trkpt lat="43.437777031213045" lon="-6.114761978387833">
        <ele>229.88999999999999</ele>
        <time>2025-04-29T13:43:33Z</time>
      </trkpt>
      <trkpt lat="43.437823969870806" lon="-6.114929029718041">
        <ele>229.88999999999999</ele>
        <time>2025-04-29T13:43:34Z</time>
      </trkpt>
      <trkpt lat="43.437881972640753" lon="-6.115135978907347">
        <ele>229.88999999999999</ele>
        <time>2025-04-29T13:43:36Z</time>
      </trkpt>
      <trkpt lat="43.437861017882824" lon="-6.115261958912015">
        <ele>229.88999999999999</ele>
        <time>2025-04-29T13:43:37Z</time>
      </trkpt>
      <trkpt lat="43.437842996791005" lon="-6.11527101136744">
        <ele>229.41</ele>
        <time>2025-04-29T13:43:38Z</time>
      </trkpt>
      <trkpt lat="43.437732020393014" lon="-6.115307975560427">
        <ele>229.41</ele>
        <time>2025-04-29T13:43:39Z</time>
      </trkpt>
      <trkpt lat="43.437689021229744" lon="-6.11529297195375">
        <ele>228.93000000000001</ele>
        <time>2025-04-29T13:43:40Z</time>
      </trkpt>
      <trkpt lat="43.437577961012721" lon="-6.115252990275621">
        <ele>228.93000000000001</ele>
        <time>2025-04-29T13:43:41Z</time>
      </trkpt>
      <trkpt lat="43.437459021806717" lon="-6.115209991112351">
        <ele>228.44999999999999</ele>
        <time>2025-04-29T13:43:42Z</time>
      </trkpt>
      <trkpt lat="43.437336981296539" lon="-6.115218959748745">
        <ele>228.44999999999999</ele>
        <time>2025-04-29T13:43:43Z</time>
      </trkpt>
      <trkpt lat="43.437222987413406" lon="-6.115242009982467">
        <ele>228.44999999999999</ele>
        <time>2025-04-29T13:43:44Z</time>
      </trkpt>
      <trkpt lat="43.437140006572008" lon="-6.115365978330374">
        <ele>228.44999999999999</ele>
        <time>2025-04-29T13:43:45Z</time>
      </trkpt>
      <trkpt lat="43.437056019902229" lon="-6.115501010790467">
        <ele>227.97</ele>
        <time>2025-04-29T13:43:46Z</time>
      </trkpt>
      <trkpt lat="43.436965998262167" lon="-6.115645011886954">
        <ele>227.97</ele>
        <time>2025-04-29T13:43:47Z</time>
      </trkpt>
      <trkpt lat="43.436768017709255" lon="-6.115950029343367">
        <ele>228.44999999999999</ele>
        <time>2025-04-29T13:43:49Z</time>
      </trkpt>
      <trkpt lat="43.436644971370697" lon="-6.116072991862893">
        <ele>228.44999999999999</ele>
        <time>2025-04-29T13:43:50Z</time>
      </trkpt>
      <trkpt lat="43.436509016901255" lon="-6.116209030151367">
        <ele>228.44999999999999</ele>
        <time>2025-04-29T13:43:51Z</time>
      </trkpt>
      <trkpt lat="43.436386976391077" lon="-6.116284970194101">
        <ele>228.44999999999999</ele>
        <time>2025-04-29T13:43:52Z</time>
      </trkpt>
      <trkpt lat="43.436253033578396" lon="-6.116368034854531">
        <ele>228.44999999999999</ele>
        <time>2025-04-29T13:43:53Z</time>
      </trkpt>
      <trkpt lat="43.436115989461541" lon="-6.116453027352691">
        <ele>228.44999999999999</ele>
        <time>2025-04-29T13:43:54Z</time>
      </trkpt>
      <trkpt lat="43.435834022238851" lon="-6.116628963500261">
        <ele>228.44999999999999</ele>
        <time>2025-04-29T13:43:56Z</time>
      </trkpt>
      <trkpt lat="43.435695972293615" lon="-6.116747986525297">
        <ele>228.44999999999999</ele>
        <time>2025-04-29T13:43:57Z</time>
      </trkpt>
      <trkpt lat="43.435619026422501" lon="-6.116930963471532">
        <ele>228.44999999999999</ele>
        <time>2025-04-29T13:43:58Z</time>
      </trkpt>
      <trkpt lat="43.435540990903974" lon="-6.117114024236798">
        <ele>228.44999999999999</ele>
        <time>2025-04-29T13:43:59Z</time>
      </trkpt>
      <trkpt lat="43.435463961213827" lon="-6.117299012839794">
        <ele>228.44999999999999</ele>
        <time>2025-04-29T13:44:00Z</time>
      </trkpt>
      <trkpt lat="43.435389026999474" lon="-6.117476960644126">
        <ele>228.44999999999999</ele>
        <time>2025-04-29T13:44:01Z</time>
      </trkpt>
      <trkpt lat="43.435303028672934" lon="-6.117610987275839">
        <ele>227.97</ele>
        <time>2025-04-29T13:44:02Z</time>
      </trkpt>
      <trkpt lat="43.43521099537611" lon="-6.117736967280507">
        <ele>227.97</ele>
        <time>2025-04-29T13:44:03Z</time>
      </trkpt>
      <trkpt lat="43.435112005099654" lon="-6.117846015840769">
        <ele>227.49000000000001</ele>
        <time>2025-04-29T13:44:04Z</time>
      </trkpt>
      <trkpt lat="43.434983007609844" lon="-6.117878034710884">
        <ele>227.00999999999999</ele>
        <time>2025-04-29T13:44:05Z</time>
      </trkpt>
      <trkpt lat="43.434859039261937" lon="-6.117908963933587">
        <ele>227.00999999999999</ele>
        <time>2025-04-29T13:44:06Z</time>
      </trkpt>
      <trkpt lat="43.434728030115366" lon="-6.117879962548614">
        <ele>226.53</ele>
        <time>2025-04-29T13:44:07Z</time>
      </trkpt>
      <trkpt lat="43.434618981555104" lon="-6.117804022505879">
        <ele>226.53</ele>
        <time>2025-04-29T13:44:08Z</time>
      </trkpt>
      <trkpt lat="43.434514962136745" lon="-6.117730010300875">
        <ele>226.05000000000001</ele>
        <time>2025-04-29T13:44:09Z</time>
      </trkpt>
      <trkpt lat="43.434411026537418" lon="-6.117653986439109">
        <ele>226.05000000000001</ele>
        <time>2025-04-29T13:44:10Z</time>
      </trkpt>
      <trkpt lat="43.434321004897356" lon="-6.117578968405724">
        <ele>225.56999999999999</ele>
        <time>2025-04-29T13:44:11Z</time>
      </trkpt>
      <trkpt lat="43.434231989085674" lon="-6.117588020861149">
        <ele>225.56999999999999</ele>
        <time>2025-04-29T13:44:12Z</time>
      </trkpt>
      <trkpt lat="43.434168035164475" lon="-6.117649963125587">
        <ele>225.09</ele>
        <time>2025-04-29T13:44:13Z</time>
      </trkpt>
      <trkpt lat="43.434109026566148" lon="-6.117768986150622">
        <ele>225.56999999999999</ele>
        <time>2025-04-29T13:44:14Z</time>
      </trkpt>
      <trkpt lat="43.434040965512395" lon="-6.117904018610716">
        <ele>225.56999999999999</ele>
        <time>2025-04-29T13:44:15Z</time>
      </trkpt>
      <trkpt lat="43.433987991884351" lon="-6.118053970858455">
        <ele>225.56999999999999</ele>
        <time>2025-04-29T13:44:16Z</time>
      </trkpt>
      <trkpt lat="43.433937029913068" lon="-6.118199983611703">
        <ele>225.56999999999999</ele>
        <time>2025-04-29T13:44:17Z</time>
      </trkpt>
      <trkpt lat="43.43387701548636" lon="-6.118290005251765">
        <ele>225.56999999999999</ele>
        <time>2025-04-29T13:44:18Z</time>
      </trkpt>
      <trkpt lat="43.433785988017917" lon="-6.118344990536571">
        <ele>225.56999999999999</ele>
        <time>2025-04-29T13:44:19Z</time>
      </trkpt>
      <trkpt lat="43.4336849860847" lon="-6.118405004963279">
        <ele>225.09</ele>
        <time>2025-04-29T13:44:20Z</time>
      </trkpt>
      <trkpt lat="43.433570992201567" lon="-6.118473988026381">
        <ele>225.09</ele>
        <time>2025-04-29T13:44:21Z</time>
      </trkpt>
      <trkpt lat="43.433450041338801" lon="-6.118545988574624">
        <ele>224.61000000000001</ele>
        <time>2025-04-29T13:44:22Z</time>
      </trkpt>
      <trkpt lat="43.43334099277854" lon="-6.118679009377956">
        <ele>224.12</ele>
        <time>2025-04-29T13:44:23Z</time>
      </trkpt>
      <trkpt lat="43.43327502720058" lon="-6.118850000202656">
        <ele>223.63999999999999</ele>
        <time>2025-04-29T13:44:24Z</time>
      </trkpt>
      <trkpt lat="43.433214006945491" lon="-6.119038006290793">
        <ele>223.16</ele>
        <time>2025-04-29T13:44:25Z</time>
      </trkpt>
      <trkpt lat="43.433176958933473" lon="-6.119231963530183">
        <ele>222.68000000000001</ele>
        <time>2025-04-29T13:44:26Z</time>
      </trkpt>
      <trkpt lat="43.433141000568867" lon="-6.11941603012383">
        <ele>222.68000000000001</ele>
        <time>2025-04-29T13:44:27Z</time>
      </trkpt>
      <trkpt lat="43.4331030305475" lon="-6.119560031220317">
        <ele>222.68000000000001</ele>
        <time>2025-04-29T13:44:28Z</time>
      </trkpt>
      <trkpt lat="43.433027006685734" lon="-6.119687017053366">
        <ele>222.68000000000001</ele>
        <time>2025-04-29T13:44:29Z</time>
      </trkpt>
      <trkpt lat="43.432952994480729" lon="-6.119771003723145">
        <ele>222.68000000000001</ele>
        <time>2025-04-29T13:44:30Z</time>
      </trkpt>
      <trkpt lat="43.43284604139626" lon="-6.119833029806614">
        <ele>222.19999999999999</ele>
        <time>2025-04-29T13:44:31Z</time>
      </trkpt>
      <trkpt lat="43.432731963694096" lon="-6.119900001212955">
        <ele>222.19999999999999</ele>
        <time>2025-04-29T13:44:32Z</time>
      </trkpt>
      <trkpt lat="43.432621993124485" lon="-6.119883991777897">
        <ele>221.72</ele>
        <time>2025-04-29T13:44:33Z</time>
      </trkpt>
      <trkpt lat="43.432431975379586" lon="-6.119857002049685">
        <ele>221.24000000000001</ele>
        <time>2025-04-29T13:44:34Z</time>
      </trkpt>
      <trkpt lat="43.432344971224666" lon="-6.119769997894764">
        <ele>221.24000000000001</ele>
        <time>2025-04-29T13:44:35Z</time>
      </trkpt>
      <trkpt lat="43.432259978726506" lon="-6.119685005396605">
        <ele>220.75999999999999</ele>
        <time>2025-04-29T13:44:36Z</time>
      </trkpt>
      <trkpt lat="43.432196024805307" lon="-6.119492975994945">
        <ele>220.28</ele>
        <time>2025-04-29T13:44:37Z</time>
      </trkpt>
      <trkpt lat="43.432150008156896" lon="-6.119356015697122">
        <ele>219.80000000000001</ele>
        <time>2025-04-29T13:44:38Z</time>
      </trkpt>
      <trkpt lat="43.432123018428683" lon="-6.119245961308479">
        <ele>219.80000000000001</ele>
        <time>2025-04-29T13:44:39Z</time>
      </trkpt>
      <trkpt lat="43.432098962366581" lon="-6.119107995182276">
        <ele>219.31999999999999</ele>
        <time>2025-04-29T13:44:40Z</time>
      </trkpt>
      <trkpt lat="43.432072978466749" lon="-6.118946978822351">
        <ele>218.36000000000001</ele>
        <time>2025-04-29T13:44:41Z</time>
      </trkpt>
      <trkpt lat="43.432041965425014" lon="-6.118765007704496">
        <ele>217.88</ele>
        <time>2025-04-29T13:44:42Z</time>
      </trkpt>
      <trkpt lat="43.431950015947223" lon="-6.118224961683154">
        <ele>215.94999999999999</ele>
        <time>2025-04-29T13:44:45Z</time>
      </trkpt>
      <trkpt lat="43.431916991248727" lon="-6.118078026920557">
        <ele>214.99000000000001</ele>
        <time>2025-04-29T13:44:46Z</time>
      </trkpt>
      <trkpt lat="43.431892013177276" lon="-6.117966966703534">
        <ele>214.03</ele>
        <time>2025-04-29T13:44:47Z</time>
      </trkpt>
      <trkpt lat="43.43187902122736" lon="-6.117907036095858">
        <ele>213.06999999999999</ele>
        <time>2025-04-29T13:44:48Z</time>
      </trkpt>
      <trkpt lat="43.431701995432377" lon="-6.117968978360295">
        <ele>212.11000000000001</ele>
        <time>2025-04-29T13:44:49Z</time>
      </trkpt>
      <trkpt lat="43.431671988219023" lon="-6.118006026372314">
        <ele>211.15000000000001</ele>
        <time>2025-04-29T13:44:50Z</time>
      </trkpt>
      <trkpt lat="43.431604010984302" lon="-6.118113985285163">
        <ele>210.19</ele>
        <time>2025-04-29T13:44:51Z</time>
      </trkpt>
      <trkpt lat="43.431552965193987" lon="-6.118267038837075">
        <ele>208.74000000000001</ele>
        <time>2025-04-29T13:44:52Z</time>
      </trkpt>
      <trkpt lat="43.431489011272788" lon="-6.118425037711859">
        <ele>207.78</ele>
        <time>2025-04-29T13:44:53Z</time>
      </trkpt>
      <trkpt lat="43.431393038481474" lon="-6.118557974696159">
        <ele>206.34</ele>
        <time>2025-04-29T13:44:54Z</time>
      </trkpt>
      <trkpt lat="43.431292958557606" lon="-6.118697030469775">
        <ele>205.38</ele>
        <time>2025-04-29T13:44:55Z</time>
      </trkpt>
      <trkpt lat="43.431190028786659" lon="-6.118839019909501">
        <ele>204.41999999999999</ele>
        <time>2025-04-29T13:44:56Z</time>
      </trkpt>
      <trkpt lat="43.431091038510203" lon="-6.118974974378943">
        <ele>203.46000000000001</ele>
        <time>2025-04-29T13:44:57Z</time>
      </trkpt>
      <trkpt lat="43.430989030748606" lon="-6.119116963818669">
        <ele>202.97999999999999</ele>
        <time>2025-04-29T13:44:58Z</time>
      </trkpt>
      <trkpt lat="43.430879982188344" lon="-6.11926699988544">
        <ele>202.00999999999999</ele>
        <time>2025-04-29T13:44:59Z</time>
      </trkpt>
      <trkpt lat="43.430778980255127" lon="-6.119405971840024">
        <ele>201.53</ele>
        <time>2025-04-29T13:45:00Z</time>
      </trkpt>
      <trkpt lat="43.430651994422078" lon="-6.119493981823325">
        <ele>201.05000000000001</ele>
        <time>2025-04-29T13:45:01Z</time>
      </trkpt>
      <trkpt lat="43.430501036345959" lon="-6.119599007070065">
        <ele>200.56999999999999</ele>
        <time>2025-04-29T13:45:02Z</time>
      </trkpt>
      <trkpt lat="43.430425012484193" lon="-6.119599007070065">
        <ele>200.56999999999999</ele>
        <time>2025-04-29T13:45:03Z</time>
      </trkpt>
      <trkpt lat="43.430318981409073" lon="-6.119599007070065">
        <ele>200.09</ele>
        <time>2025-04-29T13:45:04Z</time>
      </trkpt>
      <trkpt lat="43.430222002789378" lon="-6.119599007070065">
        <ele>199.61000000000001</ele>
        <time>2025-04-29T13:45:05Z</time>
      </trkpt>
      <trkpt lat="43.430136004462838" lon="-6.11965399235487">
        <ele>199.13</ele>
        <time>2025-04-29T13:45:06Z</time>
      </trkpt>
      <trkpt lat="43.430136004462838" lon="-6.119745019823313">
        <ele>199.13</ele>
        <time>2025-04-29T13:45:07Z</time>
      </trkpt>
      <trkpt lat="43.430136004462838" lon="-6.119873011484742">
        <ele>198.65000000000001</ele>
        <time>2025-04-29T13:45:08Z</time>
      </trkpt>
      <trkpt lat="43.430136004462838" lon="-6.120011983439326">
        <ele>199.13</ele>
        <time>2025-04-29T13:45:09Z</time>
      </trkpt>
      <trkpt lat="43.430130975320935" lon="-6.120184985920787">
        <ele>199.13</ele>
        <time>2025-04-29T13:45:10Z</time>
      </trkpt>
      <trkpt lat="43.430101973935962" lon="-6.12036301754415">
        <ele>199.61000000000001</ele>
        <time>2025-04-29T13:45:11Z</time>
      </trkpt>
      <trkpt lat="43.430038020014763" lon="-6.120744980871677">
        <ele>200.56999999999999</ele>
        <time>2025-04-29T13:45:13Z</time>
      </trkpt>
      <trkpt lat="43.429974988102913" lon="-6.120940027758479">
        <ele>201.05000000000001</ele>
        <time>2025-04-29T13:45:14Z</time>
      </trkpt>
      <trkpt lat="43.429901981726289" lon="-6.121121998876333">
        <ele>201.53</ele>
        <time>2025-04-29T13:45:15Z</time>
      </trkpt>
      <trkpt lat="43.429821012541652" lon="-6.121298018842936">
        <ele>202.00999999999999</ele>
        <time>2025-04-29T13:45:16Z</time>
      </trkpt>
      <trkpt lat="43.429720010608435" lon="-6.121468003839254">
        <ele>202.49000000000001</ele>
        <time>2025-04-29T13:45:17Z</time>
      </trkpt>
      <trkpt lat="43.429616997018456" lon="-6.121621979400516">
        <ele>202.49000000000001</ele>
        <time>2025-04-29T13:45:18Z</time>
      </trkpt>
      <trkpt lat="43.429518006742001" lon="-6.121771009638906">
        <ele>202.97999999999999</ele>
        <time>2025-04-29T13:45:19Z</time>
      </trkpt>
      <trkpt lat="43.429462015628815" lon="-6.121920039877296">
        <ele>202.97999999999999</ele>
        <time>2025-04-29T13:45:20Z</time>
      </trkpt>
      <trkpt lat="43.429428990930319" lon="-6.122063035145402">
        <ele>203.46000000000001</ele>
        <time>2025-04-29T13:45:21Z</time>
      </trkpt>
      <trkpt lat="43.429448017850518" lon="-6.122225979343057">
        <ele>203.46000000000001</ele>
        <time>2025-04-29T13:45:22Z</time>
      </trkpt>
      <trkpt lat="43.429521024227142" lon="-6.122338967397809">
        <ele>203.46000000000001</ele>
        <time>2025-04-29T13:45:23Z</time>
      </trkpt>
      <trkpt lat="43.429565029218793" lon="-6.122496966272593">
        <ele>203.46000000000001</ele>
        <time>2025-04-29T13:45:24Z</time>
      </trkpt>
      <trkpt lat="43.429578021168709" lon="-6.122653959318996">
        <ele>203.46000000000001</ele>
        <time>2025-04-29T13:45:25Z</time>
      </trkpt>
      <trkpt lat="43.429594030603766" lon="-6.122838025912643">
        <ele>202.97999999999999</ele>
        <time>2025-04-29T13:45:26Z</time>
      </trkpt>
      <trkpt lat="43.429639963433146" lon="-6.12302795983851">
        <ele>202.97999999999999</ele>
        <time>2025-04-29T13:45:27Z</time>
      </trkpt>
      <trkpt lat="43.429707018658519" lon="-6.123231975361705">
        <ele>202.97999999999999</ele>
        <time>2025-04-29T13:45:28Z</time>
      </trkpt>
      <trkpt lat="43.430037014186382" lon="-6.124235037714243">
        <ele>203.94</ele>
        <time>2025-04-29T13:45:33Z</time>
      </trkpt>
      <trkpt lat="43.430064003914595" lon="-6.124387001618743">
        <ele>203.46000000000001</ele>
        <time>2025-04-29T13:45:34Z</time>
      </trkpt>
      <trkpt lat="43.430041959509254" lon="-6.124536031857133">
        <ele>203.46000000000001</ele>
        <time>2025-04-29T13:45:35Z</time>
      </trkpt>
      <trkpt lat="43.429990997537971" lon="-6.124695036560297">
        <ele>203.46000000000001</ele>
        <time>2025-04-29T13:45:36Z</time>
      </trkpt>
      <trkpt lat="43.429914973676205" lon="-6.124845994636416">
        <ele>204.41999999999999</ele>
        <time>2025-04-29T13:45:37Z</time>
      </trkpt>
      <trkpt lat="43.42983802780509" lon="-6.125001981854439">
        <ele>204.41999999999999</ele>
        <time>2025-04-29T13:45:38Z</time>
      </trkpt>
      <trkpt lat="43.429767033085227" lon="-6.125149000436068">
        <ele>204.41999999999999</ele>
        <time>2025-04-29T13:45:39Z</time>
      </trkpt>
      <trkpt lat="43.429729985073209" lon="-6.125305993482471">
        <ele>204.41999999999999</ele>
        <time>2025-04-29T13:45:40Z</time>
      </trkpt>
      <trkpt lat="43.429748006165028" lon="-6.125458041206002">
        <ele>204.41999999999999</ele>
        <time>2025-04-29T13:45:41Z</time>
      </trkpt>
      <trkpt lat="43.429764015600085" lon="-6.125589972361922">
        <ele>204.41999999999999</ele>
        <time>2025-04-29T13:45:42Z</time>
      </trkpt>
      <trkpt lat="43.429734008386731" lon="-6.125726010650396">
        <ele>204.90000000000001</ele>
        <time>2025-04-29T13:45:43Z</time>
      </trkpt>
      <trkpt lat="43.429671982303262" lon="-6.125852996483445">
        <ele>205.38</ele>
        <time>2025-04-29T13:45:44Z</time>
      </trkpt>
      <trkpt lat="43.429605010896921" lon="-6.1259900406003">
        <ele>205.86000000000001</ele>
        <time>2025-04-29T13:45:45Z</time>
      </trkpt>
      <trkpt lat="43.429309967905283" lon="-6.126566966995597">
        <ele>206.34</ele>
        <time>2025-04-29T13:45:49Z</time>
      </trkpt>
      <trkpt lat="43.429222963750362" lon="-6.126666041091085">
        <ele>206.81999999999999</ele>
        <time>2025-04-29T13:45:50Z</time>
      </trkpt>
      <trkpt lat="43.429132020100951" lon="-6.126769976690412">
        <ele>206.81999999999999</ele>
        <time>2025-04-29T13:45:51Z</time>
      </trkpt>
      <trkpt lat="43.429032023996115" lon="-6.126882964745164">
        <ele>206.81999999999999</ele>
        <time>2025-04-29T13:45:52Z</time>
      </trkpt>
      <trkpt lat="43.428920041769743" lon="-6.126995030790567">
        <ele>206.81999999999999</ele>
        <time>2025-04-29T13:45:53Z</time>
      </trkpt>
      <trkpt lat="43.428266001865268" lon="-6.127358973026276">
        <ele>203.46000000000001</ele>
        <time>2025-04-29T13:45:58Z</time>
      </trkpt>
      <trkpt lat="43.428158964961767" lon="-6.127494005486369">
        <ele>202.49000000000001</ele>
        <time>2025-04-29T13:45:59Z</time>
      </trkpt>
      <trkpt lat="43.427465027198195" lon="-6.12831300124526">
        <ele>197.21000000000001</ele>
        <time>2025-04-29T13:46:05Z</time>
      </trkpt>
      <trkpt lat="43.427400989457965" lon="-6.128515005111694">
        <ele>196.25</ele>
        <time>2025-04-29T13:46:06Z</time>
      </trkpt>
      <trkpt lat="43.427340975031257" lon="-6.128722038120031">
        <ele>195.28</ele>
        <time>2025-04-29T13:46:07Z</time>
      </trkpt>
      <trkpt lat="43.427136037498713" lon="-6.1295560374856">
        <ele>190.96000000000001</ele>
        <time>2025-04-29T13:46:11Z</time>
      </trkpt>
      <trkpt lat="43.427114998921752" lon="-6.129744965583086">
        <ele>190</ele>
        <time>2025-04-29T13:46:12Z</time>
      </trkpt>
      <trkpt lat="43.427160009741783" lon="-6.129913022741675">
        <ele>189.52000000000001</ele>
        <time>2025-04-29T13:46:13Z</time>
      </trkpt>
      <trkpt lat="43.427207032218575" lon="-6.130089964717627">
        <ele>188.56</ele>
        <time>2025-04-29T13:46:14Z</time>
      </trkpt>
      <trkpt lat="43.427252965047956" lon="-6.130262967199087">
        <ele>188.08000000000001</ele>
        <time>2025-04-29T13:46:15Z</time>
      </trkpt>
      <trkpt lat="43.427293030545115" lon="-6.130595980212092">
        <ele>187.11000000000001</ele>
        <time>2025-04-29T13:46:17Z</time>
      </trkpt>
      <trkpt lat="43.427299987524748" lon="-6.130756996572018">
        <ele>186.15000000000001</ele>
        <time>2025-04-29T13:46:18Z</time>
      </trkpt>
      <trkpt lat="43.427297975867987" lon="-6.130921030417085">
        <ele>186.15000000000001</ele>
        <time>2025-04-29T13:46:19Z</time>
      </trkpt>
      <trkpt lat="43.427263023331761" lon="-6.131639024242759">
        <ele>184.71000000000001</ele>
        <time>2025-04-29T13:46:23Z</time>
      </trkpt>
      <trkpt lat="43.42730300500989" lon="-6.131841028109193">
        <ele>183.75</ele>
        <time>2025-04-29T13:46:24Z</time>
      </trkpt>
      <trkpt lat="43.427352039143443" lon="-6.132026016712189">
        <ele>183.27000000000001</ele>
        <time>2025-04-29T13:46:25Z</time>
      </trkpt>
      <trkpt lat="43.427401995286345" lon="-6.132217962294817">
        <ele>182.78999999999999</ele>
        <time>2025-04-29T13:46:26Z</time>
      </trkpt>
      <trkpt lat="43.427453963086009" lon="-6.13241602666676">
        <ele>182.31</ele>
        <time>2025-04-29T13:46:27Z</time>
      </trkpt>
      <trkpt lat="43.427515989169478" lon="-6.132614007219672">
        <ele>181.83000000000001</ele>
        <time>2025-04-29T13:46:28Z</time>
      </trkpt>
      <trkpt lat="43.427916979417205" lon="-6.133786970749497">
        <ele>176.53999999999999</ele>
        <time>2025-04-29T13:46:35Z</time>
      </trkpt>
      <trkpt lat="43.4279690310359" lon="-6.133939018473029">
        <ele>175.58000000000001</ele>
        <time>2025-04-29T13:46:36Z</time>
      </trkpt>
      <trkpt lat="43.428009012714028" lon="-6.134089976549149">
        <ele>174.62</ele>
        <time>2025-04-29T13:46:37Z</time>
      </trkpt>
      <trkpt lat="43.427997026592493" lon="-6.1342219915241">
        <ele>173.66</ele>
        <time>2025-04-29T13:46:38Z</time>
      </trkpt>
      <trkpt lat="43.427964001893997" lon="-6.13435098901391">
        <ele>172.69</ele>
        <time>2025-04-29T13:46:39Z</time>
      </trkpt>
      <trkpt lat="43.427902981638908" lon="-6.134472023695707">
        <ele>171.72999999999999</ele>
        <time>2025-04-29T13:46:40Z</time>
      </trkpt>
      <trkpt lat="43.427836010232568" lon="-6.134604038670659">
        <ele>170.77000000000001</ele>
        <time>2025-04-29T13:46:41Z</time>
      </trkpt>
      <trkpt lat="43.427595030516386" lon="-6.134967980906367">
        <ele>168.37</ele>
        <time>2025-04-29T13:46:44Z</time>
      </trkpt>
      <trkpt lat="43.42749503441155" lon="-6.135052973404527">
        <ele>167.41</ele>
        <time>2025-04-29T13:46:45Z</time>
      </trkpt>
      <trkpt lat="43.427073005586863" lon="-6.135361008346081">
        <ele>164.52000000000001</ele>
        <time>2025-04-29T13:46:49Z</time>
      </trkpt>
      <trkpt lat="43.426954988390207" lon="-6.135396966710687">
        <ele>164.03999999999999</ele>
        <time>2025-04-29T13:46:50Z</time>
      </trkpt>
      <trkpt lat="43.426828002557158" lon="-6.135434014722705">
        <ele>163.08000000000001</ele>
        <time>2025-04-29T13:46:51Z</time>
      </trkpt>
      <trkpt lat="43.426704034209251" lon="-6.13538196310401">
        <ele>162.59999999999999</ele>
        <time>2025-04-29T13:46:52Z</time>
      </trkpt>
      <trkpt lat="43.426582999527454" lon="-6.135331001132727">
        <ele>161.63999999999999</ele>
        <time>2025-04-29T13:46:53Z</time>
      </trkpt>
      <trkpt lat="43.426472023129463" lon="-6.135283978655934">
        <ele>160.68000000000001</ele>
        <time>2025-04-29T13:46:54Z</time>
      </trkpt>
      <trkpt lat="43.42642399482429" lon="-6.135264029726386">
        <ele>159.72</ele>
        <time>2025-04-29T13:46:55Z</time>
      </trkpt>
      <trkpt lat="43.42638099566102" lon="-6.135327983647585">
        <ele>158.27000000000001</ele>
        <time>2025-04-29T13:46:56Z</time>
      </trkpt>
      <trkpt lat="43.426364986225963" lon="-6.135395038872957">
        <ele>157.31</ele>
        <time>2025-04-29T13:46:57Z</time>
      </trkpt>
      <trkpt lat="43.426341013982892" lon="-6.135498974472284">
        <ele>156.34999999999999</ele>
        <time>2025-04-29T13:46:58Z</time>
      </trkpt>
      <trkpt lat="43.426312012597919" lon="-6.135622020810843">
        <ele>155.38999999999999</ele>
        <time>2025-04-29T13:46:59Z</time>
      </trkpt>
      <trkpt lat="43.426279993727803" lon="-6.135757975280285">
        <ele>154.43000000000001</ele>
        <time>2025-04-29T13:47:00Z</time>
      </trkpt>
      <trkpt lat="43.426246969029307" lon="-6.13589895889163">
        <ele>152.99000000000001</ele>
        <time>2025-04-29T13:47:01Z</time>
      </trkpt>
      <trkpt lat="43.426162982359529" lon="-6.136056035757065">
        <ele>152.03</ele>
        <time>2025-04-29T13:47:02Z</time>
      </trkpt>
      <trkpt lat="43.426068015396595" lon="-6.136173969134688">
        <ele>151.06</ele>
        <time>2025-04-29T13:47:03Z</time>
      </trkpt>
      <trkpt lat="43.425947986543179" lon="-6.136276982724667">
        <ele>150.09999999999999</ele>
        <time>2025-04-29T13:47:04Z</time>
      </trkpt>
      <trkpt lat="43.425826029852033" lon="-6.136376978829503">
        <ele>149.62</ele>
        <time>2025-04-29T13:47:05Z</time>
      </trkpt>
      <trkpt lat="43.424564972519875" lon="-6.137274010106921">
        <ele>143.37</ele>
        <time>2025-04-29T13:47:15Z</time>
      </trkpt>
      <trkpt lat="43.423553025349975" lon="-6.137867029756308">
        <ele>138.56999999999999</ele>
        <time>2025-04-29T13:47:23Z</time>
      </trkpt>
      <trkpt lat="43.423440959304571" lon="-6.137889996170998">
        <ele>138.09</ele>
        <time>2025-04-29T13:47:24Z</time>
      </trkpt>
      <trkpt lat="43.423340963199735" lon="-6.137889996170998">
        <ele>137.61000000000001</ele>
        <time>2025-04-29T13:47:25Z</time>
      </trkpt>
      <trkpt lat="43.423242978751659" lon="-6.137855965644121">
        <ele>137.13</ele>
        <time>2025-04-29T13:47:26Z</time>
      </trkpt>
      <trkpt lat="43.423138037323952" lon="-6.137819001451135">
        <ele>136.63999999999999</ele>
        <time>2025-04-29T13:47:27Z</time>
      </trkpt>
      <trkpt lat="43.422836037352681" lon="-6.137672988697887">
        <ele>136.16</ele>
        <time>2025-04-29T13:47:30Z</time>
      </trkpt>
      <trkpt lat="43.422647025436163" lon="-6.137538040056825">
        <ele>135.68000000000001</ele>
        <time>2025-04-29T13:47:32Z</time>
      </trkpt>
      <trkpt lat="43.42246999964118" lon="-6.137411976233125">
        <ele>135.19999999999999</ele>
        <time>2025-04-29T13:47:34Z</time>
      </trkpt>
      <trkpt lat="43.422347037121654" lon="-6.137322960421443">
        <ele>134.72</ele>
        <time>2025-04-29T13:47:35Z</time>
      </trkpt>
      <trkpt lat="43.422322981059551" lon="-6.137254983186722">
        <ele>134.24000000000001</ele>
        <time>2025-04-29T13:47:36Z</time>
      </trkpt>
      <trkpt lat="43.422276964411139" lon="-6.137124979868531">
        <ele>133.75999999999999</ele>
        <time>2025-04-29T13:47:37Z</time>
      </trkpt>
      <trkpt lat="43.422230025753379" lon="-6.136987013742328">
        <ele>132.80000000000001</ele>
        <time>2025-04-29T13:47:38Z</time>
      </trkpt>
      <trkpt lat="43.422175040468574" lon="-6.136830020695925">
        <ele>132.31999999999999</ele>
        <time>2025-04-29T13:47:39Z</time>
      </trkpt>
      <trkpt lat="43.422088036313653" lon="-6.136779980733991">
        <ele>131.84</ele>
        <time>2025-04-29T13:47:40Z</time>
      </trkpt>
      <trkpt lat="43.421979993581772" lon="-6.136718960478902">
        <ele>131.36000000000001</ele>
        <time>2025-04-29T13:47:41Z</time>
      </trkpt>
      <trkpt lat="43.421831969171762" lon="-6.136689959093928">
        <ele>130.88</ele>
        <time>2025-04-29T13:47:42Z</time>
      </trkpt>
      <trkpt lat="43.421727027744055" lon="-6.136766988784075">
        <ele>130.88</ele>
        <time>2025-04-29T13:47:43Z</time>
      </trkpt>
      <trkpt lat="43.421612028032541" lon="-6.136851981282234">
        <ele>130.40000000000001</ele>
        <time>2025-04-29T13:47:44Z</time>
      </trkpt>
      <trkpt lat="43.421467021107674" lon="-6.136959018185735">
        <ele>129.91999999999999</ele>
        <time>2025-04-29T13:47:45Z</time>
      </trkpt>
      <trkpt lat="43.421142976731062" lon="-6.137254983186722">
        <ele>129.43000000000001</ele>
        <time>2025-04-29T13:47:48Z</time>
      </trkpt>
      <trkpt lat="43.42100702226162" lon="-6.137336036190391">
        <ele>129.43000000000001</ele>
        <time>2025-04-29T13:47:49Z</time>
      </trkpt>
      <trkpt lat="43.420864026993513" lon="-6.137420022860169">
        <ele>128.94999999999999</ele>
        <time>2025-04-29T13:47:50Z</time>
      </trkpt>
      <trkpt lat="43.42070896178484" lon="-6.137540973722935">
        <ele>127.98999999999999</ele>
        <time>2025-04-29T13:47:51Z</time>
      </trkpt>
      <trkpt lat="43.420607959851623" lon="-6.137707019224763">
        <ele>127.03</ele>
        <time>2025-04-29T13:47:52Z</time>
      </trkpt>
      <trkpt lat="43.420503018423915" lon="-6.137881027534604">
        <ele>126.06999999999999</ele>
        <time>2025-04-29T13:47:53Z</time>
      </trkpt>
      <trkpt lat="43.420122982934117" lon="-6.138547975569964">
        <ele>122.22</ele>
        <time>2025-04-29T13:47:57Z</time>
      </trkpt>
      <trkpt lat="43.420089958235621" lon="-6.138709997758269">
        <ele>121.26000000000001</ele>
        <time>2025-04-29T13:47:58Z</time>
      </trkpt>
      <trkpt lat="43.420058023184538" lon="-6.138864979147911">
        <ele>120.3</ele>
        <time>2025-04-29T13:47:59Z</time>
      </trkpt>
      <trkpt lat="43.420026004314423" lon="-6.139017026871443">
        <ele>118.86</ele>
        <time>2025-04-29T13:48:00Z</time>
      </trkpt>
      <trkpt lat="43.419986022636294" lon="-6.139211989939213">
        <ele>117.42</ele>
        <time>2025-04-29T13:48:01Z</time>
      </trkpt>
      <trkpt lat="43.41993598267436" lon="-6.139321960508823">
        <ele>115.98</ele>
        <time>2025-04-29T13:48:02Z</time>
      </trkpt>
      <trkpt lat="43.419850990176201" lon="-6.139478031545878">
        <ele>114.53</ele>
        <time>2025-04-29T13:48:03Z</time>
      </trkpt>
      <trkpt lat="43.419734984636307" lon="-6.139605017378926">
        <ele>113.09</ele>
        <time>2025-04-29T13:48:04Z</time>
      </trkpt>
      <trkpt lat="43.4196110162884" lon="-6.139732003211975">
        <ele>111.65000000000001</ele>
        <time>2025-04-29T13:48:05Z</time>
      </trkpt>
      <trkpt lat="43.419200973585248" lon="-6.140082031488419">
        <ele>107.81</ele>
        <time>2025-04-29T13:48:08Z</time>
      </trkpt>
      <trkpt lat="43.419040963053703" lon="-6.140201976522803">
        <ele>106.84</ele>
        <time>2025-04-29T13:48:09Z</time>
      </trkpt>
      <trkpt lat="43.418884975835681" lon="-6.140227038413286">
        <ele>105.40000000000001</ele>
        <time>2025-04-29T13:48:10Z</time>
      </trkpt>
      <trkpt lat="43.418729994446039" lon="-6.140252016484737">
        <ele>104.44</ele>
        <time>2025-04-29T13:48:11Z</time>
      </trkpt>
      <trkpt lat="43.418580964207649" lon="-6.140274982899427">
        <ele>103</ele>
        <time>2025-04-29T13:48:12Z</time>
      </trkpt>
      <trkpt lat="43.417222006246448" lon="-6.140269031748176">
        <ele>93.870000000000005</ele>
        <time>2025-04-29T13:48:21Z</time>
      </trkpt>
      <trkpt lat="43.417075993493199" lon="-6.140271965414286">
        <ele>93.390000000000001</ele>
        <time>2025-04-29T13:48:22Z</time>
      </trkpt>
      <trkpt lat="43.416666034609079" lon="-6.140385959297419">
        <ele>90.980000000000004</ele>
        <time>2025-04-29T13:48:25Z</time>
      </trkpt>
      <trkpt lat="43.416576012969017" lon="-6.140475980937481">
        <ele>90.019999999999996</ele>
        <time>2025-04-29T13:48:26Z</time>
      </trkpt>
      <trkpt lat="43.416532007977366" lon="-6.140520991757512">
        <ele>89.060000000000002</ele>
        <time>2025-04-29T13:48:27Z</time>
      </trkpt>
      <trkpt lat="43.416480962187052" lon="-6.140673961490393">
        <ele>88.099999999999994</ele>
        <time>2025-04-29T13:48:28Z</time>
      </trkpt>
      <trkpt lat="43.416422959417105" lon="-6.140813017264009">
        <ele>87.620000000000005</ele>
        <time>2025-04-29T13:48:29Z</time>
      </trkpt>
      <trkpt lat="43.416357999667525" lon="-6.140908990055323">
        <ele>86.659999999999997</ele>
        <time>2025-04-29T13:48:30Z</time>
      </trkpt>
      <trkpt lat="43.416124982759356" lon="-6.141221970319748">
        <ele>83.769999999999996</ele>
        <time>2025-04-29T13:48:33Z</time>
      </trkpt>
      <trkpt lat="43.416037978604436" lon="-6.141287013888359">
        <ele>82.810000000000002</ele>
        <time>2025-04-29T13:48:34Z</time>
      </trkpt>
      <trkpt lat="43.415960026904941" lon="-6.14133202470839">
        <ele>81.849999999999994</ele>
        <time>2025-04-29T13:48:35Z</time>
      </trkpt>
      <trkpt lat="43.41589598916471" lon="-6.141279973089695">
        <ele>81.370000000000005</ele>
        <time>2025-04-29T13:48:36Z</time>
      </trkpt>
      <trkpt lat="43.415845027193427" lon="-6.141229011118412">
        <ele>80.409999999999997</ele>
        <time>2025-04-29T13:48:37Z</time>
      </trkpt>
      <trkpt lat="43.415845027193427" lon="-6.141229011118412">
        <ele>79.450000000000003</ele>
        <time>2025-04-29T13:48:38Z</time>
      </trkpt>
      <trkpt lat="43.415821976959705" lon="-6.141090039163828">
        <ele>78.480000000000004</ele>
        <time>2025-04-29T13:48:39Z</time>
      </trkpt>
      <trkpt lat="43.415804961696267" lon="-6.140989037230611">
        <ele>77.519999999999996</ele>
        <time>2025-04-29T13:48:40Z</time>
      </trkpt>
      <trkpt lat="43.415750982239842" lon="-6.1407530028373">
        <ele>74.640000000000001</ele>
        <time>2025-04-29T13:48:42Z</time>
      </trkpt>
      <trkpt lat="43.415579991415143" lon="-6.14066599868238">
        <ele>73.680000000000007</ele>
        <time>2025-04-29T13:48:43Z</time>
      </trkpt>
      <trkpt lat="43.415545038878918" lon="-6.140671027824283">
        <ele>72.719999999999999</ele>
        <time>2025-04-29T13:48:44Z</time>
      </trkpt>
      <trkpt lat="43.415503967553377" lon="-6.14073297008872">
        <ele>71.269999999999996</ele>
        <time>2025-04-29T13:48:45Z</time>
      </trkpt>
      <trkpt lat="43.415464991703629" lon="-6.140792984515429">
        <ele>70.310000000000002</ele>
        <time>2025-04-29T13:48:46Z</time>
      </trkpt>
      <trkpt lat="43.415412018075585" lon="-6.140875965356827">
        <ele>68.870000000000005</ele>
        <time>2025-04-29T13:48:47Z</time>
      </trkpt>
      <trkpt lat="43.41535996645689" lon="-6.140957018360496">
        <ele>67.909999999999997</ele>
        <time>2025-04-29T13:48:48Z</time>
      </trkpt>
      <trkpt lat="43.41531596146524" lon="-6.141081992536783">
        <ele>67.430000000000007</ele>
        <time>2025-04-29T13:48:49Z</time>
      </trkpt>
      <trkpt lat="43.415334988385439" lon="-6.1412020213902">
        <ele>66.950000000000003</ele>
        <time>2025-04-29T13:48:50Z</time>
      </trkpt>
      <trkpt lat="43.415354015305638" lon="-6.141321966424584">
        <ele>65.989999999999995</ele>
        <time>2025-04-29T13:48:51Z</time>
      </trkpt>
      <trkpt lat="43.415389973670244" lon="-6.141553977504373">
        <ele>64.549999999999997</ele>
        <time>2025-04-29T13:48:53Z</time>
      </trkpt>
      <trkpt lat="43.415409000590444" lon="-6.141670988872647">
        <ele>64.069999999999993</ele>
        <time>2025-04-29T13:48:54Z</time>
      </trkpt>
      <trkpt lat="43.415426015853882" lon="-6.141777019947767">
        <ele>63.579999999999998</ele>
        <time>2025-04-29T13:48:55Z</time>
      </trkpt>
      <trkpt lat="43.415411012247205" lon="-6.141928983852267">
        <ele>63.579999999999998</ele>
        <time>2025-04-29T13:48:56Z</time>
      </trkpt>
      <trkpt lat="43.415381005033851" lon="-6.142021017149091">
        <ele>64.069999999999993</ele>
        <time>2025-04-29T13:48:57Z</time>
      </trkpt>
      <trkpt lat="43.415331970900297" lon="-6.142135011032224">
        <ele>64.549999999999997</ele>
        <time>2025-04-29T13:48:58Z</time>
      </trkpt>
      <trkpt lat="43.415281008929014" lon="-6.142204999923706">
        <ele>65.030000000000001</ele>
        <time>2025-04-29T13:48:59Z</time>
      </trkpt>
      <trkpt lat="43.415231974795461" lon="-6.142269959673286">
        <ele>65.510000000000005</ele>
        <time>2025-04-29T13:49:00Z</time>
      </trkpt>
      <trkpt lat="43.415140025317669" lon="-6.142396023496985">
        <ele>66.469999999999999</ele>
        <time>2025-04-29T13:49:03Z</time>
      </trkpt>
      <trkpt lat="43.415140025317669" lon="-6.142615964636207">
        <ele>66.950000000000003</ele>
        <time>2025-04-29T13:49:04Z</time>
      </trkpt>
      <trkpt lat="43.415190987288952" lon="-6.142673967406154">
        <ele>67.430000000000007</ele>
        <time>2025-04-29T13:49:05Z</time>
      </trkpt>
      <trkpt lat="43.41527296230197" lon="-6.142860967665911">
        <ele>67.909999999999997</ele>
        <time>2025-04-29T13:49:07Z</time>
      </trkpt>
      <trkpt lat="43.415317973122001" lon="-6.142997005954385">
        <ele>67.430000000000007</ele>
        <time>2025-04-29T13:49:08Z</time>
      </trkpt>
      <trkpt lat="43.415372958406806" lon="-6.143160033971071">
        <ele>67.430000000000007</ele>
        <time>2025-04-29T13:49:09Z</time>
      </trkpt>
      <trkpt lat="43.415363989770412" lon="-6.143280984833837">
        <ele>66.950000000000003</ele>
        <time>2025-04-29T13:49:10Z</time>
      </trkpt>
      <trkpt lat="43.415352003648877" lon="-6.143454993143678">
        <ele>66.950000000000003</ele>
        <time>2025-04-29T13:49:11Z</time>
      </trkpt>
      <trkpt lat="43.415339011698961" lon="-6.143640987575054">
        <ele>66.950000000000003</ele>
        <time>2025-04-29T13:49:12Z</time>
      </trkpt>
      <trkpt lat="43.415310010313988" lon="-6.143821030855179">
        <ele>66.469999999999999</ele>
        <time>2025-04-29T13:49:13Z</time>
      </trkpt>
      <trkpt lat="43.415253013372421" lon="-6.143991015851498">
        <ele>65.989999999999995</ele>
        <time>2025-04-29T13:49:14Z</time>
      </trkpt>
      <trkpt lat="43.415196016430855" lon="-6.144164018332958">
        <ele>65.030000000000001</ele>
        <time>2025-04-29T13:49:15Z</time>
      </trkpt>
      <trkpt lat="43.415127033367753" lon="-6.144332997500897">
        <ele>64.069999999999993</ele>
        <time>2025-04-29T13:49:16Z</time>
      </trkpt>
      <trkpt lat="43.415040029212832" lon="-6.144492002204061">
        <ele>63.100000000000001</ele>
        <time>2025-04-29T13:49:17Z</time>
      </trkpt>
      <trkpt lat="43.414915977045894" lon="-6.144631979987025">
        <ele>61.659999999999997</ele>
        <time>2025-04-29T13:49:18Z</time>
      </trkpt>
      <trkpt lat="43.414780022576451" lon="-6.144775981083512">
        <ele>60.700000000000003</ele>
        <time>2025-04-29T13:49:19Z</time>
      </trkpt>
      <trkpt lat="43.414638033136725" lon="-6.14492098800838">
        <ele>59.259999999999998</ele>
        <time>2025-04-29T13:49:20Z</time>
      </trkpt>
      <trkpt lat="43.413302041590214" lon="-6.146048018708825">
        <ele>49.159999999999997</ele>
        <time>2025-04-29T13:49:28Z</time>
      </trkpt>
      <trkpt lat="43.413170026615262" lon="-6.146178022027016">
        <ele>48.200000000000003</ele>
        <time>2025-04-29T13:49:29Z</time>
      </trkpt>
      <trkpt lat="43.413077993318439" lon="-6.146300984546542">
        <ele>46.759999999999998</ele>
        <time>2025-04-29T13:49:30Z</time>
      </trkpt>
      <trkpt lat="43.412916976958513" lon="-6.146542970091105">
        <ele>44.840000000000003</ele>
        <time>2025-04-29T13:49:32Z</time>
      </trkpt>
      <trkpt lat="43.412197977304459" lon="-6.147590037435293">
        <ele>37.149999999999999</ele>
        <time>2025-04-29T13:49:41Z</time>
      </trkpt>
      <trkpt lat="43.411935037001967" lon="-6.147942999377847">
        <ele>35.229999999999997</ele>
        <time>2025-04-29T13:49:44Z</time>
      </trkpt>
      <trkpt lat="43.411843003705144" lon="-6.148065039888024">
        <ele>35.229999999999997</ele>
        <time>2025-04-29T13:49:45Z</time>
      </trkpt>
      <trkpt lat="43.411724986508489" lon="-6.148202000185847">
        <ele>35.229999999999997</ele>
        <time>2025-04-29T13:49:46Z</time>
      </trkpt>
      <trkpt lat="43.411591965705156" lon="-6.148419007658958">
        <ele>34.259999999999998</ele>
        <time>2025-04-29T13:49:48Z</time>
      </trkpt>
      <trkpt lat="43.411536980420351" lon="-6.148539036512375">
        <ele>33.780000000000001</ele>
        <time>2025-04-29T13:49:49Z</time>
      </trkpt>
      <trkpt lat="43.411507979035378" lon="-6.148643977940083">
        <ele>33.299999999999997</ele>
        <time>2025-04-29T13:49:50Z</time>
      </trkpt>
      <trkpt lat="43.411486018449068" lon="-6.148724025115371">
        <ele>33.299999999999997</ele>
        <time>2025-04-29T13:49:51Z</time>
      </trkpt>
      <trkpt lat="43.41144603677094" lon="-6.148868026211858">
        <ele>32.82</ele>
        <time>2025-04-29T13:49:52Z</time>
      </trkpt>
      <trkpt lat="43.411595989018679" lon="-6.148931980133057">
        <ele>32.340000000000003</ele>
        <time>2025-04-29T13:49:53Z</time>
      </trkpt>
      <trkpt lat="43.41161803342402" lon="-6.148974979296327">
        <ele>32.340000000000003</ele>
        <time>2025-04-29T13:49:54Z</time>
      </trkpt>
      <trkpt lat="43.411635970696807" lon="-6.14898000843823">
        <ele>31.859999999999999</ele>
        <time>2025-04-29T13:49:55Z</time>
      </trkpt>
      <trkpt lat="43.411729009822011" lon="-6.149008003994823">
        <ele>31.859999999999999</ele>
        <time>2025-04-29T13:49:56Z</time>
      </trkpt>
      <trkpt lat="43.41183403506875" lon="-6.149039017036557">
        <ele>31.859999999999999</ele>
        <time>2025-04-29T13:49:57Z</time>
      </trkpt>
      <trkpt lat="43.411940988153219" lon="-6.149018984287977">
        <ele>32.340000000000003</ele>
        <time>2025-04-29T13:49:58Z</time>
      </trkpt>
      <trkpt lat="43.41205196455121" lon="-6.148998029530048">
        <ele>32.340000000000003</ele>
        <time>2025-04-29T13:49:59Z</time>
      </trkpt>
      <trkpt lat="43.413096014410257" lon="-6.148913959041238">
        <ele>35.229999999999997</ele>
        <time>2025-04-29T13:50:06Z</time>
      </trkpt>
      <trkpt lat="43.414688995108008" lon="-6.149120992049575">
        <ele>37.630000000000003</ele>
        <time>2025-04-29T13:50:14Z</time>
      </trkpt>
      <trkpt lat="43.415375975891948" lon="-6.149225011467934">
        <ele>38.109999999999999</ele>
        <time>2025-04-29T13:50:19Z</time>
      </trkpt>
      <trkpt lat="43.415520982816815" lon="-6.149246972054243">
        <ele>38.590000000000003</ele>
        <time>2025-04-29T13:50:22Z</time>
      </trkpt>
      <trkpt lat="43.415537998080254" lon="-6.149248983711004">
        <ele>38.590000000000003</ele>
        <time>2025-04-29T13:50:23Z</time>
      </trkpt>
      <trkpt lat="43.41544596478343" lon="-6.149235991761088">
        <ele>38.590000000000003</ele>
        <time>2025-04-29T13:50:27Z</time>
      </trkpt>
      <trkpt lat="43.415060983970761" lon="-6.149176983162761">
        <ele>38.590000000000003</ele>
        <time>2025-04-29T13:50:31Z</time>
      </trkpt>
      <trkpt lat="43.414039984345436" lon="-6.1490230076015">
        <ele>38.109999999999999</ele>
        <time>2025-04-29T13:50:36Z</time>
      </trkpt>
      <trkpt lat="43.412699969485402" lon="-6.148893004283309">
        <ele>39.549999999999997</ele>
        <time>2025-04-29T13:50:44Z</time>
      </trkpt>
      <trkpt lat="43.411878040060401" lon="-6.149030970409513">
        <ele>41.469999999999999</ele>
        <time>2025-04-29T13:50:51Z</time>
      </trkpt>
      <trkpt lat="43.411785000935197" lon="-6.149074975401163">
        <ele>41.950000000000003</ele>
        <time>2025-04-29T13:50:52Z</time>
      </trkpt>
      <trkpt lat="43.41166103258729" lon="-6.149168014526367">
        <ele>41.950000000000003</ele>
        <time>2025-04-29T13:50:53Z</time>
      </trkpt>
      <trkpt lat="43.411696990951896" lon="-6.14930204115808">
        <ele>41.950000000000003</ele>
        <time>2025-04-29T13:50:54Z</time>
      </trkpt>
      <trkpt lat="43.411743007600307" lon="-6.149374041706324">
        <ele>41.950000000000003</ele>
        <time>2025-04-29T13:50:55Z</time>
      </trkpt>
      <trkpt lat="43.411803022027016" lon="-6.149468002840877">
        <ele>41.950000000000003</ele>
        <time>2025-04-29T13:50:56Z</time>
      </trkpt>
      <trkpt lat="43.411868987604976" lon="-6.149573028087616">
        <ele>41.950000000000003</ele>
        <time>2025-04-29T13:50:57Z</time>
      </trkpt>
      <trkpt lat="43.411950040608644" lon="-6.14969096146524">
        <ele>42.439999999999998</ele>
        <time>2025-04-29T13:50:58Z</time>
      </trkpt>
      <trkpt lat="43.413032982498407" lon="-6.150421025231481">
        <ele>43.399999999999999</ele>
        <time>2025-04-29T13:51:06Z</time>
      </trkpt>
      <trkpt lat="43.413700014352798" lon="-6.150821009650827">
        <ele>44.840000000000003</ele>
        <time>2025-04-29T13:51:11Z</time>
      </trkpt>
      <trkpt lat="43.413775032386184" lon="-6.150921005755663">
        <ele>44.840000000000003</ele>
        <time>2025-04-29T13:51:12Z</time>
      </trkpt>
      <trkpt lat="43.413833035156131" lon="-6.151015972718597">
        <ele>45.32</ele>
        <time>2025-04-29T13:51:13Z</time>
      </trkpt>
      <trkpt lat="43.413860024884343" lon="-6.151154022663832">
        <ele>45.799999999999997</ele>
        <time>2025-04-29T13:51:14Z</time>
      </trkpt>
      <trkpt lat="43.413868993520737" lon="-6.151287965476513">
        <ele>46.759999999999998</ele>
        <time>2025-04-29T13:51:15Z</time>
      </trkpt>
      <trkpt lat="43.41385398991406" lon="-6.151444958522916">
        <ele>46.759999999999998</ele>
        <time>2025-04-29T13:51:16Z</time>
      </trkpt>
      <trkpt lat="43.413837980479002" lon="-6.151605974882841">
        <ele>47.240000000000002</ele>
        <time>2025-04-29T13:51:17Z</time>
      </trkpt>
      <trkpt lat="43.41361602768302" lon="-6.153633976355195">
        <ele>45.799999999999997</ele>
        <time>2025-04-29T13:51:29Z</time>
      </trkpt>
      <trkpt lat="43.413472026586533" lon="-6.154576018452644">
        <ele>44.359999999999999</ele>
        <time>2025-04-29T13:51:35Z</time>
      </trkpt>
      <trkpt lat="43.413431039080024" lon="-6.154724964872003">
        <ele>44.359999999999999</ele>
        <time>2025-04-29T13:51:36Z</time>
      </trkpt>
      <trkpt lat="43.412957964465022" lon="-6.156359016895294">
        <ele>49.649999999999999</ele>
        <time>2025-04-29T13:51:48Z</time>
      </trkpt>
      <trkpt lat="43.412668034434319" lon="-6.157138030976057">
        <ele>51.090000000000003</ele>
        <time>2025-04-29T13:51:54Z</time>
      </trkpt>
      <trkpt lat="43.412597961723804" lon="-6.157254036515951">
        <ele>51.57</ele>
        <time>2025-04-29T13:51:55Z</time>
      </trkpt>
      <trkpt lat="43.411761028692126" lon="-6.158361034467816">
        <ele>51.57</ele>
        <time>2025-04-29T13:52:06Z</time>
      </trkpt>
      <trkpt lat="43.411694979295135" lon="-6.158443009480834">
        <ele>51.57</ele>
        <time>2025-04-29T13:52:07Z</time>
      </trkpt>
      <trkpt lat="43.41116800904274" lon="-6.159181036055088">
        <ele>52.049999999999997</ele>
        <time>2025-04-29T13:52:15Z</time>
      </trkpt>
      <trkpt lat="43.411098020151258" lon="-6.159284971654415">
        <ele>52.049999999999997</ele>
        <time>2025-04-29T13:52:16Z</time>
      </trkpt>
      <trkpt lat="43.410963993519545" lon="-6.159627959132195">
        <ele>51.090000000000003</ele>
        <time>2025-04-29T13:52:19Z</time>
      </trkpt>
      <trkpt lat="43.410880006849766" lon="-6.160007994621992">
        <ele>51.090000000000003</ele>
        <time>2025-04-29T13:52:22Z</time>
      </trkpt>
      <trkpt lat="43.41086701489985" lon="-6.160274958238006">
        <ele>51.090000000000003</ele>
        <time>2025-04-29T13:52:24Z</time>
      </trkpt>
      <trkpt lat="43.410844970494509" lon="-6.16148698143661">
        <ele>53.969999999999999</ele>
        <time>2025-04-29T13:52:34Z</time>
      </trkpt>
      <trkpt lat="43.410828039050102" lon="-6.162317963317037">
        <ele>57.82</ele>
        <time>2025-04-29T13:52:42Z</time>
      </trkpt>
      <trkpt lat="43.41082502156496" lon="-6.162419971078634">
        <ele>58.299999999999997</ele>
        <time>2025-04-29T13:52:43Z</time>
      </trkpt>
      <trkpt lat="43.410801971331239" lon="-6.163009973242879">
        <ele>60.700000000000003</ele>
        <time>2025-04-29T13:52:53Z</time>
      </trkpt>
      <trkpt lat="43.410801971331239" lon="-6.163009973242879">
        <ele>60.700000000000003</ele>
        <time>2025-04-29T13:53:05Z</time>
      </trkpt>
      <trkpt lat="43.410801971331239" lon="-6.163009973242879">
        <ele>60.219999999999999</ele>
        <time>2025-04-29T13:53:06Z</time>
      </trkpt>
      <trkpt lat="43.410812029615045" lon="-6.163055989891291">
        <ele>60.219999999999999</ele>
        <time>2025-04-29T13:53:08Z</time>
      </trkpt>
      <trkpt lat="43.410801971331239" lon="-6.163009973242879">
        <ele>59.740000000000002</ele>
        <time>2025-04-29T13:53:10Z</time>
      </trkpt>
      <trkpt lat="43.410828039050102" lon="-6.162319974973798">
        <ele>57.82</ele>
        <time>2025-04-29T13:53:20Z</time>
      </trkpt>
      <trkpt lat="43.410844970494509" lon="-6.160994041711092">
        <ele>56.369999999999997</ele>
        <time>2025-04-29T13:53:32Z</time>
      </trkpt>
      <trkpt lat="43.410981008782983" lon="-6.159567022696137">
        <ele>55.409999999999997</ele>
        <time>2025-04-29T13:53:44Z</time>
      </trkpt>
      <trkpt lat="43.411024007946253" lon="-6.159449005499482">
        <ele>55.409999999999997</ele>
        <time>2025-04-29T13:53:45Z</time>
      </trkpt>
      <trkpt lat="43.411073964089155" lon="-6.159339034929872">
        <ele>55.890000000000001</ele>
        <time>2025-04-29T13:53:46Z</time>
      </trkpt>
      <trkpt lat="43.411203967407346" lon="-6.159128984436393">
        <ele>55.890000000000001</ele>
        <time>2025-04-29T13:53:48Z</time>
      </trkpt>
      <trkpt lat="43.411275967955589" lon="-6.159024965018034">
        <ele>55.890000000000001</ele>
        <time>2025-04-29T13:53:49Z</time>
      </trkpt>
      <trkpt lat="43.41161803342402" lon="-6.158545017242432">
        <ele>55.409999999999997</ele>
        <time>2025-04-29T13:53:55Z</time>
      </trkpt>
      <trkpt lat="43.41162096709013" lon="-6.158538982272148">
        <ele>55.409999999999997</ele>
        <time>2025-04-29T13:53:56Z</time>
      </trkpt>
      <trkpt lat="43.411582997068763" lon="-6.158520961180329">
        <ele>54.93</ele>
        <time>2025-04-29T13:53:57Z</time>
      </trkpt>
      <trkpt lat="43.411638988181949" lon="-6.158502018079162">
        <ele>54.93</ele>
        <time>2025-04-29T13:53:58Z</time>
      </trkpt>
      <trkpt lat="43.411542009562254" lon="-6.158492965623736">
        <ele>54.450000000000003</ele>
        <time>2025-04-29T13:53:59Z</time>
      </trkpt>
      <trkpt lat="43.41151300817728" lon="-6.158474022522569">
        <ele>54.450000000000003</ele>
        <time>2025-04-29T13:54:00Z</time>
      </trkpt>
      <trkpt lat="43.411467997357249" lon="-6.158443009480834">
        <ele>54.450000000000003</ele>
        <time>2025-04-29T13:54:01Z</time>
      </trkpt>
      <trkpt lat="43.411411000415683" lon="-6.158403027802706">
        <ele>54.450000000000003</ele>
        <time>2025-04-29T13:54:02Z</time>
      </trkpt>
      <trkpt lat="43.411336988210678" lon="-6.158352987840772">
        <ele>54.450000000000003</ele>
        <time>2025-04-29T13:54:03Z</time>
      </trkpt>
      <trkpt lat="43.411263981834054" lon="-6.158302025869489">
        <ele>53.969999999999999</ele>
        <time>2025-04-29T13:54:04Z</time>
      </trkpt>
      <trkpt lat="43.41099601238966" lon="-6.158118965104222">
        <ele>53.969999999999999</ele>
        <time>2025-04-29T13:54:07Z</time>
      </trkpt>
      <trkpt lat="43.409960009157658" lon="-6.157382028177381">
        <ele>53.009999999999998</ele>
        <time>2025-04-29T13:54:18Z</time>
      </trkpt>
      <trkpt lat="43.409796981140971" lon="-6.157283959910274">
        <ele>52.049999999999997</ele>
        <time>2025-04-29T13:54:20Z</time>
      </trkpt>
      <trkpt lat="43.409721963107586" lon="-6.157214976847172">
        <ele>51.57</ele>
        <time>2025-04-29T13:54:21Z</time>
      </trkpt>
      <trkpt lat="43.409663960337639" lon="-6.157128978520632">
        <ele>51.57</ele>
        <time>2025-04-29T13:54:22Z</time>
      </trkpt>
      <trkpt lat="43.40949104167521" lon="-6.156876012682915">
        <ele>52.049999999999997</ele>
        <time>2025-04-29T13:54:25Z</time>
      </trkpt>
      <trkpt lat="43.409437984228134" lon="-6.156797977164388">
        <ele>52.049999999999997</ele>
        <time>2025-04-29T13:54:26Z</time>
      </trkpt>
      <trkpt lat="43.409386016428471" lon="-6.156694041565061">
        <ele>52.049999999999997</ele>
        <time>2025-04-29T13:54:27Z</time>
      </trkpt>
      <trkpt lat="43.409386016428471" lon="-6.156474016606808">
        <ele>52.049999999999997</ele>
        <time>2025-04-29T13:54:29Z</time>
      </trkpt>
      <trkpt lat="43.409386016428471" lon="-6.156313000246882">
        <ele>52.530000000000001</ele>
        <time>2025-04-29T13:54:30Z</time>
      </trkpt>
      <trkpt lat="43.409326002001762" lon="-6.15624200552702">
        <ele>52.530000000000001</ele>
        <time>2025-04-29T13:54:31Z</time>
      </trkpt>
      <trkpt lat="43.409259030595422" lon="-6.15615600720048">
        <ele>52.530000000000001</ele>
        <time>2025-04-29T13:54:32Z</time>
      </trkpt>
      <trkpt lat="43.409187030047178" lon="-6.156055005267263">
        <ele>52.530000000000001</ele>
        <time>2025-04-29T13:54:33Z</time>
      </trkpt>
      <trkpt lat="43.409115029498935" lon="-6.155952997505665">
        <ele>52.530000000000001</ele>
        <time>2025-04-29T13:54:34Z</time>
      </trkpt>
      <trkpt lat="43.409048980101943" lon="-6.155859036371112">
        <ele>52.530000000000001</ele>
        <time>2025-04-29T13:54:35Z</time>
      </trkpt>
      <trkpt lat="43.408926017582417" lon="-6.155783012509346">
        <ele>53.009999999999998</ele>
        <time>2025-04-29T13:54:36Z</time>
      </trkpt>
      <trkpt lat="43.408815963193774" lon="-6.155741019174457">
        <ele>53.009999999999998</ele>
        <time>2025-04-29T13:54:37Z</time>
      </trkpt>
      <trkpt lat="43.40871898457408" lon="-6.155689973384142">
        <ele>53.009999999999998</ele>
        <time>2025-04-29T13:54:38Z</time>
      </trkpt>
      <trkpt lat="43.408468030393124" lon="-6.155439019203186">
        <ele>53.490000000000002</ele>
        <time>2025-04-29T13:54:41Z</time>
      </trkpt>
      <trkpt lat="43.408369962126017" lon="-6.155356960371137">
        <ele>53.490000000000002</ele>
        <time>2025-04-29T13:54:42Z</time>
      </trkpt>
      <trkpt lat="43.408196959644556" lon="-6.155439019203186">
        <ele>53.490000000000002</ele>
        <time>2025-04-29T13:54:43Z</time>
      </trkpt>
      <trkpt lat="43.408166030421853" lon="-6.155518982559443">
        <ele>54.450000000000003</ele>
        <time>2025-04-29T13:54:44Z</time>
      </trkpt>
      <trkpt lat="43.408128982409835" lon="-6.155613027513027">
        <ele>54.93</ele>
        <time>2025-04-29T13:54:45Z</time>
      </trkpt>
      <trkpt lat="43.408086989074945" lon="-6.155721992254257">
        <ele>55.409999999999997</ele>
        <time>2025-04-29T13:54:46Z</time>
      </trkpt>
      <trkpt lat="43.407825976610184" lon="-6.15639204159379">
        <ele>61.659999999999997</ele>
        <time>2025-04-29T13:54:51Z</time>
      </trkpt>
      <trkpt lat="43.407648028805852" lon="-6.156850028783083">
        <ele>65.989999999999995</ele>
        <time>2025-04-29T13:54:54Z</time>
      </trkpt>
      <trkpt lat="43.407607041299343" lon="-6.157041974365711">
        <ele>67.430000000000007</ele>
        <time>2025-04-29T13:54:55Z</time>
      </trkpt>
      <trkpt lat="43.40755901299417" lon="-6.157211037352681">
        <ele>68.870000000000005</ele>
        <time>2025-04-29T13:54:56Z</time>
      </trkpt>
      <trkpt lat="43.407504027709365" lon="-6.157341962680221">
        <ele>70.310000000000002</ele>
        <time>2025-04-29T13:54:57Z</time>
      </trkpt>
      <trkpt lat="43.407476032152772" lon="-6.157408012077212">
        <ele>71.269999999999996</ele>
        <time>2025-04-29T13:54:58Z</time>
      </trkpt>
      <trkpt lat="43.407416017726064" lon="-6.157393008470535">
        <ele>71.760000000000005</ele>
        <time>2025-04-29T13:54:59Z</time>
      </trkpt>
      <trkpt lat="43.407391039654613" lon="-6.157385967671871">
        <ele>72.719999999999999</ele>
        <time>2025-04-29T13:55:00Z</time>
      </trkpt>
      <trkpt lat="43.407391039654613" lon="-6.157369958236814">
        <ele>73.680000000000007</ele>
        <time>2025-04-29T13:55:01Z</time>
      </trkpt>
      <trkpt lat="43.407391039654613" lon="-6.157271973788738">
        <ele>74.159999999999997</ele>
        <time>2025-04-29T13:55:02Z</time>
      </trkpt>
      <trkpt lat="43.407391039654613" lon="-6.157193016260862">
        <ele>75.120000000000005</ele>
        <time>2025-04-29T13:55:03Z</time>
      </trkpt>
      <trkpt lat="43.407321972772479" lon="-6.157055972144008">
        <ele>76.079999999999998</ele>
        <time>2025-04-29T13:55:04Z</time>
      </trkpt>
      <trkpt lat="43.407260030508041" lon="-6.156950024887919">
        <ele>77.040000000000006</ele>
        <time>2025-04-29T13:55:05Z</time>
      </trkpt>
      <trkpt lat="43.407198004424572" lon="-6.156850028783083">
        <ele>78</ele>
        <time>2025-04-29T13:55:06Z</time>
      </trkpt>
      <trkpt lat="43.407109994441271" lon="-6.156792026013136">
        <ele>78.969999999999999</ele>
        <time>2025-04-29T13:55:07Z</time>
      </trkpt>
      <trkpt lat="43.407018966972828" lon="-6.156760007143021">
        <ele>79.930000000000007</ele>
        <time>2025-04-29T13:55:08Z</time>
      </trkpt>
      <trkpt lat="43.406926011666656" lon="-6.156751960515976">
        <ele>80.409999999999997</ele>
        <time>2025-04-29T13:55:09Z</time>
      </trkpt>
      <trkpt lat="43.40680698864162" lon="-6.156746009364724">
        <ele>81.370000000000005</ele>
        <time>2025-04-29T13:55:10Z</time>
      </trkpt>
      <trkpt lat="43.406724007800221" lon="-6.156817004084587">
        <ele>82.810000000000002</ele>
        <time>2025-04-29T13:55:11Z</time>
      </trkpt>
      <trkpt lat="43.406618982553482" lon="-6.156907025724649">
        <ele>84.25</ele>
        <time>2025-04-29T13:55:12Z</time>
      </trkpt>
      <trkpt lat="43.406504988670349" lon="-6.157006016001105">
        <ele>86.659999999999997</ele>
        <time>2025-04-29T13:55:13Z</time>
      </trkpt>
      <trkpt lat="43.406425025314093" lon="-6.157085979357362">
        <ele>89.060000000000002</ele>
        <time>2025-04-29T13:55:14Z</time>
      </trkpt>
      <trkpt lat="43.406352018937469" lon="-6.157135013490915">
        <ele>91.459999999999994</ele>
        <time>2025-04-29T13:55:15Z</time>
      </trkpt>
      <trkpt lat="43.4062709659338" lon="-6.157187987118959">
        <ele>93.390000000000001</ele>
        <time>2025-04-29T13:55:16Z</time>
      </trkpt>
      <trkpt lat="43.40618303976953" lon="-6.157223023474217">
        <ele>94.349999999999994</ele>
        <time>2025-04-29T13:55:17Z</time>
      </trkpt>
      <trkpt lat="43.406071979552507" lon="-6.157226040959358">
        <ele>94.829999999999998</ele>
        <time>2025-04-29T13:55:18Z</time>
      </trkpt>
      <trkpt lat="43.405953962355852" lon="-6.157178012654185">
        <ele>95.790000000000006</ele>
        <time>2025-04-29T13:55:19Z</time>
      </trkpt>
      <trkpt lat="43.405848015099764" lon="-6.157096959650517">
        <ele>96.75</ele>
        <time>2025-04-29T13:55:20Z</time>
      </trkpt>
      <trkpt lat="43.405760005116463" lon="-6.157029988244176">
        <ele>97.709999999999994</ele>
        <time>2025-04-29T13:55:21Z</time>
      </trkpt>
      <trkpt lat="43.405674006789923" lon="-6.156965028494597">
        <ele>98.189999999999998</ele>
        <time>2025-04-29T13:55:22Z</time>
      </trkpt>
      <trkpt lat="43.405588008463383" lon="-6.156898979097605">
        <ele>98.670000000000002</ele>
        <time>2025-04-29T13:55:23Z</time>
      </trkpt>
      <trkpt lat="43.40549798682332" lon="-6.156850028783083">
        <ele>99.150000000000006</ele>
        <time>2025-04-29T13:55:24Z</time>
      </trkpt>
      <trkpt lat="43.405395979061723" lon="-6.156850028783083">
        <ele>99.629999999999995</ele>
        <time>2025-04-29T13:55:25Z</time>
      </trkpt>
      <trkpt lat="43.405285002663732" lon="-6.156850028783083">
        <ele>99.629999999999995</ele>
        <time>2025-04-29T13:55:26Z</time>
      </trkpt>
      <trkpt lat="43.405061960220337" lon="-6.156850028783083">
        <ele>99.629999999999995</ele>
        <time>2025-04-29T13:55:28Z</time>
      </trkpt>
      <trkpt lat="43.404949977993965" lon="-6.156850028783083">
        <ele>99.629999999999995</ele>
        <time>2025-04-29T13:55:29Z</time>
      </trkpt>
      <trkpt lat="43.404837995767593" lon="-6.156924040988088">
        <ele>99.629999999999995</ele>
        <time>2025-04-29T13:55:30Z</time>
      </trkpt>
      <trkpt lat="43.404734982177615" lon="-6.157026970759034">
        <ele>100.11</ele>
        <time>2025-04-29T13:55:31Z</time>
      </trkpt>
      <trkpt lat="43.404647978022695" lon="-6.157168038189411">
        <ele>100.11</ele>
        <time>2025-04-29T13:55:32Z</time>
      </trkpt>
      <trkpt lat="43.40457203797996" lon="-6.157311033457518">
        <ele>99.629999999999995</ele>
        <time>2025-04-29T13:55:33Z</time>
      </trkpt>
      <trkpt lat="43.4045319724828" lon="-6.157469032332301">
        <ele>99.629999999999995</ele>
        <time>2025-04-29T13:55:34Z</time>
      </trkpt>
      <trkpt lat="43.404495008289814" lon="-6.157615967094898">
        <ele>99.629999999999995</ele>
        <time>2025-04-29T13:55:35Z</time>
      </trkpt>
      <trkpt lat="43.404460977762938" lon="-6.157756028696895">
        <ele>99.629999999999995</ele>
        <time>2025-04-29T13:55:36Z</time>
      </trkpt>
      <trkpt lat="43.40444597415626" lon="-6.157898018136621">
        <ele>100.11</ele>
        <time>2025-04-29T13:55:37Z</time>
      </trkpt>
      <trkpt lat="43.404440023005009" lon="-6.158037995919585">
        <ele>100.11</ele>
        <time>2025-04-29T13:55:38Z</time>
      </trkpt>
      <trkpt lat="43.404432982206345" lon="-6.15817797370255">
        <ele>100.11</ele>
        <time>2025-04-29T13:55:39Z</time>
      </trkpt>
      <trkpt lat="43.404415966942906" lon="-6.158309988677502">
        <ele>100.59999999999999</ele>
        <time>2025-04-29T13:55:40Z</time>
      </trkpt>
      <trkpt lat="43.404377996921539" lon="-6.158434040844441">
        <ele>100.59999999999999</ele>
        <time>2025-04-29T13:55:41Z</time>
      </trkpt>
      <trkpt lat="43.404342038556933" lon="-6.158550968393683">
        <ele>101.08</ele>
        <time>2025-04-29T13:55:42Z</time>
      </trkpt>
      <trkpt lat="43.404308008030057" lon="-6.158663034439087">
        <ele>101.08</ele>
        <time>2025-04-29T13:55:43Z</time>
      </trkpt>
      <trkpt lat="43.404273977503181" lon="-6.158775016665459">
        <ele>101.08</ele>
        <time>2025-04-29T13:55:44Z</time>
      </trkpt>
      <trkpt lat="43.404237013310194" lon="-6.158894961699843">
        <ele>101.08</ele>
        <time>2025-04-29T13:55:45Z</time>
      </trkpt>
      <trkpt lat="43.404197031632066" lon="-6.159025970846415">
        <ele>100.59999999999999</ele>
        <time>2025-04-29T13:55:46Z</time>
      </trkpt>
      <trkpt lat="43.404181022197008" lon="-6.159170977771282">
        <ele>100.59999999999999</ele>
        <time>2025-04-29T13:55:47Z</time>
      </trkpt>
      <trkpt lat="43.404176998883486" lon="-6.15931598469615">
        <ele>100.59999999999999</ele>
        <time>2025-04-29T13:55:48Z</time>
      </trkpt>
      <trkpt lat="43.404197031632066" lon="-6.159473983570933">
        <ele>100.59999999999999</ele>
        <time>2025-04-29T13:55:49Z</time>
      </trkpt>
      <trkpt lat="43.404217986389995" lon="-6.159639023244381">
        <ele>100.59999999999999</ele>
        <time>2025-04-29T13:55:50Z</time>
      </trkpt>
      <trkpt lat="43.404501965269446" lon="-6.16127198562026">
        <ele>106.84</ele>
        <time>2025-04-29T13:56:00Z</time>
      </trkpt>
      <trkpt lat="43.404558040201664" lon="-6.161397965624929">
        <ele>107.81</ele>
        <time>2025-04-29T13:56:01Z</time>
      </trkpt>
      <trkpt lat="43.404676979407668" lon="-6.161666018888354">
        <ele>109.25</ele>
        <time>2025-04-29T13:56:03Z</time>
      </trkpt>
      <trkpt lat="43.404732970520854" lon="-6.161819994449616">
        <ele>109.25</ele>
        <time>2025-04-29T13:56:04Z</time>
      </trkpt>
      <trkpt lat="43.404747974127531" lon="-6.161983022466302">
        <ele>109.73</ele>
        <time>2025-04-29T13:56:05Z</time>
      </trkpt>
      <trkpt lat="43.404735988005996" lon="-6.162159964442253">
        <ele>110.20999999999999</ele>
        <time>2025-04-29T13:56:06Z</time>
      </trkpt>
      <trkpt lat="43.404716039076447" lon="-6.16234302520752">
        <ele>110.69</ele>
        <time>2025-04-29T13:56:07Z</time>
      </trkpt>
      <trkpt lat="43.404716039076447" lon="-6.162541005760431">
        <ele>111.17</ele>
        <time>2025-04-29T13:56:08Z</time>
      </trkpt>
      <trkpt lat="43.404727019369602" lon="-6.162748038768768">
        <ele>111.65000000000001</ele>
        <time>2025-04-29T13:56:09Z</time>
      </trkpt>
      <trkpt lat="43.404774041846395" lon="-6.162947025150061">
        <ele>112.13</ele>
        <time>2025-04-29T13:56:10Z</time>
      </trkpt>
      <trkpt lat="43.40483003295958" lon="-6.163138970732689">
        <ele>112.61</ele>
        <time>2025-04-29T13:56:11Z</time>
      </trkpt>
      <trkpt lat="43.404955007135868" lon="-6.163701983168721">
        <ele>113.56999999999999</ele>
        <time>2025-04-29T13:56:14Z</time>
      </trkpt>
      <trkpt lat="43.405030025169253" lon="-6.164273964241147">
        <ele>115.5</ele>
        <time>2025-04-29T13:56:17Z</time>
      </trkpt>
      <trkpt lat="43.405209984630346" lon="-6.164982989430428">
        <ele>120.78</ele>
        <time>2025-04-29T13:56:21Z</time>
      </trkpt>
      <trkpt lat="43.405288020148873" lon="-6.165304016321898">
        <ele>124.15000000000001</ele>
        <time>2025-04-29T13:56:23Z</time>
      </trkpt>
      <trkpt lat="43.40526002459228" lon="-6.165443994104862">
        <ele>126.06999999999999</ele>
        <time>2025-04-29T13:56:24Z</time>
      </trkpt>
      <trkpt lat="43.405232029035687" lon="-6.165535021573305">
        <ele>127.51000000000001</ele>
        <time>2025-04-29T13:56:25Z</time>
      </trkpt>
      <trkpt lat="43.405185006558895" lon="-6.165594030171633">
        <ele>128.94999999999999</ele>
        <time>2025-04-29T13:56:26Z</time>
      </trkpt>
      <trkpt lat="43.405134966596961" lon="-6.165639963001013">
        <ele>130.40000000000001</ele>
        <time>2025-04-29T13:56:27Z</time>
      </trkpt>
      <trkpt lat="43.405071012675762" lon="-6.165677011013031">
        <ele>131.84</ele>
        <time>2025-04-29T13:56:28Z</time>
      </trkpt>
      <trkpt lat="43.405008986592293" lon="-6.165711963549256">
        <ele>132.80000000000001</ele>
        <time>2025-04-29T13:56:29Z</time>
      </trkpt>
      <trkpt lat="43.404932962730527" lon="-6.165755968540907">
        <ele>133.75999999999999</ele>
        <time>2025-04-29T13:56:30Z</time>
      </trkpt>
      <trkpt lat="43.404837995767593" lon="-6.165811037644744">
        <ele>135.19999999999999</ele>
        <time>2025-04-29T13:56:31Z</time>
      </trkpt>
      <trkpt lat="43.404732970520854" lon="-6.16587096825242">
        <ele>136.16</ele>
        <time>2025-04-29T13:56:32Z</time>
      </trkpt>
      <trkpt lat="43.40461797080934" lon="-6.165937017649412">
        <ele>137.13</ele>
        <time>2025-04-29T13:56:33Z</time>
      </trkpt>
      <trkpt lat="43.404501965269446" lon="-6.166003989055753">
        <ele>137.61000000000001</ele>
        <time>2025-04-29T13:56:34Z</time>
      </trkpt>
      <trkpt lat="43.404265008866787" lon="-6.166068026795983">
        <ele>139.53</ele>
        <time>2025-04-29T13:56:36Z</time>
      </trkpt>
      <trkpt lat="43.404149003326893" lon="-6.166088981553912">
        <ele>140.49000000000001</ele>
        <time>2025-04-29T13:56:37Z</time>
      </trkpt>
      <trkpt lat="43.404038026928902" lon="-6.166109014302492">
        <ele>141.44999999999999</ele>
        <time>2025-04-29T13:56:38Z</time>
      </trkpt>
      <trkpt lat="43.403937024995685" lon="-6.166089987382293">
        <ele>142.41</ele>
        <time>2025-04-29T13:56:39Z</time>
      </trkpt>
      <trkpt lat="43.403838034719229" lon="-6.166021004319191">
        <ele>143.84999999999999</ele>
        <time>2025-04-29T13:56:40Z</time>
      </trkpt>
      <trkpt lat="43.403738038614392" lon="-6.165939029306173">
        <ele>145.30000000000001</ele>
        <time>2025-04-29T13:56:41Z</time>
      </trkpt>
      <trkpt lat="43.403649022802711" lon="-6.165835009887815">
        <ele>145.78</ele>
        <time>2025-04-29T13:56:42Z</time>
      </trkpt>
      <trkpt lat="43.403557995334268" lon="-6.165727972984314">
        <ele>147.22</ele>
        <time>2025-04-29T13:56:43Z</time>
      </trkpt>
      <trkpt lat="43.403485994786024" lon="-6.165599981322885">
        <ele>148.18000000000001</ele>
        <time>2025-04-29T13:56:44Z</time>
      </trkpt>
      <trkpt lat="43.403439978137612" lon="-6.165451034903526">
        <ele>149.13999999999999</ele>
        <time>2025-04-29T13:56:45Z</time>
      </trkpt>
      <trkpt lat="43.403404019773006" lon="-6.165297981351614">
        <ele>150.09999999999999</ele>
        <time>2025-04-29T13:56:46Z</time>
      </trkpt>
      <trkpt lat="43.403380969539285" lon="-6.165131013840437">
        <ele>151.06</ele>
        <time>2025-04-29T13:56:47Z</time>
      </trkpt>
      <trkpt lat="43.403399996459484" lon="-6.164964968338609">
        <ele>152.03</ele>
        <time>2025-04-29T13:56:48Z</time>
      </trkpt>
      <trkpt lat="43.403420029208064" lon="-6.164791965857148">
        <ele>152.99000000000001</ele>
        <time>2025-04-29T13:56:49Z</time>
      </trkpt>
      <trkpt lat="43.403439978137612" lon="-6.164618963375688">
        <ele>153.94999999999999</ele>
        <time>2025-04-29T13:56:50Z</time>
      </trkpt>
      <trkpt lat="43.403425980359316" lon="-6.164443027228117">
        <ele>154.91</ele>
        <time>2025-04-29T13:56:51Z</time>
      </trkpt>
      <trkpt lat="43.403349034488201" lon="-6.163713969290257">
        <ele>159.24000000000001</ele>
        <time>2025-04-29T13:56:55Z</time>
      </trkpt>
      <trkpt lat="43.403331013396382" lon="-6.163551025092602">
        <ele>160.19999999999999</ele>
        <time>2025-04-29T13:56:56Z</time>
      </trkpt>
      <trkpt lat="43.403315003961325" lon="-6.163404006510973">
        <ele>161.63999999999999</ele>
        <time>2025-04-29T13:56:57Z</time>
      </trkpt>
      <trkpt lat="43.403292037546635" lon="-6.163200996816158">
        <ele>163.08000000000001</ele>
        <time>2025-04-29T13:56:58Z</time>
      </trkpt>
      <trkpt lat="43.403259012848139" lon="-6.163130002096295">
        <ele>164.52000000000001</ele>
        <time>2025-04-29T13:56:59Z</time>
      </trkpt>
      <trkpt lat="43.403195980936289" lon="-6.162995975464582">
        <ele>165.96000000000001</ele>
        <time>2025-04-29T13:57:00Z</time>
      </trkpt>
      <trkpt lat="43.403096990659833" lon="-6.162851974368095">
        <ele>167.41</ele>
        <time>2025-04-29T13:57:01Z</time>
      </trkpt>
      <trkpt lat="43.402985008433461" lon="-6.162779973819852">
        <ele>168.84999999999999</ele>
        <time>2025-04-29T13:57:02Z</time>
      </trkpt>
      <trkpt lat="43.402877971529961" lon="-6.162713002413511">
        <ele>170.28999999999999</ele>
        <time>2025-04-29T13:57:03Z</time>
      </trkpt>
      <trkpt lat="43.402770012617111" lon="-6.16264502517879">
        <ele>171.72999999999999</ele>
        <time>2025-04-29T13:57:04Z</time>
      </trkpt>
      <trkpt lat="43.402642020955682" lon="-6.162586016580463">
        <ele>172.69</ele>
        <time>2025-04-29T13:57:05Z</time>
      </trkpt>
      <trkpt lat="43.402515035122633" lon="-6.162535976618528">
        <ele>173.66</ele>
        <time>2025-04-29T13:57:06Z</time>
      </trkpt>
      <trkpt lat="43.402069034054875" lon="-6.16242902353406">
        <ele>178.94</ele>
        <time>2025-04-29T13:57:10Z</time>
      </trkpt>
      <trkpt lat="43.401923021301627" lon="-6.162497000768781">
        <ele>180.38</ele>
        <time>2025-04-29T13:57:11Z</time>
      </trkpt>
      <trkpt lat="43.401816990226507" lon="-6.162547040730715">
        <ele>181.83000000000001</ele>
        <time>2025-04-29T13:57:12Z</time>
      </trkpt>
      <trkpt lat="43.401697967201471" lon="-6.162578975781798">
        <ele>183.27000000000001</ele>
        <time>2025-04-29T13:57:13Z</time>
      </trkpt>
      <trkpt lat="43.401583973318338" lon="-6.162578975781798">
        <ele>184.71000000000001</ele>
        <time>2025-04-29T13:57:14Z</time>
      </trkpt>
      <trkpt lat="43.401471991091967" lon="-6.162497000768781">
        <ele>185.66999999999999</ele>
        <time>2025-04-29T13:57:15Z</time>
      </trkpt>
      <trkpt lat="43.401381969451904" lon="-6.162385018542409">
        <ele>187.59</ele>
        <time>2025-04-29T13:57:16Z</time>
      </trkpt>
      <trkpt lat="43.401314998045564" lon="-6.16223799996078">
        <ele>189.03999999999999</ele>
        <time>2025-04-29T13:57:17Z</time>
      </trkpt>
      <trkpt lat="43.40128599666059" lon="-6.162074971944094">
        <ele>190.47999999999999</ele>
        <time>2025-04-29T13:57:18Z</time>
      </trkpt>
      <trkpt lat="43.401253977790475" lon="-6.161891994997859">
        <ele>191.91999999999999</ele>
        <time>2025-04-29T13:57:19Z</time>
      </trkpt>
      <trkpt lat="43.401195975020528" lon="-6.161780012771487">
        <ele>193.84</ele>
        <time>2025-04-29T13:57:20Z</time>
      </trkpt>
      <trkpt lat="43.40113302692771" lon="-6.16165897808969">
        <ele>195.28</ele>
        <time>2025-04-29T13:57:21Z</time>
      </trkpt>
      <trkpt lat="43.401078041642904" lon="-6.161553030833602">
        <ele>196.72999999999999</ele>
        <time>2025-04-29T13:57:22Z</time>
      </trkpt>
      <trkpt lat="43.401024984195828" lon="-6.161451023072004">
        <ele>198.16999999999999</ele>
        <time>2025-04-29T13:57:23Z</time>
      </trkpt>
      <trkpt lat="43.400949966162443" lon="-6.161311967298389">
        <ele>199.61000000000001</ele>
        <time>2025-04-29T13:57:24Z</time>
      </trkpt>
      <trkpt lat="43.400852987542748" lon="-6.161268968135119">
        <ele>200.56999999999999</ele>
        <time>2025-04-29T13:57:25Z</time>
      </trkpt>
      <trkpt lat="43.400734970346093" lon="-6.161218006163836">
        <ele>201.53</ele>
        <time>2025-04-29T13:57:26Z</time>
      </trkpt>
      <trkpt lat="43.400591975077987" lon="-6.16116201505065">
        <ele>202.49000000000001</ele>
        <time>2025-04-29T13:57:27Z</time>
      </trkpt>
      <trkpt lat="43.400451997295022" lon="-6.161153968423605">
        <ele>203.46000000000001</ele>
        <time>2025-04-29T13:57:28Z</time>
      </trkpt>
      <trkpt lat="43.400307996198535" lon="-6.161144999787211">
        <ele>204.41999999999999</ele>
        <time>2025-04-29T13:57:29Z</time>
      </trkpt>
      <trkpt lat="43.400139017030597" lon="-6.161204008385539">
        <ele>205.38</ele>
        <time>2025-04-29T13:57:30Z</time>
      </trkpt>
      <trkpt lat="43.400010019540787" lon="-6.161280032247305">
        <ele>206.34</ele>
        <time>2025-04-29T13:57:31Z</time>
      </trkpt>
      <trkpt lat="43.399895019829273" lon="-6.161348009482026">
        <ele>206.81999999999999</ele>
        <time>2025-04-29T13:57:32Z</time>
      </trkpt>
      <trkpt lat="43.39948003180325" lon="-6.161622013896704">
        <ele>211.15000000000001</ele>
        <time>2025-04-29T13:57:36Z</time>
      </trkpt>
      <trkpt lat="43.399400990456343" lon="-6.161736007779837">
        <ele>212.59</ele>
        <time>2025-04-29T13:57:37Z</time>
      </trkpt>
      <trkpt lat="43.399323038756847" lon="-6.16185000166297">
        <ele>213.55000000000001</ele>
        <time>2025-04-29T13:57:38Z</time>
      </trkpt>
      <trkpt lat="43.399254977703094" lon="-6.16200003772974">
        <ele>214.50999999999999</ele>
        <time>2025-04-29T13:57:39Z</time>
      </trkpt>
      <trkpt lat="43.399194963276386" lon="-6.162135992199183">
        <ele>214.99000000000001</ele>
        <time>2025-04-29T13:57:40Z</time>
      </trkpt>
      <trkpt lat="43.39913603849709" lon="-6.162270018830895">
        <ele>215.94999999999999</ele>
        <time>2025-04-29T13:57:41Z</time>
      </trkpt>
      <trkpt lat="43.399064959958196" lon="-6.16242902353406">
        <ele>216.91</ele>
        <time>2025-04-29T13:57:42Z</time>
      </trkpt>
      <trkpt lat="43.398978961631656" lon="-6.162674026563764">
        <ele>218.36000000000001</ele>
        <time>2025-04-29T13:57:44Z</time>
      </trkpt>
      <trkpt lat="43.398935040459037" lon="-6.162801012396812">
        <ele>219.31999999999999</ele>
        <time>2025-04-29T13:57:45Z</time>
      </trkpt>
      <trkpt lat="43.398903021588922" lon="-6.162949958816171">
        <ele>220.28</ele>
        <time>2025-04-29T13:57:46Z</time>
      </trkpt>
      <trkpt lat="43.398926993831992" lon="-6.163124972954392">
        <ele>221.72</ele>
        <time>2025-04-29T13:57:47Z</time>
      </trkpt>
      <trkpt lat="43.398978039622307" lon="-6.163270985707641">
        <ele>222.68000000000001</ele>
        <time>2025-04-29T13:57:48Z</time>
      </trkpt>
      <trkpt lat="43.399044005200267" lon="-6.163458991795778">
        <ele>223.63999999999999</ele>
        <time>2025-04-29T13:57:49Z</time>
      </trkpt>
      <trkpt lat="43.399128997698426" lon="-6.163582960143685">
        <ele>225.09</ele>
        <time>2025-04-29T13:57:50Z</time>
      </trkpt>
      <trkpt lat="43.399211978539824" lon="-6.163703994825482">
        <ele>226.05000000000001</ele>
        <time>2025-04-29T13:57:51Z</time>
      </trkpt>
      <trkpt lat="43.399279033765197" lon="-6.163823017850518">
        <ele>227.00999999999999</ele>
        <time>2025-04-29T13:57:52Z</time>
      </trkpt>
      <trkpt lat="43.399270987138152" lon="-6.163975987583399">
        <ele>228.44999999999999</ele>
        <time>2025-04-29T13:57:53Z</time>
      </trkpt>
      <trkpt lat="43.39924399740994" lon="-6.164523996412754">
        <ele>230.84999999999999</ele>
        <time>2025-04-29T13:57:56Z</time>
      </trkpt>
      <trkpt lat="43.399211978539824" lon="-6.164730023592711">
        <ele>231.81</ele>
        <time>2025-04-29T13:57:57Z</time>
      </trkpt>
      <trkpt lat="43.399150958284736" lon="-6.164904031902552">
        <ele>232.30000000000001</ele>
        <time>2025-04-29T13:57:58Z</time>
      </trkpt>
      <trkpt lat="43.399098990485072" lon="-6.16507301107049">
        <ele>233.25999999999999</ele>
        <time>2025-04-29T13:57:59Z</time>
      </trkpt>
      <trkpt lat="43.399064959958196" lon="-6.165261017158628">
        <ele>233.74000000000001</ele>
        <time>2025-04-29T13:58:00Z</time>
      </trkpt>
      <trkpt lat="43.39903000742197" lon="-6.165456986054778">
        <ele>234.69999999999999</ele>
        <time>2025-04-29T13:58:01Z</time>
      </trkpt>
      <trkpt lat="43.398891035467386" lon="-6.166055034846067">
        <ele>238.06</ele>
        <time>2025-04-29T13:58:04Z</time>
      </trkpt>
      <trkpt lat="43.398848958313465" lon="-6.166249997913837">
        <ele>239.50999999999999</ele>
        <time>2025-04-29T13:58:05Z</time>
      </trkpt>
      <trkpt lat="43.39883403852582" lon="-6.166430041193962">
        <ele>240.47</ele>
        <time>2025-04-29T13:58:06Z</time>
      </trkpt>
      <trkpt lat="43.398892041295767" lon="-6.166611006483436">
        <ele>241.91</ele>
        <time>2025-04-29T13:58:07Z</time>
      </trkpt>
      <trkpt lat="43.398972004652023" lon="-6.166740003973246">
        <ele>243.34999999999999</ele>
        <time>2025-04-29T13:58:08Z</time>
      </trkpt>
      <trkpt lat="43.399068983271718" lon="-6.166851986199617">
        <ele>244.78999999999999</ele>
        <time>2025-04-29T13:58:09Z</time>
      </trkpt>
      <trkpt lat="43.399167973548174" lon="-6.16696598008275">
        <ele>245.75</ele>
        <time>2025-04-29T13:58:10Z</time>
      </trkpt>
      <trkpt lat="43.399251038208604" lon="-6.167106041684747">
        <ele>247.19999999999999</ele>
        <time>2025-04-29T13:58:11Z</time>
      </trkpt>
      <trkpt lat="43.399323038756847" lon="-6.167278038337827">
        <ele>248.16</ele>
        <time>2025-04-29T13:58:12Z</time>
      </trkpt>
      <trkpt lat="43.399323038756847" lon="-6.167451962828636">
        <ele>249.59999999999999</ele>
        <time>2025-04-29T13:58:13Z</time>
      </trkpt>
      <trkpt lat="43.399275010451674" lon="-6.167629994452">
        <ele>250.56</ele>
        <time>2025-04-29T13:58:14Z</time>
      </trkpt>
      <trkpt lat="43.399194963276386" lon="-6.167799979448319">
        <ele>251.52000000000001</ele>
        <time>2025-04-29T13:58:15Z</time>
      </trkpt>
      <trkpt lat="43.399096978828311" lon="-6.167959989979863">
        <ele>252.96000000000001</ele>
        <time>2025-04-29T13:58:16Z</time>
      </trkpt>
      <trkpt lat="43.398992037400603" lon="-6.168114971369505">
        <ele>253.93000000000001</ele>
        <time>2025-04-29T13:58:17Z</time>
      </trkpt>
      <trkpt lat="43.397701978683472" lon="-6.169840972870588">
        <ele>267.86000000000001</ele>
        <time>2025-04-29T13:58:28Z</time>
      </trkpt>
      <trkpt lat="43.396796984598041" lon="-6.170533988624811">
        <ele>276.51999999999998</ele>
        <time>2025-04-29T13:58:34Z</time>
      </trkpt>
      <trkpt lat="43.396661030128598" lon="-6.170670026913285">
        <ele>277.95999999999998</ele>
        <time>2025-04-29T13:58:35Z</time>
      </trkpt>
      <trkpt lat="43.396529015153646" lon="-6.170801036059856">
        <ele>278.92000000000002</ele>
        <time>2025-04-29T13:58:36Z</time>
      </trkpt>
      <trkpt lat="43.396058036014438" lon="-6.170926010236144">
        <ele>283.73000000000002</ele>
        <time>2025-04-29T13:58:39Z</time>
      </trkpt>
      <trkpt lat="43.39595602825284" lon="-6.171101024374366">
        <ele>285.17000000000002</ele>
        <time>2025-04-29T13:58:40Z</time>
      </trkpt>
      <trkpt lat="43.395905988290906" lon="-6.171262040734291">
        <ele>286.61000000000001</ele>
        <time>2025-04-29T13:58:41Z</time>
      </trkpt>
      <trkpt lat="43.395818984135985" lon="-6.171541996300221">
        <ele>289.49000000000001</ele>
        <time>2025-04-29T13:58:43Z</time>
      </trkpt>
      <trkpt lat="43.395688980817795" lon="-6.171567980200052">
        <ele>291.42000000000002</ele>
        <time>2025-04-29T13:58:44Z</time>
      </trkpt>
      <trkpt lat="43.395574986934662" lon="-6.171544007956982">
        <ele>292.86000000000001</ele>
        <time>2025-04-29T13:58:45Z</time>
      </trkpt>
      <trkpt lat="43.394913990050554" lon="-6.171578038483858">
        <ele>299.11000000000001</ele>
        <time>2025-04-29T13:58:50Z</time>
      </trkpt>
      <trkpt lat="43.394810976460576" lon="-6.17160402238369">
        <ele>300.55000000000001</ele>
        <time>2025-04-29T13:58:51Z</time>
      </trkpt>
      <trkpt lat="43.394702011719346" lon="-6.171631012111902">
        <ele>301.99000000000001</ele>
        <time>2025-04-29T13:58:52Z</time>
      </trkpt>
      <trkpt lat="43.39458298869431" lon="-6.171661019325256">
        <ele>302.94999999999999</ele>
        <time>2025-04-29T13:58:53Z</time>
      </trkpt>
      <trkpt lat="43.394449967890978" lon="-6.171698989346623">
        <ele>303.91000000000003</ele>
        <time>2025-04-29T13:58:54Z</time>
      </trkpt>
      <trkpt lat="43.393338024616241" lon="-6.171861011534929">
        <ele>313.05000000000001</ele>
        <time>2025-04-29T13:59:02Z</time>
      </trkpt>
      <trkpt lat="43.393059996888041" lon="-6.171857994049788">
        <ele>315.44999999999999</ele>
        <time>2025-04-29T13:59:04Z</time>
      </trkpt>
      <trkpt lat="43.392921024933457" lon="-6.17190602235496">
        <ele>316.88999999999999</ele>
        <time>2025-04-29T13:59:05Z</time>
      </trkpt>
      <trkpt lat="43.392658000811934" lon="-6.172086987644434">
        <ele>318.81</ele>
        <time>2025-04-29T13:59:07Z</time>
      </trkpt>
      <trkpt lat="43.392520034685731" lon="-6.172106014564633">
        <ele>320.25999999999999</ele>
        <time>2025-04-29T13:59:08Z</time>
      </trkpt>
      <trkpt lat="43.392209988087416" lon="-6.172062009572983">
        <ele>322.18000000000001</ele>
        <time>2025-04-29T13:59:10Z</time>
      </trkpt>
      <trkpt lat="43.392070010304451" lon="-6.172122023999691">
        <ele>323.62</ele>
        <time>2025-04-29T13:59:11Z</time>
      </trkpt>
      <trkpt lat="43.391931038349867" lon="-6.172226965427399">
        <ele>324.57999999999998</ele>
        <time>2025-04-29T13:59:12Z</time>
      </trkpt>
      <trkpt lat="43.39181000366807" lon="-6.172352023422718">
        <ele>325.54000000000002</ele>
        <time>2025-04-29T13:59:13Z</time>
      </trkpt>
      <trkpt lat="43.391685029491782" lon="-6.172483032569289">
        <ele>327.47000000000003</ele>
        <time>2025-04-29T13:59:14Z</time>
      </trkpt>
      <trkpt lat="43.391556032001972" lon="-6.172617981210351">
        <ele>328.43000000000001</ele>
        <time>2025-04-29T13:59:15Z</time>
      </trkpt>
      <trkpt lat="43.391416976228356" lon="-6.172728035598993">
        <ele>329.87</ele>
        <time>2025-04-29T13:59:16Z</time>
      </trkpt>
      <trkpt lat="43.391270963475108" lon="-6.172811016440392">
        <ele>331.31</ele>
        <time>2025-04-29T13:59:17Z</time>
      </trkpt>
      <trkpt lat="43.390857987105846" lon="-6.173071023076773">
        <ele>334.68000000000001</ele>
        <time>2025-04-29T13:59:20Z</time>
      </trkpt>
      <trkpt lat="43.390751034021378" lon="-6.173211000859737">
        <ele>336.12</ele>
        <time>2025-04-29T13:59:21Z</time>
      </trkpt>
      <trkpt lat="43.390646008774638" lon="-6.173348966985941">
        <ele>337.07999999999998</ele>
        <time>2025-04-29T13:59:22Z</time>
      </trkpt>
      <trkpt lat="43.390546012669802" lon="-6.173481987789273">
        <ele>338.04000000000002</ele>
        <time>2025-04-29T13:59:23Z</time>
      </trkpt>
      <trkpt lat="43.390401005744934" lon="-6.173572009429336">
        <ele>339</ele>
        <time>2025-04-29T13:59:24Z</time>
      </trkpt>
      <trkpt lat="43.390257004648447" lon="-6.173585001379252">
        <ele>339.95999999999998</ele>
        <time>2025-04-29T13:59:25Z</time>
      </trkpt>
      <trkpt lat="43.390121972188354" lon="-6.173596987500787">
        <ele>340.92000000000002</ele>
        <time>2025-04-29T13:59:26Z</time>
      </trkpt>
      <trkpt lat="43.390001021325588" lon="-6.173606961965561">
        <ele>341.88999999999999</ele>
        <time>2025-04-29T13:59:27Z</time>
      </trkpt>
      <trkpt lat="43.389895996078849" lon="-6.173641998320818">
        <ele>342.85000000000002</ele>
        <time>2025-04-29T13:59:28Z</time>
      </trkpt>
      <trkpt lat="43.38979197666049" lon="-6.173680974170566">
        <ele>343.81</ele>
        <time>2025-04-29T13:59:29Z</time>
      </trkpt>
      <trkpt lat="43.389131985604763" lon="-6.173977022990584">
        <ele>350.54000000000002</ele>
        <time>2025-04-29T13:59:36Z</time>
      </trkpt>
      <trkpt lat="43.389047998934984" lon="-6.174074001610279">
        <ele>351.5</ele>
        <time>2025-04-29T13:59:37Z</time>
      </trkpt>
      <trkpt lat="43.388786986470222" lon="-6.174370972439647">
        <ele>353.89999999999998</ele>
        <time>2025-04-29T13:59:40Z</time>
      </trkpt>
      <trkpt lat="43.38869595900178" lon="-6.174468034878373">
        <ele>354.38</ele>
        <time>2025-04-29T13:59:41Z</time>
      </trkpt>
      <trkpt lat="43.388594035059214" lon="-6.174497036263347">
        <ele>355.33999999999997</ele>
        <time>2025-04-29T13:59:42Z</time>
      </trkpt>
      <trkpt lat="43.388491021469235" lon="-6.174488989636302">
        <ele>355.82999999999998</ele>
        <time>2025-04-29T13:59:43Z</time>
      </trkpt>
      <trkpt lat="43.388390019536018" lon="-6.174453031271696">
        <ele>356.79000000000002</ele>
        <time>2025-04-29T13:59:44Z</time>
      </trkpt>
      <trkpt lat="43.388284994289279" lon="-6.174415983259678">
        <ele>357.75</ele>
        <time>2025-04-29T13:59:45Z</time>
      </trkpt>
      <trkpt lat="43.388186004012823" lon="-6.174381030723453">
        <ele>358.70999999999998</ele>
        <time>2025-04-29T13:59:46Z</time>
      </trkpt>
      <trkpt lat="43.388101011514664" lon="-6.174272987991571">
        <ele>359.67000000000002</ele>
        <time>2025-04-29T13:59:47Z</time>
      </trkpt>
      <trkpt lat="43.388014007359743" lon="-6.174164023250341">
        <ele>360.63</ele>
        <time>2025-04-29T13:59:48Z</time>
      </trkpt>
      <trkpt lat="43.387931026518345" lon="-6.174058998003602">
        <ele>361.58999999999997</ele>
        <time>2025-04-29T13:59:49Z</time>
      </trkpt>
      <trkpt lat="43.387704966589808" lon="-6.173808965831995">
        <ele>364.95999999999998</ele>
        <time>2025-04-29T13:59:52Z</time>
      </trkpt>
      <trkpt lat="43.38762198574841" lon="-6.173745011910796">
        <ele>365.92000000000002</ele>
        <time>2025-04-29T13:59:53Z</time>
      </trkpt>
      <trkpt lat="43.387516960501671" lon="-6.173721961677074">
        <ele>366.39999999999998</ele>
        <time>2025-04-29T13:59:54Z</time>
      </trkpt>
      <trkpt lat="43.38740698993206" lon="-6.173733025789261">
        <ele>367.36000000000001</ele>
        <time>2025-04-29T13:59:55Z</time>
      </trkpt>
      <trkpt lat="43.38729701936245" lon="-6.173744006082416">
        <ele>368.31999999999999</ele>
        <time>2025-04-29T13:59:56Z</time>
      </trkpt>
      <trkpt lat="43.386577013880014" lon="-6.17386101745069">
        <ele>369.27999999999997</ele>
        <time>2025-04-29T14:00:02Z</time>
      </trkpt>
      <trkpt lat="43.386444998905063" lon="-6.173922037705779">
        <ele>368.80000000000001</ele>
        <time>2025-04-29T14:00:03Z</time>
      </trkpt>
      <trkpt lat="43.386320024728775" lon="-6.174037037417293">
        <ele>368.80000000000001</ele>
        <time>2025-04-29T14:00:04Z</time>
      </trkpt>
      <trkpt lat="43.385696997866035" lon="-6.174659980461001">
        <ele>365.92000000000002</ele>
        <time>2025-04-29T14:00:09Z</time>
      </trkpt>
      <trkpt lat="43.385226018726826" lon="-6.175459027290344">
        <ele>362.06999999999999</ele>
        <time>2025-04-29T14:00:14Z</time>
      </trkpt>
      <trkpt lat="43.385148989036679" lon="-6.175646027550101">
        <ele>361.11000000000001</ele>
        <time>2025-04-29T14:00:15Z</time>
      </trkpt>
      <trkpt lat="43.385083023458719" lon="-6.17583897896111">
        <ele>360.63</ele>
        <time>2025-04-29T14:00:16Z</time>
      </trkpt>
      <trkpt lat="43.3843760099262" lon="-6.178462011739612">
        <ele>356.79000000000002</ele>
        <time>2025-04-29T14:00:29Z</time>
      </trkpt>
      <trkpt lat="43.383832024410367" lon="-6.180207040160894">
        <ele>357.75</ele>
        <time>2025-04-29T14:00:37Z</time>
      </trkpt>
      <trkpt lat="43.383068013936281" lon="-6.182070001959801">
        <ele>361.11000000000001</ele>
        <time>2025-04-29T14:00:46Z</time>
      </trkpt>
      <trkpt lat="43.383024008944631" lon="-6.182284997776151">
        <ele>361.58999999999997</ele>
        <time>2025-04-29T14:00:47Z</time>
      </trkpt>
      <trkpt lat="43.382978998124599" lon="-6.182504016906023">
        <ele>361.58999999999997</ele>
        <time>2025-04-29T14:00:48Z</time>
      </trkpt>
      <trkpt lat="43.382650008425117" lon="-6.184202022850514">
        <ele>364</ele>
        <time>2025-04-29T14:00:56Z</time>
      </trkpt>
      <trkpt lat="43.38250701315701" lon="-6.184638971462846">
        <ele>365.92000000000002</ele>
        <time>2025-04-29T14:00:59Z</time>
      </trkpt>
      <trkpt lat="43.38244297541678" lon="-6.184755982831121">
        <ele>366.88</ele>
        <time>2025-04-29T14:01:00Z</time>
      </trkpt>
      <trkpt lat="43.382361000403762" lon="-6.184849021956325">
        <ele>367.36000000000001</ele>
        <time>2025-04-29T14:01:01Z</time>
      </trkpt>
      <trkpt lat="43.382262010127306" lon="-6.184923034161329">
        <ele>367.83999999999997</ele>
        <time>2025-04-29T14:01:02Z</time>
      </trkpt>
      <trkpt lat="43.382164025679231" lon="-6.184996962547302">
        <ele>368.80000000000001</ele>
        <time>2025-04-29T14:01:03Z</time>
      </trkpt>
      <trkpt lat="43.382065035402775" lon="-6.185070974752307">
        <ele>369.75999999999999</ele>
        <time>2025-04-29T14:01:04Z</time>
      </trkpt>
      <trkpt lat="43.381968978792429" lon="-6.185142975300551">
        <ele>370.24000000000001</ele>
        <time>2025-04-29T14:01:05Z</time>
      </trkpt>
      <trkpt lat="43.381878035143018" lon="-6.185254035517573">
        <ele>371.20999999999998</ele>
        <time>2025-04-29T14:01:06Z</time>
      </trkpt>
      <trkpt lat="43.381830006837845" lon="-6.185384038835764">
        <ele>372.17000000000002</ele>
        <time>2025-04-29T14:01:07Z</time>
      </trkpt>
      <trkpt lat="43.381779966875911" lon="-6.185518987476826">
        <ele>373.13</ele>
        <time>2025-04-29T14:01:08Z</time>
      </trkpt>
      <trkpt lat="43.381727999076247" lon="-6.185660976916552">
        <ele>373.61000000000001</ele>
        <time>2025-04-29T14:01:09Z</time>
      </trkpt>
      <trkpt lat="43.381673013791442" lon="-6.185812018811703">
        <ele>374.08999999999997</ele>
        <time>2025-04-29T14:01:10Z</time>
      </trkpt>
      <trkpt lat="43.381639989092946" lon="-6.185996001586318">
        <ele>374.56999999999999</ele>
        <time>2025-04-29T14:01:11Z</time>
      </trkpt>
      <trkpt lat="43.381612999364734" lon="-6.186188030987978">
        <ele>375.52999999999997</ele>
        <time>2025-04-29T14:01:12Z</time>
      </trkpt>
      <trkpt lat="43.38156002573669" lon="-6.18636698462069">
        <ele>375.52999999999997</ele>
        <time>2025-04-29T14:01:13Z</time>
      </trkpt>
      <trkpt lat="43.381490958854556" lon="-6.186504028737545">
        <ele>376.00999999999999</ele>
        <time>2025-04-29T14:01:14Z</time>
      </trkpt>
      <trkpt lat="43.381376964971423" lon="-6.186661021783948">
        <ele>376.00999999999999</ele>
        <time>2025-04-29T14:01:15Z</time>
      </trkpt>
      <trkpt lat="43.381279986351728" lon="-6.186831006780267">
        <ele>376.49000000000001</ele>
        <time>2025-04-29T14:01:16Z</time>
      </trkpt>
      <trkpt lat="43.381200022995472" lon="-6.187015995383263">
        <ele>376.49000000000001</ele>
        <time>2025-04-29T14:01:17Z</time>
      </trkpt>
      <trkpt lat="43.381117964163423" lon="-6.187206013128161">
        <ele>376.97000000000003</ele>
        <time>2025-04-29T14:01:18Z</time>
      </trkpt>
      <trkpt lat="43.380351020023227" lon="-6.189198978245258">
        <ele>380.33999999999997</ele>
        <time>2025-04-29T14:01:28Z</time>
      </trkpt>
      <trkpt lat="43.380214981734753" lon="-6.189345996826887">
        <ele>380.81999999999999</ele>
        <time>2025-04-29T14:01:29Z</time>
      </trkpt>
      <trkpt lat="43.379871994256973" lon="-6.189725026488304">
        <ele>382.74000000000001</ele>
        <time>2025-04-29T14:01:32Z</time>
      </trkpt>
      <trkpt lat="43.379813991487026" lon="-6.189865004271269">
        <ele>383.22000000000003</ele>
        <time>2025-04-29T14:01:33Z</time>
      </trkpt>
      <trkpt lat="43.379247961565852" lon="-6.190947024151683">
        <ele>386.58999999999997</ele>
        <time>2025-04-29T14:01:40Z</time>
      </trkpt>
      <trkpt lat="43.378867004066706" lon="-6.191428983584046">
        <ele>389.94999999999999</ele>
        <time>2025-04-29T14:01:44Z</time>
      </trkpt>
      <trkpt lat="43.378816964104772" lon="-6.191589999943972">
        <ele>391.38999999999999</ele>
        <time>2025-04-29T14:01:45Z</time>
      </trkpt>
      <trkpt lat="43.378777988255024" lon="-6.19173601269722">
        <ele>392.83999999999997</ele>
        <time>2025-04-29T14:01:46Z</time>
      </trkpt>
      <trkpt lat="43.378595011308789" lon="-6.192411007359624">
        <ele>398.60000000000002</ele>
        <time>2025-04-29T14:01:51Z</time>
      </trkpt>
      <trkpt lat="43.378423014655709" lon="-6.193049037829042">
        <ele>403.41000000000003</ele>
        <time>2025-04-29T14:01:56Z</time>
      </trkpt>
      <trkpt lat="43.378363000229001" lon="-6.193179963156581">
        <ele>403.88999999999999</ele>
        <time>2025-04-29T14:01:57Z</time>
      </trkpt>
      <trkpt lat="43.378308014944196" lon="-6.193297980353236">
        <ele>404.37</ele>
        <time>2025-04-29T14:01:58Z</time>
      </trkpt>
      <trkpt lat="43.378257974982262" lon="-6.193407028913498">
        <ele>405.32999999999998</ele>
        <time>2025-04-29T14:01:59Z</time>
      </trkpt>
      <trkpt lat="43.37821195833385" lon="-6.193509036675096">
        <ele>406.29000000000002</ele>
        <time>2025-04-29T14:02:00Z</time>
      </trkpt>
      <trkpt lat="43.37816996499896" lon="-6.193599980324507">
        <ele>406.76999999999998</ele>
        <time>2025-04-29T14:02:01Z</time>
      </trkpt>
      <trkpt lat="43.37812696583569" lon="-6.19369201362133">
        <ele>407.74000000000001</ele>
        <time>2025-04-29T14:02:02Z</time>
      </trkpt>
      <trkpt lat="43.378057982772589" lon="-6.19384297169745">
        <ele>408.22000000000003</ele>
        <time>2025-04-29T14:02:03Z</time>
      </trkpt>
      <trkpt lat="43.378015989437699" lon="-6.193875996395946">
        <ele>408.69999999999999</ele>
        <time>2025-04-29T14:02:04Z</time>
      </trkpt>
      <trkpt lat="43.37795396335423" lon="-6.19392603635788">
        <ele>409.18000000000001</ele>
        <time>2025-04-29T14:02:05Z</time>
      </trkpt>
      <trkpt lat="43.377870982512832" lon="-6.19394900277257">
        <ele>409.18000000000001</ele>
        <time>2025-04-29T14:02:06Z</time>
      </trkpt>
      <trkpt lat="43.377805016934872" lon="-6.193965012207627">
        <ele>410.13999999999999</ele>
        <time>2025-04-29T14:02:07Z</time>
      </trkpt>
      <trkpt lat="43.377668978646398" lon="-6.193998958915472">
        <ele>411.10000000000002</ele>
        <time>2025-04-29T14:02:09Z</time>
      </trkpt>
      <trkpt lat="43.377550961449742" lon="-6.194085963070393">
        <ele>411.57999999999998</ele>
        <time>2025-04-29T14:02:11Z</time>
      </trkpt>
      <trkpt lat="43.377521960064769" lon="-6.19412200525403">
        <ele>412.06</ele>
        <time>2025-04-29T14:02:12Z</time>
      </trkpt>
      <trkpt lat="43.377484995871782" lon="-6.194243961945176">
        <ele>412.54000000000002</ele>
        <time>2025-04-29T14:02:13Z</time>
      </trkpt>
      <trkpt lat="43.377457000315189" lon="-6.194340018555522">
        <ele>412.54000000000002</ele>
        <time>2025-04-29T14:02:14Z</time>
      </trkpt>
      <trkpt lat="43.377426993101835" lon="-6.194441020488739">
        <ele>412.54000000000002</ele>
        <time>2025-04-29T14:02:15Z</time>
      </trkpt>
      <trkpt lat="43.377396985888481" lon="-6.194540010765195">
        <ele>413.01999999999998</ele>
        <time>2025-04-29T14:02:16Z</time>
      </trkpt>
      <trkpt lat="43.377248039469123" lon="-6.195102017372847">
        <ele>413.01999999999998</ele>
        <time>2025-04-29T14:02:21Z</time>
      </trkpt>
      <trkpt lat="43.377220965921879" lon="-6.195235038176179">
        <ele>413.01999999999998</ele>
        <time>2025-04-29T14:02:22Z</time>
      </trkpt>
      <trkpt lat="43.376891976222396" lon="-6.196702960878611">
        <ele>414.94999999999999</ele>
        <time>2025-04-29T14:02:31Z</time>
      </trkpt>
      <trkpt lat="43.376343967393041" lon="-6.198358973488212">
        <ele>422.16000000000003</ele>
        <time>2025-04-29T14:02:42Z</time>
      </trkpt>
      <trkpt lat="43.376215975731611" lon="-6.198727022856474">
        <ele>422.16000000000003</ele>
        <time>2025-04-29T14:02:44Z</time>
      </trkpt>
      <trkpt lat="43.376167025417089" lon="-6.198925003409386">
        <ele>421.68000000000001</ele>
        <time>2025-04-29T14:02:45Z</time>
      </trkpt>
      <trkpt lat="43.376126037910581" lon="-6.199139999225736">
        <ele>420.70999999999998</ele>
        <time>2025-04-29T14:02:46Z</time>
      </trkpt>
      <trkpt lat="43.375963009893894" lon="-6.200063014402986">
        <ele>418.31</ele>
        <time>2025-04-29T14:02:50Z</time>
      </trkpt>
      <trkpt lat="43.375695962458849" lon="-6.202599965035915">
        <ele>424.07999999999998</ele>
        <time>2025-04-29T14:03:01Z</time>
      </trkpt>
      <trkpt lat="43.375354986637831" lon="-6.205072961747646">
        <ele>432.73000000000002</ele>
        <time>2025-04-29T14:03:12Z</time>
      </trkpt>
      <trkpt lat="43.375307964161038" lon="-6.205481998622417">
        <ele>433.20999999999998</ele>
        <time>2025-04-29T14:03:14Z</time>
      </trkpt>
      <trkpt lat="43.375269994139671" lon="-6.205689031630755">
        <ele>433.20999999999998</ele>
        <time>2025-04-29T14:03:15Z</time>
      </trkpt>
      <trkpt lat="43.375194976106286" lon="-6.206103013828397">
        <ele>433.20999999999998</ele>
        <time>2025-04-29T14:03:17Z</time>
      </trkpt>
      <trkpt lat="43.375161029398441" lon="-6.206319015473127">
        <ele>432.73000000000002</ele>
        <time>2025-04-29T14:03:18Z</time>
      </trkpt>
      <trkpt lat="43.375161029398441" lon="-6.206534011289477">
        <ele>432.25</ele>
        <time>2025-04-29T14:03:19Z</time>
      </trkpt>
      <trkpt lat="43.375188019126654" lon="-6.206740960478783">
        <ele>431.76999999999998</ele>
        <time>2025-04-29T14:03:20Z</time>
      </trkpt>
      <trkpt lat="43.37522397749126" lon="-6.206941036507487">
        <ele>431.29000000000002</ele>
        <time>2025-04-29T14:03:21Z</time>
      </trkpt>
      <trkpt lat="43.375260019674897" lon="-6.207137005403638">
        <ele>430.81</ele>
        <time>2025-04-29T14:03:22Z</time>
      </trkpt>
      <trkpt lat="43.375510973855853" lon="-6.208325978368521">
        <ele>427.44</ele>
        <time>2025-04-29T14:03:29Z</time>
      </trkpt>
      <trkpt lat="43.375517008826137" lon="-6.20849596336484">
        <ele>427.44</ele>
        <time>2025-04-29T14:03:30Z</time>
      </trkpt>
      <trkpt lat="43.37552203796804" lon="-6.208670977503061">
        <ele>427.44</ele>
        <time>2025-04-29T14:03:31Z</time>
      </trkpt>
      <trkpt lat="43.37550200521946" lon="-6.209229966625571">
        <ele>426.48000000000002</ele>
        <time>2025-04-29T14:03:34Z</time>
      </trkpt>
      <trkpt lat="43.375448025763035" lon="-6.210255995392799">
        <ele>429.85000000000002</ele>
        <time>2025-04-29T14:03:41Z</time>
      </trkpt>
      <trkpt lat="43.375441990792751" lon="-6.210367977619171">
        <ele>430.81</ele>
        <time>2025-04-29T14:03:42Z</time>
      </trkpt>
      <trkpt lat="43.375462023541331" lon="-6.210580039769411">
        <ele>432.25</ele>
        <time>2025-04-29T14:03:44Z</time>
      </trkpt>
      <trkpt lat="43.375505022704601" lon="-6.210695039480925">
        <ele>432.73000000000002</ele>
        <time>2025-04-29T14:03:45Z</time>
      </trkpt>
      <trkpt lat="43.375551961362362" lon="-6.210798975080252">
        <ele>433.20999999999998</ele>
        <time>2025-04-29T14:03:46Z</time>
      </trkpt>
      <trkpt lat="43.375663021579385" lon="-6.210967032238841">
        <ele>434.17000000000002</ele>
        <time>2025-04-29T14:03:48Z</time>
      </trkpt>
      <trkpt lat="43.375866031274199" lon="-6.211155038326979">
        <ele>436.10000000000002</ele>
        <time>2025-04-29T14:03:51Z</time>
      </trkpt>
      <trkpt lat="43.375884974375367" lon="-6.211258973926306">
        <ele>436.57999999999998</ele>
        <time>2025-04-29T14:03:52Z</time>
      </trkpt>
      <trkpt lat="43.375899977982044" lon="-6.211356958374381">
        <ele>437.06</ele>
        <time>2025-04-29T14:03:53Z</time>
      </trkpt>
      <trkpt lat="43.375914981588721" lon="-6.211459971964359">
        <ele>437.54000000000002</ele>
        <time>2025-04-29T14:03:54Z</time>
      </trkpt>
      <trkpt lat="43.37593199685216" lon="-6.21156801469624">
        <ele>438.5</ele>
        <time>2025-04-29T14:03:55Z</time>
      </trkpt>
      <trkpt lat="43.375949012115598" lon="-6.211678991094232">
        <ele>439.45999999999998</ele>
        <time>2025-04-29T14:03:56Z</time>
      </trkpt>
      <trkpt lat="43.375964015722275" lon="-6.211790973320603">
        <ele>439.94</ele>
        <time>2025-04-29T14:03:57Z</time>
      </trkpt>
      <trkpt lat="43.375968961045146" lon="-6.211922988295555">
        <ele>440.89999999999998</ele>
        <time>2025-04-29T14:03:58Z</time>
      </trkpt>
      <trkpt lat="43.375938031822443" lon="-6.212059026584029">
        <ele>440.89999999999998</ele>
        <time>2025-04-29T14:03:59Z</time>
      </trkpt>
      <trkpt lat="43.375901989638805" lon="-6.212214007973671">
        <ele>441.38</ele>
        <time>2025-04-29T14:04:00Z</time>
      </trkpt>
      <trkpt lat="43.375865025445819" lon="-6.212379969656467">
        <ele>440.89999999999998</ele>
        <time>2025-04-29T14:04:01Z</time>
      </trkpt>
      <trkpt lat="43.375441990792751" lon="-6.214280985295773">
        <ele>439.45999999999998</ele>
        <time>2025-04-29T14:04:11Z</time>
      </trkpt>
      <trkpt lat="43.375058015808463" lon="-6.216235980391502">
        <ele>435.61000000000001</ele>
        <time>2025-04-29T14:04:20Z</time>
      </trkpt>
      <trkpt lat="43.374990038573742" lon="-6.217940021306276">
        <ele>428.88999999999999</ele>
        <time>2025-04-29T14:04:29Z</time>
      </trkpt>
      <trkpt lat="43.375270999968052" lon="-6.219050958752632">
        <ele>422.63999999999999</ele>
        <time>2025-04-29T14:04:36Z</time>
      </trkpt>
      <trkpt lat="43.375306958332658" lon="-6.219171993434429">
        <ele>420.70999999999998</ele>
        <time>2025-04-29T14:04:38Z</time>
      </trkpt>
      <trkpt lat="43.375316010788083" lon="-6.219202000647783">
        <ele>419.26999999999998</ele>
        <time>2025-04-29T14:04:39Z</time>
      </trkpt>
      <trkpt lat="43.375316010788083" lon="-6.219202000647783">
        <ele>415.43000000000001</ele>
        <time>2025-04-29T14:04:49Z</time>
      </trkpt>
      <trkpt lat="43.375316010788083" lon="-6.219202000647783">
        <ele>414.47000000000003</ele>
        <time>2025-04-29T14:05:34Z</time>
      </trkpt>
      <trkpt lat="43.375431010499597" lon="-6.21936796233058">
        <ele>428.88999999999999</ele>
        <time>2025-04-29T14:18:58Z</time>
      </trkpt>
      <trkpt lat="43.375430004671216" lon="-6.219364022836089">
        <ele>428.39999999999998</ele>
        <time>2025-04-29T14:19:40Z</time>
      </trkpt>
      <trkpt lat="43.375435033813119" lon="-6.21936603449285">
        <ele>428.88999999999999</ele>
        <time>2025-04-29T14:20:29Z</time>
      </trkpt>
      <trkpt lat="43.375435033813119" lon="-6.219364022836089">
        <ele>428.88999999999999</ele>
        <time>2025-04-29T14:21:22Z</time>
      </trkpt>
      <trkpt lat="43.375436961650848" lon="-6.219364022836089">
        <ele>429.37</ele>
        <time>2025-04-29T14:22:13Z</time>
      </trkpt>
      <trkpt lat="43.37543897330761" lon="-6.21936796233058">
        <ele>429.37</ele>
        <time>2025-04-29T14:23:02Z</time>
      </trkpt>
      <trkpt lat="43.375436961650848" lon="-6.219375003129244">
        <ele>428.88999999999999</ele>
        <time>2025-04-29T14:23:45Z</time>
      </trkpt>
      <trkpt lat="43.375436961650848" lon="-6.219378020614386">
        <ele>428.88999999999999</ele>
        <time>2025-04-29T14:24:29Z</time>
      </trkpt>
      <trkpt lat="43.375436961650848" lon="-6.219381038099527">
        <ele>428.88999999999999</ele>
        <time>2025-04-29T14:25:11Z</time>
      </trkpt>
      <trkpt lat="43.375437967479229" lon="-6.219381960108876">
        <ele>429.37</ele>
        <time>2025-04-29T14:25:59Z</time>
      </trkpt>
      <trkpt lat="43.375435033813119" lon="-6.219379026442766">
        <ele>429.37</ele>
        <time>2025-04-29T14:26:40Z</time>
      </trkpt>
      <trkpt lat="43.375437967479229" lon="-6.219381038099527">
        <ele>429.37</ele>
        <time>2025-04-29T14:27:25Z</time>
      </trkpt>
      <trkpt lat="43.37543997913599" lon="-6.21938900090754">
        <ele>428.88999999999999</ele>
        <time>2025-04-29T14:28:05Z</time>
      </trkpt>
      <trkpt lat="43.37543897330761" lon="-6.219392018392682">
        <ele>428.88999999999999</ele>
        <time>2025-04-29T14:28:44Z</time>
      </trkpt>
      <trkpt lat="43.375440984964371" lon="-6.219392018392682">
        <ele>428.88999999999999</ele>
        <time>2025-04-29T14:29:35Z</time>
      </trkpt>
      <trkpt lat="43.375445008277893" lon="-6.219394030049443">
        <ele>428.39999999999998</ele>
        <time>2025-04-29T14:30:26Z</time>
      </trkpt>
      <trkpt lat="43.375448025763035" lon="-6.219396041706204">
        <ele>428.39999999999998</ele>
        <time>2025-04-29T14:31:09Z</time>
      </trkpt>
      <trkpt lat="43.375448025763035" lon="-6.219392018392682">
        <ele>428.39999999999998</ele>
        <time>2025-04-29T14:31:53Z</time>
      </trkpt>
      <trkpt lat="43.375447019934654" lon="-6.219386989250779">
        <ele>428.39999999999998</ele>
        <time>2025-04-29T14:32:37Z</time>
      </trkpt>
      <trkpt lat="43.375450037419796" lon="-6.219381960108876">
        <ele>428.39999999999998</ele>
        <time>2025-04-29T14:33:15Z</time>
      </trkpt>
      <trkpt lat="43.375453976914287" lon="-6.219380032271147">
        <ele>427.92000000000002</ele>
        <time>2025-04-29T14:34:03Z</time>
      </trkpt>
      <trkpt lat="43.375453976914287" lon="-6.219380032271147">
        <ele>427.92000000000002</ele>
        <time>2025-04-29T14:34:50Z</time>
      </trkpt>
      <trkpt lat="43.375450037419796" lon="-6.219382965937257">
        <ele>427.92000000000002</ele>
        <time>2025-04-29T14:35:31Z</time>
      </trkpt>
      <trkpt lat="43.375448025763035" lon="-6.219383971765637">
        <ele>427.92000000000002</ele>
        <time>2025-04-29T14:36:14Z</time>
      </trkpt>
      <trkpt lat="43.375449031591415" lon="-6.219382965937257">
        <ele>427.92000000000002</ele>
        <time>2025-04-29T14:37:00Z</time>
      </trkpt>
      <trkpt lat="43.375447019934654" lon="-6.219386989250779">
        <ele>428.39999999999998</ele>
        <time>2025-04-29T14:37:44Z</time>
      </trkpt>
      <trkpt lat="43.375447019934654" lon="-6.219385983422399">
        <ele>428.39999999999998</ele>
        <time>2025-04-29T14:38:26Z</time>
      </trkpt>
      <trkpt lat="43.37539697997272" lon="-6.219482962042093">
        <ele>428.39999999999998</ele>
        <time>2025-04-29T14:38:57Z</time>
      </trkpt>
      <trkpt lat="43.375536035746336" lon="-6.220026025548577">
        <ele>426</ele>
        <time>2025-04-29T14:39:05Z</time>
      </trkpt>
      <trkpt lat="43.375580040737987" lon="-6.220270022749901">
        <ele>425.51999999999998</ele>
        <time>2025-04-29T14:39:06Z</time>
      </trkpt>
      <trkpt lat="43.375624967738986" lon="-6.220521982759237">
        <ele>424.07999999999998</ele>
        <time>2025-04-29T14:39:08Z</time>
      </trkpt>
      <trkpt lat="43.375647012144327" lon="-6.220642011612654">
        <ele>423.60000000000002</ele>
        <time>2025-04-29T14:39:09Z</time>
      </trkpt>
      <trkpt lat="43.375648017972708" lon="-6.220694985240698">
        <ele>422.63999999999999</ele>
        <time>2025-04-29T14:39:10Z</time>
      </trkpt>
      <trkpt lat="43.375591021031141" lon="-6.220772014930844">
        <ele>422.16000000000003</ele>
        <time>2025-04-29T14:39:11Z</time>
      </trkpt>
      <trkpt lat="43.375530000776052" lon="-6.220852984115481">
        <ele>421.68000000000001</ele>
        <time>2025-04-29T14:39:12Z</time>
      </trkpt>
      <trkpt lat="43.375461017712951" lon="-6.220945017412305">
        <ele>421.68000000000001</ele>
        <time>2025-04-29T14:39:13Z</time>
      </trkpt>
      <trkpt lat="43.375390022993088" lon="-6.221039984375238">
        <ele>421.19</ele>
        <time>2025-04-29T14:39:14Z</time>
      </trkpt>
      <trkpt lat="43.375313999131322" lon="-6.221140986308456">
        <ele>420.70999999999998</ele>
        <time>2025-04-29T14:39:15Z</time>
      </trkpt>
      <trkpt lat="43.375253984704614" lon="-6.221290016546845">
        <ele>420.23000000000002</ele>
        <time>2025-04-29T14:39:16Z</time>
      </trkpt>
      <trkpt lat="43.375229006633162" lon="-6.221439968794584">
        <ele>419.75</ele>
        <time>2025-04-29T14:39:17Z</time>
      </trkpt>
      <trkpt lat="43.375203022733331" lon="-6.221597967669368">
        <ele>419.26999999999998</ele>
        <time>2025-04-29T14:39:18Z</time>
      </trkpt>
      <trkpt lat="43.375177038833499" lon="-6.221758984029293">
        <ele>418.79000000000002</ele>
        <time>2025-04-29T14:39:19Z</time>
      </trkpt>
      <trkpt lat="43.375149965286255" lon="-6.221921006217599">
        <ele>418.79000000000002</ele>
        <time>2025-04-29T14:39:20Z</time>
      </trkpt>
      <trkpt lat="43.375122975558043" lon="-6.222084034234285">
        <ele>418.31</ele>
        <time>2025-04-29T14:39:21Z</time>
      </trkpt>
      <trkpt lat="43.375097997486591" lon="-6.222240021452308">
        <ele>417.82999999999998</ele>
        <time>2025-04-29T14:39:22Z</time>
      </trkpt>
      <trkpt lat="43.375048963353038" lon="-6.222536992281675">
        <ele>417.82999999999998</ele>
        <time>2025-04-29T14:39:24Z</time>
      </trkpt>
      <trkpt lat="43.375024991109967" lon="-6.222681999206543">
        <ele>417.82999999999998</ele>
        <time>2025-04-29T14:39:25Z</time>
      </trkpt>
      <trkpt lat="43.374828016385436" lon="-6.223887987434864">
        <ele>417.82999999999998</ele>
        <time>2025-04-29T14:39:33Z</time>
      </trkpt>
      <trkpt lat="43.374747969210148" lon="-6.224972018972039">
        <ele>417.35000000000002</ele>
        <time>2025-04-29T14:39:40Z</time>
      </trkpt>
      <trkpt lat="43.37468602694571" lon="-6.225107973441482">
        <ele>417.35000000000002</ele>
        <time>2025-04-29T14:39:41Z</time>
      </trkpt>
      <trkpt lat="43.374617965891957" lon="-6.225255997851491">
        <ele>416.87</ele>
        <time>2025-04-29T14:39:42Z</time>
      </trkpt>
      <trkpt lat="43.373917993158102" lon="-6.226695002987981">
        <ele>413.98000000000002</ele>
        <time>2025-04-29T14:39:51Z</time>
      </trkpt>
      <trkpt lat="43.373331008478999" lon="-6.228393008932471">
        <ele>411.57999999999998</ele>
        <time>2025-04-29T14:40:01Z</time>
      </trkpt>
      <trkpt lat="43.37290596216917" lon="-6.230727033689618">
        <ele>410.62</ele>
        <time>2025-04-29T14:40:13Z</time>
      </trkpt>
      <trkpt lat="43.372866986319423" lon="-6.231222990900278">
        <ele>410.13999999999999</ele>
        <time>2025-04-29T14:40:16Z</time>
      </trkpt>
      <trkpt lat="43.372812001034617" lon="-6.231352994218469">
        <ele>409.66000000000003</ele>
        <time>2025-04-29T14:40:17Z</time>
      </trkpt>
      <trkpt lat="43.372756009921432" lon="-6.231465982273221">
        <ele>409.66000000000003</ele>
        <time>2025-04-29T14:40:18Z</time>
      </trkpt>
      <trkpt lat="43.372699012979865" lon="-6.231581987813115">
        <ele>409.66000000000003</ele>
        <time>2025-04-29T14:40:19Z</time>
      </trkpt>
      <trkpt lat="43.372642016038299" lon="-6.231697993353009">
        <ele>409.18000000000001</ele>
        <time>2025-04-29T14:40:20Z</time>
      </trkpt>
      <trkpt lat="43.372520981356502" lon="-6.231945008039475">
        <ele>408.69999999999999</ele>
        <time>2025-04-29T14:40:22Z</time>
      </trkpt>
      <trkpt lat="43.372456021606922" lon="-6.232078028842807">
        <ele>408.22000000000003</ele>
        <time>2025-04-29T14:40:23Z</time>
      </trkpt>
      <trkpt lat="43.372013960033655" lon="-6.23305301181972">
        <ele>404.85000000000002</ele>
        <time>2025-04-29T14:40:30Z</time>
      </trkpt>
      <trkpt lat="43.371715983375907" lon="-6.233963035047054">
        <ele>401.97000000000003</ele>
        <time>2025-04-29T14:40:36Z</time>
      </trkpt>
      <trkpt lat="43.371649011969566" lon="-6.234743976965547">
        <ele>401.00999999999999</ele>
        <time>2025-04-29T14:40:41Z</time>
      </trkpt>
      <trkpt lat="43.371606012806296" lon="-6.234911028295755">
        <ele>400.52999999999997</ele>
        <time>2025-04-29T14:40:42Z</time>
      </trkpt>
      <trkpt lat="43.371539963409305" lon="-6.235060980543494">
        <ele>400.52999999999997</ele>
        <time>2025-04-29T14:40:43Z</time>
      </trkpt>
      <trkpt lat="43.371481960639358" lon="-6.235219985246658">
        <ele>400.52999999999997</ele>
        <time>2025-04-29T14:40:44Z</time>
      </trkpt>
      <trkpt lat="43.371450025588274" lon="-6.235385024920106">
        <ele>401.00999999999999</ele>
        <time>2025-04-29T14:40:45Z</time>
      </trkpt>
      <trkpt lat="43.371419012546539" lon="-6.23554696328938">
        <ele>400.52999999999997</ele>
        <time>2025-04-29T14:40:46Z</time>
      </trkpt>
      <trkpt lat="43.371363021433353" lon="-6.235835971310735">
        <ele>401.00999999999999</ele>
        <time>2025-04-29T14:40:48Z</time>
      </trkpt>
      <trkpt lat="43.371282974258065" lon="-6.235980978235602">
        <ele>401.00999999999999</ele>
        <time>2025-04-29T14:40:49Z</time>
      </trkpt>
      <trkpt lat="43.370770001783967" lon="-6.237328033894301">
        <ele>401.97000000000003</ele>
        <time>2025-04-29T14:40:58Z</time>
      </trkpt>
      <trkpt lat="43.370554000139236" lon="-6.237967992201448">
        <ele>401.49000000000001</ele>
        <time>2025-04-29T14:41:02Z</time>
      </trkpt>
      <trkpt lat="43.370499014854431" lon="-6.238133031874895">
        <ele>401.97000000000003</ele>
        <time>2025-04-29T14:41:03Z</time>
      </trkpt>
      <trkpt lat="43.370253005996346" lon="-6.238796962425113">
        <ele>401.97000000000003</ele>
        <time>2025-04-29T14:41:07Z</time>
      </trkpt>
      <trkpt lat="43.370167007669806" lon="-6.238945992663503">
        <ele>401.97000000000003</ele>
        <time>2025-04-29T14:41:08Z</time>
      </trkpt>
      <trkpt lat="43.370066005736589" lon="-6.239072978496552">
        <ele>401.97000000000003</ele>
        <time>2025-04-29T14:41:09Z</time>
      </trkpt>
      <trkpt lat="43.369764005765319" lon="-6.23945401981473">
        <ele>401.97000000000003</ele>
        <time>2025-04-29T14:41:12Z</time>
      </trkpt>
      <trkpt lat="43.369468962773681" lon="-6.240043016150594">
        <ele>401.97000000000003</ele>
        <time>2025-04-29T14:41:16Z</time>
      </trkpt>
      <trkpt lat="43.36942202411592" lon="-6.240216018632054">
        <ele>401.49000000000001</ele>
        <time>2025-04-29T14:41:17Z</time>
      </trkpt>
      <trkpt lat="43.369369972497225" lon="-6.240580966696143">
        <ele>401.00999999999999</ele>
        <time>2025-04-29T14:41:19Z</time>
      </trkpt>
      <trkpt lat="43.369167968630791" lon="-6.241982001811266">
        <ele>399.07999999999998</ele>
        <time>2025-04-29T14:41:27Z</time>
      </trkpt>
      <trkpt lat="43.369141984730959" lon="-6.242160033434629">
        <ele>398.60000000000002</ele>
        <time>2025-04-29T14:41:28Z</time>
      </trkpt>
      <trkpt lat="43.369109965860844" lon="-6.242379974573851">
        <ele>398.12</ele>
        <time>2025-04-29T14:41:29Z</time>
      </trkpt>
      <trkpt lat="43.369065038859844" lon="-6.24250503256917">
        <ele>397.63999999999999</ele>
        <time>2025-04-29T14:41:30Z</time>
      </trkpt>
      <trkpt lat="43.369010975584388" lon="-6.242655990645289">
        <ele>397.16000000000003</ele>
        <time>2025-04-29T14:41:31Z</time>
      </trkpt>
      <trkpt lat="43.368956996127963" lon="-6.242804015055299">
        <ele>396.68000000000001</ele>
        <time>2025-04-29T14:41:32Z</time>
      </trkpt>
      <trkpt lat="43.368853982537985" lon="-6.243088999763131">
        <ele>395.24000000000001</ele>
        <time>2025-04-29T14:41:34Z</time>
      </trkpt>
      <trkpt lat="43.368806038051844" lon="-6.243222020566464">
        <ele>394.75999999999999</ele>
        <time>2025-04-29T14:41:35Z</time>
      </trkpt>
      <trkpt lat="43.36856103502214" lon="-6.243900032714009">
        <ele>390.43000000000001</ele>
        <time>2025-04-29T14:41:40Z</time>
      </trkpt>
      <trkpt lat="43.368515018373728" lon="-6.243984019383788">
        <ele>390.43000000000001</ele>
        <time>2025-04-29T14:41:41Z</time>
      </trkpt>
      <trkpt lat="43.368447963148355" lon="-6.244089966639876">
        <ele>390.43000000000001</ele>
        <time>2025-04-29T14:41:42Z</time>
      </trkpt>
      <trkpt lat="43.368365988135338" lon="-6.244191974401474">
        <ele>390.91000000000003</ele>
        <time>2025-04-29T14:41:43Z</time>
      </trkpt>
      <trkpt lat="43.36826297454536" lon="-6.244279984384775">
        <ele>390.91000000000003</ele>
        <time>2025-04-29T14:41:44Z</time>
      </trkpt>
      <trkpt lat="43.368141017854214" lon="-6.244298005476594">
        <ele>391.38999999999999</ele>
        <time>2025-04-29T14:41:45Z</time>
      </trkpt>
      <trkpt lat="43.368024006485939" lon="-6.244305968284607">
        <ele>391.87</ele>
        <time>2025-04-29T14:41:46Z</time>
      </trkpt>
      <trkpt lat="43.367895008996129" lon="-6.244304040446878">
        <ele>392.83999999999997</ele>
        <time>2025-04-29T14:41:47Z</time>
      </trkpt>
      <trkpt lat="43.367766011506319" lon="-6.244286019355059">
        <ele>393.80000000000001</ele>
        <time>2025-04-29T14:41:48Z</time>
      </trkpt>
      <trkpt lat="43.367649000138044" lon="-6.244270009920001">
        <ele>394.75999999999999</ele>
        <time>2025-04-29T14:41:49Z</time>
      </trkpt>
      <trkpt lat="43.367541963234544" lon="-6.244256012141705">
        <ele>395.72000000000003</ele>
        <time>2025-04-29T14:41:50Z</time>
      </trkpt>
      <trkpt lat="43.367440961301327" lon="-6.244275961071253">
        <ele>395.72000000000003</ele>
        <time>2025-04-29T14:41:51Z</time>
      </trkpt>
      <trkpt lat="43.367356974631548" lon="-6.244338992983103">
        <ele>396.19999999999999</ele>
        <time>2025-04-29T14:41:52Z</time>
      </trkpt>
      <trkpt lat="43.367267036810517" lon="-6.244406970217824">
        <ele>397.16000000000003</ele>
        <time>2025-04-29T14:41:53Z</time>
      </trkpt>
      <trkpt lat="43.367071989923716" lon="-6.244551977142692">
        <ele>398.60000000000002</ele>
        <time>2025-04-29T14:41:55Z</time>
      </trkpt>
      <trkpt lat="43.366978028789163" lon="-6.244622971862555">
        <ele>399.07999999999998</ele>
        <time>2025-04-29T14:41:56Z</time>
      </trkpt>
      <trkpt lat="43.366921031847596" lon="-6.24474199488759">
        <ele>400.05000000000001</ele>
        <time>2025-04-29T14:41:57Z</time>
      </trkpt>
      <trkpt lat="43.366875015199184" lon="-6.24486998654902">
        <ele>401.00999999999999</ele>
        <time>2025-04-29T14:41:58Z</time>
      </trkpt>
      <trkpt lat="43.366853976622224" lon="-6.245026979595423">
        <ele>402.44999999999999</ele>
        <time>2025-04-29T14:41:59Z</time>
      </trkpt>
      <trkpt lat="43.366831010207534" lon="-6.245194030925632">
        <ele>403.41000000000003</ele>
        <time>2025-04-29T14:42:00Z</time>
      </trkpt>
      <trkpt lat="43.366793040186167" lon="-6.245469963178039">
        <ele>404.37</ele>
        <time>2025-04-29T14:42:02Z</time>
      </trkpt>
      <trkpt lat="43.366683991625905" lon="-6.245639026165009">
        <ele>404.85000000000002</ele>
        <time>2025-04-29T14:42:03Z</time>
      </trkpt>
      <trkpt lat="43.3666099794209" lon="-6.245754025876522">
        <ele>405.32999999999998</ele>
        <time>2025-04-29T14:42:04Z</time>
      </trkpt>
      <trkpt lat="43.366568991914392" lon="-6.245903978124261">
        <ele>405.81</ele>
        <time>2025-04-29T14:42:05Z</time>
      </trkpt>
      <trkpt lat="43.366542002186179" lon="-6.246021995320916">
        <ele>406.29000000000002</ele>
        <time>2025-04-29T14:42:06Z</time>
      </trkpt>
      <trkpt lat="43.366534961387515" lon="-6.246048985049129">
        <ele>406.76999999999998</ele>
        <time>2025-04-29T14:42:07Z</time>
      </trkpt>
      <trkpt lat="43.366585001349449" lon="-6.246280996128917">
        <ele>407.25999999999999</ele>
        <time>2025-04-29T14:42:08Z</time>
      </trkpt>
      <trkpt lat="43.366634035483003" lon="-6.246402030810714">
        <ele>407.25999999999999</ele>
        <time>2025-04-29T14:42:09Z</time>
      </trkpt>
      <trkpt lat="43.366717016324401" lon="-6.246525999158621">
        <ele>407.25999999999999</ele>
        <time>2025-04-29T14:42:10Z</time>
      </trkpt>
      <trkpt lat="43.366807959973812" lon="-6.246662959456444">
        <ele>407.25999999999999</ele>
        <time>2025-04-29T14:42:11Z</time>
      </trkpt>
      <trkpt lat="43.366906028240919" lon="-6.246809978038073">
        <ele>407.25999999999999</ele>
        <time>2025-04-29T14:42:12Z</time>
      </trkpt>
      <trkpt lat="43.367010969668627" lon="-6.246967976912856">
        <ele>407.25999999999999</ele>
        <time>2025-04-29T14:42:13Z</time>
      </trkpt>
      <trkpt lat="43.367071989923716" lon="-6.247057998552918">
        <ele>407.25999999999999</ele>
        <time>2025-04-29T14:42:14Z</time>
      </trkpt>
      <trkpt lat="43.367266030982137" lon="-6.247191019356251">
        <ele>407.25999999999999</ele>
        <time>2025-04-29T14:42:15Z</time>
      </trkpt>
      <trkpt lat="43.36738002486527" lon="-6.247268971055746">
        <ele>407.25999999999999</ele>
        <time>2025-04-29T14:42:16Z</time>
      </trkpt>
      <trkpt lat="43.367497036233544" lon="-6.24734197743237">
        <ele>406.76999999999998</ele>
        <time>2025-04-29T14:42:17Z</time>
      </trkpt>
      <trkpt lat="43.367622010409832" lon="-6.247378019616008">
        <ele>406.76999999999998</ele>
        <time>2025-04-29T14:42:18Z</time>
      </trkpt>
      <trkpt lat="43.367743967100978" lon="-6.247412972152233">
        <ele>406.29000000000002</ele>
        <time>2025-04-29T14:42:19Z</time>
      </trkpt>
      <trkpt lat="43.367857960984111" lon="-6.247444991022348">
        <ele>405.81</ele>
        <time>2025-04-29T14:42:20Z</time>
      </trkpt>
      <trkpt lat="43.367958962917328" lon="-6.247505005449057">
        <ele>405.81</ele>
        <time>2025-04-29T14:42:21Z</time>
      </trkpt>
      <trkpt lat="43.368034986779094" lon="-6.247609024867415">
        <ele>406.29000000000002</ele>
        <time>2025-04-29T14:42:22Z</time>
      </trkpt>
      <trkpt lat="43.36817697621882" lon="-6.247845981270075">
        <ele>407.25999999999999</ele>
        <time>2025-04-29T14:42:24Z</time>
      </trkpt>
      <trkpt lat="43.368204971775413" lon="-6.247997023165226">
        <ele>407.74000000000001</ele>
        <time>2025-04-29T14:42:25Z</time>
      </trkpt>
      <trkpt lat="43.368228022009134" lon="-6.248188968747854">
        <ele>407.74000000000001</ele>
        <time>2025-04-29T14:42:26Z</time>
      </trkpt>
      <trkpt lat="43.36821997538209" lon="-6.248332969844341">
        <ele>408.22000000000003</ele>
        <time>2025-04-29T14:42:27Z</time>
      </trkpt>
      <trkpt lat="43.368213018402457" lon="-6.248480994254351">
        <ele>408.22000000000003</ele>
        <time>2025-04-29T14:42:28Z</time>
      </trkpt>
      <trkpt lat="43.368228022009134" lon="-6.248619966208935">
        <ele>408.69999999999999</ele>
        <time>2025-04-29T14:42:29Z</time>
      </trkpt>
      <trkpt lat="43.368282001465559" lon="-6.248790035024285">
        <ele>408.69999999999999</ele>
        <time>2025-04-29T14:42:30Z</time>
      </trkpt>
      <trkpt lat="43.368394989520311" lon="-6.249196976423264">
        <ele>407.74000000000001</ele>
        <time>2025-04-29T14:42:32Z</time>
      </trkpt>
      <trkpt lat="43.368423990905285" lon="-6.249401997774839">
        <ele>407.25999999999999</ele>
        <time>2025-04-29T14:42:33Z</time>
      </trkpt>
      <trkpt lat="43.368441006168723" lon="-6.249611964449287">
        <ele>406.76999999999998</ele>
        <time>2025-04-29T14:42:34Z</time>
      </trkpt>
      <trkpt lat="43.368431031703949" lon="-6.249795025214553">
        <ele>405.81</ele>
        <time>2025-04-29T14:42:35Z</time>
      </trkpt>
      <trkpt lat="43.368403036147356" lon="-6.249975990504026">
        <ele>404.37</ele>
        <time>2025-04-29T14:42:36Z</time>
      </trkpt>
      <trkpt lat="43.368332963436842" lon="-6.250120997428894">
        <ele>402.93000000000001</ele>
        <time>2025-04-29T14:42:37Z</time>
      </trkpt>
      <trkpt lat="43.368261968716979" lon="-6.250271033495665">
        <ele>401.49000000000001</ele>
        <time>2025-04-29T14:42:38Z</time>
      </trkpt>
      <trkpt lat="43.368086032569408" lon="-6.250549983233213">
        <ele>399.07999999999998</ele>
        <time>2025-04-29T14:42:40Z</time>
      </trkpt>
      <trkpt lat="43.367970027029514" lon="-6.250665988773108">
        <ele>397.63999999999999</ele>
        <time>2025-04-29T14:42:41Z</time>
      </trkpt>
      <trkpt lat="43.367780009284616" lon="-6.250856006518006">
        <ele>395.72000000000003</ele>
        <time>2025-04-29T14:42:43Z</time>
      </trkpt>
      <trkpt lat="43.36772502399981" lon="-6.251020962372422">
        <ele>394.75999999999999</ele>
        <time>2025-04-29T14:42:44Z</time>
      </trkpt>
      <trkpt lat="43.367694010958076" lon="-6.251112995669246">
        <ele>393.80000000000001</ele>
        <time>2025-04-29T14:42:45Z</time>
      </trkpt>
      <trkpt lat="43.367701973766088" lon="-6.251242998987436">
        <ele>392.83999999999997</ele>
        <time>2025-04-29T14:42:46Z</time>
      </trkpt>
      <trkpt lat="43.367711026221514" lon="-6.251383982598782">
        <ele>391.87</ele>
        <time>2025-04-29T14:42:47Z</time>
      </trkpt>
      <trkpt lat="43.367719994857907" lon="-6.251537958160043">
        <ele>391.38999999999999</ele>
        <time>2025-04-29T14:42:48Z</time>
      </trkpt>
      <trkpt lat="43.367730975151062" lon="-6.251705009490252">
        <ele>390.91000000000003</ele>
        <time>2025-04-29T14:42:49Z</time>
      </trkpt>
      <trkpt lat="43.367780009284616" lon="-6.252042967826128">
        <ele>388.99000000000001</ele>
        <time>2025-04-29T14:42:51Z</time>
      </trkpt>
      <trkpt lat="43.367823008447886" lon="-6.252213036641479">
        <ele>388.02999999999997</ele>
        <time>2025-04-29T14:42:52Z</time>
      </trkpt>
      <trkpt lat="43.367889979854226" lon="-6.252357037737966">
        <ele>387.06999999999999</ele>
        <time>2025-04-29T14:42:53Z</time>
      </trkpt>
      <trkpt lat="43.36796298623085" lon="-6.252458039671183">
        <ele>386.11000000000001</ele>
        <time>2025-04-29T14:42:54Z</time>
      </trkpt>
      <trkpt lat="43.368055019527674" lon="-6.25249701552093">
        <ele>385.14999999999998</ele>
        <time>2025-04-29T14:42:55Z</time>
      </trkpt>
      <trkpt lat="43.368159960955381" lon="-6.252541020512581">
        <ele>384.18000000000001</ele>
        <time>2025-04-29T14:42:56Z</time>
      </trkpt>
      <trkpt lat="43.368270015344024" lon="-6.252587037160993">
        <ele>383.22000000000003</ele>
        <time>2025-04-29T14:42:57Z</time>
      </trkpt>
      <trkpt lat="43.368968982249498" lon="-6.252851989120245">
        <ele>375.52999999999997</ele>
        <time>2025-04-29T14:43:04Z</time>
      </trkpt>
      <trkpt lat="43.369028996676207" lon="-6.252851989120245">
        <ele>374.56999999999999</ele>
        <time>2025-04-29T14:43:05Z</time>
      </trkpt>
      <trkpt lat="43.369094040244818" lon="-6.252851989120245">
        <ele>374.08999999999997</ele>
        <time>2025-04-29T14:43:06Z</time>
      </trkpt>
      <trkpt lat="43.36916696280241" lon="-6.252851989120245">
        <ele>373.13</ele>
        <time>2025-04-29T14:43:07Z</time>
      </trkpt>
      <trkpt lat="43.369249021634459" lon="-6.252851989120245">
        <ele>372.17000000000002</ele>
        <time>2025-04-29T14:43:08Z</time>
      </trkpt>
      <trkpt lat="43.369430992752314" lon="-6.252864981070161">
        <ele>371.20999999999998</ele>
        <time>2025-04-29T14:43:10Z</time>
      </trkpt>
      <trkpt lat="43.369536017999053" lon="-6.252896999940276">
        <ele>370.24000000000001</ele>
        <time>2025-04-29T14:43:11Z</time>
      </trkpt>
      <trkpt lat="43.369649006053805" lon="-6.252932958304882">
        <ele>369.27999999999997</ele>
        <time>2025-04-29T14:43:12Z</time>
      </trkpt>
      <trkpt lat="43.370014037936926" lon="-6.253115013241768">
        <ele>367.36000000000001</ele>
        <time>2025-04-29T14:43:15Z</time>
      </trkpt>
      <trkpt lat="43.370135994628072" lon="-6.253189025446773">
        <ele>367.36000000000001</ele>
        <time>2025-04-29T14:43:16Z</time>
      </trkpt>
      <trkpt lat="43.370633041486144" lon="-6.253623040392995">
        <ele>367.83999999999997</ele>
        <time>2025-04-29T14:43:21Z</time>
      </trkpt>
      <trkpt lat="43.370723985135555" lon="-6.253645000979304">
        <ele>368.31999999999999</ele>
        <time>2025-04-29T14:43:22Z</time>
      </trkpt>
      <trkpt lat="43.370824987068772" lon="-6.253668973222375">
        <ele>368.80000000000001</ele>
        <time>2025-04-29T14:43:23Z</time>
      </trkpt>
      <trkpt lat="43.370928000658751" lon="-6.253693029284477">
        <ele>368.80000000000001</ele>
        <time>2025-04-29T14:43:24Z</time>
      </trkpt>
      <trkpt lat="43.370997989550233" lon="-6.253709960728884">
        <ele>369.27999999999997</ele>
        <time>2025-04-29T14:43:25Z</time>
      </trkpt>
      <trkpt lat="43.371107038110495" lon="-6.253840969875455">
        <ele>369.27999999999997</ele>
        <time>2025-04-29T14:43:26Z</time>
      </trkpt>
      <trkpt lat="43.371189013123512" lon="-6.253939960151911">
        <ele>370.24000000000001</ele>
        <time>2025-04-29T14:43:27Z</time>
      </trkpt>
      <trkpt lat="43.371266964823008" lon="-6.254035010933876">
        <ele>370.73000000000002</ele>
        <time>2025-04-29T14:43:28Z</time>
      </trkpt>
      <trkpt lat="43.371479026973248" lon="-6.254290994256735">
        <ele>373.13</ele>
        <time>2025-04-29T14:43:31Z</time>
      </trkpt>
      <trkpt lat="43.371520014479756" lon="-6.254370035603643">
        <ele>374.08999999999997</ele>
        <time>2025-04-29T14:43:32Z</time>
      </trkpt>
      <trkpt lat="43.371541975066066" lon="-6.254490986466408">
        <ele>375.05000000000001</ele>
        <time>2025-04-29T14:43:33Z</time>
      </trkpt>
      <trkpt lat="43.371566031128168" lon="-6.25462400726974">
        <ele>376.00999999999999</ele>
        <time>2025-04-29T14:43:34Z</time>
      </trkpt>
      <trkpt lat="43.371591009199619" lon="-6.254759961739183">
        <ele>376.97000000000003</ele>
        <time>2025-04-29T14:43:35Z</time>
      </trkpt>
      <trkpt lat="43.371644988656044" lon="-6.254873033612967">
        <ele>377.94</ele>
        <time>2025-04-29T14:43:36Z</time>
      </trkpt>
      <trkpt lat="43.371713971719146" lon="-6.254960959777236">
        <ele>378.42000000000002</ele>
        <time>2025-04-29T14:43:37Z</time>
      </trkpt>
      <trkpt lat="43.371795024722815" lon="-6.255042012780905">
        <ele>379.38</ele>
        <time>2025-04-29T14:43:38Z</time>
      </trkpt>
      <trkpt lat="43.371883034706116" lon="-6.255131028592587">
        <ele>380.33999999999997</ele>
        <time>2025-04-29T14:43:39Z</time>
      </trkpt>
      <trkpt lat="43.371978001669049" lon="-6.255215015262365">
        <ele>380.81999999999999</ele>
        <time>2025-04-29T14:43:40Z</time>
      </trkpt>
      <trkpt lat="43.372083026915789" lon="-6.255300007760525">
        <ele>381.30000000000001</ele>
        <time>2025-04-29T14:43:41Z</time>
      </trkpt>
      <trkpt lat="43.372301962226629" lon="-6.255478039383888">
        <ele>381.30000000000001</ele>
        <time>2025-04-29T14:43:43Z</time>
      </trkpt>
      <trkpt lat="43.37238997220993" lon="-6.255601001903415">
        <ele>381.30000000000001</ele>
        <time>2025-04-29T14:43:44Z</time>
      </trkpt>
      <trkpt lat="43.37243196554482" lon="-6.25576201826334">
        <ele>381.30000000000001</ele>
        <time>2025-04-29T14:43:45Z</time>
      </trkpt>
      <trkpt lat="43.372476976364851" lon="-6.255928985774517">
        <ele>381.30000000000001</ele>
        <time>2025-04-29T14:43:46Z</time>
      </trkpt>
      <trkpt lat="43.372520981356502" lon="-6.256097964942455">
        <ele>380.81999999999999</ele>
        <time>2025-04-29T14:43:47Z</time>
      </trkpt>
      <trkpt lat="43.372564986348152" lon="-6.256261998787522">
        <ele>380.81999999999999</ele>
        <time>2025-04-29T14:43:48Z</time>
      </trkpt>
      <trkpt lat="43.372607985511422" lon="-6.256424020975828">
        <ele>380.81999999999999</ele>
        <time>2025-04-29T14:43:49Z</time>
      </trkpt>
      <trkpt lat="43.372650984674692" lon="-6.256596017628908">
        <ele>379.86000000000001</ele>
        <time>2025-04-29T14:43:50Z</time>
      </trkpt>
      <trkpt lat="43.372650984674692" lon="-6.256901035085321">
        <ele>379.38</ele>
        <time>2025-04-29T14:43:52Z</time>
      </trkpt>
      <trkpt lat="43.3727109991014" lon="-6.257031038403511">
        <ele>378.89999999999998</ele>
        <time>2025-04-29T14:43:53Z</time>
      </trkpt>
      <trkpt lat="43.372775036841631" lon="-6.25711502507329">
        <ele>378.89999999999998</ele>
        <time>2025-04-29T14:43:54Z</time>
      </trkpt>
      <trkpt lat="43.372897999361157" lon="-6.257279980927706">
        <ele>378.42000000000002</ele>
        <time>2025-04-29T14:43:56Z</time>
      </trkpt>
      <trkpt lat="43.372901016846299" lon="-6.257347958162427">
        <ele>377.94</ele>
        <time>2025-04-29T14:43:57Z</time>
      </trkpt>
      <trkpt lat="43.372886013239622" lon="-6.257461030036211">
        <ele>376.97000000000003</ele>
        <time>2025-04-29T14:43:58Z</time>
      </trkpt>
      <trkpt lat="43.372867992147803" lon="-6.257597990334034">
        <ele>375.52999999999997</ele>
        <time>2025-04-29T14:43:59Z</time>
      </trkpt>
      <trkpt lat="43.372847037389874" lon="-6.257749032229185">
        <ele>374.56999999999999</ele>
        <time>2025-04-29T14:44:00Z</time>
      </trkpt>
      <trkpt lat="43.372727008536458" lon="-6.25823300331831">
        <ele>371.69</ele>
        <time>2025-04-29T14:44:03Z</time>
      </trkpt>
      <trkpt lat="43.372595999389887" lon="-6.258689984679222">
        <ele>368.80000000000001</ele>
        <time>2025-04-29T14:44:06Z</time>
      </trkpt>
      <trkpt lat="43.372562974691391" lon="-6.258843960240483">
        <ele>367.83999999999997</ele>
        <time>2025-04-29T14:44:07Z</time>
      </trkpt>
      <trkpt lat="43.372463984414935" lon="-6.259300019592047">
        <ele>364.95999999999998</ele>
        <time>2025-04-29T14:44:10Z</time>
      </trkpt>
      <trkpt lat="43.372470019385219" lon="-6.259444020688534">
        <ele>363.51999999999998</ele>
        <time>2025-04-29T14:44:11Z</time>
      </trkpt>
      <trkpt lat="43.372485022991896" lon="-6.259589027613401">
        <ele>362.55000000000001</ele>
        <time>2025-04-29T14:44:12Z</time>
      </trkpt>
      <trkpt lat="43.372500026598573" lon="-6.259731017053127">
        <ele>361.58999999999997</ele>
        <time>2025-04-29T14:44:13Z</time>
      </trkpt>
      <trkpt lat="43.372514024376869" lon="-6.259863032028079">
        <ele>360.63</ele>
        <time>2025-04-29T14:44:14Z</time>
      </trkpt>
      <trkpt lat="43.372521987184882" lon="-6.259982977062464">
        <ele>359.67000000000002</ele>
        <time>2025-04-29T14:44:15Z</time>
      </trkpt>
      <trkpt lat="43.372521987184882" lon="-6.260090013965964">
        <ele>359.19</ele>
        <time>2025-04-29T14:44:16Z</time>
      </trkpt>
      <trkpt lat="43.372521987184882" lon="-6.260185986757278">
        <ele>358.70999999999998</ele>
        <time>2025-04-29T14:44:17Z</time>
      </trkpt>
      <trkpt lat="43.372521987184882" lon="-6.260328982025385">
        <ele>357.75</ele>
        <time>2025-04-29T14:44:20Z</time>
      </trkpt>
      <trkpt lat="43.372521987184882" lon="-6.260328982025385">
        <ele>356.79000000000002</ele>
        <time>2025-04-29T14:44:22Z</time>
      </trkpt>
      <trkpt lat="43.372521987184882" lon="-6.260448005050421">
        <ele>355.82999999999998</ele>
        <time>2025-04-29T14:44:34Z</time>
      </trkpt>
      <trkpt lat="43.372502038255334" lon="-6.261354004964232">
        <ele>355.82999999999998</ele>
        <time>2025-04-29T14:44:40Z</time>
      </trkpt>
      <trkpt lat="43.37247597053647" lon="-6.261567994952202">
        <ele>356.31</ele>
        <time>2025-04-29T14:44:41Z</time>
      </trkpt>
      <trkpt lat="43.372442023828626" lon="-6.261780979111791">
        <ele>357.26999999999998</ele>
        <time>2025-04-29T14:44:42Z</time>
      </trkpt>
      <trkpt lat="43.372419979423285" lon="-6.261993041262031">
        <ele>358.23000000000002</ele>
        <time>2025-04-29T14:44:43Z</time>
      </trkpt>
      <trkpt lat="43.372443029657006" lon="-6.262192027643323">
        <ele>359.19</ele>
        <time>2025-04-29T14:44:44Z</time>
      </trkpt>
      <trkpt lat="43.372467001900077" lon="-6.262395037338138">
        <ele>360.14999999999998</ele>
        <time>2025-04-29T14:44:45Z</time>
      </trkpt>
      <trkpt lat="43.372488040477037" lon="-6.262574996799231">
        <ele>361.58999999999997</ele>
        <time>2025-04-29T14:44:46Z</time>
      </trkpt>
      <trkpt lat="43.372468007728457" lon="-6.262738024815917">
        <ele>363.51999999999998</ele>
        <time>2025-04-29T14:44:47Z</time>
      </trkpt>
      <trkpt lat="43.372401958331466" lon="-6.262859981507063">
        <ele>365.44</ele>
        <time>2025-04-29T14:44:48Z</time>
      </trkpt>
      <trkpt lat="43.372031981125474" lon="-6.263441015034914">
        <ele>373.13</ele>
        <time>2025-04-29T14:44:52Z</time>
      </trkpt>
      <trkpt lat="43.371907006949186" lon="-6.263521984219551">
        <ele>375.05000000000001</ele>
        <time>2025-04-29T14:44:53Z</time>
      </trkpt>
      <trkpt lat="43.371712965890765" lon="-6.263647964224219">
        <ele>379.38</ele>
        <time>2025-04-29T14:44:55Z</time>
      </trkpt>
      <trkpt lat="43.371676001697779" lon="-6.263739997521043">
        <ele>381.77999999999997</ele>
        <time>2025-04-29T14:44:56Z</time>
      </trkpt>
      <trkpt lat="43.371668960899115" lon="-6.263793976977468">
        <ele>384.18000000000001</ele>
        <time>2025-04-29T14:44:57Z</time>
      </trkpt>
      <trkpt lat="43.371713971719146" lon="-6.263871006667614">
        <ele>386.58999999999997</ele>
        <time>2025-04-29T14:44:58Z</time>
      </trkpt>
      <trkpt lat="43.371792007237673" lon="-6.263923980295658">
        <ele>388.99000000000001</ele>
        <time>2025-04-29T14:44:59Z</time>
      </trkpt>
      <trkpt lat="43.371867025271058" lon="-6.263923980295658">
        <ele>391.38999999999999</ele>
        <time>2025-04-29T14:45:00Z</time>
      </trkpt>
      <trkpt lat="43.371960986405611" lon="-6.263923980295658">
        <ele>393.31999999999999</ele>
        <time>2025-04-29T14:45:01Z</time>
      </trkpt>
      <trkpt lat="43.372052013874054" lon="-6.263923980295658">
        <ele>395.72000000000003</ele>
        <time>2025-04-29T14:45:02Z</time>
      </trkpt>
      <trkpt lat="43.372129965573549" lon="-6.263923980295658">
        <ele>397.63999999999999</ele>
        <time>2025-04-29T14:45:03Z</time>
      </trkpt>
      <trkpt lat="43.372197020798922" lon="-6.264004027470946">
        <ele>399.07999999999998</ele>
        <time>2025-04-29T14:45:04Z</time>
      </trkpt>
      <trkpt lat="43.372224010527134" lon="-6.264092037454248">
        <ele>400.52999999999997</ele>
        <time>2025-04-29T14:45:05Z</time>
      </trkpt>
      <trkpt lat="43.372229961678386" lon="-6.264178035780788">
        <ele>401.97000000000003</ele>
        <time>2025-04-29T14:45:06Z</time>
      </trkpt>
      <trkpt lat="43.372235996648669" lon="-6.264263028278947">
        <ele>403.41000000000003</ele>
        <time>2025-04-29T14:45:07Z</time>
      </trkpt>
      <trkpt lat="43.372243037447333" lon="-6.26435799524188">
        <ele>404.37</ele>
        <time>2025-04-29T14:45:08Z</time>
      </trkpt>
      <trkpt lat="43.372249994426966" lon="-6.264465032145381">
        <ele>405.81</ele>
        <time>2025-04-29T14:45:09Z</time>
      </trkpt>
      <trkpt lat="43.37225703522563" lon="-6.26457299105823">
        <ele>407.25999999999999</ele>
        <time>2025-04-29T14:45:10Z</time>
      </trkpt>
      <trkpt lat="43.372263992205262" lon="-6.264674998819828">
        <ele>408.69999999999999</ele>
        <time>2025-04-29T14:45:11Z</time>
      </trkpt>
      <trkpt lat="43.372296011075377" lon="-6.264758985489607">
        <ele>410.13999999999999</ele>
        <time>2025-04-29T14:45:12Z</time>
      </trkpt>
      <trkpt lat="43.372327024117112" lon="-6.264842972159386">
        <ele>411.10000000000002</ele>
        <time>2025-04-29T14:45:13Z</time>
      </trkpt>
      <trkpt lat="43.37238603271544" lon="-6.264892006292939">
        <ele>412.54000000000002</ele>
        <time>2025-04-29T14:45:14Z</time>
      </trkpt>
      <trkpt lat="43.372450992465019" lon="-6.264929976314306">
        <ele>413.5</ele>
        <time>2025-04-29T14:45:15Z</time>
      </trkpt>
      <trkpt lat="43.372534979134798" lon="-6.264914972707629">
        <ele>414.47000000000003</ele>
        <time>2025-04-29T14:45:16Z</time>
      </trkpt>
      <trkpt lat="43.372635981068015" lon="-6.264898041263223">
        <ele>415.43000000000001</ele>
        <time>2025-04-29T14:45:17Z</time>
      </trkpt>
      <trkpt lat="43.372738994657993" lon="-6.264880020171404">
        <ele>416.38999999999999</ele>
        <time>2025-04-29T14:45:18Z</time>
      </trkpt>
      <trkpt lat="43.372833961620927" lon="-6.264863004907966">
        <ele>417.82999999999998</ele>
        <time>2025-04-29T14:45:19Z</time>
      </trkpt>
      <trkpt lat="43.372930018231273" lon="-6.264845989644527">
        <ele>418.79000000000002</ele>
        <time>2025-04-29T14:45:20Z</time>
      </trkpt>
      <trkpt lat="43.372994977980852" lon="-6.264896029606462">
        <ele>420.23000000000002</ele>
        <time>2025-04-29T14:45:21Z</time>
      </trkpt>
      <trkpt lat="43.373061027377844" lon="-6.265008011832833">
        <ele>421.19</ele>
        <time>2025-04-29T14:45:22Z</time>
      </trkpt>
      <trkpt lat="43.373111989349127" lon="-6.265118988230825">
        <ele>422.16000000000003</ele>
        <time>2025-04-29T14:45:23Z</time>
      </trkpt>
      <trkpt lat="43.373219026252627" lon="-6.265347981825471">
        <ele>424.07999999999998</ele>
        <time>2025-04-29T14:45:25Z</time>
      </trkpt>
      <trkpt lat="43.37326898239553" lon="-6.265458036214113">
        <ele>425.04000000000002</ele>
        <time>2025-04-29T14:45:26Z</time>
      </trkpt>
      <trkpt lat="43.373340982943773" lon="-6.26553799957037">
        <ele>426.48000000000002</ele>
        <time>2025-04-29T14:45:27Z</time>
      </trkpt>
      <trkpt lat="43.373424969613552" lon="-6.265586027875543">
        <ele>427.44</ele>
        <time>2025-04-29T14:45:28Z</time>
      </trkpt>
      <trkpt lat="43.373514991253614" lon="-6.265636989846826">
        <ele>428.39999999999998</ele>
        <time>2025-04-29T14:45:29Z</time>
      </trkpt>
      <trkpt lat="43.373598977923393" lon="-6.265684012323618">
        <ele>429.37</ele>
        <time>2025-04-29T14:45:30Z</time>
      </trkpt>
      <trkpt lat="43.373759994283319" lon="-6.265775039792061">
        <ele>430.81</ele>
        <time>2025-04-29T14:45:32Z</time>
      </trkpt>
      <trkpt lat="43.373787989839911" lon="-6.265790965408087">
        <ele>431.29000000000002</ele>
        <time>2025-04-29T14:45:33Z</time>
      </trkpt>
      <trkpt lat="43.373779021203518" lon="-6.265834970399737">
        <ele>431.76999999999998</ele>
        <time>2025-04-29T14:45:34Z</time>
      </trkpt>
      <trkpt lat="43.373768040910363" lon="-6.265892973169684">
        <ele>432.73000000000002</ele>
        <time>2025-04-29T14:45:35Z</time>
      </trkpt>
      <trkpt lat="43.373744990676641" lon="-6.266005039215088">
        <ele>433.69</ele>
        <time>2025-04-29T14:45:36Z</time>
      </trkpt>
      <trkpt lat="43.37363300845027" lon="-6.26620695926249">
        <ele>436.10000000000002</ele>
        <time>2025-04-29T14:45:39Z</time>
      </trkpt>
      <trkpt lat="43.373586991801858" lon="-6.26629002392292">
        <ele>437.06</ele>
        <time>2025-04-29T14:45:40Z</time>
      </trkpt>
      <trkpt lat="43.373552961274981" lon="-6.266350038349628">
        <ele>438.5</ele>
        <time>2025-04-29T14:45:41Z</time>
      </trkpt>
      <trkpt lat="43.373532006517053" lon="-6.266388008370996">
        <ele>439.45999999999998</ele>
        <time>2025-04-29T14:45:42Z</time>
      </trkpt>
      <trkpt lat="43.373529994860291" lon="-6.266391025856137">
        <ele>441.86000000000001</ele>
        <time>2025-04-29T14:45:44Z</time>
      </trkpt>
      <trkpt lat="43.37352798320353" lon="-6.266538966447115">
        <ele>444.26999999999998</ele>
        <time>2025-04-29T14:45:46Z</time>
      </trkpt>
      <trkpt lat="43.373649017885327" lon="-6.266550030559301">
        <ele>445.70999999999998</ele>
        <time>2025-04-29T14:45:47Z</time>
      </trkpt>
      <trkpt lat="43.373728981241584" lon="-6.266539972275496">
        <ele>447.14999999999998</ele>
        <time>2025-04-29T14:45:48Z</time>
      </trkpt>
      <trkpt lat="43.373808022588491" lon="-6.266528991982341">
        <ele>448.58999999999997</ele>
        <time>2025-04-29T14:45:49Z</time>
      </trkpt>
      <trkpt lat="43.373883962631226" lon="-6.266519017517567">
        <ele>449.55000000000001</ele>
        <time>2025-04-29T14:45:50Z</time>
      </trkpt>
      <trkpt lat="43.373965015634894" lon="-6.266508037224412">
        <ele>450.02999999999997</ele>
        <time>2025-04-29T14:45:51Z</time>
      </trkpt>
      <trkpt lat="43.374049002304673" lon="-6.266496973112226">
        <ele>450.51999999999998</ele>
        <time>2025-04-29T14:45:52Z</time>
      </trkpt>
      <trkpt lat="43.374515036121011" lon="-6.266435030847788">
        <ele>453.39999999999998</ele>
        <time>2025-04-29T14:45:57Z</time>
      </trkpt>
      <trkpt lat="43.374593993648887" lon="-6.266434025019407">
        <ele>453.88</ele>
        <time>2025-04-29T14:45:58Z</time>
      </trkpt>
      <trkpt lat="43.37468502111733" lon="-6.266519017517567">
        <ele>454.36000000000001</ele>
        <time>2025-04-29T14:45:59Z</time>
      </trkpt>
      <trkpt lat="43.374720979481936" lon="-6.266597975045443">
        <ele>454.83999999999997</ele>
        <time>2025-04-29T14:46:00Z</time>
      </trkpt>
      <trkpt lat="43.374722991138697" lon="-6.266750022768974">
        <ele>455.31999999999999</ele>
        <time>2025-04-29T14:46:01Z</time>
      </trkpt>
      <trkpt lat="43.374690972268581" lon="-6.266835015267134">
        <ele>455.80000000000001</ele>
        <time>2025-04-29T14:46:02Z</time>
      </trkpt>
      <trkpt lat="43.374659959226847" lon="-6.266915984451771">
        <ele>456.27999999999997</ele>
        <time>2025-04-29T14:46:03Z</time>
      </trkpt>
      <trkpt lat="43.374630035832524" lon="-6.266996031627059">
        <ele>456.75999999999999</ele>
        <time>2025-04-29T14:46:04Z</time>
      </trkpt>
      <trkpt lat="43.374598016962409" lon="-6.267081024125218">
        <ele>456.75999999999999</ele>
        <time>2025-04-29T14:46:05Z</time>
      </trkpt>
      <trkpt lat="43.374561974778771" lon="-6.267173979431391">
        <ele>457.24000000000001</ele>
        <time>2025-04-29T14:46:06Z</time>
      </trkpt>
      <trkpt lat="43.37451403029263" lon="-6.26729803159833">
        <ele>457.72000000000003</ele>
        <time>2025-04-29T14:46:07Z</time>
      </trkpt>
      <trkpt lat="43.37438796646893" lon="-6.267486037686467">
        <ele>458.20999999999998</ele>
        <time>2025-04-29T14:46:09Z</time>
      </trkpt>
      <trkpt lat="43.374294005334377" lon="-6.267572036013007">
        <ele>458.69</ele>
        <time>2025-04-29T14:46:10Z</time>
      </trkpt>
      <trkpt lat="43.374196020886302" lon="-6.267612017691135">
        <ele>459.64999999999998</ele>
        <time>2025-04-29T14:46:11Z</time>
      </trkpt>
      <trkpt lat="43.374096024781466" lon="-6.267654011026025">
        <ele>461.08999999999997</ele>
        <time>2025-04-29T14:46:12Z</time>
      </trkpt>
      <trkpt lat="43.373990999534726" lon="-6.267723999917507">
        <ele>462.05000000000001</ele>
        <time>2025-04-29T14:46:13Z</time>
      </trkpt>
      <trkpt lat="43.373885974287987" lon="-6.267796000465751">
        <ele>463.00999999999999</ele>
        <time>2025-04-29T14:46:14Z</time>
      </trkpt>
      <trkpt lat="43.373783966526389" lon="-6.267866995185614">
        <ele>463.97000000000003</ele>
        <time>2025-04-29T14:46:15Z</time>
      </trkpt>
      <trkpt lat="43.37367600761354" lon="-6.267942013218999">
        <ele>464.93000000000001</ele>
        <time>2025-04-29T14:46:16Z</time>
      </trkpt>
      <trkpt lat="43.372973017394543" lon="-6.268493961542845">
        <ele>469.74000000000001</ele>
        <time>2025-04-29T14:46:23Z</time>
      </trkpt>
      <trkpt lat="43.372900011017919" lon="-6.268606027588248">
        <ele>470.22000000000003</ele>
        <time>2025-04-29T14:46:24Z</time>
      </trkpt>
      <trkpt lat="43.372824992984533" lon="-6.268722033128142">
        <ele>471.18000000000001</ele>
        <time>2025-04-29T14:46:25Z</time>
      </trkpt>
      <trkpt lat="43.372563980519772" lon="-6.269050016999245">
        <ele>475.02999999999997</ele>
        <time>2025-04-29T14:46:28Z</time>
      </trkpt>
      <trkpt lat="43.372470019385219" lon="-6.269154036417604">
        <ele>476.47000000000003</ele>
        <time>2025-04-29T14:46:29Z</time>
      </trkpt>
      <trkpt lat="43.372373962774873" lon="-6.269260989502072">
        <ele>477.91000000000003</ele>
        <time>2025-04-29T14:46:30Z</time>
      </trkpt>
      <trkpt lat="43.372085960581899" lon="-6.269580004736781">
        <ele>481.75999999999999</ele>
        <time>2025-04-29T14:46:33Z</time>
      </trkpt>
      <trkpt lat="43.371978001669049" lon="-6.269699027761817">
        <ele>483.19999999999999</ele>
        <time>2025-04-29T14:46:34Z</time>
      </trkpt>
      <trkpt lat="43.37180801667273" lon="-6.27000798471272">
        <ele>485.60000000000002</ele>
        <time>2025-04-29T14:46:36Z</time>
      </trkpt>
      <trkpt lat="43.371738027781248" lon="-6.270161960273981">
        <ele>487.05000000000001</ele>
        <time>2025-04-29T14:46:37Z</time>
      </trkpt>
      <trkpt lat="43.371688993647695" lon="-6.270317025482655">
        <ele>488.00999999999999</ele>
        <time>2025-04-29T14:46:38Z</time>
      </trkpt>
      <trkpt lat="43.371641971170902" lon="-6.270467983558774">
        <ele>489.44999999999999</ele>
        <time>2025-04-29T14:46:39Z</time>
      </trkpt>
      <trkpt lat="43.371600983664393" lon="-6.270635034888983">
        <ele>490.41000000000003</ele>
        <time>2025-04-29T14:46:40Z</time>
      </trkpt>
      <trkpt lat="43.371524959802628" lon="-6.270987996831536">
        <ele>492.81</ele>
        <time>2025-04-29T14:46:42Z</time>
      </trkpt>
      <trkpt lat="43.371492018923163" lon="-6.271153958514333">
        <ele>493.76999999999998</ele>
        <time>2025-04-29T14:46:43Z</time>
      </trkpt>
      <trkpt lat="43.371320022270083" lon="-6.272120978683233">
        <ele>500.98000000000002</ele>
        <time>2025-04-29T14:46:49Z</time>
      </trkpt>
      <trkpt lat="43.37133402004838" lon="-6.272323988378048">
        <ele>501.94999999999999</ele>
        <time>2025-04-29T14:46:50Z</time>
      </trkpt>
      <trkpt lat="43.371346006169915" lon="-6.27249900251627">
        <ele>502.91000000000003</ele>
        <time>2025-04-29T14:46:51Z</time>
      </trkpt>
      <trkpt lat="43.371357992291451" lon="-6.272668987512589">
        <ele>503.87</ele>
        <time>2025-04-29T14:46:52Z</time>
      </trkpt>
      <trkpt lat="43.371393028646708" lon="-6.272833021357656">
        <ele>504.82999999999998</ele>
        <time>2025-04-29T14:46:53Z</time>
      </trkpt>
      <trkpt lat="43.371448013931513" lon="-6.27299596555531">
        <ele>506.26999999999998</ele>
        <time>2025-04-29T14:46:54Z</time>
      </trkpt>
      <trkpt lat="43.371520014479756" lon="-6.273150024935603">
        <ele>507.23000000000002</ele>
        <time>2025-04-29T14:46:55Z</time>
      </trkpt>
      <trkpt lat="43.371597966179252" lon="-6.273283967748284">
        <ele>508.19</ele>
        <time>2025-04-29T14:46:56Z</time>
      </trkpt>
      <trkpt lat="43.371674995869398" lon="-6.273414976894856">
        <ele>509.63999999999999</ele>
        <time>2025-04-29T14:46:57Z</time>
      </trkpt>
      <trkpt lat="43.37180701084435" lon="-6.273686969652772">
        <ele>512.51999999999998</ele>
        <time>2025-04-29T14:46:59Z</time>
      </trkpt>
      <trkpt lat="43.371945982798934" lon="-6.274105980992317">
        <ele>517.33000000000004</ele>
        <time>2025-04-29T14:47:02Z</time>
      </trkpt>
      <trkpt lat="43.371952017769217" lon="-6.274205977097154">
        <ele>518.76999999999998</ele>
        <time>2025-04-29T14:47:03Z</time>
      </trkpt>
      <trkpt lat="43.371924022212625" lon="-6.274317959323525">
        <ele>520.21000000000004</ele>
        <time>2025-04-29T14:47:04Z</time>
      </trkpt>
      <trkpt lat="43.371868031099439" lon="-6.274360958486795">
        <ele>521.64999999999998</ele>
        <time>2025-04-29T14:47:05Z</time>
      </trkpt>
      <trkpt lat="43.371795024722815" lon="-6.274403035640717">
        <ele>523.58000000000004</ele>
        <time>2025-04-29T14:47:06Z</time>
      </trkpt>
      <trkpt lat="43.371706008911133" lon="-6.274515017867088">
        <ele>525.01999999999998</ele>
        <time>2025-04-29T14:47:07Z</time>
      </trkpt>
      <trkpt lat="43.371687987819314" lon="-6.274577965959907">
        <ele>526.46000000000004</ele>
        <time>2025-04-29T14:47:08Z</time>
      </trkpt>
      <trkpt lat="43.371684970334172" lon="-6.274588024243712">
        <ele>528.86000000000001</ele>
        <time>2025-04-29T14:47:09Z</time>
      </trkpt>
      <trkpt lat="43.371713971719146" lon="-6.274695983156562">
        <ele>532.71000000000004</ele>
        <time>2025-04-29T14:47:19Z</time>
      </trkpt>
      <trkpt lat="43.371882028877735" lon="-6.275359997525811">
        <ele>544.72000000000003</ele>
        <time>2025-04-29T14:47:25Z</time>
      </trkpt>
      <trkpt lat="43.371944976970553" lon="-6.275681024417281">
        <ele>548.57000000000005</ele>
        <time>2025-04-29T14:47:27Z</time>
      </trkpt>
      <trkpt lat="43.372155027464032" lon="-6.276878966018558">
        <ele>561.07000000000005</ele>
        <time>2025-04-29T14:47:33Z</time>
      </trkpt>
      <trkpt lat="43.37217103689909" lon="-6.277070995420218">
        <ele>562.99000000000001</ele>
        <time>2025-04-29T14:47:34Z</time>
      </trkpt>
      <trkpt lat="43.372226022183895" lon="-6.277558989822865">
        <ele>571.15999999999997</ele>
        <time>2025-04-29T14:47:38Z</time>
      </trkpt>
      <trkpt lat="43.372263992205262" lon="-6.277588997036219">
        <ele>573.08000000000004</ele>
        <time>2025-04-29T14:47:39Z</time>
      </trkpt>
      <trkpt lat="43.372284024953842" lon="-6.277616992592812">
        <ele>574.52999999999997</ele>
        <time>2025-04-29T14:47:40Z</time>
      </trkpt>
      <trkpt lat="43.372307997196913" lon="-6.277652028948069">
        <ele>575.97000000000003</ele>
        <time>2025-04-29T14:47:41Z</time>
      </trkpt>
      <trkpt lat="43.372336998581886" lon="-6.277693016454577">
        <ele>577.40999999999997</ele>
        <time>2025-04-29T14:47:42Z</time>
      </trkpt>
      <trkpt lat="43.372572027146816" lon="-6.2779560405761">
        <ele>583.17999999999995</ele>
        <time>2025-04-29T14:47:46Z</time>
      </trkpt>
      <trkpt lat="43.372638998553157" lon="-6.278028041124344">
        <ele>585.10000000000002</ele>
        <time>2025-04-29T14:47:47Z</time>
      </trkpt>
      <trkpt lat="43.372693983837962" lon="-6.278085960075259">
        <ele>586.53999999999996</ele>
        <time>2025-04-29T14:47:48Z</time>
      </trkpt>
      <trkpt lat="43.372929012402892" lon="-6.278205988928676">
        <ele>594.71000000000004</ele>
        <time>2025-04-29T14:47:54Z</time>
      </trkpt>
      <trkpt lat="43.373001012951136" lon="-6.278243036940694">
        <ele>596.14999999999998</ele>
        <time>2025-04-29T14:47:55Z</time>
      </trkpt>
      <trkpt lat="43.373088017106056" lon="-6.278287963941693">
        <ele>597.60000000000002</ele>
        <time>2025-04-29T14:47:56Z</time>
      </trkpt>
      <trkpt lat="43.373583974316716" lon="-6.278546964749694">
        <ele>602.88</ele>
        <time>2025-04-29T14:48:01Z</time>
      </trkpt>
      <trkpt lat="43.373670978471637" lon="-6.278633968904614">
        <ele>603.85000000000002</ele>
        <time>2025-04-29T14:48:02Z</time>
      </trkpt>
      <trkpt lat="43.373759994283319" lon="-6.278722984716296">
        <ele>604.80999999999995</ele>
        <time>2025-04-29T14:48:03Z</time>
      </trkpt>
      <trkpt lat="43.373855967074633" lon="-6.278832033276558">
        <ele>605.28999999999996</ele>
        <time>2025-04-29T14:48:04Z</time>
      </trkpt>
      <trkpt lat="43.373885974287987" lon="-6.278976034373045">
        <ele>606.25</ele>
        <time>2025-04-29T14:48:05Z</time>
      </trkpt>
      <trkpt lat="43.373916987329721" lon="-6.279122969135642">
        <ele>606.73000000000002</ele>
        <time>2025-04-29T14:48:06Z</time>
      </trkpt>
      <trkpt lat="43.373951017856598" lon="-6.279278034344316">
        <ele>607.69000000000005</ele>
        <time>2025-04-29T14:48:07Z</time>
      </trkpt>
      <trkpt lat="43.374027041718364" lon="-6.279571987688541">
        <ele>609.61000000000001</ele>
        <time>2025-04-29T14:48:09Z</time>
      </trkpt>
      <trkpt lat="43.374087978154421" lon="-6.2796950340271">
        <ele>610.57000000000005</ele>
        <time>2025-04-29T14:48:10Z</time>
      </trkpt>
      <trkpt lat="43.3741719648242" lon="-6.27978497184813">
        <ele>611.53999999999996</ele>
        <time>2025-04-29T14:48:11Z</time>
      </trkpt>
      <trkpt lat="43.374250000342727" lon="-6.27986996434629">
        <ele>612.5</ele>
        <time>2025-04-29T14:48:12Z</time>
      </trkpt>
      <trkpt lat="43.374315965920687" lon="-6.279940959066153">
        <ele>612.98000000000002</ele>
        <time>2025-04-29T14:48:13Z</time>
      </trkpt>
      <trkpt lat="43.374374974519014" lon="-6.280111027881503">
        <ele>614.41999999999996</ele>
        <time>2025-04-29T14:48:15Z</time>
      </trkpt>
      <trkpt lat="43.374392995610833" lon="-6.280194008722901">
        <ele>614.89999999999998</ele>
        <time>2025-04-29T14:48:16Z</time>
      </trkpt>
      <trkpt lat="43.374411016702652" lon="-6.280283024534583">
        <ele>615.38</ele>
        <time>2025-04-29T14:48:17Z</time>
      </trkpt>
      <trkpt lat="43.374429037794471" lon="-6.280410010367632">
        <ele>615.38</ele>
        <time>2025-04-29T14:48:18Z</time>
      </trkpt>
      <trkpt lat="43.3744499925524" lon="-6.280561974272132">
        <ele>615.38</ele>
        <time>2025-04-29T14:48:19Z</time>
      </trkpt>
      <trkpt lat="43.374472036957741" lon="-6.280721984803677">
        <ele>614.89999999999998</ele>
        <time>2025-04-29T14:48:20Z</time>
      </trkpt>
      <trkpt lat="43.37449399754405" lon="-6.280885012820363">
        <ele>614.41999999999996</ele>
        <time>2025-04-29T14:48:21Z</time>
      </trkpt>
      <trkpt lat="43.37447103112936" lon="-6.281041000038385">
        <ele>613.94000000000005</ele>
        <time>2025-04-29T14:48:22Z</time>
      </trkpt>
      <trkpt lat="43.374443035572767" lon="-6.281195981428027">
        <ele>613.46000000000004</ele>
        <time>2025-04-29T14:48:23Z</time>
      </trkpt>
      <trkpt lat="43.374377992004156" lon="-6.281332019716501">
        <ele>612.98000000000002</ele>
        <time>2025-04-29T14:48:24Z</time>
      </trkpt>
      <trkpt lat="43.374294005334377" lon="-6.281446013599634">
        <ele>612.98000000000002</ele>
        <time>2025-04-29T14:48:25Z</time>
      </trkpt>
      <trkpt lat="43.37421303614974" lon="-6.281553972512484">
        <ele>612.98000000000002</ele>
        <time>2025-04-29T14:48:26Z</time>
      </trkpt>
      <trkpt lat="43.374153021723032" lon="-6.281684981659055">
        <ele>612.98000000000002</ele>
        <time>2025-04-29T14:48:27Z</time>
      </trkpt>
      <trkpt lat="43.374121002852917" lon="-6.281806016340852">
        <ele>613.46000000000004</ele>
        <time>2025-04-29T14:48:28Z</time>
      </trkpt>
      <trkpt lat="43.374088983982801" lon="-6.281925039365888">
        <ele>613.46000000000004</ele>
        <time>2025-04-29T14:48:29Z</time>
      </trkpt>
      <trkpt lat="43.374098958447576" lon="-6.282048001885414">
        <ele>613.46000000000004</ele>
        <time>2025-04-29T14:48:30Z</time>
      </trkpt>
      <trkpt lat="43.374110022559762" lon="-6.282161995768547">
        <ele>613.46000000000004</ele>
        <time>2025-04-29T14:48:31Z</time>
      </trkpt>
      <trkpt lat="43.374173976480961" lon="-6.282258974388242">
        <ele>613.46000000000004</ele>
        <time>2025-04-29T14:48:32Z</time>
      </trkpt>
      <trkpt lat="43.374240025877953" lon="-6.282357964664698">
        <ele>613.46000000000004</ele>
        <time>2025-04-29T14:48:33Z</time>
      </trkpt>
      <trkpt lat="43.374441023916006" lon="-6.282687038183212">
        <ele>614.89999999999998</ele>
        <time>2025-04-29T14:48:36Z</time>
      </trkpt>
      <trkpt lat="43.374843019992113" lon="-6.283613992854953">
        <ele>621.14999999999998</ele>
        <time>2025-04-29T14:48:43Z</time>
      </trkpt>
      <trkpt lat="43.374930024147034" lon="-6.283737039193511">
        <ele>621.63</ele>
        <time>2025-04-29T14:48:44Z</time>
      </trkpt>
      <trkpt lat="43.375382982194424" lon="-6.284372974187136">
        <ele>626.44000000000005</ele>
        <time>2025-04-29T14:48:49Z</time>
      </trkpt>
      <trkpt lat="43.375462023541331" lon="-6.284485040232539">
        <ele>627.39999999999998</ele>
        <time>2025-04-29T14:48:50Z</time>
      </trkpt>
      <trkpt lat="43.375539975240827" lon="-6.284594004973769">
        <ele>628.84000000000003</ele>
        <time>2025-04-29T14:48:51Z</time>
      </trkpt>
      <trkpt lat="43.37561197578907" lon="-6.284695006906986">
        <ele>629.79999999999995</ele>
        <time>2025-04-29T14:48:52Z</time>
      </trkpt>
      <trkpt lat="43.37567500770092" lon="-6.284872032701969">
        <ele>630.75999999999999</ele>
        <time>2025-04-29T14:48:53Z</time>
      </trkpt>
      <trkpt lat="43.375725969672203" lon="-6.285020979121327">
        <ele>631.72000000000003</ele>
        <time>2025-04-29T14:48:54Z</time>
      </trkpt>
      <trkpt lat="43.375768968835473" lon="-6.285179983824492">
        <ele>632.67999999999995</ele>
        <time>2025-04-29T14:48:55Z</time>
      </trkpt>
      <trkpt lat="43.375856978818774" lon="-6.285508973523974">
        <ele>633.64999999999998</ele>
        <time>2025-04-29T14:48:57Z</time>
      </trkpt>
      <trkpt lat="43.375971978530288" lon="-6.286237025633454">
        <ele>633.64999999999998</ele>
        <time>2025-04-29T14:49:01Z</time>
      </trkpt>
      <trkpt lat="43.37599796243012" lon="-6.28642201423645">
        <ele>633.64999999999998</ele>
        <time>2025-04-29T14:49:02Z</time>
      </trkpt>
      <trkpt lat="43.375969966873527" lon="-6.288288999348879">
        <ele>636.52999999999997</ele>
        <time>2025-04-29T14:49:11Z</time>
      </trkpt>
      <trkpt lat="43.375861002132297" lon="-6.289480989798904">
        <ele>640.86000000000001</ele>
        <time>2025-04-29T14:49:17Z</time>
      </trkpt>
      <trkpt lat="43.375873994082212" lon="-6.289862031117082">
        <ele>641.82000000000005</ele>
        <time>2025-04-29T14:49:19Z</time>
      </trkpt>
      <trkpt lat="43.375991005450487" lon="-6.290581030771136">
        <ele>643.74000000000001</ele>
        <time>2025-04-29T14:49:23Z</time>
      </trkpt>
      <trkpt lat="43.376358970999718" lon="-6.292345002293587">
        <ele>652.87</ele>
        <time>2025-04-29T14:49:32Z</time>
      </trkpt>
      <trkpt lat="43.376482017338276" lon="-6.293093003332615">
        <ele>656.24000000000001</ele>
        <time>2025-04-29T14:49:36Z</time>
      </trkpt>
      <trkpt lat="43.376468019559979" lon="-6.293244967237115">
        <ele>657.20000000000005</ele>
        <time>2025-04-29T14:49:37Z</time>
      </trkpt>
      <trkpt lat="43.376430971547961" lon="-6.293389974161983">
        <ele>658.15999999999997</ele>
        <time>2025-04-29T14:49:38Z</time>
      </trkpt>
      <trkpt lat="43.376377997919917" lon="-6.293529029935598">
        <ele>658.63999999999999</ele>
        <time>2025-04-29T14:49:39Z</time>
      </trkpt>
      <trkpt lat="43.376315971836448" lon="-6.29368401132524">
        <ele>659.12</ele>
        <time>2025-04-29T14:49:40Z</time>
      </trkpt>
      <trkpt lat="43.376251012086868" lon="-6.293846033513546">
        <ele>659.60000000000002</ele>
        <time>2025-04-29T14:49:41Z</time>
      </trkpt>
      <trkpt lat="43.376031992956996" lon="-6.294294968247414">
        <ele>660.55999999999995</ele>
        <time>2025-04-29T14:49:44Z</time>
      </trkpt>
      <trkpt lat="43.37593199685216" lon="-6.294438969343901">
        <ele>660.55999999999995</ele>
        <time>2025-04-29T14:49:45Z</time>
      </trkpt>
      <trkpt lat="43.375004958361387" lon="-6.295795999467373">
        <ele>661.03999999999996</ele>
        <time>2025-04-29T14:49:54Z</time>
      </trkpt>
      <trkpt lat="43.374185962602496" lon="-6.297096032649279">
        <ele>656.72000000000003</ele>
        <time>2025-04-29T14:50:02Z</time>
      </trkpt>
      <trkpt lat="43.373658992350101" lon="-6.298406040295959">
        <ele>647.10000000000002</ele>
        <time>2025-04-29T14:50:10Z</time>
      </trkpt>
      <trkpt lat="43.373514991253614" lon="-6.299964990466833">
        <ele>637.49000000000001</ele>
        <time>2025-04-29T14:50:17Z</time>
      </trkpt>
      <trkpt lat="43.373662009835243" lon="-6.302089970558882">
        <ele>627.39999999999998</ele>
        <time>2025-04-29T14:50:27Z</time>
      </trkpt>
      <trkpt lat="43.373867031186819" lon="-6.303679011762142">
        <ele>625.47000000000003</ele>
        <time>2025-04-29T14:50:35Z</time>
      </trkpt>
      <trkpt lat="43.373980019241571" lon="-6.304717026650906">
        <ele>622.59000000000003</ele>
        <time>2025-04-29T14:50:40Z</time>
      </trkpt>
      <trkpt lat="43.37397700175643" lon="-6.304917018860579">
        <ele>621.63</ele>
        <time>2025-04-29T14:50:41Z</time>
      </trkpt>
      <trkpt lat="43.373959986492991" lon="-6.306077996268868">
        <ele>613.46000000000004</ele>
        <time>2025-04-29T14:50:47Z</time>
      </trkpt>
      <trkpt lat="43.374018995091319" lon="-6.306272959336639">
        <ele>612.01999999999998</ele>
        <time>2025-04-29T14:50:48Z</time>
      </trkpt>
      <trkpt lat="43.374074986204505" lon="-6.306445961818099">
        <ele>610.09000000000003</ele>
        <time>2025-04-29T14:50:49Z</time>
      </trkpt>
      <trkpt lat="43.374153021723032" lon="-6.306689037010074">
        <ele>607.21000000000004</ele>
        <time>2025-04-29T14:50:51Z</time>
      </trkpt>
      <trkpt lat="43.374110022559762" lon="-6.306843012571335">
        <ele>605.76999999999998</ele>
        <time>2025-04-29T14:50:52Z</time>
      </trkpt>
      <trkpt lat="43.374076997861266" lon="-6.306963041424751">
        <ele>605.28999999999996</ele>
        <time>2025-04-29T14:50:53Z</time>
      </trkpt>
      <trkpt lat="43.374044978991151" lon="-6.307075023651123">
        <ele>604.33000000000004</ele>
        <time>2025-04-29T14:50:54Z</time>
      </trkpt>
      <trkpt lat="43.374053025618196" lon="-6.307259006425738">
        <ele>603.85000000000002</ele>
        <time>2025-04-29T14:50:55Z</time>
      </trkpt>
      <trkpt lat="43.374058976769447" lon="-6.307412981987">
        <ele>603.36000000000001</ele>
        <time>2025-04-29T14:50:56Z</time>
      </trkpt>
      <trkpt lat="43.374066017568111" lon="-6.307578021660447">
        <ele>602.88</ele>
        <time>2025-04-29T14:50:57Z</time>
      </trkpt>
      <trkpt lat="43.374111028388143" lon="-6.307751024141908">
        <ele>602.39999999999998</ele>
        <time>2025-04-29T14:50:58Z</time>
      </trkpt>
      <trkpt lat="43.374156039208174" lon="-6.307916985824704">
        <ele>602.39999999999998</ele>
        <time>2025-04-29T14:50:59Z</time>
      </trkpt>
      <trkpt lat="43.374209012836218" lon="-6.308243041858077">
        <ele>602.39999999999998</ele>
        <time>2025-04-29T14:51:01Z</time>
      </trkpt>
      <trkpt lat="43.374216975644231" lon="-6.308358041569591">
        <ele>602.88</ele>
        <time>2025-04-29T14:51:02Z</time>
      </trkpt>
      <trkpt lat="43.374270033091307" lon="-6.308378996327519">
        <ele>603.36000000000001</ele>
        <time>2025-04-29T14:51:03Z</time>
      </trkpt>
      <trkpt lat="43.374324012547731" lon="-6.308396011590958">
        <ele>603.36000000000001</ele>
        <time>2025-04-29T14:51:04Z</time>
      </trkpt>
      <trkpt lat="43.374389978125691" lon="-6.308416966348887">
        <ele>603.85000000000002</ele>
        <time>2025-04-29T14:51:05Z</time>
      </trkpt>
      <trkpt lat="43.374464996159077" lon="-6.308441022410989">
        <ele>604.33000000000004</ele>
        <time>2025-04-29T14:51:06Z</time>
      </trkpt>
      <trkpt lat="43.374544037505984" lon="-6.30846600048244">
        <ele>604.80999999999995</ele>
        <time>2025-04-29T14:51:07Z</time>
      </trkpt>
      <trkpt lat="43.374628024175763" lon="-6.308495001867414">
        <ele>604.80999999999995</ele>
        <time>2025-04-29T14:51:08Z</time>
      </trkpt>
      <trkpt lat="43.374689966440201" lon="-6.308564990758896">
        <ele>604.80999999999995</ele>
        <time>2025-04-29T14:51:09Z</time>
      </trkpt>
      <trkpt lat="43.374886019155383" lon="-6.30878996104002">
        <ele>605.76999999999998</ele>
        <time>2025-04-29T14:51:12Z</time>
      </trkpt>
      <trkpt lat="43.374972017481923" lon="-6.308845030143857">
        <ele>606.25</ele>
        <time>2025-04-29T14:51:13Z</time>
      </trkpt>
      <trkpt lat="43.375063966959715" lon="-6.308864979073405">
        <ele>606.73000000000002</ele>
        <time>2025-04-29T14:51:14Z</time>
      </trkpt>
      <trkpt lat="43.375162035226822" lon="-6.308857016265392">
        <ele>607.21000000000004</ele>
        <time>2025-04-29T14:51:15Z</time>
      </trkpt>
      <trkpt lat="43.375261025503278" lon="-6.308808987960219">
        <ele>607.69000000000005</ele>
        <time>2025-04-29T14:51:16Z</time>
      </trkpt>
      <trkpt lat="43.375368984416127" lon="-6.308758025988936">
        <ele>607.69000000000005</ele>
        <time>2025-04-29T14:51:17Z</time>
      </trkpt>
      <trkpt lat="43.375478032976389" lon="-6.308705974370241">
        <ele>608.16999999999996</ele>
        <time>2025-04-29T14:51:18Z</time>
      </trkpt>
      <trkpt lat="43.375595966354012" lon="-6.308648977428675">
        <ele>608.64999999999998</ele>
        <time>2025-04-29T14:51:19Z</time>
      </trkpt>
      <trkpt lat="43.375711971893907" lon="-6.308630034327507">
        <ele>609.13</ele>
        <time>2025-04-29T14:51:20Z</time>
      </trkpt>
      <trkpt lat="43.37582596577704" lon="-6.308635985478759">
        <ele>609.61000000000001</ele>
        <time>2025-04-29T14:51:21Z</time>
      </trkpt>
      <trkpt lat="43.375891009345651" lon="-6.308684013783932">
        <ele>610.09000000000003</ele>
        <time>2025-04-29T14:51:22Z</time>
      </trkpt>
      <trkpt lat="43.375900983810425" lon="-6.308850981295109">
        <ele>610.57000000000005</ele>
        <time>2025-04-29T14:51:23Z</time>
      </trkpt>
      <trkpt lat="43.37591003626585" lon="-6.308982996270061">
        <ele>611.05999999999995</ele>
        <time>2025-04-29T14:51:24Z</time>
      </trkpt>
      <trkpt lat="43.375919004902244" lon="-6.309133032336831">
        <ele>611.53999999999996</ele>
        <time>2025-04-29T14:51:25Z</time>
      </trkpt>
      <trkpt lat="43.375929985195398" lon="-6.309299999848008">
        <ele>612.01999999999998</ele>
        <time>2025-04-29T14:51:26Z</time>
      </trkpt>
      <trkpt lat="43.37601900100708" lon="-6.310268025845289">
        <ele>611.05999999999995</ele>
        <time>2025-04-29T14:51:31Z</time>
      </trkpt>
      <trkpt lat="43.376097958534956" lon="-6.310412026941776">
        <ele>611.05999999999995</ele>
        <time>2025-04-29T14:51:32Z</time>
      </trkpt>
      <trkpt lat="43.376171970739961" lon="-6.310561979189515">
        <ele>611.53999999999996</ele>
        <time>2025-04-29T14:51:33Z</time>
      </trkpt>
      <trkpt lat="43.376445975154638" lon="-6.311149969696999">
        <ele>614.89999999999998</ele>
        <time>2025-04-29T14:51:37Z</time>
      </trkpt>
      <trkpt lat="43.376656025648117" lon="-6.311597982421517">
        <ele>619.23000000000002</ele>
        <time>2025-04-29T14:51:40Z</time>
      </trkpt>
      <trkpt lat="43.376724002882838" lon="-6.311739971861243">
        <ele>620.66999999999996</ele>
        <time>2025-04-29T14:51:41Z</time>
      </trkpt>
      <trkpt lat="43.376830033957958" lon="-6.311857989057899">
        <ele>622.11000000000001</ele>
        <time>2025-04-29T14:51:42Z</time>
      </trkpt>
      <trkpt lat="43.376934975385666" lon="-6.311892019584775">
        <ele>623.07000000000005</ele>
        <time>2025-04-29T14:51:43Z</time>
      </trkpt>
      <trkpt lat="43.377042012289166" lon="-6.31192596629262">
        <ele>624.02999999999997</ele>
        <time>2025-04-29T14:51:44Z</time>
      </trkpt>
      <trkpt lat="43.377147037535906" lon="-6.311959996819496">
        <ele>624.50999999999999</ele>
        <time>2025-04-29T14:51:45Z</time>
      </trkpt>
      <trkpt lat="43.377250973135233" lon="-6.311993021517992">
        <ele>625.47000000000003</ele>
        <time>2025-04-29T14:51:46Z</time>
      </trkpt>
      <trkpt lat="43.37735197506845" lon="-6.312025962397456">
        <ele>625.96000000000004</ele>
        <time>2025-04-29T14:51:47Z</time>
      </trkpt>
      <trkpt lat="43.377431016415358" lon="-6.312111960723996">
        <ele>626.44000000000005</ele>
        <time>2025-04-29T14:51:48Z</time>
      </trkpt>
      <trkpt lat="43.377486001700163" lon="-6.312228972092271">
        <ele>627.39999999999998</ele>
        <time>2025-04-29T14:51:49Z</time>
      </trkpt>
      <trkpt lat="43.377540986984968" lon="-6.312350006774068">
        <ele>627.88</ele>
        <time>2025-04-29T14:51:50Z</time>
      </trkpt>
      <trkpt lat="43.377596978098154" lon="-6.312472969293594">
        <ele>628.36000000000001</ele>
        <time>2025-04-29T14:51:51Z</time>
      </trkpt>
      <trkpt lat="43.37765003554523" lon="-6.312589980661869">
        <ele>628.36000000000001</ele>
        <time>2025-04-29T14:51:52Z</time>
      </trkpt>
      <trkpt lat="43.377642994746566" lon="-6.312731970101595">
        <ele>628.84000000000003</ele>
        <time>2025-04-29T14:51:53Z</time>
      </trkpt>
      <trkpt lat="43.377636037766933" lon="-6.312884017825127">
        <ele>629.79999999999995</ele>
        <time>2025-04-29T14:51:54Z</time>
      </trkpt>
      <trkpt lat="43.377624973654747" lon="-6.313030030578375">
        <ele>630.75999999999999</ele>
        <time>2025-04-29T14:51:55Z</time>
      </trkpt>
      <trkpt lat="43.377577029168606" lon="-6.313169002532959">
        <ele>631.72000000000003</ele>
        <time>2025-04-29T14:51:56Z</time>
      </trkpt>
      <trkpt lat="43.377526989206672" lon="-6.313317026942968">
        <ele>633.16999999999996</ele>
        <time>2025-04-29T14:51:57Z</time>
      </trkpt>
      <trkpt lat="43.377010999247432" lon="-6.31486801430583">
        <ele>640.38</ele>
        <time>2025-04-29T14:52:05Z</time>
      </trkpt>
      <trkpt lat="43.376791980117559" lon="-6.316301990300417">
        <ele>645.17999999999995</ele>
        <time>2025-04-29T14:52:12Z</time>
      </trkpt>
      <trkpt lat="43.376715034246445" lon="-6.316511034965515">
        <ele>645.17999999999995</ele>
        <time>2025-04-29T14:52:13Z</time>
      </trkpt>
      <trkpt lat="43.376644039526582" lon="-6.316704992204905">
        <ele>645.17999999999995</ele>
        <time>2025-04-29T14:52:14Z</time>
      </trkpt>
      <trkpt lat="43.376494003459811" lon="-6.317116040736437">
        <ele>645.17999999999995</ele>
        <time>2025-04-29T14:52:16Z</time>
      </trkpt>
      <trkpt lat="43.376167025417089" lon="-6.318367961794138">
        <ele>644.70000000000005</ele>
        <time>2025-04-29T14:52:22Z</time>
      </trkpt>
      <trkpt lat="43.376159984618425" lon="-6.318576000630856">
        <ele>645.17999999999995</ele>
        <time>2025-04-29T14:52:23Z</time>
      </trkpt>
      <trkpt lat="43.376153027638793" lon="-6.318784039467573">
        <ele>645.17999999999995</ele>
        <time>2025-04-29T14:52:24Z</time>
      </trkpt>
      <trkpt lat="43.376154033467174" lon="-6.318988977000117">
        <ele>645.65999999999997</ele>
        <time>2025-04-29T14:52:25Z</time>
      </trkpt>
      <trkpt lat="43.3761699590832" lon="-6.319190980866551">
        <ele>646.13999999999999</ele>
        <time>2025-04-29T14:52:26Z</time>
      </trkpt>
      <trkpt lat="43.37619099766016" lon="-6.319795986637473">
        <ele>647.59000000000003</ele>
        <time>2025-04-29T14:52:29Z</time>
      </trkpt>
      <trkpt lat="43.37619099766016" lon="-6.320005031302571">
        <ele>648.54999999999995</ele>
        <time>2025-04-29T14:52:30Z</time>
      </trkpt>
      <trkpt lat="43.376181023195386" lon="-6.320210974663496">
        <ele>649.50999999999999</ele>
        <time>2025-04-29T14:52:31Z</time>
      </trkpt>
      <trkpt lat="43.376049008220434" lon="-6.321211019530892">
        <ele>653.35000000000002</ele>
        <time>2025-04-29T14:52:36Z</time>
      </trkpt>
      <trkpt lat="43.376063005998731" lon="-6.321404976770282">
        <ele>653.35000000000002</ele>
        <time>2025-04-29T14:52:37Z</time>
      </trkpt>
      <trkpt lat="43.376118997111917" lon="-6.322009982541204">
        <ele>654.79999999999995</ele>
        <time>2025-04-29T14:52:40Z</time>
      </trkpt>
      <trkpt lat="43.376175994053483" lon="-6.322188014164567">
        <ele>654.79999999999995</ele>
        <time>2025-04-29T14:52:41Z</time>
      </trkpt>
      <trkpt lat="43.376231985166669" lon="-6.322364034131169">
        <ele>655.27999999999997</ele>
        <time>2025-04-29T14:52:42Z</time>
      </trkpt>
      <trkpt lat="43.376327035948634" lon="-6.322515998035669">
        <ele>655.27999999999997</ele>
        <time>2025-04-29T14:52:43Z</time>
      </trkpt>
      <trkpt lat="43.376441029831767" lon="-6.322638038545847">
        <ele>655.27999999999997</ele>
        <time>2025-04-29T14:52:44Z</time>
      </trkpt>
      <trkpt lat="43.376561980694532" lon="-6.322768041864038">
        <ele>655.27999999999997</ele>
        <time>2025-04-29T14:52:45Z</time>
      </trkpt>
      <trkpt lat="43.376687960699201" lon="-6.32290399633348">
        <ele>655.27999999999997</ele>
        <time>2025-04-29T14:52:46Z</time>
      </trkpt>
      <trkpt lat="43.376919971778989" lon="-6.323191998526454">
        <ele>654.79999999999995</ele>
        <time>2025-04-29T14:52:48Z</time>
      </trkpt>
      <trkpt lat="43.377022985368967" lon="-6.323347985744476">
        <ele>654.30999999999995</ele>
        <time>2025-04-29T14:52:49Z</time>
      </trkpt>
      <trkpt lat="43.377119963988662" lon="-6.323497015982866">
        <ele>653.83000000000004</ele>
        <time>2025-04-29T14:52:50Z</time>
      </trkpt>
      <trkpt lat="43.377202022820711" lon="-6.323627019301057">
        <ele>653.83000000000004</ele>
        <time>2025-04-29T14:52:51Z</time>
      </trkpt>
      <trkpt lat="43.377240998670459" lon="-6.323798010125756">
        <ele>653.35000000000002</ele>
        <time>2025-04-29T14:52:52Z</time>
      </trkpt>
      <trkpt lat="43.377279974520206" lon="-6.323973024263978">
        <ele>653.35000000000002</ele>
        <time>2025-04-29T14:52:53Z</time>
      </trkpt>
      <trkpt lat="43.377320962026715" lon="-6.324152983725071">
        <ele>652.87</ele>
        <time>2025-04-29T14:52:54Z</time>
      </trkpt>
      <trkpt lat="43.377439985051751" lon="-6.324674002826214">
        <ele>651.42999999999995</ele>
        <time>2025-04-29T14:52:57Z</time>
      </trkpt>
      <trkpt lat="43.377482984215021" lon="-6.324848011136055">
        <ele>650.95000000000005</ele>
        <time>2025-04-29T14:52:58Z</time>
      </trkpt>
      <trkpt lat="43.377572000026703" lon="-6.324979020282626">
        <ele>649.99000000000001</ele>
        <time>2025-04-29T14:52:59Z</time>
      </trkpt>
      <trkpt lat="43.377670990303159" lon="-6.325124027207494">
        <ele>649.02999999999997</ele>
        <time>2025-04-29T14:53:00Z</time>
      </trkpt>
      <trkpt lat="43.377791019156575" lon="-6.325274985283613">
        <ele>648.54999999999995</ele>
        <time>2025-04-29T14:53:01Z</time>
      </trkpt>
      <trkpt lat="43.37793200276792" lon="-6.325385039672256">
        <ele>648.07000000000005</ele>
        <time>2025-04-29T14:53:02Z</time>
      </trkpt>
      <trkpt lat="43.378954008221626" lon="-6.326549034565687">
        <ele>651.90999999999997</ele>
        <time>2025-04-29T14:53:10Z</time>
      </trkpt>
      <trkpt lat="43.379065990447998" lon="-6.32668599486351">
        <ele>652.87</ele>
        <time>2025-04-29T14:53:11Z</time>
      </trkpt>
      <trkpt lat="43.379190964624286" lon="-6.326780961826444">
        <ele>653.83000000000004</ele>
        <time>2025-04-29T14:53:12Z</time>
      </trkpt>
      <trkpt lat="43.379323985427618" lon="-6.326881041750312">
        <ele>655.27999999999997</ele>
        <time>2025-04-29T14:53:13Z</time>
      </trkpt>
      <trkpt lat="43.379453988745809" lon="-6.326928986236453">
        <ele>656.24000000000001</ele>
        <time>2025-04-29T14:53:14Z</time>
      </trkpt>
      <trkpt lat="43.379595978185534" lon="-6.326981959864497">
        <ele>656.72000000000003</ele>
        <time>2025-04-29T14:53:15Z</time>
      </trkpt>
      <trkpt lat="43.379759006202221" lon="-6.327016996219754">
        <ele>657.67999999999995</ele>
        <time>2025-04-29T14:53:16Z</time>
      </trkpt>
      <trkpt lat="43.381100026890635" lon="-6.327010961249471">
        <ele>660.08000000000004</ele>
        <time>2025-04-29T14:53:24Z</time>
      </trkpt>
      <trkpt lat="43.382705999538302" lon="-6.326993023976684">
        <ele>659.60000000000002</ele>
        <time>2025-04-29T14:53:34Z</time>
      </trkpt>
      <trkpt lat="43.382863998413086" lon="-6.327055972069502">
        <ele>659.12</ele>
        <time>2025-04-29T14:53:35Z</time>
      </trkpt>
      <trkpt lat="43.383025014773011" lon="-6.327121015638113">
        <ele>659.12</ele>
        <time>2025-04-29T14:53:36Z</time>
      </trkpt>
      <trkpt lat="43.383183013647795" lon="-6.327183963730931">
        <ele>658.63999999999999</ele>
        <time>2025-04-29T14:53:37Z</time>
      </trkpt>
      <trkpt lat="43.383336989209056" lon="-6.32724498398602">
        <ele>658.63999999999999</ele>
        <time>2025-04-29T14:53:38Z</time>
      </trkpt>
      <trkpt lat="43.383469004184008" lon="-6.32737398147583">
        <ele>658.15999999999997</ele>
        <time>2025-04-29T14:53:39Z</time>
      </trkpt>
      <trkpt lat="43.383606970310211" lon="-6.327507002279162">
        <ele>657.67999999999995</ele>
        <time>2025-04-29T14:53:40Z</time>
      </trkpt>
      <trkpt lat="43.383745020255446" lon="-6.327640023082495">
        <ele>657.67999999999995</ele>
        <time>2025-04-29T14:53:41Z</time>
      </trkpt>
      <trkpt lat="43.384816981852055" lon="-6.328775016590953">
        <ele>658.63999999999999</ele>
        <time>2025-04-29T14:53:49Z</time>
      </trkpt>
      <trkpt lat="43.384927036240697" lon="-6.328943995758891">
        <ele>658.63999999999999</ele>
        <time>2025-04-29T14:53:50Z</time>
      </trkpt>
      <trkpt lat="43.385261977091432" lon="-6.329418998211622">
        <ele>658.63999999999999</ele>
        <time>2025-04-29T14:53:53Z</time>
      </trkpt>
      <trkpt lat="43.38538502342999" lon="-6.329523017629981">
        <ele>658.63999999999999</ele>
        <time>2025-04-29T14:53:54Z</time>
      </trkpt>
      <trkpt lat="43.38551502674818" lon="-6.329614967107773">
        <ele>658.63999999999999</ele>
        <time>2025-04-29T14:53:55Z</time>
      </trkpt>
      <trkpt lat="43.385658022016287" lon="-6.329657966271043">
        <ele>658.63999999999999</ele>
        <time>2025-04-29T14:53:56Z</time>
      </trkpt>
      <trkpt lat="43.385797999799252" lon="-6.32967003621161">
        <ele>658.63999999999999</ele>
        <time>2025-04-29T14:53:57Z</time>
      </trkpt>
      <trkpt lat="43.385939989238977" lon="-6.32967003621161">
        <ele>658.63999999999999</ele>
        <time>2025-04-29T14:53:58Z</time>
      </trkpt>
      <trkpt lat="43.386082984507084" lon="-6.32967003621161">
        <ele>658.63999999999999</ele>
        <time>2025-04-29T14:53:59Z</time>
      </trkpt>
      <trkpt lat="43.386197984218597" lon="-6.329616978764534">
        <ele>658.63999999999999</ele>
        <time>2025-04-29T14:54:00Z</time>
      </trkpt>
      <trkpt lat="43.386683966964483" lon="-6.329383039847016">
        <ele>658.63999999999999</ele>
        <time>2025-04-29T14:54:04Z</time>
      </trkpt>
      <trkpt lat="43.386807013303041" lon="-6.329297963529825">
        <ele>659.12</ele>
        <time>2025-04-29T14:54:05Z</time>
      </trkpt>
      <trkpt lat="43.387720976024866" lon="-6.328464969992638">
        <ele>661.03999999999996</ele>
        <time>2025-04-29T14:54:13Z</time>
      </trkpt>
      <trkpt lat="43.388360012322664" lon="-6.327686961740255">
        <ele>657.67999999999995</ele>
        <time>2025-04-29T14:54:19Z</time>
      </trkpt>
      <trkpt lat="43.388482974842191" lon="-6.327641028910875">
        <ele>657.20000000000005</ele>
        <time>2025-04-29T14:54:20Z</time>
      </trkpt>
      <trkpt lat="43.388601997867227" lon="-6.327596018090844">
        <ele>656.24000000000001</ele>
        <time>2025-04-29T14:54:21Z</time>
      </trkpt>
      <trkpt lat="43.388722026720643" lon="-6.327567016705871">
        <ele>655.75999999999999</ele>
        <time>2025-04-29T14:54:22Z</time>
      </trkpt>
      <trkpt lat="43.388838032260537" lon="-6.327567016705871">
        <ele>654.79999999999995</ele>
        <time>2025-04-29T14:54:23Z</time>
      </trkpt>
      <trkpt lat="43.388964012265205" lon="-6.32763197645545">
        <ele>653.83000000000004</ele>
        <time>2025-04-29T14:54:24Z</time>
      </trkpt>
      <trkpt lat="43.389056967571378" lon="-6.32771696895361">
        <ele>652.87</ele>
        <time>2025-04-29T14:54:25Z</time>
      </trkpt>
      <trkpt lat="43.389165010303259" lon="-6.327836997807026">
        <ele>651.90999999999997</ele>
        <time>2025-04-29T14:54:26Z</time>
      </trkpt>
      <trkpt lat="43.389219995588064" lon="-6.327971024438739">
        <ele>650.95000000000005</ele>
        <time>2025-04-29T14:54:27Z</time>
      </trkpt>
      <trkpt lat="43.389272969216108" lon="-6.328101027756929">
        <ele>649.99000000000001</ele>
        <time>2025-04-29T14:54:28Z</time>
      </trkpt>
      <trkpt lat="43.389380006119609" lon="-6.328364973887801">
        <ele>648.07000000000005</ele>
        <time>2025-04-29T14:54:30Z</time>
      </trkpt>
      <trkpt lat="43.389430968090892" lon="-6.328490031883121">
        <ele>647.10000000000002</ele>
        <time>2025-04-29T14:54:31Z</time>
      </trkpt>
      <trkpt lat="43.389661973342299" lon="-6.33018703199923">
        <ele>645.65999999999997</ele>
        <time>2025-04-29T14:54:42Z</time>
      </trkpt>
      <trkpt lat="43.389779990538955" lon="-6.330605037510395">
        <ele>645.17999999999995</ele>
        <time>2025-04-29T14:54:45Z</time>
      </trkpt>
      <trkpt lat="43.389850985258818" lon="-6.330723976716399">
        <ele>644.70000000000005</ele>
        <time>2025-04-29T14:54:46Z</time>
      </trkpt>
      <trkpt lat="43.389947963878512" lon="-6.330792959779501">
        <ele>644.22000000000003</ele>
        <time>2025-04-29T14:54:47Z</time>
      </trkpt>
      <trkpt lat="43.39004997164011" lon="-6.330865966156125">
        <ele>643.74000000000001</ele>
        <time>2025-04-29T14:54:48Z</time>
      </trkpt>
      <trkpt lat="43.390150973573327" lon="-6.330928998067975">
        <ele>643.25999999999999</ele>
        <time>2025-04-29T14:54:49Z</time>
      </trkpt>
      <trkpt lat="43.390257004648447" lon="-6.330975014716387">
        <ele>642.77999999999997</ele>
        <time>2025-04-29T14:54:50Z</time>
      </trkpt>
      <trkpt lat="43.390361024066806" lon="-6.331019019708037">
        <ele>642.29999999999995</ele>
        <time>2025-04-29T14:54:51Z</time>
      </trkpt>
      <trkpt lat="43.390553975477815" lon="-6.331102000549436">
        <ele>641.82000000000005</ele>
        <time>2025-04-29T14:54:53Z</time>
      </trkpt>
      <trkpt lat="43.390617007389665" lon="-6.331230998039246">
        <ele>641.34000000000003</ele>
        <time>2025-04-29T14:54:54Z</time>
      </trkpt>
      <trkpt lat="43.390664029866457" lon="-6.331349015235901">
        <ele>640.38</ele>
        <time>2025-04-29T14:54:55Z</time>
      </trkpt>
      <trkpt lat="43.390712980180979" lon="-6.331471977755427">
        <ele>640.38</ele>
        <time>2025-04-29T14:54:56Z</time>
      </trkpt>
      <trkpt lat="43.390763020142913" lon="-6.331596029922366">
        <ele>639.88999999999999</ele>
        <time>2025-04-29T14:54:57Z</time>
      </trkpt>
      <trkpt lat="43.39142401702702" lon="-6.332844011485577">
        <ele>642.77999999999997</ele>
        <time>2025-04-29T14:55:07Z</time>
      </trkpt>
      <trkpt lat="43.391851997002959" lon="-6.333456980064511">
        <ele>643.74000000000001</ele>
        <time>2025-04-29T14:55:12Z</time>
      </trkpt>
      <trkpt lat="43.391963979229331" lon="-6.333544990047813">
        <ele>644.22000000000003</ele>
        <time>2025-04-29T14:55:13Z</time>
      </trkpt>
      <trkpt lat="43.39208903722465" lon="-6.333640962839127">
        <ele>644.22000000000003</ele>
        <time>2025-04-29T14:55:14Z</time>
      </trkpt>
      <trkpt lat="43.392199007794261" lon="-6.333726039156318">
        <ele>644.22000000000003</ele>
        <time>2025-04-29T14:55:15Z</time>
      </trkpt>
      <trkpt lat="43.392328005284071" lon="-6.333822011947632">
        <ele>644.22000000000003</ele>
        <time>2025-04-29T14:55:16Z</time>
      </trkpt>
      <trkpt lat="43.392434036359191" lon="-6.333901975303888">
        <ele>644.70000000000005</ele>
        <time>2025-04-29T14:55:17Z</time>
      </trkpt>
      <trkpt lat="43.392548030242324" lon="-6.333997026085854">
        <ele>644.70000000000005</ele>
        <time>2025-04-29T14:55:18Z</time>
      </trkpt>
      <trkpt lat="43.39260502718389" lon="-6.334128035232425">
        <ele>644.70000000000005</ele>
        <time>2025-04-29T14:55:19Z</time>
      </trkpt>
      <trkpt lat="43.392661018297076" lon="-6.334253009408712">
        <ele>645.17999999999995</ele>
        <time>2025-04-29T14:55:20Z</time>
      </trkpt>
      <trkpt lat="43.392714997753501" lon="-6.33437697775662">
        <ele>645.17999999999995</ele>
        <time>2025-04-29T14:55:21Z</time>
      </trkpt>
      <trkpt lat="43.392778029665351" lon="-6.334518967196345">
        <ele>645.65999999999997</ele>
        <time>2025-04-29T14:55:22Z</time>
      </trkpt>
      <trkpt lat="43.392793033272028" lon="-6.334653999656439">
        <ele>646.13999999999999</ele>
        <time>2025-04-29T14:55:23Z</time>
      </trkpt>
      <trkpt lat="43.392809964716434" lon="-6.3348079752177">
        <ele>646.62</ele>
        <time>2025-04-29T14:55:24Z</time>
      </trkpt>
      <trkpt lat="43.392897974699736" lon="-6.335858982056379">
        <ele>649.50999999999999</ele>
        <time>2025-04-29T14:55:31Z</time>
      </trkpt>
      <trkpt lat="43.392981039360166" lon="-6.337016019970179">
        <ele>652.87</ele>
        <time>2025-04-29T14:55:39Z</time>
      </trkpt>
      <trkpt lat="43.393154041841626" lon="-6.337779024615884">
        <ele>654.79999999999995</ele>
        <time>2025-04-29T14:55:45Z</time>
      </trkpt>
      <trkpt lat="43.39320600964129" lon="-6.337899975478649">
        <ele>655.27999999999997</ele>
        <time>2025-04-29T14:55:46Z</time>
      </trkpt>
      <trkpt lat="43.393257977440953" lon="-6.338022015988827">
        <ele>655.75999999999999</ele>
        <time>2025-04-29T14:55:47Z</time>
      </trkpt>
      <trkpt lat="43.393323021009564" lon="-6.338127963244915">
        <ele>656.24000000000001</ele>
        <time>2025-04-29T14:55:48Z</time>
      </trkpt>
      <trkpt lat="43.39340197853744" lon="-6.338194012641907">
        <ele>656.72000000000003</ele>
        <time>2025-04-29T14:55:49Z</time>
      </trkpt>
      <trkpt lat="43.393469033762813" lon="-6.33824204094708">
        <ele>657.20000000000005</ele>
        <time>2025-04-29T14:55:50Z</time>
      </trkpt>
      <trkpt lat="43.393516978248954" lon="-6.338273975998163">
        <ele>657.67999999999995</ele>
        <time>2025-04-29T14:55:51Z</time>
      </trkpt>
      <trkpt lat="43.393544973805547" lon="-6.338291997089982">
        <ele>657.67999999999995</ele>
        <time>2025-04-29T14:55:52Z</time>
      </trkpt>
      <trkpt lat="43.393614962697029" lon="-6.338339019566774">
        <ele>658.63999999999999</ele>
        <time>2025-04-29T14:56:01Z</time>
      </trkpt>
      <trkpt lat="43.393614962697029" lon="-6.338339019566774">
        <ele>658.63999999999999</ele>
        <time>2025-04-29T14:56:02Z</time>
      </trkpt>
      <trkpt lat="43.393781008198857" lon="-6.338365003466606">
        <ele>659.12</ele>
        <time>2025-04-29T14:56:06Z</time>
      </trkpt>
      <trkpt lat="43.393853008747101" lon="-6.338213961571455">
        <ele>659.12</ele>
        <time>2025-04-29T14:56:08Z</time>
      </trkpt>
      <trkpt lat="43.393901037052274" lon="-6.338104996830225">
        <ele>659.60000000000002</ele>
        <time>2025-04-29T14:56:09Z</time>
      </trkpt>
      <trkpt lat="43.394123995676637" lon="-6.337676011025906">
        <ele>659.60000000000002</ele>
        <time>2025-04-29T14:56:13Z</time>
      </trkpt>
      <trkpt lat="43.394187027588487" lon="-6.337570985779166">
        <ele>659.60000000000002</ele>
        <time>2025-04-29T14:56:14Z</time>
      </trkpt>
      <trkpt lat="43.39426196180284" lon="-6.337508037686348">
        <ele>659.60000000000002</ele>
        <time>2025-04-29T14:56:15Z</time>
      </trkpt>
      <trkpt lat="43.394355000928044" lon="-6.337477024644613">
        <ele>659.60000000000002</ele>
        <time>2025-04-29T14:56:16Z</time>
      </trkpt>
      <trkpt lat="43.394450973719358" lon="-6.337445005774498">
        <ele>659.60000000000002</ele>
        <time>2025-04-29T14:56:17Z</time>
      </trkpt>
      <trkpt lat="43.394548958167434" lon="-6.337411981076002">
        <ele>659.60000000000002</ele>
        <time>2025-04-29T14:56:18Z</time>
      </trkpt>
      <trkpt lat="43.394643003121018" lon="-6.33736495859921">
        <ele>659.12</ele>
        <time>2025-04-29T14:56:19Z</time>
      </trkpt>
      <trkpt lat="43.394724978134036" lon="-6.337306033819914">
        <ele>659.12</ele>
        <time>2025-04-29T14:56:20Z</time>
      </trkpt>
      <trkpt lat="43.394801001995802" lon="-6.337250964716077">
        <ele>659.12</ele>
        <time>2025-04-29T14:56:21Z</time>
      </trkpt>
      <trkpt lat="43.394865039736032" lon="-6.337205031886697">
        <ele>659.12</ele>
        <time>2025-04-29T14:56:22Z</time>
      </trkpt>
      <trkpt lat="43.394911978393793" lon="-6.33717100135982">
        <ele>659.12</ele>
        <time>2025-04-29T14:56:23Z</time>
      </trkpt>
      <trkpt lat="43.394988002255559" lon="-6.337116016075015">
        <ele>660.08000000000004</ele>
        <time>2025-04-29T14:56:26Z</time>
      </trkpt>
      <trkpt lat="43.395020021125674" lon="-6.337161026895046">
        <ele>660.08000000000004</ele>
        <time>2025-04-29T14:56:27Z</time>
      </trkpt>
      <trkpt lat="43.395074000582099" lon="-6.337238978594542">
        <ele>660.08000000000004</ele>
        <time>2025-04-29T14:56:28Z</time>
      </trkpt>
      <trkpt lat="43.39514097198844" lon="-6.337336041033268">
        <ele>659.60000000000002</ele>
        <time>2025-04-29T14:56:29Z</time>
      </trkpt>
      <trkpt lat="43.395212972536683" lon="-6.337439976632595">
        <ele>659.12</ele>
        <time>2025-04-29T14:56:30Z</time>
      </trkpt>
      <trkpt lat="43.39529000222683" lon="-6.337550031021237">
        <ele>658.63999999999999</ele>
        <time>2025-04-29T14:56:31Z</time>
      </trkpt>
      <trkpt lat="43.395400978624821" lon="-6.33766301907599">
        <ele>657.67999999999995</ele>
        <time>2025-04-29T14:56:32Z</time>
      </trkpt>
      <trkpt lat="43.395513966679573" lon="-6.33775002323091">
        <ele>656.72000000000003</ele>
        <time>2025-04-29T14:56:33Z</time>
      </trkpt>
      <trkpt lat="43.395645981654525" lon="-6.33783602155745">
        <ele>655.75999999999999</ele>
        <time>2025-04-29T14:56:34Z</time>
      </trkpt>
      <trkpt lat="43.395781014114618" lon="-6.337881032377482">
        <ele>654.30999999999995</ele>
        <time>2025-04-29T14:56:35Z</time>
      </trkpt>
      <trkpt lat="43.395921997725964" lon="-6.337910033762455">
        <ele>653.35000000000002</ele>
        <time>2025-04-29T14:56:36Z</time>
      </trkpt>
      <trkpt lat="43.396058036014438" lon="-6.337910033762455">
        <ele>652.38999999999999</ele>
        <time>2025-04-29T14:56:37Z</time>
      </trkpt>
      <trkpt lat="43.39619399048388" lon="-6.337910033762455">
        <ele>651.42999999999995</ele>
        <time>2025-04-29T14:56:38Z</time>
      </trkpt>
      <trkpt lat="43.39632298797369" lon="-6.33785898797214">
        <ele>650.95000000000005</ele>
        <time>2025-04-29T14:56:39Z</time>
      </trkpt>
      <trkpt lat="43.396450979635119" lon="-6.337799979373813">
        <ele>649.50999999999999</ele>
        <time>2025-04-29T14:56:40Z</time>
      </trkpt>
      <trkpt lat="43.396578971296549" lon="-6.337719010189176">
        <ele>649.02999999999997</ele>
        <time>2025-04-29T14:56:41Z</time>
      </trkpt>
      <trkpt lat="43.396706962957978" lon="-6.337635023519397">
        <ele>648.07000000000005</ele>
        <time>2025-04-29T14:56:42Z</time>
      </trkpt>
      <trkpt lat="43.397618997842073" lon="-6.337047033011913">
        <ele>642.29999999999995</ele>
        <time>2025-04-29T14:56:49Z</time>
      </trkpt>
      <trkpt lat="43.397758975625038" lon="-6.337037980556488">
        <ele>641.34000000000003</ele>
        <time>2025-04-29T14:56:50Z</time>
      </trkpt>
      <trkpt lat="43.397885039448738" lon="-6.337030017748475">
        <ele>640.38</ele>
        <time>2025-04-29T14:56:51Z</time>
      </trkpt>
      <trkpt lat="43.398032980039716" lon="-6.337106041610241">
        <ele>639.40999999999997</ele>
        <time>2025-04-29T14:56:52Z</time>
      </trkpt>
      <trkpt lat="43.398183016106486" lon="-6.337181981652975">
        <ele>638.45000000000005</ele>
        <time>2025-04-29T14:56:53Z</time>
      </trkpt>
      <trkpt lat="43.398339003324509" lon="-6.337262028828263">
        <ele>637.49000000000001</ele>
        <time>2025-04-29T14:56:54Z</time>
      </trkpt>
      <trkpt lat="43.398821968585253" lon="-6.337508959695697">
        <ele>635.09000000000003</ele>
        <time>2025-04-29T14:56:57Z</time>
      </trkpt>
      <trkpt lat="43.398977033793926" lon="-6.337549025192857">
        <ele>634.13</ele>
        <time>2025-04-29T14:56:58Z</time>
      </trkpt>
      <trkpt lat="43.399131009355187" lon="-6.337580038234592">
        <ele>633.16999999999996</ele>
        <time>2025-04-29T14:56:59Z</time>
      </trkpt>
      <trkpt lat="43.399278027936816" lon="-6.337555982172489">
        <ele>632.20000000000005</ele>
        <time>2025-04-29T14:57:00Z</time>
      </trkpt>
      <trkpt lat="43.399424962699413" lon="-6.337509965524077">
        <ele>631.72000000000003</ele>
        <time>2025-04-29T14:57:01Z</time>
      </trkpt>
      <trkpt lat="43.399569969624281" lon="-6.33742899633944">
        <ele>630.75999999999999</ele>
        <time>2025-04-29T14:57:02Z</time>
      </trkpt>
      <trkpt lat="43.399723023176193" lon="-6.337334029376507">
        <ele>629.79999999999995</ele>
        <time>2025-04-29T14:57:03Z</time>
      </trkpt>
      <trkpt lat="43.400023011490703" lon="-6.337116016075015">
        <ele>628.36000000000001</ele>
        <time>2025-04-29T14:57:05Z</time>
      </trkpt>
      <trkpt lat="43.400153014808893" lon="-6.336972014978528">
        <ele>627.39999999999998</ele>
        <time>2025-04-29T14:57:06Z</time>
      </trkpt>
      <trkpt lat="43.4002769831568" lon="-6.33680404163897">
        <ele>626.44000000000005</ele>
        <time>2025-04-29T14:57:07Z</time>
      </trkpt>
      <trkpt lat="43.400372033938766" lon="-6.336626010015607">
        <ele>625.47000000000003</ele>
        <time>2025-04-29T14:57:08Z</time>
      </trkpt>
      <trkpt lat="43.400446968153119" lon="-6.336433980613947">
        <ele>624.50999999999999</ele>
        <time>2025-04-29T14:57:09Z</time>
      </trkpt>
      <trkpt lat="43.400518968701363" lon="-6.336252009496093">
        <ele>624.02999999999997</ele>
        <time>2025-04-29T14:57:10Z</time>
      </trkpt>
      <trkpt lat="43.400589041411877" lon="-6.336075989529491">
        <ele>623.07000000000005</ele>
        <time>2025-04-29T14:57:11Z</time>
      </trkpt>
      <trkpt lat="43.400679985061288" lon="-6.335951015353203">
        <ele>622.59000000000003</ele>
        <time>2025-04-29T14:57:12Z</time>
      </trkpt>
      <trkpt lat="43.400774030014873" lon="-6.335857976227999">
        <ele>621.63</ele>
        <time>2025-04-29T14:57:13Z</time>
      </trkpt>
      <trkpt lat="43.400868996977806" lon="-6.335811037570238">
        <ele>621.14999999999998</ele>
        <time>2025-04-29T14:57:14Z</time>
      </trkpt>
      <trkpt lat="43.400979973375797" lon="-6.335821012035012">
        <ele>620.19000000000005</ele>
        <time>2025-04-29T14:57:15Z</time>
      </trkpt>
      <trkpt lat="43.401095978915691" lon="-6.335858982056379">
        <ele>619.23000000000002</ele>
        <time>2025-04-29T14:57:16Z</time>
      </trkpt>
      <trkpt lat="43.401210978627205" lon="-6.335959983989596">
        <ele>618.25999999999999</ele>
        <time>2025-04-29T14:57:17Z</time>
      </trkpt>
      <trkpt lat="43.401335030794144" lon="-6.336068026721478">
        <ele>617.29999999999995</ele>
        <time>2025-04-29T14:57:18Z</time>
      </trkpt>
      <trkpt lat="43.401466039940715" lon="-6.336190989241004">
        <ele>616.34000000000003</ele>
        <time>2025-04-29T14:57:19Z</time>
      </trkpt>
      <trkpt lat="43.401596965268254" lon="-6.336321998387575">
        <ele>615.38</ele>
        <time>2025-04-29T14:57:20Z</time>
      </trkpt>
      <trkpt lat="43.401849009096622" lon="-6.336573958396912">
        <ele>613.94000000000005</ele>
        <time>2025-04-29T14:57:22Z</time>
      </trkpt>
      <trkpt lat="43.40197398327291" lon="-6.33669801056385">
        <ele>613.46000000000004</ele>
        <time>2025-04-29T14:57:23Z</time>
      </trkpt>
      <trkpt lat="43.402877971529961" lon="-6.337546007707715">
        <ele>609.13</ele>
        <time>2025-04-29T14:57:30Z</time>
      </trkpt>
      <trkpt lat="43.402991965413094" lon="-6.337631000205874">
        <ele>608.64999999999998</ele>
        <time>2025-04-29T14:57:31Z</time>
      </trkpt>
      <trkpt lat="43.403134038671851" lon="-6.337669976055622">
        <ele>608.16999999999996</ele>
        <time>2025-04-29T14:57:32Z</time>
      </trkpt>
      <trkpt lat="43.403263036161661" lon="-6.337693026289344">
        <ele>608.16999999999996</ele>
        <time>2025-04-29T14:57:33Z</time>
      </trkpt>
      <trkpt lat="43.403406031429768" lon="-6.337682968005538">
        <ele>607.69000000000005</ele>
        <time>2025-04-29T14:57:34Z</time>
      </trkpt>
      <trkpt lat="43.403554977849126" lon="-6.337670981884003">
        <ele>607.21000000000004</ele>
        <time>2025-04-29T14:57:35Z</time>
      </trkpt>
      <trkpt lat="43.404161995276809" lon="-6.337676011025906">
        <ele>603.36000000000001</ele>
        <time>2025-04-29T14:57:39Z</time>
      </trkpt>
      <trkpt lat="43.404316976666451" lon="-6.337720016017556">
        <ele>602.39999999999998</ele>
        <time>2025-04-29T14:57:40Z</time>
      </trkpt>
      <trkpt lat="43.4054109826684" lon="-6.338141039013863">
        <ele>595.19000000000005</ele>
        <time>2025-04-29T14:57:47Z</time>
      </trkpt>
      <trkpt lat="43.405554983764887" lon="-6.338156964629889">
        <ele>594.23000000000002</ele>
        <time>2025-04-29T14:57:48Z</time>
      </trkpt>
      <trkpt lat="43.405780959874392" lon="-6.338124023750424">
        <ele>592.78999999999996</ele>
        <time>2025-04-29T14:57:49Z</time>
      </trkpt>
      <trkpt lat="43.405886990949512" lon="-6.338081024587154">
        <ele>591.83000000000004</ele>
        <time>2025-04-29T14:57:50Z</time>
      </trkpt>
      <trkpt lat="43.406045995652676" lon="-6.338014975190163">
        <ele>590.38999999999999</ele>
        <time>2025-04-29T14:57:51Z</time>
      </trkpt>
      <trkpt lat="43.406200977042317" lon="-6.337951021268964">
        <ele>589.42999999999995</ele>
        <time>2025-04-29T14:57:52Z</time>
      </trkpt>
      <trkpt lat="43.406339026987553" lon="-6.337894024327397">
        <ele>587.98000000000002</ele>
        <time>2025-04-29T14:57:53Z</time>
      </trkpt>
      <trkpt lat="43.406459977850318" lon="-6.337870974093676">
        <ele>587.01999999999998</ele>
        <time>2025-04-29T14:57:54Z</time>
      </trkpt>
      <trkpt lat="43.40657003223896" lon="-6.337881032377482">
        <ele>586.53999999999996</ele>
        <time>2025-04-29T14:57:55Z</time>
      </trkpt>
      <trkpt lat="43.406687965616584" lon="-6.337939035147429">
        <ele>585.58000000000004</ele>
        <time>2025-04-29T14:57:56Z</time>
      </trkpt>
      <trkpt lat="43.406755020841956" lon="-6.338061997666955">
        <ele>585.10000000000002</ele>
        <time>2025-04-29T14:57:57Z</time>
      </trkpt>
      <trkpt lat="43.406816963106394" lon="-6.338216979056597">
        <ele>584.62</ele>
        <time>2025-04-29T14:57:58Z</time>
      </trkpt>
      <trkpt lat="43.406839007511735" lon="-6.338397022336721">
        <ele>584.62</ele>
        <time>2025-04-29T14:57:59Z</time>
      </trkpt>
      <trkpt lat="43.406861973926425" lon="-6.33858704008162">
        <ele>584.13999999999999</ele>
        <time>2025-04-29T14:58:00Z</time>
      </trkpt>
      <trkpt lat="43.406887035816908" lon="-6.338788960129023">
        <ele>584.13999999999999</ele>
        <time>2025-04-29T14:58:01Z</time>
      </trkpt>
      <trkpt lat="43.407026007771492" lon="-6.339863017201424">
        <ele>582.22000000000003</ele>
        <time>2025-04-29T14:58:06Z</time>
      </trkpt>
      <trkpt lat="43.40708501636982" lon="-6.340039037168026">
        <ele>582.22000000000003</ele>
        <time>2025-04-29T14:58:07Z</time>
      </trkpt>
      <trkpt lat="43.407155005261302" lon="-6.340170968323946">
        <ele>581.73000000000002</ele>
        <time>2025-04-29T14:58:08Z</time>
      </trkpt>
      <trkpt lat="43.407246032729745" lon="-6.340270964428783">
        <ele>581.25</ele>
        <time>2025-04-29T14:58:09Z</time>
      </trkpt>
      <trkpt lat="43.407372012734413" lon="-6.340282028540969">
        <ele>580.76999999999998</ele>
        <time>2025-04-29T14:58:10Z</time>
      </trkpt>
      <trkpt lat="43.407501010224223" lon="-6.340280016884208">
        <ele>580.28999999999996</ele>
        <time>2025-04-29T14:58:11Z</time>
      </trkpt>
      <trkpt lat="43.407654985785484" lon="-6.340209022164345">
        <ele>579.80999999999995</ele>
        <time>2025-04-29T14:58:12Z</time>
      </trkpt>
      <trkpt lat="43.407831005752087" lon="-6.340126963332295">
        <ele>578.85000000000002</ele>
        <time>2025-04-29T14:58:13Z</time>
      </trkpt>
      <trkpt lat="43.408411033451557" lon="-6.339881038293243">
        <ele>575.00999999999999</ele>
        <time>2025-04-29T14:58:17Z</time>
      </trkpt>
      <trkpt lat="43.408560985699296" lon="-6.339872991666198">
        <ele>574.03999999999996</ele>
        <time>2025-04-29T14:58:18Z</time>
      </trkpt>
      <trkpt lat="43.408714961260557" lon="-6.339864023029804">
        <ele>572.60000000000002</ele>
        <time>2025-04-29T14:58:19Z</time>
      </trkpt>
      <trkpt lat="43.410064028576016" lon="-6.339944992214441">
        <ele>562.99000000000001</ele>
        <time>2025-04-29T14:58:27Z</time>
      </trkpt>
      <trkpt lat="43.410535007715225" lon="-6.339991008862853">
        <ele>559.13999999999999</ele>
        <time>2025-04-29T14:58:30Z</time>
      </trkpt>
      <trkpt lat="43.410651013255119" lon="-6.340068960562348">
        <ele>557.70000000000005</ele>
        <time>2025-04-29T14:58:31Z</time>
      </trkpt>
      <trkpt lat="43.410723013803363" lon="-6.340148001909256">
        <ele>556.74000000000001</ele>
        <time>2025-04-29T14:58:32Z</time>
      </trkpt>
      <trkpt lat="43.410786967724562" lon="-6.340267024934292">
        <ele>556.25999999999999</ele>
        <time>2025-04-29T14:58:33Z</time>
      </trkpt>
      <trkpt lat="43.410841031000018" lon="-6.340439021587372">
        <ele>555.77999999999997</ele>
        <time>2025-04-29T14:58:34Z</time>
      </trkpt>
      <trkpt lat="43.410899033769965" lon="-6.340623004361987">
        <ele>554.82000000000005</ele>
        <time>2025-04-29T14:58:35Z</time>
      </trkpt>
      <trkpt lat="43.410959970206022" lon="-6.340818973258138">
        <ele>554.34000000000003</ele>
        <time>2025-04-29T14:58:36Z</time>
      </trkpt>
      <trkpt lat="43.411364983767271" lon="-6.341996965929866">
        <ele>553.38</ele>
        <time>2025-04-29T14:58:42Z</time>
      </trkpt>
      <trkpt lat="43.411440001800656" lon="-6.342147001996636">
        <ele>552.89999999999998</ele>
        <time>2025-04-29T14:58:43Z</time>
      </trkpt>
      <trkpt lat="43.411528011783957" lon="-6.342192012816668">
        <ele>552.40999999999997</ele>
        <time>2025-04-29T14:58:44Z</time>
      </trkpt>
      <trkpt lat="43.411634964868426" lon="-6.342237023636699">
        <ele>551.92999999999995</ele>
        <time>2025-04-29T14:58:45Z</time>
      </trkpt>
      <trkpt lat="43.411716017872095" lon="-6.342259990051389">
        <ele>551.92999999999995</ele>
        <time>2025-04-29T14:58:46Z</time>
      </trkpt>
      <trkpt lat="43.411831017583609" lon="-6.342209028080106">
        <ele>551.92999999999995</ele>
        <time>2025-04-29T14:58:47Z</time>
      </trkpt>
      <trkpt lat="43.411947023123503" lon="-6.342141972854734">
        <ele>551.45000000000005</ele>
        <time>2025-04-29T14:58:48Z</time>
      </trkpt>
      <trkpt lat="43.412076020613313" lon="-6.342043988406658">
        <ele>551.45000000000005</ele>
        <time>2025-04-29T14:58:49Z</time>
      </trkpt>
      <trkpt lat="43.412215998396277" lon="-6.341938963159919">
        <ele>550.97000000000003</ele>
        <time>2025-04-29T14:58:50Z</time>
      </trkpt>
      <trkpt lat="43.412352036684752" lon="-6.341836033388972">
        <ele>550.00999999999999</ele>
        <time>2025-04-29T14:58:51Z</time>
      </trkpt>
      <trkpt lat="43.412943966686726" lon="-6.341430013999343">
        <ele>547.61000000000001</ele>
        <time>2025-04-29T14:58:56Z</time>
      </trkpt>
      <trkpt lat="43.413078999146819" lon="-6.341395983472467">
        <ele>547.13</ele>
        <time>2025-04-29T14:58:57Z</time>
      </trkpt>
      <trkpt lat="43.413205984979868" lon="-6.341363964602351">
        <ele>547.13</ele>
        <time>2025-04-29T14:58:58Z</time>
      </trkpt>
      <trkpt lat="43.413327019661665" lon="-6.341394977644086">
        <ele>547.13</ele>
        <time>2025-04-29T14:58:59Z</time>
      </trkpt>
      <trkpt lat="43.413471020758152" lon="-6.341431019827724">
        <ele>547.13</ele>
        <time>2025-04-29T14:59:00Z</time>
      </trkpt>
      <trkpt lat="43.413793975487351" lon="-6.341586001217365">
        <ele>546.64999999999998</ele>
        <time>2025-04-29T14:59:02Z</time>
      </trkpt>
      <trkpt lat="43.413958009332418" lon="-6.341691026464105">
        <ele>546.16999999999996</ele>
        <time>2025-04-29T14:59:03Z</time>
      </trkpt>
      <trkpt lat="43.414107039570808" lon="-6.341857993975282">
        <ele>545.20000000000005</ele>
        <time>2025-04-29T14:59:04Z</time>
      </trkpt>
      <trkpt lat="43.414196977391839" lon="-6.342011969536543">
        <ele>544.24000000000001</ele>
        <time>2025-04-29T14:59:05Z</time>
      </trkpt>
      <trkpt lat="43.414279958233237" lon="-6.342212967574596">
        <ele>543.75999999999999</ele>
        <time>2025-04-29T14:59:06Z</time>
      </trkpt>
      <trkpt lat="43.414328992366791" lon="-6.342424023896456">
        <ele>542.79999999999995</ele>
        <time>2025-04-29T14:59:07Z</time>
      </trkpt>
      <trkpt lat="43.414378026500344" lon="-6.342633990570903">
        <ele>541.84000000000003</ele>
        <time>2025-04-29T14:59:08Z</time>
      </trkpt>
      <trkpt lat="43.414421025663614" lon="-6.342845968902111">
        <ele>541.36000000000001</ele>
        <time>2025-04-29T14:59:09Z</time>
      </trkpt>
      <trkpt lat="43.41467197984457" lon="-6.344121024012566">
        <ele>537.50999999999999</ele>
        <time>2025-04-29T14:59:15Z</time>
      </trkpt>
      <trkpt lat="43.41475797817111" lon="-6.344320010393858">
        <ele>537.02999999999997</ele>
        <time>2025-04-29T14:59:16Z</time>
      </trkpt>
      <trkpt lat="43.414850011467934" lon="-6.344525031745434">
        <ele>536.07000000000005</ele>
        <time>2025-04-29T14:59:17Z</time>
      </trkpt>
      <trkpt lat="43.414944978430867" lon="-6.344709014520049">
        <ele>535.11000000000001</ele>
        <time>2025-04-29T14:59:18Z</time>
      </trkpt>
      <trkpt lat="43.415008010342717" lon="-6.34481898508966">
        <ele>534.14999999999998</ele>
        <time>2025-04-29T14:59:19Z</time>
      </trkpt>
      <trkpt lat="43.415140025317669" lon="-6.344906995072961">
        <ele>533.66999999999996</ele>
        <time>2025-04-29T14:59:20Z</time>
      </trkpt>
      <trkpt lat="43.415234992280602" lon="-6.344941025599837">
        <ele>532.71000000000004</ele>
        <time>2025-04-29T14:59:21Z</time>
      </trkpt>
      <trkpt lat="43.415348986163735" lon="-6.344917975366116">
        <ele>531.75</ele>
        <time>2025-04-29T14:59:22Z</time>
      </trkpt>
      <trkpt lat="43.415450993925333" lon="-6.344865001738071">
        <ele>531.26999999999998</ele>
        <time>2025-04-29T14:59:23Z</time>
      </trkpt>
      <trkpt lat="43.415545038878918" lon="-6.344759976491332">
        <ele>530.78999999999996</ele>
        <time>2025-04-29T14:59:24Z</time>
      </trkpt>
      <trkpt lat="43.4156150277704" lon="-6.344637013971806">
        <ele>530.78999999999996</ele>
        <time>2025-04-29T14:59:25Z</time>
      </trkpt>
      <trkpt lat="43.415675964206457" lon="-6.344469962641597">
        <ele>530.29999999999995</ele>
        <time>2025-04-29T14:59:26Z</time>
      </trkpt>
      <trkpt lat="43.415743019431829" lon="-6.344286985695362">
        <ele>529.82000000000005</ele>
        <time>2025-04-29T14:59:27Z</time>
      </trkpt>
      <trkpt lat="43.416221039369702" lon="-6.342346994206309">
        <ele>527.41999999999996</ele>
        <time>2025-04-29T14:59:36Z</time>
      </trkpt>
      <trkpt lat="43.416313994675875" lon="-6.34105802513659">
        <ele>522.61000000000001</ele>
        <time>2025-04-29T14:59:42Z</time>
      </trkpt>
      <trkpt lat="43.416363028809428" lon="-6.340917963534594">
        <ele>521.16999999999996</ele>
        <time>2025-04-29T14:59:43Z</time>
      </trkpt>
      <trkpt lat="43.416403010487556" lon="-6.340806987136602">
        <ele>520.21000000000004</ele>
        <time>2025-04-29T14:59:44Z</time>
      </trkpt>
      <trkpt lat="43.416452966630459" lon="-6.340767005458474">
        <ele>518.76999999999998</ele>
        <time>2025-04-29T14:59:45Z</time>
      </trkpt>
      <trkpt lat="43.416541982442141" lon="-6.34071595966816">
        <ele>517.33000000000004</ele>
        <time>2025-04-29T14:59:46Z</time>
      </trkpt>
      <trkpt lat="43.416666034609079" lon="-6.340704979375005">
        <ele>515.88</ele>
        <time>2025-04-29T14:59:47Z</time>
      </trkpt>
      <trkpt lat="43.416771981865168" lon="-6.340811010450125">
        <ele>513.96000000000004</ele>
        <time>2025-04-29T14:59:48Z</time>
      </trkpt>
      <trkpt lat="43.416876001283526" lon="-6.340915029868484">
        <ele>513</ele>
        <time>2025-04-29T14:59:49Z</time>
      </trkpt>
      <trkpt lat="43.416954036802053" lon="-6.341060036793351">
        <ele>512.51999999999998</ele>
        <time>2025-04-29T14:59:50Z</time>
      </trkpt>
      <trkpt lat="43.417039029300213" lon="-6.341219963505864">
        <ele>512.03999999999996</ele>
        <time>2025-04-29T14:59:51Z</time>
      </trkpt>
      <trkpt lat="43.417127039283514" lon="-6.341395983472467">
        <ele>512.03999999999996</ele>
        <time>2025-04-29T14:59:52Z</time>
      </trkpt>
      <trkpt lat="43.417217982932925" lon="-6.341578960418701">
        <ele>511.56</ele>
        <time>2025-04-29T14:59:53Z</time>
      </trkpt>
      <trkpt lat="43.417309010401368" lon="-6.341770989820361">
        <ele>511.56</ele>
        <time>2025-04-29T14:59:54Z</time>
      </trkpt>
      <trkpt lat="43.417403977364302" lon="-6.341971987858415">
        <ele>511.07999999999998</ele>
        <time>2025-04-29T14:59:55Z</time>
      </trkpt>
      <trkpt lat="43.417501039803028" lon="-6.342177009209991">
        <ele>511.07999999999998</ele>
        <time>2025-04-29T14:59:56Z</time>
      </trkpt>
      <trkpt lat="43.417661972343922" lon="-6.34262602776289">
        <ele>509.63999999999999</ele>
        <time>2025-04-29T14:59:58Z</time>
      </trkpt>
      <trkpt lat="43.417965983971953" lon="-6.343716010451317">
        <ele>506.26999999999998</ele>
        <time>2025-04-29T15:00:03Z</time>
      </trkpt>
      <trkpt lat="43.418067991733551" lon="-6.343893958255649">
        <ele>505.79000000000002</ele>
        <time>2025-04-29T15:00:04Z</time>
      </trkpt>
      <trkpt lat="43.418356999754906" lon="-6.344414977356792">
        <ele>503.38999999999999</ele>
        <time>2025-04-29T15:00:07Z</time>
      </trkpt>
      <trkpt lat="43.418419025838375" lon="-6.344601977616549">
        <ele>502.43000000000001</ele>
        <time>2025-04-29T15:00:08Z</time>
      </trkpt>
      <trkpt lat="43.418444003909826" lon="-6.344808004796505">
        <ele>500.98000000000002</ele>
        <time>2025-04-29T15:00:09Z</time>
      </trkpt>
      <trkpt lat="43.418466970324516" lon="-6.345019983127713">
        <ele>500.01999999999998</ele>
        <time>2025-04-29T15:00:10Z</time>
      </trkpt>
      <trkpt lat="43.418483985587955" lon="-6.345235984772444">
        <ele>499.06</ele>
        <time>2025-04-29T15:00:11Z</time>
      </trkpt>
      <trkpt lat="43.418502006679773" lon="-6.345455003902316">
        <ele>497.62</ele>
        <time>2025-04-29T15:00:12Z</time>
      </trkpt>
      <trkpt lat="43.418549029156566" lon="-6.346583040431142">
        <ele>491.37</ele>
        <time>2025-04-29T15:00:17Z</time>
      </trkpt>
      <trkpt lat="43.418533019721508" lon="-6.346805999055505">
        <ele>490.41000000000003</ele>
        <time>2025-04-29T15:00:18Z</time>
      </trkpt>
      <trkpt lat="43.418503012508154" lon="-6.347463978454471">
        <ele>487.52999999999997</ele>
        <time>2025-04-29T15:00:21Z</time>
      </trkpt>
      <trkpt lat="43.418544000014663" lon="-6.347660031169653">
        <ele>486.56</ele>
        <time>2025-04-29T15:00:22Z</time>
      </trkpt>
      <trkpt lat="43.418584987521172" lon="-6.347860023379326">
        <ele>485.12</ele>
        <time>2025-04-29T15:00:23Z</time>
      </trkpt>
      <trkpt lat="43.418627986684442" lon="-6.348065966740251">
        <ele>484.16000000000003</ele>
        <time>2025-04-29T15:00:24Z</time>
      </trkpt>
      <trkpt lat="43.418671991676092" lon="-6.348279034718871">
        <ele>483.19999999999999</ele>
        <time>2025-04-29T15:00:25Z</time>
      </trkpt>
      <trkpt lat="43.418720019981265" lon="-6.348510039970279">
        <ele>482.72000000000003</ele>
        <time>2025-04-29T15:00:26Z</time>
      </trkpt>
      <trkpt lat="43.418766036629677" lon="-6.348719000816345">
        <ele>481.75999999999999</ele>
        <time>2025-04-29T15:00:27Z</time>
      </trkpt>
      <trkpt lat="43.418827978894114" lon="-6.349002979695797">
        <ele>480.80000000000001</ele>
        <time>2025-04-29T15:00:28Z</time>
      </trkpt>
      <trkpt lat="43.419084968045354" lon="-6.349882995709777">
        <ele>477.91000000000003</ele>
        <time>2025-04-29T15:00:33Z</time>
      </trkpt>
      <trkpt lat="43.419215977191925" lon="-6.350050969049335">
        <ele>476.94999999999999</ele>
        <time>2025-04-29T15:00:34Z</time>
      </trkpt>
      <trkpt lat="43.419339023530483" lon="-6.350157000124455">
        <ele>475.99000000000001</ele>
        <time>2025-04-29T15:00:35Z</time>
      </trkpt>
      <trkpt lat="43.41946299187839" lon="-6.350264959037304">
        <ele>475.50999999999999</ele>
        <time>2025-04-29T15:00:36Z</time>
      </trkpt>
      <trkpt lat="43.419589977711439" lon="-6.350310975685716">
        <ele>475.02999999999997</ele>
        <time>2025-04-29T15:00:37Z</time>
      </trkpt>
      <trkpt lat="43.419730961322784" lon="-6.35034098289907">
        <ele>474.55000000000001</ele>
        <time>2025-04-29T15:00:38Z</time>
      </trkpt>
      <trkpt lat="43.419875968247652" lon="-6.350370990112424">
        <ele>474.06999999999999</ele>
        <time>2025-04-29T15:00:39Z</time>
      </trkpt>
      <trkpt lat="43.420012006536126" lon="-6.35036101564765">
        <ele>473.58999999999997</ele>
        <time>2025-04-29T15:00:40Z</time>
      </trkpt>
      <trkpt lat="43.420176040381193" lon="-6.350336959585547">
        <ele>472.63</ele>
        <time>2025-04-29T15:00:41Z</time>
      </trkpt>
      <trkpt lat="43.420350970700383" lon="-6.350311981514096">
        <ele>472.13999999999999</ele>
        <time>2025-04-29T15:00:42Z</time>
      </trkpt>
      <trkpt lat="43.421196034178138" lon="-6.350109977647662">
        <ele>464.93000000000001</ele>
        <time>2025-04-29T15:00:47Z</time>
      </trkpt>
      <trkpt lat="43.421326037496328" lon="-6.35001802816987">
        <ele>463.97000000000003</ele>
        <time>2025-04-29T15:00:48Z</time>
      </trkpt>
      <trkpt lat="43.421447994187474" lon="-6.349880984053016">
        <ele>463.49000000000001</ele>
        <time>2025-04-29T15:00:49Z</time>
      </trkpt>
      <trkpt lat="43.42156701721251" lon="-6.349746035411954">
        <ele>462.52999999999997</ele>
        <time>2025-04-29T15:00:50Z</time>
      </trkpt>
      <trkpt lat="43.421616973355412" lon="-6.349689960479736">
        <ele>461.56999999999999</ele>
        <time>2025-04-29T15:00:51Z</time>
      </trkpt>
      <trkpt lat="43.421698026359081" lon="-6.349470019340515">
        <ele>460.61000000000001</ele>
        <time>2025-04-29T15:00:52Z</time>
      </trkpt>
      <trkpt lat="43.421767009422183" lon="-6.349280001595616">
        <ele>459.64999999999998</ele>
        <time>2025-04-29T15:00:53Z</time>
      </trkpt>
      <trkpt lat="43.421939006075263" lon="-6.348752025514841">
        <ele>456.75999999999999</ele>
        <time>2025-04-29T15:00:56Z</time>
      </trkpt>
      <trkpt lat="43.421991979703307" lon="-6.348568964749575">
        <ele>455.80000000000001</ele>
        <time>2025-04-29T15:00:57Z</time>
      </trkpt>
      <trkpt lat="43.422074038535357" lon="-6.348124975338578">
        <ele>452.44</ele>
        <time>2025-04-29T15:01:00Z</time>
      </trkpt>
      <trkpt lat="43.42212600633502" lon="-6.347916014492512">
        <ele>451</ele>
        <time>2025-04-29T15:01:01Z</time>
      </trkpt>
      <trkpt lat="43.422304037958384" lon="-6.347693977877498">
        <ele>449.06999999999999</ele>
        <time>2025-04-29T15:01:02Z</time>
      </trkpt>
      <trkpt lat="43.422506963834167" lon="-6.347679980099201">
        <ele>447.14999999999998</ele>
        <time>2025-04-29T15:01:03Z</time>
      </trkpt>
      <trkpt lat="43.422584999352694" lon="-6.347674028947949">
        <ele>445.23000000000002</ele>
        <time>2025-04-29T15:01:04Z</time>
      </trkpt>
      <trkpt lat="43.422667980194092" lon="-6.347667993977666">
        <ele>443.79000000000002</ele>
        <time>2025-04-29T15:01:05Z</time>
      </trkpt>
      <trkpt lat="43.422768982127309" lon="-6.347660031169653">
        <ele>442.81999999999999</ele>
        <time>2025-04-29T15:01:06Z</time>
      </trkpt>
      <trkpt lat="43.422875013202429" lon="-6.347651984542608">
        <ele>441.86000000000001</ele>
        <time>2025-04-29T15:01:07Z</time>
      </trkpt>
      <trkpt lat="43.422931004315615" lon="-6.347623988986015">
        <ele>440.89999999999998</ele>
        <time>2025-04-29T15:01:08Z</time>
      </trkpt>
      <trkpt lat="43.423042986541986" lon="-6.347560035064817">
        <ele>439.94</ele>
        <time>2025-04-29T15:01:09Z</time>
      </trkpt>
      <trkpt lat="43.423182964324951" lon="-6.347479987889528">
        <ele>439.45999999999998</ele>
        <time>2025-04-29T15:01:10Z</time>
      </trkpt>
      <trkpt lat="43.423299975693226" lon="-6.347416033968329">
        <ele>438.01999999999998</ele>
        <time>2025-04-29T15:01:11Z</time>
      </trkpt>
      <trkpt lat="43.423428973183036" lon="-6.347345039248467">
        <ele>436.10000000000002</ele>
        <time>2025-04-29T15:01:12Z</time>
      </trkpt>
      <trkpt lat="43.423613039776683" lon="-6.347244037315249">
        <ele>431.76999999999998</ele>
        <time>2025-04-29T15:01:14Z</time>
      </trkpt>
      <trkpt lat="43.423741031438112" lon="-6.347287036478519">
        <ele>429.85000000000002</ele>
        <time>2025-04-29T15:01:15Z</time>
      </trkpt>
      <trkpt lat="43.423741031438112" lon="-6.347287036478519">
        <ele>427.92000000000002</ele>
        <time>2025-04-29T15:01:16Z</time>
      </trkpt>
      <trkpt lat="43.423933982849121" lon="-6.347416033968329">
        <ele>426.48000000000002</ele>
        <time>2025-04-29T15:01:17Z</time>
      </trkpt>
      <trkpt lat="43.424019981175661" lon="-6.347544025629759">
        <ele>424.56</ele>
        <time>2025-04-29T15:01:18Z</time>
      </trkpt>
      <trkpt lat="43.423774978145957" lon="-6.347577972337604">
        <ele>423.60000000000002</ele>
        <time>2025-04-29T15:01:19Z</time>
      </trkpt>
      <trkpt lat="43.423742037266493" lon="-6.347707975655794">
        <ele>422.63999999999999</ele>
        <time>2025-04-29T15:01:20Z</time>
      </trkpt>
      <trkpt lat="43.423703983426094" lon="-6.347854994237423">
        <ele>421.68000000000001</ele>
        <time>2025-04-29T15:01:21Z</time>
      </trkpt>
      <trkpt lat="43.423664001747966" lon="-6.348008969798684">
        <ele>421.19</ele>
        <time>2025-04-29T15:01:22Z</time>
      </trkpt>
      <trkpt lat="43.423633994534612" lon="-6.348123969510198">
        <ele>420.23000000000002</ele>
        <time>2025-04-29T15:01:23Z</time>
      </trkpt>
      <trkpt lat="43.423633994534612" lon="-6.348364027217031">
        <ele>419.26999999999998</ele>
        <time>2025-04-29T15:01:24Z</time>
      </trkpt>
      <trkpt lat="43.423633994534612" lon="-6.348553039133549">
        <ele>418.31</ele>
        <time>2025-04-29T15:01:25Z</time>
      </trkpt>
      <trkpt lat="43.423656038939953" lon="-6.348743978887796">
        <ele>417.35000000000002</ele>
        <time>2025-04-29T15:01:26Z</time>
      </trkpt>
      <trkpt lat="43.42369400896132" lon="-6.348925027996302">
        <ele>416.38999999999999</ele>
        <time>2025-04-29T15:01:27Z</time>
      </trkpt>
      <trkpt lat="43.423728961497545" lon="-6.349093001335859">
        <ele>415.43000000000001</ele>
        <time>2025-04-29T15:01:28Z</time>
      </trkpt>
      <trkpt lat="43.423791993409395" lon="-6.349393995478749">
        <ele>413.98000000000002</ele>
        <time>2025-04-29T15:01:30Z</time>
      </trkpt>
      <trkpt lat="43.423827029764652" lon="-6.349560962989926">
        <ele>413.5</ele>
        <time>2025-04-29T15:01:31Z</time>
      </trkpt>
      <trkpt lat="43.423833986744285" lon="-6.349693983793259">
        <ele>413.5</ele>
        <time>2025-04-29T15:01:32Z</time>
      </trkpt>
      <trkpt lat="43.42384303919971" lon="-6.34984603151679">
        <ele>413.01999999999998</ele>
        <time>2025-04-29T15:01:33Z</time>
      </trkpt>
      <trkpt lat="43.423852007836103" lon="-6.350001012906432">
        <ele>412.54000000000002</ele>
        <time>2025-04-29T15:01:34Z</time>
      </trkpt>
      <trkpt lat="43.423861982300878" lon="-6.350148031488061">
        <ele>412.54000000000002</ele>
        <time>2025-04-29T15:01:35Z</time>
      </trkpt>
      <trkpt lat="43.423872962594032" lon="-6.350295972079039">
        <ele>412.06</ele>
        <time>2025-04-29T15:01:36Z</time>
      </trkpt>
      <trkpt lat="43.423883020877838" lon="-6.35044701397419">
        <ele>411.10000000000002</ele>
        <time>2025-04-29T15:01:37Z</time>
      </trkpt>
      <trkpt lat="43.423946974799037" lon="-6.350725963711739">
        <ele>410.13999999999999</ele>
        <time>2025-04-29T15:01:39Z</time>
      </trkpt>
      <trkpt lat="43.424019981175661" lon="-6.350935008376837">
        <ele>409.18000000000001</ele>
        <time>2025-04-29T15:01:40Z</time>
      </trkpt>
      <trkpt lat="43.424087036401033" lon="-6.350970966741443">
        <ele>408.69999999999999</ele>
        <time>2025-04-29T15:01:41Z</time>
      </trkpt>
      <trkpt lat="43.424214022234082" lon="-6.351041961461306">
        <ele>408.22000000000003</ele>
        <time>2025-04-29T15:01:42Z</time>
      </trkpt>
      <trkpt lat="43.424327010288835" lon="-6.351041961461306">
        <ele>407.74000000000001</ele>
        <time>2025-04-29T15:01:43Z</time>
      </trkpt>
      <trkpt lat="43.424556003883481" lon="-6.351063000038266">
        <ele>407.25999999999999</ele>
        <time>2025-04-29T15:01:45Z</time>
      </trkpt>
      <trkpt lat="43.424728000536561" lon="-6.351105999201536">
        <ele>406.76999999999998</ele>
        <time>2025-04-29T15:01:46Z</time>
      </trkpt>
      <trkpt lat="43.424778040498495" lon="-6.351137012243271">
        <ele>406.76999999999998</ele>
        <time>2025-04-29T15:01:47Z</time>
      </trkpt>
      <trkpt lat="43.424899997189641" lon="-6.351213958114386">
        <ele>406.29000000000002</ele>
        <time>2025-04-29T15:01:48Z</time>
      </trkpt>
      <trkpt lat="43.424965962767601" lon="-6.35133096948266">
        <ele>405.81</ele>
        <time>2025-04-29T15:01:49Z</time>
      </trkpt>
      <trkpt lat="43.425043998286128" lon="-6.351469019427896">
        <ele>404.85000000000002</ele>
        <time>2025-04-29T15:01:50Z</time>
      </trkpt>
      <trkpt lat="43.42511398717761" lon="-6.351619977504015">
        <ele>404.37</ele>
        <time>2025-04-29T15:01:51Z</time>
      </trkpt>
      <trkpt lat="43.425167966634035" lon="-6.35177998803556">
        <ele>403.88999999999999</ele>
        <time>2025-04-29T15:01:52Z</time>
      </trkpt>
      <trkpt lat="43.425195962190628" lon="-6.351976040750742">
        <ele>403.41000000000003</ele>
        <time>2025-04-29T15:01:53Z</time>
      </trkpt>
      <trkpt lat="43.425187999382615" lon="-6.352149965241551">
        <ele>402.44999999999999</ele>
        <time>2025-04-29T15:01:54Z</time>
      </trkpt>
      <trkpt lat="43.425179030746222" lon="-6.352325985208154">
        <ele>401.49000000000001</ele>
        <time>2025-04-29T15:01:55Z</time>
      </trkpt>
      <trkpt lat="43.425104012712836" lon="-6.353515964001417">
        <ele>396.68000000000001</ele>
        <time>2025-04-29T15:02:02Z</time>
      </trkpt>
      <trkpt lat="43.425094960257411" lon="-6.353668011724949">
        <ele>395.72000000000003</ele>
        <time>2025-04-29T15:02:03Z</time>
      </trkpt>
      <trkpt lat="43.425120022147894" lon="-6.353812012821436">
        <ele>395.24000000000001</ele>
        <time>2025-04-29T15:02:04Z</time>
      </trkpt>
      <trkpt lat="43.425157992169261" lon="-6.354023991152644">
        <ele>394.75999999999999</ele>
        <time>2025-04-29T15:02:05Z</time>
      </trkpt>
      <trkpt lat="43.425209037959576" lon="-6.354117030277848">
        <ele>394.27999999999997</ele>
        <time>2025-04-29T15:02:06Z</time>
      </trkpt>
      <trkpt lat="43.42530601657927" lon="-6.354262037202716">
        <ele>394.27999999999997</ele>
        <time>2025-04-29T15:02:07Z</time>
      </trkpt>
      <trkpt lat="43.425913034006953" lon="-6.354951029643416">
        <ele>391.38999999999999</ele>
        <time>2025-04-29T15:02:13Z</time>
      </trkpt>
      <trkpt lat="43.42657595872879" lon="-6.356177972629666">
        <ele>385.14999999999998</ele>
        <time>2025-04-29T15:02:22Z</time>
      </trkpt>
      <trkpt lat="43.426662962883711" lon="-6.356284003704786">
        <ele>384.66000000000003</ele>
        <time>2025-04-29T15:02:23Z</time>
      </trkpt>
      <trkpt lat="43.426761031150818" lon="-6.356389028951526">
        <ele>383.69999999999999</ele>
        <time>2025-04-29T15:02:24Z</time>
      </trkpt>
      <trkpt lat="43.426869995892048" lon="-6.356394980102778">
        <ele>383.22000000000003</ele>
        <time>2025-04-29T15:02:25Z</time>
      </trkpt>
      <trkpt lat="43.426966974511743" lon="-6.356367990374565">
        <ele>382.74000000000001</ele>
        <time>2025-04-29T15:02:26Z</time>
      </trkpt>
      <trkpt lat="43.427070993930101" lon="-6.356337983161211">
        <ele>381.77999999999997</ele>
        <time>2025-04-29T15:02:27Z</time>
      </trkpt>
      <trkpt lat="43.427191022783518" lon="-6.356282997876406">
        <ele>380.81999999999999</ele>
        <time>2025-04-29T15:02:28Z</time>
      </trkpt>
      <trkpt lat="43.427608022466302" lon="-6.355882007628679">
        <ele>376.97000000000003</ele>
        <time>2025-04-29T15:02:32Z</time>
      </trkpt>
      <trkpt lat="43.427682034671307" lon="-6.355735994875431">
        <ele>376.00999999999999</ele>
        <time>2025-04-29T15:02:33Z</time>
      </trkpt>
      <trkpt lat="43.427750011906028" lon="-6.355567015707493">
        <ele>375.52999999999997</ele>
        <time>2025-04-29T15:02:34Z</time>
      </trkpt>
      <trkpt lat="43.428266001865268" lon="-6.353767002001405">
        <ele>373.13</ele>
        <time>2025-04-29T15:02:43Z</time>
      </trkpt>
      <trkpt lat="43.428332973271608" lon="-6.353530967608094">
        <ele>373.61000000000001</ele>
        <time>2025-04-29T15:02:44Z</time>
      </trkpt>
      <trkpt lat="43.428436992689967" lon="-6.35319996625185">
        <ele>373.13</ele>
        <time>2025-04-29T15:02:46Z</time>
      </trkpt>
      <trkpt lat="43.428503964096308" lon="-6.353051019832492">
        <ele>373.13</ele>
        <time>2025-04-29T15:02:47Z</time>
      </trkpt>
      <trkpt lat="43.428562972694635" lon="-6.352922022342682">
        <ele>372.64999999999998</ele>
        <time>2025-04-29T15:02:48Z</time>
      </trkpt>
      <trkpt lat="43.428654000163078" lon="-6.352890003472567">
        <ele>372.64999999999998</ele>
        <time>2025-04-29T15:02:49Z</time>
      </trkpt>
      <trkpt lat="43.428748967126012" lon="-6.352868964895606">
        <ele>372.17000000000002</ele>
        <time>2025-04-29T15:02:50Z</time>
      </trkpt>
      <trkpt lat="43.428814010694623" lon="-6.352916993200779">
        <ele>372.17000000000002</ele>
        <time>2025-04-29T15:02:51Z</time>
      </trkpt>
      <trkpt lat="43.428897997364402" lon="-6.353000979870558">
        <ele>372.17000000000002</ele>
        <time>2025-04-29T15:02:52Z</time>
      </trkpt>
      <trkpt lat="43.428947031497955" lon="-6.353135006502271">
        <ele>371.69</ele>
        <time>2025-04-29T15:02:53Z</time>
      </trkpt>
      <trkpt lat="43.428966980427504" lon="-6.353291999548674">
        <ele>371.69</ele>
        <time>2025-04-29T15:02:54Z</time>
      </trkpt>
      <trkpt lat="43.428988019004464" lon="-6.353456033393741">
        <ele>371.69</ele>
        <time>2025-04-29T15:02:55Z</time>
      </trkpt>
      <trkpt lat="43.429010985419154" lon="-6.353641021996737">
        <ele>371.20999999999998</ele>
        <time>2025-04-29T15:02:56Z</time>
      </trkpt>
      <trkpt lat="43.429325977340341" lon="-6.355225034058094">
        <ele>370.24000000000001</ele>
        <time>2025-04-29T15:03:03Z</time>
      </trkpt>
      <trkpt lat="43.42958003282547" lon="-6.356362039223313">
        <ele>368.31999999999999</ele>
        <time>2025-04-29T15:03:08Z</time>
      </trkpt>
      <trkpt lat="43.42971196398139" lon="-6.357326963916421">
        <ele>364.48000000000002</ele>
        <time>2025-04-29T15:03:13Z</time>
      </trkpt>
      <trkpt lat="43.42975496314466" lon="-6.357463002204895">
        <ele>363.51999999999998</ele>
        <time>2025-04-29T15:03:14Z</time>
      </trkpt>
      <trkpt lat="43.429813971742988" lon="-6.357522010803223">
        <ele>362.55000000000001</ele>
        <time>2025-04-29T15:03:15Z</time>
      </trkpt>
      <trkpt lat="43.429908016696572" lon="-6.35753802023828">
        <ele>361.58999999999997</ele>
        <time>2025-04-29T15:03:16Z</time>
      </trkpt>
      <trkpt lat="43.430000972002745" lon="-6.357513964176178">
        <ele>361.11000000000001</ele>
        <time>2025-04-29T15:03:17Z</time>
      </trkpt>
      <trkpt lat="43.430070960894227" lon="-6.357479011639953">
        <ele>360.63</ele>
        <time>2025-04-29T15:03:18Z</time>
      </trkpt>
      <trkpt lat="43.430200964212418" lon="-6.357335010543466">
        <ele>360.14999999999998</ele>
        <time>2025-04-29T15:03:19Z</time>
      </trkpt>
      <trkpt lat="43.430297020822763" lon="-6.357226967811585">
        <ele>358.70999999999998</ele>
        <time>2025-04-29T15:03:20Z</time>
      </trkpt>
      <trkpt lat="43.430391987785697" lon="-6.357121020555496">
        <ele>357.75</ele>
        <time>2025-04-29T15:03:21Z</time>
      </trkpt>
      <trkpt lat="43.430508999153972" lon="-6.357061006128788">
        <ele>357.26999999999998</ele>
        <time>2025-04-29T15:03:22Z</time>
      </trkpt>
      <trkpt lat="43.430586028844118" lon="-6.357050025835633">
        <ele>356.31</ele>
        <time>2025-04-29T15:03:23Z</time>
      </trkpt>
      <trkpt lat="43.430662974715233" lon="-6.35711096227169">
        <ele>355.33999999999997</ele>
        <time>2025-04-29T15:03:24Z</time>
      </trkpt>
      <trkpt lat="43.430715026333928" lon="-6.357200983911753">
        <ele>354.38</ele>
        <time>2025-04-29T15:03:25Z</time>
      </trkpt>
      <trkpt lat="43.430760959163308" lon="-6.357337022200227">
        <ele>353.89999999999998</ele>
        <time>2025-04-29T15:03:26Z</time>
      </trkpt>
      <trkpt lat="43.430788032710552" lon="-6.357480017468333">
        <ele>353.89999999999998</ele>
        <time>2025-04-29T15:03:27Z</time>
      </trkpt>
      <trkpt lat="43.430821979418397" lon="-6.357821999117732">
        <ele>353.89999999999998</ele>
        <time>2025-04-29T15:03:28Z</time>
      </trkpt>
      <trkpt lat="43.43082801438868" lon="-6.357888970524073">
        <ele>354.38</ele>
        <time>2025-04-29T15:03:29Z</time>
      </trkpt>
      <trkpt lat="43.43084704130888" lon="-6.35809600353241">
        <ele>355.33999999999997</ele>
        <time>2025-04-29T15:03:30Z</time>
      </trkpt>
      <trkpt lat="43.430919041857123" lon="-6.358620040118694">
        <ele>356.31</ele>
        <time>2025-04-29T15:03:33Z</time>
      </trkpt>
      <trkpt lat="43.430973021313548" lon="-6.358766974881291">
        <ele>356.31</ele>
        <time>2025-04-29T15:03:34Z</time>
      </trkpt>
      <trkpt lat="43.430987019091845" lon="-6.358774015679956">
        <ele>356.31</ele>
        <time>2025-04-29T15:03:35Z</time>
      </trkpt>
      <trkpt lat="43.431077040731907" lon="-6.358819026499987">
        <ele>356.79000000000002</ele>
        <time>2025-04-29T15:03:36Z</time>
      </trkpt>
      <trkpt lat="43.431187011301517" lon="-6.358874011784792">
        <ele>356.79000000000002</ele>
        <time>2025-04-29T15:03:37Z</time>
      </trkpt>
      <trkpt lat="43.431245014071465" lon="-6.358872000128031">
        <ele>357.26999999999998</ele>
        <time>2025-04-29T15:03:38Z</time>
      </trkpt>
      <trkpt lat="43.431369988247752" lon="-6.358866970986128">
        <ele>357.26999999999998</ele>
        <time>2025-04-29T15:03:39Z</time>
      </trkpt>
      <trkpt lat="43.431631000712514" lon="-6.358855990692973">
        <ele>356.31</ele>
        <time>2025-04-29T15:03:41Z</time>
      </trkpt>
      <trkpt lat="43.431777013465762" lon="-6.358879040926695">
        <ele>355.82999999999998</ele>
        <time>2025-04-29T15:03:42Z</time>
      </trkpt>
      <trkpt lat="43.431920008733869" lon="-6.358982976526022">
        <ele>355.33999999999997</ele>
        <time>2025-04-29T15:03:43Z</time>
      </trkpt>
      <trkpt lat="43.432007012888789" lon="-6.35914801619947">
        <ele>354.86000000000001</ele>
        <time>2025-04-29T15:03:44Z</time>
      </trkpt>
      <trkpt lat="43.432044982910156" lon="-6.35929998010397">
        <ele>354.86000000000001</ele>
        <time>2025-04-29T15:03:45Z</time>
      </trkpt>
      <trkpt lat="43.432085970416665" lon="-6.359464013949037">
        <ele>353.89999999999998</ele>
        <time>2025-04-29T15:03:46Z</time>
      </trkpt>
      <trkpt lat="43.432129975408316" lon="-6.359639028087258">
        <ele>353.42000000000002</ele>
        <time>2025-04-29T15:03:47Z</time>
      </trkpt>
      <trkpt lat="43.432239023968577" lon="-6.359989978373051">
        <ele>352.45999999999998</ele>
        <time>2025-04-29T15:03:49Z</time>
      </trkpt>
      <trkpt lat="43.432324016466737" lon="-6.36015996336937">
        <ele>351.98000000000002</ele>
        <time>2025-04-29T15:03:50Z</time>
      </trkpt>
      <trkpt lat="43.432431975379586" lon="-6.3603759650141">
        <ele>351.01999999999998</ele>
        <time>2025-04-29T15:03:51Z</time>
      </trkpt>
      <trkpt lat="43.432531971484423" lon="-6.360513009130955">
        <ele>350.54000000000002</ele>
        <time>2025-04-29T15:03:52Z</time>
      </trkpt>
      <trkpt lat="43.432668009772897" lon="-6.360697997733951">
        <ele>349.57999999999998</ele>
        <time>2025-04-29T15:03:53Z</time>
      </trkpt>
      <trkpt lat="43.433464039117098" lon="-6.361764008179307">
        <ele>341.88999999999999</ele>
        <time>2025-04-29T15:03:59Z</time>
      </trkpt>
      <trkpt lat="43.433560011908412" lon="-6.361971963196993">
        <ele>339.95999999999998</ele>
        <time>2025-04-29T15:04:00Z</time>
      </trkpt>
      <trkpt lat="43.433653973042965" lon="-6.362161980941892">
        <ele>338.51999999999998</ele>
        <time>2025-04-29T15:04:01Z</time>
      </trkpt>
      <trkpt lat="43.433740977197886" lon="-6.362306987866759">
        <ele>337.56</ele>
        <time>2025-04-29T15:04:02Z</time>
      </trkpt>
      <trkpt lat="43.433898976072669" lon="-6.36243699118495">
        <ele>336.60000000000002</ele>
        <time>2025-04-29T15:04:03Z</time>
      </trkpt>
      <trkpt lat="43.434035014361143" lon="-6.362547967582941">
        <ele>336.12</ele>
        <time>2025-04-29T15:04:04Z</time>
      </trkpt>
      <trkpt lat="43.434625016525388" lon="-6.36301601305604">
        <ele>334.19999999999999</ele>
        <time>2025-04-29T15:04:08Z</time>
      </trkpt>
      <trkpt lat="43.434771029278636" lon="-6.363122966140509">
        <ele>333.70999999999998</ele>
        <time>2025-04-29T15:04:09Z</time>
      </trkpt>
      <trkpt lat="43.434898015111685" lon="-6.363226985558868">
        <ele>333.23000000000002</ele>
        <time>2025-04-29T15:04:10Z</time>
      </trkpt>
      <trkpt lat="43.435272015631199" lon="-6.363503001630306">
        <ele>333.23000000000002</ele>
        <time>2025-04-29T15:04:13Z</time>
      </trkpt>
      <trkpt lat="43.435402018949389" lon="-6.363594029098749">
        <ele>332.75</ele>
        <time>2025-04-29T15:04:14Z</time>
      </trkpt>
      <trkpt lat="43.435530010610819" lon="-6.36368396691978">
        <ele>332.75</ele>
        <time>2025-04-29T15:04:15Z</time>
      </trkpt>
      <trkpt lat="43.435631012544036" lon="-6.363735012710095">
        <ele>332.75</ele>
        <time>2025-04-29T15:04:16Z</time>
      </trkpt>
      <trkpt lat="43.435757998377085" lon="-6.363766025751829">
        <ele>332.75</ele>
        <time>2025-04-29T15:04:17Z</time>
      </trkpt>
      <trkpt lat="43.435910968109965" lon="-6.363729983568192">
        <ele>332.26999999999998</ele>
        <time>2025-04-29T15:04:18Z</time>
      </trkpt>
      <trkpt lat="43.436122024431825" lon="-6.363680027425289">
        <ele>331.79000000000002</ele>
        <time>2025-04-29T15:04:19Z</time>
      </trkpt>
      <trkpt lat="43.436245992779732" lon="-6.363650020211935">
        <ele>330.82999999999998</ele>
        <time>2025-04-29T15:04:20Z</time>
      </trkpt>
      <trkpt lat="43.436723006889224" lon="-6.363529991358519">
        <ele>327.94999999999999</ele>
        <time>2025-04-29T15:04:22Z</time>
      </trkpt>
      <trkpt lat="43.436820991337299" lon="-6.363550024107099">
        <ele>326.5</ele>
        <time>2025-04-29T15:04:23Z</time>
      </trkpt>
      <trkpt lat="43.437010003253818" lon="-6.363587994128466">
        <ele>325.54000000000002</ele>
        <time>2025-04-29T15:04:24Z</time>
      </trkpt>
      <trkpt lat="43.437565974891186" lon="-6.363670974969864">
        <ele>322.18000000000001</ele>
        <time>2025-04-29T15:04:27Z</time>
      </trkpt>
      <trkpt lat="43.437720034271479" lon="-6.363680027425289">
        <ele>322.18000000000001</ele>
        <time>2025-04-29T15:04:28Z</time>
      </trkpt>
      <trkpt lat="43.437865041196346" lon="-6.363585982471705">
        <ele>322.18000000000001</ele>
        <time>2025-04-29T15:04:29Z</time>
      </trkpt>
      <trkpt lat="43.43800300732255" lon="-6.363487998023629">
        <ele>321.69999999999999</ele>
        <time>2025-04-29T15:04:30Z</time>
      </trkpt>
      <trkpt lat="43.438162012025714" lon="-6.363376015797257">
        <ele>321.22000000000003</ele>
        <time>2025-04-29T15:04:31Z</time>
      </trkpt>
      <trkpt lat="43.43832696788013" lon="-6.363251963630319">
        <ele>319.77999999999997</ele>
        <time>2025-04-29T15:04:32Z</time>
      </trkpt>
      <trkpt lat="43.438500976189971" lon="-6.363147022202611">
        <ele>318.81</ele>
        <time>2025-04-29T15:04:33Z</time>
      </trkpt>
      <trkpt lat="43.43866903334856" lon="-6.363052977249026">
        <ele>317.37</ele>
        <time>2025-04-29T15:04:34Z</time>
      </trkpt>
      <trkpt lat="43.439011014997959" lon="-6.362860025838018">
        <ele>314.49000000000001</ele>
        <time>2025-04-29T15:04:36Z</time>
      </trkpt>
      <trkpt lat="43.439173037186265" lon="-6.362837981432676">
        <ele>313.05000000000001</ele>
        <time>2025-04-29T15:04:37Z</time>
      </trkpt>
      <trkpt lat="43.439347967505455" lon="-6.362830018624663">
        <ele>311.12</ele>
        <time>2025-04-29T15:04:38Z</time>
      </trkpt>
      <trkpt lat="43.439513007178903" lon="-6.362821971997619">
        <ele>309.68000000000001</ele>
        <time>2025-04-29T15:04:39Z</time>
      </trkpt>
      <trkpt lat="43.439665976911783" lon="-6.362893972545862">
        <ele>307.75999999999999</ele>
        <time>2025-04-29T15:04:40Z</time>
      </trkpt>
      <trkpt lat="43.439827999100089" lon="-6.362971002236009">
        <ele>305.83999999999997</ele>
        <time>2025-04-29T15:04:41Z</time>
      </trkpt>
      <trkpt lat="43.439987003803253" lon="-6.363046020269394">
        <ele>304.88</ele>
        <time>2025-04-29T15:04:42Z</time>
      </trkpt>
      <trkpt lat="43.440140979364514" lon="-6.363119026646018">
        <ele>303.91000000000003</ele>
        <time>2025-04-29T15:04:43Z</time>
      </trkpt>
      <trkpt lat="43.440294032916427" lon="-6.363191027194262">
        <ele>302.47000000000003</ele>
        <time>2025-04-29T15:04:44Z</time>
      </trkpt>
      <trkpt lat="43.44045102596283" lon="-6.363265961408615">
        <ele>301.50999999999999</ele>
        <time>2025-04-29T15:04:45Z</time>
      </trkpt>
      <trkpt lat="43.440612964332104" lon="-6.363341985270381">
        <ele>300.55000000000001</ele>
        <time>2025-04-29T15:04:46Z</time>
      </trkpt>
      <trkpt lat="43.440780015662313" lon="-6.36340300552547">
        <ele>299.58999999999997</ele>
        <time>2025-04-29T15:04:47Z</time>
      </trkpt>
      <trkpt lat="43.440943965688348" lon="-6.363444998860359">
        <ele>298.14999999999998</ele>
        <time>2025-04-29T15:04:48Z</time>
      </trkpt>
      <trkpt lat="43.441236997023225" lon="-6.363504007458687">
        <ele>295.74000000000001</ele>
        <time>2025-04-29T15:04:50Z</time>
      </trkpt>
      <trkpt lat="43.441357025876641" lon="-6.363493027165532">
        <ele>294.77999999999997</ele>
        <time>2025-04-29T15:04:51Z</time>
      </trkpt>
      <trkpt lat="43.441421985626221" lon="-6.363486992195249">
        <ele>293.33999999999997</ele>
        <time>2025-04-29T15:04:52Z</time>
      </trkpt>
      <trkpt lat="43.441546959802508" lon="-6.363322036340833">
        <ele>289.97000000000003</ele>
        <time>2025-04-29T15:04:53Z</time>
      </trkpt>
      <trkpt lat="43.441550983116031" lon="-6.363316001370549">
        <ele>287.08999999999997</ele>
        <time>2025-04-29T15:04:54Z</time>
      </trkpt>
      <trkpt lat="43.441550983116031" lon="-6.363129001110792">
        <ele>286.13</ele>
        <time>2025-04-29T15:04:55Z</time>
      </trkpt>
      <trkpt lat="43.441550983116031" lon="-6.363122966140509">
        <ele>284.69</ele>
        <time>2025-04-29T15:04:56Z</time>
      </trkpt>
      <trkpt lat="43.441503960639238" lon="-6.36299698613584">
        <ele>283.25</ele>
        <time>2025-04-29T15:04:57Z</time>
      </trkpt>
      <trkpt lat="43.44146397896111" lon="-6.362922973930836">
        <ele>282.27999999999997</ele>
        <time>2025-04-29T15:04:58Z</time>
      </trkpt>
      <trkpt lat="43.441372029483318" lon="-6.362810991704464">
        <ele>280.83999999999997</ele>
        <time>2025-04-29T15:04:59Z</time>
      </trkpt>
      <trkpt lat="43.441271027550101" lon="-6.362684005871415">
        <ele>279.88</ele>
        <time>2025-04-29T15:05:00Z</time>
      </trkpt>
      <trkpt lat="43.441170025616884" lon="-6.362548973411322">
        <ele>277.95999999999998</ele>
        <time>2025-04-29T15:05:01Z</time>
      </trkpt>
      <trkpt lat="43.441062988713384" lon="-6.362369013950229">
        <ele>276.51999999999998</ele>
        <time>2025-04-29T15:05:02Z</time>
      </trkpt>
      <trkpt lat="43.440988976508379" lon="-6.362197017297149">
        <ele>275.06999999999999</ele>
        <time>2025-04-29T15:05:03Z</time>
      </trkpt>
      <trkpt lat="43.440957041457295" lon="-6.361967017874122">
        <ele>273.14999999999998</ele>
        <time>2025-04-29T15:05:04Z</time>
      </trkpt>
      <trkpt lat="43.440913036465645" lon="-6.361385984346271">
        <ele>268.35000000000002</ele>
        <time>2025-04-29T15:05:07Z</time>
      </trkpt>
      <trkpt lat="43.44088202342391" lon="-6.361224967986345">
        <ele>267.38</ele>
        <time>2025-04-29T15:05:08Z</time>
      </trkpt>
      <trkpt lat="43.440836006775498" lon="-6.361050037667155">
        <ele>265.94</ele>
        <time>2025-04-29T15:05:09Z</time>
      </trkpt>
      <trkpt lat="43.440780015662313" lon="-6.360913999378681">
        <ele>264.98000000000002</ele>
        <time>2025-04-29T15:05:10Z</time>
      </trkpt>
      <trkpt lat="43.440704997628927" lon="-6.360764969140291">
        <ele>263.54000000000002</ele>
        <time>2025-04-29T15:05:11Z</time>
      </trkpt>
      <trkpt lat="43.44062402844429" lon="-6.360667990520597">
        <ele>262.57999999999998</ele>
        <time>2025-04-29T15:05:12Z</time>
      </trkpt>
      <trkpt lat="43.440510034561157" lon="-6.360548967495561">
        <ele>261.62</ele>
        <time>2025-04-29T15:05:13Z</time>
      </trkpt>
      <trkpt lat="43.440393023192883" lon="-6.360426004976034">
        <ele>260.17000000000002</ele>
        <time>2025-04-29T15:05:14Z</time>
      </trkpt>
      <trkpt lat="43.440281040966511" lon="-6.360307987779379">
        <ele>258.73000000000002</ele>
        <time>2025-04-29T15:05:15Z</time>
      </trkpt>
      <trkpt lat="43.44019303098321" lon="-6.360122999176383">
        <ele>257.29000000000002</ele>
        <time>2025-04-29T15:05:16Z</time>
      </trkpt>
      <trkpt lat="43.440132010728121" lon="-6.359976986423135">
        <ele>255.84999999999999</ele>
        <time>2025-04-29T15:05:17Z</time>
      </trkpt>
      <trkpt lat="43.440082976594567" lon="-6.359799038618803">
        <ele>254.41</ele>
        <time>2025-04-29T15:05:18Z</time>
      </trkpt>
      <trkpt lat="43.440061016008258" lon="-6.35960198007524">
        <ele>252.96000000000001</ele>
        <time>2025-04-29T15:05:19Z</time>
      </trkpt>
      <trkpt lat="43.440061016008258" lon="-6.359396036714315">
        <ele>251.52000000000001</ele>
        <time>2025-04-29T15:05:20Z</time>
      </trkpt>
      <trkpt lat="43.440083982422948" lon="-6.359194032847881">
        <ele>250.56</ele>
        <time>2025-04-29T15:05:21Z</time>
      </trkpt>
      <trkpt lat="43.44010703265667" lon="-6.358994040638208">
        <ele>249.59999999999999</ele>
        <time>2025-04-29T15:05:22Z</time>
      </trkpt>
      <trkpt lat="43.440160006284714" lon="-6.358829000964761">
        <ele>248.16</ele>
        <time>2025-04-29T15:05:23Z</time>
      </trkpt>
      <trkpt lat="43.44023703597486" lon="-6.358646024018526">
        <ele>247.19999999999999</ele>
        <time>2025-04-29T15:05:24Z</time>
      </trkpt>
      <trkpt lat="43.4403230343014" lon="-6.358479978516698">
        <ele>245.27000000000001</ele>
        <time>2025-04-29T15:05:25Z</time>
      </trkpt>
      <trkpt lat="43.440434010699391" lon="-6.358332959935069">
        <ele>243.34999999999999</ele>
        <time>2025-04-29T15:05:26Z</time>
      </trkpt>
      <trkpt lat="43.440535012632608" lon="-6.358198011294007">
        <ele>241.91</ele>
        <time>2025-04-29T15:05:27Z</time>
      </trkpt>
      <trkpt lat="43.440607013180852" lon="-6.358101032674313">
        <ele>239.99000000000001</ele>
        <time>2025-04-29T15:05:28Z</time>
      </trkpt>
      <trkpt lat="43.440650012344122" lon="-6.357887964695692">
        <ele>238.53999999999999</ele>
        <time>2025-04-29T15:05:29Z</time>
      </trkpt>
      <trkpt lat="43.440670967102051" lon="-6.357780005782843">
        <ele>237.09999999999999</ele>
        <time>2025-04-29T15:05:30Z</time>
      </trkpt>
      <trkpt lat="43.440631991252303" lon="-6.357648996636272">
        <ele>236.13999999999999</ele>
        <time>2025-04-29T15:05:31Z</time>
      </trkpt>
      <trkpt lat="43.440607013180852" lon="-6.357565009966493">
        <ele>234.69999999999999</ele>
        <time>2025-04-29T15:05:32Z</time>
      </trkpt>
      <trkpt lat="43.440529983490705" lon="-6.357482029125094">
        <ele>233.74000000000001</ele>
        <time>2025-04-29T15:05:33Z</time>
      </trkpt>
      <trkpt lat="43.440439039841294" lon="-6.357383960857987">
        <ele>232.30000000000001</ele>
        <time>2025-04-29T15:05:34Z</time>
      </trkpt>
      <trkpt lat="43.44034600071609" lon="-6.35728295892477">
        <ele>231.33000000000001</ele>
        <time>2025-04-29T15:05:35Z</time>
      </trkpt>
      <trkpt lat="43.440327979624271" lon="-6.357265021651983">
        <ele>229.88999999999999</ele>
        <time>2025-04-29T15:05:36Z</time>
      </trkpt>
      <trkpt lat="43.440135028213263" lon="-6.356964027509093">
        <ele>228.93000000000001</ele>
        <time>2025-04-29T15:05:37Z</time>
      </trkpt>
      <trkpt lat="43.440108960494399" lon="-6.356840981170535">
        <ele>227.49000000000001</ele>
        <time>2025-04-29T15:05:38Z</time>
      </trkpt>
      <trkpt lat="43.440071996301413" lon="-6.356668984517455">
        <ele>226.53</ele>
        <time>2025-04-29T15:05:39Z</time>
      </trkpt>
      <trkpt lat="43.440052969381213" lon="-6.356289032846689">
        <ele>223.63999999999999</ele>
        <time>2025-04-29T15:05:41Z</time>
      </trkpt>
      <trkpt lat="43.440079037100077" lon="-6.356086023151875">
        <ele>222.19999999999999</ele>
        <time>2025-04-29T15:05:42Z</time>
      </trkpt>
      <trkpt lat="43.440203005447984" lon="-6.354504022747278">
        <ele>212.11000000000001</ele>
        <time>2025-04-29T15:05:50Z</time>
      </trkpt>
      <trkpt lat="43.440078031271696" lon="-6.353748980909586">
        <ele>207.30000000000001</ele>
        <time>2025-04-29T15:05:54Z</time>
      </trkpt>
      <trkpt lat="43.440049029886723" lon="-6.353315971791744">
        <ele>202.97999999999999</ele>
        <time>2025-04-29T15:05:57Z</time>
      </trkpt>
      <trkpt lat="43.440049029886723" lon="-6.353315971791744">
        <ele>201.53</ele>
        <time>2025-04-29T15:05:58Z</time>
      </trkpt>
      <trkpt lat="43.440092029049993" lon="-6.353230979293585">
        <ele>200.56999999999999</ele>
        <time>2025-04-29T15:05:59Z</time>
      </trkpt>
      <trkpt lat="43.440092029049993" lon="-6.353230979293585">
        <ele>199.61000000000001</ele>
        <time>2025-04-29T15:06:00Z</time>
      </trkpt>
      <trkpt lat="43.440166963264346" lon="-6.353217987343669">
        <ele>198.65000000000001</ele>
        <time>2025-04-29T15:06:01Z</time>
      </trkpt>
      <trkpt lat="43.440212979912758" lon="-6.353211030364037">
        <ele>197.21000000000001</ele>
        <time>2025-04-29T15:06:02Z</time>
      </trkpt>
      <trkpt lat="43.440221026539803" lon="-6.353209018707275">
        <ele>196.72999999999999</ele>
        <time>2025-04-29T15:06:03Z</time>
      </trkpt>
      <trkpt lat="43.440221026539803" lon="-6.353209018707275">
        <ele>195.77000000000001</ele>
        <time>2025-04-29T15:06:04Z</time>
      </trkpt>
      <trkpt lat="43.440249022096395" lon="-6.353247994557023">
        <ele>194.31999999999999</ele>
        <time>2025-04-29T15:06:05Z</time>
      </trkpt>
      <trkpt lat="43.44028296880424" lon="-6.353296022862196">
        <ele>193.36000000000001</ele>
        <time>2025-04-29T15:06:06Z</time>
      </trkpt>
      <trkpt lat="43.44032596796751" lon="-6.353356037288904">
        <ele>192.40000000000001</ele>
        <time>2025-04-29T15:06:07Z</time>
      </trkpt>
      <trkpt lat="43.440327979624271" lon="-6.353358970955014">
        <ele>191.44</ele>
        <time>2025-04-29T15:06:08Z</time>
      </trkpt>
      <trkpt lat="43.440355975180864" lon="-6.353466007858515">
        <ele>190</ele>
        <time>2025-04-29T15:06:09Z</time>
      </trkpt>
      <trkpt lat="43.440377013757825" lon="-6.353549994528294">
        <ele>188.56</ele>
        <time>2025-04-29T15:06:10Z</time>
      </trkpt>
      <trkpt lat="43.440418001264334" lon="-6.353707993403077">
        <ele>185.66999999999999</ele>
        <time>2025-04-29T15:06:11Z</time>
      </trkpt>
      <trkpt lat="43.440457982942462" lon="-6.353861968964338">
        <ele>183.27000000000001</ele>
        <time>2025-04-29T15:06:12Z</time>
      </trkpt>
      <trkpt lat="43.440564014017582" lon="-6.354635031893849">
        <ele>175.58000000000001</ele>
        <time>2025-04-29T15:06:18Z</time>
      </trkpt>
      <trkpt lat="43.440564014017582" lon="-6.355006014928222">
        <ele>174.13999999999999</ele>
        <time>2025-04-29T15:06:21Z</time>
      </trkpt>
      <trkpt lat="43.440564014017582" lon="-6.355857029557228">
        <ele>169.33000000000001</ele>
        <time>2025-04-29T15:06:27Z</time>
      </trkpt>
      <trkpt lat="43.441201960667968" lon="-6.356050986796618">
        <ele>167.88999999999999</ele>
        <time>2025-04-29T15:06:31Z</time>
      </trkpt>
      <trkpt lat="43.441427014768124" lon="-6.356115024536848">
        <ele>167.88999999999999</ele>
        <time>2025-04-29T15:06:33Z</time>
      </trkpt>
      <trkpt lat="43.441593982279301" lon="-6.356942988932133">
        <ele>170.28999999999999</ele>
        <time>2025-04-29T15:06:38Z</time>
      </trkpt>
      <trkpt lat="43.441616026684642" lon="-6.356995040550828">
        <ele>170.28999999999999</ele>
        <time>2025-04-29T15:06:39Z</time>
      </trkpt>
      <trkpt lat="43.441667994484305" lon="-6.357122026383877">
        <ele>170.28999999999999</ele>
        <time>2025-04-29T15:06:40Z</time>
      </trkpt>
      <trkpt lat="43.441744018346071" lon="-6.357308020815253">
        <ele>169.81</ele>
        <time>2025-04-29T15:06:41Z</time>
      </trkpt>
      <trkpt lat="43.441747035831213" lon="-6.357328975573182">
        <ele>169.33000000000001</ele>
        <time>2025-04-29T15:06:42Z</time>
      </trkpt>
      <trkpt lat="43.441767990589142" lon="-6.357488986104727">
        <ele>169.81</ele>
        <time>2025-04-29T15:06:43Z</time>
      </trkpt>
      <trkpt lat="43.44178500585258" lon="-6.357642961665988">
        <ele>169.81</ele>
        <time>2025-04-29T15:06:44Z</time>
      </trkpt>
      <trkpt lat="43.441760027781129" lon="-6.357810012996197">
        <ele>170.28999999999999</ele>
        <time>2025-04-29T15:06:45Z</time>
      </trkpt>
      <trkpt lat="43.441734965890646" lon="-6.357972035184503">
        <ele>170.77000000000001</ele>
        <time>2025-04-29T15:06:46Z</time>
      </trkpt>
      <trkpt lat="43.441650979220867" lon="-6.358437985181809">
        <ele>171.25</ele>
        <time>2025-04-29T15:06:49Z</time>
      </trkpt>
      <trkpt lat="43.441614015027881" lon="-6.35856899432838">
        <ele>171.25</ele>
        <time>2025-04-29T15:06:50Z</time>
      </trkpt>
      <trkpt lat="43.441404970362782" lon="-6.359137035906315">
        <ele>171.72999999999999</ele>
        <time>2025-04-29T15:06:56Z</time>
      </trkpt>
      <trkpt lat="43.441358031705022" lon="-6.359259998425841">
        <ele>171.72999999999999</ele>
        <time>2025-04-29T15:06:57Z</time>
      </trkpt>
      <trkpt lat="43.441358031705022" lon="-6.359324958175421">
        <ele>170.77000000000001</ele>
        <time>2025-04-29T15:06:58Z</time>
      </trkpt>
      <trkpt lat="43.441363982856274" lon="-6.359469965100288">
        <ele>169.81</ele>
        <time>2025-04-29T15:06:59Z</time>
      </trkpt>
      <trkpt lat="43.441444030031562" lon="-6.359688984230161">
        <ele>169.33000000000001</ele>
        <time>2025-04-29T15:07:00Z</time>
      </trkpt>
      <trkpt lat="43.441521981731057" lon="-6.359756961464882">
        <ele>168.84999999999999</ele>
        <time>2025-04-29T15:07:01Z</time>
      </trkpt>
      <trkpt lat="43.441617032513022" lon="-6.359840026125312">
        <ele>168.84999999999999</ele>
        <time>2025-04-29T15:07:02Z</time>
      </trkpt>
      <trkpt lat="43.44180797226727" lon="-6.360004981979728">
        <ele>169.33000000000001</ele>
        <time>2025-04-29T15:07:04Z</time>
      </trkpt>
      <trkpt lat="43.441898999735713" lon="-6.360085029155016">
        <ele>169.81</ele>
        <time>2025-04-29T15:07:05Z</time>
      </trkpt>
      <trkpt lat="43.441949961706996" lon="-6.360159041360021">
        <ele>169.81</ele>
        <time>2025-04-29T15:07:06Z</time>
      </trkpt>
      <trkpt lat="43.441990027204156" lon="-6.36028602719307">
        <ele>169.81</ele>
        <time>2025-04-29T15:07:07Z</time>
      </trkpt>
      <trkpt lat="43.442031014710665" lon="-6.360415024682879">
        <ele>170.77000000000001</ele>
        <time>2025-04-29T15:07:08Z</time>
      </trkpt>
      <trkpt lat="43.44206596724689" lon="-6.360574029386044">
        <ele>171.25</ele>
        <time>2025-04-29T15:07:09Z</time>
      </trkpt>
      <trkpt lat="43.44206596724689" lon="-6.360737979412079">
        <ele>171.72999999999999</ele>
        <time>2025-04-29T15:07:10Z</time>
      </trkpt>
      <trkpt lat="43.442073008045554" lon="-6.361021036282182">
        <ele>171.72999999999999</ele>
        <time>2025-04-29T15:07:12Z</time>
      </trkpt>
      <trkpt lat="43.442092034965754" lon="-6.361142992973328">
        <ele>171.72999999999999</ele>
        <time>2025-04-29T15:07:13Z</time>
      </trkpt>
      <trkpt lat="43.44210896641016" lon="-6.36125598102808">
        <ele>171.72999999999999</ele>
        <time>2025-04-29T15:07:14Z</time>
      </trkpt>
      <trkpt lat="43.442184990271926" lon="-6.361340973526239">
        <ele>171.72999999999999</ele>
        <time>2025-04-29T15:07:15Z</time>
      </trkpt>
      <trkpt lat="43.44228096306324" lon="-6.361449016258121">
        <ele>171.72999999999999</ele>
        <time>2025-04-29T15:07:16Z</time>
      </trkpt>
      <trkpt lat="43.442368973046541" lon="-6.361514981836081">
        <ele>171.72999999999999</ele>
        <time>2025-04-29T15:07:17Z</time>
      </trkpt>
      <trkpt lat="43.442481039091945" lon="-6.361596034839749">
        <ele>171.72999999999999</ele>
        <time>2025-04-29T15:07:18Z</time>
      </trkpt>
      <trkpt lat="43.442592015489936" lon="-6.361669963225722">
        <ele>171.72999999999999</ele>
        <time>2025-04-29T15:07:19Z</time>
      </trkpt>
      <trkpt lat="43.442696034908295" lon="-6.361740035936236">
        <ele>171.25</ele>
        <time>2025-04-29T15:07:20Z</time>
      </trkpt>
      <trkpt lat="43.442878006026149" lon="-6.361929969862104">
        <ele>171.25</ele>
        <time>2025-04-29T15:07:22Z</time>
      </trkpt>
      <trkpt lat="43.443114040419459" lon="-6.36224496178329">
        <ele>170.77000000000001</ele>
        <time>2025-04-29T15:07:25Z</time>
      </trkpt>
      <trkpt lat="43.44324697740376" lon="-6.362498011440039">
        <ele>170.28999999999999</ele>
        <time>2025-04-29T15:07:27Z</time>
      </trkpt>
      <trkpt lat="43.443397013470531" lon="-6.362830018624663">
        <ele>170.77000000000001</ele>
        <time>2025-04-29T15:07:30Z</time>
      </trkpt>
      <trkpt lat="43.443443030118942" lon="-6.362933032214642">
        <ele>170.77000000000001</ele>
        <time>2025-04-29T15:07:31Z</time>
      </trkpt>
      <trkpt lat="43.44350497238338" lon="-6.363011989742518">
        <ele>170.77000000000001</ele>
        <time>2025-04-29T15:07:32Z</time>
      </trkpt>
      <trkpt lat="43.443577978760004" lon="-6.363078961148858">
        <ele>170.28999999999999</ele>
        <time>2025-04-29T15:07:33Z</time>
      </trkpt>
      <trkpt lat="43.443645033985376" lon="-6.363139981403947">
        <ele>170.28999999999999</ele>
        <time>2025-04-29T15:07:34Z</time>
      </trkpt>
      <trkpt lat="43.443712005391717" lon="-6.363204019144177">
        <ele>170.77000000000001</ele>
        <time>2025-04-29T15:07:35Z</time>
      </trkpt>
      <trkpt lat="43.443778976798058" lon="-6.363282976672053">
        <ele>171.25</ele>
        <time>2025-04-29T15:07:36Z</time>
      </trkpt>
      <trkpt lat="43.443845026195049" lon="-6.363379033282399">
        <ele>171.72999999999999</ele>
        <time>2025-04-29T15:07:37Z</time>
      </trkpt>
      <trkpt lat="43.44389196485281" lon="-6.363482968881726">
        <ele>172.21000000000001</ele>
        <time>2025-04-29T15:07:38Z</time>
      </trkpt>
      <trkpt lat="43.444052981212735" lon="-6.363838026300073">
        <ele>173.16999999999999</ele>
        <time>2025-04-29T15:07:41Z</time>
      </trkpt>
      <trkpt lat="43.444111989811063" lon="-6.363966017961502">
        <ele>173.16999999999999</ele>
        <time>2025-04-29T15:07:42Z</time>
      </trkpt>
      <trkpt lat="43.444402003660798" lon="-6.364436997100711">
        <ele>175.09999999999999</ele>
        <time>2025-04-29T15:07:46Z</time>
      </trkpt>
      <trkpt lat="43.444481967017055" lon="-6.364532969892025">
        <ele>175.09999999999999</ele>
        <time>2025-04-29T15:07:47Z</time>
      </trkpt>
      <trkpt lat="43.444725964218378" lon="-6.364829018712044">
        <ele>176.06</ele>
        <time>2025-04-29T15:07:50Z</time>
      </trkpt>
      <trkpt lat="43.444898966699839" lon="-6.364989029243588">
        <ele>177.02000000000001</ele>
        <time>2025-04-29T15:07:52Z</time>
      </trkpt>
      <trkpt lat="43.44500700943172" lon="-6.365039991214871">
        <ele>177.5</ele>
        <time>2025-04-29T15:07:53Z</time>
      </trkpt>
      <trkpt lat="43.445110023021698" lon="-6.365089025348425">
        <ele>177.5</ele>
        <time>2025-04-29T15:07:54Z</time>
      </trkpt>
      <trkpt lat="43.445215970277786" lon="-6.365138981491327">
        <ele>177.97999999999999</ele>
        <time>2025-04-29T15:07:55Z</time>
      </trkpt>
      <trkpt lat="43.445329964160919" lon="-6.365212993696332">
        <ele>177.97999999999999</ele>
        <time>2025-04-29T15:07:56Z</time>
      </trkpt>
      <trkpt lat="43.445448987185955" lon="-6.365306032821536">
        <ele>178.46000000000001</ele>
        <time>2025-04-29T15:07:57Z</time>
      </trkpt>
      <trkpt lat="43.445592988282442" lon="-6.365428995341063">
        <ele>178.94</ele>
        <time>2025-04-29T15:07:58Z</time>
      </trkpt>
      <trkpt lat="43.445732966065407" lon="-6.365580037236214">
        <ele>178.94</ele>
        <time>2025-04-29T15:07:59Z</time>
      </trkpt>
      <trkpt lat="43.446743991225958" lon="-6.366705978289247">
        <ele>178.94</ele>
        <time>2025-04-29T15:08:06Z</time>
      </trkpt>
      <trkpt lat="43.446836024522781" lon="-6.366869006305933">
        <ele>178.94</ele>
        <time>2025-04-29T15:08:07Z</time>
      </trkpt>
      <trkpt lat="43.446921017020941" lon="-6.367019964382052">
        <ele>179.41999999999999</ele>
        <time>2025-04-29T15:08:08Z</time>
      </trkpt>
      <trkpt lat="43.446948006749153" lon="-6.367166982963681">
        <ele>179.41999999999999</ele>
        <time>2025-04-29T15:08:09Z</time>
      </trkpt>
      <trkpt lat="43.44696301035583" lon="-6.367338979616761">
        <ele>179.41999999999999</ele>
        <time>2025-04-29T15:08:10Z</time>
      </trkpt>
      <trkpt lat="43.446979019790888" lon="-6.36750603094697">
        <ele>179.41999999999999</ele>
        <time>2025-04-29T15:08:11Z</time>
      </trkpt>
      <trkpt lat="43.446994023397565" lon="-6.367670986801386">
        <ele>179.41999999999999</ele>
        <time>2025-04-29T15:08:12Z</time>
      </trkpt>
      <trkpt lat="43.447000980377197" lon="-6.367756985127926">
        <ele>179.41999999999999</ele>
        <time>2025-04-29T15:08:13Z</time>
      </trkpt>
      <trkpt lat="43.447097036987543" lon="-6.367869973182678">
        <ele>179.41999999999999</ele>
        <time>2025-04-29T15:08:14Z</time>
      </trkpt>
      <trkpt lat="43.44717800617218" lon="-6.367965023964644">
        <ele>179.41999999999999</ele>
        <time>2025-04-29T15:08:15Z</time>
      </trkpt>
      <trkpt lat="43.447270961478353" lon="-6.368081029504538">
        <ele>179.90000000000001</ele>
        <time>2025-04-29T15:08:16Z</time>
      </trkpt>
      <trkpt lat="43.447430972009897" lon="-6.368294013664126">
        <ele>179.90000000000001</ele>
        <time>2025-04-29T15:08:17Z</time>
      </trkpt>
      <trkpt lat="43.448031032457948" lon="-6.370053039863706">
        <ele>181.83000000000001</ele>
        <time>2025-04-29T15:08:25Z</time>
      </trkpt>
      <trkpt lat="43.448843993246555" lon="-6.372270975261927">
        <ele>184.22999999999999</ele>
        <time>2025-04-29T15:08:36Z</time>
      </trkpt>
      <trkpt lat="43.449690984562039" lon="-6.374497963115573">
        <ele>188.56</ele>
        <time>2025-04-29T15:08:46Z</time>
      </trkpt>
      <trkpt lat="43.449924001470208" lon="-6.375427013263106">
        <ele>190.47999999999999</ele>
        <time>2025-04-29T15:08:50Z</time>
      </trkpt>
      <trkpt lat="43.449941016733646" lon="-6.375617031008005">
        <ele>190.96000000000001</ele>
        <time>2025-04-29T15:08:51Z</time>
      </trkpt>
      <trkpt lat="43.449941016733646" lon="-6.375976027920842">
        <ele>190.96000000000001</ele>
        <time>2025-04-29T15:08:53Z</time>
      </trkpt>
      <trkpt lat="43.44997001811862" lon="-6.376175014302135">
        <ele>190.96000000000001</ele>
        <time>2025-04-29T15:08:54Z</time>
      </trkpt>
      <trkpt lat="43.449984015896916" lon="-6.376276016235352">
        <ele>190.96000000000001</ele>
        <time>2025-04-29T15:08:55Z</time>
      </trkpt>
      <trkpt lat="43.450082000344992" lon="-6.37651096098125">
        <ele>190.96000000000001</ele>
        <time>2025-04-29T15:08:56Z</time>
      </trkpt>
      <trkpt lat="43.450177973136306" lon="-6.376634007319808">
        <ele>190.47999999999999</ele>
        <time>2025-04-29T15:08:57Z</time>
      </trkpt>
      <trkpt lat="43.450289033353329" lon="-6.376761998981237">
        <ele>189.52000000000001</ele>
        <time>2025-04-29T15:08:58Z</time>
      </trkpt>
      <trkpt lat="43.450393974781036" lon="-6.376884039491415">
        <ele>189.03999999999999</ele>
        <time>2025-04-29T15:08:59Z</time>
      </trkpt>
      <trkpt lat="43.450499000027776" lon="-6.377005996182561">
        <ele>189.03999999999999</ele>
        <time>2025-04-29T15:09:00Z</time>
      </trkpt>
      <trkpt lat="43.450592961162329" lon="-6.37706802226603">
        <ele>189.03999999999999</ele>
        <time>2025-04-29T15:09:01Z</time>
      </trkpt>
      <trkpt lat="43.450715001672506" lon="-6.377148991450667">
        <ele>188.56</ele>
        <time>2025-04-29T15:09:02Z</time>
      </trkpt>
      <trkpt lat="43.450840981677175" lon="-6.377287041395903">
        <ele>187.11000000000001</ele>
        <time>2025-04-29T15:09:03Z</time>
      </trkpt>
      <trkpt lat="43.450951036065817" lon="-6.377430036664009">
        <ele>185.66999999999999</ele>
        <time>2025-04-29T15:09:04Z</time>
      </trkpt>
      <trkpt lat="43.451062012463808" lon="-6.377574959769845">
        <ele>184.71000000000001</ele>
        <time>2025-04-29T15:09:05Z</time>
      </trkpt>
      <trkpt lat="43.451167037710547" lon="-6.377710998058319">
        <ele>183.75</ele>
        <time>2025-04-29T15:09:06Z</time>
      </trkpt>
      <trkpt lat="43.451277008280158" lon="-6.377786016091704">
        <ele>182.78999999999999</ele>
        <time>2025-04-29T15:09:07Z</time>
      </trkpt>
      <trkpt lat="43.451379016041756" lon="-6.377843013033271">
        <ele>181.83000000000001</ele>
        <time>2025-04-29T15:09:08Z</time>
      </trkpt>
      <trkpt lat="43.451533997431397" lon="-6.377854999154806">
        <ele>180.87</ele>
        <time>2025-04-29T15:09:09Z</time>
      </trkpt>
      <trkpt lat="43.451680010184646" lon="-6.377865979447961">
        <ele>180.38</ele>
        <time>2025-04-29T15:09:10Z</time>
      </trkpt>
      <trkpt lat="43.451829962432384" lon="-6.377877965569496">
        <ele>179.41999999999999</ele>
        <time>2025-04-29T15:09:11Z</time>
      </trkpt>
      <trkpt lat="43.451985027641058" lon="-6.377890035510063">
        <ele>178.46000000000001</ele>
        <time>2025-04-29T15:09:12Z</time>
      </trkpt>
      <trkpt lat="43.452460030093789" lon="-6.37792699970305">
        <ele>175.58000000000001</ele>
        <time>2025-04-29T15:09:15Z</time>
      </trkpt>
      <trkpt lat="43.452779967337847" lon="-6.377870002761483">
        <ele>173.66</ele>
        <time>2025-04-29T15:09:17Z</time>
      </trkpt>
      <trkpt lat="43.452922962605953" lon="-6.377843013033271">
        <ele>172.69</ele>
        <time>2025-04-29T15:09:18Z</time>
      </trkpt>
      <trkpt lat="43.453056989237666" lon="-6.377868996933103">
        <ele>171.72999999999999</ele>
        <time>2025-04-29T15:09:19Z</time>
      </trkpt>
      <trkpt lat="43.453137958422303" lon="-6.37788500636816">
        <ele>170.77000000000001</ele>
        <time>2025-04-29T15:09:20Z</time>
      </trkpt>
      <trkpt lat="43.453251030296087" lon="-6.378022972494364">
        <ele>169.81</ele>
        <time>2025-04-29T15:09:21Z</time>
      </trkpt>
      <trkpt lat="43.453331999480724" lon="-6.378121040761471">
        <ele>168.84999999999999</ele>
        <time>2025-04-29T15:09:22Z</time>
      </trkpt>
      <trkpt lat="43.453361000865698" lon="-6.378255989402533">
        <ele>168.84999999999999</ele>
        <time>2025-04-29T15:09:23Z</time>
      </trkpt>
      <trkpt lat="43.453399976715446" lon="-6.378431003540754">
        <ele>168.37</ele>
        <time>2025-04-29T15:09:24Z</time>
      </trkpt>
      <trkpt lat="43.4534299839288" lon="-6.378610040992498">
        <ele>168.37</ele>
        <time>2025-04-29T15:09:25Z</time>
      </trkpt>
      <trkpt lat="43.453456973657012" lon="-6.378815984353423">
        <ele>167.88999999999999</ele>
        <time>2025-04-29T15:09:26Z</time>
      </trkpt>
      <trkpt lat="43.453483963385224" lon="-6.37902201153338">
        <ele>167.88999999999999</ele>
        <time>2025-04-29T15:09:27Z</time>
      </trkpt>
      <trkpt lat="43.453653026372194" lon="-6.3798170350492">
        <ele>167.41</ele>
        <time>2025-04-29T15:09:31Z</time>
      </trkpt>
      <trkpt lat="43.453732989728451" lon="-6.38005499728024">
        <ele>167.41</ele>
        <time>2025-04-29T15:09:32Z</time>
      </trkpt>
      <trkpt lat="43.453801972791553" lon="-6.380261024460197">
        <ele>167.41</ele>
        <time>2025-04-29T15:09:33Z</time>
      </trkpt>
      <trkpt lat="43.453872967511415" lon="-6.380475014448166">
        <ele>167.41</ele>
        <time>2025-04-29T15:09:34Z</time>
      </trkpt>
      <trkpt lat="43.453944968059659" lon="-6.380692021921277">
        <ele>167.41</ele>
        <time>2025-04-29T15:09:35Z</time>
      </trkpt>
      <trkpt lat="43.454026021063328" lon="-6.380908023566008">
        <ele>167.41</ele>
        <time>2025-04-29T15:09:36Z</time>
      </trkpt>
      <trkpt lat="43.454208998009562" lon="-6.381291998550296">
        <ele>167.41</ele>
        <time>2025-04-29T15:09:38Z</time>
      </trkpt>
      <trkpt lat="43.454294996336102" lon="-6.38147396966815">
        <ele>167.41</ele>
        <time>2025-04-29T15:09:39Z</time>
      </trkpt>
      <trkpt lat="43.454377977177501" lon="-6.38164596632123">
        <ele>167.41</ele>
        <time>2025-04-29T15:09:40Z</time>
      </trkpt>
      <trkpt lat="43.45448300242424" lon="-6.381799019873142">
        <ele>167.41</ele>
        <time>2025-04-29T15:09:41Z</time>
      </trkpt>
      <trkpt lat="43.454592972993851" lon="-6.381899015977979">
        <ele>167.88999999999999</ele>
        <time>2025-04-29T15:09:42Z</time>
      </trkpt>
      <trkpt lat="43.454708978533745" lon="-6.381975039839745">
        <ele>168.37</ele>
        <time>2025-04-29T15:09:43Z</time>
      </trkpt>
      <trkpt lat="43.454836970195174" lon="-6.382038993760943">
        <ele>168.84999999999999</ele>
        <time>2025-04-29T15:09:44Z</time>
      </trkpt>
      <trkpt lat="43.454975020140409" lon="-6.382070006802678">
        <ele>168.84999999999999</ele>
        <time>2025-04-29T15:09:45Z</time>
      </trkpt>
      <trkpt lat="43.455134024843574" lon="-6.382037987932563">
        <ele>168.84999999999999</ele>
        <time>2025-04-29T15:09:46Z</time>
      </trkpt>
      <trkpt lat="43.455283977091312" lon="-6.381984008476138">
        <ele>169.33000000000001</ele>
        <time>2025-04-29T15:09:47Z</time>
      </trkpt>
      <trkpt lat="43.455391013994813" lon="-6.381862973794341">
        <ele>169.33000000000001</ele>
        <time>2025-04-29T15:09:48Z</time>
      </trkpt>
      <trkpt lat="43.455601986497641" lon="-6.381625011563301">
        <ele>168.37</ele>
        <time>2025-04-29T15:09:50Z</time>
      </trkpt>
      <trkpt lat="43.455778006464243" lon="-6.381426025182009">
        <ele>167.88999999999999</ele>
        <time>2025-04-29T15:09:51Z</time>
      </trkpt>
      <trkpt lat="43.455912033095956" lon="-6.381371039897203">
        <ele>167.88999999999999</ele>
        <time>2025-04-29T15:09:52Z</time>
      </trkpt>
      <trkpt lat="43.456581998616457" lon="-6.381415966898203">
        <ele>170.77000000000001</ele>
        <time>2025-04-29T15:09:57Z</time>
      </trkpt>
      <trkpt lat="43.456651987507939" lon="-6.381469024345279">
        <ele>170.77000000000001</ele>
        <time>2025-04-29T15:09:58Z</time>
      </trkpt>
      <trkpt lat="43.456704039126635" lon="-6.381535995751619">
        <ele>170.28999999999999</ele>
        <time>2025-04-29T15:09:59Z</time>
      </trkpt>
      <trkpt lat="43.456771010532975" lon="-6.381654012948275">
        <ele>170.28999999999999</ele>
        <time>2025-04-29T15:10:00Z</time>
      </trkpt>
      <trkpt lat="43.456839993596077" lon="-6.381776975467801">
        <ele>170.28999999999999</ele>
        <time>2025-04-29T15:10:01Z</time>
      </trkpt>
      <trkpt lat="43.45693102106452" lon="-6.381988031789661">
        <ele>169.33000000000001</ele>
        <time>2025-04-29T15:10:03Z</time>
      </trkpt>
      <trkpt lat="43.456978965550661" lon="-6.382113005965948">
        <ele>168.37</ele>
        <time>2025-04-29T15:10:04Z</time>
      </trkpt>
      <trkpt lat="43.456972008571029" lon="-6.382230017334223">
        <ele>167.88999999999999</ele>
        <time>2025-04-29T15:10:05Z</time>
      </trkpt>
      <trkpt lat="43.456963039934635" lon="-6.382388016209006">
        <ele>167.41</ele>
        <time>2025-04-29T15:10:06Z</time>
      </trkpt>
      <trkpt lat="43.45695398747921" lon="-6.382544003427029">
        <ele>167.88999999999999</ele>
        <time>2025-04-29T15:10:07Z</time>
      </trkpt>
      <trkpt lat="43.456944013014436" lon="-6.382708959281445">
        <ele>168.37</ele>
        <time>2025-04-29T15:10:08Z</time>
      </trkpt>
      <trkpt lat="43.4569320268929" lon="-6.382883973419666">
        <ele>168.84999999999999</ele>
        <time>2025-04-29T15:10:09Z</time>
      </trkpt>
      <trkpt lat="43.456653999164701" lon="-6.384272016584873">
        <ele>174.13999999999999</ele>
        <time>2025-04-29T15:10:17Z</time>
      </trkpt>
      <trkpt lat="43.456572024151683" lon="-6.384576028212905">
        <ele>175.09999999999999</ele>
        <time>2025-04-29T15:10:19Z</time>
      </trkpt>
      <trkpt lat="43.456487031653523" lon="-6.38488800264895">
        <ele>176.06</ele>
        <time>2025-04-29T15:10:21Z</time>
      </trkpt>
      <trkpt lat="43.456443026661873" lon="-6.385052036494017">
        <ele>176.53999999999999</ele>
        <time>2025-04-29T15:10:22Z</time>
      </trkpt>
      <trkpt lat="43.456443026661873" lon="-6.385287987068296">
        <ele>176.06</ele>
        <time>2025-04-29T15:10:23Z</time>
      </trkpt>
      <trkpt lat="43.45648099668324" lon="-6.385388989001513">
        <ele>175.58000000000001</ele>
        <time>2025-04-29T15:10:24Z</time>
      </trkpt>
      <trkpt lat="43.456632038578391" lon="-6.385548999533057">
        <ele>175.58000000000001</ele>
        <time>2025-04-29T15:10:25Z</time>
      </trkpt>
      <trkpt lat="43.45678199082613" lon="-6.385542964562774">
        <ele>175.09999999999999</ele>
        <time>2025-04-29T15:10:26Z</time>
      </trkpt>
      <trkpt lat="43.456881986930966" lon="-6.385481022298336">
        <ele>174.62</ele>
        <time>2025-04-29T15:10:27Z</time>
      </trkpt>
      <trkpt lat="43.456992041319609" lon="-6.385412039235234">
        <ele>174.13999999999999</ele>
        <time>2025-04-29T15:10:28Z</time>
      </trkpt>
      <trkpt lat="43.457759991288185" lon="-6.38491096906364">
        <ele>174.13999999999999</ele>
        <time>2025-04-29T15:10:33Z</time>
      </trkpt>
      <trkpt lat="43.457966018468142" lon="-6.384880961850286">
        <ele>174.13999999999999</ele>
        <time>2025-04-29T15:10:35Z</time>
      </trkpt>
      <trkpt lat="43.458170033991337" lon="-6.384928990155459">
        <ele>174.13999999999999</ele>
        <time>2025-04-29T15:10:36Z</time>
      </trkpt>
      <trkpt lat="43.458342030644417" lon="-6.384970983490348">
        <ele>174.13999999999999</ele>
        <time>2025-04-29T15:10:37Z</time>
      </trkpt>
      <trkpt lat="43.45850296318531" lon="-6.385009037330747">
        <ele>174.13999999999999</ele>
        <time>2025-04-29T15:10:38Z</time>
      </trkpt>
      <trkpt lat="43.458666997030377" lon="-6.385122025385499">
        <ele>174.13999999999999</ele>
        <time>2025-04-29T15:10:39Z</time>
      </trkpt>
      <trkpt lat="43.458837987855077" lon="-6.385240964591503">
        <ele>173.66</ele>
        <time>2025-04-29T15:10:40Z</time>
      </trkpt>
      <trkpt lat="43.459282983094454" lon="-6.385478004813194">
        <ele>173.16999999999999</ele>
        <time>2025-04-29T15:10:43Z</time>
      </trkpt>
      <trkpt lat="43.45940200611949" lon="-6.385507006198168">
        <ele>173.16999999999999</ele>
        <time>2025-04-29T15:10:44Z</time>
      </trkpt>
      <trkpt lat="43.459623036906123" lon="-6.385562997311354">
        <ele>173.66</ele>
        <time>2025-04-29T15:10:46Z</time>
      </trkpt>
      <trkpt lat="43.459687996655703" lon="-6.385629968717694">
        <ele>173.66</ele>
        <time>2025-04-29T15:10:47Z</time>
      </trkpt>
      <trkpt lat="43.459767960011959" lon="-6.385733988136053">
        <ele>173.66</ele>
        <time>2025-04-29T15:10:48Z</time>
      </trkpt>
      <trkpt lat="43.45985496416688" lon="-6.385845970362425">
        <ele>173.66</ele>
        <time>2025-04-29T15:10:49Z</time>
      </trkpt>
      <trkpt lat="43.459888994693756" lon="-6.385965999215841">
        <ele>173.66</ele>
        <time>2025-04-29T15:10:50Z</time>
      </trkpt>
      <trkpt lat="43.459932999685407" lon="-6.386115029454231">
        <ele>173.66</ele>
        <time>2025-04-29T15:10:51Z</time>
      </trkpt>
      <trkpt lat="43.460049005225301" lon="-6.386525994166732">
        <ele>175.09999999999999</ele>
        <time>2025-04-29T15:10:54Z</time>
      </trkpt>
      <trkpt lat="43.460069037973881" lon="-6.386811984702945">
        <ele>176.53999999999999</ele>
        <time>2025-04-29T15:10:56Z</time>
      </trkpt>
      <trkpt lat="43.460030984133482" lon="-6.386979036033154">
        <ele>177.02000000000001</ele>
        <time>2025-04-29T15:10:57Z</time>
      </trkpt>
      <trkpt lat="43.459995025768876" lon="-6.387139968574047">
        <ele>177.97999999999999</ele>
        <time>2025-04-29T15:10:58Z</time>
      </trkpt>
      <trkpt lat="43.459879020228982" lon="-6.387434005737305">
        <ele>179.41999999999999</ele>
        <time>2025-04-29T15:11:00Z</time>
      </trkpt>
      <trkpt lat="43.459800984710455" lon="-6.387572977691889">
        <ele>180.38</ele>
        <time>2025-04-29T15:11:01Z</time>
      </trkpt>
      <trkpt lat="43.459712974727154" lon="-6.387699963524938">
        <ele>181.34999999999999</ele>
        <time>2025-04-29T15:11:02Z</time>
      </trkpt>
      <trkpt lat="43.459604009985924" lon="-6.387796020135284">
        <ele>182.31</ele>
        <time>2025-04-29T15:11:03Z</time>
      </trkpt>
      <trkpt lat="43.459493033587933" lon="-6.387894004583359">
        <ele>183.27000000000001</ele>
        <time>2025-04-29T15:11:04Z</time>
      </trkpt>
      <trkpt lat="43.459380967542529" lon="-6.387991989031434">
        <ele>183.75</ele>
        <time>2025-04-29T15:11:05Z</time>
      </trkpt>
      <trkpt lat="43.459275020286441" lon="-6.388086033985019">
        <ele>184.71000000000001</ele>
        <time>2025-04-29T15:11:06Z</time>
      </trkpt>
      <trkpt lat="43.45921098254621" lon="-6.388142025098205">
        <ele>185.19</ele>
        <time>2025-04-29T15:11:07Z</time>
      </trkpt>
      <trkpt lat="43.459147028625011" lon="-6.388291977345944">
        <ele>185.66999999999999</ele>
        <time>2025-04-29T15:11:08Z</time>
      </trkpt>
      <trkpt lat="43.459147028625011" lon="-6.388398008421063">
        <ele>185.66999999999999</ele>
        <time>2025-04-29T15:11:09Z</time>
      </trkpt>
      <trkpt lat="43.45916697755456" lon="-6.388531029224396">
        <ele>185.19</ele>
        <time>2025-04-29T15:11:10Z</time>
      </trkpt>
      <trkpt lat="43.459221962839365" lon="-6.388706965371966">
        <ele>184.71000000000001</ele>
        <time>2025-04-29T15:11:11Z</time>
      </trkpt>
      <trkpt lat="43.459349032491446" lon="-6.38924902305007">
        <ele>184.71000000000001</ele>
        <time>2025-04-29T15:11:14Z</time>
      </trkpt>
      <trkpt lat="43.45935900695622" lon="-6.389435017481446">
        <ele>184.71000000000001</ele>
        <time>2025-04-29T15:11:15Z</time>
      </trkpt>
      <trkpt lat="43.459337968379259" lon="-6.389597039669752">
        <ele>184.71000000000001</ele>
        <time>2025-04-29T15:11:16Z</time>
      </trkpt>
      <trkpt lat="43.45929597504437" lon="-6.389737017452717">
        <ele>184.71000000000001</ele>
        <time>2025-04-29T15:11:17Z</time>
      </trkpt>
      <trkpt lat="43.459201008081436" lon="-6.389855034649372">
        <ele>184.71000000000001</ele>
        <time>2025-04-29T15:11:18Z</time>
      </trkpt>
      <trkpt lat="43.459105035290122" lon="-6.389974979683757">
        <ele>184.71000000000001</ele>
        <time>2025-04-29T15:11:19Z</time>
      </trkpt>
      <trkpt lat="43.459009984508157" lon="-6.390094002708793">
        <ele>184.71000000000001</ele>
        <time>2025-04-29T15:11:20Z</time>
      </trkpt>
      <trkpt lat="43.458900013938546" lon="-6.390380999073386">
        <ele>184.71000000000001</ele>
        <time>2025-04-29T15:11:22Z</time>
      </trkpt>
      <trkpt lat="43.458907976746559" lon="-6.390470014885068">
        <ele>184.71000000000001</ele>
        <time>2025-04-29T15:11:23Z</time>
      </trkpt>
      <trkpt lat="43.458958016708493" lon="-6.39060596935451">
        <ele>184.22999999999999</ele>
        <time>2025-04-29T15:11:24Z</time>
      </trkpt>
      <trkpt lat="43.459006967023015" lon="-6.390680987387896">
        <ele>183.75</ele>
        <time>2025-04-29T15:11:25Z</time>
      </trkpt>
      <trkpt lat="43.459103023633361" lon="-6.390765979886055">
        <ele>182.78999999999999</ele>
        <time>2025-04-29T15:11:26Z</time>
      </trkpt>
      <trkpt lat="43.459630999714136" lon="-6.391289010643959">
        <ele>178.94</ele>
        <time>2025-04-29T15:11:31Z</time>
      </trkpt>
      <trkpt lat="43.459724960848689" lon="-6.391427982598543">
        <ele>177.97999999999999</ele>
        <time>2025-04-29T15:11:32Z</time>
      </trkpt>
      <trkpt lat="43.459872985258698" lon="-6.391767030581832">
        <ele>176.06</ele>
        <time>2025-04-29T15:11:34Z</time>
      </trkpt>
      <trkpt lat="43.459940040484071" lon="-6.392198028042913">
        <ele>175.09999999999999</ele>
        <time>2025-04-29T15:11:37Z</time>
      </trkpt>
      <trkpt lat="43.459910033270717" lon="-6.392390979453921">
        <ele>175.09999999999999</ele>
        <time>2025-04-29T15:11:38Z</time>
      </trkpt>
      <trkpt lat="43.459884971380234" lon="-6.392551995813847">
        <ele>174.62</ele>
        <time>2025-04-29T15:11:39Z</time>
      </trkpt>
      <trkpt lat="43.459782041609287" lon="-6.392813008278608">
        <ele>174.13999999999999</ele>
        <time>2025-04-29T15:11:41Z</time>
      </trkpt>
      <trkpt lat="43.459387002512813" lon="-6.393584981560707">
        <ele>172.69</ele>
        <time>2025-04-29T15:11:47Z</time>
      </trkpt>
      <trkpt lat="43.459365963935852" lon="-6.393737029284239">
        <ele>171.72999999999999</ele>
        <time>2025-04-29T15:11:48Z</time>
      </trkpt>
      <trkpt lat="43.459395971149206" lon="-6.393860997632146">
        <ele>170.77000000000001</ele>
        <time>2025-04-29T15:11:49Z</time>
      </trkpt>
      <trkpt lat="43.459442993625998" lon="-6.393963005393744">
        <ele>169.81</ele>
        <time>2025-04-29T15:11:50Z</time>
      </trkpt>
      <trkpt lat="43.459495967254043" lon="-6.394075993448496">
        <ele>169.33000000000001</ele>
        <time>2025-04-29T15:11:51Z</time>
      </trkpt>
      <trkpt lat="43.459636028856039" lon="-6.394327031448484">
        <ele>168.84999999999999</ele>
        <time>2025-04-29T15:11:53Z</time>
      </trkpt>
      <trkpt lat="43.459706017747521" lon="-6.394456028938294">
        <ele>168.84999999999999</ele>
        <time>2025-04-29T15:11:54Z</time>
      </trkpt>
      <trkpt lat="43.459753962233663" lon="-6.394608998671174">
        <ele>168.37</ele>
        <time>2025-04-29T15:11:55Z</time>
      </trkpt>
      <trkpt lat="43.460061997175217" lon="-6.395454984158278">
        <ele>167.88999999999999</ele>
        <time>2025-04-29T15:12:00Z</time>
      </trkpt>
      <trkpt lat="43.460161993280053" lon="-6.395627986639738">
        <ele>167.88999999999999</ele>
        <time>2025-04-29T15:12:01Z</time>
      </trkpt>
      <trkpt lat="43.460290990769863" lon="-6.395785985514522">
        <ele>167.41</ele>
        <time>2025-04-29T15:12:02Z</time>
      </trkpt>
      <trkpt lat="43.4603909868747" lon="-6.39591003768146">
        <ele>166.93000000000001</ele>
        <time>2025-04-29T15:12:03Z</time>
      </trkpt>
      <trkpt lat="43.460549991577864" lon="-6.395973991602659">
        <ele>166.93000000000001</ele>
        <time>2025-04-29T15:12:04Z</time>
      </trkpt>
      <trkpt lat="43.460705978795886" lon="-6.39603802934289">
        <ele>166.44999999999999</ele>
        <time>2025-04-29T15:12:05Z</time>
      </trkpt>
      <trkpt lat="43.460873030126095" lon="-6.396106006577611">
        <ele>165.96000000000001</ele>
        <time>2025-04-29T15:12:06Z</time>
      </trkpt>
      <trkpt lat="43.461033962666988" lon="-6.39617096632719">
        <ele>165.47999999999999</ele>
        <time>2025-04-29T15:12:07Z</time>
      </trkpt>
      <trkpt lat="43.461172012612224" lon="-6.396261993795633">
        <ele>164.52000000000001</ele>
        <time>2025-04-29T15:12:08Z</time>
      </trkpt>
      <trkpt lat="43.46127100288868" lon="-6.39633902348578">
        <ele>164.03999999999999</ele>
        <time>2025-04-29T15:12:09Z</time>
      </trkpt>
      <trkpt lat="43.461318025365472" lon="-6.396514037624002">
        <ele>163.56</ele>
        <time>2025-04-29T15:12:10Z</time>
      </trkpt>
      <trkpt lat="43.461354989558458" lon="-6.39668402262032">
        <ele>162.59999999999999</ele>
        <time>2025-04-29T15:12:11Z</time>
      </trkpt>
      <trkpt lat="43.46133696846664" lon="-6.396887032315135">
        <ele>162.12</ele>
        <time>2025-04-29T15:12:12Z</time>
      </trkpt>
      <trkpt lat="43.46131400205195" lon="-6.397153995931149">
        <ele>161.16</ele>
        <time>2025-04-29T15:12:13Z</time>
      </trkpt>
      <trkpt lat="43.461283994838595" lon="-6.39735097065568">
        <ele>160.68000000000001</ele>
        <time>2025-04-29T15:12:14Z</time>
      </trkpt>
      <trkpt lat="43.461248036473989" lon="-6.39758599922061">
        <ele>159.72</ele>
        <time>2025-04-29T15:12:15Z</time>
      </trkpt>
      <trkpt lat="43.461213000118732" lon="-6.397819016128779">
        <ele>159.24000000000001</ele>
        <time>2025-04-29T15:12:16Z</time>
      </trkpt>
      <trkpt lat="43.461148040369153" lon="-6.397980032488704">
        <ele>158.75</ele>
        <time>2025-04-29T15:12:17Z</time>
      </trkpt>
      <trkpt lat="43.461077967658639" lon="-6.398119004443288">
        <ele>157.78999999999999</ele>
        <time>2025-04-29T15:12:18Z</time>
      </trkpt>
      <trkpt lat="43.461015019565821" lon="-6.398226041346788">
        <ele>157.31</ele>
        <time>2025-04-29T15:12:19Z</time>
      </trkpt>
      <trkpt lat="43.460913011804223" lon="-6.398326959460974">
        <ele>156.83000000000001</ele>
        <time>2025-04-29T15:12:20Z</time>
      </trkpt>
      <trkpt lat="43.460813015699387" lon="-6.398411029949784">
        <ele>155.87</ele>
        <time>2025-04-29T15:12:21Z</time>
      </trkpt>
      <trkpt lat="43.460514033213258" lon="-6.398614039644599">
        <ele>154.43000000000001</ele>
        <time>2025-04-29T15:12:24Z</time>
      </trkpt>
      <trkpt lat="43.460417976602912" lon="-6.398677993565798">
        <ele>153.47</ele>
        <time>2025-04-29T15:12:25Z</time>
      </trkpt>
      <trkpt lat="43.460227958858013" lon="-6.398806991055608">
        <ele>152.50999999999999</ele>
        <time>2025-04-29T15:12:27Z</time>
      </trkpt>
      <trkpt lat="43.46013399772346" lon="-6.398871028795838">
        <ele>151.53999999999999</ele>
        <time>2025-04-29T15:12:28Z</time>
      </trkpt>
      <trkpt lat="43.46006702631712" lon="-6.398955015465617">
        <ele>151.06</ele>
        <time>2025-04-29T15:12:29Z</time>
      </trkpt>
      <trkpt lat="43.459994019940495" lon="-6.39904503710568">
        <ele>150.58000000000001</ele>
        <time>2025-04-29T15:12:30Z</time>
      </trkpt>
      <trkpt lat="43.459943979978561" lon="-6.39913396909833">
        <ele>150.09999999999999</ele>
        <time>2025-04-29T15:12:31Z</time>
      </trkpt>
      <trkpt lat="43.459897041320801" lon="-6.399258021265268">
        <ele>149.13999999999999</ele>
        <time>2025-04-29T15:12:32Z</time>
      </trkpt>
      <trkpt lat="43.459851024672389" lon="-6.399380983784795">
        <ele>148.66</ele>
        <time>2025-04-29T15:12:33Z</time>
      </trkpt>
      <trkpt lat="43.45983300358057" lon="-6.399488020688295">
        <ele>148.18000000000001</ele>
        <time>2025-04-29T15:12:34Z</time>
      </trkpt>
      <trkpt lat="43.45983300358057" lon="-6.399643002077937">
        <ele>146.74000000000001</ele>
        <time>2025-04-29T15:12:35Z</time>
      </trkpt>
      <trkpt lat="43.459877008572221" lon="-6.399804018437862">
        <ele>145.78</ele>
        <time>2025-04-29T15:12:36Z</time>
      </trkpt>
      <trkpt lat="43.459923025220633" lon="-6.399910971522331">
        <ele>144.81999999999999</ele>
        <time>2025-04-29T15:12:37Z</time>
      </trkpt>
      <trkpt lat="43.46000500023365" lon="-6.400010967627168">
        <ele>144.81999999999999</ele>
        <time>2025-04-29T15:12:38Z</time>
      </trkpt>
      <trkpt lat="43.46009099856019" lon="-6.400115992873907">
        <ele>144.34</ele>
        <time>2025-04-29T15:12:39Z</time>
      </trkpt>
      <trkpt lat="43.460187977179885" lon="-6.400162009522319">
        <ele>144.34</ele>
        <time>2025-04-29T15:12:40Z</time>
      </trkpt>
      <trkpt lat="43.460293002426624" lon="-6.400211965665221">
        <ele>144.81999999999999</ele>
        <time>2025-04-29T15:12:41Z</time>
      </trkpt>
      <trkpt lat="43.460527025163174" lon="-6.400324031710625">
        <ele>144.81999999999999</ele>
        <time>2025-04-29T15:12:43Z</time>
      </trkpt>
      <trkpt lat="43.461233032867312" lon="-6.400826023891568">
        <ele>143.37</ele>
        <time>2025-04-29T15:12:49Z</time>
      </trkpt>
      <trkpt lat="43.462107013911009" lon="-6.401618029922247">
        <ele>138.56999999999999</ele>
        <time>2025-04-29T15:12:57Z</time>
      </trkpt>
      <trkpt lat="43.462188988924026" lon="-6.401752978563309">
        <ele>137.61000000000001</ele>
        <time>2025-04-29T15:12:58Z</time>
      </trkpt>
      <trkpt lat="43.462300971150398" lon="-6.401896979659796">
        <ele>137.13</ele>
        <time>2025-04-29T15:12:59Z</time>
      </trkpt>
      <trkpt lat="43.462368026375771" lon="-6.402014996856451">
        <ele>136.63999999999999</ele>
        <time>2025-04-29T15:13:00Z</time>
      </trkpt>
      <trkpt lat="43.462444972246885" lon="-6.402152962982655">
        <ele>135.68000000000001</ele>
        <time>2025-04-29T15:13:01Z</time>
      </trkpt>
      <trkpt lat="43.462508004158735" lon="-6.402325965464115">
        <ele>135.19999999999999</ele>
        <time>2025-04-29T15:13:02Z</time>
      </trkpt>
      <trkpt lat="43.462535999715328" lon="-6.402526963502169">
        <ele>134.72</ele>
        <time>2025-04-29T15:13:03Z</time>
      </trkpt>
      <trkpt lat="43.462526025250554" lon="-6.402738019824028">
        <ele>134.24000000000001</ele>
        <time>2025-04-29T15:13:04Z</time>
      </trkpt>
      <trkpt lat="43.462514961138368" lon="-6.402971958741546">
        <ele>133.75999999999999</ele>
        <time>2025-04-29T15:13:05Z</time>
      </trkpt>
      <trkpt lat="43.462470034137368" lon="-6.40317496843636">
        <ele>133.28</ele>
        <time>2025-04-29T15:13:06Z</time>
      </trkpt>
      <trkpt lat="43.462430974468589" lon="-6.403347970917821">
        <ele>132.80000000000001</ele>
        <time>2025-04-29T15:13:07Z</time>
      </trkpt>
      <trkpt lat="43.462412031367421" lon="-6.403500018641353">
        <ele>132.31999999999999</ele>
        <time>2025-04-29T15:13:08Z</time>
      </trkpt>
      <trkpt lat="43.462431980296969" lon="-6.403612000867724">
        <ele>131.36000000000001</ele>
        <time>2025-04-29T15:13:09Z</time>
      </trkpt>
      <trkpt lat="43.462479002773762" lon="-6.403705039992929">
        <ele>131.36000000000001</ele>
        <time>2025-04-29T15:13:10Z</time>
      </trkpt>
      <trkpt lat="43.462567012757063" lon="-6.403792966157198">
        <ele>131.36000000000001</ele>
        <time>2025-04-29T15:13:11Z</time>
      </trkpt>
      <trkpt lat="43.462673965841532" lon="-6.403900003060699">
        <ele>130.88</ele>
        <time>2025-04-29T15:13:12Z</time>
      </trkpt>
      <trkpt lat="43.462788965553045" lon="-6.40403101220727">
        <ele>130.88</ele>
        <time>2025-04-29T15:13:13Z</time>
      </trkpt>
      <trkpt lat="43.462885022163391" lon="-6.404211977496743">
        <ele>130.88</ele>
        <time>2025-04-29T15:13:14Z</time>
      </trkpt>
      <trkpt lat="43.462976971641183" lon="-6.404429990798235">
        <ele>130.40000000000001</ele>
        <time>2025-04-29T15:13:15Z</time>
      </trkpt>
      <trkpt lat="43.463013013824821" lon="-6.404649009928107">
        <ele>130.40000000000001</ele>
        <time>2025-04-29T15:13:16Z</time>
      </trkpt>
      <trkpt lat="43.463051989674568" lon="-6.404879009351134">
        <ele>129.91999999999999</ele>
        <time>2025-04-29T15:13:17Z</time>
      </trkpt>
      <trkpt lat="43.463040003553033" lon="-6.405057040974498">
        <ele>129.91999999999999</ele>
        <time>2025-04-29T15:13:18Z</time>
      </trkpt>
      <trkpt lat="43.463003039360046" lon="-6.405253009870648">
        <ele>129.43000000000001</ele>
        <time>2025-04-29T15:13:19Z</time>
      </trkpt>
      <trkpt lat="43.462930032983422" lon="-6.405390975996852">
        <ele>128.94999999999999</ele>
        <time>2025-04-29T15:13:20Z</time>
      </trkpt>
      <trkpt lat="43.462860966101289" lon="-6.405520979315043">
        <ele>128.47</ele>
        <time>2025-04-29T15:13:21Z</time>
      </trkpt>
      <trkpt lat="43.462547985836864" lon="-6.406022971495986">
        <ele>125.59</ele>
        <time>2025-04-29T15:13:25Z</time>
      </trkpt>
      <trkpt lat="43.462429968640208" lon="-6.406209971755743">
        <ele>125.11</ele>
        <time>2025-04-29T15:13:26Z</time>
      </trkpt>
      <trkpt lat="43.461574008688331" lon="-6.406894018873572">
        <ele>118.86</ele>
        <time>2025-04-29T15:13:34Z</time>
      </trkpt>
      <trkpt lat="43.461389020085335" lon="-6.40708495862782">
        <ele>117.90000000000001</ele>
        <time>2025-04-29T15:13:36Z</time>
      </trkpt>
      <trkpt lat="43.461316013708711" lon="-6.407210016623139">
        <ele>117.42</ele>
        <time>2025-04-29T15:13:37Z</time>
      </trkpt>
      <trkpt lat="43.460704972967505" lon="-6.408453974872828">
        <ele>113.56999999999999</ele>
        <time>2025-04-29T15:13:45Z</time>
      </trkpt>
      <trkpt lat="43.460447983816266" lon="-6.40890902839601">
        <ele>111.65000000000001</ele>
        <time>2025-04-29T15:13:48Z</time>
      </trkpt>
      <trkpt lat="43.460288979113102" lon="-6.409169035032392">
        <ele>110.20999999999999</ele>
        <time>2025-04-29T15:13:50Z</time>
      </trkpt>
      <trkpt lat="43.460198035463691" lon="-6.409320998936892">
        <ele>109.73</ele>
        <time>2025-04-29T15:13:51Z</time>
      </trkpt>
      <trkpt lat="43.460182026028633" lon="-6.409430969506502">
        <ele>108.77</ele>
        <time>2025-04-29T15:13:52Z</time>
      </trkpt>
      <trkpt lat="43.460161993280053" lon="-6.4096400141716">
        <ele>107.81</ele>
        <time>2025-04-29T15:13:53Z</time>
      </trkpt>
      <trkpt lat="43.460213039070368" lon="-6.409779991954565">
        <ele>107.31999999999999</ele>
        <time>2025-04-29T15:13:54Z</time>
      </trkpt>
      <trkpt lat="43.460299037396908" lon="-6.40994100831449">
        <ele>106.84</ele>
        <time>2025-04-29T15:13:55Z</time>
      </trkpt>
      <trkpt lat="43.460387969389558" lon="-6.410071011632681">
        <ele>105.88</ele>
        <time>2025-04-29T15:13:56Z</time>
      </trkpt>
      <trkpt lat="43.46047698520124" lon="-6.410201014950872">
        <ele>104.92</ele>
        <time>2025-04-29T15:13:57Z</time>
      </trkpt>
      <trkpt lat="43.460716037079692" lon="-6.410453980788589">
        <ele>103.48</ele>
        <time>2025-04-29T15:13:59Z</time>
      </trkpt>
      <trkpt lat="43.460828019306064" lon="-6.410571997985244">
        <ele>102.52</ele>
        <time>2025-04-29T15:14:00Z</time>
      </trkpt>
      <trkpt lat="43.461424978449941" lon="-6.411096034571528">
        <ele>99.150000000000006</ele>
        <time>2025-04-29T15:14:05Z</time>
      </trkpt>
      <trkpt lat="43.461527992039919" lon="-6.411225032061338">
        <ele>98.670000000000002</ele>
        <time>2025-04-29T15:14:06Z</time>
      </trkpt>
      <trkpt lat="43.461594963446259" lon="-6.411375990137458">
        <ele>97.709999999999994</ele>
        <time>2025-04-29T15:14:07Z</time>
      </trkpt>
      <trkpt lat="43.461646009236574" lon="-6.411540023982525">
        <ele>97.230000000000004</ele>
        <time>2025-04-29T15:14:08Z</time>
      </trkpt>
      <trkpt lat="43.461676016449928" lon="-6.411720989271998">
        <ele>96.75</ele>
        <time>2025-04-29T15:14:09Z</time>
      </trkpt>
      <trkpt lat="43.461647015064955" lon="-6.411889968439937">
        <ele>96.269999999999996</ele>
        <time>2025-04-29T15:14:10Z</time>
      </trkpt>
      <trkpt lat="43.461608039215207" lon="-6.412076968699694">
        <ele>96.269999999999996</ele>
        <time>2025-04-29T15:14:11Z</time>
      </trkpt>
      <trkpt lat="43.461563028395176" lon="-6.412267992272973">
        <ele>95.790000000000006</ele>
        <time>2025-04-29T15:14:12Z</time>
      </trkpt>
      <trkpt lat="43.461490022018552" lon="-6.412463961169124">
        <ele>95.310000000000002</ele>
        <time>2025-04-29T15:14:13Z</time>
      </trkpt>
      <trkpt lat="43.461404023692012" lon="-6.412652973085642">
        <ele>94.829999999999998</ele>
        <time>2025-04-29T15:14:14Z</time>
      </trkpt>
      <trkpt lat="43.461301010102034" lon="-6.412821030244231">
        <ele>94.349999999999994</ele>
        <time>2025-04-29T15:14:15Z</time>
      </trkpt>
      <trkpt lat="43.461200008168817" lon="-6.412986991927028">
        <ele>93.870000000000005</ele>
        <time>2025-04-29T15:14:16Z</time>
      </trkpt>
      <trkpt lat="43.461095988750458" lon="-6.413139961659908">
        <ele>93.390000000000001</ele>
        <time>2025-04-29T15:14:17Z</time>
      </trkpt>
      <trkpt lat="43.46099297516048" lon="-6.413287986069918">
        <ele>92.900000000000006</ele>
        <time>2025-04-29T15:14:18Z</time>
      </trkpt>
      <trkpt lat="43.460770016536117" lon="-6.413684030994773">
        <ele>90.980000000000004</ele>
        <time>2025-04-29T15:14:21Z</time>
      </trkpt>
      <trkpt lat="43.460741015151143" lon="-6.413800036534667">
        <ele>90.019999999999996</ele>
        <time>2025-04-29T15:14:22Z</time>
      </trkpt>
      <trkpt lat="43.460750989615917" lon="-6.41389399766922">
        <ele>89.060000000000002</ele>
        <time>2025-04-29T15:14:23Z</time>
      </trkpt>
      <trkpt lat="43.46079901792109" lon="-6.414085021242499">
        <ele>87.620000000000005</ele>
        <time>2025-04-29T15:14:24Z</time>
      </trkpt>
      <trkpt lat="43.460846962407231" lon="-6.414154004305601">
        <ele>87.140000000000001</ele>
        <time>2025-04-29T15:14:25Z</time>
      </trkpt>
      <trkpt lat="43.461567973718047" lon="-6.415215991437435">
        <ele>83.769999999999996</ele>
        <time>2025-04-29T15:14:32Z</time>
      </trkpt>
      <trkpt lat="43.461671993136406" lon="-6.415372984483838">
        <ele>83.290000000000006</ele>
        <time>2025-04-29T15:14:33Z</time>
      </trkpt>
      <trkpt lat="43.462153030559421" lon="-6.415802976116538">
        <ele>81.370000000000005</ele>
        <time>2025-04-29T15:14:37Z</time>
      </trkpt>
      <trkpt lat="43.462280016392469" lon="-6.415878999978304">
        <ele>80.890000000000001</ele>
        <time>2025-04-29T15:14:38Z</time>
      </trkpt>
      <trkpt lat="43.462405996397138" lon="-6.415952006354928">
        <ele>80.409999999999997</ele>
        <time>2025-04-29T15:14:39Z</time>
      </trkpt>
      <trkpt lat="43.462557960301638" lon="-6.416036998853087">
        <ele>79.930000000000007</ele>
        <time>2025-04-29T15:14:40Z</time>
      </trkpt>
      <trkpt lat="43.462655022740364" lon="-6.416119979694486">
        <ele>79.450000000000003</ele>
        <time>2025-04-29T15:14:41Z</time>
      </trkpt>
      <trkpt lat="43.462760969996452" lon="-6.416260041296482">
        <ele>79.450000000000003</ele>
        <time>2025-04-29T15:14:42Z</time>
      </trkpt>
      <trkpt lat="43.462830036878586" lon="-6.416421979665756">
        <ele>79.450000000000003</ele>
        <time>2025-04-29T15:14:43Z</time>
      </trkpt>
      <trkpt lat="43.462864989414811" lon="-6.416574027389288">
        <ele>79.450000000000003</ele>
        <time>2025-04-29T15:14:44Z</time>
      </trkpt>
      <trkpt lat="43.462888039648533" lon="-6.416734959930182">
        <ele>78.969999999999999</ele>
        <time>2025-04-29T15:14:45Z</time>
      </trkpt>
      <trkpt lat="43.462899019941688" lon="-6.416884995996952">
        <ele>78.969999999999999</ele>
        <time>2025-04-29T15:14:46Z</time>
      </trkpt>
      <trkpt lat="43.462912011891603" lon="-6.417025979608297">
        <ele>78.969999999999999</ele>
        <time>2025-04-29T15:14:47Z</time>
      </trkpt>
      <trkpt lat="43.4629260096699" lon="-6.417177021503449">
        <ele>79.450000000000003</ele>
        <time>2025-04-29T15:14:48Z</time>
      </trkpt>
      <trkpt lat="43.462941013276577" lon="-6.417339965701103">
        <ele>79.450000000000003</ele>
        <time>2025-04-29T15:14:49Z</time>
      </trkpt>
      <trkpt lat="43.462974959984422" lon="-6.417659986764193">
        <ele>79.450000000000003</ele>
        <time>2025-04-29T15:14:51Z</time>
      </trkpt>
      <trkpt lat="43.463028017431498" lon="-6.417974978685379">
        <ele>78.969999999999999</ele>
        <time>2025-04-29T15:14:53Z</time>
      </trkpt>
      <trkpt lat="43.463056012988091" lon="-6.418140018358827">
        <ele>78.969999999999999</ele>
        <time>2025-04-29T15:14:54Z</time>
      </trkpt>
      <trkpt lat="43.46309800632298" lon="-6.418314026668668">
        <ele>78.480000000000004</ele>
        <time>2025-04-29T15:14:55Z</time>
      </trkpt>
      <trkpt lat="43.46324997022748" lon="-6.418631030246615">
        <ele>78</ele>
        <time>2025-04-29T15:14:57Z</time>
      </trkpt>
      <trkpt lat="43.463326999917626" lon="-6.418778970837593">
        <ele>78</ele>
        <time>2025-04-29T15:14:58Z</time>
      </trkpt>
      <trkpt lat="43.463424984365702" lon="-6.418908974155784">
        <ele>78</ele>
        <time>2025-04-29T15:14:59Z</time>
      </trkpt>
      <trkpt lat="43.463526992127299" lon="-6.419024979695678">
        <ele>77.519999999999996</ele>
        <time>2025-04-29T15:15:00Z</time>
      </trkpt>
      <trkpt lat="43.463633023202419" lon="-6.419144002720714">
        <ele>77.040000000000006</ele>
        <time>2025-04-29T15:15:01Z</time>
      </trkpt>
      <trkpt lat="43.463736036792397" lon="-6.419261014088988">
        <ele>77.040000000000006</ele>
        <time>2025-04-29T15:15:02Z</time>
      </trkpt>
      <trkpt lat="43.463837038725615" lon="-6.419375007972121">
        <ele>76.560000000000002</ele>
        <time>2025-04-29T15:15:03Z</time>
      </trkpt>
      <trkpt lat="43.463926976546645" lon="-6.41950199380517">
        <ele>76.079999999999998</ele>
        <time>2025-04-29T15:15:04Z</time>
      </trkpt>
      <trkpt lat="43.464106013998389" lon="-6.419918993487954">
        <ele>75.599999999999994</ele>
        <time>2025-04-29T15:15:07Z</time>
      </trkpt>
      <trkpt lat="43.464144989848137" lon="-6.420068023726344">
        <ele>75.120000000000005</ele>
        <time>2025-04-29T15:15:08Z</time>
      </trkpt>
      <trkpt lat="43.464137027040124" lon="-6.420228034257889">
        <ele>75.120000000000005</ele>
        <time>2025-04-29T15:15:09Z</time>
      </trkpt>
      <trkpt lat="43.464127974584699" lon="-6.420396007597446">
        <ele>75.120000000000005</ele>
        <time>2025-04-29T15:15:10Z</time>
      </trkpt>
      <trkpt lat="43.46412998624146" lon="-6.420573033392429">
        <ele>75.120000000000005</ele>
        <time>2025-04-29T15:15:11Z</time>
      </trkpt>
      <trkpt lat="43.464147001504898" lon="-6.420917026698589">
        <ele>75.120000000000005</ele>
        <time>2025-04-29T15:15:13Z</time>
      </trkpt>
      <trkpt lat="43.464154964312911" lon="-6.42109002918005">
        <ele>75.120000000000005</ele>
        <time>2025-04-29T15:15:14Z</time>
      </trkpt>
      <trkpt lat="43.464163010939956" lon="-6.421256996691227">
        <ele>75.120000000000005</ele>
        <time>2025-04-29T15:15:15Z</time>
      </trkpt>
      <trkpt lat="43.464180026203394" lon="-6.421613981947303">
        <ele>74.640000000000001</ele>
        <time>2025-04-29T15:15:17Z</time>
      </trkpt>
      <trkpt lat="43.464188994839787" lon="-6.421809028834105">
        <ele>74.640000000000001</ele>
        <time>2025-04-29T15:15:18Z</time>
      </trkpt>
      <trkpt lat="43.464182037860155" lon="-6.421969039365649">
        <ele>74.640000000000001</ele>
        <time>2025-04-29T15:15:19Z</time>
      </trkpt>
      <trkpt lat="43.46417399123311" lon="-6.422135001048446">
        <ele>74.640000000000001</ele>
        <time>2025-04-29T15:15:20Z</time>
      </trkpt>
      <trkpt lat="43.464169967919588" lon="-6.422291994094849">
        <ele>74.640000000000001</ele>
        <time>2025-04-29T15:15:21Z</time>
      </trkpt>
      <trkpt lat="43.464222019538283" lon="-6.42242300324142">
        <ele>74.159999999999997</ele>
        <time>2025-04-29T15:15:22Z</time>
      </trkpt>
      <trkpt lat="43.464293014258146" lon="-6.422544037923217">
        <ele>73.680000000000007</ele>
        <time>2025-04-29T15:15:23Z</time>
      </trkpt>
      <trkpt lat="43.46436602063477" lon="-6.422668006271124">
        <ele>73.200000000000003</ele>
        <time>2025-04-29T15:15:24Z</time>
      </trkpt>
      <trkpt lat="43.464759970083833" lon="-6.423335960134864">
        <ele>72.239999999999995</ele>
        <time>2025-04-29T15:15:29Z</time>
      </trkpt>
      <trkpt lat="43.464836999773979" lon="-6.423468980938196">
        <ele>71.760000000000005</ele>
        <time>2025-04-29T15:15:30Z</time>
      </trkpt>
      <trkpt lat="43.465706035494804" lon="-6.424686033278704">
        <ele>68.390000000000001</ele>
        <time>2025-04-29T15:15:41Z</time>
      </trkpt>
      <trkpt lat="43.466158993542194" lon="-6.425053998827934">
        <ele>67.430000000000007</ele>
        <time>2025-04-29T15:15:46Z</time>
      </trkpt>
      <trkpt lat="43.467214023694396" lon="-6.425564959645271">
        <ele>65.030000000000001</ele>
        <time>2025-04-29T15:15:55Z</time>
      </trkpt>
      <trkpt lat="43.469033986330032" lon="-6.426396025344729">
        <ele>64.069999999999993</ele>
        <time>2025-04-29T15:16:08Z</time>
      </trkpt>
      <trkpt lat="43.46941402181983" lon="-6.426585037261248">
        <ele>64.549999999999997</ele>
        <time>2025-04-29T15:16:11Z</time>
      </trkpt>
      <trkpt lat="43.469513012096286" lon="-6.426699031144381">
        <ele>64.549999999999997</ele>
        <time>2025-04-29T15:16:12Z</time>
      </trkpt>
      <trkpt lat="43.469595992937684" lon="-6.426821993663907">
        <ele>64.549999999999997</ele>
        <time>2025-04-29T15:16:13Z</time>
      </trkpt>
      <trkpt lat="43.469671010971069" lon="-6.426957026124001">
        <ele>64.069999999999993</ele>
        <time>2025-04-29T15:16:14Z</time>
      </trkpt>
      <trkpt lat="43.469740999862552" lon="-6.427083006128669">
        <ele>64.069999999999993</ele>
        <time>2025-04-29T15:16:15Z</time>
      </trkpt>
      <trkpt lat="43.469809982925653" lon="-6.427161041647196">
        <ele>64.069999999999993</ele>
        <time>2025-04-29T15:16:16Z</time>
      </trkpt>
      <trkpt lat="43.469918025657535" lon="-6.427237987518311">
        <ele>64.549999999999997</ele>
        <time>2025-04-29T15:16:17Z</time>
      </trkpt>
      <trkpt lat="43.46999597735703" lon="-6.427223989740014">
        <ele>64.549999999999997</ele>
        <time>2025-04-29T15:16:18Z</time>
      </trkpt>
      <trkpt lat="43.470379030331969" lon="-6.427156012505293">
        <ele>64.069999999999993</ele>
        <time>2025-04-29T15:16:21Z</time>
      </trkpt>
      <trkpt lat="43.470514984801412" lon="-6.427132040262222">
        <ele>63.579999999999998</ele>
        <time>2025-04-29T15:16:22Z</time>
      </trkpt>
      <trkpt lat="43.470654040575027" lon="-6.427111001685262">
        <ele>63.579999999999998</ele>
        <time>2025-04-29T15:16:23Z</time>
      </trkpt>
      <trkpt lat="43.47106902860105" lon="-6.42708501778543">
        <ele>62.619999999999997</ele>
        <time>2025-04-29T15:16:26Z</time>
      </trkpt>
      <trkpt lat="43.47119802609086" lon="-6.427104966714978">
        <ele>62.140000000000001</ele>
        <time>2025-04-29T15:16:27Z</time>
      </trkpt>
      <trkpt lat="43.471330041065812" lon="-6.42717101611197">
        <ele>61.659999999999997</ele>
        <time>2025-04-29T15:16:28Z</time>
      </trkpt>
      <trkpt lat="43.471454009413719" lon="-6.427245028316975">
        <ele>61.18</ele>
        <time>2025-04-29T15:16:29Z</time>
      </trkpt>
      <trkpt lat="43.47158501856029" lon="-6.427349969744682">
        <ele>61.18</ele>
        <time>2025-04-29T15:16:30Z</time>
      </trkpt>
      <trkpt lat="43.471687026321888" lon="-6.427487013861537">
        <ele>60.700000000000003</ele>
        <time>2025-04-29T15:16:31Z</time>
      </trkpt>
      <trkpt lat="43.471792973577976" lon="-6.427626991644502">
        <ele>60.219999999999999</ele>
        <time>2025-04-29T15:16:32Z</time>
      </trkpt>
      <trkpt lat="43.471903027966619" lon="-6.427774010226131">
        <ele>59.740000000000002</ele>
        <time>2025-04-29T15:16:33Z</time>
      </trkpt>
      <trkpt lat="43.471999000757933" lon="-6.427952041849494">
        <ele>59.740000000000002</ele>
        <time>2025-04-29T15:16:34Z</time>
      </trkpt>
      <trkpt lat="43.472082987427711" lon="-6.428129989653826">
        <ele>59.740000000000002</ele>
        <time>2025-04-29T15:16:35Z</time>
      </trkpt>
      <trkpt lat="43.472158005461097" lon="-6.428337022662163">
        <ele>59.740000000000002</ele>
        <time>2025-04-29T15:16:36Z</time>
      </trkpt>
      <trkpt lat="43.472213996574283" lon="-6.42854698933661">
        <ele>60.219999999999999</ele>
        <time>2025-04-29T15:16:37Z</time>
      </trkpt>
      <trkpt lat="43.47223000600934" lon="-6.428730972111225">
        <ele>60.700000000000003</ele>
        <time>2025-04-29T15:16:38Z</time>
      </trkpt>
      <trkpt lat="43.472247021272779" lon="-6.428936999291182">
        <ele>61.18</ele>
        <time>2025-04-29T15:16:39Z</time>
      </trkpt>
      <trkpt lat="43.472264036536217" lon="-6.429142020642757">
        <ele>61.659999999999997</ele>
        <time>2025-04-29T15:16:40Z</time>
      </trkpt>
      <trkpt lat="43.472322039306164" lon="-6.430378016084433">
        <ele>65.510000000000005</ele>
        <time>2025-04-29T15:16:46Z</time>
      </trkpt>
      <trkpt lat="43.47233603708446" lon="-6.430555041879416">
        <ele>65.989999999999995</ele>
        <time>2025-04-29T15:16:47Z</time>
      </trkpt>
      <trkpt lat="43.472364032641053" lon="-6.430725026875734">
        <ele>66.469999999999999</ele>
        <time>2025-04-29T15:16:48Z</time>
      </trkpt>
      <trkpt lat="43.472409965470433" lon="-6.430890988558531">
        <ele>66.950000000000003</ele>
        <time>2025-04-29T15:16:49Z</time>
      </trkpt>
      <trkpt lat="43.472476014867425" lon="-6.431049993261695">
        <ele>67.430000000000007</ele>
        <time>2025-04-29T15:16:50Z</time>
      </trkpt>
      <trkpt lat="43.47255002707243" lon="-6.431178990751505">
        <ele>67.909999999999997</ele>
        <time>2025-04-29T15:16:51Z</time>
      </trkpt>
      <trkpt lat="43.472653040662408" lon="-6.431282004341483">
        <ele>68.390000000000001</ele>
        <time>2025-04-29T15:16:52Z</time>
      </trkpt>
      <trkpt lat="43.472767034545541" lon="-6.431335983797908">
        <ele>69.349999999999994</ele>
        <time>2025-04-29T15:16:53Z</time>
      </trkpt>
      <trkpt lat="43.472898965701461" lon="-6.431390969082713">
        <ele>69.829999999999998</ele>
        <time>2025-04-29T15:16:54Z</time>
      </trkpt>
      <trkpt lat="43.473035003989935" lon="-6.431395998224616">
        <ele>70.310000000000002</ele>
        <time>2025-04-29T15:16:55Z</time>
      </trkpt>
      <trkpt lat="43.473187973722816" lon="-6.431389963254333">
        <ele>70.790000000000006</ele>
        <time>2025-04-29T15:16:56Z</time>
      </trkpt>
      <trkpt lat="43.47334697842598" lon="-6.431384012103081">
        <ele>71.269999999999996</ele>
        <time>2025-04-29T15:16:57Z</time>
      </trkpt>
      <trkpt lat="43.473814018070698" lon="-6.431334977969527">
        <ele>73.200000000000003</ele>
        <time>2025-04-29T15:17:00Z</time>
      </trkpt>
      <trkpt lat="43.474131021648645" lon="-6.431294996291399">
        <ele>74.640000000000001</ele>
        <time>2025-04-29T15:17:02Z</time>
      </trkpt>
      <trkpt lat="43.47429002635181" lon="-6.431280998513103">
        <ele>75.120000000000005</ele>
        <time>2025-04-29T15:17:03Z</time>
      </trkpt>
      <trkpt lat="43.474380970001221" lon="-6.431272029876709">
        <ele>75.599999999999994</ele>
        <time>2025-04-29T15:17:04Z</time>
      </trkpt>
      <trkpt lat="43.474511979147792" lon="-6.431347969919443">
        <ele>75.599999999999994</ele>
        <time>2025-04-29T15:17:05Z</time>
      </trkpt>
      <trkpt lat="43.474610969424248" lon="-6.43140597268939">
        <ele>76.079999999999998</ele>
        <time>2025-04-29T15:17:06Z</time>
      </trkpt>
      <trkpt lat="43.474667966365814" lon="-6.43149096518755">
        <ele>76.079999999999998</ele>
        <time>2025-04-29T15:17:07Z</time>
      </trkpt>
      <trkpt lat="43.474730998277664" lon="-6.431643012911081">
        <ele>76.079999999999998</ele>
        <time>2025-04-29T15:17:08Z</time>
      </trkpt>
      <trkpt lat="43.474751031026244" lon="-6.43179296515882">
        <ele>76.079999999999998</ele>
        <time>2025-04-29T15:17:09Z</time>
      </trkpt>
      <trkpt lat="43.474757988005877" lon="-6.431974014267325">
        <ele>76.560000000000002</ele>
        <time>2025-04-29T15:17:10Z</time>
      </trkpt>
      <trkpt lat="43.474765028804541" lon="-6.432151040062308">
        <ele>77.519999999999996</ele>
        <time>2025-04-29T15:17:11Z</time>
      </trkpt>
      <trkpt lat="43.474795036017895" lon="-6.432303003966808">
        <ele>78</ele>
        <time>2025-04-29T15:17:12Z</time>
      </trkpt>
      <trkpt lat="43.474841974675655" lon="-6.432454967871308">
        <ele>78.480000000000004</ele>
        <time>2025-04-29T15:17:13Z</time>
      </trkpt>
      <trkpt lat="43.474874999374151" lon="-6.432559993118048">
        <ele>78.969999999999999</ele>
        <time>2025-04-29T15:17:14Z</time>
      </trkpt>
      <trkpt lat="43.474985975772142" lon="-6.432713968679309">
        <ele>79.450000000000003</ele>
        <time>2025-04-29T15:17:15Z</time>
      </trkpt>
      <trkpt lat="43.475917037576437" lon="-6.433979971334338">
        <ele>86.180000000000007</ele>
        <time>2025-04-29T15:17:24Z</time>
      </trkpt>
      <trkpt lat="43.476034970954061" lon="-6.434086002409458">
        <ele>87.140000000000001</ele>
        <time>2025-04-29T15:17:25Z</time>
      </trkpt>
      <trkpt lat="43.476141002029181" lon="-6.434135958552361">
        <ele>88.099999999999994</ele>
        <time>2025-04-29T15:17:26Z</time>
      </trkpt>
      <trkpt lat="43.476264970377088" lon="-6.434181975200772">
        <ele>89.060000000000002</ele>
        <time>2025-04-29T15:17:27Z</time>
      </trkpt>
      <trkpt lat="43.476391034200788" lon="-6.434227991849184">
        <ele>90.019999999999996</ele>
        <time>2025-04-29T15:17:28Z</time>
      </trkpt>
      <trkpt lat="43.476463034749031" lon="-6.434254981577396">
        <ele>90.980000000000004</ele>
        <time>2025-04-29T15:17:29Z</time>
      </trkpt>
      <trkpt lat="43.476639976724982" lon="-6.434249030426145">
        <ele>91.939999999999998</ele>
        <time>2025-04-29T15:17:30Z</time>
      </trkpt>
      <trkpt lat="43.476811973378062" lon="-6.434241989627481">
        <ele>92.420000000000002</ele>
        <time>2025-04-29T15:17:31Z</time>
      </trkpt>
      <trkpt lat="43.477234002202749" lon="-6.434164959937334">
        <ele>93.870000000000005</ele>
        <time>2025-04-29T15:17:34Z</time>
      </trkpt>
      <trkpt lat="43.47736400552094" lon="-6.434112992137671">
        <ele>94.349999999999994</ele>
        <time>2025-04-29T15:17:35Z</time>
      </trkpt>
      <trkpt lat="43.477480011060834" lon="-6.433983994647861">
        <ele>92.420000000000002</ele>
        <time>2025-04-29T15:17:36Z</time>
      </trkpt>
      <trkpt lat="43.477543964982033" lon="-6.433859020471573">
        <ele>90.5</ele>
        <time>2025-04-29T15:17:37Z</time>
      </trkpt>
      <trkpt lat="43.477567015215755" lon="-6.433710996061564">
        <ele>90.5</ele>
        <time>2025-04-29T15:17:38Z</time>
      </trkpt>
      <trkpt lat="43.477591993287206" lon="-6.433556014671922">
        <ele>90.5</ele>
        <time>2025-04-29T15:17:39Z</time>
      </trkpt>
      <trkpt lat="43.477620994672179" lon="-6.433372031897306">
        <ele>90.5</ele>
        <time>2025-04-29T15:17:40Z</time>
      </trkpt>
      <trkpt lat="43.477652007713914" lon="-6.433172039687634">
        <ele>90.5</ele>
        <time>2025-04-29T15:17:41Z</time>
      </trkpt>
      <trkpt lat="43.47770900465548" lon="-6.432988978922367">
        <ele>90.019999999999996</ele>
        <time>2025-04-29T15:17:42Z</time>
      </trkpt>
      <trkpt lat="43.477776981890202" lon="-6.43282201141119">
        <ele>89.060000000000002</ele>
        <time>2025-04-29T15:17:43Z</time>
      </trkpt>
      <trkpt lat="43.477861974388361" lon="-6.432700976729393">
        <ele>88.099999999999994</ele>
        <time>2025-04-29T15:17:44Z</time>
      </trkpt>
      <trkpt lat="43.477980997413397" lon="-6.432625036686659">
        <ele>86.659999999999997</ele>
        <time>2025-04-29T15:17:45Z</time>
      </trkpt>
      <trkpt lat="43.478085016831756" lon="-6.432584971189499">
        <ele>86.180000000000007</ele>
        <time>2025-04-29T15:17:46Z</time>
      </trkpt>
      <trkpt lat="43.478218959644437" lon="-6.432601986452937">
        <ele>85.209999999999994</ele>
        <time>2025-04-29T15:17:47Z</time>
      </trkpt>
      <trkpt lat="43.478341000154614" lon="-6.432686978951097">
        <ele>83.769999999999996</ele>
        <time>2025-04-29T15:17:48Z</time>
      </trkpt>
      <trkpt lat="43.478443007916212" lon="-6.432798039168119">
        <ele>83.290000000000006</ele>
        <time>2025-04-29T15:17:49Z</time>
      </trkpt>
      <trkpt lat="43.478535963222384" lon="-6.432932987809181">
        <ele>82.329999999999998</ele>
        <time>2025-04-29T15:17:50Z</time>
      </trkpt>
      <trkpt lat="43.478606035932899" lon="-6.433075983077288">
        <ele>81.849999999999994</ele>
        <time>2025-04-29T15:17:51Z</time>
      </trkpt>
      <trkpt lat="43.47865498624742" lon="-6.433248985558748">
        <ele>81.370000000000005</ele>
        <time>2025-04-29T15:17:52Z</time>
      </trkpt>
      <trkpt lat="43.478703014552593" lon="-6.433416958898306">
        <ele>81.370000000000005</ele>
        <time>2025-04-29T15:17:53Z</time>
      </trkpt>
      <trkpt lat="43.478716006502509" lon="-6.433460963889957">
        <ele>81.370000000000005</ele>
        <time>2025-04-29T15:17:54Z</time>
      </trkpt>
      <trkpt lat="43.478862019255757" lon="-6.433558026328683">
        <ele>81.849999999999994</ele>
        <time>2025-04-29T15:17:55Z</time>
      </trkpt>
      <trkpt lat="43.47890904173255" lon="-6.433589961379767">
        <ele>82.329999999999998</ele>
        <time>2025-04-29T15:17:56Z</time>
      </trkpt>
      <trkpt lat="43.478967966511846" lon="-6.433549979701638">
        <ele>82.810000000000002</ele>
        <time>2025-04-29T15:17:57Z</time>
      </trkpt>
      <trkpt lat="43.479068968445063" lon="-6.433483008295298">
        <ele>83.290000000000006</ele>
        <time>2025-04-29T15:17:58Z</time>
      </trkpt>
      <trkpt lat="43.479167958721519" lon="-6.433414025232196">
        <ele>83.769999999999996</ele>
        <time>2025-04-29T15:17:59Z</time>
      </trkpt>
      <trkpt lat="43.479231996461749" lon="-6.433247979730368">
        <ele>84.25</ele>
        <time>2025-04-29T15:18:00Z</time>
      </trkpt>
      <trkpt lat="43.479307014495134" lon="-6.433052010834217">
        <ele>83.769999999999996</ele>
        <time>2025-04-29T15:18:01Z</time>
      </trkpt>
      <trkpt lat="43.479393012821674" lon="-6.432832991704345">
        <ele>82.810000000000002</ele>
        <time>2025-04-29T15:18:02Z</time>
      </trkpt>
      <trkpt lat="43.479588981717825" lon="-6.432423032820225">
        <ele>80.409999999999997</ele>
        <time>2025-04-29T15:18:04Z</time>
      </trkpt>
      <trkpt lat="43.479702975600958" lon="-6.432265033945441">
        <ele>80.409999999999997</ele>
        <time>2025-04-29T15:18:05Z</time>
      </trkpt>
      <trkpt lat="43.479808000847697" lon="-6.432120027020574">
        <ele>80.409999999999997</ele>
        <time>2025-04-29T15:18:06Z</time>
      </trkpt>
      <trkpt lat="43.479887964203954" lon="-6.431947024539113">
        <ele>80.890000000000001</ele>
        <time>2025-04-29T15:18:07Z</time>
      </trkpt>
      <trkpt lat="43.479956025257707" lon="-6.431777039542794">
        <ele>80.890000000000001</ele>
        <time>2025-04-29T15:18:08Z</time>
      </trkpt>
      <trkpt lat="43.480029031634331" lon="-6.431594984605908">
        <ele>80.890000000000001</ele>
        <time>2025-04-29T15:18:09Z</time>
      </trkpt>
      <trkpt lat="43.480100026354194" lon="-6.431417958810926">
        <ele>80.890000000000001</ele>
        <time>2025-04-29T15:18:10Z</time>
      </trkpt>
      <trkpt lat="43.480189964175224" lon="-6.431265994906426">
        <ele>80.890000000000001</ele>
        <time>2025-04-29T15:18:11Z</time>
      </trkpt>
      <trkpt lat="43.480293983593583" lon="-6.431136997416616">
        <ele>80.890000000000001</ele>
        <time>2025-04-29T15:18:12Z</time>
      </trkpt>
      <trkpt lat="43.480400014668703" lon="-6.431006994098425">
        <ele>80.890000000000001</ele>
        <time>2025-04-29T15:18:13Z</time>
      </trkpt>
      <trkpt lat="43.480611992999911" lon="-6.430788980796933">
        <ele>80.890000000000001</ele>
        <time>2025-04-29T15:18:15Z</time>
      </trkpt>
      <trkpt lat="43.480727998539805" lon="-6.430745981633663">
        <ele>80.890000000000001</ele>
        <time>2025-04-29T15:18:16Z</time>
      </trkpt>
      <trkpt lat="43.480812991037965" lon="-6.430765008553863">
        <ele>80.409999999999997</ele>
        <time>2025-04-29T15:18:17Z</time>
      </trkpt>
      <trkpt lat="43.480928996577859" lon="-6.43082301132381">
        <ele>80.409999999999997</ele>
        <time>2025-04-29T15:18:18Z</time>
      </trkpt>
      <trkpt lat="43.481033015996218" lon="-6.430893000215292">
        <ele>80.409999999999997</ele>
        <time>2025-04-29T15:18:19Z</time>
      </trkpt>
      <trkpt lat="43.481131000444293" lon="-6.431027026847005">
        <ele>79.450000000000003</ele>
        <time>2025-04-29T15:18:20Z</time>
      </trkpt>
      <trkpt lat="43.481229990720749" lon="-6.431161975488067">
        <ele>79.450000000000003</ele>
        <time>2025-04-29T15:18:21Z</time>
      </trkpt>
      <trkpt lat="43.481362005695701" lon="-6.431257026270032">
        <ele>79.450000000000003</ele>
        <time>2025-04-29T15:18:22Z</time>
      </trkpt>
      <trkpt lat="43.481484968215227" lon="-6.431331960484386">
        <ele>79.930000000000007</ele>
        <time>2025-04-29T15:18:23Z</time>
      </trkpt>
      <trkpt lat="43.481628969311714" lon="-6.431376971304417">
        <ele>79.930000000000007</ele>
        <time>2025-04-29T15:18:24Z</time>
      </trkpt>
      <trkpt lat="43.481770036742091" lon="-6.43140303902328">
        <ele>79.930000000000007</ele>
        <time>2025-04-29T15:18:25Z</time>
      </trkpt>
      <trkpt lat="43.481914037838578" lon="-6.431408990174532">
        <ele>79.930000000000007</ele>
        <time>2025-04-29T15:18:26Z</time>
      </trkpt>
      <trkpt lat="43.482049992308021" lon="-6.431366996839643">
        <ele>79.930000000000007</ele>
        <time>2025-04-29T15:18:27Z</time>
      </trkpt>
      <trkpt lat="43.482173960655928" lon="-6.431322991847992">
        <ele>79.450000000000003</ele>
        <time>2025-04-29T15:18:28Z</time>
      </trkpt>
      <trkpt lat="43.482287032529712" lon="-6.431260965764523">
        <ele>78.480000000000004</ele>
        <time>2025-04-29T15:18:29Z</time>
      </trkpt>
      <trkpt lat="43.482390968129039" lon="-6.431203968822956">
        <ele>77.519999999999996</ele>
        <time>2025-04-29T15:18:30Z</time>
      </trkpt>
      <trkpt lat="43.482586015015841" lon="-6.431098021566868">
        <ele>75.120000000000005</ele>
        <time>2025-04-29T15:18:32Z</time>
      </trkpt>
      <trkpt lat="43.482676958665252" lon="-6.43108100630343">
        <ele>73.200000000000003</ele>
        <time>2025-04-29T15:18:33Z</time>
      </trkpt>
      <trkpt lat="43.482780978083611" lon="-6.431084023788571">
        <ele>72.239999999999995</ele>
        <time>2025-04-29T15:18:34Z</time>
      </trkpt>
      <trkpt lat="43.482894971966743" lon="-6.431087041273713">
        <ele>72.239999999999995</ele>
        <time>2025-04-29T15:18:35Z</time>
      </trkpt>
      <trkpt lat="43.483020029962063" lon="-6.431090980768204">
        <ele>72.239999999999995</ele>
        <time>2025-04-29T15:18:36Z</time>
      </trkpt>
      <trkpt lat="43.483151039108634" lon="-6.431095004081726">
        <ele>71.760000000000005</ele>
        <time>2025-04-29T15:18:37Z</time>
      </trkpt>
      <trkpt lat="43.483295040205121" lon="-6.431099027395248">
        <ele>71.760000000000005</ele>
        <time>2025-04-29T15:18:38Z</time>
      </trkpt>
      <trkpt lat="43.483436023816466" lon="-6.431087963283062">
        <ele>71.760000000000005</ele>
        <time>2025-04-29T15:18:39Z</time>
      </trkpt>
      <trkpt lat="43.483566027134657" lon="-6.431073965504766">
        <ele>71.269999999999996</ele>
        <time>2025-04-29T15:18:40Z</time>
      </trkpt>
      <trkpt lat="43.484098026528955" lon="-6.431033983826637">
        <ele>69.349999999999994</ele>
        <time>2025-04-29T15:18:44Z</time>
      </trkpt>
      <trkpt lat="43.484231969341636" lon="-6.431024009361863">
        <ele>68.870000000000005</ele>
        <time>2025-04-29T15:18:45Z</time>
      </trkpt>
      <trkpt lat="43.484470015391707" lon="-6.430914960801601">
        <ele>67.909999999999997</ele>
        <time>2025-04-29T15:18:47Z</time>
      </trkpt>
      <trkpt lat="43.484564982354641" lon="-6.430828962475061">
        <ele>67.909999999999997</ele>
        <time>2025-04-29T15:18:48Z</time>
      </trkpt>
      <trkpt lat="43.484638994559646" lon="-6.430731983855367">
        <ele>67.909999999999997</ele>
        <time>2025-04-29T15:18:49Z</time>
      </trkpt>
      <trkpt lat="43.484719963744283" lon="-6.430621007457376">
        <ele>67.430000000000007</ele>
        <time>2025-04-29T15:18:50Z</time>
      </trkpt>
      <trkpt lat="43.484822977334261" lon="-6.430508019402623">
        <ele>66.469999999999999</ele>
        <time>2025-04-29T15:18:51Z</time>
      </trkpt>
      <trkpt lat="43.484946023672819" lon="-6.430423026904464">
        <ele>65.510000000000005</ele>
        <time>2025-04-29T15:18:52Z</time>
      </trkpt>
      <trkpt lat="43.485068986192346" lon="-6.430354965850711">
        <ele>64.069999999999993</ele>
        <time>2025-04-29T15:18:53Z</time>
      </trkpt>
      <trkpt lat="43.485193038359284" lon="-6.430309033021331">
        <ele>62.619999999999997</ele>
        <time>2025-04-29T15:18:54Z</time>
      </trkpt>
      <trkpt lat="43.486471027135849" lon="-6.4298340305686">
        <ele>52.530000000000001</ele>
        <time>2025-04-29T15:19:03Z</time>
      </trkpt>
      <trkpt lat="43.486597007140517" lon="-6.429777033627033">
        <ele>52.049999999999997</ele>
        <time>2025-04-29T15:19:04Z</time>
      </trkpt>
      <trkpt lat="43.486720975488424" lon="-6.429668990895152">
        <ele>51.090000000000003</ele>
        <time>2025-04-29T15:19:05Z</time>
      </trkpt>
      <trkpt lat="43.487467970699072" lon="-6.428958037868142">
        <ele>47.719999999999999</ele>
        <time>2025-04-29T15:19:11Z</time>
      </trkpt>
      <trkpt lat="43.487594034522772" lon="-6.428814036771655">
        <ele>47.719999999999999</ele>
        <time>2025-04-29T15:19:12Z</time>
      </trkpt>
      <trkpt lat="43.488757023587823" lon="-6.427039001137018">
        <ele>41.950000000000003</ele>
        <time>2025-04-29T15:19:23Z</time>
      </trkpt>
      <trkpt lat="43.489431012421846" lon="-6.426069969311357">
        <ele>39.07</ele>
        <time>2025-04-29T15:19:30Z</time>
      </trkpt>
      <trkpt lat="43.489524973556399" lon="-6.426064018160105">
        <ele>39.07</ele>
        <time>2025-04-29T15:19:31Z</time>
      </trkpt>
      <trkpt lat="43.489626981317997" lon="-6.426073992624879">
        <ele>38.590000000000003</ele>
        <time>2025-04-29T15:19:32Z</time>
      </trkpt>
      <trkpt lat="43.489690013229847" lon="-6.426090002059937">
        <ele>38.590000000000003</ele>
        <time>2025-04-29T15:19:33Z</time>
      </trkpt>
      <trkpt lat="43.489780034869909" lon="-6.42620399594307">
        <ele>38.109999999999999</ele>
        <time>2025-04-29T15:19:34Z</time>
      </trkpt>
      <trkpt lat="43.489876007661223" lon="-6.426325030624867">
        <ele>37.149999999999999</ele>
        <time>2025-04-29T15:19:35Z</time>
      </trkpt>
      <trkpt lat="43.489978015422821" lon="-6.426454028114677">
        <ele>36.189999999999998</ele>
        <time>2025-04-29T15:19:36Z</time>
      </trkpt>
      <trkpt lat="43.490091003477573" lon="-6.426596017554402">
        <ele>34.740000000000002</ele>
        <time>2025-04-29T15:19:37Z</time>
      </trkpt>
      <trkpt lat="43.49021203815937" lon="-6.426747981458902">
        <ele>33.299999999999997</ele>
        <time>2025-04-29T15:19:38Z</time>
      </trkpt>
      <trkpt lat="43.490344975143671" lon="-6.426902040839195">
        <ele>32.340000000000003</ele>
        <time>2025-04-29T15:19:39Z</time>
      </trkpt>
      <trkpt lat="43.490477995947003" lon="-6.427046963945031">
        <ele>31.379999999999999</ele>
        <time>2025-04-29T15:19:40Z</time>
      </trkpt>
      <trkpt lat="43.490637000650167" lon="-6.427132040262222">
        <ele>29.940000000000001</ele>
        <time>2025-04-29T15:19:41Z</time>
      </trkpt>
      <trkpt lat="43.490802962332964" lon="-6.427208986133337">
        <ele>28.98</ele>
        <time>2025-04-29T15:19:42Z</time>
      </trkpt>
      <trkpt lat="43.490961967036128" lon="-6.427282998338342">
        <ele>28.02</ele>
        <time>2025-04-29T15:19:43Z</time>
      </trkpt>
      <trkpt lat="43.491981960833073" lon="-6.427637971937656">
        <ele>22.25</ele>
        <time>2025-04-29T15:19:50Z</time>
      </trkpt>
      <trkpt lat="43.492771033197641" lon="-6.42792496830225">
        <ele>19.359999999999999</ele>
        <time>2025-04-29T15:19:55Z</time>
      </trkpt>
      <trkpt lat="43.49339003674686" lon="-6.428562998771668">
        <ele>18.879999999999999</ele>
        <time>2025-04-29T15:20:00Z</time>
      </trkpt>
      <trkpt lat="43.493491038680077" lon="-6.428731977939606">
        <ele>19.359999999999999</ele>
        <time>2025-04-29T15:20:01Z</time>
      </trkpt>
      <trkpt lat="43.493544012308121" lon="-6.428925013169646">
        <ele>19.84</ele>
        <time>2025-04-29T15:20:02Z</time>
      </trkpt>
      <trkpt lat="43.493574019521475" lon="-6.429120982065797">
        <ele>20.809999999999999</ele>
        <time>2025-04-29T15:20:03Z</time>
      </trkpt>
      <trkpt lat="43.49360796622932" lon="-6.42934100702405">
        <ele>21.289999999999999</ele>
        <time>2025-04-29T15:20:04Z</time>
      </trkpt>
      <trkpt lat="43.493569996207952" lon="-6.429558014497161">
        <ele>22.25</ele>
        <time>2025-04-29T15:20:05Z</time>
      </trkpt>
      <trkpt lat="43.49339397624135" lon="-6.430602986365557">
        <ele>24.649999999999999</ele>
        <time>2025-04-29T15:20:10Z</time>
      </trkpt>
      <trkpt lat="43.493420965969563" lon="-6.430785963311791">
        <ele>25.129999999999999</ele>
        <time>2025-04-29T15:20:11Z</time>
      </trkpt>
      <trkpt lat="43.493526997044683" lon="-6.431181002408266">
        <ele>26.57</ele>
        <time>2025-04-29T15:20:13Z</time>
      </trkpt>
      <trkpt lat="43.493620958179235" lon="-6.431337995454669">
        <ele>26.57</ele>
        <time>2025-04-29T15:20:14Z</time>
      </trkpt>
      <trkpt lat="43.494326965883374" lon="-6.43237098120153">
        <ele>28.5</ele>
        <time>2025-04-29T15:20:21Z</time>
      </trkpt>
      <trkpt lat="43.494424028322101" lon="-6.432421021163464">
        <ele>28.5</ele>
        <time>2025-04-29T15:20:22Z</time>
      </trkpt>
      <trkpt lat="43.49450902082026" lon="-6.432452034205198">
        <ele>28.5</ele>
        <time>2025-04-29T15:20:23Z</time>
      </trkpt>
      <trkpt lat="43.494601976126432" lon="-6.432382967323065">
        <ele>28.5</ele>
        <time>2025-04-29T15:20:24Z</time>
      </trkpt>
      <trkpt lat="43.494693003594875" lon="-6.432299986481667">
        <ele>28.5</ele>
        <time>2025-04-29T15:20:25Z</time>
      </trkpt>
      <trkpt lat="43.494770033285022" lon="-6.432159002870321">
        <ele>28.5</ele>
        <time>2025-04-29T15:20:26Z</time>
      </trkpt>
      <trkpt lat="43.494838010519743" lon="-6.431993041187525">
        <ele>28.5</ele>
        <time>2025-04-29T15:20:27Z</time>
      </trkpt>
      <trkpt lat="43.494958961382508" lon="-6.431593978777528">
        <ele>28.5</ele>
        <time>2025-04-29T15:20:29Z</time>
      </trkpt>
      <trkpt lat="43.494976982474327" lon="-6.431418964639306">
        <ele>28.98</ele>
        <time>2025-04-29T15:20:30Z</time>
      </trkpt>
      <trkpt lat="43.495128024369478" lon="-6.429416025057435">
        <ele>28.5</ele>
        <time>2025-04-29T15:20:39Z</time>
      </trkpt>
      <trkpt lat="43.495176974684" lon="-6.429222989827395">
        <ele>28.98</ele>
        <time>2025-04-29T15:20:40Z</time>
      </trkpt>
      <trkpt lat="43.495229026302695" lon="-6.429034983739257">
        <ele>28.98</ele>
        <time>2025-04-29T15:20:41Z</time>
      </trkpt>
      <trkpt lat="43.495311001315713" lon="-6.428852006793022">
        <ele>29.460000000000001</ele>
        <time>2025-04-29T15:20:42Z</time>
      </trkpt>
      <trkpt lat="43.495392976328731" lon="-6.428671963512898">
        <ele>29.460000000000001</ele>
        <time>2025-04-29T15:20:43Z</time>
      </trkpt>
      <trkpt lat="43.495489032939076" lon="-6.42852796241641">
        <ele>29.460000000000001</ele>
        <time>2025-04-29T15:20:44Z</time>
      </trkpt>
      <trkpt lat="43.495702017098665" lon="-6.42826703377068">
        <ele>29.940000000000001</ele>
        <time>2025-04-29T15:20:46Z</time>
      </trkpt>
      <trkpt lat="43.495834032073617" lon="-6.428179023787379">
        <ele>29.940000000000001</ele>
        <time>2025-04-29T15:20:47Z</time>
      </trkpt>
      <trkpt lat="43.495987001806498" lon="-6.428124960511923">
        <ele>29.940000000000001</ele>
        <time>2025-04-29T15:20:48Z</time>
      </trkpt>
      <trkpt lat="43.496149023994803" lon="-6.428079027682543">
        <ele>29.940000000000001</ele>
        <time>2025-04-29T15:20:49Z</time>
      </trkpt>
      <trkpt lat="43.496294030919671" lon="-6.428037034347653">
        <ele>29.940000000000001</ele>
        <time>2025-04-29T15:20:50Z</time>
      </trkpt>
      <trkpt lat="43.496405007317662" lon="-6.428079027682543">
        <ele>29.460000000000001</ele>
        <time>2025-04-29T15:20:51Z</time>
      </trkpt>
      <trkpt lat="43.496526964008808" lon="-6.4281399641186">
        <ele>29.460000000000001</ele>
        <time>2025-04-29T15:20:52Z</time>
      </trkpt>
      <trkpt lat="43.496601982042193" lon="-6.42822302877903">
        <ele>29.460000000000001</ele>
        <time>2025-04-29T15:20:53Z</time>
      </trkpt>
      <trkpt lat="43.496686974540353" lon="-6.428378010168672">
        <ele>29.460000000000001</ele>
        <time>2025-04-29T15:20:54Z</time>
      </trkpt>
      <trkpt lat="43.496774984523654" lon="-6.428539026528597">
        <ele>29.940000000000001</ele>
        <time>2025-04-29T15:20:55Z</time>
      </trkpt>
      <trkpt lat="43.496856037527323" lon="-6.428706999868155">
        <ele>29.940000000000001</ele>
        <time>2025-04-29T15:20:56Z</time>
      </trkpt>
      <trkpt lat="43.497008001431823" lon="-6.429078988730907">
        <ele>30.899999999999999</ele>
        <time>2025-04-29T15:20:58Z</time>
      </trkpt>
      <trkpt lat="43.497140016406775" lon="-6.429468998685479">
        <ele>31.859999999999999</ele>
        <time>2025-04-29T15:21:00Z</time>
      </trkpt>
      <trkpt lat="43.497187960892916" lon="-6.429671002551913">
        <ele>32.340000000000003</ele>
        <time>2025-04-29T15:21:01Z</time>
      </trkpt>
      <trkpt lat="43.497231965884566" lon="-6.429865965619683">
        <ele>32.340000000000003</ele>
        <time>2025-04-29T15:21:02Z</time>
      </trkpt>
      <trkpt lat="43.497275970876217" lon="-6.430062018334866">
        <ele>32.82</ele>
        <time>2025-04-29T15:21:03Z</time>
      </trkpt>
      <trkpt lat="43.497319975867867" lon="-6.430255975574255">
        <ele>32.82</ele>
        <time>2025-04-29T15:21:04Z</time>
      </trkpt>
      <trkpt lat="43.497397005558014" lon="-6.430441970005631">
        <ele>33.299999999999997</ele>
        <time>2025-04-29T15:21:05Z</time>
      </trkpt>
      <trkpt lat="43.497485015541315" lon="-6.43058898858726">
        <ele>33.780000000000001</ele>
        <time>2025-04-29T15:21:06Z</time>
      </trkpt>
      <trkpt lat="43.497567996382713" lon="-6.430727038532496">
        <ele>34.259999999999998</ele>
        <time>2025-04-29T15:21:07Z</time>
      </trkpt>
      <trkpt lat="43.497644020244479" lon="-6.430854024365544">
        <ele>34.740000000000002</ele>
        <time>2025-04-29T15:21:08Z</time>
      </trkpt>
      <trkpt lat="43.497719960287213" lon="-6.430943040177226">
        <ele>35.229999999999997</ele>
        <time>2025-04-29T15:21:09Z</time>
      </trkpt>
      <trkpt lat="43.497803024947643" lon="-6.431026021018624">
        <ele>35.710000000000001</ele>
        <time>2025-04-29T15:21:10Z</time>
      </trkpt>
      <trkpt lat="43.497891034930944" lon="-6.431074971333146">
        <ele>36.189999999999998</ele>
        <time>2025-04-29T15:21:11Z</time>
      </trkpt>
      <trkpt lat="43.497996982187033" lon="-6.431155018508434">
        <ele>36.670000000000002</ele>
        <time>2025-04-29T15:21:12Z</time>
      </trkpt>
      <trkpt lat="43.498964002355933" lon="-6.431864965707064">
        <ele>40.030000000000001</ele>
        <time>2025-04-29T15:21:22Z</time>
      </trkpt>
      <trkpt lat="43.499062992632389" lon="-6.431909976527095">
        <ele>40.509999999999998</ele>
        <time>2025-04-29T15:21:23Z</time>
      </trkpt>
      <trkpt lat="43.499157959595323" lon="-6.431943001225591">
        <ele>40.990000000000002</ele>
        <time>2025-04-29T15:21:24Z</time>
      </trkpt>
      <trkpt lat="43.499356023967266" lon="-6.431976025924087">
        <ele>41.950000000000003</ele>
        <time>2025-04-29T15:21:26Z</time>
      </trkpt>
      <trkpt lat="43.499877965077758" lon="-6.432083984836936">
        <ele>43.399999999999999</ele>
        <time>2025-04-29T15:21:31Z</time>
      </trkpt>
      <trkpt lat="43.500207960605621" lon="-6.432204013690352">
        <ele>44.359999999999999</ele>
        <time>2025-04-29T15:21:34Z</time>
      </trkpt>
      <trkpt lat="43.500309968367219" lon="-6.432277020066977">
        <ele>44.359999999999999</ele>
        <time>2025-04-29T15:21:35Z</time>
      </trkpt>
      <trkpt lat="43.500739959999919" lon="-6.432596035301685">
        <ele>44.359999999999999</ele>
        <time>2025-04-29T15:21:39Z</time>
      </trkpt>
      <trkpt lat="43.500844985246658" lon="-6.432673987001181">
        <ele>44.840000000000003</ele>
        <time>2025-04-29T15:21:40Z</time>
      </trkpt>
      <trkpt lat="43.501533977687359" lon="-6.433297013863921">
        <ele>44.840000000000003</ele>
        <time>2025-04-29T15:21:47Z</time>
      </trkpt>
      <trkpt lat="43.501616036519408" lon="-6.43340396694839">
        <ele>44.359999999999999</ele>
        <time>2025-04-29T15:21:48Z</time>
      </trkpt>
      <trkpt lat="43.501682002097368" lon="-6.433501029387116">
        <ele>43.880000000000003</ele>
        <time>2025-04-29T15:21:49Z</time>
      </trkpt>
      <trkpt lat="43.501733969897032" lon="-6.433644024655223">
        <ele>42.920000000000002</ele>
        <time>2025-04-29T15:21:50Z</time>
      </trkpt>
      <trkpt lat="43.501780992373824" lon="-6.433786014094949">
        <ele>42.439999999999998</ele>
        <time>2025-04-29T15:21:51Z</time>
      </trkpt>
      <trkpt lat="43.501810999587178" lon="-6.433924986049533">
        <ele>41.469999999999999</ele>
        <time>2025-04-29T15:21:52Z</time>
      </trkpt>
      <trkpt lat="43.501828014850616" lon="-6.434082984924316">
        <ele>40.509999999999998</ele>
        <time>2025-04-29T15:21:53Z</time>
      </trkpt>
      <trkpt lat="43.501862967386842" lon="-6.435340018942952">
        <ele>37.149999999999999</ele>
        <time>2025-04-29T15:22:02Z</time>
      </trkpt>
      <trkpt lat="43.501887023448944" lon="-6.435646964237094">
        <ele>36.189999999999998</ele>
        <time>2025-04-29T15:22:04Z</time>
      </trkpt>
      <trkpt lat="43.501906972378492" lon="-6.435795994475484">
        <ele>36.189999999999998</ele>
        <time>2025-04-29T15:22:05Z</time>
      </trkpt>
      <trkpt lat="43.501957012340426" lon="-6.435930021107197">
        <ele>35.710000000000001</ele>
        <time>2025-04-29T15:22:06Z</time>
      </trkpt>
      <trkpt lat="43.502019038423896" lon="-6.436078967526555">
        <ele>34.740000000000002</ele>
        <time>2025-04-29T15:22:08Z</time>
      </trkpt>
      <trkpt lat="43.502165973186493" lon="-6.43625901080668">
        <ele>34.259999999999998</ele>
        <time>2025-04-29T15:22:09Z</time>
      </trkpt>
      <trkpt lat="43.502236967906356" lon="-6.436334028840065">
        <ele>33.780000000000001</ele>
        <time>2025-04-29T15:22:10Z</time>
      </trkpt>
      <trkpt lat="43.50233000703156" lon="-6.436407035216689">
        <ele>33.780000000000001</ele>
        <time>2025-04-29T15:22:11Z</time>
      </trkpt>
      <trkpt lat="43.502406030893326" lon="-6.436465037986636">
        <ele>33.299999999999997</ele>
        <time>2025-04-29T15:22:12Z</time>
      </trkpt>
      <trkpt lat="43.50250200368464" lon="-6.43651801161468">
        <ele>33.299999999999997</ele>
        <time>2025-04-29T15:22:13Z</time>
      </trkpt>
      <trkpt lat="43.502598982304335" lon="-6.436569979414344">
        <ele>33.299999999999997</ele>
        <time>2025-04-29T15:22:14Z</time>
      </trkpt>
      <trkpt lat="43.502687998116016" lon="-6.436609039083123">
        <ele>33.299999999999997</ele>
        <time>2025-04-29T15:22:15Z</time>
      </trkpt>
      <trkpt lat="43.502799980342388" lon="-6.43664600327611">
        <ele>32.82</ele>
        <time>2025-04-29T15:22:16Z</time>
      </trkpt>
      <trkpt lat="43.503542030230165" lon="-6.436657989397645">
        <ele>31.379999999999999</ele>
        <time>2025-04-29T15:22:23Z</time>
      </trkpt>
      <trkpt lat="43.503664992749691" lon="-6.436599986627698">
        <ele>31.379999999999999</ele>
        <time>2025-04-29T15:22:24Z</time>
      </trkpt>
      <trkpt lat="43.504959996789694" lon="-6.435941001400352">
        <ele>30.899999999999999</ele>
        <time>2025-04-29T15:22:34Z</time>
      </trkpt>
      <trkpt lat="43.506616009399295" lon="-6.43505503423512">
        <ele>25.609999999999999</ele>
        <time>2025-04-29T15:22:45Z</time>
      </trkpt>
      <trkpt lat="43.507744967937469" lon="-6.434354977682233">
        <ele>22.25</ele>
        <time>2025-04-29T15:22:54Z</time>
      </trkpt>
      <trkpt lat="43.507877988740802" lon="-6.434136964380741">
        <ele>22.25</ele>
        <time>2025-04-29T15:22:55Z</time>
      </trkpt>
      <trkpt lat="43.508379980921745" lon="-6.434214999899268">
        <ele>21.289999999999999</ele>
        <time>2025-04-29T15:22:58Z</time>
      </trkpt>
      <trkpt lat="43.508546026423573" lon="-6.434138976037502">
        <ele>21.289999999999999</ele>
        <time>2025-04-29T15:22:59Z</time>
      </trkpt>
      <trkpt lat="43.508697990328074" lon="-6.434043003246188">
        <ele>20.809999999999999</ele>
        <time>2025-04-29T15:23:00Z</time>
      </trkpt>
      <trkpt lat="43.508852971717715" lon="-6.433946024626494">
        <ele>20.809999999999999</ele>
        <time>2025-04-29T15:23:01Z</time>
      </trkpt>
      <trkpt lat="43.509011976420879" lon="-6.43383395858109">
        <ele>20.32</ele>
        <time>2025-04-29T15:23:02Z</time>
      </trkpt>
      <trkpt lat="43.509762994945049" lon="-6.433299025520682">
        <ele>19.359999999999999</ele>
        <time>2025-04-29T15:23:08Z</time>
      </trkpt>
      <trkpt lat="43.510703025385737" lon="-6.432885965332389">
        <ele>18.879999999999999</ele>
        <time>2025-04-29T15:23:16Z</time>
      </trkpt>
      <trkpt lat="43.51083998568356" lon="-6.432890994474292">
        <ele>18.399999999999999</ele>
        <time>2025-04-29T15:23:17Z</time>
      </trkpt>
      <trkpt lat="43.512259963899851" lon="-6.433031978085637">
        <ele>18.879999999999999</ele>
        <time>2025-04-29T15:23:26Z</time>
      </trkpt>
      <trkpt lat="43.513918993994594" lon="-6.433268012478948">
        <ele>19.359999999999999</ele>
        <time>2025-04-29T15:23:36Z</time>
      </trkpt>
      <trkpt lat="43.515805006027222" lon="-6.433649975806475">
        <ele>22.25</ele>
        <time>2025-04-29T15:23:47Z</time>
      </trkpt>
      <trkpt lat="43.516140030696988" lon="-6.433824989944696">
        <ele>22.25</ele>
        <time>2025-04-29T15:23:49Z</time>
      </trkpt>
      <trkpt lat="43.517409972846508" lon="-6.434814976528287">
        <ele>22.73</ele>
        <time>2025-04-29T15:23:57Z</time>
      </trkpt>
      <trkpt lat="43.518460979685187" lon="-6.435562977567315">
        <ele>21.77</ele>
        <time>2025-04-29T15:24:04Z</time>
      </trkpt>
      <trkpt lat="43.518630964681506" lon="-6.435635983943939">
        <ele>21.77</ele>
        <time>2025-04-29T15:24:05Z</time>
      </trkpt>
      <trkpt lat="43.518801033496857" lon="-6.435686023905873">
        <ele>21.289999999999999</ele>
        <time>2025-04-29T15:24:06Z</time>
      </trkpt>
      <trkpt lat="43.518976969644427" lon="-6.435717036947608">
        <ele>21.289999999999999</ele>
        <time>2025-04-29T15:24:07Z</time>
      </trkpt>
      <trkpt lat="43.519138991832733" lon="-6.43572399392724">
        <ele>20.809999999999999</ele>
        <time>2025-04-29T15:24:08Z</time>
      </trkpt>
      <trkpt lat="43.519484996795654" lon="-6.43565802834928">
        <ele>20.809999999999999</ele>
        <time>2025-04-29T15:24:10Z</time>
      </trkpt>
      <trkpt lat="43.519652970135212" lon="-6.435602959245443">
        <ele>20.32</ele>
        <time>2025-04-29T15:24:11Z</time>
      </trkpt>
      <trkpt lat="43.519837958738208" lon="-6.435533976182342">
        <ele>19.84</ele>
        <time>2025-04-29T15:24:12Z</time>
      </trkpt>
      <trkpt lat="43.519999980926514" lon="-6.435444038361311">
        <ele>19.359999999999999</ele>
        <time>2025-04-29T15:24:13Z</time>
      </trkpt>
      <trkpt lat="43.52016200311482" lon="-6.435331972315908">
        <ele>18.879999999999999</ele>
        <time>2025-04-29T15:24:14Z</time>
      </trkpt>
      <trkpt lat="43.520331988111138" lon="-6.435203980654478">
        <ele>18.399999999999999</ele>
        <time>2025-04-29T15:24:15Z</time>
      </trkpt>
      <trkpt lat="43.520499039441347" lon="-6.43507900647819">
        <ele>17.440000000000001</ele>
        <time>2025-04-29T15:24:16Z</time>
      </trkpt>
      <trkpt lat="43.521913988515735" lon="-6.434029005467892">
        <ele>17.920000000000002</ele>
        <time>2025-04-29T15:24:24Z</time>
      </trkpt>
      <trkpt lat="43.523229025304317" lon="-6.433206992223859">
        <ele>18.399999999999999</ele>
        <time>2025-04-29T15:24:32Z</time>
      </trkpt>
      <trkpt lat="43.523369003087282" lon="-6.433159969747067">
        <ele>18.879999999999999</ele>
        <time>2025-04-29T15:24:33Z</time>
      </trkpt>
      <trkpt lat="43.523543011397123" lon="-6.433169022202492">
        <ele>18.879999999999999</ele>
        <time>2025-04-29T15:24:34Z</time>
      </trkpt>
      <trkpt lat="43.523716013878584" lon="-6.433177990838885">
        <ele>18.879999999999999</ele>
        <time>2025-04-29T15:24:35Z</time>
      </trkpt>
      <trkpt lat="43.523876024410129" lon="-6.433210009709001">
        <ele>18.879999999999999</ele>
        <time>2025-04-29T15:24:36Z</time>
      </trkpt>
      <trkpt lat="43.524054978042841" lon="-6.433275975286961">
        <ele>18.879999999999999</ele>
        <time>2025-04-29T15:24:37Z</time>
      </trkpt>
      <trkpt lat="43.524221023544669" lon="-6.433343030512333">
        <ele>18.879999999999999</ele>
        <time>2025-04-29T15:24:38Z</time>
      </trkpt>
      <trkpt lat="43.524388996884227" lon="-6.433463981375098">
        <ele>18.879999999999999</ele>
        <time>2025-04-29T15:24:39Z</time>
      </trkpt>
      <trkpt lat="43.524557976052165" lon="-6.433586021885276">
        <ele>19.359999999999999</ele>
        <time>2025-04-29T15:24:40Z</time>
      </trkpt>
      <trkpt lat="43.524702982977033" lon="-6.433752989396453">
        <ele>19.84</ele>
        <time>2025-04-29T15:24:41Z</time>
      </trkpt>
      <trkpt lat="43.524843966588378" lon="-6.433936972171068">
        <ele>20.32</ele>
        <time>2025-04-29T15:24:42Z</time>
      </trkpt>
      <trkpt lat="43.52497698739171" lon="-6.434126989915967">
        <ele>20.809999999999999</ele>
        <time>2025-04-29T15:24:43Z</time>
      </trkpt>
      <trkpt lat="43.525077989324927" lon="-6.434352966025472">
        <ele>21.289999999999999</ele>
        <time>2025-04-29T15:24:44Z</time>
      </trkpt>
      <trkpt lat="43.525163987651467" lon="-6.434576008468866">
        <ele>22.25</ele>
        <time>2025-04-29T15:24:45Z</time>
      </trkpt>
      <trkpt lat="43.525240011513233" lon="-6.434793015941978">
        <ele>22.73</ele>
        <time>2025-04-29T15:24:46Z</time>
      </trkpt>
      <trkpt lat="43.525305977091193" lon="-6.435025027021766">
        <ele>23.210000000000001</ele>
        <time>2025-04-29T15:24:47Z</time>
      </trkpt>
      <trkpt lat="43.525591967627406" lon="-6.435917029157281">
        <ele>25.129999999999999</ele>
        <time>2025-04-29T15:24:51Z</time>
      </trkpt>
      <trkpt lat="43.525689030066133" lon="-6.436119033023715">
        <ele>24.649999999999999</ele>
        <time>2025-04-29T15:24:52Z</time>
      </trkpt>
      <trkpt lat="43.525791959837079" lon="-6.436318019405007">
        <ele>24.649999999999999</ele>
        <time>2025-04-29T15:24:53Z</time>
      </trkpt>
      <trkpt lat="43.525930009782314" lon="-6.436493033543229">
        <ele>24.649999999999999</ele>
        <time>2025-04-29T15:24:54Z</time>
      </trkpt>
      <trkpt lat="43.526075016707182" lon="-6.436649020761251">
        <ele>24.170000000000002</ele>
        <time>2025-04-29T15:24:55Z</time>
      </trkpt>
      <trkpt lat="43.526237038895488" lon="-6.436783969402313">
        <ele>24.170000000000002</ele>
        <time>2025-04-29T15:24:56Z</time>
      </trkpt>
      <trkpt lat="43.52766296826303" lon="-6.43793698400259">
        <ele>21.77</ele>
        <time>2025-04-29T15:25:05Z</time>
      </trkpt>
      <trkpt lat="43.528620013967156" lon="-6.438682973384857">
        <ele>19.84</ele>
        <time>2025-04-29T15:25:11Z</time>
      </trkpt>
      <trkpt lat="43.52877801284194" lon="-6.438808031380177">
        <ele>19.84</ele>
        <time>2025-04-29T15:25:12Z</time>
      </trkpt>
      <trkpt lat="43.52892997674644" lon="-6.438926970586181">
        <ele>19.359999999999999</ele>
        <time>2025-04-29T15:25:13Z</time>
      </trkpt>
      <trkpt lat="43.529091998934746" lon="-6.439017998054624">
        <ele>19.359999999999999</ele>
        <time>2025-04-29T15:25:14Z</time>
      </trkpt>
      <trkpt lat="43.529257960617542" lon="-6.439086981117725">
        <ele>18.879999999999999</ele>
        <time>2025-04-29T15:25:15Z</time>
      </trkpt>
      <trkpt lat="43.529428029432893" lon="-6.439150013029575">
        <ele>18.399999999999999</ele>
        <time>2025-04-29T15:25:16Z</time>
      </trkpt>
      <trkpt lat="43.529602959752083" lon="-6.439166022464633">
        <ele>17.920000000000002</ele>
        <time>2025-04-29T15:25:17Z</time>
      </trkpt>
      <trkpt lat="43.529778979718685" lon="-6.439183037728071">
        <ele>17.920000000000002</ele>
        <time>2025-04-29T15:25:18Z</time>
      </trkpt>
      <trkpt lat="43.530628988519311" lon="-6.43926702439785">
        <ele>16.48</ele>
        <time>2025-04-29T15:25:23Z</time>
      </trkpt>
      <trkpt lat="43.53077600710094" lon="-6.439302982762456">
        <ele>16</ele>
        <time>2025-04-29T15:25:24Z</time>
      </trkpt>
      <trkpt lat="43.530910033732653" lon="-6.439371965825558">
        <ele>15.52</ele>
        <time>2025-04-29T15:25:25Z</time>
      </trkpt>
      <trkpt lat="43.531282022595406" lon="-6.439706990495324">
        <ele>15.039999999999999</ele>
        <time>2025-04-29T15:25:28Z</time>
      </trkpt>
      <trkpt lat="43.53183195926249" lon="-6.440346026793122">
        <ele>14.56</ele>
        <time>2025-04-29T15:25:33Z</time>
      </trkpt>
      <trkpt lat="43.531951988115907" lon="-6.440455997362733">
        <ele>14.56</ele>
        <time>2025-04-29T15:25:34Z</time>
      </trkpt>
      <trkpt lat="43.532080985605717" lon="-6.440541995689273">
        <ele>14.56</ele>
        <time>2025-04-29T15:25:35Z</time>
      </trkpt>
      <trkpt lat="43.532193973660469" lon="-6.440597986802459">
        <ele>14.08</ele>
        <time>2025-04-29T15:25:36Z</time>
      </trkpt>
      <trkpt lat="43.53232498280704" lon="-6.440616007894278">
        <ele>14.08</ele>
        <time>2025-04-29T15:25:37Z</time>
      </trkpt>
      <trkpt lat="43.532449034973979" lon="-6.440626988187432">
        <ele>13.6</ele>
        <time>2025-04-29T15:25:38Z</time>
      </trkpt>
      <trkpt lat="43.533573970198631" lon="-6.440722038969398">
        <ele>10.710000000000001</ele>
        <time>2025-04-29T15:25:46Z</time>
      </trkpt>
      <trkpt lat="43.534637968987226" lon="-6.440786998718977">
        <ele>8.310000000000001</ele>
        <time>2025-04-29T15:25:53Z</time>
      </trkpt>
      <trkpt lat="43.5353749897331" lon="-6.440816000103951">
        <ele>5.91</ele>
        <time>2025-04-29T15:25:59Z</time>
      </trkpt>
      <trkpt lat="43.535428969189525" lon="-6.440818011760712">
        <ele>5.42</ele>
        <time>2025-04-29T15:26:00Z</time>
      </trkpt>
      <trkpt lat="43.535475991666317" lon="-6.440819017589092">
        <ele>5.42</ele>
        <time>2025-04-29T15:26:01Z</time>
      </trkpt>
      <trkpt lat="43.535522008314729" lon="-6.440694965422154">
        <ele>4.94</ele>
        <time>2025-04-29T15:26:02Z</time>
      </trkpt>
      <trkpt lat="43.535527959465981" lon="-6.440605027601123">
        <ele>4.46</ele>
        <time>2025-04-29T15:26:03Z</time>
      </trkpt>
      <trkpt lat="43.535536006093025" lon="-6.440477035939694">
        <ele>3.5</ele>
        <time>2025-04-29T15:26:04Z</time>
      </trkpt>
      <trkpt lat="43.535545980557799" lon="-6.440379973500967">
        <ele>3.5</ele>
        <time>2025-04-29T15:26:05Z</time>
      </trkpt>
      <trkpt lat="43.535786038264632" lon="-6.439513033255935">
        <ele>6.39</ele>
        <time>2025-04-29T15:26:12Z</time>
      </trkpt>
      <trkpt lat="43.535845968872309" lon="-6.439404990524054">
        <ele>7.35</ele>
        <time>2025-04-29T15:26:13Z</time>
      </trkpt>
      <trkpt lat="43.536074962466955" lon="-6.439046999439597">
        <ele>9.27</ele>
        <time>2025-04-29T15:26:17Z</time>
      </trkpt>
      <trkpt lat="43.536227010190487" lon="-6.438935017213225">
        <ele>9.75</ele>
        <time>2025-04-29T15:26:19Z</time>
      </trkpt>
      <trkpt lat="43.536264980211854" lon="-6.438910961151123">
        <ele>9.75</ele>
        <time>2025-04-29T15:26:20Z</time>
      </trkpt>
      <trkpt lat="43.536391966044903" lon="-6.438944991678">
        <ele>9.75</ele>
        <time>2025-04-29T15:26:21Z</time>
      </trkpt>
      <trkpt lat="43.536479976028204" lon="-6.43896795809269">
        <ele>9.75</ele>
        <time>2025-04-29T15:26:22Z</time>
      </trkpt>
      <trkpt lat="43.536587012931705" lon="-6.438996959477663">
        <ele>9.75</ele>
        <time>2025-04-29T15:26:23Z</time>
      </trkpt>
      <trkpt lat="43.536612996831536" lon="-6.439054040238261">
        <ele>10.23</ele>
        <time>2025-04-29T15:26:24Z</time>
      </trkpt>
      <trkpt lat="43.536660019308329" lon="-6.439157975837588">
        <ele>10.23</ele>
        <time>2025-04-29T15:26:25Z</time>
      </trkpt>
      <trkpt lat="43.536779964342713" lon="-6.439232993870974">
        <ele>10.710000000000001</ele>
        <time>2025-04-29T15:26:26Z</time>
      </trkpt>
      <trkpt lat="43.536982974037528" lon="-6.439686035737395">
        <ele>12.15</ele>
        <time>2025-04-29T15:26:30Z</time>
      </trkpt>
      <trkpt lat="43.537034019827843" lon="-6.439800029620528">
        <ele>12.630000000000001</ele>
        <time>2025-04-29T15:26:31Z</time>
      </trkpt>
      <trkpt lat="43.537148013710976" lon="-6.439884016290307">
        <ele>13.119999999999999</ele>
        <time>2025-04-29T15:26:32Z</time>
      </trkpt>
      <trkpt lat="43.537259995937347" lon="-6.439919974654913">
        <ele>14.08</ele>
        <time>2025-04-29T15:26:33Z</time>
      </trkpt>
      <trkpt lat="43.537380024790764" lon="-6.439959034323692">
        <ele>14.56</ele>
        <time>2025-04-29T15:26:34Z</time>
      </trkpt>
      <trkpt lat="43.537874976173043" lon="-6.440144022926688">
        <ele>16.48</ele>
        <time>2025-04-29T15:26:38Z</time>
      </trkpt>
      <trkpt lat="43.538198014721274" lon="-6.440357007086277">
        <ele>18.879999999999999</ele>
        <time>2025-04-29T15:26:41Z</time>
      </trkpt>
      <trkpt lat="43.538285018876195" lon="-6.440469995141029">
        <ele>19.84</ele>
        <time>2025-04-29T15:26:42Z</time>
      </trkpt>
      <trkpt lat="43.538389960303903" lon="-6.440606033429503">
        <ele>20.32</ele>
        <time>2025-04-29T15:26:43Z</time>
      </trkpt>
      <trkpt lat="43.538459027186036" lon="-6.440730001777411">
        <ele>21.289999999999999</ele>
        <time>2025-04-29T15:26:44Z</time>
      </trkpt>
      <trkpt lat="43.538535973057151" lon="-6.440869979560375">
        <ele>22.25</ele>
        <time>2025-04-29T15:26:45Z</time>
      </trkpt>
      <trkpt lat="43.538616020232439" lon="-6.441012974828482">
        <ele>23.210000000000001</ele>
        <time>2025-04-29T15:26:46Z</time>
      </trkpt>
      <trkpt lat="43.538932017982006" lon="-6.441828031092882">
        <ele>28.5</ele>
        <time>2025-04-29T15:26:51Z</time>
      </trkpt>
      <trkpt lat="43.538976022973657" lon="-6.442007990553975">
        <ele>29.460000000000001</ele>
        <time>2025-04-29T15:26:52Z</time>
      </trkpt>
      <trkpt lat="43.538993960246444" lon="-6.442183004692197">
        <ele>30.420000000000002</ele>
        <time>2025-04-29T15:26:53Z</time>
      </trkpt>
      <trkpt lat="43.539079958572984" lon="-6.443664003163576">
        <ele>36.670000000000002</ele>
        <time>2025-04-29T15:27:01Z</time>
      </trkpt>
      <trkpt lat="43.539067972451448" lon="-6.444268003106117">
        <ele>40.509999999999998</ele>
        <time>2025-04-29T15:27:05Z</time>
      </trkpt>
      <trkpt lat="43.539055986329913" lon="-6.444375040009618">
        <ele>40.990000000000002</ele>
        <time>2025-04-29T15:27:06Z</time>
      </trkpt>
      <trkpt lat="43.539045006036758" lon="-6.444469001144171">
        <ele>41.950000000000003</ele>
        <time>2025-04-29T15:27:07Z</time>
      </trkpt>
      <trkpt lat="43.539021033793688" lon="-6.444827998057008">
        <ele>44.359999999999999</ele>
        <time>2025-04-29T15:27:10Z</time>
      </trkpt>
      <trkpt lat="43.539042994379997" lon="-6.444967975839973">
        <ele>44.840000000000003</ele>
        <time>2025-04-29T15:27:11Z</time>
      </trkpt>
      <trkpt lat="43.539064032956958" lon="-6.445095967501402">
        <ele>45.799999999999997</ele>
        <time>2025-04-29T15:27:12Z</time>
      </trkpt>
      <trkpt lat="43.539093034341931" lon="-6.445191018283367">
        <ele>47.240000000000002</ele>
        <time>2025-04-29T15:27:13Z</time>
      </trkpt>
      <trkpt lat="43.539161011576653" lon="-6.445252038538456">
        <ele>48.200000000000003</ele>
        <time>2025-04-29T15:27:14Z</time>
      </trkpt>
      <trkpt lat="43.539228988811374" lon="-6.445313980802894">
        <ele>49.159999999999997</ele>
        <time>2025-04-29T15:27:15Z</time>
      </trkpt>
      <trkpt lat="43.53930601850152" lon="-6.44536997191608">
        <ele>50.609999999999999</ele>
        <time>2025-04-29T15:27:16Z</time>
      </trkpt>
      <trkpt lat="43.539381036534905" lon="-6.44536997191608">
        <ele>51.57</ele>
        <time>2025-04-29T15:27:17Z</time>
      </trkpt>
      <trkpt lat="43.539468962699175" lon="-6.445357985794544">
        <ele>52.530000000000001</ele>
        <time>2025-04-29T15:27:18Z</time>
      </trkpt>
      <trkpt lat="43.539551021531224" lon="-6.445322027429938">
        <ele>53.009999999999998</ele>
        <time>2025-04-29T15:27:19Z</time>
      </trkpt>
      <trkpt lat="43.539632996544242" lon="-6.445286991074681">
        <ele>53.969999999999999</ele>
        <time>2025-04-29T15:27:20Z</time>
      </trkpt>
      <trkpt lat="43.539712959900498" lon="-6.445252038538456">
        <ele>55.409999999999997</ele>
        <time>2025-04-29T15:27:21Z</time>
      </trkpt>
      <trkpt lat="43.539882022887468" lon="-6.445178026333451">
        <ele>57.82</ele>
        <time>2025-04-29T15:27:23Z</time>
      </trkpt>
      <trkpt lat="43.539962992072105" lon="-6.445156987756491">
        <ele>58.780000000000001</ele>
        <time>2025-04-29T15:27:24Z</time>
      </trkpt>
      <trkpt lat="43.540047984570265" lon="-6.445161011070013">
        <ele>59.259999999999998</ele>
        <time>2025-04-29T15:27:25Z</time>
      </trkpt>
      <trkpt lat="43.540607979521155" lon="-6.445192024111748">
        <ele>61.18</ele>
        <time>2025-04-29T15:27:31Z</time>
      </trkpt>
      <trkpt lat="43.540705963969231" lon="-6.445196969434619">
        <ele>61.18</ele>
        <time>2025-04-29T15:27:32Z</time>
      </trkpt>
      <trkpt lat="43.540792968124151" lon="-6.445197975263">
        <ele>61.659999999999997</ele>
        <time>2025-04-29T15:27:33Z</time>
      </trkpt>
      <trkpt lat="43.541938019916415" lon="-6.445315992459655">
        <ele>65.030000000000001</ele>
        <time>2025-04-29T15:27:42Z</time>
      </trkpt>
      <trkpt lat="43.543086005374789" lon="-6.445818990468979">
        <ele>74.159999999999997</ele>
        <time>2025-04-29T15:27:52Z</time>
      </trkpt>
      <trkpt lat="43.543344000354409" lon="-6.446020994335413">
        <ele>78</ele>
        <time>2025-04-29T15:27:55Z</time>
      </trkpt>
      <trkpt lat="43.543422035872936" lon="-6.446112021803856">
        <ele>79.450000000000003</ele>
        <time>2025-04-29T15:27:56Z</time>
      </trkpt>
      <trkpt lat="43.543503005057573" lon="-6.446206988766789">
        <ele>80.890000000000001</ele>
        <time>2025-04-29T15:27:57Z</time>
      </trkpt>
      <trkpt lat="43.543571988120675" lon="-6.446311008185148">
        <ele>82.329999999999998</ele>
        <time>2025-04-29T15:27:58Z</time>
      </trkpt>
      <trkpt lat="43.543636025860906" lon="-6.446433970704675">
        <ele>83.290000000000006</ele>
        <time>2025-04-29T15:27:59Z</time>
      </trkpt>
      <trkpt lat="43.54384196922183" lon="-6.446897992864251">
        <ele>88.099999999999994</ele>
        <time>2025-04-29T15:28:03Z</time>
      </trkpt>
      <trkpt lat="43.543872982263565" lon="-6.446984997019172">
        <ele>89.060000000000002</ele>
        <time>2025-04-29T15:28:04Z</time>
      </trkpt>
      <trkpt lat="43.543896032497287" lon="-6.447049034759402">
        <ele>90.019999999999996</ele>
        <time>2025-04-29T15:28:05Z</time>
      </trkpt>
      <trkpt lat="43.543914975598454" lon="-6.447098990902305">
        <ele>90.5</ele>
        <time>2025-04-29T15:28:06Z</time>
      </trkpt>
      <trkpt lat="43.543983958661556" lon="-6.44708801060915">
        <ele>91.459999999999994</ele>
        <time>2025-04-29T15:28:07Z</time>
      </trkpt>
      <trkpt lat="43.544037016108632" lon="-6.447050040587783">
        <ele>91.939999999999998</ele>
        <time>2025-04-29T15:28:08Z</time>
      </trkpt>
      <trkpt lat="43.544102981686592" lon="-6.447003018110991">
        <ele>92.420000000000002</ele>
        <time>2025-04-29T15:28:09Z</time>
      </trkpt>
      <trkpt lat="43.544173976406455" lon="-6.446951972320676">
        <ele>92.900000000000006</ele>
        <time>2025-04-29T15:28:10Z</time>
      </trkpt>
      <trkpt lat="43.544243965297937" lon="-6.446903022006154">
        <ele>93.390000000000001</ele>
        <time>2025-04-29T15:28:11Z</time>
      </trkpt>
      <trkpt lat="43.54431102052331" lon="-6.446859017014504">
        <ele>93.870000000000005</ele>
        <time>2025-04-29T15:28:12Z</time>
      </trkpt>
      <trkpt lat="43.54437698610127" lon="-6.446814006194472">
        <ele>94.349999999999994</ele>
        <time>2025-04-29T15:28:13Z</time>
      </trkpt>
      <trkpt lat="43.544418979436159" lon="-6.446678973734379">
        <ele>95.310000000000002</ele>
        <time>2025-04-29T15:28:14Z</time>
      </trkpt>
      <trkpt lat="43.544468013569713" lon="-6.446642009541392">
        <ele>95.310000000000002</ele>
        <time>2025-04-29T15:28:15Z</time>
      </trkpt>
      <trkpt lat="43.544539008289576" lon="-6.446656007319689">
        <ele>95.790000000000006</ele>
        <time>2025-04-29T15:28:16Z</time>
      </trkpt>
      <trkpt lat="43.544583013281226" lon="-6.446711998432875">
        <ele>96.269999999999996</ele>
        <time>2025-04-29T15:28:17Z</time>
      </trkpt>
      <trkpt lat="43.544590976089239" lon="-6.446721972897649">
        <ele>96.269999999999996</ele>
        <time>2025-04-29T15:28:18Z</time>
      </trkpt>
      <trkpt lat="43.544564992189407" lon="-6.446800008416176">
        <ele>96.269999999999996</ele>
        <time>2025-04-29T15:28:19Z</time>
      </trkpt>
      <trkpt lat="43.544650990515947" lon="-6.446969993412495">
        <ele>96.269999999999996</ele>
        <time>2025-04-29T15:28:20Z</time>
      </trkpt>
      <trkpt lat="43.544707987457514" lon="-6.447036964818835">
        <ele>96.269999999999996</ele>
        <time>2025-04-29T15:28:21Z</time>
      </trkpt>
      <trkpt lat="43.544774958863854" lon="-6.447115000337362">
        <ele>95.790000000000006</ele>
        <time>2025-04-29T15:28:22Z</time>
      </trkpt>
      <trkpt lat="43.544856011867523" lon="-6.447154982015491">
        <ele>95.790000000000006</ele>
        <time>2025-04-29T15:28:23Z</time>
      </trkpt>
      <trkpt lat="43.544943016022444" lon="-6.447161016985774">
        <ele>95.310000000000002</ele>
        <time>2025-04-29T15:28:24Z</time>
      </trkpt>
      <trkpt lat="43.545018034055829" lon="-6.447166968137026">
        <ele>95.310000000000002</ele>
        <time>2025-04-29T15:28:25Z</time>
      </trkpt>
      <trkpt lat="43.545113001018763" lon="-6.447094967588782">
        <ele>94.829999999999998</ele>
        <time>2025-04-29T15:28:26Z</time>
      </trkpt>
      <trkpt lat="43.545149965211749" lon="-6.446991031989455">
        <ele>94.829999999999998</ele>
        <time>2025-04-29T15:28:27Z</time>
      </trkpt>
      <trkpt lat="43.545198999345303" lon="-6.446911990642548">
        <ele>94.349999999999994</ele>
        <time>2025-04-29T15:28:28Z</time>
      </trkpt>
      <trkpt lat="43.545272005721927" lon="-6.446848958730698">
        <ele>94.349999999999994</ele>
        <time>2025-04-29T15:28:29Z</time>
      </trkpt>
      <trkpt lat="43.545353980734944" lon="-6.446816017851234">
        <ele>94.349999999999994</ele>
        <time>2025-04-29T15:28:30Z</time>
      </trkpt>
      <trkpt lat="43.545445008203387" lon="-6.446837978437543">
        <ele>94.349999999999994</ele>
        <time>2025-04-29T15:28:31Z</time>
      </trkpt>
      <trkpt lat="43.54549203068018" lon="-6.446849964559078">
        <ele>94.349999999999994</ele>
        <time>2025-04-29T15:28:32Z</time>
      </trkpt>
      <trkpt lat="43.545567970722914" lon="-6.446977034211159">
        <ele>94.349999999999994</ele>
        <time>2025-04-29T15:28:33Z</time>
      </trkpt>
      <trkpt lat="43.54572999291122" lon="-6.447015004232526">
        <ele>93.870000000000005</ele>
        <time>2025-04-29T15:28:34Z</time>
      </trkpt>
      <trkpt lat="43.545819008722901" lon="-6.446975022554398">
        <ele>93.390000000000001</ele>
        <time>2025-04-29T15:28:35Z</time>
      </trkpt>
      <trkpt lat="43.545907018706203" lon="-6.446937974542379">
        <ele>92.900000000000006</ele>
        <time>2025-04-29T15:28:36Z</time>
      </trkpt>
      <trkpt lat="43.545964015647769" lon="-6.446915008127689">
        <ele>91.939999999999998</ele>
        <time>2025-04-29T15:28:37Z</time>
      </trkpt>
      <trkpt lat="43.546072980388999" lon="-6.4468730147928">
        <ele>91.459999999999994</ele>
        <time>2025-04-29T15:28:38Z</time>
      </trkpt>
      <trkpt lat="43.546149004250765" lon="-6.446844013407826">
        <ele>90.980000000000004</ele>
        <time>2025-04-29T15:28:39Z</time>
      </trkpt>
      <trkpt lat="43.546251012012362" lon="-6.446729013696313">
        <ele>90.5</ele>
        <time>2025-04-29T15:28:40Z</time>
      </trkpt>
      <trkpt lat="43.546260986477137" lon="-6.446623988449574">
        <ele>90.5</ele>
        <time>2025-04-29T15:28:41Z</time>
      </trkpt>
      <trkpt lat="43.546298034489155" lon="-6.446540001779795">
        <ele>90.5</ele>
        <time>2025-04-29T15:28:42Z</time>
      </trkpt>
      <trkpt lat="43.546360982581973" lon="-6.446438999846578">
        <ele>90.5</ele>
        <time>2025-04-29T15:28:43Z</time>
      </trkpt>
      <trkpt lat="43.546426026150584" lon="-6.446411004289985">
        <ele>90.019999999999996</ele>
        <time>2025-04-29T15:28:44Z</time>
      </trkpt>
      <trkpt lat="43.54650498367846" lon="-6.446405975148082">
        <ele>90.019999999999996</ele>
        <time>2025-04-29T15:28:45Z</time>
      </trkpt>
      <trkpt lat="43.546606991440058" lon="-6.446431959047914">
        <ele>90.019999999999996</ele>
        <time>2025-04-29T15:28:46Z</time>
      </trkpt>
      <trkpt lat="43.546672035008669" lon="-6.446478981524706">
        <ele>90.019999999999996</ele>
        <time>2025-04-29T15:28:47Z</time>
      </trkpt>
      <trkpt lat="43.546735988929868" lon="-6.446591969579458">
        <ele>89.540000000000006</ele>
        <time>2025-04-29T15:28:48Z</time>
      </trkpt>
      <trkpt lat="43.546747975051403" lon="-6.446694983169437">
        <ele>89.540000000000006</ele>
        <time>2025-04-29T15:28:49Z</time>
      </trkpt>
      <trkpt lat="43.546758033335209" lon="-6.446786010637879">
        <ele>90.019999999999996</ele>
        <time>2025-04-29T15:28:50Z</time>
      </trkpt>
      <trkpt lat="43.546712016686797" lon="-6.446878965944052">
        <ele>89.540000000000006</ele>
        <time>2025-04-29T15:28:51Z</time>
      </trkpt>
      <trkpt lat="43.546658037230372" lon="-6.446986002847552">
        <ele>89.540000000000006</ele>
        <time>2025-04-29T15:28:52Z</time>
      </trkpt>
      <trkpt lat="43.546586958691478" lon="-6.447033025324345">
        <ele>89.540000000000006</ele>
        <time>2025-04-29T15:28:53Z</time>
      </trkpt>
      <trkpt lat="43.546496015042067" lon="-6.447078036144376">
        <ele>90.019999999999996</ele>
        <time>2025-04-29T15:28:54Z</time>
      </trkpt>
      <trkpt lat="43.546458967030048" lon="-6.447265958413482">
        <ele>90.019999999999996</ele>
        <time>2025-04-29T15:28:55Z</time>
      </trkpt>
      <trkpt lat="43.546444969251752" lon="-6.447394033893943">
        <ele>90.019999999999996</ele>
        <time>2025-04-29T15:28:56Z</time>
      </trkpt>
      <trkpt lat="43.546428959816694" lon="-6.44753803499043">
        <ele>90.019999999999996</ele>
        <time>2025-04-29T15:28:57Z</time>
      </trkpt>
      <trkpt lat="43.546412028372288" lon="-6.447691004723311">
        <ele>90.019999999999996</ele>
        <time>2025-04-29T15:28:58Z</time>
      </trkpt>
      <trkpt lat="43.546364000067115" lon="-6.449124980717897">
        <ele>90.980000000000004</ele>
        <time>2025-04-29T15:29:05Z</time>
      </trkpt>
      <trkpt lat="43.546346984803677" lon="-6.45140896551311">
        <ele>88.579999999999998</ele>
        <time>2025-04-29T15:29:14Z</time>
      </trkpt>
      <trkpt lat="43.546327035874128" lon="-6.454453021287918">
        <ele>84.730000000000004</ele>
        <time>2025-04-29T15:29:22Z</time>
      </trkpt>
      <trkpt lat="43.546801032498479" lon="-6.457002041861415">
        <ele>80.409999999999997</ele>
        <time>2025-04-29T15:29:30Z</time>
      </trkpt>
      <trkpt lat="43.547781966626644" lon="-6.459673019126058">
        <ele>76.560000000000002</ele>
        <time>2025-04-29T15:29:39Z</time>
      </trkpt>
      <trkpt lat="43.548285970464349" lon="-6.461977958679199">
        <ele>75.120000000000005</ele>
        <time>2025-04-29T15:29:46Z</time>
      </trkpt>
      <trkpt lat="43.548317989334464" lon="-6.46447098813951">
        <ele>74.640000000000001</ele>
        <time>2025-04-29T15:29:53Z</time>
      </trkpt>
      <trkpt lat="43.547779032960534" lon="-6.466969968751073">
        <ele>75.120000000000005</ele>
        <time>2025-04-29T15:30:00Z</time>
      </trkpt>
      <trkpt lat="43.546889964491129" lon="-6.46887400187552">
        <ele>77.040000000000006</ele>
        <time>2025-04-29T15:30:06Z</time>
      </trkpt>
      <trkpt lat="43.545728987082839" lon="-6.470447033643723">
        <ele>79.450000000000003</ele>
        <time>2025-04-29T15:30:12Z</time>
      </trkpt>
      <trkpt lat="43.543146019801497" lon="-6.473107030615211">
        <ele>92.900000000000006</ele>
        <time>2025-04-29T15:30:25Z</time>
      </trkpt>
      <trkpt lat="43.539730980992317" lon="-6.476647965610027">
        <ele>114.53</ele>
        <time>2025-04-29T15:30:42Z</time>
      </trkpt>
      <trkpt lat="43.538335980847478" lon="-6.478760959580541">
        <ele>123.67</ele>
        <time>2025-04-29T15:30:50Z</time>
      </trkpt>
      <trkpt lat="43.536702012643218" lon="-6.481742989271879">
        <ele>129.43000000000001</ele>
        <time>2025-04-29T15:31:00Z</time>
      </trkpt>
      <trkpt lat="43.535468028858304" lon="-6.484056981280446">
        <ele>131.36000000000001</ele>
        <time>2025-04-29T15:31:08Z</time>
      </trkpt>
      <trkpt lat="43.534552976489067" lon="-6.486454959958792">
        <ele>131.36000000000001</ele>
        <time>2025-04-29T15:31:16Z</time>
      </trkpt>
      <trkpt lat="43.53430001065135" lon="-6.488585975021124">
        <ele>131.84</ele>
        <time>2025-04-29T15:31:22Z</time>
      </trkpt>
      <trkpt lat="43.534522969275713" lon="-6.490762000903487">
        <ele>132.80000000000001</ele>
        <time>2025-04-29T15:31:28Z</time>
      </trkpt>
      <trkpt lat="43.535128980875015" lon="-6.493424009531736">
        <ele>132.31999999999999</ele>
        <time>2025-04-29T15:31:36Z</time>
      </trkpt>
      <trkpt lat="43.535211961716413" lon="-6.495615961030126">
        <ele>128.94999999999999</ele>
        <time>2025-04-29T15:31:42Z</time>
      </trkpt>
      <trkpt lat="43.53496796451509" lon="-6.499438025057316">
        <ele>123.19</ele>
        <time>2025-04-29T15:31:53Z</time>
      </trkpt>
      <trkpt lat="43.534473013132811" lon="-6.502573024481535">
        <ele>117.90000000000001</ele>
        <time>2025-04-29T15:32:02Z</time>
      </trkpt>
      <trkpt lat="43.533522002398968" lon="-6.506415959447622">
        <ele>110.20999999999999</ele>
        <time>2025-04-29T15:32:14Z</time>
      </trkpt>
      <trkpt lat="43.532614996656775" lon="-6.510069966316223">
        <ele>104.92</ele>
        <time>2025-04-29T15:32:25Z</time>
      </trkpt>
      <trkpt lat="43.531771022826433" lon="-6.513793040066958">
        <ele>104.44</ele>
        <time>2025-04-29T15:32:36Z</time>
      </trkpt>
      <trkpt lat="43.531400039792061" lon="-6.517406981438398">
        <ele>106.36</ele>
        <time>2025-04-29T15:32:47Z</time>
      </trkpt>
      <trkpt lat="43.53097097016871" lon="-6.520421029999852">
        <ele>101.08</ele>
        <time>2025-04-29T15:32:56Z</time>
      </trkpt>
      <trkpt lat="43.530117021873593" lon="-6.523161996155977">
        <ele>94.829999999999998</ele>
        <time>2025-04-29T15:33:04Z</time>
      </trkpt>
      <trkpt lat="43.528825035318732" lon="-6.525524016469717">
        <ele>91.459999999999994</ele>
        <time>2025-04-29T15:33:12Z</time>
      </trkpt>
      <trkpt lat="43.52643602527678" lon="-6.529256980866194">
        <ele>92.420000000000002</ele>
        <time>2025-04-29T15:33:26Z</time>
      </trkpt>
      <trkpt lat="43.525302959606051" lon="-6.531323036178947">
        <ele>85.689999999999998</ele>
        <time>2025-04-29T15:33:34Z</time>
      </trkpt>
      <trkpt lat="43.524727039039135" lon="-6.534014968201518">
        <ele>85.209999999999994</ele>
        <time>2025-04-29T15:33:41Z</time>
      </trkpt>
      <trkpt lat="43.524791998788714" lon="-6.536053027957678">
        <ele>86.659999999999997</ele>
        <time>2025-04-29T15:33:47Z</time>
      </trkpt>
      <trkpt lat="43.525355011224747" lon="-6.540497029200196">
        <ele>85.209999999999994</ele>
        <time>2025-04-29T15:34:00Z</time>
      </trkpt>
      <trkpt lat="43.525958005338907" lon="-6.544822007417679">
        <ele>82.329999999999998</ele>
        <time>2025-04-29T15:34:12Z</time>
      </trkpt>
      <trkpt lat="43.526793010532856" lon="-6.548184994608164">
        <ele>79.450000000000003</ele>
        <time>2025-04-29T15:34:22Z</time>
      </trkpt>
      <trkpt lat="43.527733962982893" lon="-6.551960958167911">
        <ele>74.159999999999997</ele>
        <time>2025-04-29T15:34:33Z</time>
      </trkpt>
      <trkpt lat="43.528428990393877" lon="-6.555555034428835">
        <ele>75.599999999999994</ele>
        <time>2025-04-29T15:34:44Z</time>
      </trkpt>
      <trkpt lat="43.528805002570152" lon="-6.558951968327165">
        <ele>81.849999999999994</ele>
        <time>2025-04-29T15:34:54Z</time>
      </trkpt>
      <trkpt lat="43.529388969764113" lon="-6.561952019110322">
        <ele>90.980000000000004</ele>
        <time>2025-04-29T15:35:03Z</time>
      </trkpt>
      <trkpt lat="43.529470022767782" lon="-6.564755011349917">
        <ele>101.08</ele>
        <time>2025-04-29T15:35:11Z</time>
      </trkpt>
      <trkpt lat="43.529041036963463" lon="-6.567927980795503">
        <ele>110.20999999999999</ele>
        <time>2025-04-29T15:35:20Z</time>
      </trkpt>
      <trkpt lat="43.528840960934758" lon="-6.571566984057427">
        <ele>123.67</ele>
        <time>2025-04-29T15:35:30Z</time>
      </trkpt>
      <trkpt lat="43.529032990336418" lon="-6.574770966544747">
        <ele>132.31999999999999</ele>
        <time>2025-04-29T15:35:39Z</time>
      </trkpt>
      <trkpt lat="43.529675966128707" lon="-6.578122973442078">
        <ele>137.13</ele>
        <time>2025-04-29T15:35:49Z</time>
      </trkpt>
      <trkpt lat="43.530644997954369" lon="-6.581101985648274">
        <ele>138.56999999999999</ele>
        <time>2025-04-29T15:35:58Z</time>
      </trkpt>
      <trkpt lat="43.532150974497199" lon="-6.584103964269161">
        <ele>140.97</ele>
        <time>2025-04-29T15:36:08Z</time>
      </trkpt>
      <trkpt lat="43.533528037369251" lon="-6.586200026795268">
        <ele>143.37</ele>
        <time>2025-04-29T15:36:16Z</time>
      </trkpt>
      <trkpt lat="43.534569991752505" lon="-6.588236996904016">
        <ele>145.78</ele>
        <time>2025-04-29T15:36:23Z</time>
      </trkpt>
      <trkpt lat="43.535298965871334" lon="-6.590981986373663">
        <ele>146.74000000000001</ele>
        <time>2025-04-29T15:36:31Z</time>
      </trkpt>
      <trkpt lat="43.535420000553131" lon="-6.593822026625276">
        <ele>143.37</ele>
        <time>2025-04-29T15:36:39Z</time>
      </trkpt>
      <trkpt lat="43.535249009728432" lon="-6.59729196690023">
        <ele>142.88999999999999</ele>
        <time>2025-04-29T15:36:49Z</time>
      </trkpt>
      <trkpt lat="43.535335008054972" lon="-6.599485008046031">
        <ele>144.34</ele>
        <time>2025-04-29T15:36:56Z</time>
      </trkpt>
      <trkpt lat="43.535559978336096" lon="-6.600842038169503">
        <ele>145.78</ele>
        <time>2025-04-29T15:37:01Z</time>
      </trkpt>
      <trkpt lat="43.535644970834255" lon="-6.601143032312393">
        <ele>146.74000000000001</ele>
        <time>2025-04-29T15:37:03Z</time>
      </trkpt>
      <trkpt lat="43.537252033129334" lon="-6.605143966153264">
        <ele>146.74000000000001</ele>
        <time>2025-04-29T15:37:18Z</time>
      </trkpt>
      <trkpt lat="43.538775024935603" lon="-6.608389019966126">
        <ele>147.69999999999999</ele>
        <time>2025-04-29T15:37:30Z</time>
      </trkpt>
      <trkpt lat="43.539595026522875" lon="-6.611082041636109">
        <ele>151.06</ele>
        <time>2025-04-29T15:37:38Z</time>
      </trkpt>
      <trkpt lat="43.54016499593854" lon="-6.614539995789528">
        <ele>156.34999999999999</ele>
        <time>2025-04-29T15:37:47Z</time>
      </trkpt>
      <trkpt lat="43.540805038064718" lon="-6.616575038060546">
        <ele>158.27000000000001</ele>
        <time>2025-04-29T15:37:53Z</time>
      </trkpt>
      <trkpt lat="43.541746996343136" lon="-6.61963895894587">
        <ele>158.75</ele>
        <time>2025-04-29T15:38:03Z</time>
      </trkpt>
      <trkpt lat="43.541921004652977" lon="-6.620992971584201">
        <ele>158.27000000000001</ele>
        <time>2025-04-29T15:38:08Z</time>
      </trkpt>
      <trkpt lat="43.541841041296721" lon="-6.624177005141974">
        <ele>157.78999999999999</ele>
        <time>2025-04-29T15:38:17Z</time>
      </trkpt>
      <trkpt lat="43.541377019137144" lon="-6.626964993774891">
        <ele>148.18000000000001</ele>
        <time>2025-04-29T15:38:25Z</time>
      </trkpt>
      <trkpt lat="43.540447968989611" lon="-6.629794975742698">
        <ele>133.75999999999999</ele>
        <time>2025-04-29T15:38:34Z</time>
      </trkpt>
      <trkpt lat="43.539103008806705" lon="-6.633637994527817">
        <ele>115.01000000000001</ele>
        <time>2025-04-29T15:38:46Z</time>
      </trkpt>
      <trkpt lat="43.538507977500558" lon="-6.63710399530828">
        <ele>108.29000000000001</ele>
        <time>2025-04-29T15:38:56Z</time>
      </trkpt>
      <trkpt lat="43.53795200586319" lon="-6.641644975170493">
        <ele>114.05</ele>
        <time>2025-04-29T15:39:09Z</time>
      </trkpt>
      <trkpt lat="43.53739301674068" lon="-6.644842000678182">
        <ele>118.86</ele>
        <time>2025-04-29T15:39:18Z</time>
      </trkpt>
      <trkpt lat="43.53638400323689" lon="-6.648697005584836">
        <ele>114.53</ele>
        <time>2025-04-29T15:39:30Z</time>
      </trkpt>
      <trkpt lat="43.53503099642694" lon="-6.652543963864446">
        <ele>108.77</ele>
        <time>2025-04-29T15:39:42Z</time>
      </trkpt>
      <trkpt lat="43.533576987683773" lon="-6.656607007607818">
        <ele>99.629999999999995</ele>
        <time>2025-04-29T15:39:55Z</time>
      </trkpt>
      <trkpt lat="43.53318496607244" lon="-6.659385021775961">
        <ele>96.269999999999996</ele>
        <time>2025-04-29T15:40:03Z</time>
      </trkpt>
      <trkpt lat="43.533286973834038" lon="-6.661850977689028">
        <ele>96.269999999999996</ele>
        <time>2025-04-29T15:40:10Z</time>
      </trkpt>
      <trkpt lat="43.533714031800628" lon="-6.664929986000061">
        <ele>95.790000000000006</ele>
        <time>2025-04-29T15:40:19Z</time>
      </trkpt>
      <trkpt lat="43.534036986529827" lon="-6.668424988165498">
        <ele>95.790000000000006</ele>
        <time>2025-04-29T15:40:29Z</time>
      </trkpt>
      <trkpt lat="43.533960962668061" lon="-6.671807002276182">
        <ele>97.230000000000004</ele>
        <time>2025-04-29T15:40:38Z</time>
      </trkpt>
      <trkpt lat="43.533664997667074" lon="-6.674685012549162">
        <ele>93.870000000000005</ele>
        <time>2025-04-29T15:40:46Z</time>
      </trkpt>
      <trkpt lat="43.533412031829357" lon="-6.678187977522612">
        <ele>81.370000000000005</ele>
        <time>2025-04-29T15:40:56Z</time>
      </trkpt>
      <trkpt lat="43.533515967428684" lon="-6.680952999740839">
        <ele>74.159999999999997</ele>
        <time>2025-04-29T15:41:04Z</time>
      </trkpt>
      <trkpt lat="43.533628033474088" lon="-6.684353034943342">
        <ele>79.450000000000003</ele>
        <time>2025-04-29T15:41:14Z</time>
      </trkpt>
      <trkpt lat="43.533253027126193" lon="-6.687127025797963">
        <ele>84.25</ele>
        <time>2025-04-29T15:41:22Z</time>
      </trkpt>
      <trkpt lat="43.532620025798678" lon="-6.691007008776069">
        <ele>89.060000000000002</ele>
        <time>2025-04-29T15:41:33Z</time>
      </trkpt>
      <trkpt lat="43.532546013593674" lon="-6.694488013163209">
        <ele>86.659999999999997</ele>
        <time>2025-04-29T15:41:43Z</time>
      </trkpt>
      <trkpt lat="43.532939041033387" lon="-6.698376964777708">
        <ele>78.969999999999999</ele>
        <time>2025-04-29T15:41:54Z</time>
      </trkpt>
      <trkpt lat="43.532932000234723" lon="-6.701315995305777">
        <ele>73.200000000000003</ele>
        <time>2025-04-29T15:42:02Z</time>
      </trkpt>
      <trkpt lat="43.532550958916545" lon="-6.703757978975773">
        <ele>68.390000000000001</ele>
        <time>2025-04-29T15:42:09Z</time>
      </trkpt>
      <trkpt lat="43.53170002810657" lon="-6.706345975399017">
        <ele>59.740000000000002</ele>
        <time>2025-04-29T15:42:17Z</time>
      </trkpt>
      <trkpt lat="43.530484987422824" lon="-6.708959033712745">
        <ele>53.009999999999998</ele>
        <time>2025-04-29T15:42:26Z</time>
      </trkpt>
      <trkpt lat="43.529308000579476" lon="-6.712416987866163">
        <ele>53.009999999999998</ele>
        <time>2025-04-29T15:42:37Z</time>
      </trkpt>
      <trkpt lat="43.528707018122077" lon="-6.715531032532454">
        <ele>49.649999999999999</ele>
        <time>2025-04-29T15:42:46Z</time>
      </trkpt>
      <trkpt lat="43.528497973456979" lon="-6.718675000593066">
        <ele>40.030000000000001</ele>
        <time>2025-04-29T15:42:55Z</time>
      </trkpt>
      <trkpt lat="43.528765020892024" lon="-6.722137983888388">
        <ele>30.420000000000002</ele>
        <time>2025-04-29T15:43:05Z</time>
      </trkpt>
      <trkpt lat="43.529452001675963" lon="-6.725540030747652">
        <ele>25.129999999999999</ele>
        <time>2025-04-29T15:43:15Z</time>
      </trkpt>
      <trkpt lat="43.530416004359722" lon="-6.728300023823977">
        <ele>26.09</ele>
        <time>2025-04-29T15:43:24Z</time>
      </trkpt>
      <trkpt lat="43.5316570289433" lon="-6.731138974428177">
        <ele>31.859999999999999</ele>
        <time>2025-04-29T15:43:33Z</time>
      </trkpt>
      <trkpt lat="43.532421039417386" lon="-6.733715990558267">
        <ele>38.109999999999999</ele>
        <time>2025-04-29T15:43:41Z</time>
      </trkpt>
      <trkpt lat="43.53275396861136" lon="-6.736203990876675">
        <ele>42.920000000000002</ele>
        <time>2025-04-29T15:43:48Z</time>
      </trkpt>
      <trkpt lat="43.532936023548245" lon="-6.739147966727614">
        <ele>47.719999999999999</ele>
        <time>2025-04-29T15:43:56Z</time>
      </trkpt>
      <trkpt lat="43.533425023779273" lon="-6.741782985627651">
        <ele>54.450000000000003</ele>
        <time>2025-04-29T15:44:04Z</time>
      </trkpt>
      <trkpt lat="43.534264974296093" lon="-6.744116004556418">
        <ele>62.619999999999997</ele>
        <time>2025-04-29T15:44:12Z</time>
      </trkpt>
      <trkpt lat="43.535784026607871" lon="-6.747818039730191">
        <ele>72.239999999999995</ele>
        <time>2025-04-29T15:44:26Z</time>
      </trkpt>
      <trkpt lat="43.538815006613731" lon="-6.755506005138159">
        <ele>84.25</ele>
        <time>2025-04-29T15:44:55Z</time>
      </trkpt>
      <trkpt lat="43.5396299790591" lon="-6.758014038205147">
        <ele>91.939999999999998</ele>
        <time>2025-04-29T15:45:03Z</time>
      </trkpt>
      <trkpt lat="43.540112022310495" lon="-6.761063039302826">
        <ele>95.310000000000002</ele>
        <time>2025-04-29T15:45:12Z</time>
      </trkpt>
      <trkpt lat="43.540468001738191" lon="-6.764957020059228">
        <ele>96.75</ele>
        <time>2025-04-29T15:45:23Z</time>
      </trkpt>
      <trkpt lat="43.540547965094447" lon="-6.76805698312819">
        <ele>99.629999999999995</ele>
        <time>2025-04-29T15:45:32Z</time>
      </trkpt>
      <trkpt lat="43.540159966796637" lon="-6.770726032555103">
        <ele>105.40000000000001</ele>
        <time>2025-04-29T15:45:40Z</time>
      </trkpt>
      <trkpt lat="43.539324039593339" lon="-6.775015974417329">
        <ele>118.38</ele>
        <time>2025-04-29T15:45:53Z</time>
      </trkpt>
      <trkpt lat="43.539162017405033" lon="-6.778158014640212">
        <ele>127.51000000000001</ele>
        <time>2025-04-29T15:46:02Z</time>
      </trkpt>
      <trkpt lat="43.53952000848949" lon="-6.781467022374272">
        <ele>131.84</ele>
        <time>2025-04-29T15:46:11Z</time>
      </trkpt>
      <trkpt lat="43.540196008980274" lon="-6.784291975200176">
        <ele>126.06999999999999</ele>
        <time>2025-04-29T15:46:19Z</time>
      </trkpt>
      <trkpt lat="43.541145008057356" lon="-6.787701984867454">
        <ele>113.56999999999999</ele>
        <time>2025-04-29T15:46:29Z</time>
      </trkpt>
      <trkpt lat="43.54188303463161" lon="-6.790342032909393">
        <ele>104.92</ele>
        <time>2025-04-29T15:46:37Z</time>
      </trkpt>
      <trkpt lat="43.542995983734727" lon="-6.7943100258708">
        <ele>90.980000000000004</ele>
        <time>2025-04-29T15:46:49Z</time>
      </trkpt>
      <trkpt lat="43.544214041903615" lon="-6.798970028758049">
        <ele>72.719999999999999</ele>
        <time>2025-04-29T15:47:03Z</time>
      </trkpt>
      <trkpt lat="43.544661970809102" lon="-6.802338967099786">
        <ele>65.989999999999995</ele>
        <time>2025-04-29T15:47:13Z</time>
      </trkpt>
      <trkpt lat="43.544657025486231" lon="-6.805460974574089">
        <ele>66.950000000000003</ele>
        <time>2025-04-29T15:47:22Z</time>
      </trkpt>
      <trkpt lat="43.544318983331323" lon="-6.808421965688467">
        <ele>69.829999999999998</ele>
        <time>2025-04-29T15:47:30Z</time>
      </trkpt>
      <trkpt lat="43.543782960623503" lon="-6.811100989580154">
        <ele>72.719999999999999</ele>
        <time>2025-04-29T15:47:38Z</time>
      </trkpt>
      <trkpt lat="43.543421030044556" lon="-6.813464015722275">
        <ele>75.120000000000005</ele>
        <time>2025-04-29T15:47:45Z</time>
      </trkpt>
      <trkpt lat="43.543291026726365" lon="-6.816298021003604">
        <ele>77.519999999999996</ele>
        <time>2025-04-29T15:47:53Z</time>
      </trkpt>
      <trkpt lat="43.543364033102989" lon="-6.820886023342609">
        <ele>82.810000000000002</ele>
        <time>2025-04-29T15:48:06Z</time>
      </trkpt>
      <trkpt lat="43.543299995362759" lon="-6.824143985286355">
        <ele>83.769999999999996</ele>
        <time>2025-04-29T15:48:15Z</time>
      </trkpt>
      <trkpt lat="43.543065972626209" lon="-6.827740995213389">
        <ele>79.930000000000007</ele>
        <time>2025-04-29T15:48:25Z</time>
      </trkpt>
      <trkpt lat="43.542714016512036" lon="-6.831167014315724">
        <ele>75.599999999999994</ele>
        <time>2025-04-29T15:48:35Z</time>
      </trkpt>
      <trkpt lat="43.542497009038925" lon="-6.834301007911563">
        <ele>73.200000000000003</ele>
        <time>2025-04-29T15:48:44Z</time>
      </trkpt>
      <trkpt lat="43.542542019858956" lon="-6.83715496212244">
        <ele>68.870000000000005</ele>
        <time>2025-04-29T15:48:52Z</time>
      </trkpt>
      <trkpt lat="43.542562974616885" lon="-6.837509013712406">
        <ele>68.390000000000001</ele>
        <time>2025-04-29T15:48:53Z</time>
      </trkpt>
      <trkpt lat="43.542825998738408" lon="-6.839949991554022">
        <ele>67.909999999999997</ele>
        <time>2025-04-29T15:49:00Z</time>
      </trkpt>
      <trkpt lat="43.542956002056599" lon="-6.840642001479864">
        <ele>67.909999999999997</ele>
        <time>2025-04-29T15:49:02Z</time>
      </trkpt>
      <trkpt lat="43.543806010857224" lon="-6.843958972021937">
        <ele>71.760000000000005</ele>
        <time>2025-04-29T15:49:12Z</time>
      </trkpt>
      <trkpt lat="43.545060027390718" lon="-6.847121967002749">
        <ele>72.719999999999999</ele>
        <time>2025-04-29T15:49:22Z</time>
      </trkpt>
      <trkpt lat="43.546576984226704" lon="-6.850379006937146">
        <ele>77.040000000000006</ele>
        <time>2025-04-29T15:49:33Z</time>
      </trkpt>
      <trkpt lat="43.54738499969244" lon="-6.853001033887267">
        <ele>75.599999999999994</ele>
        <time>2025-04-29T15:49:41Z</time>
      </trkpt>
      <trkpt lat="43.547855978831649" lon="-6.856194958090782">
        <ele>73.200000000000003</ele>
        <time>2025-04-29T15:49:50Z</time>
      </trkpt>
      <trkpt lat="43.547981958836317" lon="-6.859388966113329">
        <ele>67.430000000000007</ele>
        <time>2025-04-29T15:49:59Z</time>
      </trkpt>
      <trkpt lat="43.548016995191574" lon="-6.862895032390952">
        <ele>58.780000000000001</ele>
        <time>2025-04-29T15:50:09Z</time>
      </trkpt>
      <trkpt lat="43.547776015475392" lon="-6.866391962394118">
        <ele>54.450000000000003</ele>
        <time>2025-04-29T15:50:19Z</time>
      </trkpt>
      <trkpt lat="43.547115018591285" lon="-6.869374997913837">
        <ele>47.719999999999999</ele>
        <time>2025-04-29T15:50:28Z</time>
      </trkpt>
      <trkpt lat="43.546730959787965" lon="-6.872157035395503">
        <ele>41.950000000000003</ele>
        <time>2025-04-29T15:50:36Z</time>
      </trkpt>
      <trkpt lat="43.546534990891814" lon="-6.874949969351292">
        <ele>37.630000000000003</ele>
        <time>2025-04-29T15:50:44Z</time>
      </trkpt>
      <trkpt lat="43.546281019225717" lon="-6.879083001986146">
        <ele>45.799999999999997</ele>
        <time>2025-04-29T15:50:56Z</time>
      </trkpt>
      <trkpt lat="43.545968038961291" lon="-6.882359990850091">
        <ele>53.969999999999999</ele>
        <time>2025-04-29T15:51:05Z</time>
      </trkpt>
      <trkpt lat="43.545340988785028" lon="-6.885011019185185">
        <ele>61.659999999999997</ele>
        <time>2025-04-29T15:51:13Z</time>
      </trkpt>
      <trkpt lat="43.544643027707934" lon="-6.888009980320931">
        <ele>70.310000000000002</ele>
        <time>2025-04-29T15:51:22Z</time>
      </trkpt>
      <trkpt lat="43.54429199360311" lon="-6.890245014801621">
        <ele>75.599999999999994</ele>
        <time>2025-04-29T15:51:28Z</time>
      </trkpt>
      <trkpt lat="43.544067023321986" lon="-6.893307007849217">
        <ele>78.969999999999999</ele>
        <time>2025-04-29T15:51:37Z</time>
      </trkpt>
      <trkpt lat="43.544187974184752" lon="-6.896840985864401">
        <ele>78.969999999999999</ele>
        <time>2025-04-29T15:51:47Z</time>
      </trkpt>
      <trkpt lat="43.544690972194076" lon="-6.900335988029838">
        <ele>75.599999999999994</ele>
        <time>2025-04-29T15:51:57Z</time>
      </trkpt>
      <trkpt lat="43.545438973233104" lon="-6.90358598716557">
        <ele>70.790000000000006</ele>
        <time>2025-04-29T15:52:07Z</time>
      </trkpt>
      <trkpt lat="43.54624698869884" lon="-6.907707033678889">
        <ele>65.030000000000001</ele>
        <time>2025-04-29T15:52:19Z</time>
      </trkpt>
      <trkpt lat="43.546576984226704" lon="-6.911217039451003">
        <ele>61.18</ele>
        <time>2025-04-29T15:52:29Z</time>
      </trkpt>
      <trkpt lat="43.546644039452076" lon="-6.914795022457838">
        <ele>55.409999999999997</ele>
        <time>2025-04-29T15:52:40Z</time>
      </trkpt>
      <trkpt lat="43.546511018648744" lon="-6.920106969773769">
        <ele>50.130000000000003</ele>
        <time>2025-04-29T15:52:54Z</time>
      </trkpt>
      <trkpt lat="43.546302979812026" lon="-6.923354035243392">
        <ele>50.130000000000003</ele>
        <time>2025-04-29T15:53:03Z</time>
      </trkpt>
      <trkpt lat="43.545964015647769" lon="-6.927095968276262">
        <ele>52.530000000000001</ele>
        <time>2025-04-29T15:53:14Z</time>
      </trkpt>
      <trkpt lat="43.545390022918582" lon="-6.931580035015941">
        <ele>52.530000000000001</ele>
        <time>2025-04-29T15:53:27Z</time>
      </trkpt>
      <trkpt lat="43.544544959440827" lon="-6.936582019552589">
        <ele>51.090000000000003</ele>
        <time>2025-04-29T15:53:41Z</time>
      </trkpt>
      <trkpt lat="43.543758988380432" lon="-6.940342979505658">
        <ele>48.200000000000003</ele>
        <time>2025-04-29T15:53:52Z</time>
      </trkpt>
      <trkpt lat="43.543062033131719" lon="-6.943738991394639">
        <ele>45.799999999999997</ele>
        <time>2025-04-29T15:54:02Z</time>
      </trkpt>
      <trkpt lat="43.54263698682189" lon="-6.946580959483981">
        <ele>45.799999999999997</ele>
        <time>2025-04-29T15:54:10Z</time>
      </trkpt>
      <trkpt lat="43.542359964922071" lon="-6.950435964390636">
        <ele>46.759999999999998</ele>
        <time>2025-04-29T15:54:21Z</time>
      </trkpt>
      <trkpt lat="43.542396007105708" lon="-6.953622009605169">
        <ele>48.200000000000003</ele>
        <time>2025-04-29T15:54:30Z</time>
      </trkpt>
      <trkpt lat="43.542531039565802" lon="-6.957150958478451">
        <ele>45.32</ele>
        <time>2025-04-29T15:54:40Z</time>
      </trkpt>
      <trkpt lat="43.542476976290345" lon="-6.960984002798796">
        <ele>43.399999999999999</ele>
        <time>2025-04-29T15:54:51Z</time>
      </trkpt>
      <trkpt lat="43.542174976319075" lon="-6.963234040886164">
        <ele>40.030000000000001</ele>
        <time>2025-04-29T15:54:59Z</time>
      </trkpt>
      <trkpt lat="43.54156200774014" lon="-6.967702014371753">
        <ele>39.549999999999997</ele>
        <time>2025-04-29T15:55:12Z</time>
      </trkpt>
      <trkpt lat="43.541321028023958" lon="-6.971199028193951">
        <ele>39.549999999999997</ele>
        <time>2025-04-29T15:55:22Z</time>
      </trkpt>
      <trkpt lat="43.541397973895073" lon="-6.974341990426183">
        <ele>39.549999999999997</ele>
        <time>2025-04-29T15:55:31Z</time>
      </trkpt>
      <trkpt lat="43.541621016338468" lon="-6.977873034775257">
        <ele>39.549999999999997</ele>
        <time>2025-04-29T15:55:41Z</time>
      </trkpt>
      <trkpt lat="43.541407026350498" lon="-6.9811259675771">
        <ele>39.07</ele>
        <time>2025-04-29T15:55:50Z</time>
      </trkpt>
      <trkpt lat="43.540890030562878" lon="-6.983913034200668">
        <ele>36.189999999999998</ele>
        <time>2025-04-29T15:55:58Z</time>
      </trkpt>
      <trkpt lat="43.540559029206634" lon="-6.987061025574803">
        <ele>32.340000000000003</ele>
        <time>2025-04-29T15:56:07Z</time>
      </trkpt>
      <trkpt lat="43.540388960391283" lon="-6.991609968245029">
        <ele>35.710000000000001</ele>
        <time>2025-04-29T15:56:20Z</time>
      </trkpt>
      <trkpt lat="43.54063899256289" lon="-6.994240041822195">
        <ele>37.149999999999999</ele>
        <time>2025-04-29T15:56:28Z</time>
      </trkpt>
      <trkpt lat="43.541351035237312" lon="-6.996488990262151">
        <ele>36.189999999999998</ele>
        <time>2025-04-29T15:56:35Z</time>
      </trkpt>
      <trkpt lat="43.54282901622355" lon="-6.99953799135983">
        <ele>33.299999999999997</ele>
        <time>2025-04-29T15:56:45Z</time>
      </trkpt>
      <trkpt lat="43.54388102889061" lon="-7.002337966114283">
        <ele>28.02</ele>
        <time>2025-04-29T15:56:54Z</time>
      </trkpt>
      <trkpt lat="43.544626012444496" lon="-7.005400964990258">
        <ele>22.73</ele>
        <time>2025-04-29T15:57:03Z</time>
      </trkpt>
      <trkpt lat="43.545073019340634" lon="-7.008779039606452">
        <ele>22.25</ele>
        <time>2025-04-29T15:57:13Z</time>
      </trkpt>
      <trkpt lat="43.545157006010413" lon="-7.011856958270073">
        <ele>23.690000000000001</ele>
        <time>2025-04-29T15:57:22Z</time>
      </trkpt>
      <trkpt lat="43.544896999374032" lon="-7.015167977660894">
        <ele>26.09</ele>
        <time>2025-04-29T15:57:31Z</time>
      </trkpt>
      <trkpt lat="43.5444410238415" lon="-7.017879020422697">
        <ele>29.940000000000001</ele>
        <time>2025-04-29T15:57:39Z</time>
      </trkpt>
      <trkpt lat="43.543569976463914" lon="-7.021810971200466">
        <ele>31.379999999999999</ele>
        <time>2025-04-29T15:57:51Z</time>
      </trkpt>
      <trkpt lat="43.54319698177278" lon="-7.024520002305508">
        <ele>32.340000000000003</ele>
        <time>2025-04-29T15:57:58Z</time>
      </trkpt>
      <trkpt lat="43.543083993718028" lon="-7.026941031217575">
        <ele>33.780000000000001</ele>
        <time>2025-04-29T15:58:05Z</time>
      </trkpt>
      <trkpt lat="43.543003024533391" lon="-7.031943015754223">
        <ele>36.189999999999998</ele>
        <time>2025-04-29T15:58:20Z</time>
      </trkpt>
      <trkpt lat="43.542948961257935" lon="-7.037223028019071">
        <ele>35.229999999999997</ele>
        <time>2025-04-29T15:58:35Z</time>
      </trkpt>
      <trkpt lat="43.542909985408187" lon="-7.041425965726376">
        <ele>33.299999999999997</ele>
        <time>2025-04-29T15:58:47Z</time>
      </trkpt>
      <trkpt lat="43.54282901622355" lon="-7.04405402764678">
        <ele>31.859999999999999</ele>
        <time>2025-04-29T15:58:56Z</time>
      </trkpt>
      <trkpt lat="43.54267998598516" lon="-7.045621024444699">
        <ele>28.5</ele>
        <time>2025-04-29T15:59:04Z</time>
      </trkpt>
      <trkpt lat="43.542683003470302" lon="-7.046232987195253">
        <ele>25.609999999999999</ele>
        <time>2025-04-29T15:59:08Z</time>
      </trkpt>
      <trkpt lat="43.542718039825559" lon="-7.046337006613612">
        <ele>25.129999999999999</ele>
        <time>2025-04-29T15:59:09Z</time>
      </trkpt>
      <trkpt lat="43.542746035382152" lon="-7.046420993283391">
        <ele>24.649999999999999</ele>
        <time>2025-04-29T15:59:10Z</time>
      </trkpt>
      <trkpt lat="43.542794985696673" lon="-7.046458041295409">
        <ele>24.170000000000002</ele>
        <time>2025-04-29T15:59:11Z</time>
      </trkpt>
      <trkpt lat="43.542858017608523" lon="-7.046555019915104">
        <ele>24.170000000000002</ele>
        <time>2025-04-29T15:59:12Z</time>
      </trkpt>
      <trkpt lat="43.542890036478639" lon="-7.046641018241644">
        <ele>24.649999999999999</ele>
        <time>2025-04-29T15:59:13Z</time>
      </trkpt>
      <trkpt lat="43.542876960709691" lon="-7.046766998246312">
        <ele>24.170000000000002</ele>
        <time>2025-04-29T15:59:14Z</time>
      </trkpt>
      <trkpt lat="43.542827004566789" lon="-7.04684897325933">
        <ele>24.170000000000002</ele>
        <time>2025-04-29T15:59:15Z</time>
      </trkpt>
      <trkpt lat="43.542761038988829" lon="-7.046864982694387">
        <ele>24.170000000000002</ele>
        <time>2025-04-29T15:59:16Z</time>
      </trkpt>
      <trkpt lat="43.542687026783824" lon="-7.046856014057994">
        <ele>23.690000000000001</ele>
        <time>2025-04-29T15:59:17Z</time>
      </trkpt>
      <trkpt lat="43.542630029842257" lon="-7.046828018501401">
        <ele>23.690000000000001</ele>
        <time>2025-04-29T15:59:18Z</time>
      </trkpt>
      <trkpt lat="43.542589964345098" lon="-7.046728022396565">
        <ele>23.690000000000001</ele>
        <time>2025-04-29T15:59:19Z</time>
      </trkpt>
      <trkpt lat="43.542498014867306" lon="-7.046607993543148">
        <ele>23.690000000000001</ele>
        <time>2025-04-29T15:59:20Z</time>
      </trkpt>
      <trkpt lat="43.542413022369146" lon="-7.046566000208259">
        <ele>23.690000000000001</ele>
        <time>2025-04-29T15:59:21Z</time>
      </trkpt>
      <trkpt lat="43.542330963537097" lon="-7.04652501270175">
        <ele>23.690000000000001</ele>
        <time>2025-04-29T15:59:22Z</time>
      </trkpt>
      <trkpt lat="43.542252006009221" lon="-7.046485031023622">
        <ele>24.170000000000002</ele>
        <time>2025-04-29T15:59:23Z</time>
      </trkpt>
      <trkpt lat="43.542189979925752" lon="-7.046454017981887">
        <ele>24.649999999999999</ele>
        <time>2025-04-29T15:59:24Z</time>
      </trkpt>
      <trkpt lat="43.542166007682681" lon="-7.046442031860352">
        <ele>25.609999999999999</ele>
        <time>2025-04-29T15:59:25Z</time>
      </trkpt>
      <trkpt lat="43.542061988264322" lon="-7.046389980241656">
        <ele>26.57</ele>
        <time>2025-04-29T15:59:26Z</time>
      </trkpt>
      <trkpt lat="43.541909018531442" lon="-7.046463992446661">
        <ele>27.050000000000001</ele>
        <time>2025-04-29T15:59:27Z</time>
      </trkpt>
      <trkpt lat="43.541909018531442" lon="-7.046463992446661">
        <ele>28.02</ele>
        <time>2025-04-29T15:59:29Z</time>
      </trkpt>
      <trkpt lat="43.541800975799561" lon="-7.046528030186892">
        <ele>28.02</ele>
        <time>2025-04-29T15:59:30Z</time>
      </trkpt>
      <trkpt lat="43.54173400439322" lon="-7.046470027416945">
        <ele>28.5</ele>
        <time>2025-04-29T15:59:31Z</time>
      </trkpt>
      <trkpt lat="43.541678013280034" lon="-7.046421999111772">
        <ele>28.5</ele>
        <time>2025-04-29T15:59:32Z</time>
      </trkpt>
      <trkpt lat="43.541651023551822" lon="-7.046394003555179">
        <ele>27.530000000000001</ele>
        <time>2025-04-29T15:59:33Z</time>
      </trkpt>
      <trkpt lat="43.541651023551822" lon="-7.046297024935484">
        <ele>27.050000000000001</ele>
        <time>2025-04-29T15:59:34Z</time>
      </trkpt>
      <trkpt lat="43.541651023551822" lon="-7.046205997467041">
        <ele>26.57</ele>
        <time>2025-04-29T15:59:35Z</time>
      </trkpt>
      <trkpt lat="43.541698968037963" lon="-7.046126034110785">
        <ele>26.09</ele>
        <time>2025-04-29T15:59:36Z</time>
      </trkpt>
      <trkpt lat="43.541755964979529" lon="-7.046026960015297">
        <ele>25.609999999999999</ele>
        <time>2025-04-29T15:59:37Z</time>
      </trkpt>
      <trkpt lat="43.541815979406238" lon="-7.045920006930828">
        <ele>25.609999999999999</ele>
        <time>2025-04-29T15:59:38Z</time>
      </trkpt>
      <trkpt lat="43.541879011318088" lon="-7.045808024704456">
        <ele>25.129999999999999</ele>
        <time>2025-04-29T15:59:39Z</time>
      </trkpt>
      <trkpt lat="43.541947994381189" lon="-7.045685984194279">
        <ele>25.609999999999999</ele>
        <time>2025-04-29T15:59:40Z</time>
      </trkpt>
      <trkpt lat="43.542018989101052" lon="-7.045560004189611">
        <ele>26.09</ele>
        <time>2025-04-29T15:59:41Z</time>
      </trkpt>
      <trkpt lat="43.542101969942451" lon="-7.045411979779601">
        <ele>26.57</ele>
        <time>2025-04-29T15:59:42Z</time>
      </trkpt>
      <trkpt lat="43.542133988812566" lon="-7.045266972854734">
        <ele>27.050000000000001</ele>
        <time>2025-04-29T15:59:43Z</time>
      </trkpt>
      <trkpt lat="43.542171958833933" lon="-7.045098999515176">
        <ele>27.530000000000001</ele>
        <time>2025-04-29T15:59:44Z</time>
      </trkpt>
      <trkpt lat="43.542478987947106" lon="-7.043605009093881">
        <ele>30.420000000000002</ele>
        <time>2025-04-29T15:59:54Z</time>
      </trkpt>
      <trkpt lat="43.542489968240261" lon="-7.043481962755323">
        <ele>30.899999999999999</ele>
        <time>2025-04-29T15:59:55Z</time>
      </trkpt>
      <trkpt lat="43.542494997382164" lon="-7.043352965265513">
        <ele>30.899999999999999</ele>
        <time>2025-04-29T15:59:56Z</time>
      </trkpt>
      <trkpt lat="43.54252802208066" lon="-7.042498011142016">
        <ele>27.050000000000001</ele>
        <time>2025-04-29T16:00:03Z</time>
      </trkpt>
      <trkpt lat="43.542530033737421" lon="-7.042435985058546">
        <ele>26.57</ele>
        <time>2025-04-29T16:00:04Z</time>
      </trkpt>
      <trkpt lat="43.542472030967474" lon="-7.042383011430502">
        <ele>26.57</ele>
        <time>2025-04-29T16:00:05Z</time>
      </trkpt>
      <trkpt lat="43.542429031804204" lon="-7.042363984510303">
        <ele>26.09</ele>
        <time>2025-04-29T16:00:06Z</time>
      </trkpt>
      <trkpt lat="43.542372034862638" lon="-7.042340012267232">
        <ele>25.609999999999999</ele>
        <time>2025-04-29T16:00:07Z</time>
      </trkpt>
      <trkpt lat="43.542301962152123" lon="-7.042310005053878">
        <ele>25.609999999999999</ele>
        <time>2025-04-29T16:00:08Z</time>
      </trkpt>
      <trkpt lat="43.542213030159473" lon="-7.042262982577086">
        <ele>25.609999999999999</ele>
        <time>2025-04-29T16:00:09Z</time>
      </trkpt>
      <trkpt lat="43.542137006297708" lon="-7.042192993685603">
        <ele>26.09</ele>
        <time>2025-04-29T16:00:10Z</time>
      </trkpt>
      <trkpt lat="43.542058970779181" lon="-7.04212099313736">
        <ele>26.09</ele>
        <time>2025-04-29T16:00:11Z</time>
      </trkpt>
      <trkpt lat="43.541960986331105" lon="-7.042041029781103">
        <ele>26.57</ele>
        <time>2025-04-29T16:00:12Z</time>
      </trkpt>
      <trkpt lat="43.541914969682693" lon="-7.041913038119674">
        <ele>27.050000000000001</ele>
        <time>2025-04-29T16:00:13Z</time>
      </trkpt>
      <trkpt lat="43.541876999661326" lon="-7.04179703257978">
        <ele>27.530000000000001</ele>
        <time>2025-04-29T16:00:14Z</time>
      </trkpt>
      <trkpt lat="43.541839029639959" lon="-7.041682032868266">
        <ele>28.02</ele>
        <time>2025-04-29T16:00:15Z</time>
      </trkpt>
      <trkpt lat="43.541813967749476" lon="-7.041552029550076">
        <ele>28.02</ele>
        <time>2025-04-29T16:00:16Z</time>
      </trkpt>
      <trkpt lat="43.541800975799561" lon="-7.041441975161433">
        <ele>28.98</ele>
        <time>2025-04-29T16:00:17Z</time>
      </trkpt>
      <trkpt lat="43.541800975799561" lon="-7.041313983500004">
        <ele>28.98</ele>
        <time>2025-04-29T16:00:18Z</time>
      </trkpt>
      <trkpt lat="43.541831988841295" lon="-7.040979964658618">
        <ele>29.940000000000001</ele>
        <time>2025-04-29T16:00:21Z</time>
      </trkpt>
      <trkpt lat="43.54184296913445" lon="-7.04066002741456">
        <ele>30.899999999999999</ele>
        <time>2025-04-29T16:00:26Z</time>
      </trkpt>
      <trkpt lat="43.541816985234618" lon="-7.040642006322742">
        <ele>31.379999999999999</ele>
        <time>2025-04-29T16:00:27Z</time>
      </trkpt>
      <trkpt lat="43.54177700355649" lon="-7.040613004937768">
        <ele>31.859999999999999</ele>
        <time>2025-04-29T16:00:28Z</time>
      </trkpt>
      <trkpt lat="43.541721012443304" lon="-7.04057402908802">
        <ele>31.859999999999999</ele>
        <time>2025-04-29T16:00:29Z</time>
      </trkpt>
      <trkpt lat="43.541662003844976" lon="-7.040532035753131">
        <ele>32.340000000000003</ele>
        <time>2025-04-29T16:00:30Z</time>
      </trkpt>
      <trkpt lat="43.541465029120445" lon="-7.040391974151135">
        <ele>33.299999999999997</ele>
        <time>2025-04-29T16:00:33Z</time>
      </trkpt>
      <trkpt lat="43.541394034400582" lon="-7.040342018008232">
        <ele>34.259999999999998</ele>
        <time>2025-04-29T16:00:34Z</time>
      </trkpt>
      <trkpt lat="43.541341982781887" lon="-7.04027496278286">
        <ele>34.740000000000002</ele>
        <time>2025-04-29T16:00:35Z</time>
      </trkpt>
      <trkpt lat="43.540974017232656" lon="-7.039858968928456">
        <ele>36.670000000000002</ele>
        <time>2025-04-29T16:00:42Z</time>
      </trkpt>
      <trkpt lat="43.540944010019302" lon="-7.039896016940475">
        <ele>36.670000000000002</ele>
        <time>2025-04-29T16:00:43Z</time>
      </trkpt>
      <trkpt lat="43.540901010856032" lon="-7.039945973083377">
        <ele>36.670000000000002</ele>
        <time>2025-04-29T16:00:44Z</time>
      </trkpt>
      <trkpt lat="43.540520975366235" lon="-7.040362972766161">
        <ele>37.149999999999999</ele>
        <time>2025-04-29T16:00:51Z</time>
      </trkpt>
      <trkpt lat="43.539870036765933" lon="-7.040978958830237">
        <ele>39.07</ele>
        <time>2025-04-29T16:01:03Z</time>
      </trkpt>
      <trkpt lat="43.539751013740897" lon="-7.041087001562119">
        <ele>39.07</ele>
        <time>2025-04-29T16:01:05Z</time>
      </trkpt>
      <trkpt lat="43.539690999314189" lon="-7.041141986846924">
        <ele>39.07</ele>
        <time>2025-04-29T16:01:06Z</time>
      </trkpt>
      <trkpt lat="43.539577005431056" lon="-7.041246006265283">
        <ele>39.549999999999997</ele>
        <time>2025-04-29T16:01:08Z</time>
      </trkpt>
      <trkpt lat="43.539522020146251" lon="-7.041295962408185">
        <ele>39.549999999999997</ele>
        <time>2025-04-29T16:01:09Z</time>
      </trkpt>
      <trkpt lat="43.539174003526568" lon="-7.041612965986133">
        <ele>40.030000000000001</ele>
        <time>2025-04-29T16:01:16Z</time>
      </trkpt>
      <trkpt lat="43.539161011576653" lon="-7.041624030098319">
        <ele>40.030000000000001</ele>
        <time>2025-04-29T16:01:17Z</time>
      </trkpt>
      <trkpt lat="43.53915598243475" lon="-7.04162897542119">
        <ele>40.030000000000001</ele>
        <time>2025-04-29T16:01:18Z</time>
      </trkpt>
      <trkpt lat="43.539153970777988" lon="-7.041630987077951">
        <ele>39.549999999999997</ele>
        <time>2025-04-29T16:01:19Z</time>
      </trkpt>
      <trkpt lat="43.539153970777988" lon="-7.041630987077951">
        <ele>39.549999999999997</ele>
        <time>2025-04-29T16:01:20Z</time>
      </trkpt>
      <trkpt lat="43.539166962727904" lon="-7.04179996624589">
        <ele>39.07</ele>
        <time>2025-04-29T16:01:23Z</time>
      </trkpt>
      <trkpt lat="43.539183977991343" lon="-7.041812036186457">
        <ele>39.07</ele>
        <time>2025-04-29T16:01:24Z</time>
      </trkpt>
      <trkpt lat="43.539205016568303" lon="-7.041827039793134">
        <ele>39.07</ele>
        <time>2025-04-29T16:01:25Z</time>
      </trkpt>
      <trkpt lat="43.539225971326232" lon="-7.04184103757143">
        <ele>39.07</ele>
        <time>2025-04-29T16:01:26Z</time>
      </trkpt>
      <trkpt lat="43.539243992418051" lon="-7.041854029521346">
        <ele>39.07</ele>
        <time>2025-04-29T16:01:27Z</time>
      </trkpt>
      <trkpt lat="43.539258996024728" lon="-7.04186400398612">
        <ele>39.07</ele>
        <time>2025-04-29T16:01:28Z</time>
      </trkpt>
      <trkpt lat="43.539258996024728" lon="-7.04186400398612">
        <ele>38.590000000000003</ele>
        <time>2025-04-29T16:01:44Z</time>
      </trkpt>
      <trkpt lat="43.539460999891162" lon="-7.041674992069602">
        <ele>40.509999999999998</ele>
        <time>2025-04-29T16:15:58Z</time>
      </trkpt>
      <trkpt lat="43.539225971326232" lon="-7.041856963187456">
        <ele>65.030000000000001</ele>
        <time>2025-04-29T16:16:14Z</time>
      </trkpt>
      <trkpt lat="43.539233012124896" lon="-7.041841959580779">
        <ele>65.510000000000005</ele>
        <time>2025-04-29T16:16:16Z</time>
      </trkpt>
      <trkpt lat="43.539271987974644" lon="-7.041872972622514">
        <ele>65.030000000000001</ele>
        <time>2025-04-29T16:16:18Z</time>
      </trkpt>
      <trkpt lat="43.539406014606357" lon="-7.041967017576098">
        <ele>63.100000000000001</ele>
        <time>2025-04-29T16:16:22Z</time>
      </trkpt>
      <trkpt lat="43.539428981021047" lon="-7.041983027011156">
        <ele>63.100000000000001</ele>
        <time>2025-04-29T16:16:23Z</time>
      </trkpt>
      <trkpt lat="43.539427975192666" lon="-7.042087968438864">
        <ele>62.619999999999997</ele>
        <time>2025-04-29T16:16:24Z</time>
      </trkpt>
      <trkpt lat="43.539420012384653" lon="-7.04209802672267">
        <ele>62.140000000000001</ele>
        <time>2025-04-29T16:16:25Z</time>
      </trkpt>
      <trkpt lat="43.539407020434737" lon="-7.042112024500966">
        <ele>61.659999999999997</ele>
        <time>2025-04-29T16:16:26Z</time>
      </trkpt>
      <trkpt lat="43.539393022656441" lon="-7.042129039764404">
        <ele>61.659999999999997</ele>
        <time>2025-04-29T16:16:27Z</time>
      </trkpt>
      <trkpt lat="43.539353962987661" lon="-7.042173966765404">
        <ele>63.579999999999998</ele>
        <time>2025-04-29T16:16:41Z</time>
      </trkpt>
      <trkpt lat="43.539353962987661" lon="-7.042173966765404">
        <ele>61.659999999999997</ele>
        <time>2025-04-29T16:17:04Z</time>
      </trkpt>
      <trkpt lat="43.539353962987661" lon="-7.042173966765404">
        <ele>54.450000000000003</ele>
        <time>2025-04-29T16:17:20Z</time>
      </trkpt>
      <trkpt lat="43.539353962987661" lon="-7.042173966765404">
        <ele>50.609999999999999</ele>
        <time>2025-04-29T16:17:52Z</time>
      </trkpt>
      <trkpt lat="43.539353962987661" lon="-7.042173966765404">
        <ele>50.609999999999999</ele>
        <time>2025-04-29T16:18:10Z</time>
      </trkpt>
      <trkpt lat="43.540248982608318" lon="-7.0410689804703">
        <ele>50.609999999999999</ele>
        <time>2025-04-29T16:45:00Z</time>
      </trkpt>
      <trkpt lat="43.540240013971925" lon="-7.04147701151669">
        <ele>50.130000000000003</ele>
        <time>2025-04-29T16:45:16Z</time>
      </trkpt>
      <trkpt lat="43.539995010942221" lon="-7.041200995445252">
        <ele>48.68</ele>
        <time>2025-04-29T16:45:36Z</time>
      </trkpt>
      <trkpt lat="43.539741039276123" lon="-7.041430994868279">
        <ele>48.200000000000003</ele>
        <time>2025-04-29T16:45:52Z</time>
      </trkpt>
      <trkpt lat="43.539698962122202" lon="-7.041467959061265">
        <ele>48.200000000000003</ele>
        <time>2025-04-29T16:46:06Z</time>
      </trkpt>
      <trkpt lat="43.539479020982981" lon="-7.041616989299655">
        <ele>58.299999999999997</ele>
        <time>2025-04-29T16:46:21Z</time>
      </trkpt>
      <trkpt lat="43.539300989359617" lon="-7.04167197458446">
        <ele>70.790000000000006</ele>
        <time>2025-04-29T16:46:38Z</time>
      </trkpt>
      <trkpt lat="43.539298977702856" lon="-7.04167096875608">
        <ele>71.760000000000005</ele>
        <time>2025-04-29T16:47:07Z</time>
      </trkpt>
      <trkpt lat="43.539396040141582" lon="-7.041560998186469">
        <ele>68.390000000000001</ele>
        <time>2025-04-29T16:47:36Z</time>
      </trkpt>
      <trkpt lat="43.539390005171299" lon="-7.041565021499991">
        <ele>68.390000000000001</ele>
        <time>2025-04-29T16:48:09Z</time>
      </trkpt>
    </trkseg>
  </trk>

</gpx>